<?xml version='1.0' encoding='UTF-8'?><gpx version="1.1" creator="JPX - https://github.com/jenetics/jpx" xmlns="http://www.topografix.com/GPX/1/1"><trk><trkseg><trkpt lat="42.1911286" lon="14.2206339"><ele>568.0</ele><time>2026-05-01T13:09:07.467Z</time></trkpt><trkpt lat="42.191064" lon="14.2206323"><ele>568.0</ele><time>2026-05-01T13:09:08.465Z</time></trkpt><trkpt lat="42.190991" lon="14.2206276"><ele>568.0</ele><time>2026-05-01T13:09:09.454Z</time></trkpt><trkpt lat="42.1909123" lon="14.2206127"><ele>568.0</ele><time>2026-05-01T13:09:10.456Z</time></trkpt><trkpt lat="42.1908444" lon="14.2206125"><ele>568.0</ele><time>2026-05-01T13:09:11.444Z</time></trkpt><trkpt lat="42.1907768" lon="14.2206123"><ele>568.0</ele><time>2026-05-01T13:09:12.446Z</time></trkpt><trkpt lat="42.190711" lon="14.2206223"><ele>568.0</ele><time>2026-05-01T13:09:13.446Z</time></trkpt><trkpt lat="42.1906388" lon="14.2206074"><ele>568.5</ele><time>2026-05-01T13:09:14.443Z</time></trkpt><trkpt lat="42.1905385" lon="14.2205807"><ele>569.0</ele><time>2026-05-01T13:09:16.459Z</time></trkpt><trkpt lat="42.190468" lon="14.2205483"><ele>569.5</ele><time>2026-05-01T13:09:18.453Z</time></trkpt><trkpt lat="42.1903926" lon="14.2205026"><ele>570.0</ele><time>2026-05-01T13:09:20.45Z</time></trkpt><trkpt lat="42.1903283" lon="14.2204233"><ele>570.5</ele><time>2026-05-01T13:09:23.44Z</time></trkpt><trkpt lat="42.1902514" lon="14.2203743"><ele>571.0</ele><time>2026-05-01T13:09:26.449Z</time></trkpt><trkpt lat="42.1902102" lon="14.2202802"><ele>571.0</ele><time>2026-05-01T13:09:30.448Z</time></trkpt><trkpt lat="42.1902101" lon="14.2201524"><ele>571.0</ele><time>2026-05-01T13:09:32.451Z</time></trkpt><trkpt lat="42.1901474" lon="14.2200343"><ele>571.0</ele><time>2026-05-01T13:09:34.449Z</time></trkpt><trkpt lat="42.1900398" lon="14.2200085"><ele>571.0</ele><time>2026-05-01T13:09:36.453Z</time></trkpt><trkpt lat="42.1899247" lon="14.219988"><ele>571.0</ele><time>2026-05-01T13:09:38.447Z</time></trkpt><trkpt lat="42.1900396" lon="14.2199614"><ele>571.0</ele><time>2026-05-01T13:09:52.444Z</time></trkpt><trkpt lat="42.1901217" lon="14.2199416"><ele>571.0</ele><time>2026-05-01T13:09:53.453Z</time></trkpt><trkpt lat="42.1902038" lon="14.2198898"><ele>571.0</ele><time>2026-05-01T13:09:54.442Z</time></trkpt><trkpt lat="42.1902967" lon="14.2198297"><ele>571.0</ele><time>2026-05-01T13:09:55.453Z</time></trkpt><trkpt lat="42.190389" lon="14.2197784"><ele>571.0</ele><time>2026-05-01T13:09:56.461Z</time></trkpt><trkpt lat="42.1904791" lon="14.2197368"><ele>568.4</ele><time>2026-05-01T13:09:57.448Z</time></trkpt><trkpt lat="42.1905697" lon="14.2196988"><ele>565.8</ele><time>2026-05-01T13:09:58.452Z</time></trkpt><trkpt lat="42.1906608" lon="14.2196766"><ele>563.1999999999999</ele><time>2026-05-01T13:09:59.449Z</time></trkpt><trkpt lat="42.1907558" lon="14.2196726"><ele>560.6</ele><time>2026-05-01T13:10:00.449Z</time></trkpt><trkpt lat="42.1908596" lon="14.2196752"><ele>558.0</ele><time>2026-05-01T13:10:01.447Z</time></trkpt><trkpt lat="42.1909724" lon="14.2196908"><ele>556.75</ele><time>2026-05-01T13:10:02.442Z</time></trkpt><trkpt lat="42.1910969" lon="14.21972"><ele>555.5</ele><time>2026-05-01T13:10:03.451Z</time></trkpt><trkpt lat="42.1912234" lon="14.219741"><ele>554.25</ele><time>2026-05-01T13:10:04.452Z</time></trkpt><trkpt lat="42.1913506" lon="14.2197679"><ele>553.0</ele><time>2026-05-01T13:10:05.454Z</time></trkpt><trkpt lat="42.1914787" lon="14.219794"><ele>556.25</ele><time>2026-05-01T13:10:06.454Z</time></trkpt><trkpt lat="42.1916092" lon="14.2198185"><ele>559.5</ele><time>2026-05-01T13:10:07.454Z</time></trkpt><trkpt lat="42.1917419" lon="14.2198288"><ele>562.75</ele><time>2026-05-01T13:10:08.453Z</time></trkpt><trkpt lat="42.191871" lon="14.2198321"><ele>566.0</ele><time>2026-05-01T13:10:09.457Z</time></trkpt><trkpt lat="42.1919943" lon="14.219833"><ele>566.0</ele><time>2026-05-01T13:10:10.453Z</time></trkpt><trkpt lat="42.192115" lon="14.2198363"><ele>566.0</ele><time>2026-05-01T13:10:11.452Z</time></trkpt><trkpt lat="42.1922262" lon="14.2198351"><ele>566.0</ele><time>2026-05-01T13:10:12.454Z</time></trkpt><trkpt lat="42.1923364" lon="14.2198411"><ele>566.0</ele><time>2026-05-01T13:10:13.457Z</time></trkpt><trkpt lat="42.1924475" lon="14.2198598"><ele>564.5</ele><time>2026-05-01T13:10:14.453Z</time></trkpt><trkpt lat="42.1925573" lon="14.2198989"><ele>563.0</ele><time>2026-05-01T13:10:15.448Z</time></trkpt><trkpt lat="42.1926652" lon="14.2199496"><ele>561.5</ele><time>2026-05-01T13:10:16.437Z</time></trkpt><trkpt lat="42.1927688" lon="14.220002"><ele>560.0</ele><time>2026-05-01T13:10:17.435Z</time></trkpt><trkpt lat="42.1928691" lon="14.2200735"><ele>560.0</ele><time>2026-05-01T13:10:18.439Z</time></trkpt><trkpt lat="42.1929649" lon="14.2201721"><ele>560.0</ele><time>2026-05-01T13:10:19.451Z</time></trkpt><trkpt lat="42.1930574" lon="14.220285"><ele>560.0</ele><time>2026-05-01T13:10:20.445Z</time></trkpt><trkpt lat="42.1931549" lon="14.2203812"><ele>560.0</ele><time>2026-05-01T13:10:21.455Z</time></trkpt><trkpt lat="42.1932473" lon="14.2204728"><ele>559.2</ele><time>2026-05-01T13:10:22.447Z</time></trkpt><trkpt lat="42.193337" lon="14.2205383"><ele>558.4</ele><time>2026-05-01T13:10:23.448Z</time></trkpt><trkpt lat="42.1934291" lon="14.2205856"><ele>557.6</ele><time>2026-05-01T13:10:24.457Z</time></trkpt><trkpt lat="42.1935254" lon="14.2206159"><ele>556.8</ele><time>2026-05-01T13:10:25.447Z</time></trkpt><trkpt lat="42.1936088" lon="14.220631"><ele>556.0</ele><time>2026-05-01T13:10:26.455Z</time></trkpt><trkpt lat="42.1936879" lon="14.220656"><ele>556.0</ele><time>2026-05-01T13:10:27.465Z</time></trkpt><trkpt lat="42.1937684" lon="14.2206748"><ele>556.0</ele><time>2026-05-01T13:10:28.453Z</time></trkpt><trkpt lat="42.1938466" lon="14.2206797"><ele>556.0</ele><time>2026-05-01T13:10:29.46Z</time></trkpt><trkpt lat="42.1939091" lon="14.2206404"><ele>556.0</ele><time>2026-05-01T13:10:30.471Z</time></trkpt><trkpt lat="42.1939468" lon="14.2205552"><ele>556.0</ele><time>2026-05-01T13:10:31.457Z</time></trkpt><trkpt lat="42.1939503" lon="14.2204643"><ele>556.0</ele><time>2026-05-01T13:10:32.466Z</time></trkpt><trkpt lat="42.1939069" lon="14.2203787"><ele>556.0</ele><time>2026-05-01T13:10:33.469Z</time></trkpt><trkpt lat="42.1938304" lon="14.2203103"><ele>554.5</ele><time>2026-05-01T13:10:34.465Z</time></trkpt><trkpt lat="42.1937306" lon="14.2202506"><ele>553.0</ele><time>2026-05-01T13:10:35.465Z</time></trkpt><trkpt lat="42.1936135" lon="14.2201898"><ele>551.5</ele><time>2026-05-01T13:10:36.468Z</time></trkpt><trkpt lat="42.193494" lon="14.2201266"><ele>550.0</ele><time>2026-05-01T13:10:37.464Z</time></trkpt><trkpt lat="42.1933828" lon="14.2200644"><ele>550.0</ele><time>2026-05-01T13:10:38.462Z</time></trkpt><trkpt lat="42.1932795" lon="14.2200011"><ele>550.0</ele><time>2026-05-01T13:10:39.47Z</time></trkpt><trkpt lat="42.1931827" lon="14.2199386"><ele>550.0</ele><time>2026-05-01T13:10:40.46Z</time></trkpt><trkpt lat="42.1930934" lon="14.2198898"><ele>550.0</ele><time>2026-05-01T13:10:41.451Z</time></trkpt><trkpt lat="42.1930139" lon="14.2198443"><ele>550.0</ele><time>2026-05-01T13:10:42.468Z</time></trkpt><trkpt lat="42.1929565" lon="14.219781"><ele>548.0</ele><time>2026-05-01T13:10:43.451Z</time></trkpt><trkpt lat="42.1929302" lon="14.2196922"><ele>546.0</ele><time>2026-05-01T13:10:44.453Z</time></trkpt><trkpt lat="42.1929244" lon="14.2195864"><ele>544.0</ele><time>2026-05-01T13:10:45.451Z</time></trkpt><trkpt lat="42.1929555" lon="14.2194782"><ele>542.0</ele><time>2026-05-01T13:10:46.45Z</time></trkpt><trkpt lat="42.1930055" lon="14.2193843"><ele>540.0</ele><time>2026-05-01T13:10:47.454Z</time></trkpt><trkpt lat="42.1930766" lon="14.2193305"><ele>538.0</ele><time>2026-05-01T13:10:48.456Z</time></trkpt><trkpt lat="42.1931464" lon="14.2192888"><ele>538.5</ele><time>2026-05-01T13:10:49.452Z</time></trkpt><trkpt lat="42.1932066" lon="14.2192514"><ele>539.0</ele><time>2026-05-01T13:10:50.449Z</time></trkpt><trkpt lat="42.1932638" lon="14.2192159"><ele>539.5</ele><time>2026-05-01T13:10:51.454Z</time></trkpt><trkpt lat="42.1933804" lon="14.2191897"><ele>540.0</ele><time>2026-05-01T13:10:53.449Z</time></trkpt><trkpt lat="42.1934421" lon="14.2192129"><ele>540.5</ele><time>2026-05-01T13:10:54.447Z</time></trkpt><trkpt lat="42.1934991" lon="14.2192536"><ele>541.0</ele><time>2026-05-01T13:10:55.45Z</time></trkpt><trkpt lat="42.1936123" lon="14.219331"><ele>541.0</ele><time>2026-05-01T13:10:57.445Z</time></trkpt><trkpt lat="42.1937203" lon="14.2193994"><ele>541.0</ele><time>2026-05-01T13:10:59.45Z</time></trkpt><trkpt lat="42.1938406" lon="14.219465"><ele>541.0</ele><time>2026-05-01T13:11:01.448Z</time></trkpt><trkpt lat="42.1939212" lon="14.2195198"><ele>541.0</ele><time>2026-05-01T13:11:02.451Z</time></trkpt><trkpt lat="42.1940193" lon="14.2195952"><ele>539.75</ele><time>2026-05-01T13:11:03.443Z</time></trkpt><trkpt lat="42.1941363" lon="14.2196854"><ele>538.5</ele><time>2026-05-01T13:11:04.44Z</time></trkpt><trkpt lat="42.1942482" lon="14.219773"><ele>537.25</ele><time>2026-05-01T13:11:05.44Z</time></trkpt><trkpt lat="42.1943469" lon="14.2198689"><ele>536.0</ele><time>2026-05-01T13:11:06.442Z</time></trkpt><trkpt lat="42.1944339" lon="14.2199799"><ele>536.0</ele><time>2026-05-01T13:11:07.438Z</time></trkpt><trkpt lat="42.1944977" lon="14.2201182"><ele>536.0</ele><time>2026-05-01T13:11:08.448Z</time></trkpt><trkpt lat="42.1945397" lon="14.2202679"><ele>536.0</ele><time>2026-05-01T13:11:09.443Z</time></trkpt><trkpt lat="42.1945755" lon="14.2204093"><ele>536.0</ele><time>2026-05-01T13:11:10.443Z</time></trkpt><trkpt lat="42.194615" lon="14.2205317"><ele>536.0</ele><time>2026-05-01T13:11:11.446Z</time></trkpt><trkpt lat="42.1946762" lon="14.2206142"><ele>536.0</ele><time>2026-05-01T13:11:12.445Z</time></trkpt><trkpt lat="42.1947604" lon="14.2206307"><ele>536.0</ele><time>2026-05-01T13:11:13.457Z</time></trkpt><trkpt lat="42.1948458" lon="14.2205944"><ele>536.0</ele><time>2026-05-01T13:11:14.451Z</time></trkpt><trkpt lat="42.1949288" lon="14.2204954"><ele>536.0</ele><time>2026-05-01T13:11:15.455Z</time></trkpt><trkpt lat="42.1949766" lon="14.2203506"><ele>536.0</ele><time>2026-05-01T13:11:16.448Z</time></trkpt><trkpt lat="42.1949968" lon="14.2201784"><ele>532.0</ele><time>2026-05-01T13:11:17.444Z</time></trkpt><trkpt lat="42.1949914" lon="14.2199759"><ele>528.0</ele><time>2026-05-01T13:11:18.45Z</time></trkpt><trkpt lat="42.1949753" lon="14.2197253"><ele>524.0</ele><time>2026-05-01T13:11:19.45Z</time></trkpt><trkpt lat="42.1949506" lon="14.2194947"><ele>523.25</ele><time>2026-05-01T13:11:20.439Z</time></trkpt><trkpt lat="42.1949266" lon="14.2193142"><ele>522.5</ele><time>2026-05-01T13:11:21.455Z</time></trkpt><trkpt lat="42.194937" lon="14.2191151"><ele>521.75</ele><time>2026-05-01T13:11:22.441Z</time></trkpt><trkpt lat="42.194918" lon="14.2189523"><ele>521.0</ele><time>2026-05-01T13:11:23.445Z</time></trkpt><trkpt lat="42.1949038" lon="14.218808"><ele>520.6</ele><time>2026-05-01T13:11:24.449Z</time></trkpt><trkpt lat="42.194905" lon="14.2186869"><ele>520.2</ele><time>2026-05-01T13:11:25.452Z</time></trkpt><trkpt lat="42.1949904" lon="14.2185563"><ele>519.8</ele><time>2026-05-01T13:11:27.45Z</time></trkpt><trkpt lat="42.1950815" lon="14.2185565"><ele>519.4</ele><time>2026-05-01T13:11:28.452Z</time></trkpt><trkpt lat="42.1951917" lon="14.2186064"><ele>519.0</ele><time>2026-05-01T13:11:29.453Z</time></trkpt><trkpt lat="42.1953062" lon="14.2186691"><ele>519.0</ele><time>2026-05-01T13:11:30.444Z</time></trkpt><trkpt lat="42.1954089" lon="14.2187383"><ele>519.0</ele><time>2026-05-01T13:11:31.447Z</time></trkpt><trkpt lat="42.1955125" lon="14.2188105"><ele>519.0</ele><time>2026-05-01T13:11:32.443Z</time></trkpt><trkpt lat="42.1956151" lon="14.2188846"><ele>519.0</ele><time>2026-05-01T13:11:33.451Z</time></trkpt><trkpt lat="42.1957202" lon="14.2189472"><ele>516.25</ele><time>2026-05-01T13:11:34.447Z</time></trkpt><trkpt lat="42.1958278" lon="14.2190082"><ele>513.5</ele><time>2026-05-01T13:11:35.445Z</time></trkpt><trkpt lat="42.1959369" lon="14.2190653"><ele>510.75</ele><time>2026-05-01T13:11:36.448Z</time></trkpt><trkpt lat="42.196043" lon="14.2191152"><ele>508.0</ele><time>2026-05-01T13:11:37.443Z</time></trkpt><trkpt lat="42.1961483" lon="14.2191544"><ele>508.00000000000006</ele><time>2026-05-01T13:11:38.443Z</time></trkpt><trkpt lat="42.1962478" lon="14.2191736"><ele>508.0</ele><time>2026-05-01T13:11:39.449Z</time></trkpt><trkpt lat="42.1963362" lon="14.2191852"><ele>508.0</ele><time>2026-05-01T13:11:40.452Z</time></trkpt><trkpt lat="42.1964169" lon="14.2192005"><ele>508.0</ele><time>2026-05-01T13:11:41.454Z</time></trkpt><trkpt lat="42.1964891" lon="14.2192148"><ele>508.00000000000006</ele><time>2026-05-01T13:11:42.453Z</time></trkpt><trkpt lat="42.1965546" lon="14.219236"><ele>508.0</ele><time>2026-05-01T13:11:43.458Z</time></trkpt><trkpt lat="42.1966627" lon="14.2192871"><ele>506.79999999999995</ele><time>2026-05-01T13:11:45.46Z</time></trkpt><trkpt lat="42.1967792" lon="14.2193438"><ele>505.59999999999997</ele><time>2026-05-01T13:11:47.463Z</time></trkpt><trkpt lat="42.1968974" lon="14.2193078"><ele>504.40000000000003</ele><time>2026-05-01T13:11:49.454Z</time></trkpt><trkpt lat="42.1969516" lon="14.2192333"><ele>503.20000000000005</ele><time>2026-05-01T13:11:50.467Z</time></trkpt><trkpt lat="42.1970167" lon="14.2191753"><ele>502.0</ele><time>2026-05-01T13:11:51.461Z</time></trkpt><trkpt lat="42.1970881" lon="14.2191324"><ele>502.0</ele><time>2026-05-01T13:11:52.449Z</time></trkpt><trkpt lat="42.197172" lon="14.219114"><ele>502.00000000000006</ele><time>2026-05-01T13:11:53.449Z</time></trkpt><trkpt lat="42.197274" lon="14.219119"><ele>502.00000000000006</ele><time>2026-05-01T13:11:54.459Z</time></trkpt><trkpt lat="42.1973932" lon="14.2191029"><ele>502.0</ele><time>2026-05-01T13:11:55.45Z</time></trkpt><trkpt lat="42.1975284" lon="14.2190932"><ele>502.0</ele><time>2026-05-01T13:11:56.454Z</time></trkpt><trkpt lat="42.1976655" lon="14.2190752"><ele>501.25</ele><time>2026-05-01T13:11:57.448Z</time></trkpt><trkpt lat="42.1977989" lon="14.2190524"><ele>500.5</ele><time>2026-05-01T13:11:58.454Z</time></trkpt><trkpt lat="42.1979236" lon="14.2190205"><ele>499.75</ele><time>2026-05-01T13:11:59.447Z</time></trkpt><trkpt lat="42.198052" lon="14.218982"><ele>499.0</ele><time>2026-05-01T13:12:00.463Z</time></trkpt><trkpt lat="42.1981876" lon="14.2189464"><ele>496.6666666666667</ele><time>2026-05-01T13:12:01.449Z</time></trkpt><trkpt lat="42.1983307" lon="14.2188912"><ele>494.33333333333337</ele><time>2026-05-01T13:12:02.451Z</time></trkpt><trkpt lat="42.1985157" lon="14.2187761"><ele>492.0</ele><time>2026-05-01T13:12:03.448Z</time></trkpt><trkpt lat="42.1986834" lon="14.2187053"><ele>492.0</ele><time>2026-05-01T13:12:04.448Z</time></trkpt><trkpt lat="42.1988417" lon="14.2186609"><ele>492.0</ele><time>2026-05-01T13:12:05.455Z</time></trkpt><trkpt lat="42.1990091" lon="14.2186098"><ele>492.0</ele><time>2026-05-01T13:12:06.449Z</time></trkpt><trkpt lat="42.1991618" lon="14.2185575"><ele>490.75</ele><time>2026-05-01T13:12:07.451Z</time></trkpt><trkpt lat="42.1992906" lon="14.2185082"><ele>489.5</ele><time>2026-05-01T13:12:08.449Z</time></trkpt><trkpt lat="42.1994354" lon="14.2184506"><ele>488.25</ele><time>2026-05-01T13:12:09.451Z</time></trkpt><trkpt lat="42.1995699" lon="14.2183973"><ele>487.0</ele><time>2026-05-01T13:12:10.456Z</time></trkpt><trkpt lat="42.1997087" lon="14.2183637"><ele>485.75</ele><time>2026-05-01T13:12:11.454Z</time></trkpt><trkpt lat="42.1998567" lon="14.2183283"><ele>484.5</ele><time>2026-05-01T13:12:12.451Z</time></trkpt><trkpt lat="42.2000014" lon="14.218276"><ele>483.25</ele><time>2026-05-01T13:12:13.467Z</time></trkpt><trkpt lat="42.2001425" lon="14.2182611"><ele>482.0</ele><time>2026-05-01T13:12:14.449Z</time></trkpt><trkpt lat="42.200252" lon="14.2182766"><ele>481.99999999999994</ele><time>2026-05-01T13:12:15.45Z</time></trkpt><trkpt lat="42.2003533" lon="14.2182624"><ele>482.0</ele><time>2026-05-01T13:12:16.453Z</time></trkpt><trkpt lat="42.2004271" lon="14.2182644"><ele>482.0</ele><time>2026-05-01T13:12:17.45Z</time></trkpt><trkpt lat="42.2005062" lon="14.2182509"><ele>482.0</ele><time>2026-05-01T13:12:18.455Z</time></trkpt><trkpt lat="42.2005824" lon="14.2182161"><ele>481.99999999999994</ele><time>2026-05-01T13:12:19.455Z</time></trkpt><trkpt lat="42.2006633" lon="14.2181862"><ele>482.0</ele><time>2026-05-01T13:12:20.456Z</time></trkpt><trkpt lat="42.2007689" lon="14.2181652"><ele>480.25</ele><time>2026-05-01T13:12:21.457Z</time></trkpt><trkpt lat="42.2008973" lon="14.2181445"><ele>478.5</ele><time>2026-05-01T13:12:22.458Z</time></trkpt><trkpt lat="42.20103" lon="14.2181223"><ele>476.75</ele><time>2026-05-01T13:12:23.457Z</time></trkpt><trkpt lat="42.2011667" lon="14.2180918"><ele>475.0</ele><time>2026-05-01T13:12:24.457Z</time></trkpt><trkpt lat="42.201312" lon="14.2180394"><ele>475.0</ele><time>2026-05-01T13:12:25.459Z</time></trkpt><trkpt lat="42.2014575" lon="14.2180015"><ele>475.0</ele><time>2026-05-01T13:12:26.453Z</time></trkpt><trkpt lat="42.201609" lon="14.2180207"><ele>475.0</ele><time>2026-05-01T13:12:27.456Z</time></trkpt><trkpt lat="42.2017837" lon="14.2180359"><ele>474.0</ele><time>2026-05-01T13:12:28.445Z</time></trkpt><trkpt lat="42.2019367" lon="14.2181053"><ele>473.0</ele><time>2026-05-01T13:12:29.443Z</time></trkpt><trkpt lat="42.2021007" lon="14.218163"><ele>472.0</ele><time>2026-05-01T13:12:30.442Z</time></trkpt><trkpt lat="42.2022568" lon="14.2181665"><ele>469.25</ele><time>2026-05-01T13:12:31.456Z</time></trkpt><trkpt lat="42.2024181" lon="14.2182118"><ele>466.5</ele><time>2026-05-01T13:12:32.453Z</time></trkpt><trkpt lat="42.2025552" lon="14.2182323"><ele>463.75</ele><time>2026-05-01T13:12:33.455Z</time></trkpt><trkpt lat="42.2026941" lon="14.2182263"><ele>461.0</ele><time>2026-05-01T13:12:34.45Z</time></trkpt><trkpt lat="42.2028326" lon="14.2182146"><ele>461.0</ele><time>2026-05-01T13:12:35.458Z</time></trkpt><trkpt lat="42.2029538" lon="14.2181833"><ele>461.0</ele><time>2026-05-01T13:12:36.457Z</time></trkpt><trkpt lat="42.2030565" lon="14.218141"><ele>461.0</ele><time>2026-05-01T13:12:37.462Z</time></trkpt><trkpt lat="42.2031502" lon="14.2180859"><ele>461.0</ele><time>2026-05-01T13:12:38.451Z</time></trkpt><trkpt lat="42.2032638" lon="14.2180268"><ele>460.75</ele><time>2026-05-01T13:12:39.446Z</time></trkpt><trkpt lat="42.203361" lon="14.2179372"><ele>460.5</ele><time>2026-05-01T13:12:40.454Z</time></trkpt><trkpt lat="42.2034602" lon="14.217826"><ele>460.25</ele><time>2026-05-01T13:12:41.447Z</time></trkpt><trkpt lat="42.2035701" lon="14.2177166"><ele>460.0</ele><time>2026-05-01T13:12:42.445Z</time></trkpt><trkpt lat="42.2036875" lon="14.2176108"><ele>460.0</ele><time>2026-05-01T13:12:43.448Z</time></trkpt><trkpt lat="42.2038032" lon="14.2175137"><ele>460.0</ele><time>2026-05-01T13:12:44.447Z</time></trkpt><trkpt lat="42.2039146" lon="14.2174559"><ele>460.0</ele><time>2026-05-01T13:12:45.459Z</time></trkpt><trkpt lat="42.2040081" lon="14.2173927"><ele>460.0</ele><time>2026-05-01T13:12:46.454Z</time></trkpt><trkpt lat="42.2040913" lon="14.2174023"><ele>460.0</ele><time>2026-05-01T13:12:47.444Z</time></trkpt><trkpt lat="42.2041857" lon="14.2174345"><ele>460.6</ele><time>2026-05-01T13:12:48.443Z</time></trkpt><trkpt lat="42.2042914" lon="14.2174435"><ele>461.2</ele><time>2026-05-01T13:12:49.452Z</time></trkpt><trkpt lat="42.2043804" lon="14.2174318"><ele>461.79999999999995</ele><time>2026-05-01T13:12:50.445Z</time></trkpt><trkpt lat="42.2044881" lon="14.2173935"><ele>462.4</ele><time>2026-05-01T13:12:51.457Z</time></trkpt><trkpt lat="42.204599" lon="14.2173517"><ele>463.0</ele><time>2026-05-01T13:12:52.444Z</time></trkpt><trkpt lat="42.204708" lon="14.2172994"><ele>463.0</ele><time>2026-05-01T13:12:53.448Z</time></trkpt><trkpt lat="42.2048036" lon="14.2172481"><ele>462.99999999999994</ele><time>2026-05-01T13:12:54.451Z</time></trkpt><trkpt lat="42.2048727" lon="14.2172109"><ele>462.99999999999994</ele><time>2026-05-01T13:12:55.463Z</time></trkpt><trkpt lat="42.2049771" lon="14.2171576"><ele>463.0</ele><time>2026-05-01T13:12:57.459Z</time></trkpt><trkpt lat="42.2050714" lon="14.2171008"><ele>463.0</ele><time>2026-05-01T13:12:59.459Z</time></trkpt><trkpt lat="42.2051306" lon="14.217069"><ele>462.33333333333337</ele><time>2026-05-01T13:13:00.453Z</time></trkpt><trkpt lat="42.2051999" lon="14.21704"><ele>461.6666666666667</ele><time>2026-05-01T13:13:01.449Z</time></trkpt><trkpt lat="42.2052736" lon="14.2170195"><ele>461.0</ele><time>2026-05-01T13:13:02.46Z</time></trkpt><trkpt lat="42.2053501" lon="14.2169999"><ele>460.33333333333337</ele><time>2026-05-01T13:13:03.45Z</time></trkpt><trkpt lat="42.2054204" lon="14.216982"><ele>459.6666666666667</ele><time>2026-05-01T13:13:04.446Z</time></trkpt><trkpt lat="42.205531" lon="14.2169577"><ele>459.0</ele><time>2026-05-01T13:13:06.442Z</time></trkpt><trkpt lat="42.205603" lon="14.2170455"><ele>459.0</ele><time>2026-05-01T13:13:08.444Z</time></trkpt><trkpt lat="42.2056291" lon="14.2171352"><ele>459.0</ele><time>2026-05-01T13:13:09.454Z</time></trkpt><trkpt lat="42.20567" lon="14.2172509"><ele>459.0</ele><time>2026-05-01T13:13:10.451Z</time></trkpt><trkpt lat="42.2057146" lon="14.2173706"><ele>459.0</ele><time>2026-05-01T13:13:11.444Z</time></trkpt><trkpt lat="42.2057667" lon="14.2174665"><ele>459.0</ele><time>2026-05-01T13:13:12.456Z</time></trkpt><trkpt lat="42.2058153" lon="14.2175642"><ele>459.0</ele><time>2026-05-01T13:13:13.45Z</time></trkpt><trkpt lat="42.2058507" lon="14.217659"><ele>456.0</ele><time>2026-05-01T13:13:14.456Z</time></trkpt><trkpt lat="42.2058966" lon="14.2177472"><ele>453.0</ele><time>2026-05-01T13:13:15.456Z</time></trkpt><trkpt lat="42.2059492" lon="14.217839"><ele>450.0</ele><time>2026-05-01T13:13:16.45Z</time></trkpt><trkpt lat="42.2060028" lon="14.2179391"><ele>447.0</ele><time>2026-05-01T13:13:17.453Z</time></trkpt><trkpt lat="42.2060582" lon="14.2180521"><ele>444.0</ele><time>2026-05-01T13:13:18.456Z</time></trkpt><trkpt lat="42.2061168" lon="14.2181719"><ele>442.79999999999995</ele><time>2026-05-01T13:13:19.453Z</time></trkpt><trkpt lat="42.2061895" lon="14.2182924"><ele>441.59999999999997</ele><time>2026-05-01T13:13:20.455Z</time></trkpt><trkpt lat="42.206272" lon="14.2183883"><ele>440.4</ele><time>2026-05-01T13:13:21.457Z</time></trkpt><trkpt lat="42.2063653" lon="14.2184757"><ele>439.2</ele><time>2026-05-01T13:13:22.46Z</time></trkpt><trkpt lat="42.206461" lon="14.218543"><ele>438.0</ele><time>2026-05-01T13:13:23.453Z</time></trkpt><trkpt lat="42.2065562" lon="14.2186"><ele>436.59999999999997</ele><time>2026-05-01T13:13:24.456Z</time></trkpt><trkpt lat="42.2066423" lon="14.2186608"><ele>435.19999999999993</ele><time>2026-05-01T13:13:25.454Z</time></trkpt><trkpt lat="42.2067154" lon="14.2187286"><ele>433.8</ele><time>2026-05-01T13:13:26.458Z</time></trkpt><trkpt lat="42.2067809" lon="14.2188191"><ele>432.4</ele><time>2026-05-01T13:13:27.453Z</time></trkpt><trkpt lat="42.2068442" lon="14.2189269"><ele>431.0</ele><time>2026-05-01T13:13:28.473Z</time></trkpt><trkpt lat="42.2069066" lon="14.2190504"><ele>430.4</ele><time>2026-05-01T13:13:29.458Z</time></trkpt><trkpt lat="42.206971" lon="14.2191811"><ele>429.8</ele><time>2026-05-01T13:13:30.457Z</time></trkpt><trkpt lat="42.2070307" lon="14.2193049"><ele>429.19999999999993</ele><time>2026-05-01T13:13:31.461Z</time></trkpt><trkpt lat="42.2070808" lon="14.2194257"><ele>428.59999999999997</ele><time>2026-05-01T13:13:32.455Z</time></trkpt><trkpt lat="42.2071281" lon="14.2195427"><ele>428.0</ele><time>2026-05-01T13:13:33.47Z</time></trkpt><trkpt lat="42.2071778" lon="14.219652"><ele>428.0</ele><time>2026-05-01T13:13:34.459Z</time></trkpt><trkpt lat="42.2072248" lon="14.2197604"><ele>427.99999999999994</ele><time>2026-05-01T13:13:35.46Z</time></trkpt><trkpt lat="42.2072696" lon="14.2198725"><ele>427.99999999999994</ele><time>2026-05-01T13:13:36.464Z</time></trkpt><trkpt lat="42.2073256" lon="14.2199731"><ele>428.0</ele><time>2026-05-01T13:13:37.452Z</time></trkpt><trkpt lat="42.2073953" lon="14.220044"><ele>428.0</ele><time>2026-05-01T13:13:38.456Z</time></trkpt><trkpt lat="42.2074774" lon="14.2200725"><ele>426.3333333333333</ele><time>2026-05-01T13:13:39.455Z</time></trkpt><trkpt lat="42.207561" lon="14.2200694"><ele>424.66666666666663</ele><time>2026-05-01T13:13:40.45Z</time></trkpt><trkpt lat="42.2076328" lon="14.2200666"><ele>423.0</ele><time>2026-05-01T13:13:41.454Z</time></trkpt><trkpt lat="42.20773" lon="14.2200539"><ele>421.33333333333337</ele><time>2026-05-01T13:13:43.454Z</time></trkpt><trkpt lat="42.2078033" lon="14.2200466"><ele>419.6666666666667</ele><time>2026-05-01T13:13:45.454Z</time></trkpt><trkpt lat="42.2078857" lon="14.2200164"><ele>418.0</ele><time>2026-05-01T13:13:47.453Z</time></trkpt><trkpt lat="42.2079758" lon="14.2199975"><ele>418.00000000000006</ele><time>2026-05-01T13:13:49.455Z</time></trkpt><trkpt lat="42.2080711" lon="14.2199881"><ele>418.0</ele><time>2026-05-01T13:13:51.466Z</time></trkpt><trkpt lat="42.2081551" lon="14.219968"><ele>418.0</ele><time>2026-05-01T13:13:53.461Z</time></trkpt><trkpt lat="42.2082304" lon="14.2199261"><ele>418.0</ele><time>2026-05-01T13:13:55.46Z</time></trkpt><trkpt lat="42.2082751" lon="14.2198628"><ele>418.00000000000006</ele><time>2026-05-01T13:14:18.461Z</time></trkpt><trkpt lat="42.2081757" lon="14.2198982"><ele>418.0</ele><time>2026-05-01T13:14:30.459Z</time></trkpt><trkpt lat="42.2081048" lon="14.2199345"><ele>418.00000000000006</ele><time>2026-05-01T13:14:31.459Z</time></trkpt><trkpt lat="42.2080154" lon="14.2199716"><ele>418.0</ele><time>2026-05-01T13:14:32.443Z</time></trkpt><trkpt lat="42.2079272" lon="14.2199925"><ele>418.0</ele><time>2026-05-01T13:14:33.452Z</time></trkpt><trkpt lat="42.2078572" lon="14.2200111"><ele>418.0</ele><time>2026-05-01T13:14:34.451Z</time></trkpt><trkpt lat="42.2077896" lon="14.2200193"><ele>418.00000000000006</ele><time>2026-05-01T13:14:35.469Z</time></trkpt><trkpt lat="42.2077616" lon="14.2201337"><ele>418.0</ele><time>2026-05-01T13:14:37.452Z</time></trkpt><trkpt lat="42.2077765" lon="14.220227"><ele>418.00000000000006</ele><time>2026-05-01T13:14:38.449Z</time></trkpt><trkpt lat="42.2078263" lon="14.2203437"><ele>418.0</ele><time>2026-05-01T13:14:40.444Z</time></trkpt><trkpt lat="42.2078705" lon="14.220406"><ele>418.0</ele><time>2026-05-01T13:14:42.449Z</time></trkpt><trkpt lat="42.2079137" lon="14.2204953"><ele>418.0</ele><time>2026-05-01T13:14:44.45Z</time></trkpt><trkpt lat="42.2079132" lon="14.2206002"><ele>418.00000000000006</ele><time>2026-05-01T13:14:46.443Z</time></trkpt><trkpt lat="42.2079172" lon="14.2205116"><ele>418.0</ele><time>2026-05-01T13:15:18.447Z</time></trkpt><trkpt lat="42.2078904" lon="14.2203692"><ele>418.00000000000006</ele><time>2026-05-01T13:15:20.455Z</time></trkpt><trkpt lat="42.2078761" lon="14.220271"><ele>418.0</ele><time>2026-05-01T13:15:22.446Z</time></trkpt><trkpt lat="42.2079438" lon="14.2202539"><ele>418.0</ele><time>2026-05-01T13:15:47.464Z</time></trkpt><trkpt lat="42.2080266" lon="14.2202474"><ele>418.0</ele><time>2026-05-01T13:15:50.449Z</time></trkpt><trkpt lat="42.2080986" lon="14.2203088"><ele>418.00000000000006</ele><time>2026-05-01T13:15:53.457Z</time></trkpt><trkpt lat="42.2081357" lon="14.2204026"><ele>418.0</ele><time>2026-05-01T13:15:55.457Z</time></trkpt><trkpt lat="42.2082084" lon="14.2204399"><ele>416.33333333333337</ele><time>2026-05-01T13:15:58.451Z</time></trkpt><trkpt lat="42.2082716" lon="14.2204047"><ele>414.6666666666667</ele><time>2026-05-01T13:16:00.452Z</time></trkpt><trkpt lat="42.2083869" lon="14.220338"><ele>413.0</ele><time>2026-05-01T13:16:02.454Z</time></trkpt><trkpt lat="42.2084447" lon="14.2203023"><ele>411.33333333333337</ele><time>2026-05-01T13:16:03.457Z</time></trkpt><trkpt lat="42.2084974" lon="14.2202558"><ele>409.6666666666667</ele><time>2026-05-01T13:16:04.454Z</time></trkpt><trkpt lat="42.2085898" lon="14.2201722"><ele>408.0</ele><time>2026-05-01T13:16:06.454Z</time></trkpt><trkpt lat="42.2086655" lon="14.2200933"><ele>408.0</ele><time>2026-05-01T13:16:08.463Z</time></trkpt><trkpt lat="42.2087677" lon="14.2200222"><ele>408.0</ele><time>2026-05-01T13:16:10.453Z</time></trkpt><trkpt lat="42.2088511" lon="14.2199749"><ele>408.0</ele><time>2026-05-01T13:16:12.447Z</time></trkpt><trkpt lat="42.2089376" lon="14.2199857"><ele>408.0</ele><time>2026-05-01T13:16:15.457Z</time></trkpt><trkpt lat="42.2090171" lon="14.2200148"><ele>408.0</ele><time>2026-05-01T13:16:18.463Z</time></trkpt><trkpt lat="42.2090852" lon="14.2200344"><ele>408.0</ele><time>2026-05-01T13:16:21.469Z</time></trkpt><trkpt lat="42.2091496" lon="14.2200644"><ele>406.42857142857144</ele><time>2026-05-01T13:16:23.463Z</time></trkpt><trkpt lat="42.2092162" lon="14.220093"><ele>404.8571428571429</ele><time>2026-05-01T13:16:25.46Z</time></trkpt><trkpt lat="42.2092828" lon="14.2201193"><ele>403.2857142857143</ele><time>2026-05-01T13:16:27.465Z</time></trkpt><trkpt lat="42.2093496" lon="14.2201382"><ele>401.7142857142857</ele><time>2026-05-01T13:16:29.463Z</time></trkpt><trkpt lat="42.2094425" lon="14.2201471"><ele>400.1428571428571</ele><time>2026-05-01T13:16:32.463Z</time></trkpt><trkpt lat="42.2095224" lon="14.2201615"><ele>398.57142857142856</ele><time>2026-05-01T13:16:35.459Z</time></trkpt><trkpt lat="42.2095745" lon="14.2201026"><ele>397.0</ele><time>2026-05-01T13:16:46.463Z</time></trkpt><trkpt lat="42.2096607" lon="14.2199762"><ele>397.00000000000006</ele><time>2026-05-01T13:16:48.46Z</time></trkpt><trkpt lat="42.2097035" lon="14.219873"><ele>397.0</ele><time>2026-05-01T13:16:49.456Z</time></trkpt><trkpt lat="42.2097438" lon="14.2197699"><ele>397.0</ele><time>2026-05-01T13:16:50.455Z</time></trkpt><trkpt lat="42.2097735" lon="14.2196647"><ele>397.0</ele><time>2026-05-01T13:16:51.464Z</time></trkpt><trkpt lat="42.2097804" lon="14.2195575"><ele>397.00000000000006</ele><time>2026-05-01T13:16:52.454Z</time></trkpt><trkpt lat="42.2097771" lon="14.219456"><ele>397.0</ele><time>2026-05-01T13:16:53.458Z</time></trkpt><trkpt lat="42.209794" lon="14.2193335"><ele>397.0</ele><time>2026-05-01T13:16:55.459Z</time></trkpt><trkpt lat="42.2098602" lon="14.2193845"><ele>397.0</ele><time>2026-05-01T13:16:58.456Z</time></trkpt><trkpt lat="42.2098505" lon="14.2195451"><ele>397.0</ele><time>2026-05-01T13:17:00.457Z</time></trkpt><trkpt lat="42.2098418" lon="14.2196862"><ele>397.0</ele><time>2026-05-01T13:17:01.451Z</time></trkpt><trkpt lat="42.209837" lon="14.2198391"><ele>397.0</ele><time>2026-05-01T13:17:02.455Z</time></trkpt><trkpt lat="42.2098242" lon="14.2200093"><ele>397.0</ele><time>2026-05-01T13:17:03.451Z</time></trkpt><trkpt lat="42.2097995" lon="14.2201917"><ele>397.0</ele><time>2026-05-01T13:17:04.464Z</time></trkpt><trkpt lat="42.2097822" lon="14.2203628"><ele>397.0</ele><time>2026-05-01T13:17:05.45Z</time></trkpt><trkpt lat="42.2097775" lon="14.220513"><ele>397.0</ele><time>2026-05-01T13:17:06.45Z</time></trkpt><trkpt lat="42.2097833" lon="14.2206375"><ele>396.1666666666667</ele><time>2026-05-01T13:17:07.445Z</time></trkpt><trkpt lat="42.2097911" lon="14.2207374"><ele>395.33333333333337</ele><time>2026-05-01T13:17:08.449Z</time></trkpt><trkpt lat="42.2098334" lon="14.2208298"><ele>394.5</ele><time>2026-05-01T13:17:10.456Z</time></trkpt><trkpt lat="42.2098368" lon="14.2209159"><ele>393.66666666666663</ele><time>2026-05-01T13:17:27.46Z</time></trkpt><trkpt lat="42.2098245" lon="14.2210312"><ele>392.8333333333333</ele><time>2026-05-01T13:17:29.462Z</time></trkpt><trkpt lat="42.2098743" lon="14.2211262"><ele>392.0</ele><time>2026-05-01T13:17:32.457Z</time></trkpt><trkpt lat="42.2099468" lon="14.2211347"><ele>391.66666666666663</ele><time>2026-05-01T13:17:34.453Z</time></trkpt><trkpt lat="42.2100118" lon="14.2211413"><ele>391.3333333333333</ele><time>2026-05-01T13:17:49.456Z</time></trkpt><trkpt lat="42.2100047" lon="14.2210329"><ele>391.0</ele><time>2026-05-01T13:18:11.45Z</time></trkpt><trkpt lat="42.2100113" lon="14.2209124"><ele>390.66666666666663</ele><time>2026-05-01T13:18:13.455Z</time></trkpt><trkpt lat="42.2100635" lon="14.2208572"><ele>390.3333333333333</ele><time>2026-05-01T13:19:26.46Z</time></trkpt><trkpt lat="42.2101618" lon="14.2208155"><ele>390.0</ele><time>2026-05-01T13:19:28.456Z</time></trkpt><trkpt lat="42.2102653" lon="14.2207856"><ele>390.0</ele><time>2026-05-01T13:19:30.457Z</time></trkpt><trkpt lat="42.2103396" lon="14.2207525"><ele>390.0</ele><time>2026-05-01T13:19:32.455Z</time></trkpt><trkpt lat="42.2104146" lon="14.2207779"><ele>390.0</ele><time>2026-05-01T13:19:34.453Z</time></trkpt><trkpt lat="42.2104685" lon="14.2208908"><ele>390.0</ele><time>2026-05-01T13:19:36.443Z</time></trkpt><trkpt lat="42.2105515" lon="14.2209416"><ele>390.0</ele><time>2026-05-01T13:19:39.452Z</time></trkpt><trkpt lat="42.2106641" lon="14.2208986"><ele>389.1428571428571</ele><time>2026-05-01T13:19:41.46Z</time></trkpt><trkpt lat="42.2107298" lon="14.2208765"><ele>388.2857142857143</ele><time>2026-05-01T13:19:42.452Z</time></trkpt><trkpt lat="42.2107984" lon="14.2208576"><ele>387.42857142857144</ele><time>2026-05-01T13:19:43.453Z</time></trkpt><trkpt lat="42.210869" lon="14.2208384"><ele>386.57142857142856</ele><time>2026-05-01T13:19:44.459Z</time></trkpt><trkpt lat="42.2109355" lon="14.2208237"><ele>385.7142857142857</ele><time>2026-05-01T13:19:45.468Z</time></trkpt><trkpt lat="42.2110144" lon="14.2208071"><ele>384.85714285714283</ele><time>2026-05-01T13:19:46.452Z</time></trkpt><trkpt lat="42.2110971" lon="14.2207944"><ele>384.0</ele><time>2026-05-01T13:19:47.454Z</time></trkpt><trkpt lat="42.2111776" lon="14.2207737"><ele>384.0</ele><time>2026-05-01T13:19:48.454Z</time></trkpt><trkpt lat="42.2112537" lon="14.2207539"><ele>384.0</ele><time>2026-05-01T13:19:49.453Z</time></trkpt><trkpt lat="42.2113253" lon="14.2207377"><ele>384.0</ele><time>2026-05-01T13:19:50.455Z</time></trkpt><trkpt lat="42.211436" lon="14.22072"><ele>384.0</ele><time>2026-05-01T13:19:52.461Z</time></trkpt><trkpt lat="42.2115124" lon="14.22068"><ele>384.0</ele><time>2026-05-01T13:19:54.456Z</time></trkpt><trkpt lat="42.2116049" lon="14.2206401"><ele>384.0</ele><time>2026-05-01T13:19:56.46Z</time></trkpt><trkpt lat="42.2117122" lon="14.2206195"><ele>381.6666666666667</ele><time>2026-05-01T13:19:58.455Z</time></trkpt><trkpt lat="42.2118054" lon="14.2206073"><ele>379.3333333333333</ele><time>2026-05-01T13:20:00.465Z</time></trkpt><trkpt lat="42.2118766" lon="14.2205788"><ele>377.0</ele><time>2026-05-01T13:20:02.463Z</time></trkpt><trkpt lat="42.2119495" lon="14.2205353"><ele>374.66666666666663</ele><time>2026-05-01T13:20:05.458Z</time></trkpt><trkpt lat="42.2120043" lon="14.2204736"><ele>372.3333333333333</ele><time>2026-05-01T13:20:17.456Z</time></trkpt><trkpt lat="42.2120385" lon="14.2203942"><ele>370.0</ele><time>2026-05-01T13:20:24.456Z</time></trkpt><trkpt lat="42.2120915" lon="14.2203355"><ele>370.0</ele><time>2026-05-01T13:21:08.455Z</time></trkpt><trkpt lat="42.2121544" lon="14.2203088"><ele>370.0</ele><time>2026-05-01T13:21:12.461Z</time></trkpt><trkpt lat="42.2122189" lon="14.220265"><ele>370.0</ele><time>2026-05-01T13:21:17.473Z</time></trkpt><trkpt lat="42.2122755" lon="14.2203273"><ele>370.0</ele><time>2026-05-01T13:21:22.459Z</time></trkpt><trkpt lat="42.2122714" lon="14.2204171"><ele>370.0</ele><time>2026-05-01T13:21:24.455Z</time></trkpt><trkpt lat="42.2122631" lon="14.2205514"><ele>370.0</ele><time>2026-05-01T13:21:26.457Z</time></trkpt><trkpt lat="42.2122863" lon="14.220666"><ele>371.66666666666663</ele><time>2026-05-01T13:21:28.456Z</time></trkpt><trkpt lat="42.2123197" lon="14.2207921"><ele>373.3333333333333</ele><time>2026-05-01T13:21:30.454Z</time></trkpt><trkpt lat="42.2123776" lon="14.2208595"><ele>375.0</ele><time>2026-05-01T13:21:32.459Z</time></trkpt><trkpt lat="42.2124481" lon="14.2208245"><ele>376.6666666666667</ele><time>2026-05-01T13:21:44.452Z</time></trkpt><trkpt lat="42.2125132" lon="14.2207856"><ele>378.33333333333337</ele><time>2026-05-01T13:21:47.457Z</time></trkpt><trkpt lat="42.2126047" lon="14.2207338"><ele>380.0</ele><time>2026-05-01T13:21:50.451Z</time></trkpt><trkpt lat="42.2127033" lon="14.2206801"><ele>378.6666666666667</ele><time>2026-05-01T13:21:52.453Z</time></trkpt><trkpt lat="42.212774" lon="14.2206485"><ele>377.33333333333337</ele><time>2026-05-01T13:22:02.454Z</time></trkpt><trkpt lat="42.2128337" lon="14.2206131"><ele>376.0</ele><time>2026-05-01T13:22:04.45Z</time></trkpt><trkpt lat="42.2129166" lon="14.2205412"><ele>374.6666666666667</ele><time>2026-05-01T13:22:06.45Z</time></trkpt><trkpt lat="42.2129996" lon="14.2204927"><ele>373.3333333333333</ele><time>2026-05-01T13:22:08.448Z</time></trkpt><trkpt lat="42.2130867" lon="14.2204422"><ele>372.0</ele><time>2026-05-01T13:22:11.452Z</time></trkpt><trkpt lat="42.2131417" lon="14.2203701"><ele>372.8</ele><time>2026-05-01T13:22:13.451Z</time></trkpt><trkpt lat="42.2132262" lon="14.2202882"><ele>373.6</ele><time>2026-05-01T13:22:15.453Z</time></trkpt><trkpt lat="42.213344" lon="14.2202142"><ele>374.40000000000003</ele><time>2026-05-01T13:22:17.457Z</time></trkpt><trkpt lat="42.2134091" lon="14.2201741"><ele>375.20000000000005</ele><time>2026-05-01T13:22:18.448Z</time></trkpt><trkpt lat="42.2134953" lon="14.2200703"><ele>376.0</ele><time>2026-05-01T13:22:20.451Z</time></trkpt><trkpt lat="42.21357" lon="14.2199703"><ele>376.0</ele><time>2026-05-01T13:22:22.456Z</time></trkpt><trkpt lat="42.2136585" lon="14.2198937"><ele>376.0</ele><time>2026-05-01T13:22:24.454Z</time></trkpt><trkpt lat="42.2137321" lon="14.2198138"><ele>376.0</ele><time>2026-05-01T13:22:26.456Z</time></trkpt><trkpt lat="42.2138047" lon="14.2197145"><ele>376.0</ele><time>2026-05-01T13:22:28.457Z</time></trkpt><trkpt lat="42.2138655" lon="14.2196445"><ele>376.0</ele><time>2026-05-01T13:22:30.455Z</time></trkpt><trkpt lat="42.2139316" lon="14.2195991"><ele>374.5</ele><time>2026-05-01T13:22:33.462Z</time></trkpt><trkpt lat="42.213999" lon="14.2195162"><ele>373.0</ele><time>2026-05-01T13:22:36.456Z</time></trkpt><trkpt lat="42.2140404" lon="14.2194458"><ele>371.5</ele><time>2026-05-01T13:22:38.448Z</time></trkpt><trkpt lat="42.2140874" lon="14.2193512"><ele>370.0</ele><time>2026-05-01T13:22:40.459Z</time></trkpt><trkpt lat="42.2141296" lon="14.2192702"><ele>368.5</ele><time>2026-05-01T13:22:42.454Z</time></trkpt><trkpt lat="42.2141713" lon="14.2191737"><ele>367.0</ele><time>2026-05-01T13:22:44.456Z</time></trkpt><trkpt lat="42.2142284" lon="14.219064"><ele>364.5</ele><time>2026-05-01T13:22:46.452Z</time></trkpt><trkpt lat="42.2142727" lon="14.2189808"><ele>362.0</ele><time>2026-05-01T13:22:48.447Z</time></trkpt><trkpt lat="42.2143109" lon="14.2189095"><ele>359.5</ele><time>2026-05-01T13:22:50.458Z</time></trkpt><trkpt lat="42.214398" lon="14.2188177"><ele>357.0</ele><time>2026-05-01T13:22:52.447Z</time></trkpt><trkpt lat="42.2144679" lon="14.2187645"><ele>354.5</ele><time>2026-05-01T13:22:53.455Z</time></trkpt><trkpt lat="42.214541" lon="14.2187039"><ele>352.0</ele><time>2026-05-01T13:22:54.45Z</time></trkpt><trkpt lat="42.2146065" lon="14.2186516"><ele>352.0</ele><time>2026-05-01T13:22:55.447Z</time></trkpt><trkpt lat="42.2147133" lon="14.2185336"><ele>352.0</ele><time>2026-05-01T13:22:57.457Z</time></trkpt><trkpt lat="42.2147775" lon="14.2184659"><ele>352.0</ele><time>2026-05-01T13:22:58.453Z</time></trkpt><trkpt lat="42.2148296" lon="14.2184033"><ele>352.0</ele><time>2026-05-01T13:22:59.455Z</time></trkpt><trkpt lat="42.2149083" lon="14.2183061"><ele>352.0</ele><time>2026-05-01T13:23:01.459Z</time></trkpt><trkpt lat="42.2149882" lon="14.2182027"><ele>351.3333333333333</ele><time>2026-05-01T13:23:03.457Z</time></trkpt><trkpt lat="42.2150864" lon="14.2180949"><ele>350.66666666666663</ele><time>2026-05-01T13:23:05.459Z</time></trkpt><trkpt lat="42.215136" lon="14.2180376"><ele>350.0</ele><time>2026-05-01T13:23:06.463Z</time></trkpt><trkpt lat="42.2151891" lon="14.2179797"><ele>349.3333333333333</ele><time>2026-05-01T13:23:07.452Z</time></trkpt><trkpt lat="42.2152534" lon="14.2179252"><ele>348.6666666666667</ele><time>2026-05-01T13:23:08.453Z</time></trkpt><trkpt lat="42.2153288" lon="14.2178817"><ele>348.0</ele><time>2026-05-01T13:23:09.455Z</time></trkpt><trkpt lat="42.2153953" lon="14.2178509"><ele>348.0</ele><time>2026-05-01T13:23:10.457Z</time></trkpt><trkpt lat="42.2154936" lon="14.217791"><ele>348.0</ele><time>2026-05-01T13:23:12.46Z</time></trkpt><trkpt lat="42.2155841" lon="14.2177186"><ele>348.0</ele><time>2026-05-01T13:23:14.452Z</time></trkpt><trkpt lat="42.2156614" lon="14.2176475"><ele>348.0</ele><time>2026-05-01T13:23:16.456Z</time></trkpt><trkpt lat="42.2157354" lon="14.2175771"><ele>348.0</ele><time>2026-05-01T13:23:18.453Z</time></trkpt><trkpt lat="42.2158165" lon="14.2174939"><ele>348.79999999999995</ele><time>2026-05-01T13:23:20.46Z</time></trkpt><trkpt lat="42.2158892" lon="14.2174197"><ele>349.6</ele><time>2026-05-01T13:23:22.454Z</time></trkpt><trkpt lat="42.2159609" lon="14.2173414"><ele>350.4</ele><time>2026-05-01T13:23:24.45Z</time></trkpt><trkpt lat="42.2160372" lon="14.2172509"><ele>351.20000000000005</ele><time>2026-05-01T13:23:26.452Z</time></trkpt><trkpt lat="42.2161242" lon="14.2171823"><ele>352.0</ele><time>2026-05-01T13:23:28.452Z</time></trkpt><trkpt lat="42.2162036" lon="14.2171094"><ele>350.3333333333333</ele><time>2026-05-01T13:23:30.455Z</time></trkpt><trkpt lat="42.2162681" lon="14.2170501"><ele>348.66666666666663</ele><time>2026-05-01T13:23:32.459Z</time></trkpt><trkpt lat="42.2163565" lon="14.2169656"><ele>347.0</ele><time>2026-05-01T13:23:34.457Z</time></trkpt><trkpt lat="42.2164189" lon="14.2169182"><ele>345.3333333333333</ele><time>2026-05-01T13:23:35.452Z</time></trkpt><trkpt lat="42.2164802" lon="14.2168793"><ele>343.6666666666667</ele><time>2026-05-01T13:23:36.452Z</time></trkpt><trkpt lat="42.2165808" lon="14.216829"><ele>342.0</ele><time>2026-05-01T13:23:38.453Z</time></trkpt><trkpt lat="42.2166628" lon="14.2167912"><ele>342.0</ele><time>2026-05-01T13:23:40.45Z</time></trkpt><trkpt lat="42.2167723" lon="14.2167214"><ele>342.0</ele><time>2026-05-01T13:23:42.458Z</time></trkpt><trkpt lat="42.2168318" lon="14.2166857"><ele>342.0</ele><time>2026-05-01T13:23:43.452Z</time></trkpt><trkpt lat="42.2168914" lon="14.2166385"><ele>342.0</ele><time>2026-05-01T13:23:44.451Z</time></trkpt><trkpt lat="42.2169465" lon="14.2165895"><ele>342.0</ele><time>2026-05-01T13:23:45.459Z</time></trkpt><trkpt lat="42.217005" lon="14.2165429"><ele>342.0</ele><time>2026-05-01T13:23:46.452Z</time></trkpt><trkpt lat="42.2170728" lon="14.2164973"><ele>341.3333333333333</ele><time>2026-05-01T13:23:47.452Z</time></trkpt><trkpt lat="42.2171479" lon="14.2164517"><ele>340.6666666666667</ele><time>2026-05-01T13:23:48.464Z</time></trkpt><trkpt lat="42.2172126" lon="14.216414"><ele>340.0</ele><time>2026-05-01T13:23:49.451Z</time></trkpt><trkpt lat="42.2172787" lon="14.2163667"><ele>339.33333333333337</ele><time>2026-05-01T13:23:50.456Z</time></trkpt><trkpt lat="42.2173526" lon="14.2163124"><ele>338.6666666666667</ele><time>2026-05-01T13:23:51.466Z</time></trkpt><trkpt lat="42.2174183" lon="14.2162704"><ele>338.0</ele><time>2026-05-01T13:23:52.462Z</time></trkpt><trkpt lat="42.2175167" lon="14.2162571"><ele>337.79999999999995</ele><time>2026-05-01T13:23:54.452Z</time></trkpt><trkpt lat="42.2175814" lon="14.2163364"><ele>337.6</ele><time>2026-05-01T13:23:56.457Z</time></trkpt><trkpt lat="42.2176229" lon="14.2164569"><ele>337.4</ele><time>2026-05-01T13:23:58.446Z</time></trkpt><trkpt lat="42.2176958" lon="14.2165963"><ele>337.20000000000005</ele><time>2026-05-01T13:24:00.441Z</time></trkpt><trkpt lat="42.2177292" lon="14.2167059"><ele>337.0</ele><time>2026-05-01T13:24:01.447Z</time></trkpt><trkpt lat="42.2177528" lon="14.2168141"><ele>338.16666666666663</ele><time>2026-05-01T13:24:02.429Z</time></trkpt><trkpt lat="42.2176597" lon="14.2168368"><ele>339.3333333333333</ele><time>2026-05-01T13:24:05.438Z</time></trkpt><trkpt lat="42.2175811" lon="14.2168542"><ele>340.5</ele><time>2026-05-01T13:24:06.442Z</time></trkpt><trkpt lat="42.2175068" lon="14.2168548"><ele>341.6666666666667</ele><time>2026-05-01T13:24:07.448Z</time></trkpt><trkpt lat="42.2174229" lon="14.2169142"><ele>342.83333333333337</ele><time>2026-05-01T13:24:09.446Z</time></trkpt><trkpt lat="42.2174946" lon="14.2169681"><ele>344.0</ele><time>2026-05-01T13:24:11.456Z</time></trkpt><trkpt lat="42.2175738" lon="14.2169755"><ele>344.0</ele><time>2026-05-01T13:24:12.444Z</time></trkpt><trkpt lat="42.2176686" lon="14.2169773"><ele>344.0</ele><time>2026-05-01T13:24:13.444Z</time></trkpt><trkpt lat="42.2177676" lon="14.2169653"><ele>344.0</ele><time>2026-05-01T13:24:14.457Z</time></trkpt><trkpt lat="42.2178607" lon="14.2169435"><ele>344.0</ele><time>2026-05-01T13:24:15.454Z</time></trkpt><trkpt lat="42.2179392" lon="14.2169379"><ele>344.0</ele><time>2026-05-01T13:24:16.46Z</time></trkpt><trkpt lat="42.2180617" lon="14.2169896"><ele>344.0</ele><time>2026-05-01T13:24:18.448Z</time></trkpt><trkpt lat="42.218123" lon="14.217061"><ele>344.0</ele><time>2026-05-01T13:24:19.447Z</time></trkpt><trkpt lat="42.2181887" lon="14.2171524"><ele>344.0</ele><time>2026-05-01T13:24:20.444Z</time></trkpt><trkpt lat="42.218254" lon="14.2172326"><ele>344.0</ele><time>2026-05-01T13:24:21.467Z</time></trkpt><trkpt lat="42.2183086" lon="14.2172811"><ele>344.0</ele><time>2026-05-01T13:24:22.444Z</time></trkpt><trkpt lat="42.2183985" lon="14.2173513"><ele>344.0</ele><time>2026-05-01T13:24:24.454Z</time></trkpt><trkpt lat="42.2184613" lon="14.2173967"><ele>344.42857142857144</ele><time>2026-05-01T13:24:25.457Z</time></trkpt><trkpt lat="42.2185195" lon="14.2174341"><ele>344.8571428571429</ele><time>2026-05-01T13:24:26.448Z</time></trkpt><trkpt lat="42.2185833" lon="14.2174871"><ele>345.28571428571433</ele><time>2026-05-01T13:24:28.451Z</time></trkpt><trkpt lat="42.2186517" lon="14.2175234"><ele>345.7142857142857</ele><time>2026-05-01T13:24:33.455Z</time></trkpt><trkpt lat="42.2186184" lon="14.217451"><ele>346.1428571428571</ele><time>2026-05-01T13:24:41.45Z</time></trkpt><trkpt lat="42.2185676" lon="14.2173872"><ele>346.5714285714286</ele><time>2026-05-01T13:24:43.452Z</time></trkpt><trkpt lat="42.2185041" lon="14.2173299"><ele>347.0</ele><time>2026-05-01T13:24:45.461Z</time></trkpt><trkpt lat="42.2184511" lon="14.217256"><ele>347.0</ele><time>2026-05-01T13:24:47.455Z</time></trkpt><trkpt lat="42.2184017" lon="14.2171905"><ele>347.0</ele><time>2026-05-01T13:24:49.456Z</time></trkpt><trkpt lat="42.218402" lon="14.217089"><ele>347.0</ele><time>2026-05-01T13:24:51.47Z</time></trkpt><trkpt lat="42.2184479" lon="14.2170143"><ele>347.0</ele><time>2026-05-01T13:24:53.464Z</time></trkpt><trkpt lat="42.2185165" lon="14.2169119"><ele>347.0</ele><time>2026-05-01T13:24:56.456Z</time></trkpt><trkpt lat="42.2185637" lon="14.2168452"><ele>347.0</ele><time>2026-05-01T13:24:57.46Z</time></trkpt><trkpt lat="42.2186185" lon="14.2167885"><ele>347.0</ele><time>2026-05-01T13:24:58.46Z</time></trkpt><trkpt lat="42.2186743" lon="14.2167405"><ele>347.0</ele><time>2026-05-01T13:24:59.454Z</time></trkpt><trkpt lat="42.2187729" lon="14.2166604"><ele>347.0</ele><time>2026-05-01T13:25:01.458Z</time></trkpt><trkpt lat="42.2188325" lon="14.2166215"><ele>347.0</ele><time>2026-05-01T13:25:02.454Z</time></trkpt><trkpt lat="42.2189391" lon="14.216519"><ele>347.0</ele><time>2026-05-01T13:25:04.459Z</time></trkpt><trkpt lat="42.2189852" lon="14.2164601"><ele>347.0</ele><time>2026-05-01T13:25:05.461Z</time></trkpt><trkpt lat="42.2190283" lon="14.2163967"><ele>345.8</ele><time>2026-05-01T13:25:06.458Z</time></trkpt><trkpt lat="42.2191143" lon="14.2162771"><ele>344.6</ele><time>2026-05-01T13:25:08.453Z</time></trkpt><trkpt lat="42.2191625" lon="14.2162214"><ele>343.40000000000003</ele><time>2026-05-01T13:25:09.453Z</time></trkpt><trkpt lat="42.2192475" lon="14.2161152"><ele>342.20000000000005</ele><time>2026-05-01T13:25:11.46Z</time></trkpt><trkpt lat="42.2193242" lon="14.2160031"><ele>341.0</ele><time>2026-05-01T13:25:13.459Z</time></trkpt><trkpt lat="42.2193592" lon="14.2159268"><ele>341.0</ele><time>2026-05-01T13:25:14.458Z</time></trkpt><trkpt lat="42.2193905" lon="14.215832"><ele>341.0</ele><time>2026-05-01T13:25:15.455Z</time></trkpt><trkpt lat="42.2194243" lon="14.2157237"><ele>341.0</ele><time>2026-05-01T13:25:16.456Z</time></trkpt><trkpt lat="42.2194651" lon="14.2155959"><ele>341.0</ele><time>2026-05-01T13:25:17.455Z</time></trkpt><trkpt lat="42.2195169" lon="14.2154527"><ele>341.0</ele><time>2026-05-01T13:25:18.451Z</time></trkpt><trkpt lat="42.2195757" lon="14.2152904"><ele>338.5</ele><time>2026-05-01T13:25:19.449Z</time></trkpt><trkpt lat="42.2196427" lon="14.2151218"><ele>336.0</ele><time>2026-05-01T13:25:20.458Z</time></trkpt><trkpt lat="42.2197174" lon="14.2149533"><ele>333.5</ele><time>2026-05-01T13:25:21.469Z</time></trkpt><trkpt lat="42.2198005" lon="14.2147913"><ele>331.0</ele><time>2026-05-01T13:25:22.458Z</time></trkpt><trkpt lat="42.2198886" lon="14.2146549"><ele>330.20000000000005</ele><time>2026-05-01T13:25:23.463Z</time></trkpt><trkpt lat="42.219944" lon="14.2145073"><ele>329.40000000000003</ele><time>2026-05-01T13:25:24.454Z</time></trkpt><trkpt lat="42.2199883" lon="14.2143894"><ele>328.6</ele><time>2026-05-01T13:25:25.47Z</time></trkpt><trkpt lat="42.2200296" lon="14.2142665"><ele>327.8</ele><time>2026-05-01T13:25:26.453Z</time></trkpt><trkpt lat="42.2200591" lon="14.214182"><ele>327.0</ele><time>2026-05-01T13:25:27.454Z</time></trkpt><trkpt lat="42.2200774" lon="14.2140809"><ele>327.0</ele><time>2026-05-01T13:25:28.46Z</time></trkpt><trkpt lat="42.2200989" lon="14.2139935"><ele>327.0</ele><time>2026-05-01T13:25:29.456Z</time></trkpt><trkpt lat="42.2201271" lon="14.2139116"><ele>327.0</ele><time>2026-05-01T13:25:30.455Z</time></trkpt><trkpt lat="42.2201707" lon="14.213804"><ele>327.0</ele><time>2026-05-01T13:25:32.451Z</time></trkpt><trkpt lat="42.2201645" lon="14.2136956"><ele>327.0</ele><time>2026-05-01T13:25:44.459Z</time></trkpt><trkpt lat="42.2200313" lon="14.2136313"><ele>327.0</ele><time>2026-05-01T13:25:46.456Z</time></trkpt><trkpt lat="42.219969" lon="14.213599"><ele>326.0</ele><time>2026-05-01T13:25:47.45Z</time></trkpt><trkpt lat="42.2199222" lon="14.213539"><ele>325.0</ele><time>2026-05-01T13:25:49.447Z</time></trkpt><trkpt lat="42.219926" lon="14.2134402"><ele>324.0</ele><time>2026-05-01T13:25:51.458Z</time></trkpt><trkpt lat="42.2200004" lon="14.2132923"><ele>323.0</ele><time>2026-05-01T13:25:53.452Z</time></trkpt><trkpt lat="42.2200487" lon="14.2131995"><ele>322.0</ele><time>2026-05-01T13:25:54.452Z</time></trkpt><trkpt lat="42.2201064" lon="14.2130843"><ele>322.0</ele><time>2026-05-01T13:25:55.45Z</time></trkpt><trkpt lat="42.2201756" lon="14.2129714"><ele>322.0</ele><time>2026-05-01T13:25:56.456Z</time></trkpt><trkpt lat="42.2202581" lon="14.2128589"><ele>322.0</ele><time>2026-05-01T13:25:57.449Z</time></trkpt><trkpt lat="42.220349" lon="14.2127617"><ele>322.0</ele><time>2026-05-01T13:25:58.452Z</time></trkpt><trkpt lat="42.2204432" lon="14.2126537"><ele>322.0</ele><time>2026-05-01T13:25:59.451Z</time></trkpt><trkpt lat="42.2205421" lon="14.2125466"><ele>322.0</ele><time>2026-05-01T13:26:00.453Z</time></trkpt><trkpt lat="42.2206462" lon="14.2124363"><ele>322.0</ele><time>2026-05-01T13:26:01.451Z</time></trkpt><trkpt lat="42.220742" lon="14.2123209"><ele>322.0</ele><time>2026-05-01T13:26:02.448Z</time></trkpt><trkpt lat="42.2208449" lon="14.2122007"><ele>321.5</ele><time>2026-05-01T13:26:03.448Z</time></trkpt><trkpt lat="42.2209397" lon="14.2120716"><ele>321.0</ele><time>2026-05-01T13:26:04.459Z</time></trkpt><trkpt lat="42.2210278" lon="14.2119474"><ele>320.5</ele><time>2026-05-01T13:26:05.452Z</time></trkpt><trkpt lat="42.2211278" lon="14.2118409"><ele>320.0</ele><time>2026-05-01T13:26:06.454Z</time></trkpt><trkpt lat="42.221239" lon="14.2117515"><ele>320.0</ele><time>2026-05-01T13:26:07.459Z</time></trkpt><trkpt lat="42.2213535" lon="14.2116821"><ele>320.0</ele><time>2026-05-01T13:26:08.452Z</time></trkpt><trkpt lat="42.2214771" lon="14.2116319"><ele>320.0</ele><time>2026-05-01T13:26:09.453Z</time></trkpt><trkpt lat="42.2216075" lon="14.2115697"><ele>320.0</ele><time>2026-05-01T13:26:10.454Z</time></trkpt><trkpt lat="42.2217473" lon="14.2114924"><ele>318.8</ele><time>2026-05-01T13:26:11.461Z</time></trkpt><trkpt lat="42.2218666" lon="14.2114413"><ele>317.6</ele><time>2026-05-01T13:26:12.464Z</time></trkpt><trkpt lat="42.2219566" lon="14.2113852"><ele>316.4</ele><time>2026-05-01T13:26:13.461Z</time></trkpt><trkpt lat="42.2220507" lon="14.211324"><ele>315.2</ele><time>2026-05-01T13:26:14.469Z</time></trkpt><trkpt lat="42.2221696" lon="14.2112962"><ele>314.0</ele><time>2026-05-01T13:26:15.459Z</time></trkpt><trkpt lat="42.2222869" lon="14.2112795"><ele>313.2</ele><time>2026-05-01T13:26:16.459Z</time></trkpt><trkpt lat="42.2224042" lon="14.2112215"><ele>312.4</ele><time>2026-05-01T13:26:17.466Z</time></trkpt><trkpt lat="42.2225007" lon="14.2111851"><ele>311.6</ele><time>2026-05-01T13:26:18.463Z</time></trkpt><trkpt lat="42.2225979" lon="14.2111291"><ele>310.8</ele><time>2026-05-01T13:26:19.463Z</time></trkpt><trkpt lat="42.2226875" lon="14.2110584"><ele>310.0</ele><time>2026-05-01T13:26:20.459Z</time></trkpt><trkpt lat="42.2227718" lon="14.2109886"><ele>310.0</ele><time>2026-05-01T13:26:21.473Z</time></trkpt><trkpt lat="42.2228437" lon="14.2109257"><ele>310.0</ele><time>2026-05-01T13:26:22.453Z</time></trkpt><trkpt lat="42.2229109" lon="14.210868"><ele>310.0</ele><time>2026-05-01T13:26:23.459Z</time></trkpt><trkpt lat="42.2229727" lon="14.2108127"><ele>310.0</ele><time>2026-05-01T13:26:24.46Z</time></trkpt><trkpt lat="42.2230328" lon="14.2107519"><ele>310.0</ele><time>2026-05-01T13:26:25.465Z</time></trkpt><trkpt lat="42.2230916" lon="14.2106997"><ele>310.0</ele><time>2026-05-01T13:26:26.465Z</time></trkpt><trkpt lat="42.223154" lon="14.2106377"><ele>309.8</ele><time>2026-05-01T13:26:27.475Z</time></trkpt><trkpt lat="42.2232189" lon="14.2105618"><ele>309.6</ele><time>2026-05-01T13:26:28.463Z</time></trkpt><trkpt lat="42.2232877" lon="14.2104854"><ele>309.4</ele><time>2026-05-01T13:26:29.458Z</time></trkpt><trkpt lat="42.223364" lon="14.2104009"><ele>309.2</ele><time>2026-05-01T13:26:30.461Z</time></trkpt><trkpt lat="42.2234318" lon="14.2103093"><ele>309.0</ele><time>2026-05-01T13:26:31.463Z</time></trkpt><trkpt lat="42.2235016" lon="14.2102139"><ele>309.0</ele><time>2026-05-01T13:26:32.457Z</time></trkpt><trkpt lat="42.223572" lon="14.2101201"><ele>309.0</ele><time>2026-05-01T13:26:33.462Z</time></trkpt><trkpt lat="42.2236451" lon="14.2100414"><ele>309.0</ele><time>2026-05-01T13:26:34.455Z</time></trkpt><trkpt lat="42.2237132" lon="14.2099751"><ele>309.0</ele><time>2026-05-01T13:26:35.464Z</time></trkpt><trkpt lat="42.2237815" lon="14.2099199"><ele>309.0</ele><time>2026-05-01T13:26:36.453Z</time></trkpt><trkpt lat="42.2238478" lon="14.2098816"><ele>309.0</ele><time>2026-05-01T13:26:37.448Z</time></trkpt><trkpt lat="42.223919" lon="14.2098682"><ele>309.0</ele><time>2026-05-01T13:26:38.466Z</time></trkpt><trkpt lat="42.2240024" lon="14.2098796"><ele>309.0</ele><time>2026-05-01T13:26:39.454Z</time></trkpt><trkpt lat="42.2240955" lon="14.2099068"><ele>309.0</ele><time>2026-05-01T13:26:40.474Z</time></trkpt><trkpt lat="42.2241969" lon="14.2099348"><ele>309.0</ele><time>2026-05-01T13:26:41.453Z</time></trkpt><trkpt lat="42.2242717" lon="14.2099385"><ele>309.0</ele><time>2026-05-01T13:26:42.467Z</time></trkpt><trkpt lat="42.2243389" lon="14.2099286"><ele>309.0</ele><time>2026-05-01T13:26:43.452Z</time></trkpt><trkpt lat="42.2244056" lon="14.2098767"><ele>309.4</ele><time>2026-05-01T13:26:44.449Z</time></trkpt><trkpt lat="42.2244691" lon="14.2098016"><ele>309.79999999999995</ele><time>2026-05-01T13:26:45.462Z</time></trkpt><trkpt lat="42.2245253" lon="14.2097116"><ele>310.20000000000005</ele><time>2026-05-01T13:26:46.464Z</time></trkpt><trkpt lat="42.2245855" lon="14.2096133"><ele>310.6</ele><time>2026-05-01T13:26:47.468Z</time></trkpt><trkpt lat="42.2246553" lon="14.2095257"><ele>311.0</ele><time>2026-05-01T13:26:48.462Z</time></trkpt><trkpt lat="42.224724" lon="14.2094429"><ele>311.0</ele><time>2026-05-01T13:26:49.464Z</time></trkpt><trkpt lat="42.2247908" lon="14.2093622"><ele>311.0</ele><time>2026-05-01T13:26:50.457Z</time></trkpt><trkpt lat="42.2248473" lon="14.2092923"><ele>311.0</ele><time>2026-05-01T13:26:51.471Z</time></trkpt><trkpt lat="42.2249135" lon="14.2092385"><ele>311.0</ele><time>2026-05-01T13:26:52.464Z</time></trkpt><trkpt lat="42.2249891" lon="14.2092067"><ele>311.0</ele><time>2026-05-01T13:26:53.455Z</time></trkpt><trkpt lat="42.2250812" lon="14.2091783"><ele>311.0</ele><time>2026-05-01T13:26:54.466Z</time></trkpt><trkpt lat="42.2251832" lon="14.2091572"><ele>310.33333333333337</ele><time>2026-05-01T13:26:55.453Z</time></trkpt><trkpt lat="42.2252772" lon="14.2091389"><ele>309.6666666666667</ele><time>2026-05-01T13:26:56.463Z</time></trkpt><trkpt lat="42.2253567" lon="14.2091085"><ele>309.0</ele><time>2026-05-01T13:26:57.448Z</time></trkpt><trkpt lat="42.225431" lon="14.2090713"><ele>308.3333333333333</ele><time>2026-05-01T13:26:58.464Z</time></trkpt><trkpt lat="42.225515" lon="14.2090256"><ele>307.66666666666663</ele><time>2026-05-01T13:26:59.452Z</time></trkpt><trkpt lat="42.2256079" lon="14.2089749"><ele>307.0</ele><time>2026-05-01T13:27:00.462Z</time></trkpt><trkpt lat="42.2257112" lon="14.2089118"><ele>306.2</ele><time>2026-05-01T13:27:01.462Z</time></trkpt><trkpt lat="42.225819" lon="14.2088611"><ele>305.4</ele><time>2026-05-01T13:27:02.459Z</time></trkpt><trkpt lat="42.225916" lon="14.208824"><ele>304.6</ele><time>2026-05-01T13:27:03.463Z</time></trkpt><trkpt lat="42.2260046" lon="14.2087835"><ele>303.8</ele><time>2026-05-01T13:27:04.454Z</time></trkpt><trkpt lat="42.2260848" lon="14.2087425"><ele>303.0</ele><time>2026-05-01T13:27:05.452Z</time></trkpt><trkpt lat="42.2261527" lon="14.208688"><ele>303.0</ele><time>2026-05-01T13:27:06.457Z</time></trkpt><trkpt lat="42.226238" lon="14.2085805"><ele>303.0</ele><time>2026-05-01T13:27:08.464Z</time></trkpt><trkpt lat="42.2262938" lon="14.2084219"><ele>303.0</ele><time>2026-05-01T13:27:10.46Z</time></trkpt><trkpt lat="42.2263194" lon="14.2083225"><ele>303.0</ele><time>2026-05-01T13:27:11.457Z</time></trkpt><trkpt lat="42.2263536" lon="14.208222"><ele>303.0</ele><time>2026-05-01T13:27:12.461Z</time></trkpt><trkpt lat="42.2263978" lon="14.2081117"><ele>302.6666666666667</ele><time>2026-05-01T13:27:13.463Z</time></trkpt><trkpt lat="42.2264485" lon="14.2080044"><ele>302.3333333333333</ele><time>2026-05-01T13:27:14.458Z</time></trkpt><trkpt lat="42.2264984" lon="14.207896"><ele>302.0</ele><time>2026-05-01T13:27:15.466Z</time></trkpt><trkpt lat="42.2265383" lon="14.2077939"><ele>301.66666666666663</ele><time>2026-05-01T13:27:16.457Z</time></trkpt><trkpt lat="42.226575" lon="14.2076903"><ele>301.3333333333333</ele><time>2026-05-01T13:27:17.453Z</time></trkpt><trkpt lat="42.2266229" lon="14.2076138"><ele>301.0</ele><time>2026-05-01T13:27:18.455Z</time></trkpt><trkpt lat="42.2266877" lon="14.2075437"><ele>300.6</ele><time>2026-05-01T13:27:19.449Z</time></trkpt><trkpt lat="42.2267618" lon="14.2074792"><ele>300.20000000000005</ele><time>2026-05-01T13:27:20.453Z</time></trkpt><trkpt lat="42.2268455" lon="14.2074189"><ele>299.79999999999995</ele><time>2026-05-01T13:27:21.464Z</time></trkpt><trkpt lat="42.22694" lon="14.2073616"><ele>299.4</ele><time>2026-05-01T13:27:22.454Z</time></trkpt><trkpt lat="42.2270392" lon="14.2073055"><ele>299.0</ele><time>2026-05-01T13:27:23.456Z</time></trkpt><trkpt lat="42.2271388" lon="14.207249"><ele>298.8</ele><time>2026-05-01T13:27:24.46Z</time></trkpt><trkpt lat="42.2272357" lon="14.2071955"><ele>298.59999999999997</ele><time>2026-05-01T13:27:25.452Z</time></trkpt><trkpt lat="42.2273273" lon="14.2071234"><ele>298.4</ele><time>2026-05-01T13:27:26.457Z</time></trkpt><trkpt lat="42.2274145" lon="14.2070592"><ele>298.2</ele><time>2026-05-01T13:27:27.452Z</time></trkpt><trkpt lat="42.2274958" lon="14.2069991"><ele>298.0</ele><time>2026-05-01T13:27:28.46Z</time></trkpt><trkpt lat="42.2275667" lon="14.2069295"><ele>297.2</ele><time>2026-05-01T13:27:29.459Z</time></trkpt><trkpt lat="42.2276275" lon="14.2068461"><ele>296.4</ele><time>2026-05-01T13:27:30.45Z</time></trkpt><trkpt lat="42.227681" lon="14.2067461"><ele>295.59999999999997</ele><time>2026-05-01T13:27:31.459Z</time></trkpt><trkpt lat="42.2277226" lon="14.2066311"><ele>294.8</ele><time>2026-05-01T13:27:32.447Z</time></trkpt><trkpt lat="42.2277523" lon="14.206499"><ele>294.0</ele><time>2026-05-01T13:27:33.456Z</time></trkpt><trkpt lat="42.2277842" lon="14.2063612"><ele>293.4</ele><time>2026-05-01T13:27:34.457Z</time></trkpt><trkpt lat="42.227823" lon="14.2062403"><ele>292.79999999999995</ele><time>2026-05-01T13:27:35.451Z</time></trkpt><trkpt lat="42.2278641" lon="14.2061306"><ele>292.20000000000005</ele><time>2026-05-01T13:27:36.463Z</time></trkpt><trkpt lat="42.227898" lon="14.2060247"><ele>291.6</ele><time>2026-05-01T13:27:37.455Z</time></trkpt><trkpt lat="42.2279253" lon="14.2059422"><ele>291.0</ele><time>2026-05-01T13:27:38.46Z</time></trkpt><trkpt lat="42.2279083" lon="14.2057738"><ele>291.0</ele><time>2026-05-01T13:27:40.457Z</time></trkpt><trkpt lat="42.2278742" lon="14.2056878"><ele>291.0</ele><time>2026-05-01T13:27:41.459Z</time></trkpt><trkpt lat="42.2278347" lon="14.205595"><ele>291.0</ele><time>2026-05-01T13:27:42.462Z</time></trkpt><trkpt lat="42.2278055" lon="14.2054999"><ele>291.0</ele><time>2026-05-01T13:27:43.459Z</time></trkpt><trkpt lat="42.2277831" lon="14.2054077"><ele>291.0</ele><time>2026-05-01T13:27:44.459Z</time></trkpt><trkpt lat="42.2277755" lon="14.2053167"><ele>291.0</ele><time>2026-05-01T13:27:45.454Z</time></trkpt><trkpt lat="42.2277821" lon="14.2052179"><ele>291.0</ele><time>2026-05-01T13:27:46.45Z</time></trkpt><trkpt lat="42.2277977" lon="14.2051221"><ele>290.8333333333333</ele><time>2026-05-01T13:27:47.445Z</time></trkpt><trkpt lat="42.2278336" lon="14.2050466"><ele>290.6666666666667</ele><time>2026-05-01T13:27:48.445Z</time></trkpt><trkpt lat="42.2278814" lon="14.2049855"><ele>290.5</ele><time>2026-05-01T13:27:49.437Z</time></trkpt><trkpt lat="42.2279514" lon="14.204935"><ele>290.33333333333337</ele><time>2026-05-01T13:27:50.44Z</time></trkpt><trkpt lat="42.2280416" lon="14.2048948"><ele>290.1666666666667</ele><time>2026-05-01T13:27:51.454Z</time></trkpt><trkpt lat="42.228144" lon="14.2048563"><ele>290.0</ele><time>2026-05-01T13:27:52.448Z</time></trkpt><trkpt lat="42.2282415" lon="14.204796"><ele>290.0</ele><time>2026-05-01T13:27:53.44Z</time></trkpt><trkpt lat="42.2283233" lon="14.2047239"><ele>290.0</ele><time>2026-05-01T13:27:54.443Z</time></trkpt><trkpt lat="42.2283903" lon="14.2046237"><ele>290.0</ele><time>2026-05-01T13:27:55.45Z</time></trkpt><trkpt lat="42.228454" lon="14.2045116"><ele>290.0</ele><time>2026-05-01T13:27:56.456Z</time></trkpt><trkpt lat="42.2285159" lon="14.2043904"><ele>290.0</ele><time>2026-05-01T13:27:57.455Z</time></trkpt><trkpt lat="42.2285646" lon="14.2042822"><ele>290.0</ele><time>2026-05-01T13:27:58.461Z</time></trkpt><trkpt lat="42.2286141" lon="14.2041825"><ele>290.0</ele><time>2026-05-01T13:27:59.453Z</time></trkpt><trkpt lat="42.2286698" lon="14.2041"><ele>290.0</ele><time>2026-05-01T13:28:00.458Z</time></trkpt><trkpt lat="42.2287379" lon="14.204029"><ele>290.0</ele><time>2026-05-01T13:28:01.45Z</time></trkpt><trkpt lat="42.2288118" lon="14.2039743"><ele>290.0</ele><time>2026-05-01T13:28:02.451Z</time></trkpt><trkpt lat="42.228888" lon="14.2039341"><ele>290.0</ele><time>2026-05-01T13:28:03.45Z</time></trkpt><trkpt lat="42.228966" lon="14.2038905"><ele>289.6</ele><time>2026-05-01T13:28:04.452Z</time></trkpt><trkpt lat="42.229047" lon="14.2038511"><ele>289.2</ele><time>2026-05-01T13:28:05.451Z</time></trkpt><trkpt lat="42.2291337" lon="14.2038087"><ele>288.8</ele><time>2026-05-01T13:28:06.454Z</time></trkpt><trkpt lat="42.2292154" lon="14.2037534"><ele>288.4</ele><time>2026-05-01T13:28:07.449Z</time></trkpt><trkpt lat="42.2292974" lon="14.2036928"><ele>288.0</ele><time>2026-05-01T13:28:08.452Z</time></trkpt><trkpt lat="42.229376" lon="14.2036298"><ele>288.0</ele><time>2026-05-01T13:28:09.45Z</time></trkpt><trkpt lat="42.229453" lon="14.2035591"><ele>288.0</ele><time>2026-05-01T13:28:10.452Z</time></trkpt><trkpt lat="42.2295239" lon="14.203477"><ele>288.0</ele><time>2026-05-01T13:28:11.451Z</time></trkpt><trkpt lat="42.2295815" lon="14.2033804"><ele>288.0</ele><time>2026-05-01T13:28:12.448Z</time></trkpt><trkpt lat="42.2296244" lon="14.2032762"><ele>288.0</ele><time>2026-05-01T13:28:13.447Z</time></trkpt><trkpt lat="42.2296463" lon="14.2031609"><ele>287.3333333333333</ele><time>2026-05-01T13:28:14.45Z</time></trkpt><trkpt lat="42.229654" lon="14.2030364"><ele>286.6666666666667</ele><time>2026-05-01T13:28:15.453Z</time></trkpt><trkpt lat="42.2296609" lon="14.2029139"><ele>286.0</ele><time>2026-05-01T13:28:16.454Z</time></trkpt><trkpt lat="42.2296675" lon="14.2027954"><ele>285.33333333333337</ele><time>2026-05-01T13:28:17.459Z</time></trkpt><trkpt lat="42.2296745" lon="14.2026799"><ele>284.6666666666667</ele><time>2026-05-01T13:28:18.458Z</time></trkpt><trkpt lat="42.2296824" lon="14.2025665"><ele>284.0</ele><time>2026-05-01T13:28:19.463Z</time></trkpt><trkpt lat="42.2297086" lon="14.2024526"><ele>284.0</ele><time>2026-05-01T13:28:20.46Z</time></trkpt><trkpt lat="42.2297513" lon="14.2023389"><ele>284.0</ele><time>2026-05-01T13:28:21.462Z</time></trkpt><trkpt lat="42.229808" lon="14.2022348"><ele>284.0</ele><time>2026-05-01T13:28:22.463Z</time></trkpt><trkpt lat="42.2298701" lon="14.2021331"><ele>284.0</ele><time>2026-05-01T13:28:23.464Z</time></trkpt><trkpt lat="42.2299373" lon="14.2020383"><ele>284.0</ele><time>2026-05-01T13:28:24.457Z</time></trkpt><trkpt lat="42.2300039" lon="14.2019526"><ele>283.75</ele><time>2026-05-01T13:28:25.456Z</time></trkpt><trkpt lat="42.2300844" lon="14.2018699"><ele>283.5</ele><time>2026-05-01T13:28:26.447Z</time></trkpt><trkpt lat="42.2301812" lon="14.2017926"><ele>283.25</ele><time>2026-05-01T13:28:27.465Z</time></trkpt><trkpt lat="42.2302887" lon="14.2017188"><ele>283.0</ele><time>2026-05-01T13:28:28.456Z</time></trkpt><trkpt lat="42.2303972" lon="14.2016554"><ele>283.0</ele><time>2026-05-01T13:28:29.46Z</time></trkpt><trkpt lat="42.2304992" lon="14.2015963"><ele>283.0</ele><time>2026-05-01T13:28:30.458Z</time></trkpt><trkpt lat="42.2305991" lon="14.2015119"><ele>283.0</ele><time>2026-05-01T13:28:31.468Z</time></trkpt><trkpt lat="42.2307008" lon="14.2013997"><ele>283.0</ele><time>2026-05-01T13:28:32.463Z</time></trkpt><trkpt lat="42.2307959" lon="14.201262"><ele>282.75</ele><time>2026-05-01T13:28:33.458Z</time></trkpt><trkpt lat="42.2308863" lon="14.2011133"><ele>282.5</ele><time>2026-05-01T13:28:34.459Z</time></trkpt><trkpt lat="42.230956" lon="14.2009588"><ele>282.25</ele><time>2026-05-01T13:28:35.461Z</time></trkpt><trkpt lat="42.2309991" lon="14.2008076"><ele>282.0</ele><time>2026-05-01T13:28:36.458Z</time></trkpt><trkpt lat="42.2310671" lon="14.2006708"><ele>281.25</ele><time>2026-05-01T13:28:37.457Z</time></trkpt><trkpt lat="42.2311658" lon="14.200546"><ele>280.5</ele><time>2026-05-01T13:28:38.455Z</time></trkpt><trkpt lat="42.2312816" lon="14.2004323"><ele>279.75</ele><time>2026-05-01T13:28:39.464Z</time></trkpt><trkpt lat="42.2313937" lon="14.2003036"><ele>279.0</ele><time>2026-05-01T13:28:40.457Z</time></trkpt><trkpt lat="42.2315" lon="14.2001566"><ele>279.0</ele><time>2026-05-01T13:28:41.466Z</time></trkpt><trkpt lat="42.2316011" lon="14.2000108"><ele>279.0</ele><time>2026-05-01T13:28:42.46Z</time></trkpt><trkpt lat="42.2316899" lon="14.1998917"><ele>279.0</ele><time>2026-05-01T13:28:43.458Z</time></trkpt><trkpt lat="42.2317748" lon="14.199772"><ele>279.0</ele><time>2026-05-01T13:28:44.456Z</time></trkpt><trkpt lat="42.2318498" lon="14.1996845"><ele>278.4</ele><time>2026-05-01T13:28:45.454Z</time></trkpt><trkpt lat="42.2319183" lon="14.1996264"><ele>277.79999999999995</ele><time>2026-05-01T13:28:46.45Z</time></trkpt><trkpt lat="42.2319745" lon="14.1995628"><ele>277.20000000000005</ele><time>2026-05-01T13:28:47.459Z</time></trkpt><trkpt lat="42.2320501" lon="14.1994022"><ele>276.6</ele><time>2026-05-01T13:28:49.454Z</time></trkpt><trkpt lat="42.2321016" lon="14.1993019"><ele>276.0</ele><time>2026-05-01T13:28:50.456Z</time></trkpt><trkpt lat="42.2321638" lon="14.1991898"><ele>276.0</ele><time>2026-05-01T13:28:51.461Z</time></trkpt><trkpt lat="42.2322375" lon="14.1990599"><ele>276.0</ele><time>2026-05-01T13:28:52.46Z</time></trkpt><trkpt lat="42.2323161" lon="14.1989338"><ele>276.0</ele><time>2026-05-01T13:28:53.453Z</time></trkpt><trkpt lat="42.2324" lon="14.1988047"><ele>276.0</ele><time>2026-05-01T13:28:54.454Z</time></trkpt><trkpt lat="42.2324855" lon="14.1986723"><ele>275.0</ele><time>2026-05-01T13:28:55.456Z</time></trkpt><trkpt lat="42.2325687" lon="14.1985433"><ele>274.0</ele><time>2026-05-01T13:28:56.457Z</time></trkpt><trkpt lat="42.232648" lon="14.1984201"><ele>273.0</ele><time>2026-05-01T13:28:57.458Z</time></trkpt><trkpt lat="42.2327243" lon="14.1983036"><ele>272.0</ele><time>2026-05-01T13:28:58.47Z</time></trkpt><trkpt lat="42.2327989" lon="14.1981918"><ele>271.1666666666667</ele><time>2026-05-01T13:28:59.457Z</time></trkpt><trkpt lat="42.232864" lon="14.1980894"><ele>270.33333333333337</ele><time>2026-05-01T13:29:00.455Z</time></trkpt><trkpt lat="42.2329125" lon="14.1979953"><ele>269.5</ele><time>2026-05-01T13:29:01.455Z</time></trkpt><trkpt lat="42.232938" lon="14.1979074"><ele>268.6666666666667</ele><time>2026-05-01T13:29:02.47Z</time></trkpt><trkpt lat="42.2329553" lon="14.1978245"><ele>267.8333333333333</ele><time>2026-05-01T13:29:03.456Z</time></trkpt><trkpt lat="42.2329788" lon="14.1976848"><ele>267.0</ele><time>2026-05-01T13:29:05.456Z</time></trkpt><trkpt lat="42.2329883" lon="14.1975541"><ele>267.0</ele><time>2026-05-01T13:29:07.456Z</time></trkpt><trkpt lat="42.233001" lon="14.19741"><ele>267.0</ele><time>2026-05-01T13:29:09.464Z</time></trkpt><trkpt lat="42.2329928" lon="14.1972701"><ele>267.0</ele><time>2026-05-01T13:29:11.453Z</time></trkpt><trkpt lat="42.2329789" lon="14.1971834"><ele>267.0</ele><time>2026-05-01T13:29:12.459Z</time></trkpt><trkpt lat="42.2329656" lon="14.1970935"><ele>267.0</ele><time>2026-05-01T13:29:13.454Z</time></trkpt><trkpt lat="42.2329365" lon="14.1969471"><ele>267.5</ele><time>2026-05-01T13:29:15.451Z</time></trkpt><trkpt lat="42.2329142" lon="14.1968615"><ele>268.0</ele><time>2026-05-01T13:29:16.448Z</time></trkpt><trkpt lat="42.2328905" lon="14.1967643"><ele>268.5</ele><time>2026-05-01T13:29:17.454Z</time></trkpt><trkpt lat="42.2328773" lon="14.1966683"><ele>269.0</ele><time>2026-05-01T13:29:18.454Z</time></trkpt><trkpt lat="42.232858" lon="14.1965237"><ele>269.5</ele><time>2026-05-01T13:29:20.452Z</time></trkpt><trkpt lat="42.2328616" lon="14.1964288"><ele>270.0</ele><time>2026-05-01T13:29:23.453Z</time></trkpt><trkpt lat="42.2328553" lon="14.196337"><ele>270.1666666666667</ele><time>2026-05-01T13:29:30.454Z</time></trkpt><trkpt lat="42.2328228" lon="14.196226"><ele>270.3333333333333</ele><time>2026-05-01T13:29:34.453Z</time></trkpt><trkpt lat="42.2327638" lon="14.1961227"><ele>270.5</ele><time>2026-05-01T13:29:36.449Z</time></trkpt><trkpt lat="42.2327172" lon="14.1960491"><ele>270.66666666666663</ele><time>2026-05-01T13:29:41.458Z</time></trkpt><trkpt lat="42.2327366" lon="14.1961617"><ele>270.8333333333333</ele><time>2026-05-01T13:29:55.456Z</time></trkpt><trkpt lat="42.2327928" lon="14.1962448"><ele>271.0</ele><time>2026-05-01T13:29:57.453Z</time></trkpt><trkpt lat="42.2328345" lon="14.196399"><ele>271.0</ele><time>2026-05-01T13:29:59.455Z</time></trkpt><trkpt lat="42.2328406" lon="14.1964838"><ele>271.0</ele><time>2026-05-01T13:30:00.456Z</time></trkpt><trkpt lat="42.2328408" lon="14.1965699"><ele>271.0</ele><time>2026-05-01T13:30:01.453Z</time></trkpt><trkpt lat="42.2328363" lon="14.196703"><ele>271.0</ele><time>2026-05-01T13:30:03.456Z</time></trkpt><trkpt lat="42.2328358" lon="14.1968347"><ele>271.0</ele><time>2026-05-01T13:30:05.45Z</time></trkpt><trkpt lat="42.2328573" lon="14.1970058"><ele>270.8333333333333</ele><time>2026-05-01T13:30:07.456Z</time></trkpt><trkpt lat="42.2328696" lon="14.1970918"><ele>270.66666666666663</ele><time>2026-05-01T13:30:08.456Z</time></trkpt><trkpt lat="42.2328876" lon="14.1972463"><ele>270.5</ele><time>2026-05-01T13:30:10.45Z</time></trkpt><trkpt lat="42.2329033" lon="14.1973293"><ele>270.3333333333333</ele><time>2026-05-01T13:30:11.459Z</time></trkpt><trkpt lat="42.2329201" lon="14.1974919"><ele>270.1666666666667</ele><time>2026-05-01T13:30:13.452Z</time></trkpt><trkpt lat="42.2329136" lon="14.1975843"><ele>270.0</ele><time>2026-05-01T13:30:14.456Z</time></trkpt><trkpt lat="42.2328872" lon="14.1977334"><ele>269.5</ele><time>2026-05-01T13:30:16.453Z</time></trkpt><trkpt lat="42.2328706" lon="14.1978289"><ele>269.0</ele><time>2026-05-01T13:30:18.447Z</time></trkpt><trkpt lat="42.2329559" lon="14.197845"><ele>268.5</ele><time>2026-05-01T13:30:22.456Z</time></trkpt><trkpt lat="42.2330192" lon="14.1978327"><ele>268.0</ele><time>2026-05-01T13:30:24.464Z</time></trkpt><trkpt lat="42.2330904" lon="14.1978194"><ele>267.5</ele><time>2026-05-01T13:30:26.455Z</time></trkpt><trkpt lat="42.233158" lon="14.1977548"><ele>267.0</ele><time>2026-05-01T13:30:29.455Z</time></trkpt><trkpt lat="42.2332315" lon="14.1977235"><ele>267.0</ele><time>2026-05-01T13:30:39.465Z</time></trkpt><trkpt lat="42.2333073" lon="14.197643"><ele>267.0</ele><time>2026-05-01T13:30:42.458Z</time></trkpt><trkpt lat="42.233399" lon="14.1975696"><ele>267.0</ele><time>2026-05-01T13:30:44.452Z</time></trkpt><trkpt lat="42.233464" lon="14.197529"><ele>267.0</ele><time>2026-05-01T13:30:45.459Z</time></trkpt><trkpt lat="42.2335301" lon="14.1974801"><ele>267.0</ele><time>2026-05-01T13:30:46.448Z</time></trkpt><trkpt lat="42.2335953" lon="14.1974335"><ele>267.0</ele><time>2026-05-01T13:30:47.454Z</time></trkpt><trkpt lat="42.2336545" lon="14.1973587"><ele>267.0</ele><time>2026-05-01T13:30:48.451Z</time></trkpt><trkpt lat="42.2336957" lon="14.1972677"><ele>267.0</ele><time>2026-05-01T13:30:49.456Z</time></trkpt><trkpt lat="42.2337367" lon="14.1971669"><ele>267.0</ele><time>2026-05-01T13:30:50.465Z</time></trkpt><trkpt lat="42.2337715" lon="14.1970734"><ele>267.0</ele><time>2026-05-01T13:30:51.47Z</time></trkpt><trkpt lat="42.2338074" lon="14.1969871"><ele>267.0</ele><time>2026-05-01T13:30:52.458Z</time></trkpt><trkpt lat="42.2338568" lon="14.1968916"><ele>267.0</ele><time>2026-05-01T13:30:53.463Z</time></trkpt><trkpt lat="42.2339119" lon="14.1967993"><ele>267.0</ele><time>2026-05-01T13:30:54.459Z</time></trkpt><trkpt lat="42.2339576" lon="14.1967159"><ele>267.0</ele><time>2026-05-01T13:30:55.456Z</time></trkpt><trkpt lat="42.233987" lon="14.1966374"><ele>267.0</ele><time>2026-05-01T13:30:56.45Z</time></trkpt><trkpt lat="42.2340132" lon="14.1965544"><ele>267.0</ele><time>2026-05-01T13:30:57.452Z</time></trkpt><trkpt lat="42.23404" lon="14.196454"><ele>267.0</ele><time>2026-05-01T13:30:58.463Z</time></trkpt><trkpt lat="42.2340689" lon="14.1963454"><ele>267.0</ele><time>2026-05-01T13:30:59.453Z</time></trkpt><trkpt lat="42.2341038" lon="14.1962327"><ele>266.8</ele><time>2026-05-01T13:31:00.455Z</time></trkpt><trkpt lat="42.2341532" lon="14.1961276"><ele>266.6</ele><time>2026-05-01T13:31:01.454Z</time></trkpt><trkpt lat="42.2342077" lon="14.1960222"><ele>266.40000000000003</ele><time>2026-05-01T13:31:02.46Z</time></trkpt><trkpt lat="42.2342528" lon="14.1959188"><ele>266.2</ele><time>2026-05-01T13:31:03.45Z</time></trkpt><trkpt lat="42.2343018" lon="14.1958232"><ele>266.0</ele><time>2026-05-01T13:31:04.451Z</time></trkpt><trkpt lat="42.2343592" lon="14.1957341"><ele>266.5</ele><time>2026-05-01T13:31:05.461Z</time></trkpt><trkpt lat="42.2344265" lon="14.1956445"><ele>267.0</ele><time>2026-05-01T13:31:06.454Z</time></trkpt><trkpt lat="42.2345018" lon="14.1955682"><ele>267.5</ele><time>2026-05-01T13:31:07.454Z</time></trkpt><trkpt lat="42.2345782" lon="14.1954955"><ele>268.0</ele><time>2026-05-01T13:31:08.455Z</time></trkpt><trkpt lat="42.2346425" lon="14.195425"><ele>268.5</ele><time>2026-05-01T13:31:09.453Z</time></trkpt><trkpt lat="42.2346929" lon="14.1953554"><ele>269.0</ele><time>2026-05-01T13:31:10.454Z</time></trkpt><trkpt lat="42.2347384" lon="14.1952918"><ele>268.4</ele><time>2026-05-01T13:31:11.447Z</time></trkpt><trkpt lat="42.2348356" lon="14.1951783"><ele>267.79999999999995</ele><time>2026-05-01T13:31:13.45Z</time></trkpt><trkpt lat="42.2348941" lon="14.1951247"><ele>267.20000000000005</ele><time>2026-05-01T13:31:14.443Z</time></trkpt><trkpt lat="42.2349604" lon="14.195068"><ele>266.6</ele><time>2026-05-01T13:31:15.453Z</time></trkpt><trkpt lat="42.23503" lon="14.1949923"><ele>266.0</ele><time>2026-05-01T13:31:16.449Z</time></trkpt><trkpt lat="42.2351015" lon="14.1949108"><ele>265.83333333333337</ele><time>2026-05-01T13:31:17.447Z</time></trkpt><trkpt lat="42.2351694" lon="14.1948313"><ele>265.6666666666667</ele><time>2026-05-01T13:31:18.451Z</time></trkpt><trkpt lat="42.2352262" lon="14.1947585"><ele>265.5</ele><time>2026-05-01T13:31:19.45Z</time></trkpt><trkpt lat="42.2352902" lon="14.194693"><ele>265.3333333333333</ele><time>2026-05-01T13:31:20.453Z</time></trkpt><trkpt lat="42.2353578" lon="14.1946264"><ele>265.16666666666663</ele><time>2026-05-01T13:31:21.465Z</time></trkpt><trkpt lat="42.2354216" lon="14.1945645"><ele>265.0</ele><time>2026-05-01T13:31:22.453Z</time></trkpt><trkpt lat="42.2354771" lon="14.1945096"><ele>265.0</ele><time>2026-05-01T13:31:23.457Z</time></trkpt><trkpt lat="42.2355277" lon="14.194455"><ele>265.0</ele><time>2026-05-01T13:31:24.455Z</time></trkpt><trkpt lat="42.2355829" lon="14.1944085"><ele>265.0</ele><time>2026-05-01T13:31:25.452Z</time></trkpt><trkpt lat="42.2356469" lon="14.1943652"><ele>265.0</ele><time>2026-05-01T13:31:26.457Z</time></trkpt><trkpt lat="42.2357175" lon="14.1943294"><ele>265.0</ele><time>2026-05-01T13:31:27.456Z</time></trkpt><trkpt lat="42.235798" lon="14.1942773"><ele>265.0</ele><time>2026-05-01T13:31:28.465Z</time></trkpt><trkpt lat="42.2358821" lon="14.1942211"><ele>265.0</ele><time>2026-05-01T13:31:29.454Z</time></trkpt><trkpt lat="42.235953" lon="14.1941462"><ele>265.0</ele><time>2026-05-01T13:31:30.46Z</time></trkpt><trkpt lat="42.236011" lon="14.1940527"><ele>265.0</ele><time>2026-05-01T13:31:31.457Z</time></trkpt><trkpt lat="42.2360693" lon="14.1939441"><ele>265.0</ele><time>2026-05-01T13:31:32.456Z</time></trkpt><trkpt lat="42.2361235" lon="14.1938277"><ele>265.0</ele><time>2026-05-01T13:31:33.461Z</time></trkpt><trkpt lat="42.2361721" lon="14.1936945"><ele>264.4</ele><time>2026-05-01T13:31:34.454Z</time></trkpt><trkpt lat="42.2362186" lon="14.1935489"><ele>263.8</ele><time>2026-05-01T13:31:35.46Z</time></trkpt><trkpt lat="42.2362664" lon="14.1934077"><ele>263.2</ele><time>2026-05-01T13:31:36.462Z</time></trkpt><trkpt lat="42.2363087" lon="14.1932729"><ele>262.6</ele><time>2026-05-01T13:31:37.452Z</time></trkpt><trkpt lat="42.2363411" lon="14.1931501"><ele>262.0</ele><time>2026-05-01T13:31:38.451Z</time></trkpt><trkpt lat="42.2363734" lon="14.1930325"><ele>262.2</ele><time>2026-05-01T13:31:39.456Z</time></trkpt><trkpt lat="42.236405" lon="14.1929105"><ele>262.4</ele><time>2026-05-01T13:31:40.453Z</time></trkpt><trkpt lat="42.2364307" lon="14.1927915"><ele>262.6</ele><time>2026-05-01T13:31:41.45Z</time></trkpt><trkpt lat="42.2364598" lon="14.1926867"><ele>262.8</ele><time>2026-05-01T13:31:42.453Z</time></trkpt><trkpt lat="42.2364887" lon="14.1925756"><ele>263.0</ele><time>2026-05-01T13:31:43.452Z</time></trkpt><trkpt lat="42.2365282" lon="14.1924492"><ele>261.5</ele><time>2026-05-01T13:31:44.452Z</time></trkpt><trkpt lat="42.2365687" lon="14.1923152"><ele>260.0</ele><time>2026-05-01T13:31:45.451Z</time></trkpt><trkpt lat="42.2366142" lon="14.192171"><ele>258.5</ele><time>2026-05-01T13:31:46.452Z</time></trkpt><trkpt lat="42.2366655" lon="14.1920185"><ele>257.0</ele><time>2026-05-01T13:31:47.455Z</time></trkpt><trkpt lat="42.2367159" lon="14.1918793"><ele>257.0</ele><time>2026-05-01T13:31:48.457Z</time></trkpt><trkpt lat="42.2367677" lon="14.1917432"><ele>257.0</ele><time>2026-05-01T13:31:49.46Z</time></trkpt><trkpt lat="42.2368285" lon="14.1916113"><ele>257.0</ele><time>2026-05-01T13:31:50.456Z</time></trkpt><trkpt lat="42.2369074" lon="14.1914789"><ele>257.0</ele><time>2026-05-01T13:31:51.469Z</time></trkpt><trkpt lat="42.2369861" lon="14.1913628"><ele>256.1666666666667</ele><time>2026-05-01T13:31:52.458Z</time></trkpt><trkpt lat="42.2370623" lon="14.1912704"><ele>255.33333333333334</ele><time>2026-05-01T13:31:53.458Z</time></trkpt><trkpt lat="42.2371311" lon="14.1911836"><ele>254.5</ele><time>2026-05-01T13:31:54.457Z</time></trkpt><trkpt lat="42.2371734" lon="14.1911103"><ele>253.66666666666669</ele><time>2026-05-01T13:31:55.463Z</time></trkpt><trkpt lat="42.2371993" lon="14.1909669"><ele>252.83333333333334</ele><time>2026-05-01T13:31:57.445Z</time></trkpt><trkpt lat="42.2372161" lon="14.1908706"><ele>252.0</ele><time>2026-05-01T13:31:58.449Z</time></trkpt><trkpt lat="42.2372486" lon="14.1907462"><ele>252.2</ele><time>2026-05-01T13:31:59.455Z</time></trkpt><trkpt lat="42.2372983" lon="14.1906119"><ele>252.39999999999998</ele><time>2026-05-01T13:32:00.459Z</time></trkpt><trkpt lat="42.2373557" lon="14.1904864"><ele>252.60000000000002</ele><time>2026-05-01T13:32:01.454Z</time></trkpt><trkpt lat="42.2374258" lon="14.1903845"><ele>252.8</ele><time>2026-05-01T13:32:02.456Z</time></trkpt><trkpt lat="42.2375049" lon="14.1903031"><ele>253.0</ele><time>2026-05-01T13:32:03.457Z</time></trkpt><trkpt lat="42.2376019" lon="14.190222"><ele>253.0</ele><time>2026-05-01T13:32:04.453Z</time></trkpt><trkpt lat="42.2377113" lon="14.1901249"><ele>253.0</ele><time>2026-05-01T13:32:05.454Z</time></trkpt><trkpt lat="42.2378" lon="14.1900281"><ele>253.0</ele><time>2026-05-01T13:32:06.455Z</time></trkpt><trkpt lat="42.237859" lon="14.1899516"><ele>253.0</ele><time>2026-05-01T13:32:07.456Z</time></trkpt><trkpt lat="42.2379174" lon="14.1898283"><ele>253.0</ele><time>2026-05-01T13:32:09.454Z</time></trkpt><trkpt lat="42.2379396" lon="14.1897421"><ele>252.0</ele><time>2026-05-01T13:32:11.448Z</time></trkpt><trkpt lat="42.2379543" lon="14.1896554"><ele>251.0</ele><time>2026-05-01T13:32:14.453Z</time></trkpt><trkpt lat="42.2379638" lon="14.1895087"><ele>250.0</ele><time>2026-05-01T13:32:16.46Z</time></trkpt><trkpt lat="42.2379722" lon="14.1893656"><ele>249.0</ele><time>2026-05-01T13:32:17.458Z</time></trkpt><trkpt lat="42.2379812" lon="14.1892108"><ele>248.0</ele><time>2026-05-01T13:32:18.456Z</time></trkpt><trkpt lat="42.237991" lon="14.1890644"><ele>247.4</ele><time>2026-05-01T13:32:19.455Z</time></trkpt><trkpt lat="42.2379961" lon="14.1889217"><ele>246.8</ele><time>2026-05-01T13:32:20.45Z</time></trkpt><trkpt lat="42.2379884" lon="14.1887905"><ele>246.2</ele><time>2026-05-01T13:32:21.464Z</time></trkpt><trkpt lat="42.2379831" lon="14.1886643"><ele>245.6</ele><time>2026-05-01T13:32:22.453Z</time></trkpt><trkpt lat="42.2380003" lon="14.1885349"><ele>245.0</ele><time>2026-05-01T13:32:23.449Z</time></trkpt><trkpt lat="42.2380416" lon="14.1884066"><ele>245.00000000000003</ele><time>2026-05-01T13:32:24.448Z</time></trkpt><trkpt lat="42.2380921" lon="14.1882899"><ele>245.0</ele><time>2026-05-01T13:32:25.452Z</time></trkpt><trkpt lat="42.2381583" lon="14.1881943"><ele>245.0</ele><time>2026-05-01T13:32:26.45Z</time></trkpt><trkpt lat="42.2382324" lon="14.1881126"><ele>245.0</ele><time>2026-05-01T13:32:27.452Z</time></trkpt><trkpt lat="42.2382991" lon="14.1880522"><ele>245.00000000000003</ele><time>2026-05-01T13:32:28.457Z</time></trkpt><trkpt lat="42.2383499" lon="14.1879989"><ele>245.0</ele><time>2026-05-01T13:32:29.449Z</time></trkpt><trkpt lat="42.2383967" lon="14.1878636"><ele>244.66666666666669</ele><time>2026-05-01T13:32:31.449Z</time></trkpt><trkpt lat="42.2383956" lon="14.187771"><ele>244.33333333333334</ele><time>2026-05-01T13:32:32.45Z</time></trkpt><trkpt lat="42.2383931" lon="14.1876661"><ele>244.0</ele><time>2026-05-01T13:32:33.451Z</time></trkpt><trkpt lat="42.2383964" lon="14.1875596"><ele>243.66666666666669</ele><time>2026-05-01T13:32:34.45Z</time></trkpt><trkpt lat="42.2384089" lon="14.187467"><ele>243.33333333333334</ele><time>2026-05-01T13:32:35.457Z</time></trkpt><trkpt lat="42.2384807" lon="14.1873663"><ele>243.0</ele><time>2026-05-01T13:32:37.452Z</time></trkpt><trkpt lat="42.2385973" lon="14.1873114"><ele>243.66666666666666</ele><time>2026-05-01T13:32:39.45Z</time></trkpt><trkpt lat="42.2386736" lon="14.1872978"><ele>244.33333333333331</ele><time>2026-05-01T13:32:40.45Z</time></trkpt><trkpt lat="42.2387618" lon="14.1872995"><ele>245.0</ele><time>2026-05-01T13:32:41.443Z</time></trkpt><trkpt lat="42.2388469" lon="14.1872795"><ele>245.66666666666666</ele><time>2026-05-01T13:32:42.447Z</time></trkpt><trkpt lat="42.2389148" lon="14.187258"><ele>246.33333333333331</ele><time>2026-05-01T13:32:43.448Z</time></trkpt><trkpt lat="42.2389744" lon="14.1872054"><ele>247.0</ele><time>2026-05-01T13:32:44.444Z</time></trkpt><trkpt lat="42.2390326" lon="14.1871312"><ele>247.39999999999998</ele><time>2026-05-01T13:32:45.442Z</time></trkpt><trkpt lat="42.2390887" lon="14.187025"><ele>247.79999999999998</ele><time>2026-05-01T13:32:46.443Z</time></trkpt><trkpt lat="42.2391452" lon="14.1868951"><ele>248.2</ele><time>2026-05-01T13:32:47.446Z</time></trkpt><trkpt lat="42.2392068" lon="14.1867641"><ele>248.6</ele><time>2026-05-01T13:32:48.446Z</time></trkpt><trkpt lat="42.2392665" lon="14.1866222"><ele>249.0</ele><time>2026-05-01T13:32:49.451Z</time></trkpt><trkpt lat="42.2393136" lon="14.1865016"><ele>250.0</ele><time>2026-05-01T13:32:50.445Z</time></trkpt><trkpt lat="42.2393511" lon="14.1863961"><ele>251.0</ele><time>2026-05-01T13:32:51.452Z</time></trkpt><trkpt lat="42.2393786" lon="14.1863142"><ele>252.0</ele><time>2026-05-01T13:32:52.441Z</time></trkpt><trkpt lat="42.2394162" lon="14.186236"><ele>253.0</ele><time>2026-05-01T13:32:53.437Z</time></trkpt><trkpt lat="42.2394748" lon="14.1861712"><ele>254.0</ele><time>2026-05-01T13:32:54.441Z</time></trkpt><trkpt lat="42.2395521" lon="14.1860906"><ele>255.0</ele><time>2026-05-01T13:32:55.438Z</time></trkpt><trkpt lat="42.2396337" lon="14.1860039"><ele>255.0</ele><time>2026-05-01T13:32:56.441Z</time></trkpt><trkpt lat="42.2397133" lon="14.1859124"><ele>255.0</ele><time>2026-05-01T13:32:57.432Z</time></trkpt><trkpt lat="42.2397904" lon="14.1858071"><ele>255.0</ele><time>2026-05-01T13:32:58.437Z</time></trkpt><trkpt lat="42.2398544" lon="14.1857003"><ele>255.0</ele><time>2026-05-01T13:32:59.437Z</time></trkpt><trkpt lat="42.2399032" lon="14.1855925"><ele>255.0</ele><time>2026-05-01T13:33:00.448Z</time></trkpt><trkpt lat="42.2399442" lon="14.1854832"><ele>254.6</ele><time>2026-05-01T13:33:01.451Z</time></trkpt><trkpt lat="42.2399887" lon="14.1853721"><ele>254.2</ele><time>2026-05-01T13:33:02.457Z</time></trkpt><trkpt lat="42.2400435" lon="14.1852579"><ele>253.8</ele><time>2026-05-01T13:33:03.443Z</time></trkpt><trkpt lat="42.2401079" lon="14.185147"><ele>253.4</ele><time>2026-05-01T13:33:04.448Z</time></trkpt><trkpt lat="42.2401946" lon="14.1850498"><ele>253.0</ele><time>2026-05-01T13:33:05.452Z</time></trkpt><trkpt lat="42.2402875" lon="14.1849602"><ele>252.99999999999997</ele><time>2026-05-01T13:33:06.452Z</time></trkpt><trkpt lat="42.2403719" lon="14.1848843"><ele>253.0</ele><time>2026-05-01T13:33:07.462Z</time></trkpt><trkpt lat="42.2404372" lon="14.1848171"><ele>253.0</ele><time>2026-05-01T13:33:08.451Z</time></trkpt><trkpt lat="42.2404927" lon="14.1847614"><ele>253.0</ele><time>2026-05-01T13:33:09.469Z</time></trkpt><trkpt lat="42.2405555" lon="14.1846977"><ele>252.99999999999997</ele><time>2026-05-01T13:33:11.453Z</time></trkpt><trkpt lat="42.2406299" lon="14.1847055"><ele>253.0</ele><time>2026-05-01T13:33:14.46Z</time></trkpt><trkpt lat="42.2406988" lon="14.1846864"><ele>252.99999999999997</ele><time>2026-05-01T13:33:16.454Z</time></trkpt><trkpt lat="42.2407937" lon="14.1846712"><ele>253.0</ele><time>2026-05-01T13:33:18.458Z</time></trkpt><trkpt lat="42.2408834" lon="14.1847121"><ele>253.0</ele><time>2026-05-01T13:33:20.452Z</time></trkpt><trkpt lat="42.2409613" lon="14.1847515"><ele>253.0</ele><time>2026-05-01T13:33:22.454Z</time></trkpt><trkpt lat="42.2410235" lon="14.1847787"><ele>252.99999999999997</ele><time>2026-05-01T13:33:33.464Z</time></trkpt><trkpt lat="42.2411065" lon="14.1848504"><ele>253.0</ele><time>2026-05-01T13:33:37.456Z</time></trkpt><trkpt lat="42.2411698" lon="14.1849153"><ele>252.99999999999997</ele><time>2026-05-01T13:33:39.47Z</time></trkpt><trkpt lat="42.241249" lon="14.1849809"><ele>253.0</ele><time>2026-05-01T13:33:48.457Z</time></trkpt><trkpt lat="42.2413082" lon="14.1850178"><ele>253.0</ele><time>2026-05-01T13:33:50.452Z</time></trkpt><trkpt lat="42.241239" lon="14.1849743"><ele>253.0</ele><time>2026-05-01T13:33:58.458Z</time></trkpt><trkpt lat="42.2411876" lon="14.1849165"><ele>252.99999999999997</ele><time>2026-05-01T13:34:05.453Z</time></trkpt><trkpt lat="42.2410985" lon="14.1848349"><ele>253.0</ele><time>2026-05-01T13:34:08.449Z</time></trkpt><trkpt lat="42.2410439" lon="14.1847664"><ele>252.99999999999997</ele><time>2026-05-01T13:34:09.459Z</time></trkpt><trkpt lat="42.2409659" lon="14.1847034"><ele>253.0</ele><time>2026-05-01T13:34:10.455Z</time></trkpt><trkpt lat="42.2408873" lon="14.184659"><ele>253.0</ele><time>2026-05-01T13:34:11.469Z</time></trkpt><trkpt lat="42.2408165" lon="14.1846387"><ele>253.0</ele><time>2026-05-01T13:34:12.457Z</time></trkpt><trkpt lat="42.2407172" lon="14.1846336"><ele>252.99999999999997</ele><time>2026-05-01T13:34:14.455Z</time></trkpt><trkpt lat="42.2406493" lon="14.1846392"><ele>253.0</ele><time>2026-05-01T13:34:16.453Z</time></trkpt><trkpt lat="42.2406609" lon="14.1847246"><ele>253.0</ele><time>2026-05-01T13:34:23.459Z</time></trkpt><trkpt lat="42.2407496" lon="14.1848171"><ele>253.0</ele><time>2026-05-01T13:34:25.454Z</time></trkpt><trkpt lat="42.2408436" lon="14.184883"><ele>253.0</ele><time>2026-05-01T13:34:27.462Z</time></trkpt><trkpt lat="42.2409261" lon="14.1849417"><ele>253.0</ele><time>2026-05-01T13:34:29.461Z</time></trkpt><trkpt lat="42.2409837" lon="14.1849838"><ele>253.0</ele><time>2026-05-01T13:34:30.456Z</time></trkpt><trkpt lat="42.2410557" lon="14.1850326"><ele>252.2</ele><time>2026-05-01T13:34:31.456Z</time></trkpt><trkpt lat="42.2411335" lon="14.1850818"><ele>251.4</ele><time>2026-05-01T13:34:32.451Z</time></trkpt><trkpt lat="42.2412221" lon="14.1851385"><ele>250.59999999999997</ele><time>2026-05-01T13:34:33.452Z</time></trkpt><trkpt lat="42.241321" lon="14.1851957"><ele>249.79999999999998</ele><time>2026-05-01T13:34:34.45Z</time></trkpt><trkpt lat="42.2414116" lon="14.185239"><ele>249.0</ele><time>2026-05-01T13:34:35.451Z</time></trkpt><trkpt lat="42.241505" lon="14.1852434"><ele>248.39999999999998</ele><time>2026-05-01T13:34:36.45Z</time></trkpt><trkpt lat="42.241588" lon="14.1852122"><ele>247.79999999999998</ele><time>2026-05-01T13:34:37.442Z</time></trkpt><trkpt lat="42.2416611" lon="14.1851454"><ele>247.20000000000002</ele><time>2026-05-01T13:34:38.44Z</time></trkpt><trkpt lat="42.241724" lon="14.1850603"><ele>246.60000000000002</ele><time>2026-05-01T13:34:39.44Z</time></trkpt><trkpt lat="42.2417857" lon="14.1849596"><ele>246.0</ele><time>2026-05-01T13:34:40.437Z</time></trkpt><trkpt lat="42.2418485" lon="14.1848645"><ele>246.0</ele><time>2026-05-01T13:34:41.439Z</time></trkpt><trkpt lat="42.2419125" lon="14.1847511"><ele>246.00000000000003</ele><time>2026-05-01T13:34:42.46Z</time></trkpt><trkpt lat="42.2419708" lon="14.1846313"><ele>246.00000000000003</ele><time>2026-05-01T13:34:43.436Z</time></trkpt><trkpt lat="42.2420244" lon="14.1845052"><ele>246.0</ele><time>2026-05-01T13:34:44.453Z</time></trkpt><trkpt lat="42.2420672" lon="14.1843525"><ele>246.0</ele><time>2026-05-01T13:34:45.448Z</time></trkpt><trkpt lat="42.2420948" lon="14.1841885"><ele>246.0</ele><time>2026-05-01T13:34:46.449Z</time></trkpt><trkpt lat="42.242107" lon="14.1840361"><ele>246.00000000000003</ele><time>2026-05-01T13:34:47.447Z</time></trkpt><trkpt lat="42.2421226" lon="14.1839064"><ele>246.00000000000003</ele><time>2026-05-01T13:34:48.454Z</time></trkpt><trkpt lat="42.2421502" lon="14.1837916"><ele>246.0</ele><time>2026-05-01T13:34:49.451Z</time></trkpt><trkpt lat="42.2421989" lon="14.1836909"><ele>246.0</ele><time>2026-05-01T13:34:50.442Z</time></trkpt><trkpt lat="42.2422539" lon="14.1835847"><ele>246.20000000000002</ele><time>2026-05-01T13:34:51.467Z</time></trkpt><trkpt lat="42.2423114" lon="14.1834742"><ele>246.40000000000003</ele><time>2026-05-01T13:34:52.442Z</time></trkpt><trkpt lat="42.242381" lon="14.18338"><ele>246.6</ele><time>2026-05-01T13:34:53.442Z</time></trkpt><trkpt lat="42.2424716" lon="14.1833111"><ele>246.8</ele><time>2026-05-01T13:34:54.445Z</time></trkpt><trkpt lat="42.2425906" lon="14.183291"><ele>247.0</ele><time>2026-05-01T13:34:55.445Z</time></trkpt><trkpt lat="42.2427141" lon="14.1833076"><ele>247.0</ele><time>2026-05-01T13:34:56.438Z</time></trkpt><trkpt lat="42.2428365" lon="14.1833422"><ele>247.0</ele><time>2026-05-01T13:34:57.437Z</time></trkpt><trkpt lat="42.2429486" lon="14.1833902"><ele>247.0</ele><time>2026-05-01T13:34:58.439Z</time></trkpt><trkpt lat="42.2430478" lon="14.1834311"><ele>247.0</ele><time>2026-05-01T13:34:59.437Z</time></trkpt><trkpt lat="42.2431338" lon="14.1834463"><ele>247.0</ele><time>2026-05-01T13:35:00.445Z</time></trkpt><trkpt lat="42.2432122" lon="14.1834746"><ele>247.0</ele><time>2026-05-01T13:35:01.441Z</time></trkpt><trkpt lat="42.2433186" lon="14.1834757"><ele>247.0</ele><time>2026-05-01T13:35:03.449Z</time></trkpt><trkpt lat="42.24339" lon="14.1833821"><ele>247.0</ele><time>2026-05-01T13:35:05.447Z</time></trkpt><trkpt lat="42.2434142" lon="14.1832814"><ele>247.0</ele><time>2026-05-01T13:35:17.446Z</time></trkpt><trkpt lat="42.2433273" lon="14.1831986"><ele>247.0</ele><time>2026-05-01T13:35:20.448Z</time></trkpt><trkpt lat="42.2432737" lon="14.1831402"><ele>247.0</ele><time>2026-05-01T13:35:21.456Z</time></trkpt><trkpt lat="42.2431939" lon="14.1830876"><ele>247.0</ele><time>2026-05-01T13:35:22.446Z</time></trkpt><trkpt lat="42.2430971" lon="14.1830346"><ele>247.0</ele><time>2026-05-01T13:35:23.459Z</time></trkpt><trkpt lat="42.2429829" lon="14.1829723"><ele>247.0</ele><time>2026-05-01T13:35:24.454Z</time></trkpt><trkpt lat="42.2428707" lon="14.1829106"><ele>247.0</ele><time>2026-05-01T13:35:25.452Z</time></trkpt><trkpt lat="42.242771" lon="14.1828494"><ele>247.39999999999998</ele><time>2026-05-01T13:35:26.447Z</time></trkpt><trkpt lat="42.2426884" lon="14.182777"><ele>247.79999999999998</ele><time>2026-05-01T13:35:27.452Z</time></trkpt><trkpt lat="42.2426098" lon="14.1826943"><ele>248.2</ele><time>2026-05-01T13:35:28.451Z</time></trkpt><trkpt lat="42.242537" lon="14.1826083"><ele>248.6</ele><time>2026-05-01T13:35:29.451Z</time></trkpt><trkpt lat="42.2424676" lon="14.1825342"><ele>249.0</ele><time>2026-05-01T13:35:30.448Z</time></trkpt><trkpt lat="42.2424093" lon="14.1824816"><ele>249.0</ele><time>2026-05-01T13:35:31.447Z</time></trkpt><trkpt lat="42.2423501" lon="14.1823587"><ele>248.99999999999997</ele><time>2026-05-01T13:35:33.451Z</time></trkpt><trkpt lat="42.2424002" lon="14.182258"><ele>248.99999999999997</ele><time>2026-05-01T13:35:35.449Z</time></trkpt><trkpt lat="42.2424616" lon="14.1822297"><ele>249.0</ele><time>2026-05-01T13:35:36.46Z</time></trkpt><trkpt lat="42.2425606" lon="14.1822172"><ele>249.0</ele><time>2026-05-01T13:35:37.448Z</time></trkpt><trkpt lat="42.2426648" lon="14.1821944"><ele>249.5</ele><time>2026-05-01T13:35:38.455Z</time></trkpt><trkpt lat="42.2427765" lon="14.1821492"><ele>250.0</ele><time>2026-05-01T13:35:39.449Z</time></trkpt><trkpt lat="42.2428918" lon="14.1820982"><ele>250.5</ele><time>2026-05-01T13:35:40.45Z</time></trkpt><trkpt lat="42.2430009" lon="14.1820515"><ele>251.0</ele><time>2026-05-01T13:35:41.457Z</time></trkpt><trkpt lat="42.2430997" lon="14.1820148"><ele>250.0</ele><time>2026-05-01T13:35:42.45Z</time></trkpt><trkpt lat="42.2431965" lon="14.1819849"><ele>249.00000000000003</ele><time>2026-05-01T13:35:43.464Z</time></trkpt><trkpt lat="42.2432884" lon="14.1819381"><ele>248.00000000000003</ele><time>2026-05-01T13:35:44.46Z</time></trkpt><trkpt lat="42.2433857" lon="14.1818824"><ele>247.0</ele><time>2026-05-01T13:35:45.45Z</time></trkpt><trkpt lat="42.2434863" lon="14.1818284"><ele>246.0</ele><time>2026-05-01T13:35:46.44Z</time></trkpt><trkpt lat="42.243592" lon="14.1817647"><ele>246.0</ele><time>2026-05-01T13:35:47.454Z</time></trkpt><trkpt lat="42.2437054" lon="14.1816926"><ele>246.0</ele><time>2026-05-01T13:35:48.45Z</time></trkpt><trkpt lat="42.2438269" lon="14.181634"><ele>246.0</ele><time>2026-05-01T13:35:49.463Z</time></trkpt><trkpt lat="42.2439459" lon="14.18158"><ele>246.0</ele><time>2026-05-01T13:35:50.449Z</time></trkpt><trkpt lat="42.2440551" lon="14.1815191"><ele>244.75</ele><time>2026-05-01T13:35:51.46Z</time></trkpt><trkpt lat="42.2441629" lon="14.1814577"><ele>243.5</ele><time>2026-05-01T13:35:52.453Z</time></trkpt><trkpt lat="42.2442753" lon="14.1813906"><ele>242.25</ele><time>2026-05-01T13:35:53.451Z</time></trkpt><trkpt lat="42.2443949" lon="14.1813184"><ele>241.0</ele><time>2026-05-01T13:35:54.456Z</time></trkpt><trkpt lat="42.2445107" lon="14.1812335"><ele>241.0</ele><time>2026-05-01T13:35:55.458Z</time></trkpt><trkpt lat="42.244615" lon="14.1811546"><ele>241.00000000000003</ele><time>2026-05-01T13:35:56.455Z</time></trkpt><trkpt lat="42.2447085" lon="14.1810964"><ele>241.00000000000003</ele><time>2026-05-01T13:35:57.461Z</time></trkpt><trkpt lat="42.2447899" lon="14.1810599"><ele>241.0</ele><time>2026-05-01T13:35:58.454Z</time></trkpt><trkpt lat="42.2448653" lon="14.1810534"><ele>241.0</ele><time>2026-05-01T13:35:59.456Z</time></trkpt><trkpt lat="42.2449834" lon="14.1811049"><ele>240.49999999999997</ele><time>2026-05-01T13:36:01.451Z</time></trkpt><trkpt lat="42.2450419" lon="14.1811364"><ele>240.0</ele><time>2026-05-01T13:36:02.462Z</time></trkpt><trkpt lat="42.2451055" lon="14.1811797"><ele>239.5</ele><time>2026-05-01T13:36:03.452Z</time></trkpt><trkpt lat="42.2451722" lon="14.181234"><ele>239.0</ele><time>2026-05-01T13:36:04.456Z</time></trkpt><trkpt lat="42.245245" lon="14.1813046"><ele>238.49999999999997</ele><time>2026-05-01T13:36:05.451Z</time></trkpt><trkpt lat="42.2453256" lon="14.1813864"><ele>238.0</ele><time>2026-05-01T13:36:06.463Z</time></trkpt><trkpt lat="42.2454097" lon="14.1814556"><ele>237.8</ele><time>2026-05-01T13:36:07.448Z</time></trkpt><trkpt lat="42.2454949" lon="14.1815187"><ele>237.60000000000002</ele><time>2026-05-01T13:36:08.447Z</time></trkpt><trkpt lat="42.2455874" lon="14.1815635"><ele>237.39999999999998</ele><time>2026-05-01T13:36:09.459Z</time></trkpt><trkpt lat="42.2456882" lon="14.1815923"><ele>237.2</ele><time>2026-05-01T13:36:10.458Z</time></trkpt><trkpt lat="42.2457856" lon="14.1816371"><ele>237.0</ele><time>2026-05-01T13:36:11.464Z</time></trkpt><trkpt lat="42.2458863" lon="14.181712"><ele>237.0</ele><time>2026-05-01T13:36:12.456Z</time></trkpt><trkpt lat="42.2459743" lon="14.1817895"><ele>237.0</ele><time>2026-05-01T13:36:13.468Z</time></trkpt><trkpt lat="42.2460589" lon="14.1818691"><ele>237.0</ele><time>2026-05-01T13:36:14.465Z</time></trkpt><trkpt lat="42.2461567" lon="14.1819341"><ele>237.0</ele><time>2026-05-01T13:36:15.456Z</time></trkpt><trkpt lat="42.2462605" lon="14.1819642"><ele>237.0</ele><time>2026-05-01T13:36:16.461Z</time></trkpt><trkpt lat="42.2463802" lon="14.1819788"><ele>235.75</ele><time>2026-05-01T13:36:17.455Z</time></trkpt><trkpt lat="42.2465078" lon="14.1819817"><ele>234.5</ele><time>2026-05-01T13:36:18.459Z</time></trkpt><trkpt lat="42.2466395" lon="14.1819716"><ele>233.25</ele><time>2026-05-01T13:36:19.466Z</time></trkpt><trkpt lat="42.24676" lon="14.1819643"><ele>232.0</ele><time>2026-05-01T13:36:20.449Z</time></trkpt><trkpt lat="42.2468688" lon="14.1819729"><ele>232.00000000000003</ele><time>2026-05-01T13:36:21.462Z</time></trkpt><trkpt lat="42.2469512" lon="14.1820027"><ele>232.0</ele><time>2026-05-01T13:36:22.469Z</time></trkpt><trkpt lat="42.2470078" lon="14.1820407"><ele>232.00000000000003</ele><time>2026-05-01T13:36:23.462Z</time></trkpt><trkpt lat="42.2470668" lon="14.1820836"><ele>232.00000000000003</ele><time>2026-05-01T13:36:24.459Z</time></trkpt><trkpt lat="42.2471226" lon="14.1821375"><ele>232.0</ele><time>2026-05-01T13:36:25.457Z</time></trkpt><trkpt lat="42.2471912" lon="14.1821842"><ele>232.00000000000003</ele><time>2026-05-01T13:36:26.467Z</time></trkpt><trkpt lat="42.2472585" lon="14.1822475"><ele>232.00000000000003</ele><time>2026-05-01T13:36:27.464Z</time></trkpt><trkpt lat="42.247321" lon="14.1823282"><ele>231.99999999999997</ele><time>2026-05-01T13:36:28.462Z</time></trkpt><trkpt lat="42.2473652" lon="14.1824246"><ele>232.0</ele><time>2026-05-01T13:36:29.469Z</time></trkpt><trkpt lat="42.2473992" lon="14.182513"><ele>232.0</ele><time>2026-05-01T13:36:30.462Z</time></trkpt><trkpt lat="42.2474254" lon="14.1825995"><ele>232.0</ele><time>2026-05-01T13:36:31.473Z</time></trkpt><trkpt lat="42.2474451" lon="14.1826868"><ele>231.99999999999997</ele><time>2026-05-01T13:36:32.456Z</time></trkpt><trkpt lat="42.2474722" lon="14.1828282"><ele>232.0</ele><time>2026-05-01T13:36:34.465Z</time></trkpt><trkpt lat="42.2475787" lon="14.1829406"><ele>231.99999999999997</ele><time>2026-05-01T13:36:36.469Z</time></trkpt><trkpt lat="42.2476522" lon="14.183005"><ele>232.0</ele><time>2026-05-01T13:36:37.465Z</time></trkpt><trkpt lat="42.2477243" lon="14.1830628"><ele>232.0</ele><time>2026-05-01T13:36:38.465Z</time></trkpt><trkpt lat="42.2477918" lon="14.1831069"><ele>232.0</ele><time>2026-05-01T13:36:39.472Z</time></trkpt><trkpt lat="42.247858" lon="14.1831565"><ele>231.99999999999997</ele><time>2026-05-01T13:36:40.464Z</time></trkpt><trkpt lat="42.2479174" lon="14.1832243"><ele>232.0</ele><time>2026-05-01T13:36:41.46Z</time></trkpt><trkpt lat="42.247967" lon="14.183302"><ele>232.33333333333331</ele><time>2026-05-01T13:36:42.467Z</time></trkpt><trkpt lat="42.248008" lon="14.183389"><ele>232.66666666666666</ele><time>2026-05-01T13:36:43.457Z</time></trkpt><trkpt lat="42.2480436" lon="14.1834782"><ele>233.0</ele><time>2026-05-01T13:36:44.465Z</time></trkpt><trkpt lat="42.2480739" lon="14.1835787"><ele>233.33333333333331</ele><time>2026-05-01T13:36:45.468Z</time></trkpt><trkpt lat="42.2480993" lon="14.1836856"><ele>233.66666666666666</ele><time>2026-05-01T13:36:46.455Z</time></trkpt><trkpt lat="42.2481053" lon="14.1837846"><ele>234.0</ele><time>2026-05-01T13:36:47.454Z</time></trkpt><trkpt lat="42.2480721" lon="14.1839136"><ele>234.0</ele><time>2026-05-01T13:36:49.449Z</time></trkpt><trkpt lat="42.2480399" lon="14.1840102"><ele>233.99999999999997</ele><time>2026-05-01T13:36:51.471Z</time></trkpt><trkpt lat="42.2480012" lon="14.1841027"><ele>233.99999999999997</ele><time>2026-05-01T13:36:53.456Z</time></trkpt><trkpt lat="42.2479446" lon="14.1842369"><ele>234.0</ele><time>2026-05-01T13:36:55.454Z</time></trkpt><trkpt lat="42.2478392" lon="14.1843343"><ele>234.0</ele><time>2026-05-01T13:36:57.465Z</time></trkpt><trkpt lat="42.2477569" lon="14.1843557"><ele>233.0</ele><time>2026-05-01T13:36:59.454Z</time></trkpt><trkpt lat="42.2477416" lon="14.1844438"><ele>232.0</ele><time>2026-05-01T13:37:02.459Z</time></trkpt><trkpt lat="42.2478074" lon="14.1844088"><ele>231.0</ele><time>2026-05-01T13:37:12.46Z</time></trkpt><trkpt lat="42.2477433" lon="14.1843423"><ele>230.0</ele><time>2026-05-01T13:37:16.468Z</time></trkpt><trkpt lat="42.2476182" lon="14.1843749"><ele>229.0</ele><time>2026-05-01T13:37:18.461Z</time></trkpt><trkpt lat="42.247537" lon="14.1843778"><ele>228.0</ele><time>2026-05-01T13:37:19.453Z</time></trkpt><trkpt lat="42.2474667" lon="14.1843692"><ele>228.0</ele><time>2026-05-01T13:37:20.449Z</time></trkpt><trkpt lat="42.247366" lon="14.1843426"><ele>227.99999999999997</ele><time>2026-05-01T13:37:22.449Z</time></trkpt><trkpt lat="42.247365" lon="14.1844305"><ele>228.0</ele><time>2026-05-01T13:37:24.453Z</time></trkpt><trkpt lat="42.2473977" lon="14.1845032"><ele>228.0</ele><time>2026-05-01T13:37:25.448Z</time></trkpt><trkpt lat="42.247441" lon="14.1845738"><ele>227.99999999999997</ele><time>2026-05-01T13:37:26.459Z</time></trkpt><trkpt lat="42.2474911" lon="14.1846385"><ele>228.0</ele><time>2026-05-01T13:37:27.456Z</time></trkpt><trkpt lat="42.2475401" lon="14.1847051"><ele>228.0</ele><time>2026-05-01T13:37:28.454Z</time></trkpt><trkpt lat="42.247585" lon="14.1847814"><ele>226.83333333333334</ele><time>2026-05-01T13:37:29.449Z</time></trkpt><trkpt lat="42.2476258" lon="14.1848625"><ele>225.66666666666669</ele><time>2026-05-01T13:37:30.449Z</time></trkpt><trkpt lat="42.2476588" lon="14.1849432"><ele>224.5</ele><time>2026-05-01T13:37:31.446Z</time></trkpt><trkpt lat="42.2476873" lon="14.1850441"><ele>223.33333333333334</ele><time>2026-05-01T13:37:32.439Z</time></trkpt><trkpt lat="42.2477155" lon="14.1851657"><ele>222.16666666666669</ele><time>2026-05-01T13:37:33.442Z</time></trkpt><trkpt lat="42.2477416" lon="14.1853041"><ele>221.0</ele><time>2026-05-01T13:37:34.44Z</time></trkpt><trkpt lat="42.247767" lon="14.1854466"><ele>221.0</ele><time>2026-05-01T13:37:35.44Z</time></trkpt><trkpt lat="42.2478062" lon="14.1855816"><ele>221.00000000000003</ele><time>2026-05-01T13:37:36.44Z</time></trkpt><trkpt lat="42.2478554" lon="14.1857029"><ele>221.00000000000003</ele><time>2026-05-01T13:37:37.442Z</time></trkpt><trkpt lat="42.2479085" lon="14.1858127"><ele>221.0</ele><time>2026-05-01T13:37:38.442Z</time></trkpt><trkpt lat="42.247961" lon="14.1859262"><ele>221.0</ele><time>2026-05-01T13:37:39.442Z</time></trkpt><trkpt lat="42.2480229" lon="14.1860446"><ele>221.0</ele><time>2026-05-01T13:37:40.451Z</time></trkpt><trkpt lat="42.2480786" lon="14.1861767"><ele>221.00000000000003</ele><time>2026-05-01T13:37:41.451Z</time></trkpt><trkpt lat="42.2481374" lon="14.1862914"><ele>221.00000000000003</ele><time>2026-05-01T13:37:42.446Z</time></trkpt><trkpt lat="42.2482128" lon="14.186371"><ele>221.0</ele><time>2026-05-01T13:37:43.451Z</time></trkpt><trkpt lat="42.2483169" lon="14.1864211"><ele>221.0</ele><time>2026-05-01T13:37:44.448Z</time></trkpt><trkpt lat="42.2484377" lon="14.1864632"><ele>221.0</ele><time>2026-05-01T13:37:45.448Z</time></trkpt><trkpt lat="42.2485489" lon="14.186525"><ele>221.00000000000003</ele><time>2026-05-01T13:37:46.448Z</time></trkpt><trkpt lat="42.2486499" lon="14.1865822"><ele>221.00000000000003</ele><time>2026-05-01T13:37:47.455Z</time></trkpt><trkpt lat="42.2487398" lon="14.1866258"><ele>221.0</ele><time>2026-05-01T13:37:48.452Z</time></trkpt><trkpt lat="42.2488222" lon="14.1866644"><ele>221.0</ele><time>2026-05-01T13:37:49.455Z</time></trkpt><trkpt lat="42.2488955" lon="14.186676"><ele>221.00000000000003</ele><time>2026-05-01T13:37:50.453Z</time></trkpt><trkpt lat="42.2489771" lon="14.1866725"><ele>221.0</ele><time>2026-05-01T13:37:51.466Z</time></trkpt><trkpt lat="42.2490569" lon="14.1866651"><ele>221.0</ele><time>2026-05-01T13:37:52.459Z</time></trkpt><trkpt lat="42.2491316" lon="14.1866446"><ele>221.0</ele><time>2026-05-01T13:37:53.454Z</time></trkpt><trkpt lat="42.2492176" lon="14.1866687"><ele>221.00000000000003</ele><time>2026-05-01T13:37:55.462Z</time></trkpt><trkpt lat="42.2492114" lon="14.1868008"><ele>221.0</ele><time>2026-05-01T13:37:57.46Z</time></trkpt><trkpt lat="42.2491881" lon="14.186913"><ele>221.0</ele><time>2026-05-01T13:37:58.466Z</time></trkpt><trkpt lat="42.2491694" lon="14.1870388"><ele>221.00000000000003</ele><time>2026-05-01T13:37:59.457Z</time></trkpt><trkpt lat="42.2491538" lon="14.1871793"><ele>221.00000000000003</ele><time>2026-05-01T13:38:00.46Z</time></trkpt><trkpt lat="42.2491415" lon="14.187316"><ele>221.0</ele><time>2026-05-01T13:38:01.461Z</time></trkpt><trkpt lat="42.2491248" lon="14.1874526"><ele>221.0</ele><time>2026-05-01T13:38:02.459Z</time></trkpt><trkpt lat="42.24911" lon="14.1875703"><ele>221.14285714285717</ele><time>2026-05-01T13:38:03.462Z</time></trkpt><trkpt lat="42.2490912" lon="14.1876809"><ele>221.28571428571428</ele><time>2026-05-01T13:38:04.47Z</time></trkpt><trkpt lat="42.249079" lon="14.187782"><ele>221.42857142857144</ele><time>2026-05-01T13:38:05.467Z</time></trkpt><trkpt lat="42.2490697" lon="14.1878772"><ele>221.57142857142858</ele><time>2026-05-01T13:38:06.471Z</time></trkpt><trkpt lat="42.2490545" lon="14.1879682"><ele>221.71428571428572</ele><time>2026-05-01T13:38:07.464Z</time></trkpt><trkpt lat="42.2490375" lon="14.1880519"><ele>221.85714285714286</ele><time>2026-05-01T13:38:08.465Z</time></trkpt><trkpt lat="42.2490068" lon="14.188145"><ele>222.0</ele><time>2026-05-01T13:38:09.454Z</time></trkpt><trkpt lat="42.2489639" lon="14.1882448"><ele>222.0</ele><time>2026-05-01T13:38:10.458Z</time></trkpt><trkpt lat="42.2489411" lon="14.1883413"><ele>222.0</ele><time>2026-05-01T13:38:11.453Z</time></trkpt><trkpt lat="42.2489456" lon="14.188439"><ele>222.0</ele><time>2026-05-01T13:38:12.464Z</time></trkpt><trkpt lat="42.2489849" lon="14.1885178"><ele>222.0</ele><time>2026-05-01T13:38:13.455Z</time></trkpt><trkpt lat="42.2490489" lon="14.1885765"><ele>222.0</ele><time>2026-05-01T13:38:14.451Z</time></trkpt><trkpt lat="42.249131" lon="14.1886144"><ele>222.0</ele><time>2026-05-01T13:38:15.459Z</time></trkpt><trkpt lat="42.2492343" lon="14.1886343"><ele>222.0</ele><time>2026-05-01T13:38:16.455Z</time></trkpt><trkpt lat="42.2493442" lon="14.1886472"><ele>222.0</ele><time>2026-05-01T13:38:17.457Z</time></trkpt><trkpt lat="42.2494632" lon="14.1886605"><ele>222.0</ele><time>2026-05-01T13:38:18.481Z</time></trkpt><trkpt lat="42.2495773" lon="14.1886866"><ele>222.0</ele><time>2026-05-01T13:38:19.468Z</time></trkpt><trkpt lat="42.2497" lon="14.1887297"><ele>221.5</ele><time>2026-05-01T13:38:20.467Z</time></trkpt><trkpt lat="42.2498235" lon="14.1887894"><ele>221.0</ele><time>2026-05-01T13:38:21.474Z</time></trkpt><trkpt lat="42.2499494" lon="14.1888623"><ele>220.5</ele><time>2026-05-01T13:38:22.462Z</time></trkpt><trkpt lat="42.250072" lon="14.1889579"><ele>220.0</ele><time>2026-05-01T13:38:23.463Z</time></trkpt><trkpt lat="42.2501966" lon="14.189089"><ele>221.75</ele><time>2026-05-01T13:38:24.464Z</time></trkpt><trkpt lat="42.2503049" lon="14.1891915"><ele>223.5</ele><time>2026-05-01T13:38:25.465Z</time></trkpt><trkpt lat="42.2504093" lon="14.1892616"><ele>225.25</ele><time>2026-05-01T13:38:26.462Z</time></trkpt><trkpt lat="42.2505043" lon="14.1893288"><ele>227.0</ele><time>2026-05-01T13:38:27.461Z</time></trkpt><trkpt lat="42.2506132" lon="14.1893743"><ele>226.5</ele><time>2026-05-01T13:38:28.464Z</time></trkpt><trkpt lat="42.2507473" lon="14.1893571"><ele>226.0</ele><time>2026-05-01T13:38:29.459Z</time></trkpt><trkpt lat="42.2508832" lon="14.1893057"><ele>225.5</ele><time>2026-05-01T13:38:30.464Z</time></trkpt><trkpt lat="42.2510097" lon="14.189237"><ele>225.0</ele><time>2026-05-01T13:38:31.467Z</time></trkpt><trkpt lat="42.2511256" lon="14.1891469"><ele>225.0</ele><time>2026-05-01T13:38:32.462Z</time></trkpt><trkpt lat="42.2512421" lon="14.1890348"><ele>225.0</ele><time>2026-05-01T13:38:33.465Z</time></trkpt><trkpt lat="42.2513449" lon="14.1889327"><ele>225.0</ele><time>2026-05-01T13:38:34.456Z</time></trkpt><trkpt lat="42.2514348" lon="14.1888493"><ele>225.0</ele><time>2026-05-01T13:38:35.464Z</time></trkpt><trkpt lat="42.2515343" lon="14.1887651"><ele>224.8</ele><time>2026-05-01T13:38:36.462Z</time></trkpt><trkpt lat="42.25161" lon="14.1887012"><ele>224.6</ele><time>2026-05-01T13:38:37.458Z</time></trkpt><trkpt lat="42.2516841" lon="14.1886548"><ele>224.39999999999998</ele><time>2026-05-01T13:38:38.454Z</time></trkpt><trkpt lat="42.2517866" lon="14.188625"><ele>224.2</ele><time>2026-05-01T13:38:40.458Z</time></trkpt><trkpt lat="42.2518747" lon="14.1886003"><ele>224.0</ele><time>2026-05-01T13:38:42.462Z</time></trkpt><trkpt lat="42.2519645" lon="14.1885845"><ele>224.00000000000003</ele><time>2026-05-01T13:38:47.463Z</time></trkpt><trkpt lat="42.2519007" lon="14.1885091"><ele>224.0</ele><time>2026-05-01T13:38:53.466Z</time></trkpt><trkpt lat="42.2518186" lon="14.1885167"><ele>224.0</ele><time>2026-05-01T13:38:55.467Z</time></trkpt><trkpt lat="42.2517512" lon="14.1884807"><ele>224.0</ele><time>2026-05-01T13:38:57.47Z</time></trkpt><trkpt lat="42.2517258" lon="14.1883559"><ele>224.00000000000003</ele><time>2026-05-01T13:38:59.466Z</time></trkpt><trkpt lat="42.2517355" lon="14.1882596"><ele>224.0</ele><time>2026-05-01T13:39:00.469Z</time></trkpt><trkpt lat="42.2517492" lon="14.1881551"><ele>223.39999999999998</ele><time>2026-05-01T13:39:01.473Z</time></trkpt><trkpt lat="42.2517852" lon="14.1880523"><ele>222.79999999999998</ele><time>2026-05-01T13:39:02.467Z</time></trkpt><trkpt lat="42.2518414" lon="14.1879428"><ele>222.20000000000002</ele><time>2026-05-01T13:39:03.458Z</time></trkpt><trkpt lat="42.2518981" lon="14.1878428"><ele>221.60000000000002</ele><time>2026-05-01T13:39:04.46Z</time></trkpt><trkpt lat="42.2519689" lon="14.1877672"><ele>221.0</ele><time>2026-05-01T13:39:05.458Z</time></trkpt><trkpt lat="42.2520365" lon="14.1877004"><ele>221.0</ele><time>2026-05-01T13:39:06.468Z</time></trkpt><trkpt lat="42.2520889" lon="14.1876354"><ele>221.00000000000003</ele><time>2026-05-01T13:39:07.452Z</time></trkpt><trkpt lat="42.2521592" lon="14.1875116"><ele>221.00000000000003</ele><time>2026-05-01T13:39:09.462Z</time></trkpt><trkpt lat="42.2522095" lon="14.1873808"><ele>221.0</ele><time>2026-05-01T13:39:11.464Z</time></trkpt><trkpt lat="42.2522372" lon="14.1872259"><ele>221.0</ele><time>2026-05-01T13:39:13.473Z</time></trkpt><trkpt lat="42.2522628" lon="14.1871025"><ele>220.33333333333334</ele><time>2026-05-01T13:39:15.478Z</time></trkpt><trkpt lat="42.2522821" lon="14.1870089"><ele>219.66666666666669</ele><time>2026-05-01T13:39:18.48Z</time></trkpt><trkpt lat="42.2522433" lon="14.1869059"><ele>219.0</ele><time>2026-05-01T13:39:21.484Z</time></trkpt><trkpt lat="42.2521713" lon="14.1868499"><ele>218.33333333333331</ele><time>2026-05-01T13:39:23.472Z</time></trkpt><trkpt lat="42.252139" lon="14.186774"><ele>217.66666666666666</ele><time>2026-05-01T13:39:25.472Z</time></trkpt><trkpt lat="42.2521554" lon="14.1866802"><ele>217.0</ele><time>2026-05-01T13:39:28.473Z</time></trkpt><trkpt lat="42.2521303" lon="14.1865633"><ele>216.49999999999997</ele><time>2026-05-01T13:39:33.463Z</time></trkpt><trkpt lat="42.2521545" lon="14.1864555"><ele>216.0</ele><time>2026-05-01T13:39:35.468Z</time></trkpt><trkpt lat="42.2522161" lon="14.1863161"><ele>215.5</ele><time>2026-05-01T13:39:37.469Z</time></trkpt><trkpt lat="42.2522587" lon="14.1862068"><ele>215.0</ele><time>2026-05-01T13:39:39.47Z</time></trkpt><trkpt lat="42.2522496" lon="14.186095"><ele>214.49999999999997</ele><time>2026-05-01T13:39:42.462Z</time></trkpt><trkpt lat="42.252209" lon="14.1860175"><ele>214.0</ele><time>2026-05-01T13:39:50.465Z</time></trkpt><trkpt lat="42.252129" lon="14.1859756"><ele>213.99999999999997</ele><time>2026-05-01T13:40:05.468Z</time></trkpt><trkpt lat="42.2521672" lon="14.1860439"><ele>214.0</ele><time>2026-05-01T13:40:09.454Z</time></trkpt><trkpt lat="42.2522224" lon="14.1861346"><ele>214.0</ele><time>2026-05-01T13:40:11.465Z</time></trkpt><trkpt lat="42.2521827" lon="14.1862596"><ele>214.0</ele><time>2026-05-01T13:40:13.454Z</time></trkpt><trkpt lat="42.2521376" lon="14.1863269"><ele>213.99999999999997</ele><time>2026-05-01T13:40:14.464Z</time></trkpt><trkpt lat="42.2520852" lon="14.1864014"><ele>214.0</ele><time>2026-05-01T13:40:15.46Z</time></trkpt><trkpt lat="42.2520497" lon="14.186483"><ele>214.49999999999997</ele><time>2026-05-01T13:40:16.45Z</time></trkpt><trkpt lat="42.2520373" lon="14.1866114"><ele>215.0</ele><time>2026-05-01T13:40:18.454Z</time></trkpt><trkpt lat="42.2520774" lon="14.1867082"><ele>215.5</ele><time>2026-05-01T13:40:20.463Z</time></trkpt><trkpt lat="42.252041" lon="14.1868318"><ele>216.0</ele><time>2026-05-01T13:40:24.456Z</time></trkpt><trkpt lat="42.2520755" lon="14.1869278"><ele>216.49999999999997</ele><time>2026-05-01T13:40:26.461Z</time></trkpt><trkpt lat="42.2521255" lon="14.1869833"><ele>217.0</ele><time>2026-05-01T13:40:27.459Z</time></trkpt><trkpt lat="42.2522208" lon="14.187071"><ele>217.6</ele><time>2026-05-01T13:40:29.457Z</time></trkpt><trkpt lat="42.2523057" lon="14.1870744"><ele>218.2</ele><time>2026-05-01T13:40:32.459Z</time></trkpt><trkpt lat="42.2523895" lon="14.1870908"><ele>218.8</ele><time>2026-05-01T13:40:43.466Z</time></trkpt><trkpt lat="42.252449" lon="14.1871229"><ele>219.4</ele><time>2026-05-01T13:40:45.453Z</time></trkpt><trkpt lat="42.2525424" lon="14.1872095"><ele>220.0</ele><time>2026-05-01T13:40:47.46Z</time></trkpt><trkpt lat="42.2526151" lon="14.1873234"><ele>219.99999999999997</ele><time>2026-05-01T13:40:49.457Z</time></trkpt><trkpt lat="42.2526522" lon="14.1873925"><ele>220.0</ele><time>2026-05-01T13:40:51.473Z</time></trkpt><trkpt lat="42.2527056" lon="14.1874584"><ele>220.0</ele><time>2026-05-01T13:40:57.462Z</time></trkpt><trkpt lat="42.2525907" lon="14.1873987"><ele>220.0</ele><time>2026-05-01T13:41:01.462Z</time></trkpt><trkpt lat="42.2525328" lon="14.1873304"><ele>219.99999999999997</ele><time>2026-05-01T13:41:02.476Z</time></trkpt><trkpt lat="42.2524769" lon="14.1872643"><ele>220.0</ele><time>2026-05-01T13:41:03.458Z</time></trkpt><trkpt lat="42.2524237" lon="14.1872128"><ele>220.0</ele><time>2026-05-01T13:41:04.461Z</time></trkpt><trkpt lat="42.2523344" lon="14.1871446"><ele>220.0</ele><time>2026-05-01T13:41:06.456Z</time></trkpt><trkpt lat="42.2523117" lon="14.1870443"><ele>220.0</ele><time>2026-05-01T13:41:19.454Z</time></trkpt><trkpt lat="42.252365" lon="14.1869081"><ele>220.0</ele><time>2026-05-01T13:41:21.467Z</time></trkpt><trkpt lat="42.2524208" lon="14.1868287"><ele>220.0</ele><time>2026-05-01T13:41:22.46Z</time></trkpt><trkpt lat="42.2524748" lon="14.186747"><ele>219.99999999999997</ele><time>2026-05-01T13:41:23.467Z</time></trkpt><trkpt lat="42.2525229" lon="14.1866667"><ele>220.0</ele><time>2026-05-01T13:41:24.468Z</time></trkpt><trkpt lat="42.2525685" lon="14.1865671"><ele>220.0</ele><time>2026-05-01T13:41:25.462Z</time></trkpt><trkpt lat="42.2526138" lon="14.1864605"><ele>220.0</ele><time>2026-05-01T13:41:26.463Z</time></trkpt><trkpt lat="42.2526607" lon="14.1863604"><ele>219.99999999999997</ele><time>2026-05-01T13:41:27.467Z</time></trkpt><trkpt lat="42.2527018" lon="14.1862713"><ele>220.0</ele><time>2026-05-01T13:41:28.462Z</time></trkpt><trkpt lat="42.25274" lon="14.1861909"><ele>218.8</ele><time>2026-05-01T13:41:29.461Z</time></trkpt><trkpt lat="42.2527777" lon="14.1861163"><ele>217.6</ele><time>2026-05-01T13:41:30.468Z</time></trkpt><trkpt lat="42.2528561" lon="14.1859929"><ele>216.39999999999998</ele><time>2026-05-01T13:41:32.459Z</time></trkpt><trkpt lat="42.2529138" lon="14.1858756"><ele>215.2</ele><time>2026-05-01T13:41:34.464Z</time></trkpt><trkpt lat="42.2529704" lon="14.1857624"><ele>214.0</ele><time>2026-05-01T13:41:36.464Z</time></trkpt><trkpt lat="42.2530148" lon="14.185651"><ele>213.16666666666666</ele><time>2026-05-01T13:41:38.466Z</time></trkpt><trkpt lat="42.2530545" lon="14.1855498"><ele>212.33333333333331</ele><time>2026-05-01T13:41:40.463Z</time></trkpt><trkpt lat="42.2530776" lon="14.1854658"><ele>211.5</ele><time>2026-05-01T13:41:42.464Z</time></trkpt><trkpt lat="42.2531398" lon="14.1854796"><ele>210.66666666666669</ele><time>2026-05-01T13:41:46.453Z</time></trkpt><trkpt lat="42.2532214" lon="14.1855394"><ele>209.83333333333334</ele><time>2026-05-01T13:41:49.449Z</time></trkpt><trkpt lat="42.2532782" lon="14.1855817"><ele>209.0</ele><time>2026-05-01T13:41:50.458Z</time></trkpt><trkpt lat="42.2533953" lon="14.1856563"><ele>210.00000000000003</ele><time>2026-05-01T13:41:52.45Z</time></trkpt><trkpt lat="42.2534587" lon="14.1856964"><ele>211.0</ele><time>2026-05-01T13:41:53.463Z</time></trkpt><trkpt lat="42.2535234" lon="14.1857363"><ele>212.0</ele><time>2026-05-01T13:41:54.458Z</time></trkpt><trkpt lat="42.2536241" lon="14.1858145"><ele>213.0</ele><time>2026-05-01T13:41:56.457Z</time></trkpt><trkpt lat="42.253689" lon="14.1858799"><ele>214.00000000000003</ele><time>2026-05-01T13:41:58.454Z</time></trkpt><trkpt lat="42.2537453" lon="14.1859213"><ele>215.0</ele><time>2026-05-01T13:42:07.458Z</time></trkpt><trkpt lat="42.2537613" lon="14.1860181"><ele>215.0</ele><time>2026-05-01T13:42:10.465Z</time></trkpt><trkpt lat="42.2537666" lon="14.1861261"><ele>215.0</ele><time>2026-05-01T13:42:12.466Z</time></trkpt><trkpt lat="42.2537702" lon="14.1862581"><ele>215.0</ele><time>2026-05-01T13:42:14.464Z</time></trkpt><trkpt lat="42.2537575" lon="14.1863988"><ele>215.0</ele><time>2026-05-01T13:42:16.461Z</time></trkpt><trkpt lat="42.2537441" lon="14.1865339"><ele>215.0</ele><time>2026-05-01T13:42:18.46Z</time></trkpt><trkpt lat="42.2537071" lon="14.1866133"><ele>215.00000000000003</ele><time>2026-05-01T13:42:54.468Z</time></trkpt><trkpt lat="42.2537026" lon="14.1865245"><ele>215.0</ele><time>2026-05-01T13:42:58.462Z</time></trkpt><trkpt lat="42.253772" lon="14.186438"><ele>215.0</ele><time>2026-05-01T13:43:01.462Z</time></trkpt><trkpt lat="42.2538695" lon="14.186407"><ele>215.0</ele><time>2026-05-01T13:43:03.467Z</time></trkpt><trkpt lat="42.2539369" lon="14.1864155"><ele>215.00000000000003</ele><time>2026-05-01T13:43:10.459Z</time></trkpt><trkpt lat="42.2539946" lon="14.1864572"><ele>215.0</ele><time>2026-05-01T13:43:13.47Z</time></trkpt><trkpt lat="42.2540685" lon="14.1864826"><ele>213.50000000000003</ele><time>2026-05-01T13:43:16.466Z</time></trkpt><trkpt lat="42.2541244" lon="14.1864116"><ele>212.0</ele><time>2026-05-01T13:43:22.465Z</time></trkpt><trkpt lat="42.2541099" lon="14.1862921"><ele>210.5</ele><time>2026-05-01T13:43:26.456Z</time></trkpt><trkpt lat="42.2541714" lon="14.1861897"><ele>209.0</ele><time>2026-05-01T13:43:28.46Z</time></trkpt><trkpt lat="42.2542472" lon="14.1861121"><ele>207.50000000000003</ele><time>2026-05-01T13:43:30.461Z</time></trkpt><trkpt lat="42.2543137" lon="14.1860824"><ele>206.0</ele><time>2026-05-01T13:43:32.456Z</time></trkpt><trkpt lat="42.254422" lon="14.1861596"><ele>206.00000000000003</ele><time>2026-05-01T13:43:34.456Z</time></trkpt><trkpt lat="42.2544865" lon="14.186228"><ele>206.0</ele><time>2026-05-01T13:43:35.469Z</time></trkpt><trkpt lat="42.2545643" lon="14.1862827"><ele>206.0</ele><time>2026-05-01T13:43:36.459Z</time></trkpt><trkpt lat="42.2546387" lon="14.1863261"><ele>206.0</ele><time>2026-05-01T13:43:37.465Z</time></trkpt><trkpt lat="42.2547074" lon="14.1863721"><ele>206.00000000000003</ele><time>2026-05-01T13:43:38.46Z</time></trkpt><trkpt lat="42.2547756" lon="14.1864183"><ele>206.0</ele><time>2026-05-01T13:43:39.461Z</time></trkpt><trkpt lat="42.2548346" lon="14.1864665"><ele>205.66666666666669</ele><time>2026-05-01T13:43:40.456Z</time></trkpt><trkpt lat="42.2548831" lon="14.1865228"><ele>205.33333333333334</ele><time>2026-05-01T13:43:42.46Z</time></trkpt><trkpt lat="42.2549383" lon="14.1865765"><ele>205.0</ele><time>2026-05-01T13:43:46.464Z</time></trkpt><trkpt lat="42.2550186" lon="14.1866118"><ele>204.66666666666669</ele><time>2026-05-01T13:45:04.444Z</time></trkpt><trkpt lat="42.2550942" lon="14.1866326"><ele>204.33333333333334</ele><time>2026-05-01T13:45:07.444Z</time></trkpt><trkpt lat="42.2552139" lon="14.1866342"><ele>204.0</ele><time>2026-05-01T13:48:35.453Z</time></trkpt><trkpt lat="42.255281" lon="14.1866833"><ele>204.0</ele><time>2026-05-01T13:48:40.45Z</time></trkpt><trkpt lat="42.2553515" lon="14.1866314"><ele>204.0</ele><time>2026-05-01T13:48:46.461Z</time></trkpt><trkpt lat="42.2554352" lon="14.1865844"><ele>204.0</ele><time>2026-05-01T13:48:52.446Z</time></trkpt><trkpt lat="42.255518" lon="14.1865377"><ele>204.0</ele><time>2026-05-01T13:48:55.454Z</time></trkpt><trkpt lat="42.2555826" lon="14.1864935"><ele>204.0</ele><time>2026-05-01T13:48:58.453Z</time></trkpt><trkpt lat="42.2556471" lon="14.1864309"><ele>204.0</ele><time>2026-05-01T13:49:06.453Z</time></trkpt><trkpt lat="42.2557089" lon="14.1863902"><ele>204.14285714285714</ele><time>2026-05-01T13:49:08.451Z</time></trkpt><trkpt lat="42.2557549" lon="14.1863251"><ele>204.28571428571428</ele><time>2026-05-01T13:49:11.449Z</time></trkpt><trkpt lat="42.2557842" lon="14.18624"><ele>204.42857142857144</ele><time>2026-05-01T13:49:14.455Z</time></trkpt><trkpt lat="42.2558202" lon="14.1861332"><ele>204.57142857142856</ele><time>2026-05-01T13:49:17.458Z</time></trkpt><trkpt lat="42.2558323" lon="14.1860427"><ele>204.7142857142857</ele><time>2026-05-01T13:49:22.463Z</time></trkpt><trkpt lat="42.2558802" lon="14.1859811"><ele>204.85714285714286</ele><time>2026-05-01T13:58:25.486Z</time></trkpt><trkpt lat="42.2559273" lon="14.1858944"><ele>205.0</ele><time>2026-05-01T13:58:30.484Z</time></trkpt><trkpt lat="42.2559767" lon="14.1858086"><ele>204.99999999999997</ele><time>2026-05-01T13:58:37.469Z</time></trkpt><trkpt lat="42.2560303" lon="14.1857509"><ele>205.0</ele><time>2026-05-01T13:58:40.476Z</time></trkpt><trkpt lat="42.2560962" lon="14.1856865"><ele>205.0</ele><time>2026-05-01T13:58:48.488Z</time></trkpt><trkpt lat="42.2561471" lon="14.1855968"><ele>205.0</ele><time>2026-05-01T13:58:50.485Z</time></trkpt><trkpt lat="42.2562225" lon="14.1854409"><ele>204.99999999999997</ele><time>2026-05-01T13:58:52.473Z</time></trkpt><trkpt lat="42.2562586" lon="14.1853634"><ele>205.0</ele><time>2026-05-01T13:58:53.478Z</time></trkpt><trkpt lat="42.2563098" lon="14.1852318"><ele>205.85714285714286</ele><time>2026-05-01T13:58:55.49Z</time></trkpt><trkpt lat="42.2563667" lon="14.1851603"><ele>206.7142857142857</ele><time>2026-05-01T13:58:57.474Z</time></trkpt><trkpt lat="42.2564348" lon="14.1851555"><ele>207.57142857142856</ele><time>2026-05-01T13:59:00.488Z</time></trkpt><trkpt lat="42.2565043" lon="14.1851395"><ele>208.42857142857144</ele><time>2026-05-01T13:59:02.476Z</time></trkpt><trkpt lat="42.2565757" lon="14.1851631"><ele>209.28571428571428</ele><time>2026-05-01T14:16:02.479Z</time></trkpt><trkpt lat="42.2566454" lon="14.185162"><ele>210.14285714285714</ele><time>2026-05-01T14:16:05.47Z</time></trkpt><trkpt lat="42.2566885" lon="14.1850813"><ele>211.0</ele><time>2026-05-01T14:16:08.477Z</time></trkpt><trkpt lat="42.2567569" lon="14.1849704"><ele>212.66666666666666</ele><time>2026-05-01T14:16:10.468Z</time></trkpt><trkpt lat="42.2568094" lon="14.184903"><ele>214.33333333333331</ele><time>2026-05-01T14:16:11.466Z</time></trkpt><trkpt lat="42.2568666" lon="14.184831"><ele>216.0</ele><time>2026-05-01T14:16:12.472Z</time></trkpt><trkpt lat="42.2569234" lon="14.1847634"><ele>217.66666666666669</ele><time>2026-05-01T14:16:13.48Z</time></trkpt><trkpt lat="42.2569912" lon="14.1846918"><ele>219.33333333333334</ele><time>2026-05-01T14:16:14.47Z</time></trkpt><trkpt lat="42.2570733" lon="14.184636"><ele>221.0</ele><time>2026-05-01T14:16:15.477Z</time></trkpt><trkpt lat="42.2571475" lon="14.1845741"><ele>222.00000000000003</ele><time>2026-05-01T14:16:16.476Z</time></trkpt><trkpt lat="42.2572114" lon="14.1845203"><ele>223.0</ele><time>2026-05-01T14:16:17.467Z</time></trkpt><trkpt lat="42.2572888" lon="14.1844545"><ele>224.0</ele><time>2026-05-01T14:16:18.473Z</time></trkpt><trkpt lat="42.2573712" lon="14.1843842"><ele>225.0</ele><time>2026-05-01T14:16:19.469Z</time></trkpt><trkpt lat="42.2574479" lon="14.1843234"><ele>226.00000000000003</ele><time>2026-05-01T14:16:20.477Z</time></trkpt><trkpt lat="42.2575171" lon="14.1842507"><ele>227.0</ele><time>2026-05-01T14:16:21.475Z</time></trkpt><trkpt lat="42.2575722" lon="14.1841861"><ele>227.39999999999998</ele><time>2026-05-01T14:16:22.476Z</time></trkpt><trkpt lat="42.2576294" lon="14.184064"><ele>227.79999999999998</ele><time>2026-05-01T14:16:24.473Z</time></trkpt><trkpt lat="42.257667" lon="14.1838949"><ele>228.2</ele><time>2026-05-01T14:16:26.469Z</time></trkpt><trkpt lat="42.2576709" lon="14.1837838"><ele>228.6</ele><time>2026-05-01T14:16:27.479Z</time></trkpt><trkpt lat="42.2576607" lon="14.1836651"><ele>229.0</ele><time>2026-05-01T14:16:28.471Z</time></trkpt><trkpt lat="42.2576405" lon="14.1835389"><ele>229.99999999999997</ele><time>2026-05-01T14:16:29.471Z</time></trkpt><trkpt lat="42.2576191" lon="14.1834234"><ele>231.0</ele><time>2026-05-01T14:16:30.472Z</time></trkpt><trkpt lat="42.2576013" lon="14.1833345"><ele>232.0</ele><time>2026-05-01T14:16:31.483Z</time></trkpt><trkpt lat="42.2575792" lon="14.1832436"><ele>233.0</ele><time>2026-05-01T14:16:32.466Z</time></trkpt><trkpt lat="42.2575569" lon="14.1831227"><ele>233.99999999999997</ele><time>2026-05-01T14:16:33.48Z</time></trkpt><trkpt lat="42.2575423" lon="14.1830082"><ele>235.0</ele><time>2026-05-01T14:16:34.471Z</time></trkpt><trkpt lat="42.2575182" lon="14.1829134"><ele>237.2</ele><time>2026-05-01T14:16:35.468Z</time></trkpt><trkpt lat="42.2574564" lon="14.1827933"><ele>239.4</ele><time>2026-05-01T14:16:37.467Z</time></trkpt><trkpt lat="42.2573479" lon="14.1827241"><ele>241.60000000000002</ele><time>2026-05-01T14:16:39.479Z</time></trkpt><trkpt lat="42.2572788" lon="14.1826954"><ele>243.8</ele><time>2026-05-01T14:16:40.469Z</time></trkpt><trkpt lat="42.2572093" lon="14.1826777"><ele>246.0</ele><time>2026-05-01T14:16:41.476Z</time></trkpt><trkpt lat="42.2571069" lon="14.1826369"><ele>246.33333333333334</ele><time>2026-05-01T14:16:43.48Z</time></trkpt><trkpt lat="42.2570616" lon="14.182561"><ele>246.66666666666669</ele><time>2026-05-01T14:16:45.47Z</time></trkpt><trkpt lat="42.2570855" lon="14.1824264"><ele>247.0</ele><time>2026-05-01T14:16:47.466Z</time></trkpt><trkpt lat="42.2571058" lon="14.1823206"><ele>247.33333333333334</ele><time>2026-05-01T14:16:48.473Z</time></trkpt><trkpt lat="42.2571303" lon="14.182187"><ele>247.66666666666669</ele><time>2026-05-01T14:16:50.478Z</time></trkpt><trkpt lat="42.257179" lon="14.1821056"><ele>248.0</ele><time>2026-05-01T14:16:52.461Z</time></trkpt><trkpt lat="42.2572388" lon="14.1820411"><ele>249.4</ele><time>2026-05-01T14:16:53.464Z</time></trkpt><trkpt lat="42.2573087" lon="14.1819355"><ele>250.8</ele><time>2026-05-01T14:16:54.472Z</time></trkpt><trkpt lat="42.2573789" lon="14.181823"><ele>252.2</ele><time>2026-05-01T14:16:55.46Z</time></trkpt><trkpt lat="42.2574214" lon="14.1817085"><ele>253.6</ele><time>2026-05-01T14:16:56.463Z</time></trkpt><trkpt lat="42.2574646" lon="14.1815662"><ele>255.0</ele><time>2026-05-01T14:16:57.465Z</time></trkpt><trkpt lat="42.2575086" lon="14.1814284"><ele>256.5</ele><time>2026-05-01T14:16:58.465Z</time></trkpt><trkpt lat="42.2575364" lon="14.1813087"><ele>258.0</ele><time>2026-05-01T14:16:59.457Z</time></trkpt><trkpt lat="42.2575676" lon="14.1812039"><ele>259.5</ele><time>2026-05-01T14:17:00.472Z</time></trkpt><trkpt lat="42.2576417" lon="14.1810671"><ele>261.0</ele><time>2026-05-01T14:17:02.469Z</time></trkpt><trkpt lat="42.2576798" lon="14.1809964"><ele>262.5</ele><time>2026-05-01T14:17:03.463Z</time></trkpt><trkpt lat="42.2577221" lon="14.1809186"><ele>264.0</ele><time>2026-05-01T14:17:04.469Z</time></trkpt><trkpt lat="42.2577638" lon="14.1808467"><ele>264.0</ele><time>2026-05-01T14:17:05.475Z</time></trkpt><trkpt lat="42.2578428" lon="14.1807231"><ele>264.0</ele><time>2026-05-01T14:17:07.473Z</time></trkpt><trkpt lat="42.2578836" lon="14.1806437"><ele>264.0</ele><time>2026-05-01T14:17:08.463Z</time></trkpt><trkpt lat="42.2579206" lon="14.1805412"><ele>264.0</ele><time>2026-05-01T14:17:09.468Z</time></trkpt><trkpt lat="42.2579446" lon="14.180433"><ele>264.0</ele><time>2026-05-01T14:17:10.469Z</time></trkpt><trkpt lat="42.2579555" lon="14.1803196"><ele>264.0</ele><time>2026-05-01T14:17:11.474Z</time></trkpt><trkpt lat="42.2579659" lon="14.1801949"><ele>266.59999999999997</ele><time>2026-05-01T14:17:12.468Z</time></trkpt><trkpt lat="42.2579733" lon="14.1800679"><ele>269.2</ele><time>2026-05-01T14:17:13.472Z</time></trkpt><trkpt lat="42.2579775" lon="14.1799321"><ele>271.79999999999995</ele><time>2026-05-01T14:17:14.466Z</time></trkpt><trkpt lat="42.2579816" lon="14.1797974"><ele>274.4</ele><time>2026-05-01T14:17:15.473Z</time></trkpt><trkpt lat="42.2579906" lon="14.1796626"><ele>277.0</ele><time>2026-05-01T14:17:16.465Z</time></trkpt><trkpt lat="42.2579937" lon="14.1795337"><ele>278.8333333333333</ele><time>2026-05-01T14:17:17.473Z</time></trkpt><trkpt lat="42.257989" lon="14.1794186"><ele>280.66666666666663</ele><time>2026-05-01T14:17:18.468Z</time></trkpt><trkpt lat="42.2579879" lon="14.1793294"><ele>282.5</ele><time>2026-05-01T14:17:19.478Z</time></trkpt><trkpt lat="42.2579831" lon="14.1792406"><ele>284.3333333333333</ele><time>2026-05-01T14:17:20.465Z</time></trkpt><trkpt lat="42.2580123" lon="14.1790744"><ele>286.1666666666667</ele><time>2026-05-01T14:17:22.468Z</time></trkpt><trkpt lat="42.2580367" lon="14.1789779"><ele>288.0</ele><time>2026-05-01T14:17:23.479Z</time></trkpt><trkpt lat="42.2580454" lon="14.1788731"><ele>289.6666666666667</ele><time>2026-05-01T14:17:24.469Z</time></trkpt><trkpt lat="42.2580618" lon="14.1787681"><ele>291.3333333333333</ele><time>2026-05-01T14:17:25.469Z</time></trkpt><trkpt lat="42.258091" lon="14.1786783"><ele>293.0</ele><time>2026-05-01T14:17:26.465Z</time></trkpt><trkpt lat="42.2581532" lon="14.1785507"><ele>294.66666666666663</ele><time>2026-05-01T14:17:28.474Z</time></trkpt><trkpt lat="42.2581626" lon="14.1784634"><ele>296.3333333333333</ele><time>2026-05-01T14:17:29.471Z</time></trkpt><trkpt lat="42.2581658" lon="14.1783396"><ele>298.0</ele><time>2026-05-01T14:17:30.471Z</time></trkpt><trkpt lat="42.2581771" lon="14.1782225"><ele>299.16666666666663</ele><time>2026-05-01T14:17:31.478Z</time></trkpt><trkpt lat="42.258193" lon="14.1781211"><ele>300.3333333333333</ele><time>2026-05-01T14:17:32.462Z</time></trkpt><trkpt lat="42.2582008" lon="14.1779842"><ele>301.5</ele><time>2026-05-01T14:17:36.479Z</time></trkpt><trkpt lat="42.2581905" lon="14.1778534"><ele>302.6666666666667</ele><time>2026-05-01T14:17:38.473Z</time></trkpt><trkpt lat="42.2581534" lon="14.1777567"><ele>303.83333333333337</ele><time>2026-05-01T14:17:40.47Z</time></trkpt><trkpt lat="42.2580963" lon="14.1777181"><ele>305.0</ele><time>2026-05-01T14:17:41.463Z</time></trkpt><trkpt lat="42.2580341" lon="14.1776938"><ele>305.0</ele><time>2026-05-01T14:17:42.477Z</time></trkpt><trkpt lat="42.2579333" lon="14.1776376"><ele>305.0</ele><time>2026-05-01T14:17:44.47Z</time></trkpt><trkpt lat="42.2578187" lon="14.1776074"><ele>305.0</ele><time>2026-05-01T14:17:46.462Z</time></trkpt><trkpt lat="42.2577372" lon="14.1776349"><ele>305.0</ele><time>2026-05-01T14:17:47.465Z</time></trkpt><trkpt lat="42.2576677" lon="14.1776516"><ele>305.0</ele><time>2026-05-01T14:17:48.466Z</time></trkpt><trkpt lat="42.2576032" lon="14.1776607"><ele>305.0</ele><time>2026-05-01T14:17:49.466Z</time></trkpt><trkpt lat="42.2575376" lon="14.1776308"><ele>305.0</ele><time>2026-05-01T14:17:50.465Z</time></trkpt><trkpt lat="42.2574147" lon="14.1776747"><ele>305.0</ele><time>2026-05-01T14:17:52.465Z</time></trkpt><trkpt lat="42.2573329" lon="14.17772"><ele>305.0</ele><time>2026-05-01T14:17:53.473Z</time></trkpt><trkpt lat="42.2572554" lon="14.1777584"><ele>305.0</ele><time>2026-05-01T14:17:54.464Z</time></trkpt><trkpt lat="42.2571959" lon="14.1778047"><ele>305.0</ele><time>2026-05-01T14:17:55.471Z</time></trkpt><trkpt lat="42.2571239" lon="14.177913"><ele>307.2</ele><time>2026-05-01T14:17:57.465Z</time></trkpt><trkpt lat="42.2570489" lon="14.1779161"><ele>309.4</ele><time>2026-05-01T14:17:59.469Z</time></trkpt><trkpt lat="42.2570462" lon="14.1778141"><ele>311.6</ele><time>2026-05-01T14:18:01.467Z</time></trkpt><trkpt lat="42.2571013" lon="14.1776168"><ele>313.8</ele><time>2026-05-01T14:18:03.466Z</time></trkpt><trkpt lat="42.2571325" lon="14.1775138"><ele>316.0</ele><time>2026-05-01T14:18:04.466Z</time></trkpt><trkpt lat="42.2571652" lon="14.1774196"><ele>315.8</ele><time>2026-05-01T14:18:05.468Z</time></trkpt><trkpt lat="42.2572175" lon="14.1773096"><ele>315.6</ele><time>2026-05-01T14:18:06.464Z</time></trkpt><trkpt lat="42.2572853" lon="14.1771885"><ele>315.4</ele><time>2026-05-01T14:18:07.475Z</time></trkpt><trkpt lat="42.257351" lon="14.1770837"><ele>315.2</ele><time>2026-05-01T14:18:08.462Z</time></trkpt><trkpt lat="42.2574097" lon="14.1769884"><ele>315.0</ele><time>2026-05-01T14:18:09.465Z</time></trkpt><trkpt lat="42.2574551" lon="14.1768826"><ele>315.0</ele><time>2026-05-01T14:18:10.468Z</time></trkpt><trkpt lat="42.2574992" lon="14.1767689"><ele>315.0</ele><time>2026-05-01T14:18:11.464Z</time></trkpt><trkpt lat="42.2575362" lon="14.176645"><ele>315.0</ele><time>2026-05-01T14:18:12.47Z</time></trkpt><trkpt lat="42.2575772" lon="14.1765198"><ele>315.0</ele><time>2026-05-01T14:18:13.462Z</time></trkpt><trkpt lat="42.2576153" lon="14.1764085"><ele>315.0</ele><time>2026-05-01T14:18:14.452Z</time></trkpt><trkpt lat="42.2576483" lon="14.1763276"><ele>316.5</ele><time>2026-05-01T14:18:15.448Z</time></trkpt><trkpt lat="42.2576806" lon="14.1762348"><ele>318.0</ele><time>2026-05-01T14:18:18.457Z</time></trkpt><trkpt lat="42.25767" lon="14.176128"><ele>319.5</ele><time>2026-05-01T14:18:21.465Z</time></trkpt><trkpt lat="42.2575983" lon="14.1760459"><ele>321.0</ele><time>2026-05-01T14:18:23.466Z</time></trkpt><trkpt lat="42.2575347" lon="14.1760063"><ele>322.5</ele><time>2026-05-01T14:18:24.472Z</time></trkpt><trkpt lat="42.2574604" lon="14.1759607"><ele>324.0</ele><time>2026-05-01T14:18:25.468Z</time></trkpt><trkpt lat="42.2573915" lon="14.1759034"><ele>324.0</ele><time>2026-05-01T14:18:26.457Z</time></trkpt><trkpt lat="42.2573417" lon="14.1758335"><ele>324.0</ele><time>2026-05-01T14:18:27.464Z</time></trkpt><trkpt lat="42.2572796" lon="14.1756977"><ele>324.0</ele><time>2026-05-01T14:18:29.462Z</time></trkpt><trkpt lat="42.2572251" lon="14.1755528"><ele>324.0</ele><time>2026-05-01T14:18:31.462Z</time></trkpt><trkpt lat="42.2571705" lon="14.1754685"><ele>324.0</ele><time>2026-05-01T14:18:33.464Z</time></trkpt><trkpt lat="42.2571594" lon="14.175345"><ele>325.0</ele><time>2026-05-01T14:18:35.461Z</time></trkpt><trkpt lat="42.2571879" lon="14.1752501"><ele>326.0</ele><time>2026-05-01T14:18:36.489Z</time></trkpt><trkpt lat="42.2572272" lon="14.1751341"><ele>327.0</ele><time>2026-05-01T14:18:37.478Z</time></trkpt><trkpt lat="42.2572776" lon="14.1750196"><ele>328.0</ele><time>2026-05-01T14:18:38.48Z</time></trkpt><trkpt lat="42.2573242" lon="14.1749189"><ele>329.0</ele><time>2026-05-01T14:18:39.48Z</time></trkpt><trkpt lat="42.257373" lon="14.1748029"><ele>331.0</ele><time>2026-05-01T14:18:40.479Z</time></trkpt><trkpt lat="42.2574222" lon="14.1746799"><ele>333.0</ele><time>2026-05-01T14:18:41.474Z</time></trkpt><trkpt lat="42.2574669" lon="14.1745808"><ele>335.0</ele><time>2026-05-01T14:18:42.471Z</time></trkpt><trkpt lat="42.2575054" lon="14.1744926"><ele>337.0</ele><time>2026-05-01T14:18:43.479Z</time></trkpt><trkpt lat="42.2575753" lon="14.174351"><ele>339.0</ele><time>2026-05-01T14:18:45.476Z</time></trkpt><trkpt lat="42.257614" lon="14.1742588"><ele>339.0</ele><time>2026-05-01T14:18:46.471Z</time></trkpt><trkpt lat="42.2576529" lon="14.17418"><ele>339.0</ele><time>2026-05-01T14:18:47.459Z</time></trkpt><trkpt lat="42.2576848" lon="14.1741062"><ele>339.0</ele><time>2026-05-01T14:18:48.467Z</time></trkpt><trkpt lat="42.2577182" lon="14.1740239"><ele>339.0</ele><time>2026-05-01T14:18:49.462Z</time></trkpt><trkpt lat="42.2577629" lon="14.1739356"><ele>339.0</ele><time>2026-05-01T14:18:50.471Z</time></trkpt><trkpt lat="42.2578099" lon="14.1738322"><ele>339.0</ele><time>2026-05-01T14:18:51.472Z</time></trkpt><trkpt lat="42.2578706" lon="14.1737272"><ele>340.0</ele><time>2026-05-01T14:18:52.477Z</time></trkpt><trkpt lat="42.2579363" lon="14.1736216"><ele>341.0</ele><time>2026-05-01T14:18:53.468Z</time></trkpt><trkpt lat="42.2580086" lon="14.1735117"><ele>342.0</ele><time>2026-05-01T14:18:54.469Z</time></trkpt><trkpt lat="42.2580874" lon="14.1734094"><ele>343.0</ele><time>2026-05-01T14:18:55.463Z</time></trkpt><trkpt lat="42.2581666" lon="14.1733253"><ele>344.0</ele><time>2026-05-01T14:18:56.47Z</time></trkpt><trkpt lat="42.2582421" lon="14.1732538"><ele>346.1666666666667</ele><time>2026-05-01T14:18:57.462Z</time></trkpt><trkpt lat="42.258326" lon="14.1731706"><ele>348.33333333333337</ele><time>2026-05-01T14:18:58.462Z</time></trkpt><trkpt lat="42.2584097" lon="14.1730973"><ele>350.5</ele><time>2026-05-01T14:18:59.457Z</time></trkpt><trkpt lat="42.2584759" lon="14.173041"><ele>352.6666666666667</ele><time>2026-05-01T14:19:00.467Z</time></trkpt><trkpt lat="42.2585157" lon="14.1729559"><ele>354.8333333333333</ele><time>2026-05-01T14:19:03.454Z</time></trkpt><trkpt lat="42.2585296" lon="14.1728452"><ele>357.0</ele><time>2026-05-01T14:19:05.459Z</time></trkpt><trkpt lat="42.2585617" lon="14.1727598"><ele>357.0</ele><time>2026-05-01T14:19:06.459Z</time></trkpt><trkpt lat="42.258627" lon="14.1726611"><ele>357.0</ele><time>2026-05-01T14:19:07.457Z</time></trkpt><trkpt lat="42.2587288" lon="14.1725325"><ele>357.0</ele><time>2026-05-01T14:19:08.448Z</time></trkpt><trkpt lat="42.2588268" lon="14.1724069"><ele>357.0</ele><time>2026-05-01T14:19:09.456Z</time></trkpt><trkpt lat="42.2589252" lon="14.1722888"><ele>361.0</ele><time>2026-05-01T14:19:10.462Z</time></trkpt><trkpt lat="42.2590264" lon="14.1721795"><ele>365.0</ele><time>2026-05-01T14:19:11.462Z</time></trkpt><trkpt lat="42.2591302" lon="14.1720845"><ele>369.0</ele><time>2026-05-01T14:19:12.453Z</time></trkpt><trkpt lat="42.2592361" lon="14.1719803"><ele>373.0</ele><time>2026-05-01T14:19:13.457Z</time></trkpt><trkpt lat="42.2593398" lon="14.1718735"><ele>373.0</ele><time>2026-05-01T14:19:14.462Z</time></trkpt><trkpt lat="42.2594429" lon="14.1717683"><ele>373.0</ele><time>2026-05-01T14:19:15.468Z</time></trkpt><trkpt lat="42.2595252" lon="14.1716552"><ele>373.0</ele><time>2026-05-01T14:19:16.463Z</time></trkpt><trkpt lat="42.2595995" lon="14.1715432"><ele>373.0</ele><time>2026-05-01T14:19:17.474Z</time></trkpt><trkpt lat="42.2596465" lon="14.171426"><ele>372.4</ele><time>2026-05-01T14:19:18.465Z</time></trkpt><trkpt lat="42.2596855" lon="14.1713293"><ele>371.79999999999995</ele><time>2026-05-01T14:19:19.46Z</time></trkpt><trkpt lat="42.2597352" lon="14.17122"><ele>371.2</ele><time>2026-05-01T14:19:21.47Z</time></trkpt><trkpt lat="42.2597865" lon="14.1711261"><ele>370.6</ele><time>2026-05-01T14:19:25.471Z</time></trkpt><trkpt lat="42.2598813" lon="14.1710238"><ele>370.0</ele><time>2026-05-01T14:19:27.471Z</time></trkpt><trkpt lat="42.2599635" lon="14.1709451"><ele>370.0</ele><time>2026-05-01T14:19:28.468Z</time></trkpt><trkpt lat="42.2600416" lon="14.1708667"><ele>370.0</ele><time>2026-05-01T14:19:29.475Z</time></trkpt><trkpt lat="42.2601206" lon="14.1707913"><ele>370.0</ele><time>2026-05-01T14:19:30.471Z</time></trkpt><trkpt lat="42.260197" lon="14.1707098"><ele>370.0</ele><time>2026-05-01T14:19:31.48Z</time></trkpt><trkpt lat="42.2602754" lon="14.1706348"><ele>370.0</ele><time>2026-05-01T14:19:32.478Z</time></trkpt><trkpt lat="42.2603532" lon="14.1705522"><ele>369.4</ele><time>2026-05-01T14:19:33.473Z</time></trkpt><trkpt lat="42.2604309" lon="14.170472"><ele>368.8</ele><time>2026-05-01T14:19:34.477Z</time></trkpt><trkpt lat="42.2605078" lon="14.1703926"><ele>368.20000000000005</ele><time>2026-05-01T14:19:35.471Z</time></trkpt><trkpt lat="42.2605814" lon="14.1703173"><ele>367.6</ele><time>2026-05-01T14:19:36.475Z</time></trkpt><trkpt lat="42.2606539" lon="14.1702378"><ele>367.0</ele><time>2026-05-01T14:19:37.472Z</time></trkpt><trkpt lat="42.2607287" lon="14.1701608"><ele>365.0</ele><time>2026-05-01T14:19:38.475Z</time></trkpt><trkpt lat="42.2607966" lon="14.1700747"><ele>363.0</ele><time>2026-05-01T14:19:39.471Z</time></trkpt><trkpt lat="42.260861" lon="14.1699947"><ele>361.0</ele><time>2026-05-01T14:19:40.475Z</time></trkpt><trkpt lat="42.260926" lon="14.1699136"><ele>359.0</ele><time>2026-05-01T14:19:41.47Z</time></trkpt><trkpt lat="42.2609696" lon="14.1698501"><ele>357.0</ele><time>2026-05-01T14:19:42.467Z</time></trkpt><trkpt lat="42.261036" lon="14.1697337"><ele>355.0</ele><time>2026-05-01T14:19:44.47Z</time></trkpt><trkpt lat="42.2610671" lon="14.1695903"><ele>353.8333333333333</ele><time>2026-05-01T14:19:46.47Z</time></trkpt><trkpt lat="42.261074" lon="14.1694873"><ele>352.66666666666663</ele><time>2026-05-01T14:19:47.474Z</time></trkpt><trkpt lat="42.2610829" lon="14.1693801"><ele>351.5</ele><time>2026-05-01T14:19:48.481Z</time></trkpt><trkpt lat="42.2610919" lon="14.1692802"><ele>350.3333333333333</ele><time>2026-05-01T14:19:49.481Z</time></trkpt><trkpt lat="42.2610948" lon="14.1691772"><ele>349.1666666666667</ele><time>2026-05-01T14:19:50.488Z</time></trkpt><trkpt lat="42.2611001" lon="14.1690684"><ele>348.0</ele><time>2026-05-01T14:19:51.481Z</time></trkpt><trkpt lat="42.2610993" lon="14.1689666"><ele>347.0</ele><time>2026-05-01T14:19:52.477Z</time></trkpt><trkpt lat="42.2610894" lon="14.1688667"><ele>346.0</ele><time>2026-05-01T14:19:53.479Z</time></trkpt><trkpt lat="42.2610813" lon="14.1687534"><ele>345.0</ele><time>2026-05-01T14:19:54.468Z</time></trkpt><trkpt lat="42.261078" lon="14.1686241"><ele>344.0</ele><time>2026-05-01T14:19:55.469Z</time></trkpt><trkpt lat="42.2610877" lon="14.1684672"><ele>343.0</ele><time>2026-05-01T14:19:56.469Z</time></trkpt><trkpt lat="42.2611145" lon="14.1683093"><ele>341.2</ele><time>2026-05-01T14:19:57.47Z</time></trkpt><trkpt lat="42.2611555" lon="14.1681661"><ele>339.4</ele><time>2026-05-01T14:19:58.472Z</time></trkpt><trkpt lat="42.2611926" lon="14.1680375"><ele>337.59999999999997</ele><time>2026-05-01T14:19:59.479Z</time></trkpt><trkpt lat="42.2612315" lon="14.1679178"><ele>335.79999999999995</ele><time>2026-05-01T14:20:00.47Z</time></trkpt><trkpt lat="42.2612579" lon="14.1677974"><ele>334.0</ele><time>2026-05-01T14:20:01.472Z</time></trkpt><trkpt lat="42.2612719" lon="14.1676761"><ele>334.0</ele><time>2026-05-01T14:20:02.475Z</time></trkpt><trkpt lat="42.2612657" lon="14.1675399"><ele>334.0</ele><time>2026-05-01T14:20:03.47Z</time></trkpt><trkpt lat="42.2612599" lon="14.1674064"><ele>334.0</ele><time>2026-05-01T14:20:04.465Z</time></trkpt><trkpt lat="42.2612504" lon="14.1672744"><ele>334.0</ele><time>2026-05-01T14:20:05.472Z</time></trkpt><trkpt lat="42.2612394" lon="14.1671502"><ele>334.0</ele><time>2026-05-01T14:20:06.458Z</time></trkpt><trkpt lat="42.261229" lon="14.1670479"><ele>331.5</ele><time>2026-05-01T14:20:07.459Z</time></trkpt><trkpt lat="42.2612284" lon="14.1669624"><ele>329.0</ele><time>2026-05-01T14:20:08.456Z</time></trkpt><trkpt lat="42.2612891" lon="14.1668515"><ele>326.5</ele><time>2026-05-01T14:20:10.456Z</time></trkpt><trkpt lat="42.2614067" lon="14.1668904"><ele>324.0</ele><time>2026-05-01T14:20:12.455Z</time></trkpt><trkpt lat="42.2614655" lon="14.1669681"><ele>321.5</ele><time>2026-05-01T14:20:13.455Z</time></trkpt><trkpt lat="42.2615281" lon="14.1670354"><ele>319.0</ele><time>2026-05-01T14:20:14.467Z</time></trkpt><trkpt lat="42.2615739" lon="14.167096"><ele>318.66666666666663</ele><time>2026-05-01T14:20:15.459Z</time></trkpt><trkpt lat="42.2616594" lon="14.1672254"><ele>318.3333333333333</ele><time>2026-05-01T14:20:17.464Z</time></trkpt><trkpt lat="42.2617059" lon="14.1672975"><ele>318.0</ele><time>2026-05-01T14:20:18.467Z</time></trkpt><trkpt lat="42.2617514" lon="14.1673755"><ele>317.6666666666667</ele><time>2026-05-01T14:20:19.469Z</time></trkpt><trkpt lat="42.2618044" lon="14.1674504"><ele>317.33333333333337</ele><time>2026-05-01T14:20:20.477Z</time></trkpt><trkpt lat="42.2618494" lon="14.167519"><ele>317.0</ele><time>2026-05-01T14:20:21.474Z</time></trkpt><trkpt lat="42.2618901" lon="14.167586"><ele>317.0</ele><time>2026-05-01T14:20:22.477Z</time></trkpt><trkpt lat="42.2619312" lon="14.1676547"><ele>317.0</ele><time>2026-05-01T14:20:23.466Z</time></trkpt><trkpt lat="42.2619742" lon="14.1677262"><ele>317.0</ele><time>2026-05-01T14:20:24.464Z</time></trkpt><trkpt lat="42.2620607" lon="14.167819"><ele>317.0</ele><time>2026-05-01T14:20:26.463Z</time></trkpt><trkpt lat="42.2621717" lon="14.1678311"><ele>317.0</ele><time>2026-05-01T14:20:28.462Z</time></trkpt><trkpt lat="42.2622449" lon="14.167787"><ele>317.0</ele><time>2026-05-01T14:20:29.473Z</time></trkpt><trkpt lat="42.2623116" lon="14.1677448"><ele>313.14285714285717</ele><time>2026-05-01T14:20:30.458Z</time></trkpt><trkpt lat="42.2623841" lon="14.1677036"><ele>309.2857142857143</ele><time>2026-05-01T14:20:31.477Z</time></trkpt><trkpt lat="42.2624615" lon="14.1676735"><ele>305.42857142857144</ele><time>2026-05-01T14:20:32.458Z</time></trkpt><trkpt lat="42.2625366" lon="14.1676585"><ele>301.57142857142856</ele><time>2026-05-01T14:20:33.473Z</time></trkpt><trkpt lat="42.262608" lon="14.1676593"><ele>297.7142857142857</ele><time>2026-05-01T14:20:34.46Z</time></trkpt><trkpt lat="42.2626749" lon="14.1676875"><ele>293.8571428571429</ele><time>2026-05-01T14:20:35.464Z</time></trkpt><trkpt lat="42.2627408" lon="14.1677206"><ele>290.0</ele><time>2026-05-01T14:20:36.456Z</time></trkpt><trkpt lat="42.262807" lon="14.16777"><ele>290.0</ele><time>2026-05-01T14:20:37.455Z</time></trkpt><trkpt lat="42.2628743" lon="14.1678233"><ele>290.0</ele><time>2026-05-01T14:20:38.471Z</time></trkpt><trkpt lat="42.2629535" lon="14.1678779"><ele>290.0</ele><time>2026-05-01T14:20:39.46Z</time></trkpt><trkpt lat="42.2630389" lon="14.1679394"><ele>290.0</ele><time>2026-05-01T14:20:40.467Z</time></trkpt><trkpt lat="42.2631293" lon="14.1680005"><ele>290.0</ele><time>2026-05-01T14:20:41.46Z</time></trkpt><trkpt lat="42.2632199" lon="14.1680662"><ele>287.8</ele><time>2026-05-01T14:20:42.465Z</time></trkpt><trkpt lat="42.263314" lon="14.1681293"><ele>285.6</ele><time>2026-05-01T14:20:43.466Z</time></trkpt><trkpt lat="42.2634065" lon="14.1681936"><ele>283.4</ele><time>2026-05-01T14:20:44.472Z</time></trkpt><trkpt lat="42.2634971" lon="14.1682618"><ele>281.2</ele><time>2026-05-01T14:20:45.467Z</time></trkpt><trkpt lat="42.2635847" lon="14.1683347"><ele>279.0</ele><time>2026-05-01T14:20:46.473Z</time></trkpt><trkpt lat="42.2636719" lon="14.1683969"><ele>279.0</ele><time>2026-05-01T14:20:47.471Z</time></trkpt><trkpt lat="42.2637665" lon="14.1684523"><ele>279.0</ele><time>2026-05-01T14:20:48.47Z</time></trkpt><trkpt lat="42.2638592" lon="14.1684842"><ele>279.0</ele><time>2026-05-01T14:20:49.465Z</time></trkpt><trkpt lat="42.2639427" lon="14.1684927"><ele>279.0</ele><time>2026-05-01T14:20:50.473Z</time></trkpt><trkpt lat="42.2640191" lon="14.168481"><ele>279.0</ele><time>2026-05-01T14:20:51.469Z</time></trkpt><trkpt lat="42.2641265" lon="14.1684433"><ele>276.57142857142856</ele><time>2026-05-01T14:20:53.465Z</time></trkpt><trkpt lat="42.2641929" lon="14.1684124"><ele>274.1428571428571</ele><time>2026-05-01T14:20:55.46Z</time></trkpt><trkpt lat="42.2642501" lon="14.1683698"><ele>271.7142857142857</ele><time>2026-05-01T14:20:58.476Z</time></trkpt><trkpt lat="42.2643004" lon="14.1683128"><ele>269.2857142857143</ele><time>2026-05-01T14:21:00.468Z</time></trkpt><trkpt lat="42.2643545" lon="14.1682419"><ele>266.8571428571429</ele><time>2026-05-01T14:21:02.468Z</time></trkpt><trkpt lat="42.2643965" lon="14.1681448"><ele>264.42857142857144</ele><time>2026-05-01T14:21:04.473Z</time></trkpt><trkpt lat="42.2644355" lon="14.1680511"><ele>262.0</ele><time>2026-05-01T14:21:06.469Z</time></trkpt><trkpt lat="42.264474" lon="14.1679732"><ele>260.5</ele><time>2026-05-01T14:21:08.465Z</time></trkpt><trkpt lat="42.2644993" lon="14.1678861"><ele>259.0</ele><time>2026-05-01T14:21:42.471Z</time></trkpt><trkpt lat="42.2645485" lon="14.1678292"><ele>257.5</ele><time>2026-05-01T14:22:12.465Z</time></trkpt><trkpt lat="42.2645839" lon="14.1677285"><ele>256.0</ele><time>2026-05-01T14:22:14.463Z</time></trkpt><trkpt lat="42.2646244" lon="14.1676325"><ele>254.49999999999997</ele><time>2026-05-01T14:22:15.473Z</time></trkpt><trkpt lat="42.2646716" lon="14.1675344"><ele>253.0</ele><time>2026-05-01T14:22:16.472Z</time></trkpt><trkpt lat="42.2647244" lon="14.167443"><ele>251.33333333333331</ele><time>2026-05-01T14:22:17.468Z</time></trkpt><trkpt lat="42.2647815" lon="14.1673669"><ele>249.66666666666666</ele><time>2026-05-01T14:22:18.462Z</time></trkpt><trkpt lat="42.2648425" lon="14.1673234"><ele>248.0</ele><time>2026-05-01T14:22:19.472Z</time></trkpt><trkpt lat="42.2649484" lon="14.1672972"><ele>246.33333333333331</ele><time>2026-05-01T14:22:21.475Z</time></trkpt><trkpt lat="42.2650403" lon="14.1672637"><ele>244.66666666666666</ele><time>2026-05-01T14:22:23.469Z</time></trkpt><trkpt lat="42.265117" lon="14.1672091"><ele>243.0</ele><time>2026-05-01T14:22:25.467Z</time></trkpt><trkpt lat="42.2651721" lon="14.1671284"><ele>240.0</ele><time>2026-05-01T14:22:27.471Z</time></trkpt><trkpt lat="42.265254" lon="14.1669937"><ele>237.0</ele><time>2026-05-01T14:22:29.467Z</time></trkpt><trkpt lat="42.2653038" lon="14.1669279"><ele>234.0</ele><time>2026-05-01T14:22:30.473Z</time></trkpt><trkpt lat="42.2653546" lon="14.1668624"><ele>231.0</ele><time>2026-05-01T14:22:31.48Z</time></trkpt><trkpt lat="42.2654065" lon="14.1667832"><ele>228.0</ele><time>2026-05-01T14:22:32.469Z</time></trkpt><trkpt lat="42.2654596" lon="14.1667069"><ele>225.0</ele><time>2026-05-01T14:22:33.477Z</time></trkpt><trkpt lat="42.2655038" lon="14.1666332"><ele>225.00000000000003</ele><time>2026-05-01T14:22:34.47Z</time></trkpt><trkpt lat="42.2655463" lon="14.1665651"><ele>225.0</ele><time>2026-05-01T14:22:35.472Z</time></trkpt><trkpt lat="42.2655953" lon="14.1664952"><ele>225.00000000000003</ele><time>2026-05-01T14:22:36.476Z</time></trkpt><trkpt lat="42.2656488" lon="14.1664253"><ele>225.00000000000003</ele><time>2026-05-01T14:22:37.474Z</time></trkpt><trkpt lat="42.2657046" lon="14.1663561"><ele>225.0</ele><time>2026-05-01T14:22:38.476Z</time></trkpt><trkpt lat="42.2657649" lon="14.1662895"><ele>225.00000000000003</ele><time>2026-05-01T14:22:39.474Z</time></trkpt><trkpt lat="42.2658234" lon="14.166219"><ele>225.00000000000003</ele><time>2026-05-01T14:22:40.466Z</time></trkpt><trkpt lat="42.2658774" lon="14.1661414"><ele>222.5714285714286</ele><time>2026-05-01T14:22:41.467Z</time></trkpt><trkpt lat="42.2659228" lon="14.1660655"><ele>220.14285714285717</ele><time>2026-05-01T14:22:42.463Z</time></trkpt><trkpt lat="42.2659592" lon="14.1659791"><ele>217.71428571428572</ele><time>2026-05-01T14:22:43.473Z</time></trkpt><trkpt lat="42.2659902" lon="14.1658896"><ele>215.2857142857143</ele><time>2026-05-01T14:22:44.465Z</time></trkpt><trkpt lat="42.2660129" lon="14.1657961"><ele>212.8571428571429</ele><time>2026-05-01T14:22:45.47Z</time></trkpt><trkpt lat="42.2660339" lon="14.1657062"><ele>210.42857142857142</ele><time>2026-05-01T14:22:46.466Z</time></trkpt><trkpt lat="42.2660594" lon="14.1656248"><ele>208.0</ele><time>2026-05-01T14:22:47.469Z</time></trkpt><trkpt lat="42.2661099" lon="14.1655364"><ele>208.0</ele><time>2026-05-01T14:22:49.468Z</time></trkpt><trkpt lat="42.2661957" lon="14.1656289"><ele>208.0</ele><time>2026-05-01T14:22:52.466Z</time></trkpt><trkpt lat="42.2662372" lon="14.1657606"><ele>208.0</ele><time>2026-05-01T14:22:54.466Z</time></trkpt><trkpt lat="42.26626" lon="14.1659052"><ele>208.0</ele><time>2026-05-01T14:22:56.468Z</time></trkpt><trkpt lat="42.266298" lon="14.1660714"><ele>207.99999999999997</ele><time>2026-05-01T14:22:58.474Z</time></trkpt><trkpt lat="42.2663219" lon="14.1661787"><ele>208.0</ele><time>2026-05-01T14:22:59.465Z</time></trkpt><trkpt lat="42.2663449" lon="14.1662899"><ele>208.0</ele><time>2026-05-01T14:23:00.469Z</time></trkpt><trkpt lat="42.2663658" lon="14.166387"><ele>208.0</ele><time>2026-05-01T14:23:01.476Z</time></trkpt><trkpt lat="42.2663872" lon="14.1664856"><ele>207.99999999999997</ele><time>2026-05-01T14:23:02.467Z</time></trkpt><trkpt lat="42.26642" lon="14.1665859"><ele>208.0</ele><time>2026-05-01T14:23:03.469Z</time></trkpt><trkpt lat="42.2664626" lon="14.1666888"><ele>206.99999999999997</ele><time>2026-05-01T14:23:04.467Z</time></trkpt><trkpt lat="42.2665121" lon="14.1667949"><ele>206.0</ele><time>2026-05-01T14:23:05.462Z</time></trkpt><trkpt lat="42.2665586" lon="14.1669013"><ele>205.0</ele><time>2026-05-01T14:23:06.465Z</time></trkpt><trkpt lat="42.2665966" lon="14.1670019"><ele>204.0</ele><time>2026-05-01T14:23:07.476Z</time></trkpt><trkpt lat="42.2666396" lon="14.1671044"><ele>202.99999999999997</ele><time>2026-05-01T14:23:08.464Z</time></trkpt><trkpt lat="42.266684" lon="14.1672094"><ele>202.0</ele><time>2026-05-01T14:23:09.47Z</time></trkpt><trkpt lat="42.2667305" lon="14.1673122"><ele>202.66666666666666</ele><time>2026-05-01T14:23:10.467Z</time></trkpt><trkpt lat="42.2667716" lon="14.1674139"><ele>203.33333333333331</ele><time>2026-05-01T14:23:11.463Z</time></trkpt><trkpt lat="42.266807" lon="14.1675078"><ele>204.0</ele><time>2026-05-01T14:23:12.463Z</time></trkpt><trkpt lat="42.2668398" lon="14.1676019"><ele>204.66666666666669</ele><time>2026-05-01T14:23:13.465Z</time></trkpt><trkpt lat="42.2668787" lon="14.1676939"><ele>205.33333333333334</ele><time>2026-05-01T14:23:14.465Z</time></trkpt><trkpt lat="42.2669172" lon="14.1677802"><ele>206.0</ele><time>2026-05-01T14:23:15.466Z</time></trkpt><trkpt lat="42.2669661" lon="14.167862"><ele>205.99999999999997</ele><time>2026-05-01T14:23:16.464Z</time></trkpt><trkpt lat="42.2670118" lon="14.1679479"><ele>206.0</ele><time>2026-05-01T14:23:17.469Z</time></trkpt><trkpt lat="42.2670528" lon="14.1680278"><ele>206.0</ele><time>2026-05-01T14:23:18.468Z</time></trkpt><trkpt lat="42.267099" lon="14.1681039"><ele>206.0</ele><time>2026-05-01T14:23:19.464Z</time></trkpt><trkpt lat="42.2671483" lon="14.1681839"><ele>206.0</ele><time>2026-05-01T14:23:20.472Z</time></trkpt><trkpt lat="42.2671992" lon="14.1682619"><ele>205.99999999999997</ele><time>2026-05-01T14:23:21.47Z</time></trkpt><trkpt lat="42.2672562" lon="14.1683215"><ele>206.0</ele><time>2026-05-01T14:23:22.468Z</time></trkpt><trkpt lat="42.267316" lon="14.1683889"><ele>202.66666666666669</ele><time>2026-05-01T14:23:23.465Z</time></trkpt><trkpt lat="42.2673732" lon="14.1684521"><ele>199.33333333333334</ele><time>2026-05-01T14:23:24.469Z</time></trkpt><trkpt lat="42.2674282" lon="14.1685237"><ele>196.0</ele><time>2026-05-01T14:23:25.465Z</time></trkpt><trkpt lat="42.2674906" lon="14.1686035"><ele>192.66666666666669</ele><time>2026-05-01T14:23:26.464Z</time></trkpt><trkpt lat="42.2675503" lon="14.168683"><ele>189.33333333333334</ele><time>2026-05-01T14:23:27.462Z</time></trkpt><trkpt lat="42.2676008" lon="14.1687503"><ele>186.0</ele><time>2026-05-01T14:23:28.471Z</time></trkpt><trkpt lat="42.2676887" lon="14.1687794"><ele>186.0</ele><time>2026-05-01T14:23:30.454Z</time></trkpt><trkpt lat="42.2677308" lon="14.1687138"><ele>186.0</ele><time>2026-05-01T14:23:32.462Z</time></trkpt><trkpt lat="42.2677376" lon="14.168601"><ele>186.0</ele><time>2026-05-01T14:23:34.461Z</time></trkpt><trkpt lat="42.267738" lon="14.1685133"><ele>186.0</ele><time>2026-05-01T14:23:35.449Z</time></trkpt><trkpt lat="42.2677397" lon="14.1684051"><ele>186.0</ele><time>2026-05-01T14:23:36.454Z</time></trkpt><trkpt lat="42.2677505" lon="14.1682834"><ele>186.0</ele><time>2026-05-01T14:23:37.462Z</time></trkpt><trkpt lat="42.2677676" lon="14.1681781"><ele>185.33333333333334</ele><time>2026-05-01T14:23:38.456Z</time></trkpt><trkpt lat="42.26778" lon="14.1680893"><ele>184.66666666666666</ele><time>2026-05-01T14:23:39.46Z</time></trkpt><trkpt lat="42.2677747" lon="14.1679966"><ele>184.0</ele><time>2026-05-01T14:23:41.457Z</time></trkpt><trkpt lat="42.2677745" lon="14.1678849"><ele>183.33333333333331</ele><time>2026-05-01T14:23:44.459Z</time></trkpt><trkpt lat="42.267781" lon="14.1677825"><ele>182.66666666666666</ele><time>2026-05-01T14:23:46.462Z</time></trkpt><trkpt lat="42.2677736" lon="14.1676397"><ele>182.0</ele><time>2026-05-01T14:23:48.458Z</time></trkpt><trkpt lat="42.2677654" lon="14.1675536"><ele>182.0</ele><time>2026-05-01T14:23:49.463Z</time></trkpt><trkpt lat="42.2677567" lon="14.1674572"><ele>182.0</ele><time>2026-05-01T14:23:50.459Z</time></trkpt><trkpt lat="42.267755" lon="14.1673473"><ele>182.0</ele><time>2026-05-01T14:23:51.465Z</time></trkpt><trkpt lat="42.2677446" lon="14.1672321"><ele>182.0</ele><time>2026-05-01T14:23:52.458Z</time></trkpt><trkpt lat="42.2677349" lon="14.167118"><ele>182.0</ele><time>2026-05-01T14:23:53.465Z</time></trkpt><trkpt lat="42.2677251" lon="14.1670038"><ele>182.0</ele><time>2026-05-01T14:23:54.46Z</time></trkpt><trkpt lat="42.2677209" lon="14.1668963"><ele>181.0</ele><time>2026-05-01T14:23:55.452Z</time></trkpt><trkpt lat="42.2677195" lon="14.1668079"><ele>180.0</ele><time>2026-05-01T14:23:56.466Z</time></trkpt><trkpt lat="42.267713" lon="14.1666608"><ele>179.0</ele><time>2026-05-01T14:23:58.459Z</time></trkpt><trkpt lat="42.2677321" lon="14.1664849"><ele>178.0</ele><time>2026-05-01T14:24:00.459Z</time></trkpt><trkpt lat="42.267751" lon="14.1663861"><ele>177.0</ele><time>2026-05-01T14:24:01.467Z</time></trkpt><trkpt lat="42.2677726" lon="14.1662911"><ele>176.66666666666666</ele><time>2026-05-01T14:24:02.455Z</time></trkpt><trkpt lat="42.267793" lon="14.1662097"><ele>176.33333333333334</ele><time>2026-05-01T14:24:03.462Z</time></trkpt><trkpt lat="42.2678566" lon="14.1660765"><ele>176.0</ele><time>2026-05-01T14:24:05.455Z</time></trkpt><trkpt lat="42.2679086" lon="14.1660204"><ele>175.66666666666669</ele><time>2026-05-01T14:24:06.46Z</time></trkpt><trkpt lat="42.2680211" lon="14.1659427"><ele>175.33333333333334</ele><time>2026-05-01T14:24:08.459Z</time></trkpt><trkpt lat="42.2680806" lon="14.1658971"><ele>175.0</ele><time>2026-05-01T14:24:09.454Z</time></trkpt><trkpt lat="42.2681335" lon="14.1658395"><ele>170.4</ele><time>2026-05-01T14:24:10.458Z</time></trkpt><trkpt lat="42.2681939" lon="14.1656877"><ele>165.8</ele><time>2026-05-01T14:24:12.457Z</time></trkpt><trkpt lat="42.2682036" lon="14.1655516"><ele>161.2</ele><time>2026-05-01T14:24:14.461Z</time></trkpt><trkpt lat="42.2681953" lon="14.1654402"><ele>156.6</ele><time>2026-05-01T14:24:16.457Z</time></trkpt><trkpt lat="42.268191" lon="14.1653512"><ele>152.0</ele><time>2026-05-01T14:24:17.461Z</time></trkpt><trkpt lat="42.2681625" lon="14.1651957"><ele>152.0</ele><time>2026-05-01T14:24:19.472Z</time></trkpt><trkpt lat="42.268153" lon="14.165107"><ele>152.0</ele><time>2026-05-01T14:24:20.459Z</time></trkpt><trkpt lat="42.2681442" lon="14.1650168"><ele>152.0</ele><time>2026-05-01T14:24:21.466Z</time></trkpt><trkpt lat="42.2681391" lon="14.1648659"><ele>152.0</ele><time>2026-05-01T14:24:23.477Z</time></trkpt><trkpt lat="42.2681426" lon="14.1646942"><ele>152.0</ele><time>2026-05-01T14:24:25.463Z</time></trkpt><trkpt lat="42.2681439" lon="14.1646091"><ele>152.0</ele><time>2026-05-01T14:24:26.46Z</time></trkpt><trkpt lat="42.2681512" lon="14.1644423"><ele>150.33333333333331</ele><time>2026-05-01T14:24:28.463Z</time></trkpt><trkpt lat="42.2681608" lon="14.1642855"><ele>148.66666666666666</ele><time>2026-05-01T14:24:30.461Z</time></trkpt><trkpt lat="42.2681579" lon="14.1641317"><ele>147.0</ele><time>2026-05-01T14:24:32.457Z</time></trkpt><trkpt lat="42.2681543" lon="14.1640407"><ele>145.33333333333334</ele><time>2026-05-01T14:24:33.458Z</time></trkpt><trkpt lat="42.2681529" lon="14.1639486"><ele>143.66666666666669</ele><time>2026-05-01T14:24:34.466Z</time></trkpt><trkpt lat="42.2681517" lon="14.1638625"><ele>142.0</ele><time>2026-05-01T14:24:35.464Z</time></trkpt><trkpt lat="42.2681489" lon="14.1637693"><ele>142.66666666666669</ele><time>2026-05-01T14:24:36.455Z</time></trkpt><trkpt lat="42.2681631" lon="14.1636593"><ele>143.33333333333334</ele><time>2026-05-01T14:24:37.463Z</time></trkpt><trkpt lat="42.2681791" lon="14.1635553"><ele>144.0</ele><time>2026-05-01T14:24:38.461Z</time></trkpt><trkpt lat="42.2681957" lon="14.1634572"><ele>144.66666666666666</ele><time>2026-05-01T14:24:39.458Z</time></trkpt><trkpt lat="42.2682197" lon="14.1633688"><ele>145.33333333333331</ele><time>2026-05-01T14:24:40.46Z</time></trkpt><trkpt lat="42.2682517" lon="14.1632904"><ele>146.0</ele><time>2026-05-01T14:24:41.46Z</time></trkpt><trkpt lat="42.2682908" lon="14.1631713"><ele>146.0</ele><time>2026-05-01T14:24:43.467Z</time></trkpt><trkpt lat="42.2683241" lon="14.1630586"><ele>146.0</ele><time>2026-05-01T14:24:45.455Z</time></trkpt><trkpt lat="42.2683822" lon="14.1629271"><ele>146.0</ele><time>2026-05-01T14:24:47.454Z</time></trkpt><trkpt lat="42.2684206" lon="14.1628387"><ele>146.0</ele><time>2026-05-01T14:24:48.46Z</time></trkpt><trkpt lat="42.2684704" lon="14.1627398"><ele>146.0</ele><time>2026-05-01T14:24:49.455Z</time></trkpt><trkpt lat="42.268528" lon="14.1626103"><ele>146.0</ele><time>2026-05-01T14:24:50.457Z</time></trkpt><trkpt lat="42.2685907" lon="14.1624793"><ele>146.0</ele><time>2026-05-01T14:24:51.454Z</time></trkpt><trkpt lat="42.2686498" lon="14.1623762"><ele>146.0</ele><time>2026-05-01T14:24:52.45Z</time></trkpt><trkpt lat="42.268716" lon="14.1623167"><ele>146.0</ele><time>2026-05-01T14:24:53.455Z</time></trkpt><trkpt lat="42.2687755" lon="14.1622776"><ele>146.0</ele><time>2026-05-01T14:24:54.453Z</time></trkpt><trkpt lat="42.2688391" lon="14.1622384"><ele>146.0</ele><time>2026-05-01T14:24:55.451Z</time></trkpt><trkpt lat="42.2689165" lon="14.162235"><ele>147.66666666666666</ele><time>2026-05-01T14:24:56.447Z</time></trkpt><trkpt lat="42.2689863" lon="14.1622534"><ele>149.33333333333331</ele><time>2026-05-01T14:24:57.451Z</time></trkpt><trkpt lat="42.269067" lon="14.1622623"><ele>151.0</ele><time>2026-05-01T14:24:58.454Z</time></trkpt><trkpt lat="42.2691319" lon="14.162276"><ele>152.66666666666666</ele><time>2026-05-01T14:24:59.457Z</time></trkpt><trkpt lat="42.2692263" lon="14.1622617"><ele>154.33333333333334</ele><time>2026-05-01T14:25:01.461Z</time></trkpt><trkpt lat="42.2692968" lon="14.162116"><ele>156.0</ele><time>2026-05-01T14:25:03.454Z</time></trkpt><trkpt lat="42.2693264" lon="14.1620039"><ele>156.0</ele><time>2026-05-01T14:25:04.458Z</time></trkpt><trkpt lat="42.2693266" lon="14.1618766"><ele>156.0</ele><time>2026-05-01T14:25:05.458Z</time></trkpt><trkpt lat="42.2693087" lon="14.1617371"><ele>156.0</ele><time>2026-05-01T14:25:06.457Z</time></trkpt><trkpt lat="42.269292" lon="14.1616178"><ele>156.0</ele><time>2026-05-01T14:25:07.456Z</time></trkpt><trkpt lat="42.2692748" lon="14.1614931"><ele>156.0</ele><time>2026-05-01T14:25:08.457Z</time></trkpt><trkpt lat="42.2692536" lon="14.1613594"><ele>157.4</ele><time>2026-05-01T14:25:09.456Z</time></trkpt><trkpt lat="42.2692362" lon="14.1612082"><ele>158.8</ele><time>2026-05-01T14:25:10.456Z</time></trkpt><trkpt lat="42.2692217" lon="14.1610813"><ele>160.20000000000002</ele><time>2026-05-01T14:25:11.453Z</time></trkpt><trkpt lat="42.2692062" lon="14.1609684"><ele>161.6</ele><time>2026-05-01T14:25:12.456Z</time></trkpt><trkpt lat="42.2691796" lon="14.1608614"><ele>163.0</ele><time>2026-05-01T14:25:13.451Z</time></trkpt><trkpt lat="42.2691418" lon="14.1607621"><ele>164.66666666666669</ele><time>2026-05-01T14:25:14.445Z</time></trkpt><trkpt lat="42.2690912" lon="14.1606835"><ele>166.33333333333334</ele><time>2026-05-01T14:25:15.461Z</time></trkpt><trkpt lat="42.2690202" lon="14.1606444"><ele>168.0</ele><time>2026-05-01T14:25:16.449Z</time></trkpt><trkpt lat="42.2689371" lon="14.1606274"><ele>169.66666666666666</ele><time>2026-05-01T14:25:17.454Z</time></trkpt><trkpt lat="42.2688351" lon="14.1606453"><ele>171.33333333333331</ele><time>2026-05-01T14:25:18.448Z</time></trkpt><trkpt lat="42.2687329" lon="14.1606577"><ele>173.0</ele><time>2026-05-01T14:25:19.45Z</time></trkpt><trkpt lat="42.2686466" lon="14.1606775"><ele>172.83333333333331</ele><time>2026-05-01T14:25:20.449Z</time></trkpt><trkpt lat="42.2685697" lon="14.1607065"><ele>172.66666666666666</ele><time>2026-05-01T14:25:21.464Z</time></trkpt><trkpt lat="42.2684928" lon="14.1607475"><ele>172.5</ele><time>2026-05-01T14:25:22.45Z</time></trkpt><trkpt lat="42.2684173" lon="14.1607752"><ele>172.33333333333334</ele><time>2026-05-01T14:25:23.459Z</time></trkpt><trkpt lat="42.26834" lon="14.1607943"><ele>172.16666666666669</ele><time>2026-05-01T14:25:24.452Z</time></trkpt><trkpt lat="42.2682756" lon="14.1608132"><ele>172.0</ele><time>2026-05-01T14:25:25.454Z</time></trkpt><trkpt lat="42.2681616" lon="14.1608769"><ele>172.0</ele><time>2026-05-01T14:25:27.463Z</time></trkpt><trkpt lat="42.2680724" lon="14.1609101"><ele>172.0</ele><time>2026-05-01T14:25:29.457Z</time></trkpt><trkpt lat="42.2679808" lon="14.1609291"><ele>172.0</ele><time>2026-05-01T14:25:33.453Z</time></trkpt><trkpt lat="42.2678672" lon="14.1609351"><ele>172.0</ele><time>2026-05-01T14:25:35.453Z</time></trkpt><trkpt lat="42.2677956" lon="14.1609256"><ele>172.0</ele><time>2026-05-01T14:25:36.461Z</time></trkpt><trkpt lat="42.2677268" lon="14.16091"><ele>172.0</ele><time>2026-05-01T14:25:37.461Z</time></trkpt><trkpt lat="42.2676203" lon="14.1608675"><ele>172.0</ele><time>2026-05-01T14:25:39.453Z</time></trkpt><trkpt lat="42.267598" lon="14.1607678"><ele>172.0</ele><time>2026-05-01T14:25:41.468Z</time></trkpt><trkpt lat="42.2676491" lon="14.1606654"><ele>172.0</ele><time>2026-05-01T14:25:43.463Z</time></trkpt><trkpt lat="42.2676971" lon="14.1606097"><ele>172.0</ele><time>2026-05-01T14:25:44.458Z</time></trkpt><trkpt lat="42.2677701" lon="14.1605426"><ele>172.0</ele><time>2026-05-01T14:25:45.459Z</time></trkpt><trkpt lat="42.2678564" lon="14.1604567"><ele>172.0</ele><time>2026-05-01T14:25:46.464Z</time></trkpt><trkpt lat="42.2679463" lon="14.160362"><ele>175.2</ele><time>2026-05-01T14:25:47.459Z</time></trkpt><trkpt lat="42.2680341" lon="14.1602628"><ele>178.39999999999998</ele><time>2026-05-01T14:25:48.468Z</time></trkpt><trkpt lat="42.2681007" lon="14.1601592"><ele>181.60000000000002</ele><time>2026-05-01T14:25:49.462Z</time></trkpt><trkpt lat="42.2681678" lon="14.1600556"><ele>184.8</ele><time>2026-05-01T14:25:50.459Z</time></trkpt><trkpt lat="42.2682329" lon="14.159946"><ele>188.0</ele><time>2026-05-01T14:25:51.46Z</time></trkpt><trkpt lat="42.2682961" lon="14.1598291"><ele>190.33333333333331</ele><time>2026-05-01T14:25:52.464Z</time></trkpt><trkpt lat="42.2683506" lon="14.1597143"><ele>192.66666666666666</ele><time>2026-05-01T14:25:53.468Z</time></trkpt><trkpt lat="42.268401" lon="14.1596034"><ele>195.0</ele><time>2026-05-01T14:25:54.463Z</time></trkpt><trkpt lat="42.2684347" lon="14.1595017"><ele>197.33333333333331</ele><time>2026-05-01T14:25:55.462Z</time></trkpt><trkpt lat="42.2684514" lon="14.1594014"><ele>199.66666666666666</ele><time>2026-05-01T14:25:56.461Z</time></trkpt><trkpt lat="42.2684587" lon="14.1592914"><ele>202.0</ele><time>2026-05-01T14:25:57.459Z</time></trkpt><trkpt lat="42.2684525" lon="14.1591765"><ele>202.0</ele><time>2026-05-01T14:25:58.458Z</time></trkpt><trkpt lat="42.2684369" lon="14.159054"><ele>202.0</ele><time>2026-05-01T14:25:59.463Z</time></trkpt><trkpt lat="42.2684083" lon="14.1589162"><ele>202.0</ele><time>2026-05-01T14:26:00.459Z</time></trkpt><trkpt lat="42.2683816" lon="14.1587752"><ele>202.0</ele><time>2026-05-01T14:26:01.468Z</time></trkpt><trkpt lat="42.2683586" lon="14.1586381"><ele>202.0</ele><time>2026-05-01T14:26:02.457Z</time></trkpt><trkpt lat="42.2683415" lon="14.1585005"><ele>203.83333333333331</ele><time>2026-05-01T14:26:03.46Z</time></trkpt><trkpt lat="42.268331" lon="14.1583726"><ele>205.66666666666666</ele><time>2026-05-01T14:26:04.457Z</time></trkpt><trkpt lat="42.2683311" lon="14.1582566"><ele>207.5</ele><time>2026-05-01T14:26:05.457Z</time></trkpt><trkpt lat="42.2683369" lon="14.1581501"><ele>209.33333333333331</ele><time>2026-05-01T14:26:06.457Z</time></trkpt><trkpt lat="42.2683489" lon="14.1580473"><ele>211.16666666666666</ele><time>2026-05-01T14:26:07.454Z</time></trkpt><trkpt lat="42.2683522" lon="14.1579413"><ele>213.0</ele><time>2026-05-01T14:26:08.449Z</time></trkpt><trkpt lat="42.2683577" lon="14.1578435"><ele>214.5</ele><time>2026-05-01T14:26:09.444Z</time></trkpt><trkpt lat="42.2683666" lon="14.1577495"><ele>216.0</ele><time>2026-05-01T14:26:10.455Z</time></trkpt><trkpt lat="42.2683927" lon="14.1575979"><ele>217.5</ele><time>2026-05-01T14:26:12.452Z</time></trkpt><trkpt lat="42.2684396" lon="14.1574526"><ele>219.0</ele><time>2026-05-01T14:26:14.455Z</time></trkpt><trkpt lat="42.2684693" lon="14.1573741"><ele>220.5</ele><time>2026-05-01T14:26:15.453Z</time></trkpt><trkpt lat="42.2685099" lon="14.1573045"><ele>222.0</ele><time>2026-05-01T14:26:16.456Z</time></trkpt><trkpt lat="42.2685926" lon="14.157238"><ele>225.2</ele><time>2026-05-01T14:26:18.453Z</time></trkpt><trkpt lat="42.2687013" lon="14.1572204"><ele>228.39999999999998</ele><time>2026-05-01T14:26:20.454Z</time></trkpt><trkpt lat="42.268786" lon="14.1572209"><ele>231.60000000000002</ele><time>2026-05-01T14:26:21.455Z</time></trkpt><trkpt lat="42.2688776" lon="14.1572439"><ele>234.8</ele><time>2026-05-01T14:26:22.458Z</time></trkpt><trkpt lat="42.2689727" lon="14.1572716"><ele>238.0</ele><time>2026-05-01T14:26:23.462Z</time></trkpt><trkpt lat="42.2690615" lon="14.1573008"><ele>238.2</ele><time>2026-05-01T14:26:24.461Z</time></trkpt><trkpt lat="42.2691513" lon="14.1573213"><ele>238.4</ele><time>2026-05-01T14:26:25.46Z</time></trkpt><trkpt lat="42.2692317" lon="14.1573421"><ele>238.59999999999997</ele><time>2026-05-01T14:26:26.455Z</time></trkpt><trkpt lat="42.2693051" lon="14.1573582"><ele>238.79999999999998</ele><time>2026-05-01T14:26:27.458Z</time></trkpt><trkpt lat="42.269415" lon="14.1573999"><ele>239.0</ele><time>2026-05-01T14:26:29.459Z</time></trkpt><trkpt lat="42.2695195" lon="14.1574219"><ele>239.0</ele><time>2026-05-01T14:26:31.467Z</time></trkpt><trkpt lat="42.2696277" lon="14.1573863"><ele>238.99999999999997</ele><time>2026-05-01T14:26:33.459Z</time></trkpt><trkpt lat="42.2696983" lon="14.1573408"><ele>238.99999999999997</ele><time>2026-05-01T14:26:34.469Z</time></trkpt><trkpt lat="42.2697741" lon="14.1572708"><ele>239.0</ele><time>2026-05-01T14:26:35.471Z</time></trkpt><trkpt lat="42.2698428" lon="14.1571841"><ele>239.0</ele><time>2026-05-01T14:26:36.473Z</time></trkpt><trkpt lat="42.2699054" lon="14.1570953"><ele>238.50000000000003</ele><time>2026-05-01T14:26:37.468Z</time></trkpt><trkpt lat="42.2699602" lon="14.156999"><ele>238.0</ele><time>2026-05-01T14:26:38.468Z</time></trkpt><trkpt lat="42.2700082" lon="14.1568895"><ele>237.5</ele><time>2026-05-01T14:26:39.475Z</time></trkpt><trkpt lat="42.270039" lon="14.156779"><ele>237.0</ele><time>2026-05-01T14:26:40.466Z</time></trkpt><trkpt lat="42.2700577" lon="14.1566616"><ele>236.50000000000003</ele><time>2026-05-01T14:26:41.47Z</time></trkpt><trkpt lat="42.2700725" lon="14.1565471"><ele>236.0</ele><time>2026-05-01T14:26:42.466Z</time></trkpt><trkpt lat="42.2700846" lon="14.156451"><ele>237.50000000000003</ele><time>2026-05-01T14:26:43.47Z</time></trkpt><trkpt lat="42.2701009" lon="14.156353"><ele>239.0</ele><time>2026-05-01T14:26:44.461Z</time></trkpt><trkpt lat="42.2701224" lon="14.156269"><ele>240.5</ele><time>2026-05-01T14:26:45.469Z</time></trkpt><trkpt lat="42.2701489" lon="14.1561687"><ele>242.0</ele><time>2026-05-01T14:26:46.467Z</time></trkpt><trkpt lat="42.2701851" lon="14.1560607"><ele>243.50000000000003</ele><time>2026-05-01T14:26:47.468Z</time></trkpt><trkpt lat="42.2702393" lon="14.1559332"><ele>245.0</ele><time>2026-05-01T14:26:48.477Z</time></trkpt><trkpt lat="42.2702956" lon="14.1558053"><ele>246.16666666666669</ele><time>2026-05-01T14:26:49.461Z</time></trkpt><trkpt lat="42.2703358" lon="14.1556849"><ele>247.33333333333334</ele><time>2026-05-01T14:26:50.463Z</time></trkpt><trkpt lat="42.2703483" lon="14.1555872"><ele>248.5</ele><time>2026-05-01T14:26:51.473Z</time></trkpt><trkpt lat="42.2703018" lon="14.1554579"><ele>249.66666666666669</ele><time>2026-05-01T14:26:53.477Z</time></trkpt><trkpt lat="42.2702399" lon="14.1554216"><ele>250.83333333333334</ele><time>2026-05-01T14:26:56.472Z</time></trkpt><trkpt lat="42.2701695" lon="14.1553412"><ele>252.0</ele><time>2026-05-01T14:26:58.474Z</time></trkpt><trkpt lat="42.2700847" lon="14.1552183"><ele>252.0</ele><time>2026-05-01T14:27:00.472Z</time></trkpt><trkpt lat="42.2699988" lon="14.1551033"><ele>252.0</ele><time>2026-05-01T14:27:02.478Z</time></trkpt><trkpt lat="42.2699436" lon="14.1549931"><ele>252.0</ele><time>2026-05-01T14:27:04.481Z</time></trkpt><trkpt lat="42.269924" lon="14.1548853"><ele>252.0</ele><time>2026-05-01T14:27:07.47Z</time></trkpt><trkpt lat="42.2699917" lon="14.1547507"><ele>252.0</ele><time>2026-05-01T14:27:09.481Z</time></trkpt><trkpt lat="42.2700502" lon="14.1546579"><ele>254.0</ele><time>2026-05-01T14:27:10.472Z</time></trkpt><trkpt lat="42.2701104" lon="14.1545592"><ele>256.0</ele><time>2026-05-01T14:27:11.472Z</time></trkpt><trkpt lat="42.2701696" lon="14.1544569"><ele>258.0</ele><time>2026-05-01T14:27:12.474Z</time></trkpt><trkpt lat="42.2702182" lon="14.1543729"><ele>260.0</ele><time>2026-05-01T14:27:13.47Z</time></trkpt><trkpt lat="42.2702636" lon="14.1542967"><ele>262.0</ele><time>2026-05-01T14:27:14.469Z</time></trkpt><trkpt lat="42.2703147" lon="14.1542168"><ele>264.0</ele><time>2026-05-01T14:27:15.466Z</time></trkpt><trkpt lat="42.2703665" lon="14.1541207"><ele>265.0</ele><time>2026-05-01T14:27:16.465Z</time></trkpt><trkpt lat="42.2704228" lon="14.1540166"><ele>266.0</ele><time>2026-05-01T14:27:17.468Z</time></trkpt><trkpt lat="42.2704792" lon="14.1539183"><ele>267.0</ele><time>2026-05-01T14:27:18.467Z</time></trkpt><trkpt lat="42.2705342" lon="14.1538439"><ele>268.0</ele><time>2026-05-01T14:27:19.469Z</time></trkpt><trkpt lat="42.2705956" lon="14.1537752"><ele>269.0</ele><time>2026-05-01T14:27:20.466Z</time></trkpt><trkpt lat="42.2706579" lon="14.1537088"><ele>270.0</ele><time>2026-05-01T14:27:21.47Z</time></trkpt><trkpt lat="42.2707141" lon="14.1536489"><ele>270.0</ele><time>2026-05-01T14:27:22.469Z</time></trkpt><trkpt lat="42.2707628" lon="14.1535857"><ele>270.0</ele><time>2026-05-01T14:27:23.47Z</time></trkpt><trkpt lat="42.2708094" lon="14.1535277"><ele>270.0</ele><time>2026-05-01T14:27:24.467Z</time></trkpt><trkpt lat="42.2708701" lon="14.1534576"><ele>270.0</ele><time>2026-05-01T14:27:26.463Z</time></trkpt><trkpt lat="42.2709215" lon="14.1533977"><ele>270.0</ele><time>2026-05-01T14:27:29.477Z</time></trkpt><trkpt lat="42.2709568" lon="14.1533118"><ele>270.0</ele><time>2026-05-01T14:27:52.468Z</time></trkpt><trkpt lat="42.2710256" lon="14.1531826"><ele>271.5</ele><time>2026-05-01T14:27:54.473Z</time></trkpt><trkpt lat="42.2710754" lon="14.1531003"><ele>273.0</ele><time>2026-05-01T14:27:55.489Z</time></trkpt><trkpt lat="42.2711192" lon="14.1530085"><ele>274.5</ele><time>2026-05-01T14:27:56.478Z</time></trkpt><trkpt lat="42.2711486" lon="14.1529198"><ele>276.0</ele><time>2026-05-01T14:27:57.476Z</time></trkpt><trkpt lat="42.2711569" lon="14.1528111"><ele>277.5</ele><time>2026-05-01T14:27:59.474Z</time></trkpt><trkpt lat="42.2711848" lon="14.1527292"><ele>279.0</ele><time>2026-05-01T14:28:03.475Z</time></trkpt><trkpt lat="42.2712741" lon="14.1527155"><ele>279.0</ele><time>2026-05-01T14:28:06.481Z</time></trkpt><trkpt lat="42.2713435" lon="14.1527242"><ele>279.0</ele><time>2026-05-01T14:28:08.489Z</time></trkpt><trkpt lat="42.2714508" lon="14.1527421"><ele>279.0</ele><time>2026-05-01T14:28:10.474Z</time></trkpt><trkpt lat="42.2715505" lon="14.1527529"><ele>279.0</ele><time>2026-05-01T14:28:12.48Z</time></trkpt><trkpt lat="42.2716558" lon="14.1527473"><ele>279.0</ele><time>2026-05-01T14:28:14.474Z</time></trkpt><trkpt lat="42.2717644" lon="14.1527146"><ele>276.2</ele><time>2026-05-01T14:28:16.472Z</time></trkpt><trkpt lat="42.2718586" lon="14.152725"><ele>273.4</ele><time>2026-05-01T14:28:18.469Z</time></trkpt><trkpt lat="42.2719493" lon="14.1527884"><ele>270.6</ele><time>2026-05-01T14:28:20.477Z</time></trkpt><trkpt lat="42.2720269" lon="14.1528846"><ele>267.8</ele><time>2026-05-01T14:28:22.478Z</time></trkpt><trkpt lat="42.2720912" lon="14.1529861"><ele>265.0</ele><time>2026-05-01T14:28:24.479Z</time></trkpt><trkpt lat="42.2721551" lon="14.1530916"><ele>263.0</ele><time>2026-05-01T14:28:26.471Z</time></trkpt><trkpt lat="42.2722224" lon="14.1532233"><ele>261.0</ele><time>2026-05-01T14:28:28.472Z</time></trkpt><trkpt lat="42.2722795" lon="14.1533576"><ele>259.0</ele><time>2026-05-01T14:28:30.468Z</time></trkpt><trkpt lat="42.2723681" lon="14.153479"><ele>257.0</ele><time>2026-05-01T14:28:32.467Z</time></trkpt><trkpt lat="42.2724139" lon="14.1535406"><ele>255.0</ele><time>2026-05-01T14:28:33.463Z</time></trkpt><trkpt lat="42.2724895" lon="14.1536686"><ele>252.4</ele><time>2026-05-01T14:28:35.469Z</time></trkpt><trkpt lat="42.2725557" lon="14.1537954"><ele>249.8</ele><time>2026-05-01T14:28:37.461Z</time></trkpt><trkpt lat="42.2726184" lon="14.1539004"><ele>247.2</ele><time>2026-05-01T14:28:39.477Z</time></trkpt><trkpt lat="42.2726865" lon="14.153973"><ele>244.6</ele><time>2026-05-01T14:28:41.483Z</time></trkpt><trkpt lat="42.2727664" lon="14.1540364"><ele>242.0</ele><time>2026-05-01T14:28:43.474Z</time></trkpt><trkpt lat="42.2728482" lon="14.1541245"><ele>239.39999999999998</ele><time>2026-05-01T14:28:45.472Z</time></trkpt><trkpt lat="42.2729435" lon="14.1542086"><ele>236.79999999999998</ele><time>2026-05-01T14:28:47.471Z</time></trkpt><trkpt lat="42.2730404" lon="14.1542813"><ele>234.2</ele><time>2026-05-01T14:28:49.476Z</time></trkpt><trkpt lat="42.2731474" lon="14.1543447"><ele>231.6</ele><time>2026-05-01T14:28:51.483Z</time></trkpt><trkpt lat="42.2732026" lon="14.1543863"><ele>229.0</ele><time>2026-05-01T14:28:52.481Z</time></trkpt><trkpt lat="42.273311" lon="14.1544548"><ele>226.49999999999997</ele><time>2026-05-01T14:28:54.476Z</time></trkpt><trkpt lat="42.2733761" lon="14.1545678"><ele>224.0</ele><time>2026-05-01T14:28:56.474Z</time></trkpt><trkpt lat="42.2734068" lon="14.1546515"><ele>221.5</ele><time>2026-05-01T14:28:58.48Z</time></trkpt><trkpt lat="42.2734273" lon="14.1547351"><ele>219.0</ele><time>2026-05-01T14:29:00.475Z</time></trkpt><trkpt lat="42.273435" lon="14.1548354"><ele>216.49999999999997</ele><time>2026-05-01T14:29:02.48Z</time></trkpt><trkpt lat="42.2734457" lon="14.154949"><ele>214.0</ele><time>2026-05-01T14:29:05.47Z</time></trkpt><trkpt lat="42.273487" lon="14.1550268"><ele>211.0</ele><time>2026-05-01T14:29:07.468Z</time></trkpt><trkpt lat="42.2735527" lon="14.1551163"><ele>207.99999999999997</ele><time>2026-05-01T14:29:09.46Z</time></trkpt><trkpt lat="42.2736499" lon="14.155201"><ele>205.0</ele><time>2026-05-01T14:29:11.455Z</time></trkpt><trkpt lat="42.273757" lon="14.1552711"><ele>202.0</ele><time>2026-05-01T14:29:13.47Z</time></trkpt><trkpt lat="42.273856" lon="14.1553357"><ele>199.0</ele><time>2026-05-01T14:29:15.474Z</time></trkpt><trkpt lat="42.2739315" lon="14.1554707"><ele>197.83333333333331</ele><time>2026-05-01T14:29:17.473Z</time></trkpt><trkpt lat="42.2739729" lon="14.155547"><ele>196.66666666666666</ele><time>2026-05-01T14:29:18.474Z</time></trkpt><trkpt lat="42.2739975" lon="14.1556256"><ele>195.5</ele><time>2026-05-01T14:29:19.478Z</time></trkpt><trkpt lat="42.2740873" lon="14.1557032"><ele>194.33333333333331</ele><time>2026-05-01T14:29:21.483Z</time></trkpt><trkpt lat="42.2741839" lon="14.1557373"><ele>193.16666666666666</ele><time>2026-05-01T14:29:23.473Z</time></trkpt><trkpt lat="42.2742398" lon="14.1558302"><ele>192.0</ele><time>2026-05-01T14:29:25.473Z</time></trkpt><trkpt lat="42.2742685" lon="14.1559339"><ele>191.0</ele><time>2026-05-01T14:29:27.476Z</time></trkpt><trkpt lat="42.2743005" lon="14.1560613"><ele>190.0</ele><time>2026-05-01T14:29:29.477Z</time></trkpt><trkpt lat="42.2743437" lon="14.1561993"><ele>189.0</ele><time>2026-05-01T14:29:31.49Z</time></trkpt><trkpt lat="42.2743808" lon="14.1563125"><ele>188.0</ele><time>2026-05-01T14:29:33.48Z</time></trkpt><trkpt lat="42.2744126" lon="14.1563997"><ele>187.0</ele><time>2026-05-01T14:29:35.471Z</time></trkpt><trkpt lat="42.2744266" lon="14.1564886"><ele>186.0</ele><time>2026-05-01T14:29:37.474Z</time></trkpt><trkpt lat="42.2744647" lon="14.1565602"><ele>183.57142857142858</ele><time>2026-05-01T14:29:39.475Z</time></trkpt><trkpt lat="42.2745352" lon="14.1566287"><ele>181.14285714285714</ele><time>2026-05-01T14:29:42.472Z</time></trkpt><trkpt lat="42.2745928" lon="14.1566834"><ele>178.71428571428572</ele><time>2026-05-01T14:29:45.479Z</time></trkpt><trkpt lat="42.2746569" lon="14.1566985"><ele>176.28571428571428</ele><time>2026-05-01T14:29:48.469Z</time></trkpt><trkpt lat="42.2747251" lon="14.1566733"><ele>173.85714285714286</ele><time>2026-05-01T14:29:52.464Z</time></trkpt><trkpt lat="42.2747982" lon="14.1566357"><ele>171.42857142857144</ele><time>2026-05-01T14:29:55.465Z</time></trkpt><trkpt lat="42.2748626" lon="14.1565991"><ele>169.0</ele><time>2026-05-01T14:30:02.462Z</time></trkpt><trkpt lat="42.2749394" lon="14.1565969"><ele>169.83333333333334</ele><time>2026-05-01T14:30:08.472Z</time></trkpt><trkpt lat="42.2750185" lon="14.1565953"><ele>170.66666666666669</ele><time>2026-05-01T14:30:11.466Z</time></trkpt><trkpt lat="42.275088" lon="14.1565738"><ele>171.5</ele><time>2026-05-01T14:30:14.466Z</time></trkpt><trkpt lat="42.2751629" lon="14.1565228"><ele>172.33333333333334</ele><time>2026-05-01T14:30:17.463Z</time></trkpt><trkpt lat="42.2752285" lon="14.1564752"><ele>173.16666666666666</ele><time>2026-05-01T14:30:20.452Z</time></trkpt><trkpt lat="42.2752973" lon="14.1564355"><ele>174.0</ele><time>2026-05-01T14:30:23.447Z</time></trkpt><trkpt lat="42.2753795" lon="14.156444"><ele>174.0</ele><time>2026-05-01T14:30:26.445Z</time></trkpt><trkpt lat="42.2754244" lon="14.1565129"><ele>174.0</ele><time>2026-05-01T14:30:28.442Z</time></trkpt><trkpt lat="42.2754797" lon="14.156656"><ele>174.0</ele><time>2026-05-01T14:30:30.442Z</time></trkpt><trkpt lat="42.2755334" lon="14.1568083"><ele>174.0</ele><time>2026-05-01T14:30:32.456Z</time></trkpt><trkpt lat="42.2756428" lon="14.1568564"><ele>174.0</ele><time>2026-05-01T14:30:34.463Z</time></trkpt><trkpt lat="42.2757087" lon="14.1568357"><ele>172.39999999999998</ele><time>2026-05-01T14:30:35.456Z</time></trkpt><trkpt lat="42.2758109" lon="14.1567656"><ele>170.8</ele><time>2026-05-01T14:30:37.461Z</time></trkpt><trkpt lat="42.2759138" lon="14.1566544"><ele>169.2</ele><time>2026-05-01T14:30:39.468Z</time></trkpt><trkpt lat="42.2759657" lon="14.1565938"><ele>167.60000000000002</ele><time>2026-05-01T14:30:40.453Z</time></trkpt><trkpt lat="42.2760493" lon="14.1565146"><ele>166.0</ele><time>2026-05-01T14:30:42.457Z</time></trkpt><trkpt lat="42.2761168" lon="14.1564708"><ele>166.0</ele><time>2026-05-01T14:30:44.466Z</time></trkpt><trkpt lat="42.276206" lon="14.1564225"><ele>166.0</ele><time>2026-05-01T14:30:46.462Z</time></trkpt><trkpt lat="42.2763169" lon="14.1563489"><ele>166.0</ele><time>2026-05-01T14:30:48.462Z</time></trkpt><trkpt lat="42.2764147" lon="14.1562764"><ele>166.0</ele><time>2026-05-01T14:30:50.469Z</time></trkpt><trkpt lat="42.276506" lon="14.1562062"><ele>166.0</ele><time>2026-05-01T14:30:52.465Z</time></trkpt><trkpt lat="42.276597" lon="14.1561182"><ele>164.33333333333334</ele><time>2026-05-01T14:30:54.461Z</time></trkpt><trkpt lat="42.2766623" lon="14.1560832"><ele>162.66666666666669</ele><time>2026-05-01T14:30:55.478Z</time></trkpt><trkpt lat="42.2767331" lon="14.156043"><ele>161.0</ele><time>2026-05-01T14:30:56.468Z</time></trkpt><trkpt lat="42.2768096" lon="14.1560024"><ele>159.33333333333334</ele><time>2026-05-01T14:30:57.47Z</time></trkpt><trkpt lat="42.2768931" lon="14.1559617"><ele>157.66666666666666</ele><time>2026-05-01T14:30:58.461Z</time></trkpt><trkpt lat="42.2769711" lon="14.1559137"><ele>156.0</ele><time>2026-05-01T14:30:59.465Z</time></trkpt><trkpt lat="42.2770508" lon="14.1558741"><ele>156.0</ele><time>2026-05-01T14:31:00.465Z</time></trkpt><trkpt lat="42.2771405" lon="14.1558178"><ele>156.0</ele><time>2026-05-01T14:31:01.476Z</time></trkpt><trkpt lat="42.2772194" lon="14.1557646"><ele>156.0</ele><time>2026-05-01T14:31:02.458Z</time></trkpt><trkpt lat="42.2772785" lon="14.1557349"><ele>156.0</ele><time>2026-05-01T14:31:03.462Z</time></trkpt><trkpt lat="42.2773569" lon="14.1557013"><ele>156.0</ele><time>2026-05-01T14:31:05.469Z</time></trkpt><trkpt lat="42.2774371" lon="14.1556664"><ele>156.0</ele><time>2026-05-01T14:31:07.457Z</time></trkpt><trkpt lat="42.277533" lon="14.1556117"><ele>156.0</ele><time>2026-05-01T14:31:09.456Z</time></trkpt><trkpt lat="42.2775981" lon="14.1555708"><ele>156.0</ele><time>2026-05-01T14:31:10.47Z</time></trkpt><trkpt lat="42.2776711" lon="14.1555319"><ele>156.0</ele><time>2026-05-01T14:31:11.464Z</time></trkpt><trkpt lat="42.2777386" lon="14.1554893"><ele>156.0</ele><time>2026-05-01T14:31:12.466Z</time></trkpt><trkpt lat="42.2778157" lon="14.1554321"><ele>156.0</ele><time>2026-05-01T14:31:13.472Z</time></trkpt><trkpt lat="42.2778977" lon="14.1553716"><ele>156.0</ele><time>2026-05-01T14:31:14.471Z</time></trkpt><trkpt lat="42.2779846" lon="14.155327"><ele>156.0</ele><time>2026-05-01T14:31:15.472Z</time></trkpt><trkpt lat="42.2780696" lon="14.1552787"><ele>156.0</ele><time>2026-05-01T14:31:16.476Z</time></trkpt><trkpt lat="42.2781561" lon="14.1552254"><ele>156.0</ele><time>2026-05-01T14:31:17.47Z</time></trkpt><trkpt lat="42.278243" lon="14.155173"><ele>156.0</ele><time>2026-05-01T14:31:18.471Z</time></trkpt><trkpt lat="42.2783242" lon="14.1551358"><ele>156.0</ele><time>2026-05-01T14:31:19.468Z</time></trkpt><trkpt lat="42.2784043" lon="14.155109"><ele>155.0</ele><time>2026-05-01T14:31:20.47Z</time></trkpt><trkpt lat="42.2784854" lon="14.1550876"><ele>154.0</ele><time>2026-05-01T14:31:21.479Z</time></trkpt><trkpt lat="42.2785683" lon="14.1550528"><ele>153.0</ele><time>2026-05-01T14:31:22.473Z</time></trkpt><trkpt lat="42.2786583" lon="14.1550054"><ele>152.0</ele><time>2026-05-01T14:31:23.474Z</time></trkpt><trkpt lat="42.2787394" lon="14.1549468"><ele>151.0</ele><time>2026-05-01T14:31:24.466Z</time></trkpt><trkpt lat="42.2788163" lon="14.1548929"><ele>150.0</ele><time>2026-05-01T14:31:25.47Z</time></trkpt><trkpt lat="42.2788936" lon="14.1548405"><ele>148.2</ele><time>2026-05-01T14:31:26.466Z</time></trkpt><trkpt lat="42.2789773" lon="14.1547743"><ele>146.4</ele><time>2026-05-01T14:31:27.465Z</time></trkpt><trkpt lat="42.2790661" lon="14.154714"><ele>144.6</ele><time>2026-05-01T14:31:28.458Z</time></trkpt><trkpt lat="42.2791727" lon="14.1546436"><ele>142.8</ele><time>2026-05-01T14:31:29.47Z</time></trkpt><trkpt lat="42.2792836" lon="14.154575"><ele>141.0</ele><time>2026-05-01T14:31:30.463Z</time></trkpt><trkpt lat="42.2793858" lon="14.1545038"><ele>141.0</ele><time>2026-05-01T14:31:31.476Z</time></trkpt><trkpt lat="42.2794814" lon="14.1544481"><ele>141.0</ele><time>2026-05-01T14:31:32.458Z</time></trkpt><trkpt lat="42.2795639" lon="14.1543942"><ele>141.0</ele><time>2026-05-01T14:31:33.467Z</time></trkpt><trkpt lat="42.2796373" lon="14.1543514"><ele>141.0</ele><time>2026-05-01T14:31:34.451Z</time></trkpt><trkpt lat="42.2797183" lon="14.1543172"><ele>141.0</ele><time>2026-05-01T14:31:35.457Z</time></trkpt><trkpt lat="42.2798066" lon="14.1542719"><ele>141.4</ele><time>2026-05-01T14:31:36.468Z</time></trkpt><trkpt lat="42.2799011" lon="14.1542218"><ele>141.8</ele><time>2026-05-01T14:31:37.459Z</time></trkpt><trkpt lat="42.2799944" lon="14.1541733"><ele>142.20000000000002</ele><time>2026-05-01T14:31:38.467Z</time></trkpt><trkpt lat="42.280092" lon="14.154121"><ele>142.6</ele><time>2026-05-01T14:31:39.457Z</time></trkpt><trkpt lat="42.2801862" lon="14.1540672"><ele>143.0</ele><time>2026-05-01T14:31:40.458Z</time></trkpt><trkpt lat="42.2802688" lon="14.1540152"><ele>143.0</ele><time>2026-05-01T14:31:41.462Z</time></trkpt><trkpt lat="42.2803477" lon="14.1539651"><ele>143.0</ele><time>2026-05-01T14:31:42.466Z</time></trkpt><trkpt lat="42.2804261" lon="14.153913"><ele>143.0</ele><time>2026-05-01T14:31:43.462Z</time></trkpt><trkpt lat="42.2805074" lon="14.1538571"><ele>143.0</ele><time>2026-05-01T14:31:44.464Z</time></trkpt><trkpt lat="42.2805928" lon="14.153807"><ele>143.0</ele><time>2026-05-01T14:31:45.458Z</time></trkpt><trkpt lat="42.2806794" lon="14.153766"><ele>141.33333333333331</ele><time>2026-05-01T14:31:46.463Z</time></trkpt><trkpt lat="42.2807709" lon="14.1537297"><ele>139.66666666666666</ele><time>2026-05-01T14:31:47.469Z</time></trkpt><trkpt lat="42.2808582" lon="14.1536967"><ele>138.0</ele><time>2026-05-01T14:31:48.455Z</time></trkpt><trkpt lat="42.2809386" lon="14.1536674"><ele>136.33333333333334</ele><time>2026-05-01T14:31:49.466Z</time></trkpt><trkpt lat="42.2810014" lon="14.1536426"><ele>134.66666666666669</ele><time>2026-05-01T14:31:50.457Z</time></trkpt><trkpt lat="42.281112" lon="14.1536094"><ele>133.0</ele><time>2026-05-01T14:31:52.455Z</time></trkpt><trkpt lat="42.281214" lon="14.1535818"><ele>133.0</ele><time>2026-05-01T14:31:54.457Z</time></trkpt><trkpt lat="42.2813175" lon="14.1535646"><ele>133.0</ele><time>2026-05-01T14:31:56.456Z</time></trkpt><trkpt lat="42.2814326" lon="14.1535179"><ele>133.0</ele><time>2026-05-01T14:31:58.457Z</time></trkpt><trkpt lat="42.2814921" lon="14.1534642"><ele>133.0</ele><time>2026-05-01T14:31:59.467Z</time></trkpt><trkpt lat="42.2815489" lon="14.1533957"><ele>133.0</ele><time>2026-05-01T14:32:00.457Z</time></trkpt><trkpt lat="42.2816024" lon="14.1533138"><ele>130.8</ele><time>2026-05-01T14:32:01.473Z</time></trkpt><trkpt lat="42.2816731" lon="14.1532301"><ele>128.60000000000002</ele><time>2026-05-01T14:32:02.461Z</time></trkpt><trkpt lat="42.2817528" lon="14.1531588"><ele>126.39999999999999</ele><time>2026-05-01T14:32:03.457Z</time></trkpt><trkpt lat="42.2818566" lon="14.1531067"><ele>124.19999999999999</ele><time>2026-05-01T14:32:04.463Z</time></trkpt><trkpt lat="42.2819557" lon="14.1530702"><ele>122.0</ele><time>2026-05-01T14:32:05.459Z</time></trkpt><trkpt lat="42.2820626" lon="14.153044"><ele>121.6</ele><time>2026-05-01T14:32:06.466Z</time></trkpt><trkpt lat="42.2821663" lon="14.1530144"><ele>121.19999999999999</ele><time>2026-05-01T14:32:07.463Z</time></trkpt><trkpt lat="42.2822582" lon="14.1529906"><ele>120.8</ele><time>2026-05-01T14:32:08.456Z</time></trkpt><trkpt lat="42.2823462" lon="14.1529683"><ele>120.4</ele><time>2026-05-01T14:32:09.46Z</time></trkpt><trkpt lat="42.2824166" lon="14.1529641"><ele>120.0</ele><time>2026-05-01T14:32:10.453Z</time></trkpt><trkpt lat="42.2825076" lon="14.1529771"><ele>119.5</ele><time>2026-05-01T14:32:12.455Z</time></trkpt><trkpt lat="42.2825811" lon="14.1529903"><ele>119.0</ele><time>2026-05-01T14:32:15.467Z</time></trkpt><trkpt lat="42.2826091" lon="14.1529026"><ele>118.5</ele><time>2026-05-01T14:32:19.458Z</time></trkpt><trkpt lat="42.2825915" lon="14.1528123"><ele>118.0</ele><time>2026-05-01T14:32:21.464Z</time></trkpt><trkpt lat="42.2825778" lon="14.1527167"><ele>117.5</ele><time>2026-05-01T14:32:23.469Z</time></trkpt><trkpt lat="42.2825466" lon="14.1525578"><ele>117.0</ele><time>2026-05-01T14:32:25.455Z</time></trkpt><trkpt lat="42.2824854" lon="14.1524223"><ele>117.39999999999999</ele><time>2026-05-01T14:32:27.466Z</time></trkpt><trkpt lat="42.2824221" lon="14.152286"><ele>117.79999999999998</ele><time>2026-05-01T14:32:29.466Z</time></trkpt><trkpt lat="42.2823606" lon="14.1521581"><ele>118.2</ele><time>2026-05-01T14:32:31.46Z</time></trkpt><trkpt lat="42.2824313" lon="14.152137"><ele>118.6</ele><time>2026-05-01T14:32:39.457Z</time></trkpt><trkpt lat="42.2824956" lon="14.1521377"><ele>119.0</ele><time>2026-05-01T14:32:41.458Z</time></trkpt><trkpt lat="42.2825848" lon="14.1521346"><ele>119.0</ele><time>2026-05-01T14:32:43.463Z</time></trkpt><trkpt lat="42.2826751" lon="14.1521485"><ele>119.0</ele><time>2026-05-01T14:32:46.469Z</time></trkpt><trkpt lat="42.2827895" lon="14.1521812"><ele>119.0</ele><time>2026-05-01T14:33:02.459Z</time></trkpt><trkpt lat="42.2828676" lon="14.152186"><ele>119.0</ele><time>2026-05-01T14:33:03.471Z</time></trkpt><trkpt lat="42.2829488" lon="14.1521681"><ele>119.0</ele><time>2026-05-01T14:33:04.459Z</time></trkpt><trkpt lat="42.2830225" lon="14.1521102"><ele>119.0</ele><time>2026-05-01T14:33:05.464Z</time></trkpt><trkpt lat="42.2830812" lon="14.152011"><ele>119.0</ele><time>2026-05-01T14:33:06.466Z</time></trkpt><trkpt lat="42.2831136" lon="14.1518861"><ele>119.0</ele><time>2026-05-01T14:33:07.462Z</time></trkpt><trkpt lat="42.2831437" lon="14.1517431"><ele>119.0</ele><time>2026-05-01T14:33:08.461Z</time></trkpt><trkpt lat="42.2831655" lon="14.1516044"><ele>119.0</ele><time>2026-05-01T14:33:09.464Z</time></trkpt><trkpt lat="42.2831849" lon="14.151479"><ele>121.99999999999999</ele><time>2026-05-01T14:33:10.466Z</time></trkpt><trkpt lat="42.2832078" lon="14.1513669"><ele>125.0</ele><time>2026-05-01T14:33:11.467Z</time></trkpt><trkpt lat="42.2832332" lon="14.1512743"><ele>128.0</ele><time>2026-05-01T14:33:12.463Z</time></trkpt><trkpt lat="42.283279" lon="14.1511419"><ele>131.0</ele><time>2026-05-01T14:33:14.464Z</time></trkpt><trkpt lat="42.2833013" lon="14.1510505"><ele>134.0</ele><time>2026-05-01T14:33:17.465Z</time></trkpt><trkpt lat="42.2832614" lon="14.1509736"><ele>137.0</ele><time>2026-05-01T14:33:19.46Z</time></trkpt><trkpt lat="42.2831993" lon="14.1509535"><ele>137.0</ele><time>2026-05-01T14:33:21.465Z</time></trkpt><trkpt lat="42.2831223" lon="14.150904"><ele>137.0</ele><time>2026-05-01T14:33:23.471Z</time></trkpt><trkpt lat="42.2829965" lon="14.1508309"><ele>137.0</ele><time>2026-05-01T14:33:25.46Z</time></trkpt><trkpt lat="42.2829087" lon="14.1507762"><ele>137.0</ele><time>2026-05-01T14:33:26.468Z</time></trkpt><trkpt lat="42.2828096" lon="14.1507076"><ele>137.0</ele><time>2026-05-01T14:33:27.458Z</time></trkpt><trkpt lat="42.2827076" lon="14.1506095"><ele>135.75</ele><time>2026-05-01T14:33:28.466Z</time></trkpt><trkpt lat="42.2826064" lon="14.1504813"><ele>134.5</ele><time>2026-05-01T14:33:29.467Z</time></trkpt><trkpt lat="42.2825095" lon="14.1503317"><ele>133.25</ele><time>2026-05-01T14:33:30.465Z</time></trkpt><trkpt lat="42.2824203" lon="14.1501668"><ele>132.0</ele><time>2026-05-01T14:33:31.471Z</time></trkpt><trkpt lat="42.2823434" lon="14.1499676"><ele>129.33333333333334</ele><time>2026-05-01T14:33:32.467Z</time></trkpt><trkpt lat="42.28225" lon="14.1497851"><ele>126.66666666666667</ele><time>2026-05-01T14:33:33.464Z</time></trkpt><trkpt lat="42.2821519" lon="14.1496216"><ele>124.0</ele><time>2026-05-01T14:33:34.47Z</time></trkpt><trkpt lat="42.282067" lon="14.1494555"><ele>124.0</ele><time>2026-05-01T14:33:35.463Z</time></trkpt><trkpt lat="42.2819969" lon="14.1493128"><ele>124.0</ele><time>2026-05-01T14:33:36.472Z</time></trkpt><trkpt lat="42.2819309" lon="14.1491677"><ele>124.0</ele><time>2026-05-01T14:33:37.46Z</time></trkpt><trkpt lat="42.2818414" lon="14.149022"><ele>124.0</ele><time>2026-05-01T14:33:38.476Z</time></trkpt><trkpt lat="42.2817731" lon="14.1488655"><ele>125.33333333333334</ele><time>2026-05-01T14:33:39.466Z</time></trkpt><trkpt lat="42.2816959" lon="14.148693"><ele>126.66666666666666</ele><time>2026-05-01T14:33:40.46Z</time></trkpt><trkpt lat="42.281612" lon="14.1485047"><ele>128.0</ele><time>2026-05-01T14:33:41.469Z</time></trkpt><trkpt lat="42.2815121" lon="14.1483159"><ele>128.25</ele><time>2026-05-01T14:33:42.457Z</time></trkpt><trkpt lat="42.2814327" lon="14.148133"><ele>128.5</ele><time>2026-05-01T14:33:43.452Z</time></trkpt><trkpt lat="42.2813652" lon="14.1479834"><ele>128.75</ele><time>2026-05-01T14:33:44.452Z</time></trkpt><trkpt lat="42.2812963" lon="14.1478526"><ele>129.0</ele><time>2026-05-01T14:33:45.453Z</time></trkpt><trkpt lat="42.2812528" lon="14.1477414"><ele>129.0</ele><time>2026-05-01T14:33:46.454Z</time></trkpt><trkpt lat="42.2812267" lon="14.1476476"><ele>129.0</ele><time>2026-05-01T14:33:47.457Z</time></trkpt><trkpt lat="42.2812689" lon="14.1475806"><ele>129.0</ele><time>2026-05-01T14:33:51.465Z</time></trkpt><trkpt lat="42.2813532" lon="14.1475092"><ele>129.0</ele><time>2026-05-01T14:33:54.457Z</time></trkpt><trkpt lat="42.2814381" lon="14.1474379"><ele>129.0</ele><time>2026-05-01T14:33:56.462Z</time></trkpt><trkpt lat="42.2815121" lon="14.1473497"><ele>129.0</ele><time>2026-05-01T14:33:58.462Z</time></trkpt><trkpt lat="42.2815808" lon="14.1472315"><ele>129.33333333333334</ele><time>2026-05-01T14:34:00.46Z</time></trkpt><trkpt lat="42.2816193" lon="14.1471496"><ele>129.66666666666666</ele><time>2026-05-01T14:34:01.478Z</time></trkpt><trkpt lat="42.2816589" lon="14.1470593"><ele>130.0</ele><time>2026-05-01T14:34:02.458Z</time></trkpt><trkpt lat="42.2816849" lon="14.1469675"><ele>130.33333333333331</ele><time>2026-05-01T14:34:03.459Z</time></trkpt><trkpt lat="42.2816752" lon="14.1468238"><ele>130.66666666666666</ele><time>2026-05-01T14:34:05.465Z</time></trkpt><trkpt lat="42.2816478" lon="14.1466918"><ele>131.0</ele><time>2026-05-01T14:34:07.471Z</time></trkpt><trkpt lat="42.28162" lon="14.1465217"><ele>131.83333333333331</ele><time>2026-05-01T14:34:09.461Z</time></trkpt><trkpt lat="42.2815936" lon="14.1464146"><ele>132.66666666666666</ele><time>2026-05-01T14:34:10.458Z</time></trkpt><trkpt lat="42.2815666" lon="14.1463073"><ele>133.5</ele><time>2026-05-01T14:34:11.464Z</time></trkpt><trkpt lat="42.2815353" lon="14.1462132"><ele>134.33333333333334</ele><time>2026-05-01T14:34:12.456Z</time></trkpt><trkpt lat="42.2815118" lon="14.1461253"><ele>135.16666666666669</ele><time>2026-05-01T14:34:13.464Z</time></trkpt><trkpt lat="42.2814864" lon="14.145995"><ele>136.0</ele><time>2026-05-01T14:34:15.458Z</time></trkpt><trkpt lat="42.2814529" lon="14.145864"><ele>135.33333333333334</ele><time>2026-05-01T14:34:20.465Z</time></trkpt><trkpt lat="42.2814236" lon="14.1457556"><ele>134.66666666666669</ele><time>2026-05-01T14:34:23.459Z</time></trkpt><trkpt lat="42.2813782" lon="14.1456261"><ele>134.0</ele><time>2026-05-01T14:34:25.464Z</time></trkpt><trkpt lat="42.281328" lon="14.1455506"><ele>133.33333333333334</ele><time>2026-05-01T14:34:26.467Z</time></trkpt><trkpt lat="42.2812821" lon="14.145473"><ele>132.66666666666666</ele><time>2026-05-01T14:34:27.466Z</time></trkpt><trkpt lat="42.2812478" lon="14.1453978"><ele>132.0</ele><time>2026-05-01T14:34:28.477Z</time></trkpt><trkpt lat="42.2812206" lon="14.1453166"><ele>133.66666666666666</ele><time>2026-05-01T14:34:29.469Z</time></trkpt><trkpt lat="42.2812116" lon="14.1451453"><ele>135.33333333333334</ele><time>2026-05-01T14:34:31.477Z</time></trkpt><trkpt lat="42.2812235" lon="14.1450449"><ele>137.0</ele><time>2026-05-01T14:34:32.468Z</time></trkpt><trkpt lat="42.2812405" lon="14.1449489"><ele>138.66666666666669</ele><time>2026-05-01T14:34:33.476Z</time></trkpt><trkpt lat="42.2812513" lon="14.1448386"><ele>140.33333333333334</ele><time>2026-05-01T14:34:34.465Z</time></trkpt><trkpt lat="42.2812729" lon="14.1447188"><ele>142.0</ele><time>2026-05-01T14:34:35.469Z</time></trkpt><trkpt lat="42.2812906" lon="14.1446037"><ele>143.33333333333334</ele><time>2026-05-01T14:34:36.468Z</time></trkpt><trkpt lat="42.2813023" lon="14.1444998"><ele>144.66666666666669</ele><time>2026-05-01T14:34:37.469Z</time></trkpt><trkpt lat="42.2813126" lon="14.1444033"><ele>146.0</ele><time>2026-05-01T14:34:38.473Z</time></trkpt><trkpt lat="42.281322" lon="14.1443181"><ele>147.33333333333334</ele><time>2026-05-01T14:34:39.486Z</time></trkpt><trkpt lat="42.2813291" lon="14.1442323"><ele>148.66666666666666</ele><time>2026-05-01T14:34:40.471Z</time></trkpt><trkpt lat="42.281346" lon="14.1440721"><ele>150.0</ele><time>2026-05-01T14:34:42.47Z</time></trkpt><trkpt lat="42.2813573" lon="14.1439152"><ele>152.2</ele><time>2026-05-01T14:34:44.473Z</time></trkpt><trkpt lat="42.2813772" lon="14.1437697"><ele>154.4</ele><time>2026-05-01T14:34:46.471Z</time></trkpt><trkpt lat="42.2813939" lon="14.1436715"><ele>156.60000000000002</ele><time>2026-05-01T14:34:48.472Z</time></trkpt><trkpt lat="42.2814065" lon="14.1435344"><ele>158.8</ele><time>2026-05-01T14:34:51.479Z</time></trkpt><trkpt lat="42.2813886" lon="14.1434055"><ele>161.0</ele><time>2026-05-01T14:34:53.478Z</time></trkpt><trkpt lat="42.2813533" lon="14.143263"><ele>162.8</ele><time>2026-05-01T14:34:55.468Z</time></trkpt><trkpt lat="42.2813135" lon="14.1431209"><ele>164.60000000000002</ele><time>2026-05-01T14:34:57.469Z</time></trkpt><trkpt lat="42.2812702" lon="14.1429661"><ele>166.4</ele><time>2026-05-01T14:34:59.467Z</time></trkpt><trkpt lat="42.2812644" lon="14.1428233"><ele>168.2</ele><time>2026-05-01T14:35:01.471Z</time></trkpt><trkpt lat="42.2813584" lon="14.1427503"><ele>170.0</ele><time>2026-05-01T14:35:03.46Z</time></trkpt><trkpt lat="42.2814644" lon="14.1426556"><ele>170.0</ele><time>2026-05-01T14:35:05.459Z</time></trkpt><trkpt lat="42.2815258" lon="14.1425828"><ele>170.0</ele><time>2026-05-01T14:35:06.457Z</time></trkpt><trkpt lat="42.2815789" lon="14.1425231"><ele>170.0</ele><time>2026-05-01T14:35:07.468Z</time></trkpt><trkpt lat="42.2816346" lon="14.1424218"><ele>170.0</ele><time>2026-05-01T14:35:09.463Z</time></trkpt><trkpt lat="42.2815937" lon="14.1423543"><ele>170.0</ele><time>2026-05-01T14:35:11.461Z</time></trkpt><trkpt lat="42.2814753" lon="14.1423159"><ele>170.0</ele><time>2026-05-01T14:35:13.475Z</time></trkpt><trkpt lat="42.2814005" lon="14.1422998"><ele>173.66666666666666</ele><time>2026-05-01T14:35:14.468Z</time></trkpt><trkpt lat="42.2813229" lon="14.1422869"><ele>177.33333333333331</ele><time>2026-05-01T14:35:15.471Z</time></trkpt><trkpt lat="42.2812538" lon="14.1422658"><ele>181.0</ele><time>2026-05-01T14:35:16.461Z</time></trkpt><trkpt lat="42.2811769" lon="14.1422326"><ele>184.66666666666666</ele><time>2026-05-01T14:35:17.465Z</time></trkpt><trkpt lat="42.2811125" lon="14.1422055"><ele>188.33333333333334</ele><time>2026-05-01T14:35:18.455Z</time></trkpt><trkpt lat="42.2810146" lon="14.1421329"><ele>192.0</ele><time>2026-05-01T14:35:20.465Z</time></trkpt><trkpt lat="42.2809567" lon="14.1420289"><ele>192.0</ele><time>2026-05-01T14:35:22.47Z</time></trkpt><trkpt lat="42.2809415" lon="14.1418803"><ele>192.0</ele><time>2026-05-01T14:35:24.461Z</time></trkpt><trkpt lat="42.2809343" lon="14.1417499"><ele>192.0</ele><time>2026-05-01T14:35:26.46Z</time></trkpt><trkpt lat="42.2809079" lon="14.1415985"><ele>192.0</ele><time>2026-05-01T14:35:28.456Z</time></trkpt><trkpt lat="42.2808951" lon="14.1414313"><ele>192.0</ele><time>2026-05-01T14:35:30.473Z</time></trkpt><trkpt lat="42.2808802" lon="14.1413374"><ele>192.0</ele><time>2026-05-01T14:35:31.472Z</time></trkpt><trkpt lat="42.2808618" lon="14.1412471"><ele>192.0</ele><time>2026-05-01T14:35:32.476Z</time></trkpt><trkpt lat="42.2808413" lon="14.1411564"><ele>192.0</ele><time>2026-05-01T14:35:33.471Z</time></trkpt><trkpt lat="42.2808261" lon="14.1410631"><ele>192.0</ele><time>2026-05-01T14:35:34.467Z</time></trkpt><trkpt lat="42.280813" lon="14.1409391"><ele>192.0</ele><time>2026-05-01T14:35:36.472Z</time></trkpt><trkpt lat="42.2808932" lon="14.1409159"><ele>192.0</ele><time>2026-05-01T14:35:39.468Z</time></trkpt><trkpt lat="42.2809601" lon="14.1408945"><ele>192.0</ele><time>2026-05-01T14:35:40.47Z</time></trkpt><trkpt lat="42.2810375" lon="14.1408653"><ele>192.0</ele><time>2026-05-01T14:35:41.471Z</time></trkpt><trkpt lat="42.2811216" lon="14.1408313"><ele>192.0</ele><time>2026-05-01T14:35:42.463Z</time></trkpt><trkpt lat="42.2812004" lon="14.1407983"><ele>192.0</ele><time>2026-05-01T14:35:43.467Z</time></trkpt><trkpt lat="42.2812772" lon="14.1407569"><ele>192.0</ele><time>2026-05-01T14:35:44.468Z</time></trkpt><trkpt lat="42.2813575" lon="14.1407251"><ele>192.0</ele><time>2026-05-01T14:35:45.465Z</time></trkpt><trkpt lat="42.2814405" lon="14.1406912"><ele>194.83333333333334</ele><time>2026-05-01T14:35:46.467Z</time></trkpt><trkpt lat="42.281519" lon="14.1406549"><ele>197.66666666666669</ele><time>2026-05-01T14:35:47.474Z</time></trkpt><trkpt lat="42.2815851" lon="14.1406225"><ele>200.5</ele><time>2026-05-01T14:35:48.464Z</time></trkpt><trkpt lat="42.2816481" lon="14.1405842"><ele>203.33333333333334</ele><time>2026-05-01T14:35:49.475Z</time></trkpt><trkpt lat="42.2817013" lon="14.1405317"><ele>206.16666666666669</ele><time>2026-05-01T14:35:50.465Z</time></trkpt><trkpt lat="42.2817626" lon="14.1404564"><ele>209.0</ele><time>2026-05-01T14:35:51.472Z</time></trkpt><trkpt lat="42.2818225" lon="14.1403769"><ele>209.00000000000003</ele><time>2026-05-01T14:35:52.473Z</time></trkpt><trkpt lat="42.2818739" lon="14.1402952"><ele>209.0</ele><time>2026-05-01T14:35:53.472Z</time></trkpt><trkpt lat="42.2819254" lon="14.1402241"><ele>209.0</ele><time>2026-05-01T14:35:54.471Z</time></trkpt><trkpt lat="42.2819667" lon="14.1401536"><ele>209.0</ele><time>2026-05-01T14:35:55.471Z</time></trkpt><trkpt lat="42.2820364" lon="14.1400506"><ele>209.00000000000003</ele><time>2026-05-01T14:35:57.47Z</time></trkpt><trkpt lat="42.2821026" lon="14.1399709"><ele>209.0</ele><time>2026-05-01T14:36:00.468Z</time></trkpt><trkpt lat="42.2821744" lon="14.1398527"><ele>209.79999999999998</ele><time>2026-05-01T14:36:48.467Z</time></trkpt><trkpt lat="42.2822424" lon="14.1397734"><ele>210.6</ele><time>2026-05-01T14:36:49.468Z</time></trkpt><trkpt lat="42.2823212" lon="14.139693"><ele>211.4</ele><time>2026-05-01T14:36:50.477Z</time></trkpt><trkpt lat="42.282393" lon="14.1396115"><ele>212.2</ele><time>2026-05-01T14:36:51.472Z</time></trkpt><trkpt lat="42.2824647" lon="14.1395331"><ele>213.0</ele><time>2026-05-01T14:36:52.474Z</time></trkpt><trkpt lat="42.2825328" lon="14.1394422"><ele>213.0</ele><time>2026-05-01T14:36:53.472Z</time></trkpt><trkpt lat="42.2826014" lon="14.139353"><ele>213.0</ele><time>2026-05-01T14:36:54.47Z</time></trkpt><trkpt lat="42.2826649" lon="14.1392658"><ele>213.0</ele><time>2026-05-01T14:36:55.47Z</time></trkpt><trkpt lat="42.2827331" lon="14.1391791"><ele>213.0</ele><time>2026-05-01T14:36:56.479Z</time></trkpt><trkpt lat="42.2828034" lon="14.1390776"><ele>213.0</ele><time>2026-05-01T14:36:57.468Z</time></trkpt><trkpt lat="42.2828758" lon="14.1389716"><ele>213.8</ele><time>2026-05-01T14:36:58.471Z</time></trkpt><trkpt lat="42.2829408" lon="14.1388683"><ele>214.60000000000002</ele><time>2026-05-01T14:36:59.471Z</time></trkpt><trkpt lat="42.2830013" lon="14.1387782"><ele>215.39999999999998</ele><time>2026-05-01T14:37:00.462Z</time></trkpt><trkpt lat="42.2830601" lon="14.1386856"><ele>216.2</ele><time>2026-05-01T14:37:01.467Z</time></trkpt><trkpt lat="42.2831281" lon="14.1385919"><ele>217.0</ele><time>2026-05-01T14:37:02.469Z</time></trkpt><trkpt lat="42.283194" lon="14.1385017"><ele>217.0</ele><time>2026-05-01T14:37:03.461Z</time></trkpt><trkpt lat="42.2832517" lon="14.1384353"><ele>217.0</ele><time>2026-05-01T14:37:04.467Z</time></trkpt><trkpt lat="42.2833508" lon="14.1383522"><ele>217.0</ele><time>2026-05-01T14:37:06.468Z</time></trkpt><trkpt lat="42.2834172" lon="14.1382962"><ele>217.0</ele><time>2026-05-01T14:37:08.459Z</time></trkpt><trkpt lat="42.2833395" lon="14.1382046"><ele>217.0</ele><time>2026-05-01T14:37:11.463Z</time></trkpt><trkpt lat="42.28321" lon="14.1381742"><ele>219.49999999999997</ele><time>2026-05-01T14:37:13.468Z</time></trkpt><trkpt lat="42.2831421" lon="14.1381535"><ele>222.0</ele><time>2026-05-01T14:37:14.46Z</time></trkpt><trkpt lat="42.2830789" lon="14.1381345"><ele>224.5</ele><time>2026-05-01T14:37:15.462Z</time></trkpt><trkpt lat="42.283019" lon="14.1381082"><ele>227.0</ele><time>2026-05-01T14:37:16.458Z</time></trkpt><trkpt lat="42.2829175" lon="14.1380919"><ele>229.49999999999997</ele><time>2026-05-01T14:37:18.46Z</time></trkpt><trkpt lat="42.2828293" lon="14.138094"><ele>232.0</ele><time>2026-05-01T14:37:20.472Z</time></trkpt><trkpt lat="42.2827654" lon="14.1380808"><ele>226.83333333333331</ele><time>2026-05-01T14:37:22.472Z</time></trkpt><trkpt lat="42.2826997" lon="14.1380404"><ele>221.66666666666666</ele><time>2026-05-01T14:37:27.473Z</time></trkpt><trkpt lat="42.2827356" lon="14.137948"><ele>216.5</ele><time>2026-05-01T14:37:32.467Z</time></trkpt><trkpt lat="42.2828045" lon="14.1379011"><ele>211.33333333333331</ele><time>2026-05-01T14:37:34.466Z</time></trkpt><trkpt lat="42.2828887" lon="14.1378209"><ele>206.16666666666666</ele><time>2026-05-01T14:37:36.473Z</time></trkpt><trkpt lat="42.2829344" lon="14.1377215"><ele>201.0</ele><time>2026-05-01T14:37:38.471Z</time></trkpt><trkpt lat="42.2829597" lon="14.1375866"><ele>201.0</ele><time>2026-05-01T14:37:40.477Z</time></trkpt><trkpt lat="42.2829475" lon="14.1374665"><ele>201.0</ele><time>2026-05-01T14:37:42.474Z</time></trkpt><trkpt lat="42.2829158" lon="14.1373489"><ele>201.0</ele><time>2026-05-01T14:37:44.475Z</time></trkpt><trkpt lat="42.2828757" lon="14.137251"><ele>201.0</ele><time>2026-05-01T14:37:46.476Z</time></trkpt><trkpt lat="42.2828322" lon="14.1371286"><ele>201.0</ele><time>2026-05-01T14:37:48.48Z</time></trkpt><trkpt lat="42.2828082" lon="14.1369785"><ele>202.20000000000002</ele><time>2026-05-01T14:37:50.474Z</time></trkpt><trkpt lat="42.2828019" lon="14.1368233"><ele>203.4</ele><time>2026-05-01T14:37:52.473Z</time></trkpt><trkpt lat="42.2827935" lon="14.1366921"><ele>204.6</ele><time>2026-05-01T14:37:54.468Z</time></trkpt><trkpt lat="42.2827818" lon="14.1365444"><ele>205.8</ele><time>2026-05-01T14:37:56.47Z</time></trkpt><trkpt lat="42.2827352" lon="14.1363944"><ele>207.0</ele><time>2026-05-01T14:37:58.475Z</time></trkpt><trkpt lat="42.2827144" lon="14.1363058"><ele>208.16666666666666</ele><time>2026-05-01T14:37:59.48Z</time></trkpt><trkpt lat="42.2826848" lon="14.1362299"><ele>209.33333333333331</ele><time>2026-05-01T14:38:00.471Z</time></trkpt><trkpt lat="42.2826164" lon="14.1360952"><ele>210.5</ele><time>2026-05-01T14:38:02.481Z</time></trkpt><trkpt lat="42.2825217" lon="14.1359729"><ele>211.66666666666666</ele><time>2026-05-01T14:38:04.483Z</time></trkpt><trkpt lat="42.2824742" lon="14.1359147"><ele>212.83333333333331</ele><time>2026-05-01T14:38:05.472Z</time></trkpt><trkpt lat="42.2824314" lon="14.1358516"><ele>214.0</ele><time>2026-05-01T14:38:06.481Z</time></trkpt><trkpt lat="42.2823599" lon="14.135724"><ele>212.39999999999998</ele><time>2026-05-01T14:38:08.474Z</time></trkpt><trkpt lat="42.2823321" lon="14.1356476"><ele>210.79999999999998</ele><time>2026-05-01T14:38:09.483Z</time></trkpt><trkpt lat="42.2822869" lon="14.1354994"><ele>209.2</ele><time>2026-05-01T14:38:11.469Z</time></trkpt><trkpt lat="42.2822748" lon="14.1353232"><ele>207.60000000000002</ele><time>2026-05-01T14:38:13.479Z</time></trkpt><trkpt lat="42.2822713" lon="14.1352187"><ele>206.0</ele><time>2026-05-01T14:38:14.472Z</time></trkpt><trkpt lat="42.2822585" lon="14.1351177"><ele>206.00000000000003</ele><time>2026-05-01T14:38:15.478Z</time></trkpt><trkpt lat="42.2822508" lon="14.1350163"><ele>206.0</ele><time>2026-05-01T14:38:16.468Z</time></trkpt><trkpt lat="42.2822354" lon="14.1349158"><ele>206.0</ele><time>2026-05-01T14:38:17.473Z</time></trkpt><trkpt lat="42.2822216" lon="14.1348234"><ele>206.0</ele><time>2026-05-01T14:38:18.479Z</time></trkpt><trkpt lat="42.2822089" lon="14.134729"><ele>206.00000000000003</ele><time>2026-05-01T14:38:19.474Z</time></trkpt><trkpt lat="42.2821915" lon="14.1345638"><ele>206.0</ele><time>2026-05-01T14:38:21.478Z</time></trkpt><trkpt lat="42.2821728" lon="14.1344071"><ele>207.50000000000003</ele><time>2026-05-01T14:38:23.477Z</time></trkpt><trkpt lat="42.2821569" lon="14.1343226"><ele>209.0</ele><time>2026-05-01T14:38:24.485Z</time></trkpt><trkpt lat="42.2821239" lon="14.134161"><ele>210.5</ele><time>2026-05-01T14:38:26.485Z</time></trkpt><trkpt lat="42.28211" lon="14.1340677"><ele>212.0</ele><time>2026-05-01T14:38:27.476Z</time></trkpt><trkpt lat="42.2820985" lon="14.1339685"><ele>213.50000000000003</ele><time>2026-05-01T14:38:28.481Z</time></trkpt><trkpt lat="42.2820883" lon="14.1338693"><ele>215.0</ele><time>2026-05-01T14:38:29.487Z</time></trkpt><trkpt lat="42.2820784" lon="14.1337799"><ele>215.83333333333334</ele><time>2026-05-01T14:38:30.475Z</time></trkpt><trkpt lat="42.2820621" lon="14.1336874"><ele>216.66666666666669</ele><time>2026-05-01T14:38:31.49Z</time></trkpt><trkpt lat="42.282049" lon="14.1335839"><ele>217.5</ele><time>2026-05-01T14:38:32.473Z</time></trkpt><trkpt lat="42.2820375" lon="14.1334801"><ele>218.33333333333331</ele><time>2026-05-01T14:38:33.474Z</time></trkpt><trkpt lat="42.2820262" lon="14.1333859"><ele>219.16666666666666</ele><time>2026-05-01T14:38:34.478Z</time></trkpt><trkpt lat="42.2820128" lon="14.1332315"><ele>220.0</ele><time>2026-05-01T14:38:36.466Z</time></trkpt><trkpt lat="42.2819571" lon="14.1331442"><ele>221.75</ele><time>2026-05-01T14:38:38.47Z</time></trkpt><trkpt lat="42.2818386" lon="14.1331099"><ele>223.5</ele><time>2026-05-01T14:38:40.476Z</time></trkpt><trkpt lat="42.2817324" lon="14.1330391"><ele>225.25</ele><time>2026-05-01T14:38:42.473Z</time></trkpt><trkpt lat="42.2816445" lon="14.1329615"><ele>227.0</ele><time>2026-05-01T14:38:44.474Z</time></trkpt><trkpt lat="42.2815285" lon="14.1329196"><ele>227.00000000000003</ele><time>2026-05-01T14:38:46.473Z</time></trkpt><trkpt lat="42.2814611" lon="14.1329383"><ele>227.0</ele><time>2026-05-01T14:38:47.467Z</time></trkpt><trkpt lat="42.281379" lon="14.1329551"><ele>227.0</ele><time>2026-05-01T14:38:48.472Z</time></trkpt><trkpt lat="42.2812858" lon="14.1329783"><ele>227.0</ele><time>2026-05-01T14:38:49.47Z</time></trkpt><trkpt lat="42.2812007" lon="14.1330014"><ele>227.00000000000003</ele><time>2026-05-01T14:38:50.484Z</time></trkpt><trkpt lat="42.2811263" lon="14.1330386"><ele>227.0</ele><time>2026-05-01T14:38:51.473Z</time></trkpt><trkpt lat="42.2810541" lon="14.1330779"><ele>226.50000000000003</ele><time>2026-05-01T14:38:52.478Z</time></trkpt><trkpt lat="42.2809905" lon="14.1331001"><ele>226.0</ele><time>2026-05-01T14:38:53.472Z</time></trkpt><trkpt lat="42.2808845" lon="14.1330738"><ele>225.5</ele><time>2026-05-01T14:38:55.476Z</time></trkpt><trkpt lat="42.2807824" lon="14.1329629"><ele>225.0</ele><time>2026-05-01T14:38:57.488Z</time></trkpt><trkpt lat="42.2807348" lon="14.1328968"><ele>224.50000000000003</ele><time>2026-05-01T14:38:58.478Z</time></trkpt><trkpt lat="42.2806896" lon="14.1328313"><ele>224.0</ele><time>2026-05-01T14:38:59.479Z</time></trkpt><trkpt lat="42.2806345" lon="14.1327724"><ele>223.0</ele><time>2026-05-01T14:39:00.497Z</time></trkpt><trkpt lat="42.2805665" lon="14.1327299"><ele>222.0</ele><time>2026-05-01T14:39:01.492Z</time></trkpt><trkpt lat="42.2804949" lon="14.1326931"><ele>221.0</ele><time>2026-05-01T14:39:02.482Z</time></trkpt><trkpt lat="42.2804301" lon="14.1326565"><ele>220.0</ele><time>2026-05-01T14:39:03.481Z</time></trkpt><trkpt lat="42.2803636" lon="14.1326236"><ele>219.0</ele><time>2026-05-01T14:39:04.481Z</time></trkpt><trkpt lat="42.2802963" lon="14.1325868"><ele>218.0</ele><time>2026-05-01T14:39:05.485Z</time></trkpt><trkpt lat="42.2802196" lon="14.1325545"><ele>217.0</ele><time>2026-05-01T14:39:06.483Z</time></trkpt><trkpt lat="42.280139" lon="14.1325094"><ele>217.0</ele><time>2026-05-01T14:39:07.483Z</time></trkpt><trkpt lat="42.2800591" lon="14.132454"><ele>217.0</ele><time>2026-05-01T14:39:08.485Z</time></trkpt><trkpt lat="42.2799839" lon="14.1323915"><ele>217.0</ele><time>2026-05-01T14:39:09.482Z</time></trkpt><trkpt lat="42.2799164" lon="14.1323473"><ele>217.0</ele><time>2026-05-01T14:39:10.484Z</time></trkpt><trkpt lat="42.2798409" lon="14.1322666"><ele>217.0</ele><time>2026-05-01T14:39:12.49Z</time></trkpt><trkpt lat="42.2798358" lon="14.1320948"><ele>218.2</ele><time>2026-05-01T14:39:14.478Z</time></trkpt><trkpt lat="42.2798188" lon="14.1319709"><ele>219.39999999999998</ele><time>2026-05-01T14:39:15.476Z</time></trkpt><trkpt lat="42.2797878" lon="14.1318481"><ele>220.60000000000002</ele><time>2026-05-01T14:39:16.481Z</time></trkpt><trkpt lat="42.27975" lon="14.1317201"><ele>221.8</ele><time>2026-05-01T14:39:17.471Z</time></trkpt><trkpt lat="42.2797247" lon="14.1316173"><ele>223.0</ele><time>2026-05-01T14:39:18.467Z</time></trkpt><trkpt lat="42.2797077" lon="14.1314801"><ele>227.2</ele><time>2026-05-01T14:39:20.474Z</time></trkpt><trkpt lat="42.2797866" lon="14.1314549"><ele>231.4</ele><time>2026-05-01T14:39:24.477Z</time></trkpt><trkpt lat="42.279871" lon="14.1314707"><ele>235.59999999999997</ele><time>2026-05-01T14:39:25.473Z</time></trkpt><trkpt lat="42.2799695" lon="14.1314916"><ele>239.79999999999998</ele><time>2026-05-01T14:39:26.475Z</time></trkpt><trkpt lat="42.2800828" lon="14.131519"><ele>244.0</ele><time>2026-05-01T14:39:27.476Z</time></trkpt><trkpt lat="42.2802171" lon="14.1315327"><ele>244.0</ele><time>2026-05-01T14:39:28.474Z</time></trkpt><trkpt lat="42.2803547" lon="14.1315241"><ele>244.0</ele><time>2026-05-01T14:39:29.471Z</time></trkpt><trkpt lat="42.2804756" lon="14.1314982"><ele>244.0</ele><time>2026-05-01T14:39:30.465Z</time></trkpt><trkpt lat="42.2805883" lon="14.1314676"><ele>244.0</ele><time>2026-05-01T14:39:31.475Z</time></trkpt><trkpt lat="42.2806804" lon="14.1314424"><ele>243.6</ele><time>2026-05-01T14:39:32.472Z</time></trkpt><trkpt lat="42.2807684" lon="14.13139"><ele>243.2</ele><time>2026-05-01T14:39:33.46Z</time></trkpt><trkpt lat="42.2808474" lon="14.1313076"><ele>242.79999999999998</ele><time>2026-05-01T14:39:34.467Z</time></trkpt><trkpt lat="42.2809049" lon="14.1311879"><ele>242.39999999999998</ele><time>2026-05-01T14:39:35.463Z</time></trkpt><trkpt lat="42.280951" lon="14.1310423"><ele>242.0</ele><time>2026-05-01T14:39:36.46Z</time></trkpt><trkpt lat="42.2809971" lon="14.1308821"><ele>243.5</ele><time>2026-05-01T14:39:37.46Z</time></trkpt><trkpt lat="42.281039" lon="14.1307021"><ele>245.0</ele><time>2026-05-01T14:39:38.459Z</time></trkpt><trkpt lat="42.2810781" lon="14.1305187"><ele>246.5</ele><time>2026-05-01T14:39:39.468Z</time></trkpt><trkpt lat="42.2811058" lon="14.1303428"><ele>248.0</ele><time>2026-05-01T14:39:40.469Z</time></trkpt><trkpt lat="42.281127" lon="14.1301883"><ele>248.0</ele><time>2026-05-01T14:39:41.48Z</time></trkpt><trkpt lat="42.2811228" lon="14.1300473"><ele>248.0</ele><time>2026-05-01T14:39:42.451Z</time></trkpt><trkpt lat="42.2810921" lon="14.1299337"><ele>248.0</ele><time>2026-05-01T14:39:43.459Z</time></trkpt><trkpt lat="42.2810283" lon="14.1298439"><ele>248.0</ele><time>2026-05-01T14:39:44.471Z</time></trkpt><trkpt lat="42.2809391" lon="14.1298053"><ele>248.0</ele><time>2026-05-01T14:39:45.459Z</time></trkpt><trkpt lat="42.2808337" lon="14.1298144"><ele>248.0</ele><time>2026-05-01T14:39:46.464Z</time></trkpt><trkpt lat="42.28073" lon="14.1298996"><ele>248.0</ele><time>2026-05-01T14:39:47.449Z</time></trkpt><trkpt lat="42.2806214" lon="14.1300117"><ele>248.0</ele><time>2026-05-01T14:39:48.448Z</time></trkpt><trkpt lat="42.280509" lon="14.1301459"><ele>248.0</ele><time>2026-05-01T14:39:49.46Z</time></trkpt><trkpt lat="42.2803893" lon="14.130322"><ele>249.2</ele><time>2026-05-01T14:39:50.465Z</time></trkpt><trkpt lat="42.2802876" lon="14.130449"><ele>250.4</ele><time>2026-05-01T14:39:51.462Z</time></trkpt><trkpt lat="42.2802065" lon="14.1305179"><ele>251.59999999999997</ele><time>2026-05-01T14:39:52.457Z</time></trkpt><trkpt lat="42.2801056" lon="14.1305185"><ele>252.79999999999998</ele><time>2026-05-01T14:39:53.471Z</time></trkpt><trkpt lat="42.2800047" lon="14.1304765"><ele>254.0</ele><time>2026-05-01T14:39:54.46Z</time></trkpt><trkpt lat="42.2799174" lon="14.1303961"><ele>254.0</ele><time>2026-05-01T14:39:55.467Z</time></trkpt><trkpt lat="42.2797981" lon="14.1303161"><ele>254.0</ele><time>2026-05-01T14:39:56.467Z</time></trkpt><trkpt lat="42.2796833" lon="14.1302458"><ele>254.0</ele><time>2026-05-01T14:39:57.473Z</time></trkpt><trkpt lat="42.2795666" lon="14.1301781"><ele>254.0</ele><time>2026-05-01T14:39:58.472Z</time></trkpt><trkpt lat="42.2794564" lon="14.1301028"><ele>253.6</ele><time>2026-05-01T14:39:59.475Z</time></trkpt><trkpt lat="42.2793677" lon="14.1300305"><ele>253.2</ele><time>2026-05-01T14:40:00.476Z</time></trkpt><trkpt lat="42.2792941" lon="14.1299461"><ele>252.79999999999998</ele><time>2026-05-01T14:40:01.475Z</time></trkpt><trkpt lat="42.2792427" lon="14.1298374"><ele>252.39999999999998</ele><time>2026-05-01T14:40:02.477Z</time></trkpt><trkpt lat="42.2792347" lon="14.1297159"><ele>252.0</ele><time>2026-05-01T14:40:03.478Z</time></trkpt><trkpt lat="42.279261" lon="14.1296042"><ele>255.25</ele><time>2026-05-01T14:40:04.473Z</time></trkpt><trkpt lat="42.2793245" lon="14.1295111"><ele>258.5</ele><time>2026-05-01T14:40:05.477Z</time></trkpt><trkpt lat="42.2794314" lon="14.1294788"><ele>261.75</ele><time>2026-05-01T14:40:06.464Z</time></trkpt><trkpt lat="42.2795558" lon="14.129477"><ele>265.0</ele><time>2026-05-01T14:40:07.474Z</time></trkpt><trkpt lat="42.2796843" lon="14.1294545"><ele>263.75</ele><time>2026-05-01T14:40:08.466Z</time></trkpt><trkpt lat="42.2798086" lon="14.1294177"><ele>262.5</ele><time>2026-05-01T14:40:09.463Z</time></trkpt><trkpt lat="42.2799283" lon="14.1293507"><ele>261.25</ele><time>2026-05-01T14:40:10.473Z</time></trkpt><trkpt lat="42.2800187" lon="14.1292176"><ele>260.0</ele><time>2026-05-01T14:40:11.468Z</time></trkpt><trkpt lat="42.280092" lon="14.1290417"><ele>263.6666666666667</ele><time>2026-05-01T14:40:12.475Z</time></trkpt><trkpt lat="42.2801616" lon="14.1288477"><ele>267.3333333333333</ele><time>2026-05-01T14:40:13.474Z</time></trkpt><trkpt lat="42.28025" lon="14.1286186"><ele>271.0</ele><time>2026-05-01T14:40:14.47Z</time></trkpt><trkpt lat="42.2803351" lon="14.1284468"><ele>271.0</ele><time>2026-05-01T14:40:15.468Z</time></trkpt><trkpt lat="42.2804029" lon="14.1283213"><ele>271.0</ele><time>2026-05-01T14:40:16.457Z</time></trkpt><trkpt lat="42.2804822" lon="14.1282249"><ele>271.0</ele><time>2026-05-01T14:40:17.476Z</time></trkpt><trkpt lat="42.2806228" lon="14.12814"><ele>271.0</ele><time>2026-05-01T14:40:18.464Z</time></trkpt><trkpt lat="42.2807603" lon="14.1281035"><ele>272.2</ele><time>2026-05-01T14:40:19.469Z</time></trkpt><trkpt lat="42.2808828" lon="14.1280116"><ele>273.40000000000003</ele><time>2026-05-01T14:40:20.475Z</time></trkpt><trkpt lat="42.2809782" lon="14.1279383"><ele>274.6</ele><time>2026-05-01T14:40:21.467Z</time></trkpt><trkpt lat="42.2810692" lon="14.1278627"><ele>275.8</ele><time>2026-05-01T14:40:22.467Z</time></trkpt><trkpt lat="42.2811159" lon="14.1277569"><ele>277.0</ele><time>2026-05-01T14:40:23.466Z</time></trkpt><trkpt lat="42.2811186" lon="14.127625"><ele>277.0</ele><time>2026-05-01T14:40:24.465Z</time></trkpt><trkpt lat="42.2811094" lon="14.1274907"><ele>277.0</ele><time>2026-05-01T14:40:25.471Z</time></trkpt><trkpt lat="42.2810758" lon="14.1273648"><ele>277.0</ele><time>2026-05-01T14:40:26.465Z</time></trkpt><trkpt lat="42.2810055" lon="14.1272748"><ele>277.0</ele><time>2026-05-01T14:40:27.47Z</time></trkpt><trkpt lat="42.2809084" lon="14.1272227"><ele>277.0</ele><time>2026-05-01T14:40:28.468Z</time></trkpt><trkpt lat="42.2807757" lon="14.1272091"><ele>280.66666666666663</ele><time>2026-05-01T14:40:29.452Z</time></trkpt><trkpt lat="42.2806294" lon="14.1272257"><ele>284.3333333333333</ele><time>2026-05-01T14:40:30.454Z</time></trkpt><trkpt lat="42.2804677" lon="14.1272566"><ele>288.0</ele><time>2026-05-01T14:40:31.459Z</time></trkpt><trkpt lat="42.2802347" lon="14.12735"><ele>286.0</ele><time>2026-05-01T14:40:32.447Z</time></trkpt><trkpt lat="42.2800158" lon="14.127401"><ele>284.0</ele><time>2026-05-01T14:40:33.45Z</time></trkpt><trkpt lat="42.2798642" lon="14.1274079"><ele>282.0</ele><time>2026-05-01T14:40:34.455Z</time></trkpt><trkpt lat="42.2797448" lon="14.1273968"><ele>282.0</ele><time>2026-05-01T14:40:35.46Z</time></trkpt><trkpt lat="42.2796605" lon="14.1273727"><ele>282.0</ele><time>2026-05-01T14:40:36.466Z</time></trkpt><trkpt lat="42.2795604" lon="14.1273685"><ele>282.0</ele><time>2026-05-01T14:40:37.462Z</time></trkpt><trkpt lat="42.2794814" lon="14.1273795"><ele>282.0</ele><time>2026-05-01T14:40:38.468Z</time></trkpt><trkpt lat="42.279417" lon="14.1274746"><ele>282.0</ele><time>2026-05-01T14:40:40.477Z</time></trkpt><trkpt lat="42.2793391" lon="14.1275409"><ele>282.0</ele><time>2026-05-01T14:40:42.483Z</time></trkpt><trkpt lat="42.2792262" lon="14.1275805"><ele>282.0</ele><time>2026-05-01T14:40:44.471Z</time></trkpt><trkpt lat="42.2791533" lon="14.1275936"><ele>282.0</ele><time>2026-05-01T14:40:45.475Z</time></trkpt><trkpt lat="42.2790564" lon="14.1276012"><ele>282.0</ele><time>2026-05-01T14:40:46.476Z</time></trkpt><trkpt lat="42.2789576" lon="14.1276066"><ele>282.0</ele><time>2026-05-01T14:40:47.476Z</time></trkpt><trkpt lat="42.2788731" lon="14.1276043"><ele>282.2857142857143</ele><time>2026-05-01T14:40:48.485Z</time></trkpt><trkpt lat="42.278801" lon="14.1275997"><ele>282.57142857142856</ele><time>2026-05-01T14:40:49.477Z</time></trkpt><trkpt lat="42.2787357" lon="14.1275893"><ele>282.85714285714283</ele><time>2026-05-01T14:40:50.474Z</time></trkpt><trkpt lat="42.2786673" lon="14.1275756"><ele>283.1428571428571</ele><time>2026-05-01T14:40:51.485Z</time></trkpt><trkpt lat="42.2785966" lon="14.1275617"><ele>283.4285714285714</ele><time>2026-05-01T14:40:52.475Z</time></trkpt><trkpt lat="42.2785151" lon="14.1275524"><ele>283.7142857142857</ele><time>2026-05-01T14:40:53.484Z</time></trkpt><trkpt lat="42.2784295" lon="14.1275562"><ele>284.0</ele><time>2026-05-01T14:40:54.47Z</time></trkpt><trkpt lat="42.2783346" lon="14.1275557"><ele>284.0</ele><time>2026-05-01T14:40:55.468Z</time></trkpt><trkpt lat="42.2782373" lon="14.1275548"><ele>284.0</ele><time>2026-05-01T14:40:56.459Z</time></trkpt><trkpt lat="42.2781462" lon="14.1275437"><ele>284.0</ele><time>2026-05-01T14:40:57.476Z</time></trkpt><trkpt lat="42.278052" lon="14.1275246"><ele>284.0</ele><time>2026-05-01T14:40:58.476Z</time></trkpt><trkpt lat="42.2779607" lon="14.1274881"><ele>284.0</ele><time>2026-05-01T14:40:59.478Z</time></trkpt><trkpt lat="42.2778597" lon="14.1274466"><ele>284.4</ele><time>2026-05-01T14:41:00.484Z</time></trkpt><trkpt lat="42.277762" lon="14.1274123"><ele>284.79999999999995</ele><time>2026-05-01T14:41:01.487Z</time></trkpt><trkpt lat="42.2776687" lon="14.1273735"><ele>285.20000000000005</ele><time>2026-05-01T14:41:02.478Z</time></trkpt><trkpt lat="42.2775731" lon="14.1273305"><ele>285.6</ele><time>2026-05-01T14:41:03.481Z</time></trkpt><trkpt lat="42.2774779" lon="14.1273104"><ele>286.0</ele><time>2026-05-01T14:41:04.473Z</time></trkpt><trkpt lat="42.2773807" lon="14.1273062"><ele>287.6</ele><time>2026-05-01T14:41:05.469Z</time></trkpt><trkpt lat="42.2772801" lon="14.1273161"><ele>289.20000000000005</ele><time>2026-05-01T14:41:06.46Z</time></trkpt><trkpt lat="42.2771868" lon="14.127322"><ele>290.79999999999995</ele><time>2026-05-01T14:41:07.468Z</time></trkpt><trkpt lat="42.2770963" lon="14.1273307"><ele>292.4</ele><time>2026-05-01T14:41:08.468Z</time></trkpt><trkpt lat="42.2770071" lon="14.1273192"><ele>294.0</ele><time>2026-05-01T14:41:09.471Z</time></trkpt><trkpt lat="42.2769174" lon="14.1272729"><ele>294.5</ele><time>2026-05-01T14:41:10.467Z</time></trkpt><trkpt lat="42.2768425" lon="14.127224"><ele>295.0</ele><time>2026-05-01T14:41:11.468Z</time></trkpt><trkpt lat="42.2767753" lon="14.127196"><ele>295.5</ele><time>2026-05-01T14:41:12.464Z</time></trkpt><trkpt lat="42.2766624" lon="14.1271409"><ele>296.0</ele><time>2026-05-01T14:41:14.472Z</time></trkpt><trkpt lat="42.2765576" lon="14.1271524"><ele>296.5</ele><time>2026-05-01T14:41:16.463Z</time></trkpt><trkpt lat="42.276502" lon="14.1271984"><ele>297.0</ele><time>2026-05-01T14:41:17.456Z</time></trkpt><trkpt lat="42.276448" lon="14.1272652"><ele>297.2</ele><time>2026-05-01T14:41:18.463Z</time></trkpt><trkpt lat="42.2763868" lon="14.1273636"><ele>297.4</ele><time>2026-05-01T14:41:19.467Z</time></trkpt><trkpt lat="42.2763185" lon="14.1274826"><ele>297.6</ele><time>2026-05-01T14:41:20.47Z</time></trkpt><trkpt lat="42.2762409" lon="14.1276097"><ele>297.8</ele><time>2026-05-01T14:41:21.482Z</time></trkpt><trkpt lat="42.2761758" lon="14.1277233"><ele>298.0</ele><time>2026-05-01T14:41:22.467Z</time></trkpt><trkpt lat="42.2761042" lon="14.1278175"><ele>297.6</ele><time>2026-05-01T14:41:23.466Z</time></trkpt><trkpt lat="42.2760239" lon="14.1278937"><ele>297.20000000000005</ele><time>2026-05-01T14:41:24.468Z</time></trkpt><trkpt lat="42.2759399" lon="14.1279428"><ele>296.8</ele><time>2026-05-01T14:41:25.463Z</time></trkpt><trkpt lat="42.2758436" lon="14.127988"><ele>296.40000000000003</ele><time>2026-05-01T14:41:26.47Z</time></trkpt><trkpt lat="42.275748" lon="14.1280179"><ele>296.0</ele><time>2026-05-01T14:41:27.473Z</time></trkpt><trkpt lat="42.2756506" lon="14.1280464"><ele>296.6666666666667</ele><time>2026-05-01T14:41:28.474Z</time></trkpt><trkpt lat="42.2755563" lon="14.1280789"><ele>297.33333333333337</ele><time>2026-05-01T14:41:29.472Z</time></trkpt><trkpt lat="42.2754669" lon="14.1281197"><ele>298.0</ele><time>2026-05-01T14:41:30.473Z</time></trkpt><trkpt lat="42.2753889" lon="14.1281779"><ele>298.6666666666667</ele><time>2026-05-01T14:41:31.477Z</time></trkpt><trkpt lat="42.2753323" lon="14.1282326"><ele>299.3333333333333</ele><time>2026-05-01T14:41:32.466Z</time></trkpt><trkpt lat="42.2752512" lon="14.128302"><ele>300.0</ele><time>2026-05-01T14:41:34.48Z</time></trkpt><trkpt lat="42.2751737" lon="14.1282534"><ele>300.6</ele><time>2026-05-01T14:41:36.484Z</time></trkpt><trkpt lat="42.2751563" lon="14.1281579"><ele>301.2</ele><time>2026-05-01T14:41:37.479Z</time></trkpt><trkpt lat="42.2751414" lon="14.1280308"><ele>301.8</ele><time>2026-05-01T14:41:38.479Z</time></trkpt><trkpt lat="42.2751059" lon="14.1278827"><ele>302.4</ele><time>2026-05-01T14:41:39.481Z</time></trkpt><trkpt lat="42.2750642" lon="14.1277169"><ele>303.0</ele><time>2026-05-01T14:41:40.481Z</time></trkpt><trkpt lat="42.2750038" lon="14.1275481"><ele>303.6666666666667</ele><time>2026-05-01T14:41:41.484Z</time></trkpt><trkpt lat="42.274938" lon="14.127369"><ele>304.33333333333337</ele><time>2026-05-01T14:41:42.485Z</time></trkpt><trkpt lat="42.2748792" lon="14.1271772"><ele>305.0</ele><time>2026-05-01T14:41:43.486Z</time></trkpt><trkpt lat="42.274796" lon="14.1269424"><ele>303.5</ele><time>2026-05-01T14:41:44.491Z</time></trkpt><trkpt lat="42.2747382" lon="14.12674"><ele>302.0</ele><time>2026-05-01T14:41:45.484Z</time></trkpt><trkpt lat="42.2747059" lon="14.1265397"><ele>300.5</ele><time>2026-05-01T14:41:46.486Z</time></trkpt><trkpt lat="42.2746864" lon="14.1263677"><ele>299.0</ele><time>2026-05-01T14:41:47.487Z</time></trkpt><trkpt lat="42.2746591" lon="14.1262197"><ele>297.25</ele><time>2026-05-01T14:41:48.478Z</time></trkpt><trkpt lat="42.2746384" lon="14.1260435"><ele>295.5</ele><time>2026-05-01T14:41:49.488Z</time></trkpt><trkpt lat="42.2746879" lon="14.1258853"><ele>293.75</ele><time>2026-05-01T14:41:50.485Z</time></trkpt><trkpt lat="42.2747398" lon="14.125724"><ele>292.0</ele><time>2026-05-01T14:41:51.494Z</time></trkpt><trkpt lat="42.2747909" lon="14.1255515"><ele>298.75</ele><time>2026-05-01T14:41:52.485Z</time></trkpt><trkpt lat="42.2748554" lon="14.1253927"><ele>305.5</ele><time>2026-05-01T14:41:53.492Z</time></trkpt><trkpt lat="42.2748933" lon="14.1252278"><ele>312.25</ele><time>2026-05-01T14:41:54.484Z</time></trkpt><trkpt lat="42.274924" lon="14.1250816"><ele>319.0</ele><time>2026-05-01T14:41:55.487Z</time></trkpt><trkpt lat="42.2749536" lon="14.1249644"><ele>320.3333333333333</ele><time>2026-05-01T14:41:56.483Z</time></trkpt><trkpt lat="42.274988" lon="14.1248532"><ele>321.66666666666663</ele><time>2026-05-01T14:41:57.477Z</time></trkpt><trkpt lat="42.2750311" lon="14.1247598"><ele>323.0</ele><time>2026-05-01T14:41:58.483Z</time></trkpt><trkpt lat="42.2750733" lon="14.1246692"><ele>324.3333333333333</ele><time>2026-05-01T14:41:59.491Z</time></trkpt><trkpt lat="42.2751185" lon="14.1245698"><ele>325.6666666666667</ele><time>2026-05-01T14:42:00.484Z</time></trkpt><trkpt lat="42.2751669" lon="14.1244596"><ele>327.0</ele><time>2026-05-01T14:42:01.492Z</time></trkpt><trkpt lat="42.2752097" lon="14.12436"><ele>327.0</ele><time>2026-05-01T14:42:02.483Z</time></trkpt><trkpt lat="42.2752567" lon="14.1242856"><ele>327.0</ele><time>2026-05-01T14:42:03.479Z</time></trkpt><trkpt lat="42.2753148" lon="14.1242387"><ele>327.0</ele><time>2026-05-01T14:42:04.495Z</time></trkpt><trkpt lat="42.2753914" lon="14.1242249"><ele>327.0</ele><time>2026-05-01T14:42:05.475Z</time></trkpt><trkpt lat="42.2754805" lon="14.1242253"><ele>327.0</ele><time>2026-05-01T14:42:06.488Z</time></trkpt><trkpt lat="42.275577" lon="14.1242315"><ele>327.0</ele><time>2026-05-01T14:42:07.483Z</time></trkpt><trkpt lat="42.2756718" lon="14.1242417"><ele>325.8</ele><time>2026-05-01T14:42:08.482Z</time></trkpt><trkpt lat="42.2757648" lon="14.1242365"><ele>324.6</ele><time>2026-05-01T14:42:09.487Z</time></trkpt><trkpt lat="42.2758577" lon="14.1242317"><ele>323.40000000000003</ele><time>2026-05-01T14:42:10.481Z</time></trkpt><trkpt lat="42.2759559" lon="14.1242313"><ele>322.20000000000005</ele><time>2026-05-01T14:42:11.484Z</time></trkpt><trkpt lat="42.2760541" lon="14.124223"><ele>321.0</ele><time>2026-05-01T14:42:12.48Z</time></trkpt><trkpt lat="42.2761419" lon="14.1241956"><ele>321.0</ele><time>2026-05-01T14:42:13.48Z</time></trkpt><trkpt lat="42.2762291" lon="14.1241611"><ele>321.0</ele><time>2026-05-01T14:42:14.48Z</time></trkpt><trkpt lat="42.2763174" lon="14.1241371"><ele>321.0</ele><time>2026-05-01T14:42:15.474Z</time></trkpt><trkpt lat="42.2763977" lon="14.1241266"><ele>321.0</ele><time>2026-05-01T14:42:16.472Z</time></trkpt><trkpt lat="42.2764925" lon="14.1241223"><ele>321.0</ele><time>2026-05-01T14:42:18.469Z</time></trkpt><trkpt lat="42.2765571" lon="14.1241345"><ele>321.0</ele><time>2026-05-01T14:42:21.479Z</time></trkpt><trkpt lat="42.2766175" lon="14.1240873"><ele>320.2</ele><time>2026-05-01T14:42:27.476Z</time></trkpt><trkpt lat="42.2765449" lon="14.1240269"><ele>319.40000000000003</ele><time>2026-05-01T14:42:32.466Z</time></trkpt><trkpt lat="42.2764216" lon="14.1239232"><ele>318.6</ele><time>2026-05-01T14:42:34.478Z</time></trkpt><trkpt lat="42.2763509" lon="14.1238215"><ele>317.8</ele><time>2026-05-01T14:42:35.469Z</time></trkpt><trkpt lat="42.2762871" lon="14.1236993"><ele>317.0</ele><time>2026-05-01T14:42:36.469Z</time></trkpt><trkpt lat="42.2762312" lon="14.1235661"><ele>317.0</ele><time>2026-05-01T14:42:37.47Z</time></trkpt><trkpt lat="42.2761764" lon="14.1234596"><ele>317.0</ele><time>2026-05-01T14:42:38.453Z</time></trkpt><trkpt lat="42.276121" lon="14.1233792"><ele>317.0</ele><time>2026-05-01T14:42:39.469Z</time></trkpt><trkpt lat="42.2760526" lon="14.1233333"><ele>317.0</ele><time>2026-05-01T14:42:40.468Z</time></trkpt><trkpt lat="42.2759722" lon="14.1232992"><ele>317.0</ele><time>2026-05-01T14:42:41.469Z</time></trkpt><trkpt lat="42.2758783" lon="14.1232724"><ele>317.0</ele><time>2026-05-01T14:42:42.465Z</time></trkpt><trkpt lat="42.2757685" lon="14.123245"><ele>316.4</ele><time>2026-05-01T14:42:43.472Z</time></trkpt><trkpt lat="42.2756573" lon="14.123208"><ele>315.79999999999995</ele><time>2026-05-01T14:42:44.465Z</time></trkpt><trkpt lat="42.2755484" lon="14.1231694"><ele>315.2</ele><time>2026-05-01T14:42:45.468Z</time></trkpt><trkpt lat="42.2754415" lon="14.1231358"><ele>314.59999999999997</ele><time>2026-05-01T14:42:46.47Z</time></trkpt><trkpt lat="42.2753415" lon="14.123105"><ele>314.0</ele><time>2026-05-01T14:42:47.465Z</time></trkpt><trkpt lat="42.2752435" lon="14.1230839"><ele>314.0</ele><time>2026-05-01T14:42:48.474Z</time></trkpt><trkpt lat="42.2751527" lon="14.1230681"><ele>314.0</ele><time>2026-05-01T14:42:49.472Z</time></trkpt><trkpt lat="42.275074" lon="14.1230558"><ele>314.0</ele><time>2026-05-01T14:42:50.472Z</time></trkpt><trkpt lat="42.2750007" lon="14.1230511"><ele>314.0</ele><time>2026-05-01T14:42:51.478Z</time></trkpt><trkpt lat="42.2749212" lon="14.1230532"><ele>314.0</ele><time>2026-05-01T14:42:52.477Z</time></trkpt><trkpt lat="42.2748392" lon="14.1230524"><ele>314.0</ele><time>2026-05-01T14:42:53.486Z</time></trkpt><trkpt lat="42.2747431" lon="14.123051"><ele>315.0</ele><time>2026-05-01T14:42:54.488Z</time></trkpt><trkpt lat="42.2746527" lon="14.1230443"><ele>316.0</ele><time>2026-05-01T14:42:55.477Z</time></trkpt><trkpt lat="42.2745675" lon="14.1230426"><ele>317.0</ele><time>2026-05-01T14:42:56.485Z</time></trkpt><trkpt lat="42.2744842" lon="14.1230277"><ele>318.0</ele><time>2026-05-01T14:42:57.48Z</time></trkpt><trkpt lat="42.2744068" lon="14.1229972"><ele>319.0</ele><time>2026-05-01T14:42:58.48Z</time></trkpt><trkpt lat="42.27433" lon="14.1229516"><ele>320.0</ele><time>2026-05-01T14:42:59.49Z</time></trkpt><trkpt lat="42.2742632" lon="14.1228966"><ele>320.0</ele><time>2026-05-01T14:43:00.477Z</time></trkpt><trkpt lat="42.2742016" lon="14.1228424"><ele>320.0</ele><time>2026-05-01T14:43:01.494Z</time></trkpt><trkpt lat="42.2741376" lon="14.1227876"><ele>320.0</ele><time>2026-05-01T14:43:02.474Z</time></trkpt><trkpt lat="42.2740855" lon="14.1227298"><ele>320.0</ele><time>2026-05-01T14:43:03.473Z</time></trkpt><trkpt lat="42.2740423" lon="14.122652"><ele>320.0</ele><time>2026-05-01T14:43:04.476Z</time></trkpt><trkpt lat="42.2740078" lon="14.1225701"><ele>320.0</ele><time>2026-05-01T14:43:05.48Z</time></trkpt><trkpt lat="42.2739824" lon="14.1224829"><ele>320.0</ele><time>2026-05-01T14:43:06.48Z</time></trkpt><trkpt lat="42.2739463" lon="14.1223944"><ele>315.25</ele><time>2026-05-01T14:43:07.476Z</time></trkpt><trkpt lat="42.2738653" lon="14.1222802"><ele>310.5</ele><time>2026-05-01T14:43:09.481Z</time></trkpt><trkpt lat="42.2737795" lon="14.1222036"><ele>305.75</ele><time>2026-05-01T14:43:11.49Z</time></trkpt><trkpt lat="42.2737022" lon="14.1220843"><ele>301.0</ele><time>2026-05-01T14:43:13.487Z</time></trkpt><trkpt lat="42.2736664" lon="14.1219066"><ele>301.0</ele><time>2026-05-01T14:43:15.479Z</time></trkpt><trkpt lat="42.2736541" lon="14.1217989"><ele>301.0</ele><time>2026-05-01T14:43:16.482Z</time></trkpt><trkpt lat="42.2736288" lon="14.1216971"><ele>301.0</ele><time>2026-05-01T14:43:17.477Z</time></trkpt><trkpt lat="42.2735917" lon="14.1216046"><ele>301.0</ele><time>2026-05-01T14:43:18.488Z</time></trkpt><trkpt lat="42.2735503" lon="14.1215317"><ele>301.0</ele><time>2026-05-01T14:43:19.479Z</time></trkpt><trkpt lat="42.2734988" lon="14.1214703"><ele>301.0</ele><time>2026-05-01T14:43:20.487Z</time></trkpt><trkpt lat="42.2734429" lon="14.1214209"><ele>301.0</ele><time>2026-05-01T14:43:21.484Z</time></trkpt><trkpt lat="42.2733494" lon="14.1213453"><ele>300.40000000000003</ele><time>2026-05-01T14:43:23.485Z</time></trkpt><trkpt lat="42.2732869" lon="14.1212662"><ele>299.8</ele><time>2026-05-01T14:43:25.478Z</time></trkpt><trkpt lat="42.2732533" lon="14.1211394"><ele>299.20000000000005</ele><time>2026-05-01T14:43:27.483Z</time></trkpt><trkpt lat="42.2731786" lon="14.1210182"><ele>298.6</ele><time>2026-05-01T14:43:29.478Z</time></trkpt><trkpt lat="42.2731131" lon="14.1209643"><ele>298.0</ele><time>2026-05-01T14:43:30.479Z</time></trkpt><trkpt lat="42.2730383" lon="14.1209253"><ele>296.8</ele><time>2026-05-01T14:43:31.476Z</time></trkpt><trkpt lat="42.2729684" lon="14.1208834"><ele>295.6</ele><time>2026-05-01T14:43:32.473Z</time></trkpt><trkpt lat="42.272866" lon="14.120805"><ele>294.4</ele><time>2026-05-01T14:43:34.476Z</time></trkpt><trkpt lat="42.2727726" lon="14.1207368"><ele>293.2</ele><time>2026-05-01T14:43:36.476Z</time></trkpt><trkpt lat="42.2726736" lon="14.1206928"><ele>292.0</ele><time>2026-05-01T14:43:38.481Z</time></trkpt><trkpt lat="42.272569" lon="14.120643"><ele>290.5</ele><time>2026-05-01T14:43:40.49Z</time></trkpt><trkpt lat="42.2724636" lon="14.1205753"><ele>289.0</ele><time>2026-05-01T14:43:42.476Z</time></trkpt><trkpt lat="42.2724075" lon="14.1205284"><ele>287.5</ele><time>2026-05-01T14:43:43.474Z</time></trkpt><trkpt lat="42.2723497" lon="14.1204778"><ele>286.0</ele><time>2026-05-01T14:43:44.479Z</time></trkpt><trkpt lat="42.2723001" lon="14.1204235"><ele>284.5</ele><time>2026-05-01T14:43:45.479Z</time></trkpt><trkpt lat="42.2722033" lon="14.1203514"><ele>283.0</ele><time>2026-05-01T14:43:47.481Z</time></trkpt><trkpt lat="42.27211" lon="14.1202761"><ele>282.6</ele><time>2026-05-01T14:43:49.487Z</time></trkpt><trkpt lat="42.2720326" lon="14.1202141"><ele>282.20000000000005</ele><time>2026-05-01T14:43:51.493Z</time></trkpt><trkpt lat="42.2719554" lon="14.120157"><ele>281.8</ele><time>2026-05-01T14:43:53.483Z</time></trkpt><trkpt lat="42.271874" lon="14.1200836"><ele>281.40000000000003</ele><time>2026-05-01T14:43:55.487Z</time></trkpt><trkpt lat="42.2717997" lon="14.120029"><ele>281.0</ele><time>2026-05-01T14:43:57.481Z</time></trkpt><trkpt lat="42.2717114" lon="14.119967"><ele>280.40000000000003</ele><time>2026-05-01T14:43:59.477Z</time></trkpt><trkpt lat="42.2716081" lon="14.1198866"><ele>279.8</ele><time>2026-05-01T14:44:01.482Z</time></trkpt><trkpt lat="42.2715108" lon="14.1197812"><ele>279.20000000000005</ele><time>2026-05-01T14:44:03.471Z</time></trkpt><trkpt lat="42.271471" lon="14.1196896"><ele>278.6</ele><time>2026-05-01T14:44:04.48Z</time></trkpt><trkpt lat="42.271441" lon="14.1195974"><ele>278.0</ele><time>2026-05-01T14:44:05.479Z</time></trkpt><trkpt lat="42.2714159" lon="14.119487"><ele>278.0</ele><time>2026-05-01T14:44:06.48Z</time></trkpt><trkpt lat="42.2713826" lon="14.1193603"><ele>278.0</ele><time>2026-05-01T14:44:07.48Z</time></trkpt><trkpt lat="42.2713485" lon="14.1192409"><ele>278.0</ele><time>2026-05-01T14:44:08.476Z</time></trkpt><trkpt lat="42.2713137" lon="14.1191441"><ele>278.0</ele><time>2026-05-01T14:44:09.482Z</time></trkpt><trkpt lat="42.2712811" lon="14.1190524"><ele>278.0</ele><time>2026-05-01T14:44:10.479Z</time></trkpt><trkpt lat="42.2712418" lon="14.1189571"><ele>278.0</ele><time>2026-05-01T14:44:11.484Z</time></trkpt><trkpt lat="42.2711971" lon="14.1188682"><ele>277.2</ele><time>2026-05-01T14:44:12.477Z</time></trkpt><trkpt lat="42.2711473" lon="14.1187965"><ele>276.4</ele><time>2026-05-01T14:44:13.472Z</time></trkpt><trkpt lat="42.271039" lon="14.1187262"><ele>275.59999999999997</ele><time>2026-05-01T14:44:15.484Z</time></trkpt><trkpt lat="42.2709125" lon="14.1187132"><ele>274.8</ele><time>2026-05-01T14:44:17.475Z</time></trkpt><trkpt lat="42.2708259" lon="14.1187107"><ele>274.0</ele><time>2026-05-01T14:44:18.473Z</time></trkpt><trkpt lat="42.2707317" lon="14.1187061"><ele>274.0</ele><time>2026-05-01T14:44:19.473Z</time></trkpt><trkpt lat="42.2706434" lon="14.1186922"><ele>274.0</ele><time>2026-05-01T14:44:20.48Z</time></trkpt><trkpt lat="42.2705587" lon="14.1186748"><ele>274.0</ele><time>2026-05-01T14:44:21.479Z</time></trkpt><trkpt lat="42.2704751" lon="14.1186599"><ele>274.0</ele><time>2026-05-01T14:44:22.491Z</time></trkpt><trkpt lat="42.2703904" lon="14.1186465"><ele>274.0</ele><time>2026-05-01T14:44:23.487Z</time></trkpt><trkpt lat="42.2703092" lon="14.1186259"><ele>274.0</ele><time>2026-05-01T14:44:24.486Z</time></trkpt><trkpt lat="42.2702277" lon="14.1185886"><ele>274.0</ele><time>2026-05-01T14:44:25.49Z</time></trkpt><trkpt lat="42.2701491" lon="14.1185387"><ele>274.0</ele><time>2026-05-01T14:44:26.49Z</time></trkpt><trkpt lat="42.2700689" lon="14.118489"><ele>274.0</ele><time>2026-05-01T14:44:27.493Z</time></trkpt><trkpt lat="42.2699866" lon="14.1184405"><ele>274.0</ele><time>2026-05-01T14:44:28.483Z</time></trkpt><trkpt lat="42.2699074" lon="14.1184006"><ele>274.0</ele><time>2026-05-01T14:44:29.48Z</time></trkpt><trkpt lat="42.2698468" lon="14.1183583"><ele>274.0</ele><time>2026-05-01T14:44:30.487Z</time></trkpt><trkpt lat="42.2697682" lon="14.1183013"><ele>274.0</ele><time>2026-05-01T14:44:32.482Z</time></trkpt><trkpt lat="42.2696973" lon="14.1182506"><ele>274.0</ele><time>2026-05-01T14:44:34.48Z</time></trkpt><trkpt lat="42.2696389" lon="14.1182128"><ele>274.0</ele><time>2026-05-01T14:44:36.478Z</time></trkpt><trkpt lat="42.2695587" lon="14.1181428"><ele>274.0</ele><time>2026-05-01T14:46:35.478Z</time></trkpt><trkpt lat="42.2695082" lon="14.118047"><ele>274.0</ele><time>2026-05-01T14:46:37.477Z</time></trkpt><trkpt lat="42.2694485" lon="14.1179069"><ele>274.0</ele><time>2026-05-01T14:46:39.481Z</time></trkpt><trkpt lat="42.2693991" lon="14.1177517"><ele>273.28571428571433</ele><time>2026-05-01T14:46:41.483Z</time></trkpt><trkpt lat="42.2693891" lon="14.1176621"><ele>272.57142857142856</ele><time>2026-05-01T14:46:42.477Z</time></trkpt><trkpt lat="42.2693916" lon="14.1175695"><ele>271.8571428571429</ele><time>2026-05-01T14:46:43.481Z</time></trkpt><trkpt lat="42.2694036" lon="14.1174757"><ele>271.14285714285717</ele><time>2026-05-01T14:46:44.488Z</time></trkpt><trkpt lat="42.2694292" lon="14.1173831"><ele>270.42857142857144</ele><time>2026-05-01T14:46:45.481Z</time></trkpt><trkpt lat="42.2694595" lon="14.117297"><ele>269.7142857142857</ele><time>2026-05-01T14:46:46.484Z</time></trkpt><trkpt lat="42.2695047" lon="14.1172103"><ele>269.0</ele><time>2026-05-01T14:46:47.482Z</time></trkpt><trkpt lat="42.269552" lon="14.1171295"><ele>267.57142857142856</ele><time>2026-05-01T14:46:48.48Z</time></trkpt><trkpt lat="42.269591" lon="14.1170507"><ele>266.14285714285717</ele><time>2026-05-01T14:46:49.487Z</time></trkpt><trkpt lat="42.2696198" lon="14.1169669"><ele>264.7142857142857</ele><time>2026-05-01T14:46:50.477Z</time></trkpt><trkpt lat="42.269637" lon="14.1168713"><ele>263.2857142857143</ele><time>2026-05-01T14:46:51.489Z</time></trkpt><trkpt lat="42.2696425" lon="14.1167683"><ele>261.8571428571429</ele><time>2026-05-01T14:46:52.476Z</time></trkpt><trkpt lat="42.2696407" lon="14.1166711"><ele>260.42857142857144</ele><time>2026-05-01T14:46:53.49Z</time></trkpt><trkpt lat="42.2696374" lon="14.1165757"><ele>259.0</ele><time>2026-05-01T14:46:54.484Z</time></trkpt><trkpt lat="42.2696326" lon="14.1164767"><ele>258.14285714285717</ele><time>2026-05-01T14:46:55.48Z</time></trkpt><trkpt lat="42.2696286" lon="14.1163772"><ele>257.2857142857143</ele><time>2026-05-01T14:46:56.482Z</time></trkpt><trkpt lat="42.2696295" lon="14.1162783"><ele>256.42857142857144</ele><time>2026-05-01T14:46:57.477Z</time></trkpt><trkpt lat="42.2696281" lon="14.1161873"><ele>255.57142857142858</ele><time>2026-05-01T14:46:58.481Z</time></trkpt><trkpt lat="42.2696232" lon="14.1160942"><ele>254.71428571428572</ele><time>2026-05-01T14:46:59.488Z</time></trkpt><trkpt lat="42.2696092" lon="14.1159996"><ele>253.8571428571429</ele><time>2026-05-01T14:47:00.477Z</time></trkpt><trkpt lat="42.2695824" lon="14.1159038"><ele>253.00000000000003</ele><time>2026-05-01T14:47:01.499Z</time></trkpt><trkpt lat="42.2695455" lon="14.1158114"><ele>251.99999999999997</ele><time>2026-05-01T14:47:02.477Z</time></trkpt><trkpt lat="42.2695017" lon="14.1157288"><ele>251.0</ele><time>2026-05-01T14:47:03.478Z</time></trkpt><trkpt lat="42.2694472" lon="14.1156704"><ele>250.0</ele><time>2026-05-01T14:47:04.475Z</time></trkpt><trkpt lat="42.2693851" lon="14.1156208"><ele>249.0</ele><time>2026-05-01T14:47:05.472Z</time></trkpt><trkpt lat="42.2693067" lon="14.1155686"><ele>247.99999999999997</ele><time>2026-05-01T14:47:06.487Z</time></trkpt><trkpt lat="42.269237" lon="14.1155193"><ele>247.0</ele><time>2026-05-01T14:47:07.479Z</time></trkpt><trkpt lat="42.2691786" lon="14.1154696"><ele>247.0</ele><time>2026-05-01T14:47:08.478Z</time></trkpt><trkpt lat="42.2691326" lon="14.1154077"><ele>247.0</ele><time>2026-05-01T14:47:09.481Z</time></trkpt><trkpt lat="42.2690899" lon="14.1153273"><ele>247.0</ele><time>2026-05-01T14:47:10.478Z</time></trkpt><trkpt lat="42.2690517" lon="14.1152474"><ele>247.0</ele><time>2026-05-01T14:47:11.49Z</time></trkpt><trkpt lat="42.269" lon="14.1151261"><ele>247.0</ele><time>2026-05-01T14:47:13.478Z</time></trkpt><trkpt lat="42.2689753" lon="14.1150434"><ele>247.0</ele><time>2026-05-01T14:47:15.483Z</time></trkpt><trkpt lat="42.2689606" lon="14.114956"><ele>247.0</ele><time>2026-05-01T14:47:17.478Z</time></trkpt><trkpt lat="42.2689209" lon="14.1148402"><ele>243.39999999999998</ele><time>2026-05-01T14:47:19.489Z</time></trkpt><trkpt lat="42.268871" lon="14.1147181"><ele>239.79999999999998</ele><time>2026-05-01T14:47:21.488Z</time></trkpt><trkpt lat="42.2688334" lon="14.1145873"><ele>236.2</ele><time>2026-05-01T14:47:23.485Z</time></trkpt><trkpt lat="42.2688274" lon="14.1144983"><ele>232.6</ele><time>2026-05-01T14:47:24.477Z</time></trkpt><trkpt lat="42.2688108" lon="14.1143417"><ele>229.0</ele><time>2026-05-01T14:47:26.487Z</time></trkpt><trkpt lat="42.2687752" lon="14.1141728"><ele>228.99999999999997</ele><time>2026-05-01T14:47:28.483Z</time></trkpt><trkpt lat="42.2687584" lon="14.1140645"><ele>229.0</ele><time>2026-05-01T14:47:29.493Z</time></trkpt><trkpt lat="42.2687316" lon="14.1139676"><ele>229.0</ele><time>2026-05-01T14:47:30.476Z</time></trkpt><trkpt lat="42.2686902" lon="14.1138902"><ele>229.0</ele><time>2026-05-01T14:47:31.49Z</time></trkpt><trkpt lat="42.2686338" lon="14.1138244"><ele>228.99999999999997</ele><time>2026-05-01T14:47:32.474Z</time></trkpt><trkpt lat="42.2685602" lon="14.1137699"><ele>229.0</ele><time>2026-05-01T14:47:33.478Z</time></trkpt><trkpt lat="42.2684758" lon="14.1137116"><ele>228.99999999999997</ele><time>2026-05-01T14:47:34.487Z</time></trkpt><trkpt lat="42.268399" lon="14.113648"><ele>229.0</ele><time>2026-05-01T14:47:35.482Z</time></trkpt><trkpt lat="42.2683201" lon="14.1135885"><ele>229.0</ele><time>2026-05-01T14:47:36.488Z</time></trkpt><trkpt lat="42.268253" lon="14.1135392"><ele>229.0</ele><time>2026-05-01T14:47:37.478Z</time></trkpt><trkpt lat="42.2681887" lon="14.1135104"><ele>228.99999999999997</ele><time>2026-05-01T14:47:38.484Z</time></trkpt><trkpt lat="42.2681272" lon="14.1134758"><ele>229.0</ele><time>2026-05-01T14:47:39.476Z</time></trkpt><trkpt lat="42.2680643" lon="14.1134172"><ele>228.66666666666666</ele><time>2026-05-01T14:47:40.47Z</time></trkpt><trkpt lat="42.2680037" lon="14.1133332"><ele>228.33333333333331</ele><time>2026-05-01T14:47:41.485Z</time></trkpt><trkpt lat="42.2679418" lon="14.1132398"><ele>228.0</ele><time>2026-05-01T14:47:42.48Z</time></trkpt><trkpt lat="42.2678817" lon="14.1131404"><ele>227.66666666666669</ele><time>2026-05-01T14:47:43.48Z</time></trkpt><trkpt lat="42.2678326" lon="14.1130413"><ele>227.33333333333334</ele><time>2026-05-01T14:47:44.48Z</time></trkpt><trkpt lat="42.2677959" lon="14.1129512"><ele>227.0</ele><time>2026-05-01T14:47:45.48Z</time></trkpt><trkpt lat="42.2677559" lon="14.1128607"><ele>227.33333333333334</ele><time>2026-05-01T14:47:46.479Z</time></trkpt><trkpt lat="42.2676951" lon="14.1127743"><ele>227.66666666666669</ele><time>2026-05-01T14:47:47.483Z</time></trkpt><trkpt lat="42.2676285" lon="14.1126888"><ele>228.0</ele><time>2026-05-01T14:47:48.48Z</time></trkpt><trkpt lat="42.2675609" lon="14.1126127"><ele>228.33333333333331</ele><time>2026-05-01T14:47:49.486Z</time></trkpt><trkpt lat="42.2675029" lon="14.112541"><ele>228.66666666666666</ele><time>2026-05-01T14:47:50.478Z</time></trkpt><trkpt lat="42.2674561" lon="14.1124679"><ele>229.0</ele><time>2026-05-01T14:47:51.486Z</time></trkpt><trkpt lat="42.2674158" lon="14.1123829"><ele>229.0</ele><time>2026-05-01T14:47:52.469Z</time></trkpt><trkpt lat="42.2673857" lon="14.1122717"><ele>228.99999999999997</ele><time>2026-05-01T14:47:53.481Z</time></trkpt><trkpt lat="42.2673555" lon="14.1121382"><ele>228.99999999999997</ele><time>2026-05-01T14:47:54.487Z</time></trkpt><trkpt lat="42.2673268" lon="14.1120007"><ele>229.0</ele><time>2026-05-01T14:47:55.481Z</time></trkpt><trkpt lat="42.2672976" lon="14.1118724"><ele>229.0</ele><time>2026-05-01T14:47:56.487Z</time></trkpt><trkpt lat="42.2672599" lon="14.1117476"><ele>232.0</ele><time>2026-05-01T14:47:57.477Z</time></trkpt><trkpt lat="42.2672227" lon="14.1116312"><ele>234.99999999999997</ele><time>2026-05-01T14:47:58.478Z</time></trkpt><trkpt lat="42.2671904" lon="14.1115169"><ele>237.99999999999997</ele><time>2026-05-01T14:47:59.488Z</time></trkpt><trkpt lat="42.2671596" lon="14.1113974"><ele>241.0</ele><time>2026-05-01T14:48:00.477Z</time></trkpt><trkpt lat="42.2671257" lon="14.1112608"><ele>244.0</ele><time>2026-05-01T14:48:01.488Z</time></trkpt><trkpt lat="42.267088" lon="14.1111147"><ele>244.0</ele><time>2026-05-01T14:48:02.474Z</time></trkpt><trkpt lat="42.2670426" lon="14.1109679"><ele>243.99999999999997</ele><time>2026-05-01T14:48:03.475Z</time></trkpt><trkpt lat="42.2669965" lon="14.1108308"><ele>243.99999999999997</ele><time>2026-05-01T14:48:04.483Z</time></trkpt><trkpt lat="42.2669547" lon="14.1107108"><ele>244.0</ele><time>2026-05-01T14:48:05.47Z</time></trkpt><trkpt lat="42.2669223" lon="14.1106229"><ele>244.0</ele><time>2026-05-01T14:48:06.474Z</time></trkpt><trkpt lat="42.2668972" lon="14.1105384"><ele>244.49999999999997</ele><time>2026-05-01T14:48:07.471Z</time></trkpt><trkpt lat="42.2668758" lon="14.1104406"><ele>245.0</ele><time>2026-05-01T14:48:08.483Z</time></trkpt><trkpt lat="42.2668616" lon="14.1103316"><ele>245.5</ele><time>2026-05-01T14:48:09.491Z</time></trkpt><trkpt lat="42.2668407" lon="14.1102144"><ele>246.0</ele><time>2026-05-01T14:48:10.48Z</time></trkpt><trkpt lat="42.26682" lon="14.1100978"><ele>246.49999999999997</ele><time>2026-05-01T14:48:11.492Z</time></trkpt><trkpt lat="42.2668108" lon="14.1099806"><ele>247.0</ele><time>2026-05-01T14:48:12.477Z</time></trkpt><trkpt lat="42.2668029" lon="14.1098674"><ele>248.66666666666666</ele><time>2026-05-01T14:48:13.477Z</time></trkpt><trkpt lat="42.2667815" lon="14.1097671"><ele>250.33333333333331</ele><time>2026-05-01T14:48:14.484Z</time></trkpt><trkpt lat="42.2667482" lon="14.1096892"><ele>252.0</ele><time>2026-05-01T14:48:15.476Z</time></trkpt><trkpt lat="42.2667142" lon="14.1096103"><ele>253.66666666666669</ele><time>2026-05-01T14:48:16.478Z</time></trkpt><trkpt lat="42.2666708" lon="14.1095059"><ele>255.33333333333334</ele><time>2026-05-01T14:48:17.47Z</time></trkpt><trkpt lat="42.2666221" lon="14.1093899"><ele>257.0</ele><time>2026-05-01T14:48:18.467Z</time></trkpt><trkpt lat="42.2665724" lon="14.1092774"><ele>257.0</ele><time>2026-05-01T14:48:19.477Z</time></trkpt><trkpt lat="42.2665217" lon="14.1091773"><ele>257.0</ele><time>2026-05-01T14:48:20.471Z</time></trkpt><trkpt lat="42.2664694" lon="14.1090728"><ele>257.0</ele><time>2026-05-01T14:48:21.478Z</time></trkpt><trkpt lat="42.2664156" lon="14.1089814"><ele>257.0</ele><time>2026-05-01T14:48:22.473Z</time></trkpt><trkpt lat="42.266363" lon="14.1088937"><ele>257.0</ele><time>2026-05-01T14:48:23.49Z</time></trkpt><trkpt lat="42.2663048" lon="14.1088073"><ele>257.0</ele><time>2026-05-01T14:48:24.492Z</time></trkpt><trkpt lat="42.2662417" lon="14.1087197"><ele>259.0</ele><time>2026-05-01T14:48:25.481Z</time></trkpt><trkpt lat="42.2661719" lon="14.1086238"><ele>261.0</ele><time>2026-05-01T14:48:26.492Z</time></trkpt><trkpt lat="42.2661065" lon="14.1085211"><ele>263.0</ele><time>2026-05-01T14:48:27.478Z</time></trkpt><trkpt lat="42.2660382" lon="14.1084225"><ele>265.0</ele><time>2026-05-01T14:48:28.481Z</time></trkpt><trkpt lat="42.2659717" lon="14.1083214"><ele>267.0</ele><time>2026-05-01T14:48:29.486Z</time></trkpt><trkpt lat="42.2659085" lon="14.1082233"><ele>267.4</ele><time>2026-05-01T14:48:30.479Z</time></trkpt><trkpt lat="42.2658515" lon="14.1081181"><ele>267.79999999999995</ele><time>2026-05-01T14:48:31.485Z</time></trkpt><trkpt lat="42.265797" lon="14.1080011"><ele>268.2</ele><time>2026-05-01T14:48:32.476Z</time></trkpt><trkpt lat="42.2657543" lon="14.1078785"><ele>268.59999999999997</ele><time>2026-05-01T14:48:33.483Z</time></trkpt><trkpt lat="42.2657165" lon="14.1077625"><ele>269.0</ele><time>2026-05-01T14:48:34.48Z</time></trkpt><trkpt lat="42.2656794" lon="14.1076601"><ele>269.0</ele><time>2026-05-01T14:48:35.479Z</time></trkpt><trkpt lat="42.2656431" lon="14.1075658"><ele>269.0</ele><time>2026-05-01T14:48:36.477Z</time></trkpt><trkpt lat="42.2656072" lon="14.1074884"><ele>269.0</ele><time>2026-05-01T14:48:37.481Z</time></trkpt><trkpt lat="42.2655698" lon="14.1074185"><ele>269.0</ele><time>2026-05-01T14:48:38.478Z</time></trkpt><trkpt lat="42.2655249" lon="14.1073426"><ele>269.0</ele><time>2026-05-01T14:48:39.488Z</time></trkpt><trkpt lat="42.2654849" lon="14.1072765"><ele>269.0</ele><time>2026-05-01T14:48:40.479Z</time></trkpt><trkpt lat="42.2654162" lon="14.107152"><ele>269.1666666666667</ele><time>2026-05-01T14:48:42.478Z</time></trkpt><trkpt lat="42.2653831" lon="14.1070518"><ele>269.33333333333337</ele><time>2026-05-01T14:48:44.474Z</time></trkpt><trkpt lat="42.2653669" lon="14.1069574"><ele>269.5</ele><time>2026-05-01T14:52:00.489Z</time></trkpt><trkpt lat="42.2653761" lon="14.1068664"><ele>269.6666666666667</ele><time>2026-05-01T14:52:05.487Z</time></trkpt><trkpt lat="42.2654619" lon="14.1067983"><ele>269.8333333333333</ele><time>2026-05-01T14:52:08.489Z</time></trkpt><trkpt lat="42.2655296" lon="14.1067013"><ele>270.0</ele><time>2026-05-01T14:52:10.488Z</time></trkpt><trkpt lat="42.2655916" lon="14.1065973"><ele>265.0</ele><time>2026-05-01T14:52:12.493Z</time></trkpt><trkpt lat="42.2656578" lon="14.1064936"><ele>260.0</ele><time>2026-05-01T14:52:14.488Z</time></trkpt><trkpt lat="42.2657248" lon="14.1064366"><ele>255.0</ele><time>2026-05-01T14:52:16.482Z</time></trkpt><trkpt lat="42.2658137" lon="14.1063904"><ele>250.0</ele><time>2026-05-01T14:52:19.489Z</time></trkpt><trkpt lat="42.2658963" lon="14.1063519"><ele>245.0</ele><time>2026-05-01T14:52:21.492Z</time></trkpt><trkpt lat="42.265972" lon="14.1062932"><ele>245.00000000000003</ele><time>2026-05-01T14:52:23.49Z</time></trkpt><trkpt lat="42.2660491" lon="14.1062059"><ele>245.0</ele><time>2026-05-01T14:52:25.484Z</time></trkpt><trkpt lat="42.2661144" lon="14.1061228"><ele>245.0</ele><time>2026-05-01T14:52:27.484Z</time></trkpt><trkpt lat="42.2661621" lon="14.1060399"><ele>245.0</ele><time>2026-05-01T14:52:29.483Z</time></trkpt><trkpt lat="42.2662028" lon="14.1059402"><ele>245.00000000000003</ele><time>2026-05-01T14:52:31.486Z</time></trkpt><trkpt lat="42.2662295" lon="14.105854"><ele>245.0</ele><time>2026-05-01T14:52:33.476Z</time></trkpt><trkpt lat="42.2662568" lon="14.1057543"><ele>241.16666666666669</ele><time>2026-05-01T14:52:36.474Z</time></trkpt><trkpt lat="42.2662736" lon="14.1056613"><ele>237.33333333333334</ele><time>2026-05-01T14:52:38.474Z</time></trkpt><trkpt lat="42.2662919" lon="14.1055565"><ele>233.5</ele><time>2026-05-01T14:52:41.484Z</time></trkpt><trkpt lat="42.2663121" lon="14.1054717"><ele>229.66666666666669</ele><time>2026-05-01T14:52:44.494Z</time></trkpt><trkpt lat="42.266332" lon="14.1053696"><ele>225.83333333333334</ele><time>2026-05-01T14:52:48.483Z</time></trkpt><trkpt lat="42.2663576" lon="14.1052563"><ele>222.0</ele><time>2026-05-01T14:52:53.487Z</time></trkpt><trkpt lat="42.2663871" lon="14.1051491"><ele>222.0</ele><time>2026-05-01T14:52:56.484Z</time></trkpt><trkpt lat="42.266426" lon="14.1050439"><ele>222.0</ele><time>2026-05-01T14:52:58.487Z</time></trkpt><trkpt lat="42.2664838" lon="14.1049571"><ele>222.0</ele><time>2026-05-01T14:53:00.484Z</time></trkpt><trkpt lat="42.2665688" lon="14.1048716"><ele>222.0</ele><time>2026-05-01T14:53:02.492Z</time></trkpt><trkpt lat="42.2666234" lon="14.1048247"><ele>222.0</ele><time>2026-05-01T14:53:03.484Z</time></trkpt><trkpt lat="42.2666834" lon="14.104781"><ele>222.0</ele><time>2026-05-01T14:53:04.49Z</time></trkpt><trkpt lat="42.2667467" lon="14.1047485"><ele>219.7142857142857</ele><time>2026-05-01T14:53:05.483Z</time></trkpt><trkpt lat="42.2668154" lon="14.104728"><ele>217.42857142857144</ele><time>2026-05-01T14:53:06.482Z</time></trkpt><trkpt lat="42.2668886" lon="14.1047189"><ele>215.14285714285714</ele><time>2026-05-01T14:53:07.492Z</time></trkpt><trkpt lat="42.2669603" lon="14.1047172"><ele>212.85714285714283</ele><time>2026-05-01T14:53:08.478Z</time></trkpt><trkpt lat="42.2670264" lon="14.1047193"><ele>210.57142857142856</ele><time>2026-05-01T14:53:09.484Z</time></trkpt><trkpt lat="42.2670947" lon="14.1047167"><ele>208.28571428571428</ele><time>2026-05-01T14:53:10.478Z</time></trkpt><trkpt lat="42.267169" lon="14.1047077"><ele>206.0</ele><time>2026-05-01T14:53:11.476Z</time></trkpt><trkpt lat="42.2672433" lon="14.1047004"><ele>206.50000000000003</ele><time>2026-05-01T14:53:12.485Z</time></trkpt><trkpt lat="42.2673194" lon="14.1046886"><ele>207.0</ele><time>2026-05-01T14:53:13.482Z</time></trkpt><trkpt lat="42.2673906" lon="14.1046695"><ele>207.5</ele><time>2026-05-01T14:53:14.486Z</time></trkpt><trkpt lat="42.2674642" lon="14.1046484"><ele>208.0</ele><time>2026-05-01T14:53:15.484Z</time></trkpt><trkpt lat="42.2675447" lon="14.1046287"><ele>208.50000000000003</ele><time>2026-05-01T14:53:16.487Z</time></trkpt><trkpt lat="42.2676369" lon="14.1046115"><ele>209.0</ele><time>2026-05-01T14:53:17.497Z</time></trkpt><trkpt lat="42.2677391" lon="14.1045934"><ele>209.0</ele><time>2026-05-01T14:53:18.487Z</time></trkpt><trkpt lat="42.2678467" lon="14.1045788"><ele>209.0</ele><time>2026-05-01T14:53:19.501Z</time></trkpt><trkpt lat="42.2679499" lon="14.1045663"><ele>209.0</ele><time>2026-05-01T14:53:20.486Z</time></trkpt><trkpt lat="42.2680521" lon="14.1045527"><ele>209.0</ele><time>2026-05-01T14:53:21.489Z</time></trkpt><trkpt lat="42.2681539" lon="14.1045331"><ele>209.0</ele><time>2026-05-01T14:53:22.497Z</time></trkpt><trkpt lat="42.2682552" lon="14.1045064"><ele>209.83333333333334</ele><time>2026-05-01T14:53:23.492Z</time></trkpt><trkpt lat="42.2683449" lon="14.1044783"><ele>210.66666666666669</ele><time>2026-05-01T14:53:24.493Z</time></trkpt><trkpt lat="42.2684285" lon="14.1044536"><ele>211.5</ele><time>2026-05-01T14:53:25.482Z</time></trkpt><trkpt lat="42.2685008" lon="14.1044352"><ele>212.33333333333331</ele><time>2026-05-01T14:53:26.488Z</time></trkpt><trkpt lat="42.2685636" lon="14.1044235"><ele>213.16666666666666</ele><time>2026-05-01T14:53:27.485Z</time></trkpt><trkpt lat="42.2686847" lon="14.1044168"><ele>214.0</ele><time>2026-05-01T14:53:29.487Z</time></trkpt><trkpt lat="42.2687992" lon="14.104451"><ele>213.99999999999997</ele><time>2026-05-01T14:53:31.491Z</time></trkpt><trkpt lat="42.2689185" lon="14.1044771"><ele>214.0</ele><time>2026-05-01T14:53:33.482Z</time></trkpt><trkpt lat="42.2689924" lon="14.1044998"><ele>214.0</ele><time>2026-05-01T14:53:34.497Z</time></trkpt><trkpt lat="42.2690757" lon="14.1045277"><ele>214.0</ele><time>2026-05-01T14:53:35.484Z</time></trkpt><trkpt lat="42.2691561" lon="14.1045547"><ele>213.99999999999997</ele><time>2026-05-01T14:53:36.489Z</time></trkpt><trkpt lat="42.2692269" lon="14.1045688"><ele>214.0</ele><time>2026-05-01T14:53:37.486Z</time></trkpt><trkpt lat="42.2693442" lon="14.1046234"><ele>213.83333333333331</ele><time>2026-05-01T14:53:39.482Z</time></trkpt><trkpt lat="42.2694142" lon="14.1046537"><ele>213.66666666666666</ele><time>2026-05-01T14:53:40.49Z</time></trkpt><trkpt lat="42.2694939" lon="14.1046755"><ele>213.5</ele><time>2026-05-01T14:53:41.477Z</time></trkpt><trkpt lat="42.2695732" lon="14.1046726"><ele>213.33333333333331</ele><time>2026-05-01T14:53:42.473Z</time></trkpt><trkpt lat="42.2696634" lon="14.1046576"><ele>213.16666666666666</ele><time>2026-05-01T14:53:43.489Z</time></trkpt><trkpt lat="42.269762" lon="14.1046322"><ele>213.0</ele><time>2026-05-01T14:53:44.481Z</time></trkpt><trkpt lat="42.2698538" lon="14.104618"><ele>213.83333333333334</ele><time>2026-05-01T14:53:45.486Z</time></trkpt><trkpt lat="42.2699424" lon="14.1046105"><ele>214.66666666666669</ele><time>2026-05-01T14:53:46.477Z</time></trkpt><trkpt lat="42.2700228" lon="14.1046166"><ele>215.5</ele><time>2026-05-01T14:53:47.476Z</time></trkpt><trkpt lat="42.2701061" lon="14.1046296"><ele>216.33333333333334</ele><time>2026-05-01T14:53:48.478Z</time></trkpt><trkpt lat="42.2701926" lon="14.1046409"><ele>217.16666666666669</ele><time>2026-05-01T14:53:49.469Z</time></trkpt><trkpt lat="42.2702787" lon="14.1046492"><ele>218.0</ele><time>2026-05-01T14:53:50.48Z</time></trkpt><trkpt lat="42.270358" lon="14.104657"><ele>218.00000000000003</ele><time>2026-05-01T14:53:51.477Z</time></trkpt><trkpt lat="42.2704368" lon="14.104659"><ele>218.0</ele><time>2026-05-01T14:53:52.474Z</time></trkpt><trkpt lat="42.270519" lon="14.1046529"><ele>218.0</ele><time>2026-05-01T14:53:53.485Z</time></trkpt><trkpt lat="42.2705935" lon="14.104645"><ele>218.0</ele><time>2026-05-01T14:53:54.475Z</time></trkpt><trkpt lat="42.2706608" lon="14.1046369"><ele>218.00000000000003</ele><time>2026-05-01T14:53:55.482Z</time></trkpt><trkpt lat="42.2707886" lon="14.1046015"><ele>218.0</ele><time>2026-05-01T14:53:57.486Z</time></trkpt><trkpt lat="42.2708606" lon="14.1045818"><ele>217.66666666666669</ele><time>2026-05-01T14:53:58.495Z</time></trkpt><trkpt lat="42.2709374" lon="14.1045603"><ele>217.33333333333334</ele><time>2026-05-01T14:53:59.483Z</time></trkpt><trkpt lat="42.2710161" lon="14.1045396"><ele>217.0</ele><time>2026-05-01T14:54:00.497Z</time></trkpt><trkpt lat="42.2710989" lon="14.1045155"><ele>216.66666666666669</ele><time>2026-05-01T14:54:01.487Z</time></trkpt><trkpt lat="42.2711834" lon="14.1044881"><ele>216.33333333333334</ele><time>2026-05-01T14:54:02.484Z</time></trkpt><trkpt lat="42.2712782" lon="14.1044596"><ele>216.0</ele><time>2026-05-01T14:54:03.493Z</time></trkpt><trkpt lat="42.2713739" lon="14.1044407"><ele>214.83333333333334</ele><time>2026-05-01T14:54:04.482Z</time></trkpt><trkpt lat="42.2714643" lon="14.1044352"><ele>213.66666666666669</ele><time>2026-05-01T14:54:05.489Z</time></trkpt><trkpt lat="42.2715464" lon="14.1044444"><ele>212.5</ele><time>2026-05-01T14:54:06.478Z</time></trkpt><trkpt lat="42.2716182" lon="14.1044505"><ele>211.33333333333334</ele><time>2026-05-01T14:54:07.483Z</time></trkpt><trkpt lat="42.2716854" lon="14.1044326"><ele>210.16666666666669</ele><time>2026-05-01T14:54:08.483Z</time></trkpt><trkpt lat="42.2717483" lon="14.1043868"><ele>209.0</ele><time>2026-05-01T14:54:09.477Z</time></trkpt><trkpt lat="42.2718066" lon="14.1043249"><ele>209.00000000000003</ele><time>2026-05-01T14:54:10.479Z</time></trkpt><trkpt lat="42.2718772" lon="14.104249"><ele>209.0</ele><time>2026-05-01T14:54:11.481Z</time></trkpt><trkpt lat="42.2719419" lon="14.1041788"><ele>209.0</ele><time>2026-05-01T14:54:12.483Z</time></trkpt><trkpt lat="42.2719937" lon="14.1041096"><ele>209.0</ele><time>2026-05-01T14:54:13.492Z</time></trkpt><trkpt lat="42.2720373" lon="14.1040349"><ele>209.00000000000003</ele><time>2026-05-01T14:54:14.483Z</time></trkpt><trkpt lat="42.2720784" lon="14.1039418"><ele>209.0</ele><time>2026-05-01T14:54:15.49Z</time></trkpt><trkpt lat="42.2721118" lon="14.1038577"><ele>206.66666666666669</ele><time>2026-05-01T14:54:16.481Z</time></trkpt><trkpt lat="42.272145" lon="14.1037209"><ele>204.33333333333334</ele><time>2026-05-01T14:54:18.493Z</time></trkpt><trkpt lat="42.2721658" lon="14.1036154"><ele>202.0</ele><time>2026-05-01T14:54:20.492Z</time></trkpt><trkpt lat="42.2721958" lon="14.1035218"><ele>199.66666666666669</ele><time>2026-05-01T14:54:22.477Z</time></trkpt><trkpt lat="42.2722204" lon="14.1034268"><ele>197.33333333333334</ele><time>2026-05-01T14:54:40.476Z</time></trkpt><trkpt lat="42.2722486" lon="14.1033339"><ele>195.0</ele><time>2026-05-01T14:54:42.476Z</time></trkpt><trkpt lat="42.2722573" lon="14.103156"><ele>193.16666666666666</ele><time>2026-05-01T14:54:44.479Z</time></trkpt><trkpt lat="42.2722682" lon="14.1030454"><ele>191.33333333333334</ele><time>2026-05-01T14:54:45.493Z</time></trkpt><trkpt lat="42.2722722" lon="14.1029231"><ele>189.5</ele><time>2026-05-01T14:54:46.489Z</time></trkpt><trkpt lat="42.272281" lon="14.1028132"><ele>187.66666666666669</ele><time>2026-05-01T14:54:47.483Z</time></trkpt><trkpt lat="42.2723069" lon="14.1027214"><ele>185.83333333333334</ele><time>2026-05-01T14:54:48.502Z</time></trkpt><trkpt lat="42.2723571" lon="14.1026413"><ele>184.0</ele><time>2026-05-01T14:54:49.482Z</time></trkpt><trkpt lat="42.2724287" lon="14.1025694"><ele>185.6</ele><time>2026-05-01T14:54:50.499Z</time></trkpt><trkpt lat="42.2725178" lon="14.1024917"><ele>187.2</ele><time>2026-05-01T14:54:51.497Z</time></trkpt><trkpt lat="42.2726059" lon="14.1024204"><ele>188.79999999999998</ele><time>2026-05-01T14:54:52.501Z</time></trkpt><trkpt lat="42.272691" lon="14.1023541"><ele>190.39999999999998</ele><time>2026-05-01T14:54:53.496Z</time></trkpt><trkpt lat="42.2727655" lon="14.1022832"><ele>192.0</ele><time>2026-05-01T14:54:54.491Z</time></trkpt><trkpt lat="42.2728334" lon="14.1021847"><ele>192.0</ele><time>2026-05-01T14:54:55.485Z</time></trkpt><trkpt lat="42.2728879" lon="14.1020602"><ele>192.0</ele><time>2026-05-01T14:54:56.491Z</time></trkpt><trkpt lat="42.272935" lon="14.101921"><ele>192.0</ele><time>2026-05-01T14:54:57.493Z</time></trkpt><trkpt lat="42.2729716" lon="14.1017783"><ele>192.0</ele><time>2026-05-01T14:54:58.492Z</time></trkpt><trkpt lat="42.2730074" lon="14.1016558"><ele>192.0</ele><time>2026-05-01T14:54:59.496Z</time></trkpt><trkpt lat="42.2730488" lon="14.1015622"><ele>191.83333333333334</ele><time>2026-05-01T14:55:00.485Z</time></trkpt><trkpt lat="42.2730938" lon="14.101481"><ele>191.66666666666666</ele><time>2026-05-01T14:55:01.486Z</time></trkpt><trkpt lat="42.2731525" lon="14.1014187"><ele>191.5</ele><time>2026-05-01T14:55:02.481Z</time></trkpt><trkpt lat="42.2732225" lon="14.1013803"><ele>191.33333333333331</ele><time>2026-05-01T14:55:03.48Z</time></trkpt><trkpt lat="42.2733055" lon="14.1013761"><ele>191.16666666666666</ele><time>2026-05-01T14:55:04.466Z</time></trkpt><trkpt lat="42.2733969" lon="14.1014142"><ele>191.0</ele><time>2026-05-01T14:55:05.481Z</time></trkpt><trkpt lat="42.273504" lon="14.101478"><ele>191.0</ele><time>2026-05-01T14:55:06.474Z</time></trkpt><trkpt lat="42.2736254" lon="14.1015463"><ele>191.0</ele><time>2026-05-01T14:55:07.48Z</time></trkpt><trkpt lat="42.2737507" lon="14.1016146"><ele>191.0</ele><time>2026-05-01T14:55:08.493Z</time></trkpt><trkpt lat="42.2738827" lon="14.1016783"><ele>191.0</ele><time>2026-05-01T14:55:09.486Z</time></trkpt><trkpt lat="42.2740053" lon="14.1017372"><ele>189.5</ele><time>2026-05-01T14:55:10.478Z</time></trkpt><trkpt lat="42.2741251" lon="14.101785"><ele>188.0</ele><time>2026-05-01T14:55:11.485Z</time></trkpt><trkpt lat="42.2742453" lon="14.1018141"><ele>186.5</ele><time>2026-05-01T14:55:12.48Z</time></trkpt><trkpt lat="42.2743578" lon="14.1018128"><ele>185.0</ele><time>2026-05-01T14:55:13.485Z</time></trkpt><trkpt lat="42.2744697" lon="14.1017867"><ele>185.0</ele><time>2026-05-01T14:55:14.485Z</time></trkpt><trkpt lat="42.2745764" lon="14.1017365"><ele>185.0</ele><time>2026-05-01T14:55:15.492Z</time></trkpt><trkpt lat="42.2746688" lon="14.1016638"><ele>185.0</ele><time>2026-05-01T14:55:16.496Z</time></trkpt><trkpt lat="42.2747504" lon="14.1015798"><ele>185.0</ele><time>2026-05-01T14:55:17.499Z</time></trkpt><trkpt lat="42.2748296" lon="14.1014835"><ele>185.0</ele><time>2026-05-01T14:55:18.492Z</time></trkpt><trkpt lat="42.274903" lon="14.1013724"><ele>183.8</ele><time>2026-05-01T14:55:19.491Z</time></trkpt><trkpt lat="42.2749641" lon="14.1012657"><ele>182.6</ele><time>2026-05-01T14:55:20.486Z</time></trkpt><trkpt lat="42.2750143" lon="14.1011471"><ele>181.39999999999998</ele><time>2026-05-01T14:55:21.493Z</time></trkpt><trkpt lat="42.2750547" lon="14.1010057"><ele>180.2</ele><time>2026-05-01T14:55:22.494Z</time></trkpt><trkpt lat="42.2751027" lon="14.100856"><ele>179.0</ele><time>2026-05-01T14:55:23.501Z</time></trkpt><trkpt lat="42.2751583" lon="14.1006969"><ele>177.75</ele><time>2026-05-01T14:55:24.489Z</time></trkpt><trkpt lat="42.2752218" lon="14.1005349"><ele>176.5</ele><time>2026-05-01T14:55:25.492Z</time></trkpt><trkpt lat="42.2752908" lon="14.1003716"><ele>175.25</ele><time>2026-05-01T14:55:26.482Z</time></trkpt><trkpt lat="42.2753632" lon="14.1001992"><ele>174.0</ele><time>2026-05-01T14:55:27.488Z</time></trkpt><trkpt lat="42.2754294" lon="14.1000271"><ele>174.25</ele><time>2026-05-01T14:55:28.495Z</time></trkpt><trkpt lat="42.2755047" lon="14.0998612"><ele>174.5</ele><time>2026-05-01T14:55:29.499Z</time></trkpt><trkpt lat="42.2755415" lon="14.0997169"><ele>174.75</ele><time>2026-05-01T14:55:30.499Z</time></trkpt><trkpt lat="42.2755663" lon="14.0995374"><ele>175.0</ele><time>2026-05-01T14:55:31.497Z</time></trkpt><trkpt lat="42.2755587" lon="14.0993657"><ele>175.0</ele><time>2026-05-01T14:55:32.49Z</time></trkpt><trkpt lat="42.2755314" lon="14.0991819"><ele>175.0</ele><time>2026-05-01T14:55:33.493Z</time></trkpt><trkpt lat="42.2754989" lon="14.0990077"><ele>175.0</ele><time>2026-05-01T14:55:34.495Z</time></trkpt><trkpt lat="42.2754608" lon="14.0988264"><ele>175.0</ele><time>2026-05-01T14:55:35.49Z</time></trkpt><trkpt lat="42.2754189" lon="14.0986606"><ele>176.25</ele><time>2026-05-01T14:55:36.495Z</time></trkpt><trkpt lat="42.2753808" lon="14.098482"><ele>177.5</ele><time>2026-05-01T14:55:37.501Z</time></trkpt><trkpt lat="42.2753629" lon="14.0982857"><ele>178.75</ele><time>2026-05-01T14:55:38.495Z</time></trkpt><trkpt lat="42.2753422" lon="14.0981031"><ele>180.0</ele><time>2026-05-01T14:55:39.501Z</time></trkpt><trkpt lat="42.2753373" lon="14.0979286"><ele>180.0</ele><time>2026-05-01T14:55:40.495Z</time></trkpt><trkpt lat="42.2753444" lon="14.0977561"><ele>180.0</ele><time>2026-05-01T14:55:41.507Z</time></trkpt><trkpt lat="42.2753569" lon="14.0975839"><ele>180.0</ele><time>2026-05-01T14:55:42.496Z</time></trkpt><trkpt lat="42.2753791" lon="14.0974024"><ele>180.0</ele><time>2026-05-01T14:55:43.498Z</time></trkpt><trkpt lat="42.2754002" lon="14.0972116"><ele>178.75</ele><time>2026-05-01T14:55:44.509Z</time></trkpt><trkpt lat="42.2754266" lon="14.0970479"><ele>177.5</ele><time>2026-05-01T14:55:45.501Z</time></trkpt><trkpt lat="42.2754486" lon="14.096896"><ele>176.25</ele><time>2026-05-01T14:55:46.509Z</time></trkpt><trkpt lat="42.2754605" lon="14.0967417"><ele>175.0</ele><time>2026-05-01T14:55:47.501Z</time></trkpt><trkpt lat="42.275474" lon="14.0965906"><ele>173.6</ele><time>2026-05-01T14:55:48.503Z</time></trkpt><trkpt lat="42.2754926" lon="14.0964426"><ele>172.2</ele><time>2026-05-01T14:55:49.501Z</time></trkpt><trkpt lat="42.2755082" lon="14.0962945"><ele>170.8</ele><time>2026-05-01T14:55:50.504Z</time></trkpt><trkpt lat="42.2755221" lon="14.0961505"><ele>169.4</ele><time>2026-05-01T14:55:51.496Z</time></trkpt><trkpt lat="42.2755321" lon="14.0960107"><ele>168.0</ele><time>2026-05-01T14:55:52.499Z</time></trkpt><trkpt lat="42.2755501" lon="14.0958746"><ele>167.4</ele><time>2026-05-01T14:55:53.487Z</time></trkpt><trkpt lat="42.2755749" lon="14.0957408"><ele>166.8</ele><time>2026-05-01T14:55:54.505Z</time></trkpt><trkpt lat="42.2756097" lon="14.0956121"><ele>166.2</ele><time>2026-05-01T14:55:55.491Z</time></trkpt><trkpt lat="42.2756397" lon="14.0954979"><ele>165.6</ele><time>2026-05-01T14:55:56.496Z</time></trkpt><trkpt lat="42.2756538" lon="14.095388"><ele>165.0</ele><time>2026-05-01T14:55:57.494Z</time></trkpt><trkpt lat="42.2756575" lon="14.0952767"><ele>165.0</ele><time>2026-05-01T14:55:58.495Z</time></trkpt><trkpt lat="42.2756641" lon="14.0951833"><ele>165.0</ele><time>2026-05-01T14:55:59.486Z</time></trkpt><trkpt lat="42.2757203" lon="14.0950559"><ele>165.0</ele><time>2026-05-01T14:56:01.501Z</time></trkpt><trkpt lat="42.275791" lon="14.0950272"><ele>165.0</ele><time>2026-05-01T14:56:02.489Z</time></trkpt><trkpt lat="42.2758963" lon="14.0950019"><ele>165.0</ele><time>2026-05-01T14:56:03.487Z</time></trkpt><trkpt lat="42.2760047" lon="14.0949653"><ele>162.25</ele><time>2026-05-01T14:56:04.493Z</time></trkpt><trkpt lat="42.276123" lon="14.0949057"><ele>159.5</ele><time>2026-05-01T14:56:05.494Z</time></trkpt><trkpt lat="42.2762406" lon="14.0948365"><ele>156.75</ele><time>2026-05-01T14:56:06.504Z</time></trkpt><trkpt lat="42.276366" lon="14.0947708"><ele>154.0</ele><time>2026-05-01T14:56:07.491Z</time></trkpt><trkpt lat="42.2764883" lon="14.0947029"><ele>154.0</ele><time>2026-05-01T14:56:08.5Z</time></trkpt><trkpt lat="42.2766077" lon="14.0946364"><ele>154.0</ele><time>2026-05-01T14:56:09.499Z</time></trkpt><trkpt lat="42.2767193" lon="14.0945575"><ele>154.0</ele><time>2026-05-01T14:56:10.488Z</time></trkpt><trkpt lat="42.2768144" lon="14.0944613"><ele>154.0</ele><time>2026-05-01T14:56:11.495Z</time></trkpt><trkpt lat="42.2768915" lon="14.094343"><ele>154.0</ele><time>2026-05-01T14:56:12.486Z</time></trkpt><trkpt lat="42.276947" lon="14.0941987"><ele>154.0</ele><time>2026-05-01T14:56:13.484Z</time></trkpt><trkpt lat="42.2769829" lon="14.0940285"><ele>154.0</ele><time>2026-05-01T14:56:14.495Z</time></trkpt><trkpt lat="42.2770096" lon="14.0938422"><ele>154.0</ele><time>2026-05-01T14:56:15.493Z</time></trkpt><trkpt lat="42.2770419" lon="14.0936541"><ele>151.75</ele><time>2026-05-01T14:56:16.491Z</time></trkpt><trkpt lat="42.2770642" lon="14.0934627"><ele>149.5</ele><time>2026-05-01T14:56:17.489Z</time></trkpt><trkpt lat="42.2770986" lon="14.0933143"><ele>147.25</ele><time>2026-05-01T14:56:18.498Z</time></trkpt><trkpt lat="42.2771476" lon="14.0931577"><ele>145.0</ele><time>2026-05-01T14:56:19.499Z</time></trkpt><trkpt lat="42.2771797" lon="14.0929862"><ele>142.75</ele><time>2026-05-01T14:56:20.493Z</time></trkpt><trkpt lat="42.2772046" lon="14.092817"><ele>140.5</ele><time>2026-05-01T14:56:21.501Z</time></trkpt><trkpt lat="42.2772181" lon="14.0926539"><ele>138.25</ele><time>2026-05-01T14:56:22.492Z</time></trkpt><trkpt lat="42.2772115" lon="14.0924852"><ele>136.0</ele><time>2026-05-01T14:56:23.502Z</time></trkpt><trkpt lat="42.2772204" lon="14.0923152"><ele>133.75</ele><time>2026-05-01T14:56:24.498Z</time></trkpt><trkpt lat="42.2772205" lon="14.0921463"><ele>131.5</ele><time>2026-05-01T14:56:25.493Z</time></trkpt><trkpt lat="42.2772191" lon="14.0919841"><ele>129.25</ele><time>2026-05-01T14:56:26.501Z</time></trkpt><trkpt lat="42.2772178" lon="14.091829"><ele>127.0</ele><time>2026-05-01T14:56:27.499Z</time></trkpt><trkpt lat="42.2772162" lon="14.0916807"><ele>128.2</ele><time>2026-05-01T14:56:28.504Z</time></trkpt><trkpt lat="42.2772248" lon="14.0915475"><ele>129.39999999999998</ele><time>2026-05-01T14:56:29.504Z</time></trkpt><trkpt lat="42.2772406" lon="14.0914138"><ele>130.60000000000002</ele><time>2026-05-01T14:56:30.501Z</time></trkpt><trkpt lat="42.2772689" lon="14.0912828"><ele>131.8</ele><time>2026-05-01T14:56:31.503Z</time></trkpt><trkpt lat="42.2773058" lon="14.0911616"><ele>133.0</ele><time>2026-05-01T14:56:32.498Z</time></trkpt><trkpt lat="42.277346" lon="14.0910624"><ele>133.0</ele><time>2026-05-01T14:56:33.49Z</time></trkpt><trkpt lat="42.2773925" lon="14.0909922"><ele>133.0</ele><time>2026-05-01T14:56:34.508Z</time></trkpt><trkpt lat="42.2774642" lon="14.0909653"><ele>133.0</ele><time>2026-05-01T14:56:35.485Z</time></trkpt><trkpt lat="42.277549" lon="14.0909703"><ele>133.0</ele><time>2026-05-01T14:56:36.484Z</time></trkpt><trkpt lat="42.2776447" lon="14.0910297"><ele>133.0</ele><time>2026-05-01T14:56:37.479Z</time></trkpt><trkpt lat="42.2777364" lon="14.0911076"><ele>133.0</ele><time>2026-05-01T14:56:38.491Z</time></trkpt><trkpt lat="42.277824" lon="14.0911818"><ele>133.0</ele><time>2026-05-01T14:56:39.486Z</time></trkpt><trkpt lat="42.277908" lon="14.0912421"><ele>133.0</ele><time>2026-05-01T14:56:40.487Z</time></trkpt><trkpt lat="42.2779842" lon="14.0912751"><ele>133.0</ele><time>2026-05-01T14:56:41.496Z</time></trkpt><trkpt lat="42.2780484" lon="14.0912494"><ele>133.0</ele><time>2026-05-01T14:56:42.485Z</time></trkpt><trkpt lat="42.2780961" lon="14.0911737"><ele>133.0</ele><time>2026-05-01T14:56:43.49Z</time></trkpt><trkpt lat="42.2781226" lon="14.091059"><ele>133.0</ele><time>2026-05-01T14:56:44.491Z</time></trkpt><trkpt lat="42.2781208" lon="14.0909355"><ele>131.0</ele><time>2026-05-01T14:56:45.485Z</time></trkpt><trkpt lat="42.2781059" lon="14.090812"><ele>129.0</ele><time>2026-05-01T14:56:46.492Z</time></trkpt><trkpt lat="42.2780864" lon="14.0907064"><ele>127.0</ele><time>2026-05-01T14:56:47.477Z</time></trkpt><trkpt lat="42.2780768" lon="14.0905717"><ele>125.0</ele><time>2026-05-01T14:56:49.478Z</time></trkpt><trkpt lat="42.278158" lon="14.0906151"><ele>123.00000000000001</ele><time>2026-05-01T14:56:52.479Z</time></trkpt><trkpt lat="42.278171" lon="14.0907305"><ele>121.0</ele><time>2026-05-01T14:56:54.484Z</time></trkpt><trkpt lat="42.2781861" lon="14.0908232"><ele>120.75</ele><time>2026-05-01T14:56:55.478Z</time></trkpt><trkpt lat="42.2782168" lon="14.0909509"><ele>120.5</ele><time>2026-05-01T14:56:56.474Z</time></trkpt><trkpt lat="42.2782633" lon="14.0910929"><ele>120.25</ele><time>2026-05-01T14:56:57.476Z</time></trkpt><trkpt lat="42.2783137" lon="14.0912399"><ele>120.0</ele><time>2026-05-01T14:56:58.497Z</time></trkpt><trkpt lat="42.2783604" lon="14.0914017"><ele>120.0</ele><time>2026-05-01T14:56:59.477Z</time></trkpt><trkpt lat="42.278392" lon="14.0915804"><ele>120.0</ele><time>2026-05-01T14:57:00.483Z</time></trkpt><trkpt lat="42.2784258" lon="14.0917643"><ele>120.0</ele><time>2026-05-01T14:57:01.482Z</time></trkpt><trkpt lat="42.2784573" lon="14.0919455"><ele>120.0</ele><time>2026-05-01T14:57:02.476Z</time></trkpt><trkpt lat="42.278477" lon="14.0921323"><ele>121.0</ele><time>2026-05-01T14:57:03.485Z</time></trkpt><trkpt lat="42.2784912" lon="14.0922865"><ele>122.0</ele><time>2026-05-01T14:57:04.472Z</time></trkpt><trkpt lat="42.2785021" lon="14.0924391"><ele>123.0</ele><time>2026-05-01T14:57:05.486Z</time></trkpt><trkpt lat="42.2785062" lon="14.0925863"><ele>124.0</ele><time>2026-05-01T14:57:06.477Z</time></trkpt><trkpt lat="42.2785453" lon="14.0927368"><ele>124.2</ele><time>2026-05-01T14:57:07.479Z</time></trkpt><trkpt lat="42.2786104" lon="14.0928839"><ele>124.4</ele><time>2026-05-01T14:57:08.491Z</time></trkpt><trkpt lat="42.2786707" lon="14.0930025"><ele>124.6</ele><time>2026-05-01T14:57:09.483Z</time></trkpt><trkpt lat="42.278738" lon="14.0931141"><ele>124.8</ele><time>2026-05-01T14:57:10.481Z</time></trkpt><trkpt lat="42.2788095" lon="14.093197"><ele>125.0</ele><time>2026-05-01T14:57:11.48Z</time></trkpt><trkpt lat="42.2788971" lon="14.0932515"><ele>123.2</ele><time>2026-05-01T14:57:12.489Z</time></trkpt><trkpt lat="42.2789903" lon="14.0932637"><ele>121.4</ele><time>2026-05-01T14:57:13.484Z</time></trkpt><trkpt lat="42.279078" lon="14.0932394"><ele>119.6</ele><time>2026-05-01T14:57:14.476Z</time></trkpt><trkpt lat="42.2791766" lon="14.0932035"><ele>117.8</ele><time>2026-05-01T14:57:15.472Z</time></trkpt><trkpt lat="42.2792818" lon="14.0931676"><ele>116.0</ele><time>2026-05-01T14:57:16.482Z</time></trkpt><trkpt lat="42.2793903" lon="14.093145"><ele>116.0</ele><time>2026-05-01T14:57:17.474Z</time></trkpt><trkpt lat="42.2794944" lon="14.0931619"><ele>116.0</ele><time>2026-05-01T14:57:18.474Z</time></trkpt><trkpt lat="42.2795892" lon="14.0932328"><ele>116.0</ele><time>2026-05-01T14:57:19.47Z</time></trkpt><trkpt lat="42.2796702" lon="14.0933428"><ele>116.0</ele><time>2026-05-01T14:57:20.481Z</time></trkpt><trkpt lat="42.2797451" lon="14.0934658"><ele>116.0</ele><time>2026-05-01T14:57:21.477Z</time></trkpt><trkpt lat="42.2798201" lon="14.0935938"><ele>113.0</ele><time>2026-05-01T14:57:22.473Z</time></trkpt><trkpt lat="42.2798965" lon="14.0937181"><ele>110.0</ele><time>2026-05-01T14:57:23.481Z</time></trkpt><trkpt lat="42.279982" lon="14.0938229"><ele>107.0</ele><time>2026-05-01T14:57:24.465Z</time></trkpt><trkpt lat="42.2800622" lon="14.0938941"><ele>104.0</ele><time>2026-05-01T14:57:25.468Z</time></trkpt><trkpt lat="42.2801246" lon="14.0939571"><ele>101.0</ele><time>2026-05-01T14:57:26.46Z</time></trkpt><trkpt lat="42.2801763" lon="14.0940265"><ele>100.8</ele><time>2026-05-01T14:57:27.473Z</time></trkpt><trkpt lat="42.280202" lon="14.0941078"><ele>100.6</ele><time>2026-05-01T14:57:28.46Z</time></trkpt><trkpt lat="42.2802075" lon="14.0942045"><ele>100.4</ele><time>2026-05-01T14:57:29.474Z</time></trkpt><trkpt lat="42.2801915" lon="14.094334"><ele>100.2</ele><time>2026-05-01T14:57:30.467Z</time></trkpt><trkpt lat="42.2801762" lon="14.0944764"><ele>100.0</ele><time>2026-05-01T14:57:31.464Z</time></trkpt><trkpt lat="42.2801671" lon="14.0946371"><ele>100.0</ele><time>2026-05-01T14:57:32.467Z</time></trkpt><trkpt lat="42.2801648" lon="14.0948152"><ele>100.0</ele><time>2026-05-01T14:57:33.469Z</time></trkpt><trkpt lat="42.2801656" lon="14.094997"><ele>100.0</ele><time>2026-05-01T14:57:34.483Z</time></trkpt><trkpt lat="42.2801753" lon="14.0951898"><ele>100.0</ele><time>2026-05-01T14:57:35.477Z</time></trkpt><trkpt lat="42.2801878" lon="14.0953803"><ele>100.0</ele><time>2026-05-01T14:57:36.483Z</time></trkpt><trkpt lat="42.28019" lon="14.0955938"><ele>100.0</ele><time>2026-05-01T14:57:37.488Z</time></trkpt><trkpt lat="42.2802103" lon="14.0958108"><ele>100.0</ele><time>2026-05-01T14:57:38.484Z</time></trkpt><trkpt lat="42.2802242" lon="14.0960075"><ele>100.0</ele><time>2026-05-01T14:57:39.492Z</time></trkpt><trkpt lat="42.2802474" lon="14.0962096"><ele>100.0</ele><time>2026-05-01T14:57:40.496Z</time></trkpt><trkpt lat="42.2802742" lon="14.0963943"><ele>100.0</ele><time>2026-05-01T14:57:41.484Z</time></trkpt><trkpt lat="42.280323" lon="14.096605"><ele>100.75</ele><time>2026-05-01T14:57:42.483Z</time></trkpt><trkpt lat="42.280359" lon="14.0967709"><ele>101.5</ele><time>2026-05-01T14:57:43.484Z</time></trkpt><trkpt lat="42.2804028" lon="14.0969109"><ele>102.25</ele><time>2026-05-01T14:57:44.472Z</time></trkpt><trkpt lat="42.2804321" lon="14.09707"><ele>103.0</ele><time>2026-05-01T14:57:45.479Z</time></trkpt><trkpt lat="42.2804259" lon="14.0972464"><ele>103.0</ele><time>2026-05-01T14:57:46.468Z</time></trkpt><trkpt lat="42.2804176" lon="14.097411"><ele>103.0</ele><time>2026-05-01T14:57:47.483Z</time></trkpt><trkpt lat="42.2804339" lon="14.0975936"><ele>103.0</ele><time>2026-05-01T14:57:48.472Z</time></trkpt><trkpt lat="42.280453" lon="14.0977502"><ele>103.0</ele><time>2026-05-01T14:57:49.478Z</time></trkpt><trkpt lat="42.2804776" lon="14.0978568"><ele>102.99999999999999</ele><time>2026-05-01T14:57:50.476Z</time></trkpt><trkpt lat="42.2805014" lon="14.0979477"><ele>103.0</ele><time>2026-05-01T14:57:51.486Z</time></trkpt><trkpt lat="42.2805252" lon="14.0980473"><ele>103.0</ele><time>2026-05-01T14:57:52.481Z</time></trkpt><trkpt lat="42.2805536" lon="14.0981465"><ele>103.0</ele><time>2026-05-01T14:57:53.481Z</time></trkpt><trkpt lat="42.2805825" lon="14.0982425"><ele>103.0</ele><time>2026-05-01T14:57:54.477Z</time></trkpt><trkpt lat="42.2806039" lon="14.0983292"><ele>102.99999999999999</ele><time>2026-05-01T14:57:55.47Z</time></trkpt><trkpt lat="42.2806221" lon="14.0984126"><ele>103.0</ele><time>2026-05-01T14:57:56.474Z</time></trkpt><trkpt lat="42.2806373" lon="14.0985128"><ele>104.4</ele><time>2026-05-01T14:57:57.486Z</time></trkpt><trkpt lat="42.2806586" lon="14.098631"><ele>105.80000000000001</ele><time>2026-05-01T14:57:58.467Z</time></trkpt><trkpt lat="42.2806831" lon="14.0987708"><ele>107.2</ele><time>2026-05-01T14:57:59.483Z</time></trkpt><trkpt lat="42.2807115" lon="14.0989221"><ele>108.6</ele><time>2026-05-01T14:58:00.478Z</time></trkpt><trkpt lat="42.2807449" lon="14.0990854"><ele>110.0</ele><time>2026-05-01T14:58:01.476Z</time></trkpt><trkpt lat="42.2807801" lon="14.0992477"><ele>111.75</ele><time>2026-05-01T14:58:02.48Z</time></trkpt><trkpt lat="42.2808145" lon="14.0994101"><ele>113.5</ele><time>2026-05-01T14:58:03.472Z</time></trkpt><trkpt lat="42.2808538" lon="14.0995727"><ele>115.25</ele><time>2026-05-01T14:58:04.474Z</time></trkpt><trkpt lat="42.2808932" lon="14.0997275"><ele>117.0</ele><time>2026-05-01T14:58:05.48Z</time></trkpt><trkpt lat="42.2809289" lon="14.0998741"><ele>118.16666666666667</ele><time>2026-05-01T14:58:06.472Z</time></trkpt><trkpt lat="42.280958" lon="14.1000063"><ele>119.33333333333334</ele><time>2026-05-01T14:58:07.475Z</time></trkpt><trkpt lat="42.280983" lon="14.1001162"><ele>120.5</ele><time>2026-05-01T14:58:08.463Z</time></trkpt><trkpt lat="42.2809967" lon="14.1002161"><ele>121.66666666666667</ele><time>2026-05-01T14:58:09.484Z</time></trkpt><trkpt lat="42.2810017" lon="14.1003153"><ele>122.83333333333334</ele><time>2026-05-01T14:58:10.481Z</time></trkpt><trkpt lat="42.281015" lon="14.1004256"><ele>124.0</ele><time>2026-05-01T14:58:11.476Z</time></trkpt><trkpt lat="42.2810302" lon="14.1005325"><ele>124.0</ele><time>2026-05-01T14:58:12.48Z</time></trkpt><trkpt lat="42.2810431" lon="14.1006221"><ele>124.0</ele><time>2026-05-01T14:58:13.476Z</time></trkpt><trkpt lat="42.2810389" lon="14.1007353"><ele>124.0</ele><time>2026-05-01T14:58:15.472Z</time></trkpt><trkpt lat="42.2810651" lon="14.1006292"><ele>124.0</ele><time>2026-05-01T14:58:25.48Z</time></trkpt><trkpt lat="42.2810603" lon="14.1004403"><ele>124.0</ele><time>2026-05-01T14:58:27.482Z</time></trkpt><trkpt lat="42.2810478" lon="14.1003274"><ele>124.00000000000001</ele><time>2026-05-01T14:58:28.494Z</time></trkpt><trkpt lat="42.2810345" lon="14.1002292"><ele>124.0</ele><time>2026-05-01T14:58:29.481Z</time></trkpt><trkpt lat="42.2810233" lon="14.1001074"><ele>124.0</ele><time>2026-05-01T14:58:31.485Z</time></trkpt><trkpt lat="42.2811009" lon="14.1001462"><ele>124.0</ele><time>2026-05-01T14:58:37.488Z</time></trkpt><trkpt lat="42.2811514" lon="14.1002637"><ele>124.00000000000001</ele><time>2026-05-01T14:58:39.475Z</time></trkpt><trkpt lat="42.2811883" lon="14.1003774"><ele>124.0</ele><time>2026-05-01T14:58:40.491Z</time></trkpt><trkpt lat="42.2812416" lon="14.100503"><ele>124.0</ele><time>2026-05-01T14:58:41.497Z</time></trkpt><trkpt lat="42.2813143" lon="14.1006318"><ele>124.0</ele><time>2026-05-01T14:58:42.493Z</time></trkpt><trkpt lat="42.2813839" lon="14.1007511"><ele>124.0</ele><time>2026-05-01T14:58:43.484Z</time></trkpt><trkpt lat="42.2814373" lon="14.1008474"><ele>124.0</ele><time>2026-05-01T14:58:44.473Z</time></trkpt><trkpt lat="42.2814785" lon="14.1009268"><ele>124.0</ele><time>2026-05-01T14:58:45.492Z</time></trkpt><trkpt lat="42.2815488" lon="14.1010776"><ele>124.00000000000001</ele><time>2026-05-01T14:58:47.477Z</time></trkpt><trkpt lat="42.2815887" lon="14.1011674"><ele>124.0</ele><time>2026-05-01T14:58:48.491Z</time></trkpt><trkpt lat="42.2816266" lon="14.10126"><ele>124.0</ele><time>2026-05-01T14:58:49.476Z</time></trkpt><trkpt lat="42.2816626" lon="14.1013561"><ele>124.0</ele><time>2026-05-01T14:58:50.48Z</time></trkpt><trkpt lat="42.2817063" lon="14.1014477"><ele>124.00000000000001</ele><time>2026-05-01T14:58:51.487Z</time></trkpt><trkpt lat="42.2817507" lon="14.1015371"><ele>124.0</ele><time>2026-05-01T14:58:52.486Z</time></trkpt><trkpt lat="42.2817942" lon="14.1016241"><ele>125.28571428571429</ele><time>2026-05-01T14:58:53.488Z</time></trkpt><trkpt lat="42.2818337" lon="14.1017026"><ele>126.57142857142858</ele><time>2026-05-01T14:58:54.484Z</time></trkpt><trkpt lat="42.2818729" lon="14.1017811"><ele>127.85714285714286</ele><time>2026-05-01T14:58:55.491Z</time></trkpt><trkpt lat="42.2819143" lon="14.101873"><ele>129.14285714285714</ele><time>2026-05-01T14:58:56.492Z</time></trkpt><trkpt lat="42.2819543" lon="14.1019717"><ele>130.42857142857144</ele><time>2026-05-01T14:58:57.484Z</time></trkpt><trkpt lat="42.2819869" lon="14.1020579"><ele>131.71428571428572</ele><time>2026-05-01T14:58:58.491Z</time></trkpt><trkpt lat="42.2820191" lon="14.1021359"><ele>133.0</ele><time>2026-05-01T14:58:59.481Z</time></trkpt><trkpt lat="42.2820541" lon="14.1022241"><ele>133.0</ele><time>2026-05-01T14:59:00.487Z</time></trkpt><trkpt lat="42.2820922" lon="14.102318"><ele>133.0</ele><time>2026-05-01T14:59:01.49Z</time></trkpt><trkpt lat="42.2821317" lon="14.1024085"><ele>133.0</ele><time>2026-05-01T14:59:02.486Z</time></trkpt><trkpt lat="42.2821686" lon="14.1024951"><ele>133.0</ele><time>2026-05-01T14:59:03.487Z</time></trkpt><trkpt lat="42.282205" lon="14.1025898"><ele>133.0</ele><time>2026-05-01T14:59:04.488Z</time></trkpt><trkpt lat="42.2822411" lon="14.1026822"><ele>133.0</ele><time>2026-05-01T14:59:05.48Z</time></trkpt><trkpt lat="42.2822811" lon="14.1027811"><ele>132.33333333333334</ele><time>2026-05-01T14:59:06.492Z</time></trkpt><trkpt lat="42.2823296" lon="14.1028756"><ele>131.66666666666669</ele><time>2026-05-01T14:59:07.488Z</time></trkpt><trkpt lat="42.2823697" lon="14.1029666"><ele>131.0</ele><time>2026-05-01T14:59:08.482Z</time></trkpt><trkpt lat="42.2824022" lon="14.1030435"><ele>130.33333333333334</ele><time>2026-05-01T14:59:09.479Z</time></trkpt><trkpt lat="42.2824432" lon="14.1031518"><ele>129.66666666666666</ele><time>2026-05-01T14:59:11.485Z</time></trkpt><trkpt lat="42.2824827" lon="14.1032477"><ele>129.0</ele><time>2026-05-01T14:59:16.47Z</time></trkpt><trkpt lat="42.2825412" lon="14.1033744"><ele>129.0</ele><time>2026-05-01T14:59:19.476Z</time></trkpt><trkpt lat="42.2825711" lon="14.1034517"><ele>129.0</ele><time>2026-05-01T14:59:20.48Z</time></trkpt><trkpt lat="42.2826236" lon="14.1035761"><ele>129.0</ele><time>2026-05-01T14:59:22.49Z</time></trkpt><trkpt lat="42.2826818" lon="14.1037196"><ele>129.0</ele><time>2026-05-01T14:59:24.483Z</time></trkpt><trkpt lat="42.2827124" lon="14.1038084"><ele>129.0</ele><time>2026-05-01T14:59:25.473Z</time></trkpt><trkpt lat="42.2827443" lon="14.1038925"><ele>129.0</ele><time>2026-05-01T14:59:26.474Z</time></trkpt><trkpt lat="42.282776" lon="14.1039718"><ele>130.75</ele><time>2026-05-01T14:59:27.471Z</time></trkpt><trkpt lat="42.2828281" lon="14.1040911"><ele>132.5</ele><time>2026-05-01T14:59:29.467Z</time></trkpt><trkpt lat="42.2828617" lon="14.1042186"><ele>134.25</ele><time>2026-05-01T14:59:31.478Z</time></trkpt><trkpt lat="42.2829147" lon="14.1043633"><ele>136.0</ele><time>2026-05-01T14:59:33.486Z</time></trkpt><trkpt lat="42.2829717" lon="14.1045277"><ele>136.0</ele><time>2026-05-01T14:59:35.48Z</time></trkpt><trkpt lat="42.2830031" lon="14.1046167"><ele>136.0</ele><time>2026-05-01T14:59:36.478Z</time></trkpt><trkpt lat="42.2830321" lon="14.1047011"><ele>136.0</ele><time>2026-05-01T14:59:37.478Z</time></trkpt><trkpt lat="42.2830644" lon="14.1047894"><ele>136.0</ele><time>2026-05-01T14:59:38.483Z</time></trkpt><trkpt lat="42.2830998" lon="14.1048815"><ele>136.0</ele><time>2026-05-01T14:59:39.488Z</time></trkpt><trkpt lat="42.2831429" lon="14.104988"><ele>136.0</ele><time>2026-05-01T14:59:40.486Z</time></trkpt><trkpt lat="42.2831914" lon="14.105101"><ele>133.2</ele><time>2026-05-01T14:59:41.495Z</time></trkpt><trkpt lat="42.2832364" lon="14.105214"><ele>130.39999999999998</ele><time>2026-05-01T14:59:42.497Z</time></trkpt><trkpt lat="42.283273" lon="14.1053314"><ele>127.6</ele><time>2026-05-01T14:59:43.499Z</time></trkpt><trkpt lat="42.2833192" lon="14.1054487"><ele>124.8</ele><time>2026-05-01T14:59:44.501Z</time></trkpt><trkpt lat="42.2833571" lon="14.1055638"><ele>122.0</ele><time>2026-05-01T14:59:45.5Z</time></trkpt><trkpt lat="42.2833928" lon="14.1056728"><ele>122.99999999999999</ele><time>2026-05-01T14:59:46.494Z</time></trkpt><trkpt lat="42.2834277" lon="14.1057772"><ele>124.0</ele><time>2026-05-01T14:59:47.503Z</time></trkpt><trkpt lat="42.2834574" lon="14.1058742"><ele>125.0</ele><time>2026-05-01T14:59:48.498Z</time></trkpt><trkpt lat="42.2834872" lon="14.1059688"><ele>126.0</ele><time>2026-05-01T14:59:49.499Z</time></trkpt><trkpt lat="42.2835215" lon="14.1060624"><ele>126.99999999999999</ele><time>2026-05-01T14:59:50.493Z</time></trkpt><trkpt lat="42.2835554" lon="14.1061508"><ele>128.0</ele><time>2026-05-01T14:59:51.511Z</time></trkpt><trkpt lat="42.2835975" lon="14.1062461"><ele>127.99999999999999</ele><time>2026-05-01T14:59:52.498Z</time></trkpt><trkpt lat="42.283635" lon="14.106345"><ele>128.0</ele><time>2026-05-01T14:59:53.491Z</time></trkpt><trkpt lat="42.2836703" lon="14.1064584"><ele>128.0</ele><time>2026-05-01T14:59:54.496Z</time></trkpt><trkpt lat="42.2837083" lon="14.106567"><ele>128.0</ele><time>2026-05-01T14:59:55.495Z</time></trkpt><trkpt lat="42.2837491" lon="14.1066681"><ele>127.99999999999999</ele><time>2026-05-01T14:59:56.48Z</time></trkpt><trkpt lat="42.2837849" lon="14.1067703"><ele>128.0</ele><time>2026-05-01T14:59:57.479Z</time></trkpt><trkpt lat="42.2838137" lon="14.1068667"><ele>128.16666666666666</ele><time>2026-05-01T14:59:58.511Z</time></trkpt><trkpt lat="42.2838436" lon="14.1069663"><ele>128.33333333333331</ele><time>2026-05-01T14:59:59.493Z</time></trkpt><trkpt lat="42.2838756" lon="14.1070655"><ele>128.5</ele><time>2026-05-01T15:00:00.501Z</time></trkpt><trkpt lat="42.2839086" lon="14.1071641"><ele>128.66666666666666</ele><time>2026-05-01T15:00:01.487Z</time></trkpt><trkpt lat="42.2839403" lon="14.1072681"><ele>128.83333333333334</ele><time>2026-05-01T15:00:02.49Z</time></trkpt><trkpt lat="42.2839737" lon="14.1073736"><ele>129.0</ele><time>2026-05-01T15:00:03.501Z</time></trkpt><trkpt lat="42.2840034" lon="14.1074711"><ele>129.0</ele><time>2026-05-01T15:00:04.488Z</time></trkpt><trkpt lat="42.2840274" lon="14.1075505"><ele>129.0</ele><time>2026-05-01T15:00:05.503Z</time></trkpt><trkpt lat="42.2840546" lon="14.1076403"><ele>129.0</ele><time>2026-05-01T15:00:06.481Z</time></trkpt><trkpt lat="42.2840863" lon="14.1077491"><ele>129.0</ele><time>2026-05-01T15:00:07.488Z</time></trkpt><trkpt lat="42.2841167" lon="14.1078675"><ele>129.0</ele><time>2026-05-01T15:00:08.497Z</time></trkpt><trkpt lat="42.2841539" lon="14.1079748"><ele>129.0</ele><time>2026-05-01T15:00:09.485Z</time></trkpt><trkpt lat="42.2841905" lon="14.1080765"><ele>129.0</ele><time>2026-05-01T15:00:10.498Z</time></trkpt><trkpt lat="42.2842278" lon="14.1081848"><ele>129.0</ele><time>2026-05-01T15:00:11.482Z</time></trkpt><trkpt lat="42.2842606" lon="14.1082935"><ele>129.0</ele><time>2026-05-01T15:00:12.479Z</time></trkpt><trkpt lat="42.2842858" lon="14.1083801"><ele>129.0</ele><time>2026-05-01T15:00:13.48Z</time></trkpt><trkpt lat="42.2843102" lon="14.1084778"><ele>129.0</ele><time>2026-05-01T15:00:15.482Z</time></trkpt><trkpt lat="42.2843364" lon="14.1085659"><ele>129.0</ele><time>2026-05-01T15:00:18.476Z</time></trkpt><trkpt lat="42.2843731" lon="14.1086739"><ele>129.5</ele><time>2026-05-01T15:00:21.483Z</time></trkpt><trkpt lat="42.2844185" lon="14.1087899"><ele>130.0</ele><time>2026-05-01T15:00:23.489Z</time></trkpt><trkpt lat="42.2844569" lon="14.1088901"><ele>130.5</ele><time>2026-05-01T15:00:25.483Z</time></trkpt><trkpt lat="42.2844903" lon="14.1089704"><ele>131.0</ele><time>2026-05-01T15:00:27.478Z</time></trkpt><trkpt lat="42.284521" lon="14.1090737"><ele>131.5</ele><time>2026-05-01T15:00:30.481Z</time></trkpt><trkpt lat="42.2845624" lon="14.1092033"><ele>132.0</ele><time>2026-05-01T15:00:32.474Z</time></trkpt><trkpt lat="42.2846095" lon="14.1093456"><ele>133.0</ele><time>2026-05-01T15:00:34.486Z</time></trkpt><trkpt lat="42.2846523" lon="14.109481"><ele>134.0</ele><time>2026-05-01T15:00:36.496Z</time></trkpt><trkpt lat="42.2847124" lon="14.1096319"><ele>135.0</ele><time>2026-05-01T15:00:38.477Z</time></trkpt><trkpt lat="42.2847488" lon="14.1097146"><ele>136.0</ele><time>2026-05-01T15:00:39.477Z</time></trkpt><trkpt lat="42.2847869" lon="14.109804"><ele>137.0</ele><time>2026-05-01T15:00:40.484Z</time></trkpt><trkpt lat="42.2848248" lon="14.1098975"><ele>135.33333333333331</ele><time>2026-05-01T15:00:41.492Z</time></trkpt><trkpt lat="42.2848665" lon="14.1099988"><ele>133.66666666666666</ele><time>2026-05-01T15:00:42.488Z</time></trkpt><trkpt lat="42.2849006" lon="14.1100899"><ele>132.0</ele><time>2026-05-01T15:00:43.479Z</time></trkpt><trkpt lat="42.2849301" lon="14.1101711"><ele>130.33333333333334</ele><time>2026-05-01T15:00:44.48Z</time></trkpt><trkpt lat="42.2849626" lon="14.110266"><ele>128.66666666666669</ele><time>2026-05-01T15:00:45.491Z</time></trkpt><trkpt lat="42.2850017" lon="14.1103725"><ele>127.0</ele><time>2026-05-01T15:00:46.483Z</time></trkpt><trkpt lat="42.2850338" lon="14.1104767"><ele>127.00000000000001</ele><time>2026-05-01T15:00:47.479Z</time></trkpt><trkpt lat="42.2850662" lon="14.110577"><ele>127.0</ele><time>2026-05-01T15:00:48.484Z</time></trkpt><trkpt lat="42.2850875" lon="14.1106716"><ele>127.0</ele><time>2026-05-01T15:00:49.488Z</time></trkpt><trkpt lat="42.2851167" lon="14.1107814"><ele>127.0</ele><time>2026-05-01T15:00:50.482Z</time></trkpt><trkpt lat="42.2851449" lon="14.110895"><ele>127.00000000000001</ele><time>2026-05-01T15:00:51.491Z</time></trkpt><trkpt lat="42.2851731" lon="14.1110069"><ele>127.0</ele><time>2026-05-01T15:00:52.484Z</time></trkpt><trkpt lat="42.2852032" lon="14.1111236"><ele>128.33333333333334</ele><time>2026-05-01T15:00:53.486Z</time></trkpt><trkpt lat="42.285236" lon="14.1112388"><ele>129.66666666666669</ele><time>2026-05-01T15:00:54.472Z</time></trkpt><trkpt lat="42.2852626" lon="14.1113502"><ele>131.0</ele><time>2026-05-01T15:00:55.496Z</time></trkpt><trkpt lat="42.2852893" lon="14.1114503"><ele>132.33333333333334</ele><time>2026-05-01T15:00:56.475Z</time></trkpt><trkpt lat="42.2853149" lon="14.1115564"><ele>133.66666666666666</ele><time>2026-05-01T15:00:57.48Z</time></trkpt><trkpt lat="42.2853381" lon="14.1116457"><ele>135.0</ele><time>2026-05-01T15:00:58.479Z</time></trkpt><trkpt lat="42.2853779" lon="14.1117736"><ele>135.66666666666666</ele><time>2026-05-01T15:01:00.499Z</time></trkpt><trkpt lat="42.2854013" lon="14.1118727"><ele>136.33333333333334</ele><time>2026-05-01T15:01:02.482Z</time></trkpt><trkpt lat="42.2854385" lon="14.1120308"><ele>137.0</ele><time>2026-05-01T15:01:04.485Z</time></trkpt><trkpt lat="42.2854805" lon="14.1121168"><ele>137.66666666666669</ele><time>2026-05-01T15:01:05.48Z</time></trkpt><trkpt lat="42.285535" lon="14.1122066"><ele>138.33333333333334</ele><time>2026-05-01T15:01:06.48Z</time></trkpt><trkpt lat="42.2855885" lon="14.1122976"><ele>139.0</ele><time>2026-05-01T15:01:07.477Z</time></trkpt><trkpt lat="42.2856424" lon="14.1123769"><ele>137.2</ele><time>2026-05-01T15:01:08.476Z</time></trkpt><trkpt lat="42.2856972" lon="14.1124626"><ele>135.4</ele><time>2026-05-01T15:01:09.483Z</time></trkpt><trkpt lat="42.2857514" lon="14.1125485"><ele>133.6</ele><time>2026-05-01T15:01:10.479Z</time></trkpt><trkpt lat="42.2858047" lon="14.1126379"><ele>131.8</ele><time>2026-05-01T15:01:11.476Z</time></trkpt><trkpt lat="42.2858706" lon="14.1127334"><ele>130.0</ele><time>2026-05-01T15:01:12.47Z</time></trkpt><trkpt lat="42.285946" lon="14.112837"><ele>130.0</ele><time>2026-05-01T15:01:13.482Z</time></trkpt><trkpt lat="42.2860258" lon="14.1129451"><ele>130.0</ele><time>2026-05-01T15:01:14.47Z</time></trkpt><trkpt lat="42.2860953" lon="14.1130499"><ele>130.0</ele><time>2026-05-01T15:01:15.476Z</time></trkpt><trkpt lat="42.2861509" lon="14.1131437"><ele>130.0</ele><time>2026-05-01T15:01:16.469Z</time></trkpt><trkpt lat="42.286193" lon="14.1132238"><ele>130.0</ele><time>2026-05-01T15:01:17.47Z</time></trkpt><trkpt lat="42.2862338" lon="14.1133732"><ele>131.5</ele><time>2026-05-01T15:01:19.483Z</time></trkpt><trkpt lat="42.2862509" lon="14.1134692"><ele>133.0</ele><time>2026-05-01T15:01:20.48Z</time></trkpt><trkpt lat="42.2862628" lon="14.1135763"><ele>134.5</ele><time>2026-05-01T15:01:21.483Z</time></trkpt><trkpt lat="42.2862718" lon="14.1137099"><ele>136.0</ele><time>2026-05-01T15:01:22.468Z</time></trkpt><trkpt lat="42.2862786" lon="14.1138412"><ele>137.5</ele><time>2026-05-01T15:01:23.481Z</time></trkpt><trkpt lat="42.2862881" lon="14.1139576"><ele>139.0</ele><time>2026-05-01T15:01:24.478Z</time></trkpt><trkpt lat="42.2862988" lon="14.1140694"><ele>139.83333333333334</ele><time>2026-05-01T15:01:25.475Z</time></trkpt><trkpt lat="42.2863039" lon="14.1141652"><ele>140.66666666666669</ele><time>2026-05-01T15:01:26.496Z</time></trkpt><trkpt lat="42.2863128" lon="14.1143403"><ele>141.5</ele><time>2026-05-01T15:01:28.491Z</time></trkpt><trkpt lat="42.2863224" lon="14.1144373"><ele>142.33333333333334</ele><time>2026-05-01T15:01:29.493Z</time></trkpt><trkpt lat="42.2863371" lon="14.1145515"><ele>143.16666666666666</ele><time>2026-05-01T15:01:30.484Z</time></trkpt><trkpt lat="42.2863448" lon="14.1146613"><ele>144.0</ele><time>2026-05-01T15:01:31.493Z</time></trkpt><trkpt lat="42.2863534" lon="14.1147669"><ele>144.00000000000003</ele><time>2026-05-01T15:01:32.477Z</time></trkpt><trkpt lat="42.2863633" lon="14.114871"><ele>144.0</ele><time>2026-05-01T15:01:33.48Z</time></trkpt><trkpt lat="42.2863739" lon="14.1149587"><ele>144.0</ele><time>2026-05-01T15:01:34.485Z</time></trkpt><trkpt lat="42.2863893" lon="14.1150447"><ele>144.0</ele><time>2026-05-01T15:01:35.481Z</time></trkpt><trkpt lat="42.28641" lon="14.1151382"><ele>144.0</ele><time>2026-05-01T15:01:36.484Z</time></trkpt><trkpt lat="42.286435" lon="14.1152435"><ele>144.00000000000003</ele><time>2026-05-01T15:01:37.472Z</time></trkpt><trkpt lat="42.2864576" lon="14.1153539"><ele>144.0</ele><time>2026-05-01T15:01:38.48Z</time></trkpt><trkpt lat="42.2864818" lon="14.1154648"><ele>142.6</ele><time>2026-05-01T15:01:39.488Z</time></trkpt><trkpt lat="42.286511" lon="14.1155684"><ele>141.2</ele><time>2026-05-01T15:01:40.48Z</time></trkpt><trkpt lat="42.286533" lon="14.1156544"><ele>139.79999999999998</ele><time>2026-05-01T15:01:41.478Z</time></trkpt><trkpt lat="42.2865541" lon="14.1158191"><ele>138.4</ele><time>2026-05-01T15:01:43.474Z</time></trkpt><trkpt lat="42.2865211" lon="14.1159794"><ele>137.0</ele><time>2026-05-01T15:01:45.485Z</time></trkpt><trkpt lat="42.2864861" lon="14.1160602"><ele>137.00000000000003</ele><time>2026-05-01T15:01:46.478Z</time></trkpt><trkpt lat="42.2864499" lon="14.1161512"><ele>137.0</ele><time>2026-05-01T15:01:47.485Z</time></trkpt><trkpt lat="42.2864118" lon="14.1162384"><ele>137.0</ele><time>2026-05-01T15:01:48.486Z</time></trkpt><trkpt lat="42.2863607" lon="14.1163218"><ele>137.0</ele><time>2026-05-01T15:01:49.485Z</time></trkpt><trkpt lat="42.2863106" lon="14.1164003"><ele>137.0</ele><time>2026-05-01T15:01:50.477Z</time></trkpt><trkpt lat="42.2862618" lon="14.1164714"><ele>137.00000000000003</ele><time>2026-05-01T15:01:51.489Z</time></trkpt><trkpt lat="42.2862132" lon="14.1165307"><ele>137.0</ele><time>2026-05-01T15:01:52.484Z</time></trkpt><trkpt lat="42.2861579" lon="14.1166512"><ele>139.4</ele><time>2026-05-01T15:01:54.481Z</time></trkpt><trkpt lat="42.2861356" lon="14.1168137"><ele>141.79999999999998</ele><time>2026-05-01T15:01:56.491Z</time></trkpt><trkpt lat="42.2861333" lon="14.1169185"><ele>144.2</ele><time>2026-05-01T15:01:57.481Z</time></trkpt><trkpt lat="42.2861329" lon="14.1170371"><ele>146.6</ele><time>2026-05-01T15:01:58.499Z</time></trkpt><trkpt lat="42.286129" lon="14.1171616"><ele>149.0</ele><time>2026-05-01T15:01:59.48Z</time></trkpt><trkpt lat="42.2861183" lon="14.1172923"><ele>149.4</ele><time>2026-05-01T15:02:00.481Z</time></trkpt><trkpt lat="42.2861082" lon="14.1174116"><ele>149.8</ele><time>2026-05-01T15:02:01.492Z</time></trkpt><trkpt lat="42.2861058" lon="14.117526"><ele>150.2</ele><time>2026-05-01T15:02:02.486Z</time></trkpt><trkpt lat="42.2861019" lon="14.1176486"><ele>150.6</ele><time>2026-05-01T15:02:03.481Z</time></trkpt><trkpt lat="42.2860963" lon="14.117783"><ele>151.0</ele><time>2026-05-01T15:02:04.497Z</time></trkpt><trkpt lat="42.2860801" lon="14.1179147"><ele>151.0</ele><time>2026-05-01T15:02:05.472Z</time></trkpt><trkpt lat="42.2860585" lon="14.1180209"><ele>151.0</ele><time>2026-05-01T15:02:06.481Z</time></trkpt><trkpt lat="42.2860277" lon="14.1181175"><ele>151.0</ele><time>2026-05-01T15:02:07.492Z</time></trkpt><trkpt lat="42.2859922" lon="14.1182126"><ele>151.0</ele><time>2026-05-01T15:02:08.488Z</time></trkpt><trkpt lat="42.2859534" lon="14.1183087"><ele>151.0</ele><time>2026-05-01T15:02:09.481Z</time></trkpt><trkpt lat="42.2859262" lon="14.1184077"><ele>151.0</ele><time>2026-05-01T15:02:10.482Z</time></trkpt><trkpt lat="42.2859071" lon="14.1185037"><ele>151.8</ele><time>2026-05-01T15:02:11.482Z</time></trkpt><trkpt lat="42.2858646" lon="14.1186476"><ele>152.6</ele><time>2026-05-01T15:02:13.48Z</time></trkpt><trkpt lat="42.285848" lon="14.118814"><ele>153.4</ele><time>2026-05-01T15:02:15.473Z</time></trkpt><trkpt lat="42.2858451" lon="14.1189057"><ele>154.2</ele><time>2026-05-01T15:02:16.475Z</time></trkpt><trkpt lat="42.285833" lon="14.1190022"><ele>155.0</ele><time>2026-05-01T15:02:17.491Z</time></trkpt><trkpt lat="42.2858109" lon="14.1190987"><ele>155.83333333333331</ele><time>2026-05-01T15:02:18.477Z</time></trkpt><trkpt lat="42.285783" lon="14.1191786"><ele>156.66666666666666</ele><time>2026-05-01T15:02:19.483Z</time></trkpt><trkpt lat="42.2857088" lon="14.119287"><ele>157.5</ele><time>2026-05-01T15:02:21.485Z</time></trkpt><trkpt lat="42.285609" lon="14.1193841"><ele>158.33333333333334</ele><time>2026-05-01T15:02:23.489Z</time></trkpt><trkpt lat="42.285552" lon="14.1194457"><ele>159.16666666666669</ele><time>2026-05-01T15:02:24.475Z</time></trkpt><trkpt lat="42.2854896" lon="14.1194979"><ele>160.0</ele><time>2026-05-01T15:02:25.485Z</time></trkpt><trkpt lat="42.2854338" lon="14.1195484"><ele>162.0</ele><time>2026-05-01T15:02:26.484Z</time></trkpt><trkpt lat="42.2853785" lon="14.1195946"><ele>164.0</ele><time>2026-05-01T15:02:27.477Z</time></trkpt><trkpt lat="42.2852744" lon="14.1196936"><ele>166.0</ele><time>2026-05-01T15:02:29.481Z</time></trkpt><trkpt lat="42.2852176" lon="14.1197453"><ele>168.0</ele><time>2026-05-01T15:02:30.475Z</time></trkpt><trkpt lat="42.2851507" lon="14.1197984"><ele>170.0</ele><time>2026-05-01T15:02:31.488Z</time></trkpt><trkpt lat="42.2850854" lon="14.1198537"><ele>172.0</ele><time>2026-05-01T15:02:32.485Z</time></trkpt><trkpt lat="42.2850303" lon="14.1199005"><ele>172.0</ele><time>2026-05-01T15:02:33.486Z</time></trkpt><trkpt lat="42.2849266" lon="14.1199807"><ele>172.0</ele><time>2026-05-01T15:02:35.486Z</time></trkpt><trkpt lat="42.2848671" lon="14.1200267"><ele>172.0</ele><time>2026-05-01T15:02:36.491Z</time></trkpt><trkpt lat="42.2848102" lon="14.1200786"><ele>172.0</ele><time>2026-05-01T15:02:37.485Z</time></trkpt><trkpt lat="42.2847195" lon="14.1201603"><ele>172.0</ele><time>2026-05-01T15:02:39.477Z</time></trkpt><trkpt lat="42.284654" lon="14.1202337"><ele>175.2</ele><time>2026-05-01T15:02:41.472Z</time></trkpt><trkpt lat="42.2845921" lon="14.1203557"><ele>178.39999999999998</ele><time>2026-05-01T15:02:43.487Z</time></trkpt><trkpt lat="42.284525" lon="14.1204832"><ele>181.60000000000002</ele><time>2026-05-01T15:02:45.482Z</time></trkpt><trkpt lat="42.2844746" lon="14.1206337"><ele>184.8</ele><time>2026-05-01T15:02:47.486Z</time></trkpt><trkpt lat="42.2844474" lon="14.1207232"><ele>188.0</ele><time>2026-05-01T15:02:48.488Z</time></trkpt><trkpt lat="42.2844266" lon="14.1208191"><ele>188.0</ele><time>2026-05-01T15:02:49.487Z</time></trkpt><trkpt lat="42.2844124" lon="14.1209125"><ele>188.0</ele><time>2026-05-01T15:02:50.496Z</time></trkpt><trkpt lat="42.2844076" lon="14.1210017"><ele>188.0</ele><time>2026-05-01T15:02:51.487Z</time></trkpt><trkpt lat="42.2843981" lon="14.1211702"><ele>188.0</ele><time>2026-05-01T15:02:53.488Z</time></trkpt><trkpt lat="42.2843959" lon="14.1212616"><ele>188.0</ele><time>2026-05-01T15:02:54.483Z</time></trkpt><trkpt lat="42.2843886" lon="14.1213575"><ele>188.0</ele><time>2026-05-01T15:02:55.485Z</time></trkpt><trkpt lat="42.2843816" lon="14.1214594"><ele>188.0</ele><time>2026-05-01T15:02:56.486Z</time></trkpt><trkpt lat="42.284372" lon="14.1215635"><ele>188.0</ele><time>2026-05-01T15:02:57.485Z</time></trkpt><trkpt lat="42.2843601" lon="14.1216687"><ele>188.0</ele><time>2026-05-01T15:02:58.493Z</time></trkpt><trkpt lat="42.284347" lon="14.1217623"><ele>188.0</ele><time>2026-05-01T15:02:59.487Z</time></trkpt><trkpt lat="42.2843302" lon="14.1218546"><ele>188.0</ele><time>2026-05-01T15:03:00.489Z</time></trkpt><trkpt lat="42.2843063" lon="14.121938"><ele>188.0</ele><time>2026-05-01T15:03:01.484Z</time></trkpt><trkpt lat="42.2842342" lon="14.1220783"><ele>188.2</ele><time>2026-05-01T15:03:03.487Z</time></trkpt><trkpt lat="42.284122" lon="14.1221444"><ele>188.4</ele><time>2026-05-01T15:03:05.476Z</time></trkpt><trkpt lat="42.2840427" lon="14.1221455"><ele>188.6</ele><time>2026-05-01T15:03:06.474Z</time></trkpt><trkpt lat="42.2839658" lon="14.1221338"><ele>188.79999999999998</ele><time>2026-05-01T15:03:07.477Z</time></trkpt><trkpt lat="42.2838563" lon="14.1220479"><ele>189.0</ele><time>2026-05-01T15:03:09.485Z</time></trkpt><trkpt lat="42.2837976" lon="14.1219313"><ele>193.33333333333334</ele><time>2026-05-01T15:03:11.482Z</time></trkpt><trkpt lat="42.2837545" lon="14.1218529"><ele>197.66666666666669</ele><time>2026-05-01T15:03:13.489Z</time></trkpt><trkpt lat="42.2837105" lon="14.121755"><ele>202.0</ele><time>2026-05-01T15:03:15.498Z</time></trkpt><trkpt lat="42.2836391" lon="14.1216463"><ele>206.33333333333334</ele><time>2026-05-01T15:03:17.496Z</time></trkpt><trkpt lat="42.2835931" lon="14.1215709"><ele>210.66666666666669</ele><time>2026-05-01T15:03:18.481Z</time></trkpt><trkpt lat="42.2835484" lon="14.1214948"><ele>215.0</ele><time>2026-05-01T15:03:19.494Z</time></trkpt><trkpt lat="42.283503" lon="14.121411"><ele>215.0</ele><time>2026-05-01T15:03:20.489Z</time></trkpt><trkpt lat="42.2834624" lon="14.1213317"><ele>215.0</ele><time>2026-05-01T15:03:21.494Z</time></trkpt><trkpt lat="42.2834023" lon="14.1212008"><ele>215.0</ele><time>2026-05-01T15:03:23.495Z</time></trkpt><trkpt lat="42.2833321" lon="14.1210724"><ele>215.0</ele><time>2026-05-01T15:03:25.494Z</time></trkpt><trkpt lat="42.2832758" lon="14.120929"><ele>215.0</ele><time>2026-05-01T15:03:27.482Z</time></trkpt><trkpt lat="42.283232" lon="14.1207502"><ele>214.33333333333334</ele><time>2026-05-01T15:03:29.497Z</time></trkpt><trkpt lat="42.2832179" lon="14.1206481"><ele>213.66666666666669</ele><time>2026-05-01T15:03:30.487Z</time></trkpt><trkpt lat="42.2831982" lon="14.1205498"><ele>213.0</ele><time>2026-05-01T15:03:31.504Z</time></trkpt><trkpt lat="42.2831672" lon="14.1204538"><ele>212.33333333333331</ele><time>2026-05-01T15:03:32.488Z</time></trkpt><trkpt lat="42.2831372" lon="14.1203469"><ele>211.66666666666666</ele><time>2026-05-01T15:03:33.493Z</time></trkpt><trkpt lat="42.2831032" lon="14.1202232"><ele>211.0</ele><time>2026-05-01T15:03:34.488Z</time></trkpt><trkpt lat="42.2830682" lon="14.1200889"><ele>214.8</ele><time>2026-05-01T15:03:35.492Z</time></trkpt><trkpt lat="42.2830266" lon="14.1199535"><ele>218.60000000000002</ele><time>2026-05-01T15:03:36.488Z</time></trkpt><trkpt lat="42.282988" lon="14.1198328"><ele>222.4</ele><time>2026-05-01T15:03:37.484Z</time></trkpt><trkpt lat="42.2829569" lon="14.119729"><ele>226.2</ele><time>2026-05-01T15:03:38.494Z</time></trkpt><trkpt lat="42.2829238" lon="14.1196208"><ele>230.0</ele><time>2026-05-01T15:03:39.496Z</time></trkpt><trkpt lat="42.2828876" lon="14.1195096"><ele>230.0</ele><time>2026-05-01T15:03:40.491Z</time></trkpt><trkpt lat="42.2828522" lon="14.1193954"><ele>230.0</ele><time>2026-05-01T15:03:41.49Z</time></trkpt><trkpt lat="42.2828189" lon="14.1192767"><ele>230.0</ele><time>2026-05-01T15:03:42.51Z</time></trkpt><trkpt lat="42.2827827" lon="14.1191584"><ele>230.0</ele><time>2026-05-01T15:03:43.499Z</time></trkpt><trkpt lat="42.2827459" lon="14.1190455"><ele>230.0</ele><time>2026-05-01T15:03:44.493Z</time></trkpt><trkpt lat="42.2827081" lon="14.1189205"><ele>229.33333333333334</ele><time>2026-05-01T15:03:45.502Z</time></trkpt><trkpt lat="42.2826696" lon="14.1187886"><ele>228.66666666666669</ele><time>2026-05-01T15:03:46.492Z</time></trkpt><trkpt lat="42.2826318" lon="14.1186807"><ele>228.0</ele><time>2026-05-01T15:03:47.497Z</time></trkpt><trkpt lat="42.2825963" lon="14.1185963"><ele>227.33333333333331</ele><time>2026-05-01T15:03:48.496Z</time></trkpt><trkpt lat="42.2825627" lon="14.1185067"><ele>226.66666666666666</ele><time>2026-05-01T15:03:49.494Z</time></trkpt><trkpt lat="42.2825315" lon="14.118412"><ele>226.0</ele><time>2026-05-01T15:03:50.486Z</time></trkpt><trkpt lat="42.2825049" lon="14.1183137"><ele>224.8</ele><time>2026-05-01T15:03:51.497Z</time></trkpt><trkpt lat="42.2824725" lon="14.1182059"><ele>223.60000000000002</ele><time>2026-05-01T15:03:52.487Z</time></trkpt><trkpt lat="42.2824277" lon="14.1180944"><ele>222.4</ele><time>2026-05-01T15:03:53.49Z</time></trkpt><trkpt lat="42.2823812" lon="14.1179811"><ele>221.2</ele><time>2026-05-01T15:03:54.482Z</time></trkpt><trkpt lat="42.2823304" lon="14.1178714"><ele>220.0</ele><time>2026-05-01T15:03:55.481Z</time></trkpt><trkpt lat="42.2822867" lon="14.1177658"><ele>220.49999999999997</ele><time>2026-05-01T15:03:56.493Z</time></trkpt><trkpt lat="42.2822346" lon="14.1176749"><ele>221.0</ele><time>2026-05-01T15:03:57.487Z</time></trkpt><trkpt lat="42.2821888" lon="14.1176101"><ele>221.5</ele><time>2026-05-01T15:03:58.497Z</time></trkpt><trkpt lat="42.2821162" lon="14.1175342"><ele>222.0</ele><time>2026-05-01T15:04:00.494Z</time></trkpt><trkpt lat="42.2820503" lon="14.1175565"><ele>222.49999999999997</ele><time>2026-05-01T15:04:08.491Z</time></trkpt><trkpt lat="42.2820417" lon="14.1176861"><ele>223.0</ele><time>2026-05-01T15:04:10.498Z</time></trkpt><trkpt lat="42.2820366" lon="14.1178075"><ele>223.0</ele><time>2026-05-01T15:04:11.494Z</time></trkpt><trkpt lat="42.2820247" lon="14.1179507"><ele>223.0</ele><time>2026-05-01T15:04:12.488Z</time></trkpt><trkpt lat="42.2820232" lon="14.1181179"><ele>223.0</ele><time>2026-05-01T15:04:13.502Z</time></trkpt><trkpt lat="42.2820199" lon="14.118297"><ele>223.0</ele><time>2026-05-01T15:04:14.497Z</time></trkpt><trkpt lat="42.2820061" lon="14.1184853"><ele>224.25</ele><time>2026-05-01T15:04:15.499Z</time></trkpt><trkpt lat="42.2819831" lon="14.1186738"><ele>225.5</ele><time>2026-05-01T15:04:16.502Z</time></trkpt><trkpt lat="42.2819598" lon="14.1188625"><ele>226.75</ele><time>2026-05-01T15:04:17.498Z</time></trkpt><trkpt lat="42.2819377" lon="14.1190622"><ele>228.0</ele><time>2026-05-01T15:04:18.509Z</time></trkpt><trkpt lat="42.2819111" lon="14.1192616"><ele>230.66666666666669</ele><time>2026-05-01T15:04:19.501Z</time></trkpt><trkpt lat="42.28188" lon="14.1194869"><ele>233.33333333333334</ele><time>2026-05-01T15:04:20.493Z</time></trkpt><trkpt lat="42.2818695" lon="14.1196806"><ele>236.0</ele><time>2026-05-01T15:04:21.496Z</time></trkpt><trkpt lat="42.281888" lon="14.1198966"><ele>237.5</ele><time>2026-05-01T15:04:22.499Z</time></trkpt><trkpt lat="42.2819322" lon="14.1201037"><ele>239.0</ele><time>2026-05-01T15:04:23.503Z</time></trkpt><trkpt lat="42.2819699" lon="14.1202934"><ele>240.5</ele><time>2026-05-01T15:04:24.492Z</time></trkpt><trkpt lat="42.2820147" lon="14.1204708"><ele>242.0</ele><time>2026-05-01T15:04:25.5Z</time></trkpt><trkpt lat="42.2820554" lon="14.1206283"><ele>243.5</ele><time>2026-05-01T15:04:26.49Z</time></trkpt><trkpt lat="42.2821005" lon="14.1207954"><ele>245.0</ele><time>2026-05-01T15:04:27.492Z</time></trkpt><trkpt lat="42.2821129" lon="14.1209953"><ele>246.5</ele><time>2026-05-01T15:04:28.492Z</time></trkpt><trkpt lat="42.2821072" lon="14.1211848"><ele>248.0</ele><time>2026-05-01T15:04:29.491Z</time></trkpt><trkpt lat="42.2820632" lon="14.121362"><ele>248.0</ele><time>2026-05-01T15:04:30.491Z</time></trkpt><trkpt lat="42.2820166" lon="14.121557"><ele>248.0</ele><time>2026-05-01T15:04:31.502Z</time></trkpt><trkpt lat="42.2819678" lon="14.1217624"><ele>248.0</ele><time>2026-05-01T15:04:32.5Z</time></trkpt><trkpt lat="42.2819653" lon="14.1219547"><ele>249.0</ele><time>2026-05-01T15:04:33.491Z</time></trkpt><trkpt lat="42.2819769" lon="14.1221412"><ele>250.0</ele><time>2026-05-01T15:04:34.491Z</time></trkpt><trkpt lat="42.282014" lon="14.122323"><ele>251.0</ele><time>2026-05-01T15:04:35.491Z</time></trkpt><trkpt lat="42.2820548" lon="14.1225033"><ele>252.0</ele><time>2026-05-01T15:04:36.489Z</time></trkpt><trkpt lat="42.2820783" lon="14.1226779"><ele>253.75</ele><time>2026-05-01T15:04:37.482Z</time></trkpt><trkpt lat="42.2820986" lon="14.1228687"><ele>255.5</ele><time>2026-05-01T15:04:38.486Z</time></trkpt><trkpt lat="42.2821037" lon="14.1230814"><ele>257.25</ele><time>2026-05-01T15:04:39.486Z</time></trkpt><trkpt lat="42.2821174" lon="14.1232755"><ele>259.0</ele><time>2026-05-01T15:04:40.501Z</time></trkpt><trkpt lat="42.2821234" lon="14.1235031"><ele>263.0</ele><time>2026-05-01T15:04:41.503Z</time></trkpt><trkpt lat="42.2821214" lon="14.1237205"><ele>267.0</ele><time>2026-05-01T15:04:42.509Z</time></trkpt><trkpt lat="42.2821235" lon="14.123945"><ele>271.0</ele><time>2026-05-01T15:04:43.493Z</time></trkpt><trkpt lat="42.2821336" lon="14.1241713"><ele>273.66666666666663</ele><time>2026-05-01T15:04:44.498Z</time></trkpt><trkpt lat="42.2821516" lon="14.124408"><ele>276.3333333333333</ele><time>2026-05-01T15:04:45.491Z</time></trkpt><trkpt lat="42.2821713" lon="14.1246169"><ele>279.0</ele><time>2026-05-01T15:04:46.491Z</time></trkpt><trkpt lat="42.2821903" lon="14.124818"><ele>279.6666666666667</ele><time>2026-05-01T15:04:47.503Z</time></trkpt><trkpt lat="42.2822197" lon="14.1250202"><ele>280.33333333333337</ele><time>2026-05-01T15:04:48.49Z</time></trkpt><trkpt lat="42.2822498" lon="14.1252443"><ele>281.0</ele><time>2026-05-01T15:04:49.505Z</time></trkpt><trkpt lat="42.2822651" lon="14.1254462"><ele>281.0</ele><time>2026-05-01T15:04:50.489Z</time></trkpt><trkpt lat="42.2822839" lon="14.1256792"><ele>281.0</ele><time>2026-05-01T15:04:51.495Z</time></trkpt><trkpt lat="42.2823052" lon="14.125901"><ele>281.0</ele><time>2026-05-01T15:04:52.501Z</time></trkpt><trkpt lat="42.2823291" lon="14.1260912"><ele>283.0</ele><time>2026-05-01T15:04:53.486Z</time></trkpt><trkpt lat="42.2823709" lon="14.1262681"><ele>285.0</ele><time>2026-05-01T15:04:54.483Z</time></trkpt><trkpt lat="42.2824169" lon="14.1264385"><ele>287.0</ele><time>2026-05-01T15:04:55.49Z</time></trkpt><trkpt lat="42.2824805" lon="14.1265986"><ele>289.0</ele><time>2026-05-01T15:04:56.494Z</time></trkpt><trkpt lat="42.2825387" lon="14.1267504"><ele>290.8333333333333</ele><time>2026-05-01T15:04:57.488Z</time></trkpt><trkpt lat="42.2825855" lon="14.1268655"><ele>292.66666666666663</ele><time>2026-05-01T15:04:58.497Z</time></trkpt><trkpt lat="42.2826394" lon="14.126973"><ele>294.5</ele><time>2026-05-01T15:04:59.49Z</time></trkpt><trkpt lat="42.2826594" lon="14.1270545"><ele>296.3333333333333</ele><time>2026-05-01T15:05:00.492Z</time></trkpt><trkpt lat="42.2826882" lon="14.1271737"><ele>298.1666666666667</ele><time>2026-05-01T15:05:02.496Z</time></trkpt><trkpt lat="42.2827242" lon="14.1272585"><ele>300.0</ele><time>2026-05-01T15:05:03.491Z</time></trkpt><trkpt lat="42.2827941" lon="14.1273681"><ele>300.25</ele><time>2026-05-01T15:05:04.484Z</time></trkpt><trkpt lat="42.2828747" lon="14.1274978"><ele>300.5</ele><time>2026-05-01T15:05:05.49Z</time></trkpt><trkpt lat="42.2829606" lon="14.1276444"><ele>300.75</ele><time>2026-05-01T15:05:06.48Z</time></trkpt><trkpt lat="42.2830485" lon="14.1277959"><ele>301.0</ele><time>2026-05-01T15:05:07.496Z</time></trkpt><trkpt lat="42.2831455" lon="14.127952"><ele>301.3333333333333</ele><time>2026-05-01T15:05:08.482Z</time></trkpt><trkpt lat="42.2832527" lon="14.1281616"><ele>301.6666666666667</ele><time>2026-05-01T15:05:09.486Z</time></trkpt><trkpt lat="42.2833479" lon="14.1283116"><ele>302.0</ele><time>2026-05-01T15:05:10.48Z</time></trkpt><trkpt lat="42.2834221" lon="14.1284673"><ele>302.0</ele><time>2026-05-01T15:05:11.487Z</time></trkpt><trkpt lat="42.2834886" lon="14.1285939"><ele>302.0</ele><time>2026-05-01T15:05:12.48Z</time></trkpt><trkpt lat="42.283576" lon="14.1286624"><ele>302.0</ele><time>2026-05-01T15:05:13.485Z</time></trkpt><trkpt lat="42.2836864" lon="14.1287197"><ele>302.0</ele><time>2026-05-01T15:05:14.483Z</time></trkpt><trkpt lat="42.2838227" lon="14.1287565"><ele>302.5</ele><time>2026-05-01T15:05:15.484Z</time></trkpt><trkpt lat="42.2839508" lon="14.1287642"><ele>303.0</ele><time>2026-05-01T15:05:16.477Z</time></trkpt><trkpt lat="42.2840819" lon="14.1287583"><ele>303.5</ele><time>2026-05-01T15:05:17.493Z</time></trkpt><trkpt lat="42.2842132" lon="14.1287755"><ele>304.0</ele><time>2026-05-01T15:05:18.477Z</time></trkpt><trkpt lat="42.2843407" lon="14.1288252"><ele>304.0</ele><time>2026-05-01T15:05:19.485Z</time></trkpt><trkpt lat="42.2844477" lon="14.1289072"><ele>304.0</ele><time>2026-05-01T15:05:20.491Z</time></trkpt><trkpt lat="42.2845492" lon="14.1290012"><ele>304.0</ele><time>2026-05-01T15:05:21.484Z</time></trkpt><trkpt lat="42.2846493" lon="14.1291057"><ele>304.0</ele><time>2026-05-01T15:05:22.489Z</time></trkpt><trkpt lat="42.2847503" lon="14.1292146"><ele>303.5</ele><time>2026-05-01T15:05:23.484Z</time></trkpt><trkpt lat="42.2848506" lon="14.1293272"><ele>303.0</ele><time>2026-05-01T15:05:24.488Z</time></trkpt><trkpt lat="42.2849478" lon="14.1294393"><ele>302.5</ele><time>2026-05-01T15:05:25.481Z</time></trkpt><trkpt lat="42.2850425" lon="14.129541"><ele>302.0</ele><time>2026-05-01T15:05:26.475Z</time></trkpt><trkpt lat="42.2851356" lon="14.1296425"><ele>302.0</ele><time>2026-05-01T15:05:27.482Z</time></trkpt><trkpt lat="42.2852263" lon="14.1297632"><ele>302.0</ele><time>2026-05-01T15:05:28.483Z</time></trkpt><trkpt lat="42.2853098" lon="14.1298938"><ele>302.0</ele><time>2026-05-01T15:05:29.491Z</time></trkpt><trkpt lat="42.2853969" lon="14.1300303"><ele>302.0</ele><time>2026-05-01T15:05:30.481Z</time></trkpt><trkpt lat="42.2854923" lon="14.1301671"><ele>303.6666666666667</ele><time>2026-05-01T15:05:31.501Z</time></trkpt><trkpt lat="42.2855739" lon="14.1303309"><ele>305.3333333333333</ele><time>2026-05-01T15:05:32.484Z</time></trkpt><trkpt lat="42.2856682" lon="14.1305132"><ele>307.0</ele><time>2026-05-01T15:05:33.483Z</time></trkpt><trkpt lat="42.2857386" lon="14.1307001"><ele>304.0</ele><time>2026-05-01T15:05:34.484Z</time></trkpt><trkpt lat="42.2858316" lon="14.1308863"><ele>301.0</ele><time>2026-05-01T15:05:35.498Z</time></trkpt><trkpt lat="42.2859279" lon="14.1310675"><ele>298.0</ele><time>2026-05-01T15:05:36.489Z</time></trkpt><trkpt lat="42.2860322" lon="14.1312409"><ele>298.0</ele><time>2026-05-01T15:05:37.498Z</time></trkpt><trkpt lat="42.2861475" lon="14.1313921"><ele>298.0</ele><time>2026-05-01T15:05:38.489Z</time></trkpt><trkpt lat="42.2862359" lon="14.1315403"><ele>298.0</ele><time>2026-05-01T15:05:39.497Z</time></trkpt><trkpt lat="42.2863249" lon="14.1316742"><ele>298.0</ele><time>2026-05-01T15:05:40.486Z</time></trkpt><trkpt lat="42.2864005" lon="14.1317857"><ele>295.75</ele><time>2026-05-01T15:05:41.496Z</time></trkpt><trkpt lat="42.2864869" lon="14.1319096"><ele>293.5</ele><time>2026-05-01T15:05:42.482Z</time></trkpt><trkpt lat="42.2865513" lon="14.1320318"><ele>291.25</ele><time>2026-05-01T15:05:43.492Z</time></trkpt><trkpt lat="42.2866205" lon="14.1321647"><ele>289.0</ele><time>2026-05-01T15:05:44.484Z</time></trkpt><trkpt lat="42.286677" lon="14.1322994"><ele>289.75</ele><time>2026-05-01T15:05:45.494Z</time></trkpt><trkpt lat="42.2867192" lon="14.132444"><ele>290.5</ele><time>2026-05-01T15:05:46.482Z</time></trkpt><trkpt lat="42.2867605" lon="14.1325862"><ele>291.25</ele><time>2026-05-01T15:05:47.486Z</time></trkpt><trkpt lat="42.2867871" lon="14.1327384"><ele>292.0</ele><time>2026-05-01T15:05:48.482Z</time></trkpt><trkpt lat="42.2868139" lon="14.1328864"><ele>292.0</ele><time>2026-05-01T15:05:49.485Z</time></trkpt><trkpt lat="42.2868379" lon="14.1330265"><ele>292.0</ele><time>2026-05-01T15:05:50.485Z</time></trkpt><trkpt lat="42.2868586" lon="14.1331611"><ele>292.0</ele><time>2026-05-01T15:05:51.485Z</time></trkpt><trkpt lat="42.2868901" lon="14.1332911"><ele>292.0</ele><time>2026-05-01T15:05:52.479Z</time></trkpt><trkpt lat="42.2869528" lon="14.1333979"><ele>292.0</ele><time>2026-05-01T15:05:53.474Z</time></trkpt><trkpt lat="42.2870485" lon="14.1334735"><ele>291.25</ele><time>2026-05-01T15:05:54.478Z</time></trkpt><trkpt lat="42.2871689" lon="14.1335252"><ele>290.5</ele><time>2026-05-01T15:05:55.482Z</time></trkpt><trkpt lat="42.287306" lon="14.1335628"><ele>289.75</ele><time>2026-05-01T15:05:56.482Z</time></trkpt><trkpt lat="42.2874489" lon="14.1336076"><ele>289.0</ele><time>2026-05-01T15:05:57.471Z</time></trkpt><trkpt lat="42.2875963" lon="14.1336394"><ele>289.0</ele><time>2026-05-01T15:05:58.494Z</time></trkpt><trkpt lat="42.2877359" lon="14.1336782"><ele>289.0</ele><time>2026-05-01T15:05:59.479Z</time></trkpt><trkpt lat="42.2878487" lon="14.1337141"><ele>289.0</ele><time>2026-05-01T15:06:00.48Z</time></trkpt><trkpt lat="42.2879423" lon="14.133767"><ele>289.0</ele><time>2026-05-01T15:06:01.473Z</time></trkpt><trkpt lat="42.2880102" lon="14.1338443"><ele>289.0</ele><time>2026-05-01T15:06:02.471Z</time></trkpt><trkpt lat="42.2880784" lon="14.1339388"><ele>291.25</ele><time>2026-05-01T15:06:03.483Z</time></trkpt><trkpt lat="42.2881257" lon="14.1340383"><ele>293.5</ele><time>2026-05-01T15:06:04.47Z</time></trkpt><trkpt lat="42.2881855" lon="14.1341758"><ele>295.75</ele><time>2026-05-01T15:06:05.482Z</time></trkpt><trkpt lat="42.2882473" lon="14.1343318"><ele>298.0</ele><time>2026-05-01T15:06:06.467Z</time></trkpt><trkpt lat="42.2883311" lon="14.1345042"><ele>298.0</ele><time>2026-05-01T15:06:07.475Z</time></trkpt><trkpt lat="42.2884761" lon="14.1346527"><ele>298.0</ele><time>2026-05-01T15:06:08.472Z</time></trkpt><trkpt lat="42.2886221" lon="14.1347804"><ele>298.0</ele><time>2026-05-01T15:06:09.479Z</time></trkpt><trkpt lat="42.2887573" lon="14.1348888"><ele>297.5</ele><time>2026-05-01T15:06:10.466Z</time></trkpt><trkpt lat="42.2888604" lon="14.1349784"><ele>297.0</ele><time>2026-05-01T15:06:11.479Z</time></trkpt><trkpt lat="42.2889727" lon="14.1350717"><ele>296.5</ele><time>2026-05-01T15:06:12.467Z</time></trkpt><trkpt lat="42.289084" lon="14.1351626"><ele>296.0</ele><time>2026-05-01T15:06:13.477Z</time></trkpt><trkpt lat="42.2891794" lon="14.1352792"><ele>300.6666666666667</ele><time>2026-05-01T15:06:14.46Z</time></trkpt><trkpt lat="42.2892881" lon="14.1353982"><ele>305.3333333333333</ele><time>2026-05-01T15:06:15.467Z</time></trkpt><trkpt lat="42.2894026" lon="14.1355325"><ele>310.0</ele><time>2026-05-01T15:06:16.466Z</time></trkpt><trkpt lat="42.2895361" lon="14.1356653"><ele>310.25</ele><time>2026-05-01T15:06:17.482Z</time></trkpt><trkpt lat="42.2896823" lon="14.1357426"><ele>310.5</ele><time>2026-05-01T15:06:18.469Z</time></trkpt><trkpt lat="42.2898391" lon="14.1358122"><ele>310.75</ele><time>2026-05-01T15:06:19.481Z</time></trkpt><trkpt lat="42.2899626" lon="14.1358451"><ele>311.0</ele><time>2026-05-01T15:06:20.471Z</time></trkpt><trkpt lat="42.2900881" lon="14.1358731"><ele>311.0</ele><time>2026-05-01T15:06:21.484Z</time></trkpt><trkpt lat="42.2902289" lon="14.1359168"><ele>311.0</ele><time>2026-05-01T15:06:22.469Z</time></trkpt><trkpt lat="42.2903671" lon="14.1359741"><ele>311.0</ele><time>2026-05-01T15:06:23.481Z</time></trkpt><trkpt lat="42.2904915" lon="14.1360439"><ele>311.0</ele><time>2026-05-01T15:06:24.471Z</time></trkpt><trkpt lat="42.2906424" lon="14.1360775"><ele>312.5</ele><time>2026-05-01T15:06:25.48Z</time></trkpt><trkpt lat="42.2907836" lon="14.1361168"><ele>314.0</ele><time>2026-05-01T15:06:26.465Z</time></trkpt><trkpt lat="42.2908988" lon="14.1361509"><ele>315.5</ele><time>2026-05-01T15:06:27.474Z</time></trkpt><trkpt lat="42.2910192" lon="14.1361737"><ele>317.0</ele><time>2026-05-01T15:06:28.467Z</time></trkpt><trkpt lat="42.2911082" lon="14.1361647"><ele>317.0</ele><time>2026-05-01T15:06:29.472Z</time></trkpt><trkpt lat="42.2911878" lon="14.1361523"><ele>317.0</ele><time>2026-05-01T15:06:30.463Z</time></trkpt><trkpt lat="42.2912557" lon="14.136098"><ele>317.0</ele><time>2026-05-01T15:06:31.469Z</time></trkpt><trkpt lat="42.2913592" lon="14.1360414"><ele>317.0</ele><time>2026-05-01T15:06:33.467Z</time></trkpt><trkpt lat="42.2914277" lon="14.136035"><ele>317.0</ele><time>2026-05-01T15:06:34.475Z</time></trkpt><trkpt lat="42.2915115" lon="14.1359421"><ele>317.0</ele><time>2026-05-01T15:06:36.472Z</time></trkpt><trkpt lat="42.291494" lon="14.1358357"><ele>316.2</ele><time>2026-05-01T15:06:38.477Z</time></trkpt><trkpt lat="42.2914316" lon="14.1357425"><ele>315.4</ele><time>2026-05-01T15:06:40.492Z</time></trkpt><trkpt lat="42.2913581" lon="14.1356276"><ele>314.6</ele><time>2026-05-01T15:06:42.472Z</time></trkpt><trkpt lat="42.2912825" lon="14.1354857"><ele>313.8</ele><time>2026-05-01T15:06:44.477Z</time></trkpt><trkpt lat="42.2912451" lon="14.135407"><ele>313.0</ele><time>2026-05-01T15:06:45.481Z</time></trkpt><trkpt lat="42.2912073" lon="14.1353118"><ele>314.3333333333333</ele><time>2026-05-01T15:06:46.47Z</time></trkpt><trkpt lat="42.2911673" lon="14.1352024"><ele>315.66666666666663</ele><time>2026-05-01T15:06:47.475Z</time></trkpt><trkpt lat="42.2911285" lon="14.1351121"><ele>317.0</ele><time>2026-05-01T15:06:48.481Z</time></trkpt><trkpt lat="42.2910934" lon="14.135037"><ele>318.3333333333333</ele><time>2026-05-01T15:06:49.467Z</time></trkpt><trkpt lat="42.291027" lon="14.1349069"><ele>319.6666666666667</ele><time>2026-05-01T15:06:51.473Z</time></trkpt><trkpt lat="42.2909846" lon="14.1347982"><ele>321.0</ele><time>2026-05-01T15:06:53.476Z</time></trkpt><trkpt lat="42.2909384" lon="14.1347033"><ele>321.0</ele><time>2026-05-01T15:06:56.48Z</time></trkpt><trkpt lat="42.2909062" lon="14.1346117"><ele>321.0</ele><time>2026-05-01T15:06:58.48Z</time></trkpt><trkpt lat="42.2908708" lon="14.1344381"><ele>321.0</ele><time>2026-05-01T15:07:00.481Z</time></trkpt><trkpt lat="42.2908426" lon="14.1343305"><ele>321.0</ele><time>2026-05-01T15:07:01.49Z</time></trkpt><trkpt lat="42.2908138" lon="14.1342238"><ele>321.0</ele><time>2026-05-01T15:07:02.484Z</time></trkpt><trkpt lat="42.2907758" lon="14.1341318"><ele>320.6</ele><time>2026-05-01T15:07:03.483Z</time></trkpt><trkpt lat="42.2907241" lon="14.1340458"><ele>320.20000000000005</ele><time>2026-05-01T15:07:04.478Z</time></trkpt><trkpt lat="42.2906553" lon="14.1339764"><ele>319.79999999999995</ele><time>2026-05-01T15:07:05.476Z</time></trkpt><trkpt lat="42.2905639" lon="14.1339215"><ele>319.4</ele><time>2026-05-01T15:07:06.487Z</time></trkpt><trkpt lat="42.2904656" lon="14.1338717"><ele>319.0</ele><time>2026-05-01T15:07:07.477Z</time></trkpt><trkpt lat="42.2903625" lon="14.1338283"><ele>319.0</ele><time>2026-05-01T15:07:08.476Z</time></trkpt><trkpt lat="42.2902572" lon="14.1337806"><ele>319.0</ele><time>2026-05-01T15:07:09.487Z</time></trkpt><trkpt lat="42.2901505" lon="14.1337168"><ele>319.0</ele><time>2026-05-01T15:07:10.48Z</time></trkpt><trkpt lat="42.2900585" lon="14.1336366"><ele>319.0</ele><time>2026-05-01T15:07:11.473Z</time></trkpt><trkpt lat="42.2899876" lon="14.1335221"><ele>319.0</ele><time>2026-05-01T15:07:12.48Z</time></trkpt><trkpt lat="42.289927" lon="14.133405"><ele>319.0</ele><time>2026-05-01T15:07:13.48Z</time></trkpt><trkpt lat="42.2898725" lon="14.1332886"><ele>319.0</ele><time>2026-05-01T15:07:14.487Z</time></trkpt><trkpt lat="42.2898244" lon="14.1331829"><ele>319.0</ele><time>2026-05-01T15:07:15.485Z</time></trkpt><trkpt lat="42.2897671" lon="14.1330968"><ele>319.0</ele><time>2026-05-01T15:07:16.493Z</time></trkpt><trkpt lat="42.2897059" lon="14.1330325"><ele>319.0</ele><time>2026-05-01T15:07:17.487Z</time></trkpt><trkpt lat="42.2896495" lon="14.132976"><ele>319.0</ele><time>2026-05-01T15:07:18.493Z</time></trkpt><trkpt lat="42.289583" lon="14.1328506"><ele>318.16666666666663</ele><time>2026-05-01T15:07:20.49Z</time></trkpt><trkpt lat="42.2895842" lon="14.132742"><ele>317.3333333333333</ele><time>2026-05-01T15:07:21.487Z</time></trkpt><trkpt lat="42.2895981" lon="14.1326322"><ele>316.5</ele><time>2026-05-01T15:07:22.496Z</time></trkpt><trkpt lat="42.2896186" lon="14.1325148"><ele>315.6666666666667</ele><time>2026-05-01T15:07:23.5Z</time></trkpt><trkpt lat="42.2896533" lon="14.132391"><ele>314.83333333333337</ele><time>2026-05-01T15:07:24.499Z</time></trkpt><trkpt lat="42.289684" lon="14.1322632"><ele>314.0</ele><time>2026-05-01T15:07:25.493Z</time></trkpt><trkpt lat="42.2897199" lon="14.1321451"><ele>313.1666666666667</ele><time>2026-05-01T15:07:26.494Z</time></trkpt><trkpt lat="42.2897552" lon="14.1320313"><ele>312.33333333333337</ele><time>2026-05-01T15:07:27.492Z</time></trkpt><trkpt lat="42.2897917" lon="14.1319222"><ele>311.5</ele><time>2026-05-01T15:07:28.485Z</time></trkpt><trkpt lat="42.2898401" lon="14.1318221"><ele>310.6666666666667</ele><time>2026-05-01T15:07:29.487Z</time></trkpt><trkpt lat="42.2898878" lon="14.131736"><ele>309.8333333333333</ele><time>2026-05-01T15:07:30.487Z</time></trkpt><trkpt lat="42.2899255" lon="14.1316661"><ele>309.0</ele><time>2026-05-01T15:07:31.488Z</time></trkpt><trkpt lat="42.2899876" lon="14.131576"><ele>306.7142857142857</ele><time>2026-05-01T15:07:33.488Z</time></trkpt><trkpt lat="42.2900344" lon="14.1315016"><ele>304.42857142857144</ele><time>2026-05-01T15:07:36.49Z</time></trkpt><trkpt lat="42.2900815" lon="14.131434"><ele>302.1428571428571</ele><time>2026-05-01T15:07:40.49Z</time></trkpt><trkpt lat="42.2901255" lon="14.131364"><ele>299.8571428571429</ele><time>2026-05-01T15:07:46.488Z</time></trkpt><trkpt lat="42.2901598" lon="14.1312796"><ele>297.57142857142856</ele><time>2026-05-01T15:07:49.498Z</time></trkpt><trkpt lat="42.2901912" lon="14.1311791"><ele>295.2857142857143</ele><time>2026-05-01T15:07:52.486Z</time></trkpt><trkpt lat="42.2902213" lon="14.1310822"><ele>293.0</ele><time>2026-05-01T15:07:54.485Z</time></trkpt><trkpt lat="42.2902364" lon="14.1309842"><ele>293.0</ele><time>2026-05-01T15:07:56.486Z</time></trkpt><trkpt lat="42.2902674" lon="14.1308784"><ele>293.0</ele><time>2026-05-01T15:07:58.492Z</time></trkpt><trkpt lat="42.2902865" lon="14.1307644"><ele>293.0</ele><time>2026-05-01T15:08:00.491Z</time></trkpt><trkpt lat="42.2903138" lon="14.1306098"><ele>293.0</ele><time>2026-05-01T15:08:02.488Z</time></trkpt><trkpt lat="42.2903367" lon="14.1304614"><ele>293.0</ele><time>2026-05-01T15:08:04.491Z</time></trkpt><trkpt lat="42.2903601" lon="14.1303784"><ele>290.71428571428567</ele><time>2026-05-01T15:08:05.48Z</time></trkpt><trkpt lat="42.2903795" lon="14.1302917"><ele>288.42857142857144</ele><time>2026-05-01T15:08:06.49Z</time></trkpt><trkpt lat="42.2903963" lon="14.1302022"><ele>286.1428571428571</ele><time>2026-05-01T15:08:07.483Z</time></trkpt><trkpt lat="42.2904091" lon="14.1301098"><ele>283.85714285714283</ele><time>2026-05-01T15:08:08.478Z</time></trkpt><trkpt lat="42.2904158" lon="14.1300136"><ele>281.57142857142856</ele><time>2026-05-01T15:08:09.485Z</time></trkpt><trkpt lat="42.2904213" lon="14.1299181"><ele>279.2857142857143</ele><time>2026-05-01T15:08:10.485Z</time></trkpt><trkpt lat="42.290422" lon="14.1298192"><ele>277.0</ele><time>2026-05-01T15:08:11.48Z</time></trkpt><trkpt lat="42.2904202" lon="14.1297234"><ele>275.85714285714283</ele><time>2026-05-01T15:08:12.486Z</time></trkpt><trkpt lat="42.2904125" lon="14.1296302"><ele>274.71428571428567</ele><time>2026-05-01T15:08:13.483Z</time></trkpt><trkpt lat="42.2904048" lon="14.1295355"><ele>273.57142857142856</ele><time>2026-05-01T15:08:14.491Z</time></trkpt><trkpt lat="42.2903956" lon="14.1294438"><ele>272.42857142857144</ele><time>2026-05-01T15:08:15.48Z</time></trkpt><trkpt lat="42.2903869" lon="14.1293527"><ele>271.28571428571433</ele><time>2026-05-01T15:08:16.489Z</time></trkpt><trkpt lat="42.2903846" lon="14.1292529"><ele>270.14285714285717</ele><time>2026-05-01T15:08:17.481Z</time></trkpt><trkpt lat="42.2903852" lon="14.1291485"><ele>269.0</ele><time>2026-05-01T15:08:18.48Z</time></trkpt><trkpt lat="42.2903944" lon="14.1290463"><ele>265.0</ele><time>2026-05-01T15:08:19.493Z</time></trkpt><trkpt lat="42.290402" lon="14.1289574"><ele>261.0</ele><time>2026-05-01T15:08:20.481Z</time></trkpt><trkpt lat="42.2904248" lon="14.1287957"><ele>257.0</ele><time>2026-05-01T15:08:22.482Z</time></trkpt><trkpt lat="42.2904485" lon="14.1286385"><ele>253.0</ele><time>2026-05-01T15:08:24.484Z</time></trkpt><trkpt lat="42.29046" lon="14.1284771"><ele>249.0</ele><time>2026-05-01T15:08:26.486Z</time></trkpt><trkpt lat="42.2904687" lon="14.1283894"><ele>249.0</ele><time>2026-05-01T15:08:27.485Z</time></trkpt><trkpt lat="42.2904844" lon="14.1282979"><ele>248.99999999999997</ele><time>2026-05-01T15:08:28.499Z</time></trkpt><trkpt lat="42.2904966" lon="14.1282116"><ele>248.99999999999997</ele><time>2026-05-01T15:08:29.488Z</time></trkpt><trkpt lat="42.2905074" lon="14.1280622"><ele>249.0</ele><time>2026-05-01T15:08:31.491Z</time></trkpt><trkpt lat="42.2905141" lon="14.1279362"><ele>249.0</ele><time>2026-05-01T15:08:33.486Z</time></trkpt><trkpt lat="42.2905354" lon="14.1277841"><ele>244.79999999999998</ele><time>2026-05-01T15:08:35.486Z</time></trkpt><trkpt lat="42.2905562" lon="14.1276339"><ele>240.59999999999997</ele><time>2026-05-01T15:08:37.5Z</time></trkpt><trkpt lat="42.2905738" lon="14.1274953"><ele>236.4</ele><time>2026-05-01T15:08:39.497Z</time></trkpt><trkpt lat="42.290597" lon="14.1273478"><ele>232.2</ele><time>2026-05-01T15:08:41.491Z</time></trkpt><trkpt lat="42.2906127" lon="14.1272609"><ele>228.0</ele><time>2026-05-01T15:08:42.499Z</time></trkpt><trkpt lat="42.2906257" lon="14.1271707"><ele>227.42857142857142</ele><time>2026-05-01T15:08:43.492Z</time></trkpt><trkpt lat="42.29064" lon="14.1270771"><ele>226.85714285714283</ele><time>2026-05-01T15:08:44.489Z</time></trkpt><trkpt lat="42.290656" lon="14.1269841"><ele>226.28571428571428</ele><time>2026-05-01T15:08:45.488Z</time></trkpt><trkpt lat="42.290667" lon="14.1268915"><ele>225.71428571428572</ele><time>2026-05-01T15:08:46.491Z</time></trkpt><trkpt lat="42.2906761" lon="14.1268051"><ele>225.14285714285714</ele><time>2026-05-01T15:08:47.489Z</time></trkpt><trkpt lat="42.2906809" lon="14.1267185"><ele>224.57142857142856</ele><time>2026-05-01T15:08:48.487Z</time></trkpt><trkpt lat="42.2906788" lon="14.1266328"><ele>224.0</ele><time>2026-05-01T15:08:49.498Z</time></trkpt><trkpt lat="42.2906582" lon="14.1264737"><ele>222.71428571428572</ele><time>2026-05-01T15:08:51.507Z</time></trkpt><trkpt lat="42.2906479" lon="14.1263897"><ele>221.42857142857144</ele><time>2026-05-01T15:08:52.494Z</time></trkpt><trkpt lat="42.290629" lon="14.1263071"><ele>220.14285714285714</ele><time>2026-05-01T15:08:53.506Z</time></trkpt><trkpt lat="42.2906086" lon="14.1262186"><ele>218.85714285714286</ele><time>2026-05-01T15:08:54.496Z</time></trkpt><trkpt lat="42.2905915" lon="14.1261272"><ele>217.57142857142858</ele><time>2026-05-01T15:08:55.493Z</time></trkpt><trkpt lat="42.2905825" lon="14.1260316"><ele>216.28571428571428</ele><time>2026-05-01T15:08:56.505Z</time></trkpt><trkpt lat="42.2905751" lon="14.1259462"><ele>215.0</ele><time>2026-05-01T15:08:57.496Z</time></trkpt><trkpt lat="42.2905719" lon="14.1257953"><ele>211.8</ele><time>2026-05-01T15:08:59.492Z</time></trkpt><trkpt lat="42.290565" lon="14.1256512"><ele>208.6</ele><time>2026-05-01T15:09:01.497Z</time></trkpt><trkpt lat="42.2905427" lon="14.1254964"><ele>205.39999999999998</ele><time>2026-05-01T15:09:03.494Z</time></trkpt><trkpt lat="42.2905287" lon="14.1253377"><ele>202.2</ele><time>2026-05-01T15:09:05.496Z</time></trkpt><trkpt lat="42.2905329" lon="14.1252062"><ele>199.0</ele><time>2026-05-01T15:09:07.494Z</time></trkpt><trkpt lat="42.2905293" lon="14.1250338"><ele>199.0</ele><time>2026-05-01T15:09:09.494Z</time></trkpt><trkpt lat="42.290545" lon="14.1249058"><ele>199.0</ele><time>2026-05-01T15:09:11.491Z</time></trkpt><trkpt lat="42.2905891" lon="14.1247945"><ele>199.0</ele><time>2026-05-01T15:09:14.493Z</time></trkpt><trkpt lat="42.2906479" lon="14.1246927"><ele>199.0</ele><time>2026-05-01T15:09:16.49Z</time></trkpt><trkpt lat="42.290706" lon="14.1246028"><ele>199.0</ele><time>2026-05-01T15:09:18.494Z</time></trkpt><trkpt lat="42.290763" lon="14.1245021"><ele>198.0</ele><time>2026-05-01T15:09:20.495Z</time></trkpt><trkpt lat="42.2908243" lon="14.1244111"><ele>197.0</ele><time>2026-05-01T15:09:22.489Z</time></trkpt><trkpt lat="42.2908786" lon="14.1242931"><ele>196.0</ele><time>2026-05-01T15:09:24.487Z</time></trkpt><trkpt lat="42.2909181" lon="14.1241752"><ele>195.0</ele><time>2026-05-01T15:09:26.485Z</time></trkpt><trkpt lat="42.2909564" lon="14.1240651"><ele>194.0</ele><time>2026-05-01T15:09:28.483Z</time></trkpt><trkpt lat="42.2909905" lon="14.1239305"><ele>189.5</ele><time>2026-05-01T15:09:30.481Z</time></trkpt><trkpt lat="42.2910281" lon="14.1237857"><ele>185.0</ele><time>2026-05-01T15:09:32.481Z</time></trkpt><trkpt lat="42.2910524" lon="14.1236415"><ele>180.5</ele><time>2026-05-01T15:09:34.484Z</time></trkpt><trkpt lat="42.2910435" lon="14.1235012"><ele>176.0</ele><time>2026-05-01T15:09:36.476Z</time></trkpt><trkpt lat="42.2909938" lon="14.1233419"><ele>176.0</ele><time>2026-05-01T15:09:38.473Z</time></trkpt><trkpt lat="42.2909621" lon="14.1232492"><ele>176.0</ele><time>2026-05-01T15:09:39.474Z</time></trkpt><trkpt lat="42.2909286" lon="14.1231661"><ele>176.0</ele><time>2026-05-01T15:09:40.474Z</time></trkpt><trkpt lat="42.2908727" lon="14.1230316"><ele>176.0</ele><time>2026-05-01T15:09:42.477Z</time></trkpt><trkpt lat="42.2908347" lon="14.1229229"><ele>176.0</ele><time>2026-05-01T15:09:44.476Z</time></trkpt><trkpt lat="42.2907848" lon="14.1228105"><ele>176.0</ele><time>2026-05-01T15:09:46.475Z</time></trkpt><trkpt lat="42.2907532" lon="14.1227202"><ele>173.5</ele><time>2026-05-01T15:09:48.473Z</time></trkpt><trkpt lat="42.2907287" lon="14.1226372"><ele>171.0</ele><time>2026-05-01T15:09:50.477Z</time></trkpt><trkpt lat="42.2907139" lon="14.1225476"><ele>168.5</ele><time>2026-05-01T15:09:52.473Z</time></trkpt><trkpt lat="42.2907484" lon="14.1224667"><ele>166.0</ele><time>2026-05-01T15:09:54.476Z</time></trkpt><trkpt lat="42.2908262" lon="14.122385"><ele>163.5</ele><time>2026-05-01T15:09:56.472Z</time></trkpt><trkpt lat="42.2909281" lon="14.1223126"><ele>161.0</ele><time>2026-05-01T15:09:58.479Z</time></trkpt><trkpt lat="42.2910105" lon="14.1222515"><ele>161.0</ele><time>2026-05-01T15:10:00.474Z</time></trkpt><trkpt lat="42.2910305" lon="14.1221679"><ele>161.0</ele><time>2026-05-01T15:10:02.476Z</time></trkpt><trkpt lat="42.2910218" lon="14.1220444"><ele>161.0</ele><time>2026-05-01T15:10:04.475Z</time></trkpt><trkpt lat="42.2910286" lon="14.1219559"><ele>161.0</ele><time>2026-05-01T15:10:05.467Z</time></trkpt><trkpt lat="42.2910625" lon="14.1218282"><ele>161.0</ele><time>2026-05-01T15:10:07.471Z</time></trkpt><trkpt lat="42.2911228" lon="14.1217056"><ele>161.0</ele><time>2026-05-01T15:10:09.471Z</time></trkpt><trkpt lat="42.2911822" lon="14.1216253"><ele>163.5</ele><time>2026-05-01T15:13:22.481Z</time></trkpt><trkpt lat="42.291241" lon="14.1215161"><ele>166.0</ele><time>2026-05-01T15:13:25.476Z</time></trkpt><trkpt lat="42.2913023" lon="14.1213823"><ele>168.5</ele><time>2026-05-01T15:13:27.48Z</time></trkpt><trkpt lat="42.2913605" lon="14.1212478"><ele>171.0</ele><time>2026-05-01T15:13:29.489Z</time></trkpt><trkpt lat="42.2914218" lon="14.1211067"><ele>173.25</ele><time>2026-05-01T15:13:31.481Z</time></trkpt><trkpt lat="42.2914782" lon="14.1209782"><ele>175.5</ele><time>2026-05-01T15:13:33.482Z</time></trkpt><trkpt lat="42.2915349" lon="14.120834"><ele>177.75</ele><time>2026-05-01T15:13:35.485Z</time></trkpt><trkpt lat="42.2915964" lon="14.1206874"><ele>180.0</ele><time>2026-05-01T15:13:37.481Z</time></trkpt><trkpt lat="42.2916699" lon="14.1205525"><ele>183.4</ele><time>2026-05-01T15:13:39.481Z</time></trkpt><trkpt lat="42.2917106" lon="14.1204849"><ele>186.8</ele><time>2026-05-01T15:13:40.481Z</time></trkpt><trkpt lat="42.2917747" lon="14.1203639"><ele>190.2</ele><time>2026-05-01T15:13:42.48Z</time></trkpt><trkpt lat="42.2918297" lon="14.1202597"><ele>193.6</ele><time>2026-05-01T15:13:44.48Z</time></trkpt><trkpt lat="42.2918655" lon="14.1201489"><ele>197.0</ele><time>2026-05-01T15:13:46.483Z</time></trkpt><trkpt lat="42.2918668" lon="14.1199982"><ele>197.00000000000003</ele><time>2026-05-01T15:13:48.477Z</time></trkpt><trkpt lat="42.2918602" lon="14.1199013"><ele>197.0</ele><time>2026-05-01T15:13:49.477Z</time></trkpt><trkpt lat="42.2918496" lon="14.119816"><ele>197.0</ele><time>2026-05-01T15:13:50.476Z</time></trkpt><trkpt lat="42.2918227" lon="14.1196587"><ele>197.0</ele><time>2026-05-01T15:13:52.483Z</time></trkpt><trkpt lat="42.2918031" lon="14.1195741"><ele>197.00000000000003</ele><time>2026-05-01T15:13:53.479Z</time></trkpt><trkpt lat="42.2917601" lon="14.1194605"><ele>197.0</ele><time>2026-05-01T15:13:55.475Z</time></trkpt><trkpt lat="42.2918555" lon="14.1195123"><ele>200.6</ele><time>2026-05-01T15:13:59.472Z</time></trkpt><trkpt lat="42.2919699" lon="14.1195601"><ele>204.2</ele><time>2026-05-01T15:14:01.479Z</time></trkpt><trkpt lat="42.2920357" lon="14.1195589"><ele>207.8</ele><time>2026-05-01T15:14:02.473Z</time></trkpt><trkpt lat="42.2921544" lon="14.1195014"><ele>211.4</ele><time>2026-05-01T15:14:04.48Z</time></trkpt><trkpt lat="42.2922206" lon="14.1194601"><ele>215.0</ele><time>2026-05-01T15:14:05.483Z</time></trkpt><trkpt lat="42.2922836" lon="14.1194249"><ele>217.50000000000003</ele><time>2026-05-01T15:14:06.484Z</time></trkpt><trkpt lat="42.2923486" lon="14.119388"><ele>220.0</ele><time>2026-05-01T15:14:07.478Z</time></trkpt><trkpt lat="42.2924144" lon="14.1193429"><ele>222.5</ele><time>2026-05-01T15:14:08.477Z</time></trkpt><trkpt lat="42.2924773" lon="14.1192947"><ele>225.0</ele><time>2026-05-01T15:14:09.481Z</time></trkpt><trkpt lat="42.29254" lon="14.1192482"><ele>227.50000000000003</ele><time>2026-05-01T15:14:10.478Z</time></trkpt><trkpt lat="42.2926277" lon="14.1191619"><ele>230.0</ele><time>2026-05-01T15:14:12.477Z</time></trkpt><trkpt lat="42.2926781" lon="14.1191063"><ele>232.4285714285714</ele><time>2026-05-01T15:14:13.481Z</time></trkpt><trkpt lat="42.2927237" lon="14.1190465"><ele>234.85714285714283</ele><time>2026-05-01T15:14:14.479Z</time></trkpt><trkpt lat="42.2927728" lon="14.1189879"><ele>237.28571428571428</ele><time>2026-05-01T15:14:15.48Z</time></trkpt><trkpt lat="42.2928308" lon="14.118921"><ele>239.7142857142857</ele><time>2026-05-01T15:14:16.48Z</time></trkpt><trkpt lat="42.2928914" lon="14.1188607"><ele>242.1428571428571</ele><time>2026-05-01T15:14:17.477Z</time></trkpt><trkpt lat="42.2929494" lon="14.1188027"><ele>244.57142857142858</ele><time>2026-05-01T15:14:18.477Z</time></trkpt><trkpt lat="42.2930052" lon="14.1187448"><ele>247.0</ele><time>2026-05-01T15:14:19.485Z</time></trkpt><trkpt lat="42.2931009" lon="14.1186535"><ele>246.99999999999997</ele><time>2026-05-01T15:14:21.472Z</time></trkpt><trkpt lat="42.2931187" lon="14.1185618"><ele>247.0</ele><time>2026-05-01T15:14:23.484Z</time></trkpt><trkpt lat="42.2930829" lon="14.1184159"><ele>247.0</ele><time>2026-05-01T15:14:25.473Z</time></trkpt><trkpt lat="42.2930627" lon="14.1183299"><ele>247.0</ele><time>2026-05-01T15:14:26.476Z</time></trkpt><trkpt lat="42.2930425" lon="14.1182299"><ele>246.99999999999997</ele><time>2026-05-01T15:14:28.493Z</time></trkpt><trkpt lat="42.293021" lon="14.1181382"><ele>247.0</ele><time>2026-05-01T15:15:28.499Z</time></trkpt><trkpt lat="42.2929281" lon="14.118084"><ele>246.16666666666666</ele><time>2026-05-01T15:15:30.496Z</time></trkpt><trkpt lat="42.2928553" lon="14.1180595"><ele>245.33333333333331</ele><time>2026-05-01T15:15:31.497Z</time></trkpt><trkpt lat="42.2927759" lon="14.1180279"><ele>244.5</ele><time>2026-05-01T15:15:32.501Z</time></trkpt><trkpt lat="42.2926852" lon="14.11799"><ele>243.66666666666669</ele><time>2026-05-01T15:15:33.499Z</time></trkpt><trkpt lat="42.2925963" lon="14.1179513"><ele>242.83333333333334</ele><time>2026-05-01T15:15:34.499Z</time></trkpt><trkpt lat="42.2925168" lon="14.1179002"><ele>242.0</ele><time>2026-05-01T15:15:35.495Z</time></trkpt><trkpt lat="42.2924552" lon="14.1178385"><ele>242.0</ele><time>2026-05-01T15:15:36.488Z</time></trkpt><trkpt lat="42.2924212" lon="14.1177573"><ele>241.99999999999997</ele><time>2026-05-01T15:15:37.481Z</time></trkpt><trkpt lat="42.292403" lon="14.1176699"><ele>242.0</ele><time>2026-05-01T15:15:38.491Z</time></trkpt><trkpt lat="42.2924197" lon="14.1175803"><ele>242.0</ele><time>2026-05-01T15:15:39.474Z</time></trkpt><trkpt lat="42.292453" lon="14.1175074"><ele>241.99999999999997</ele><time>2026-05-01T15:15:40.486Z</time></trkpt><trkpt lat="42.2925187" lon="14.1174636"><ele>242.0</ele><time>2026-05-01T15:15:41.477Z</time></trkpt><trkpt lat="42.292587" lon="14.1174626"><ele>242.0</ele><time>2026-05-01T15:15:42.488Z</time></trkpt><trkpt lat="42.2926549" lon="14.1175108"><ele>242.00000000000003</ele><time>2026-05-01T15:15:43.482Z</time></trkpt><trkpt lat="42.2927182" lon="14.1175806"><ele>242.0</ele><time>2026-05-01T15:15:44.489Z</time></trkpt><trkpt lat="42.292778" lon="14.1176438"><ele>242.0</ele><time>2026-05-01T15:15:45.488Z</time></trkpt><trkpt lat="42.2928261" lon="14.117703"><ele>242.0</ele><time>2026-05-01T15:15:46.489Z</time></trkpt><trkpt lat="42.2929161" lon="14.1177853"><ele>242.00000000000003</ele><time>2026-05-01T15:15:48.481Z</time></trkpt><trkpt lat="42.292989" lon="14.1178188"><ele>242.0</ele><time>2026-05-01T15:15:50.483Z</time></trkpt><trkpt lat="42.2930625" lon="14.1178326"><ele>242.0</ele><time>2026-05-01T15:15:52.48Z</time></trkpt><trkpt lat="42.2931487" lon="14.1177516"><ele>242.0</ele><time>2026-05-01T15:15:54.48Z</time></trkpt><trkpt lat="42.2931725" lon="14.1176056"><ele>242.0</ele><time>2026-05-01T15:15:56.485Z</time></trkpt><trkpt lat="42.2930847" lon="14.1174677"><ele>242.0</ele><time>2026-05-01T15:15:58.486Z</time></trkpt><trkpt lat="42.2930071" lon="14.117399"><ele>242.0</ele><time>2026-05-01T15:15:59.484Z</time></trkpt><trkpt lat="42.2929406" lon="14.1173268"><ele>239.39999999999998</ele><time>2026-05-01T15:16:00.492Z</time></trkpt><trkpt lat="42.2928819" lon="14.1172505"><ele>236.79999999999998</ele><time>2026-05-01T15:16:01.492Z</time></trkpt><trkpt lat="42.2928181" lon="14.1171759"><ele>234.2</ele><time>2026-05-01T15:16:02.486Z</time></trkpt><trkpt lat="42.2927555" lon="14.1170844"><ele>231.6</ele><time>2026-05-01T15:16:03.484Z</time></trkpt><trkpt lat="42.2926988" lon="14.1169661"><ele>229.0</ele><time>2026-05-01T15:16:04.482Z</time></trkpt><trkpt lat="42.2926384" lon="14.1168376"><ele>229.0</ele><time>2026-05-01T15:16:05.486Z</time></trkpt><trkpt lat="42.29257" lon="14.1167046"><ele>229.0</ele><time>2026-05-01T15:16:06.484Z</time></trkpt><trkpt lat="42.2924947" lon="14.1165713"><ele>229.0</ele><time>2026-05-01T15:16:07.489Z</time></trkpt><trkpt lat="42.2924073" lon="14.1164286"><ele>229.0</ele><time>2026-05-01T15:16:08.489Z</time></trkpt><trkpt lat="42.2923035" lon="14.1162947"><ele>225.5</ele><time>2026-05-01T15:16:09.489Z</time></trkpt><trkpt lat="42.2922028" lon="14.1161799"><ele>222.0</ele><time>2026-05-01T15:16:10.498Z</time></trkpt><trkpt lat="42.2921023" lon="14.1160643"><ele>218.5</ele><time>2026-05-01T15:16:11.486Z</time></trkpt><trkpt lat="42.2920095" lon="14.1159457"><ele>215.0</ele><time>2026-05-01T15:16:12.495Z</time></trkpt><trkpt lat="42.291922" lon="14.1158265"><ele>214.25</ele><time>2026-05-01T15:16:13.494Z</time></trkpt><trkpt lat="42.2918352" lon="14.1157065"><ele>213.5</ele><time>2026-05-01T15:16:14.494Z</time></trkpt><trkpt lat="42.2917498" lon="14.1155899"><ele>212.75</ele><time>2026-05-01T15:16:15.493Z</time></trkpt><trkpt lat="42.2916709" lon="14.1154812"><ele>212.0</ele><time>2026-05-01T15:16:16.496Z</time></trkpt><trkpt lat="42.2915955" lon="14.115381"><ele>212.0</ele><time>2026-05-01T15:16:17.506Z</time></trkpt><trkpt lat="42.2915267" lon="14.1152807"><ele>212.0</ele><time>2026-05-01T15:16:18.493Z</time></trkpt><trkpt lat="42.2914696" lon="14.1151776"><ele>212.0</ele><time>2026-05-01T15:16:19.497Z</time></trkpt><trkpt lat="42.2914102" lon="14.1150631"><ele>212.0</ele><time>2026-05-01T15:16:20.498Z</time></trkpt><trkpt lat="42.2913531" lon="14.1149466"><ele>212.0</ele><time>2026-05-01T15:16:21.505Z</time></trkpt><trkpt lat="42.2912952" lon="14.1148281"><ele>213.5</ele><time>2026-05-01T15:16:22.495Z</time></trkpt><trkpt lat="42.2912389" lon="14.1147017"><ele>215.0</ele><time>2026-05-01T15:16:23.493Z</time></trkpt><trkpt lat="42.2911798" lon="14.1145637"><ele>216.5</ele><time>2026-05-01T15:16:24.493Z</time></trkpt><trkpt lat="42.2911139" lon="14.1144097"><ele>218.0</ele><time>2026-05-01T15:16:25.502Z</time></trkpt><trkpt lat="42.2910467" lon="14.114253"><ele>218.0</ele><time>2026-05-01T15:16:26.497Z</time></trkpt><trkpt lat="42.2909772" lon="14.1140821"><ele>218.0</ele><time>2026-05-01T15:16:27.508Z</time></trkpt><trkpt lat="42.2908886" lon="14.1138924"><ele>218.0</ele><time>2026-05-01T15:16:28.497Z</time></trkpt><trkpt lat="42.290805" lon="14.113715"><ele>217.0</ele><time>2026-05-01T15:16:29.505Z</time></trkpt><trkpt lat="42.290742" lon="14.1135447"><ele>216.0</ele><time>2026-05-01T15:16:30.494Z</time></trkpt><trkpt lat="42.2906655" lon="14.113381"><ele>215.0</ele><time>2026-05-01T15:16:31.51Z</time></trkpt><trkpt lat="42.2906072" lon="14.1132234"><ele>214.0</ele><time>2026-05-01T15:16:32.496Z</time></trkpt><trkpt lat="42.2905471" lon="14.1130607"><ele>215.25</ele><time>2026-05-01T15:16:33.496Z</time></trkpt><trkpt lat="42.2904943" lon="14.1128872"><ele>216.5</ele><time>2026-05-01T15:16:34.506Z</time></trkpt><trkpt lat="42.2904412" lon="14.1126974"><ele>217.75</ele><time>2026-05-01T15:16:35.493Z</time></trkpt><trkpt lat="42.2903883" lon="14.1125251"><ele>219.0</ele><time>2026-05-01T15:16:36.495Z</time></trkpt><trkpt lat="42.2903389" lon="14.1123418"><ele>219.0</ele><time>2026-05-01T15:16:37.492Z</time></trkpt><trkpt lat="42.2903009" lon="14.112149"><ele>219.0</ele><time>2026-05-01T15:16:38.493Z</time></trkpt><trkpt lat="42.2902614" lon="14.1119552"><ele>219.0</ele><time>2026-05-01T15:16:39.498Z</time></trkpt><trkpt lat="42.2902305" lon="14.1117673"><ele>219.0</ele><time>2026-05-01T15:16:40.492Z</time></trkpt><trkpt lat="42.2902132" lon="14.1115922"><ele>217.25</ele><time>2026-05-01T15:16:41.493Z</time></trkpt><trkpt lat="42.2901903" lon="14.1114162"><ele>215.5</ele><time>2026-05-01T15:16:42.49Z</time></trkpt><trkpt lat="42.2901915" lon="14.1112474"><ele>213.75</ele><time>2026-05-01T15:16:43.493Z</time></trkpt><trkpt lat="42.2902126" lon="14.1110702"><ele>212.0</ele><time>2026-05-01T15:16:44.487Z</time></trkpt><trkpt lat="42.2902469" lon="14.1109134"><ele>212.0</ele><time>2026-05-01T15:16:45.488Z</time></trkpt><trkpt lat="42.2902904" lon="14.1107455"><ele>212.0</ele><time>2026-05-01T15:16:46.495Z</time></trkpt><trkpt lat="42.2903334" lon="14.110586"><ele>212.0</ele><time>2026-05-01T15:16:47.496Z</time></trkpt><trkpt lat="42.2903773" lon="14.1104512"><ele>212.0</ele><time>2026-05-01T15:16:48.49Z</time></trkpt><trkpt lat="42.2904465" lon="14.1103336"><ele>212.5</ele><time>2026-05-01T15:16:49.492Z</time></trkpt><trkpt lat="42.2905233" lon="14.1102318"><ele>213.0</ele><time>2026-05-01T15:16:50.486Z</time></trkpt><trkpt lat="42.2906301" lon="14.1101623"><ele>213.5</ele><time>2026-05-01T15:16:51.492Z</time></trkpt><trkpt lat="42.2907495" lon="14.1100817"><ele>214.0</ele><time>2026-05-01T15:16:52.5Z</time></trkpt><trkpt lat="42.2908697" lon="14.1099774"><ele>211.66666666666666</ele><time>2026-05-01T15:16:53.491Z</time></trkpt><trkpt lat="42.2909987" lon="14.1098621"><ele>209.33333333333331</ele><time>2026-05-01T15:16:54.495Z</time></trkpt><trkpt lat="42.2911096" lon="14.1097204"><ele>207.0</ele><time>2026-05-01T15:16:55.489Z</time></trkpt><trkpt lat="42.2912325" lon="14.1096045"><ele>207.0</ele><time>2026-05-01T15:16:56.503Z</time></trkpt><trkpt lat="42.2913346" lon="14.1094734"><ele>207.0</ele><time>2026-05-01T15:16:57.486Z</time></trkpt><trkpt lat="42.2914255" lon="14.10936"><ele>207.0</ele><time>2026-05-01T15:16:58.496Z</time></trkpt><trkpt lat="42.2915383" lon="14.1092754"><ele>207.0</ele><time>2026-05-01T15:16:59.484Z</time></trkpt><trkpt lat="42.2916504" lon="14.1092164"><ele>210.39999999999998</ele><time>2026-05-01T15:17:00.49Z</time></trkpt><trkpt lat="42.2917558" lon="14.1091552"><ele>213.79999999999998</ele><time>2026-05-01T15:17:01.485Z</time></trkpt><trkpt lat="42.2918543" lon="14.1091246"><ele>217.2</ele><time>2026-05-01T15:17:02.481Z</time></trkpt><trkpt lat="42.2919412" lon="14.1090832"><ele>220.6</ele><time>2026-05-01T15:17:03.495Z</time></trkpt><trkpt lat="42.2920103" lon="14.1090295"><ele>224.0</ele><time>2026-05-01T15:17:04.477Z</time></trkpt><trkpt lat="42.2920828" lon="14.1089786"><ele>223.6</ele><time>2026-05-01T15:17:05.478Z</time></trkpt><trkpt lat="42.2921506" lon="14.1089102"><ele>223.2</ele><time>2026-05-01T15:17:06.482Z</time></trkpt><trkpt lat="42.2922177" lon="14.1088265"><ele>222.79999999999998</ele><time>2026-05-01T15:17:07.485Z</time></trkpt><trkpt lat="42.2922808" lon="14.1087372"><ele>222.39999999999998</ele><time>2026-05-01T15:17:08.486Z</time></trkpt><trkpt lat="42.2923482" lon="14.108635"><ele>222.0</ele><time>2026-05-01T15:17:09.481Z</time></trkpt><trkpt lat="42.2924171" lon="14.108521"><ele>222.0</ele><time>2026-05-01T15:17:10.479Z</time></trkpt><trkpt lat="42.2924788" lon="14.1084079"><ele>222.0</ele><time>2026-05-01T15:17:11.487Z</time></trkpt><trkpt lat="42.2925315" lon="14.1082959"><ele>222.0</ele><time>2026-05-01T15:17:12.477Z</time></trkpt><trkpt lat="42.292582" lon="14.1081875"><ele>222.0</ele><time>2026-05-01T15:17:13.49Z</time></trkpt><trkpt lat="42.2926242" lon="14.1080746"><ele>222.0</ele><time>2026-05-01T15:17:14.484Z</time></trkpt><trkpt lat="42.292667" lon="14.1079641"><ele>223.0</ele><time>2026-05-01T15:17:15.479Z</time></trkpt><trkpt lat="42.2927118" lon="14.1078435"><ele>224.0</ele><time>2026-05-01T15:17:16.493Z</time></trkpt><trkpt lat="42.2927502" lon="14.1077233"><ele>225.0</ele><time>2026-05-01T15:17:17.485Z</time></trkpt><trkpt lat="42.2927885" lon="14.1076052"><ele>226.0</ele><time>2026-05-01T15:17:18.491Z</time></trkpt><trkpt lat="42.2928274" lon="14.1074968"><ele>227.0</ele><time>2026-05-01T15:17:19.492Z</time></trkpt><trkpt lat="42.292869" lon="14.1073874"><ele>227.75</ele><time>2026-05-01T15:17:20.487Z</time></trkpt><trkpt lat="42.2929145" lon="14.1072676"><ele>228.5</ele><time>2026-05-01T15:17:21.488Z</time></trkpt><trkpt lat="42.2929687" lon="14.107125"><ele>229.25</ele><time>2026-05-01T15:17:22.486Z</time></trkpt><trkpt lat="42.2930295" lon="14.1069642"><ele>230.0</ele><time>2026-05-01T15:17:23.488Z</time></trkpt><trkpt lat="42.293089" lon="14.1067944"><ele>226.75</ele><time>2026-05-01T15:17:24.488Z</time></trkpt><trkpt lat="42.2931507" lon="14.1066199"><ele>223.5</ele><time>2026-05-01T15:17:25.49Z</time></trkpt><trkpt lat="42.2932172" lon="14.1064468"><ele>220.25</ele><time>2026-05-01T15:17:26.486Z</time></trkpt><trkpt lat="42.2932928" lon="14.1062778"><ele>217.0</ele><time>2026-05-01T15:17:27.493Z</time></trkpt><trkpt lat="42.2933705" lon="14.1061511"><ele>217.0</ele><time>2026-05-01T15:17:28.485Z</time></trkpt><trkpt lat="42.2934424" lon="14.1060207"><ele>217.0</ele><time>2026-05-01T15:17:29.485Z</time></trkpt><trkpt lat="42.2935161" lon="14.1058964"><ele>217.0</ele><time>2026-05-01T15:17:30.488Z</time></trkpt><trkpt lat="42.2936007" lon="14.1057699"><ele>217.0</ele><time>2026-05-01T15:17:31.488Z</time></trkpt><trkpt lat="42.2936963" lon="14.1056448"><ele>217.75</ele><time>2026-05-01T15:17:32.484Z</time></trkpt><trkpt lat="42.293783" lon="14.1055157"><ele>218.5</ele><time>2026-05-01T15:17:33.486Z</time></trkpt><trkpt lat="42.2938701" lon="14.1053841"><ele>219.25</ele><time>2026-05-01T15:17:34.483Z</time></trkpt><trkpt lat="42.2939564" lon="14.1052383"><ele>220.0</ele><time>2026-05-01T15:17:35.483Z</time></trkpt><trkpt lat="42.2940413" lon="14.1050849"><ele>217.25</ele><time>2026-05-01T15:17:36.485Z</time></trkpt><trkpt lat="42.2941269" lon="14.1049245"><ele>214.5</ele><time>2026-05-01T15:17:37.486Z</time></trkpt><trkpt lat="42.2942066" lon="14.1047523"><ele>211.75</ele><time>2026-05-01T15:17:38.489Z</time></trkpt><trkpt lat="42.2942913" lon="14.1045972"><ele>209.0</ele><time>2026-05-01T15:17:39.485Z</time></trkpt><trkpt lat="42.2943752" lon="14.1044261"><ele>209.0</ele><time>2026-05-01T15:17:40.488Z</time></trkpt><trkpt lat="42.2944501" lon="14.1042699"><ele>209.0</ele><time>2026-05-01T15:17:41.487Z</time></trkpt><trkpt lat="42.2945275" lon="14.1041104"><ele>209.0</ele><time>2026-05-01T15:17:42.487Z</time></trkpt><trkpt lat="42.2946041" lon="14.1039605"><ele>209.0</ele><time>2026-05-01T15:17:43.49Z</time></trkpt><trkpt lat="42.2946783" lon="14.1038105"><ele>209.0</ele><time>2026-05-01T15:17:44.491Z</time></trkpt><trkpt lat="42.2947513" lon="14.1036459"><ele>209.0</ele><time>2026-05-01T15:17:45.49Z</time></trkpt><trkpt lat="42.2948144" lon="14.1034905"><ele>209.0</ele><time>2026-05-01T15:17:46.487Z</time></trkpt><trkpt lat="42.2948707" lon="14.1033578"><ele>209.0</ele><time>2026-05-01T15:17:47.492Z</time></trkpt><trkpt lat="42.2949361" lon="14.1031991"><ele>207.75</ele><time>2026-05-01T15:17:48.496Z</time></trkpt><trkpt lat="42.2950134" lon="14.1030418"><ele>206.5</ele><time>2026-05-01T15:17:49.5Z</time></trkpt><trkpt lat="42.2950954" lon="14.1028815"><ele>205.25</ele><time>2026-05-01T15:17:50.486Z</time></trkpt><trkpt lat="42.2951749" lon="14.10273"><ele>204.0</ele><time>2026-05-01T15:17:51.497Z</time></trkpt><trkpt lat="42.2952648" lon="14.1025817"><ele>204.0</ele><time>2026-05-01T15:17:52.497Z</time></trkpt><trkpt lat="42.2953572" lon="14.1024289"><ele>204.0</ele><time>2026-05-01T15:17:53.492Z</time></trkpt><trkpt lat="42.2954548" lon="14.1022879"><ele>204.0</ele><time>2026-05-01T15:17:54.495Z</time></trkpt><trkpt lat="42.2955423" lon="14.1021549"><ele>204.0</ele><time>2026-05-01T15:17:55.492Z</time></trkpt><trkpt lat="42.2956297" lon="14.1020391"><ele>203.5</ele><time>2026-05-01T15:17:56.493Z</time></trkpt><trkpt lat="42.2957385" lon="14.1019497"><ele>203.0</ele><time>2026-05-01T15:17:57.499Z</time></trkpt><trkpt lat="42.2958153" lon="14.1018404"><ele>202.5</ele><time>2026-05-01T15:17:58.496Z</time></trkpt><trkpt lat="42.2959109" lon="14.1017365"><ele>202.0</ele><time>2026-05-01T15:17:59.493Z</time></trkpt><trkpt lat="42.2960062" lon="14.1016264"><ele>202.75</ele><time>2026-05-01T15:18:00.498Z</time></trkpt><trkpt lat="42.2961032" lon="14.1015051"><ele>203.5</ele><time>2026-05-01T15:18:01.494Z</time></trkpt><trkpt lat="42.2961871" lon="14.1013663"><ele>204.25</ele><time>2026-05-01T15:18:02.495Z</time></trkpt><trkpt lat="42.2962791" lon="14.1012256"><ele>205.0</ele><time>2026-05-01T15:18:03.484Z</time></trkpt><trkpt lat="42.2963743" lon="14.1010891"><ele>203.75</ele><time>2026-05-01T15:18:04.492Z</time></trkpt><trkpt lat="42.2964801" lon="14.1009562"><ele>202.5</ele><time>2026-05-01T15:18:05.486Z</time></trkpt><trkpt lat="42.2965612" lon="14.1008083"><ele>201.25</ele><time>2026-05-01T15:18:06.495Z</time></trkpt><trkpt lat="42.2966558" lon="14.1007046"><ele>200.0</ele><time>2026-05-01T15:18:07.484Z</time></trkpt><trkpt lat="42.2967581" lon="14.1006228"><ele>200.0</ele><time>2026-05-01T15:18:08.492Z</time></trkpt><trkpt lat="42.2968785" lon="14.1005351"><ele>200.0</ele><time>2026-05-01T15:18:09.485Z</time></trkpt><trkpt lat="42.296993" lon="14.1004366"><ele>200.0</ele><time>2026-05-01T15:18:10.489Z</time></trkpt><trkpt lat="42.2971171" lon="14.1003207"><ele>200.0</ele><time>2026-05-01T15:18:11.486Z</time></trkpt><trkpt lat="42.2972059" lon="14.1001921"><ele>196.0</ele><time>2026-05-01T15:18:12.484Z</time></trkpt><trkpt lat="42.2972882" lon="14.1000594"><ele>192.0</ele><time>2026-05-01T15:18:13.489Z</time></trkpt><trkpt lat="42.2973709" lon="14.0999306"><ele>188.0</ele><time>2026-05-01T15:18:14.49Z</time></trkpt><trkpt lat="42.297455" lon="14.0997905"><ele>184.0</ele><time>2026-05-01T15:18:15.496Z</time></trkpt><trkpt lat="42.2975269" lon="14.0996236"><ele>184.0</ele><time>2026-05-01T15:18:16.486Z</time></trkpt><trkpt lat="42.2975818" lon="14.0994595"><ele>184.0</ele><time>2026-05-01T15:18:17.498Z</time></trkpt><trkpt lat="42.2976335" lon="14.0993005"><ele>184.0</ele><time>2026-05-01T15:18:18.483Z</time></trkpt><trkpt lat="42.2976727" lon="14.0991328"><ele>184.0</ele><time>2026-05-01T15:18:19.487Z</time></trkpt><trkpt lat="42.2976929" lon="14.0989643"><ele>183.0</ele><time>2026-05-01T15:18:20.489Z</time></trkpt><trkpt lat="42.297694" lon="14.0988101"><ele>182.0</ele><time>2026-05-01T15:18:21.484Z</time></trkpt><trkpt lat="42.2976805" lon="14.0986819"><ele>181.0</ele><time>2026-05-01T15:18:22.49Z</time></trkpt><trkpt lat="42.2976459" lon="14.0985687"><ele>180.0</ele><time>2026-05-01T15:18:24.487Z</time></trkpt><trkpt lat="42.2976522" lon="14.0984429"><ele>179.0</ele><time>2026-05-01T15:18:27.495Z</time></trkpt><trkpt lat="42.2976517" lon="14.0982707"><ele>179.16666666666666</ele><time>2026-05-01T15:18:29.489Z</time></trkpt><trkpt lat="42.2976468" lon="14.0981838"><ele>179.33333333333331</ele><time>2026-05-01T15:18:30.496Z</time></trkpt><trkpt lat="42.297648" lon="14.0980101"><ele>179.5</ele><time>2026-05-01T15:18:32.494Z</time></trkpt><trkpt lat="42.2976611" lon="14.097919"><ele>179.66666666666666</ele><time>2026-05-01T15:18:33.483Z</time></trkpt><trkpt lat="42.2976821" lon="14.0978335"><ele>179.83333333333334</ele><time>2026-05-01T15:18:34.485Z</time></trkpt><trkpt lat="42.2977067" lon="14.0977502"><ele>180.0</ele><time>2026-05-01T15:18:35.49Z</time></trkpt><trkpt lat="42.2977659" lon="14.0976379"><ele>180.0</ele><time>2026-05-01T15:18:37.486Z</time></trkpt><trkpt lat="42.29781" lon="14.0977501"><ele>180.0</ele><time>2026-05-01T15:18:40.49Z</time></trkpt><trkpt lat="42.2978043" lon="14.0978357"><ele>180.0</ele><time>2026-05-01T15:18:41.477Z</time></trkpt><trkpt lat="42.2978045" lon="14.0979437"><ele>180.0</ele><time>2026-05-01T15:18:42.481Z</time></trkpt><trkpt lat="42.2978398" lon="14.0980341"><ele>180.0</ele><time>2026-05-01T15:18:43.474Z</time></trkpt><trkpt lat="42.2979001" lon="14.0981166"><ele>180.0</ele><time>2026-05-01T15:18:44.487Z</time></trkpt><trkpt lat="42.2979839" lon="14.0981512"><ele>180.0</ele><time>2026-05-01T15:18:45.49Z</time></trkpt><trkpt lat="42.2980657" lon="14.0981899"><ele>180.0</ele><time>2026-05-01T15:18:46.479Z</time></trkpt><trkpt lat="42.2981359" lon="14.0982273"><ele>180.0</ele><time>2026-05-01T15:18:47.485Z</time></trkpt><trkpt lat="42.2981933" lon="14.0982835"><ele>180.0</ele><time>2026-05-01T15:18:48.476Z</time></trkpt><trkpt lat="42.2982389" lon="14.0983563"><ele>180.0</ele><time>2026-05-01T15:18:49.484Z</time></trkpt><trkpt lat="42.2982899" lon="14.0984131"><ele>180.0</ele><time>2026-05-01T15:18:50.473Z</time></trkpt><trkpt lat="42.2983449" lon="14.0984678"><ele>180.0</ele><time>2026-05-01T15:18:51.486Z</time></trkpt><trkpt lat="42.2984102" lon="14.0985134"><ele>176.0</ele><time>2026-05-01T15:18:52.479Z</time></trkpt><trkpt lat="42.2984848" lon="14.0985608"><ele>172.0</ele><time>2026-05-01T15:18:53.497Z</time></trkpt><trkpt lat="42.2985676" lon="14.0986141"><ele>168.0</ele><time>2026-05-01T15:18:54.487Z</time></trkpt><trkpt lat="42.2986597" lon="14.0986626"><ele>164.0</ele><time>2026-05-01T15:18:55.493Z</time></trkpt><trkpt lat="42.2987549" lon="14.0986841"><ele>160.0</ele><time>2026-05-01T15:18:56.488Z</time></trkpt><trkpt lat="42.2988541" lon="14.0986965"><ele>155.8</ele><time>2026-05-01T15:18:57.484Z</time></trkpt><trkpt lat="42.298956" lon="14.0987119"><ele>151.6</ele><time>2026-05-01T15:18:58.488Z</time></trkpt><trkpt lat="42.2990652" lon="14.0987333"><ele>147.4</ele><time>2026-05-01T15:18:59.486Z</time></trkpt><trkpt lat="42.2991752" lon="14.0987636"><ele>143.2</ele><time>2026-05-01T15:19:00.495Z</time></trkpt><trkpt lat="42.2992944" lon="14.0987914"><ele>139.0</ele><time>2026-05-01T15:19:01.491Z</time></trkpt><trkpt lat="42.2994142" lon="14.0988128"><ele>139.0</ele><time>2026-05-01T15:19:02.49Z</time></trkpt><trkpt lat="42.299536" lon="14.0988229"><ele>139.0</ele><time>2026-05-01T15:19:03.487Z</time></trkpt><trkpt lat="42.2996543" lon="14.0988209"><ele>139.0</ele><time>2026-05-01T15:19:04.496Z</time></trkpt><trkpt lat="42.2997717" lon="14.0988045"><ele>139.0</ele><time>2026-05-01T15:19:05.488Z</time></trkpt><trkpt lat="42.2998853" lon="14.0987795"><ele>135.75</ele><time>2026-05-01T15:19:06.498Z</time></trkpt><trkpt lat="42.3000005" lon="14.0987535"><ele>132.5</ele><time>2026-05-01T15:19:07.484Z</time></trkpt><trkpt lat="42.3001137" lon="14.098719"><ele>129.25</ele><time>2026-05-01T15:19:08.484Z</time></trkpt><trkpt lat="42.30022" lon="14.0986805"><ele>126.0</ele><time>2026-05-01T15:19:09.492Z</time></trkpt><trkpt lat="42.3003247" lon="14.0986186"><ele>126.0</ele><time>2026-05-01T15:19:10.482Z</time></trkpt><trkpt lat="42.3004264" lon="14.0985408"><ele>126.0</ele><time>2026-05-01T15:19:11.483Z</time></trkpt><trkpt lat="42.3005235" lon="14.098453"><ele>126.0</ele><time>2026-05-01T15:19:12.482Z</time></trkpt><trkpt lat="42.3006183" lon="14.0983479"><ele>126.0</ele><time>2026-05-01T15:19:13.498Z</time></trkpt><trkpt lat="42.3007045" lon="14.0982333"><ele>122.25</ele><time>2026-05-01T15:19:14.485Z</time></trkpt><trkpt lat="42.300791" lon="14.0981279"><ele>118.5</ele><time>2026-05-01T15:19:15.496Z</time></trkpt><trkpt lat="42.3008789" lon="14.0980334"><ele>114.75</ele><time>2026-05-01T15:19:16.483Z</time></trkpt><trkpt lat="42.3009796" lon="14.0979508"><ele>111.0</ele><time>2026-05-01T15:19:17.483Z</time></trkpt><trkpt lat="42.3010846" lon="14.0978927"><ele>111.0</ele><time>2026-05-01T15:19:18.485Z</time></trkpt><trkpt lat="42.3011984" lon="14.0978529"><ele>111.0</ele><time>2026-05-01T15:19:19.49Z</time></trkpt><trkpt lat="42.3013102" lon="14.0978288"><ele>111.0</ele><time>2026-05-01T15:19:20.484Z</time></trkpt><trkpt lat="42.3014111" lon="14.097827"><ele>111.0</ele><time>2026-05-01T15:19:21.488Z</time></trkpt><trkpt lat="42.301502" lon="14.0978328"><ele>111.0</ele><time>2026-05-01T15:19:22.494Z</time></trkpt><trkpt lat="42.3015809" lon="14.0978516"><ele>110.0</ele><time>2026-05-01T15:19:23.486Z</time></trkpt><trkpt lat="42.3016882" lon="14.097879"><ele>109.0</ele><time>2026-05-01T15:19:25.486Z</time></trkpt><trkpt lat="42.3017312" lon="14.097787"><ele>108.0</ele><time>2026-05-01T15:19:27.491Z</time></trkpt><trkpt lat="42.3017538" lon="14.0976005"><ele>107.0</ele><time>2026-05-01T15:19:29.481Z</time></trkpt><trkpt lat="42.3017687" lon="14.0974648"><ele>106.0</ele><time>2026-05-01T15:19:30.478Z</time></trkpt><trkpt lat="42.3017946" lon="14.097311"><ele>105.75</ele><time>2026-05-01T15:19:31.491Z</time></trkpt><trkpt lat="42.30182" lon="14.0971388"><ele>105.5</ele><time>2026-05-01T15:19:32.484Z</time></trkpt><trkpt lat="42.3018487" lon="14.0969526"><ele>105.25</ele><time>2026-05-01T15:19:33.489Z</time></trkpt><trkpt lat="42.3018728" lon="14.0967576"><ele>105.0</ele><time>2026-05-01T15:19:34.486Z</time></trkpt><trkpt lat="42.3019075" lon="14.0965333"><ele>106.0</ele><time>2026-05-01T15:19:35.495Z</time></trkpt><trkpt lat="42.3019459" lon="14.0963285"><ele>107.0</ele><time>2026-05-01T15:19:36.483Z</time></trkpt><trkpt lat="42.3019821" lon="14.0961085"><ele>108.0</ele><time>2026-05-01T15:19:37.494Z</time></trkpt><trkpt lat="42.3020149" lon="14.0958945"><ele>107.5</ele><time>2026-05-01T15:19:38.483Z</time></trkpt><trkpt lat="42.3020448" lon="14.0956837"><ele>107.0</ele><time>2026-05-01T15:19:39.487Z</time></trkpt><trkpt lat="42.3020748" lon="14.0954807"><ele>106.5</ele><time>2026-05-01T15:19:40.493Z</time></trkpt><trkpt lat="42.3021134" lon="14.0953049"><ele>106.0</ele><time>2026-05-01T15:19:41.477Z</time></trkpt><trkpt lat="42.3021088" lon="14.0951213"><ele>106.0</ele><time>2026-05-01T15:19:42.497Z</time></trkpt><trkpt lat="42.3021091" lon="14.09494"><ele>106.0</ele><time>2026-05-01T15:19:43.481Z</time></trkpt><trkpt lat="42.3021202" lon="14.0947684"><ele>106.0</ele><time>2026-05-01T15:19:44.479Z</time></trkpt><trkpt lat="42.3021262" lon="14.0946368"><ele>106.0</ele><time>2026-05-01T15:19:45.479Z</time></trkpt><trkpt lat="42.3021023" lon="14.0945014"><ele>106.0</ele><time>2026-05-01T15:19:46.485Z</time></trkpt><trkpt lat="42.3020617" lon="14.094368"><ele>106.0</ele><time>2026-05-01T15:19:47.497Z</time></trkpt><trkpt lat="42.302022" lon="14.0942319"><ele>106.0</ele><time>2026-05-01T15:19:48.479Z</time></trkpt><trkpt lat="42.3019961" lon="14.0940904"><ele>106.0</ele><time>2026-05-01T15:19:49.485Z</time></trkpt><trkpt lat="42.3019658" lon="14.0939694"><ele>106.0</ele><time>2026-05-01T15:19:50.476Z</time></trkpt><trkpt lat="42.3019163" lon="14.0938473"><ele>106.0</ele><time>2026-05-01T15:19:51.491Z</time></trkpt><trkpt lat="42.3018467" lon="14.0937348"><ele>106.0</ele><time>2026-05-01T15:19:52.476Z</time></trkpt><trkpt lat="42.3017617" lon="14.093634"><ele>106.0</ele><time>2026-05-01T15:19:53.49Z</time></trkpt><trkpt lat="42.3016883" lon="14.0935369"><ele>106.0</ele><time>2026-05-01T15:19:54.48Z</time></trkpt><trkpt lat="42.3016624" lon="14.093424"><ele>106.0</ele><time>2026-05-01T15:19:55.481Z</time></trkpt><trkpt lat="42.3016793" lon="14.0933252"><ele>108.6</ele><time>2026-05-01T15:19:56.487Z</time></trkpt><trkpt lat="42.3017291" lon="14.09325"><ele>111.19999999999999</ele><time>2026-05-01T15:19:57.476Z</time></trkpt><trkpt lat="42.301815" lon="14.0932059"><ele>113.80000000000001</ele><time>2026-05-01T15:19:58.477Z</time></trkpt><trkpt lat="42.3019361" lon="14.0931788"><ele>116.4</ele><time>2026-05-01T15:19:59.472Z</time></trkpt><trkpt lat="42.3020727" lon="14.0931366"><ele>119.0</ele><time>2026-05-01T15:20:00.467Z</time></trkpt><trkpt lat="42.3022081" lon="14.0930773"><ele>118.0</ele><time>2026-05-01T15:20:01.474Z</time></trkpt><trkpt lat="42.302342" lon="14.0930238"><ele>117.0</ele><time>2026-05-01T15:20:02.471Z</time></trkpt><trkpt lat="42.3024598" lon="14.0929737"><ele>116.0</ele><time>2026-05-01T15:20:03.484Z</time></trkpt><trkpt lat="42.3025665" lon="14.0929247"><ele>115.0</ele><time>2026-05-01T15:20:04.473Z</time></trkpt><trkpt lat="42.3026671" lon="14.0928762"><ele>115.0</ele><time>2026-05-01T15:20:05.482Z</time></trkpt><trkpt lat="42.3027611" lon="14.092828"><ele>115.0</ele><time>2026-05-01T15:20:06.483Z</time></trkpt><trkpt lat="42.3028475" lon="14.0927778"><ele>115.0</ele><time>2026-05-01T15:20:07.489Z</time></trkpt><trkpt lat="42.3029293" lon="14.0927103"><ele>115.0</ele><time>2026-05-01T15:20:08.483Z</time></trkpt><trkpt lat="42.303012" lon="14.0926164"><ele>115.0</ele><time>2026-05-01T15:20:09.489Z</time></trkpt><trkpt lat="42.3030939" lon="14.0925001"><ele>114.0</ele><time>2026-05-01T15:20:10.489Z</time></trkpt><trkpt lat="42.3031782" lon="14.0923728"><ele>113.0</ele><time>2026-05-01T15:20:11.493Z</time></trkpt><trkpt lat="42.303268" lon="14.0922432"><ele>112.0</ele><time>2026-05-01T15:20:12.492Z</time></trkpt><trkpt lat="42.3033579" lon="14.0921158"><ele>111.0</ele><time>2026-05-01T15:20:13.494Z</time></trkpt><trkpt lat="42.3034486" lon="14.0920002"><ele>111.0</ele><time>2026-05-01T15:20:14.497Z</time></trkpt><trkpt lat="42.3035402" lon="14.0919051"><ele>111.0</ele><time>2026-05-01T15:20:15.487Z</time></trkpt><trkpt lat="42.3036359" lon="14.0918274"><ele>111.0</ele><time>2026-05-01T15:20:16.49Z</time></trkpt><trkpt lat="42.3037384" lon="14.0917637"><ele>111.0</ele><time>2026-05-01T15:20:17.478Z</time></trkpt><trkpt lat="42.3038483" lon="14.0917141"><ele>111.25</ele><time>2026-05-01T15:20:18.49Z</time></trkpt><trkpt lat="42.3039596" lon="14.0916599"><ele>111.5</ele><time>2026-05-01T15:20:19.487Z</time></trkpt><trkpt lat="42.3040717" lon="14.0915979"><ele>111.75</ele><time>2026-05-01T15:20:20.491Z</time></trkpt><trkpt lat="42.3041919" lon="14.0915362"><ele>112.0</ele><time>2026-05-01T15:20:21.481Z</time></trkpt><trkpt lat="42.3043115" lon="14.0914699"><ele>112.0</ele><time>2026-05-01T15:20:22.483Z</time></trkpt><trkpt lat="42.3044417" lon="14.0914016"><ele>112.0</ele><time>2026-05-01T15:20:23.482Z</time></trkpt><trkpt lat="42.3045699" lon="14.0913344"><ele>112.0</ele><time>2026-05-01T15:20:24.481Z</time></trkpt><trkpt lat="42.3046939" lon="14.0912637"><ele>112.0</ele><time>2026-05-01T15:20:25.484Z</time></trkpt><trkpt lat="42.3048079" lon="14.0911969"><ele>109.0</ele><time>2026-05-01T15:20:26.488Z</time></trkpt><trkpt lat="42.304919" lon="14.0911303"><ele>106.0</ele><time>2026-05-01T15:20:27.485Z</time></trkpt><trkpt lat="42.3050281" lon="14.0910691"><ele>103.0</ele><time>2026-05-01T15:20:28.497Z</time></trkpt><trkpt lat="42.3051501" lon="14.090978"><ele>100.0</ele><time>2026-05-01T15:20:29.484Z</time></trkpt><trkpt lat="42.305267" lon="14.09091"><ele>100.0</ele><time>2026-05-01T15:20:30.49Z</time></trkpt><trkpt lat="42.3053739" lon="14.0908318"><ele>100.0</ele><time>2026-05-01T15:20:31.49Z</time></trkpt><trkpt lat="42.3054877" lon="14.0907629"><ele>100.0</ele><time>2026-05-01T15:20:32.487Z</time></trkpt><trkpt lat="42.3056063" lon="14.0906931"><ele>100.0</ele><time>2026-05-01T15:20:33.486Z</time></trkpt><trkpt lat="42.3057281" lon="14.0906219"><ele>99.0</ele><time>2026-05-01T15:20:34.494Z</time></trkpt><trkpt lat="42.3058382" lon="14.0905438"><ele>98.0</ele><time>2026-05-01T15:20:35.497Z</time></trkpt><trkpt lat="42.3059463" lon="14.0904653"><ele>97.0</ele><time>2026-05-01T15:20:36.497Z</time></trkpt><trkpt lat="42.3060619" lon="14.0903737"><ele>96.0</ele><time>2026-05-01T15:20:37.486Z</time></trkpt><trkpt lat="42.3061707" lon="14.0902899"><ele>96.0</ele><time>2026-05-01T15:20:38.483Z</time></trkpt><trkpt lat="42.3062668" lon="14.090202"><ele>96.0</ele><time>2026-05-01T15:20:39.494Z</time></trkpt><trkpt lat="42.3063634" lon="14.090094"><ele>96.0</ele><time>2026-05-01T15:20:40.485Z</time></trkpt><trkpt lat="42.3064513" lon="14.0899654"><ele>96.0</ele><time>2026-05-01T15:20:41.485Z</time></trkpt><trkpt lat="42.3065193" lon="14.0898216"><ele>95.4</ele><time>2026-05-01T15:20:42.485Z</time></trkpt><trkpt lat="42.3065678" lon="14.0896741"><ele>94.8</ele><time>2026-05-01T15:20:43.487Z</time></trkpt><trkpt lat="42.3066118" lon="14.0895516"><ele>94.2</ele><time>2026-05-01T15:20:44.486Z</time></trkpt><trkpt lat="42.3066687" lon="14.0894428"><ele>93.60000000000001</ele><time>2026-05-01T15:20:45.488Z</time></trkpt><trkpt lat="42.3067279" lon="14.0893695"><ele>93.0</ele><time>2026-05-01T15:20:46.486Z</time></trkpt><trkpt lat="42.3067977" lon="14.0893401"><ele>93.0</ele><time>2026-05-01T15:20:47.481Z</time></trkpt><trkpt lat="42.306877" lon="14.0893389"><ele>93.0</ele><time>2026-05-01T15:20:48.495Z</time></trkpt><trkpt lat="42.3069747" lon="14.0893979"><ele>93.0</ele><time>2026-05-01T15:20:49.484Z</time></trkpt><trkpt lat="42.3070879" lon="14.0894899"><ele>93.0</ele><time>2026-05-01T15:20:50.49Z</time></trkpt><trkpt lat="42.3071916" lon="14.0895695"><ele>93.0</ele><time>2026-05-01T15:20:51.49Z</time></trkpt><trkpt lat="42.3072855" lon="14.0896235"><ele>92.80000000000001</ele><time>2026-05-01T15:20:52.49Z</time></trkpt><trkpt lat="42.3073655" lon="14.0896623"><ele>92.6</ele><time>2026-05-01T15:20:53.49Z</time></trkpt><trkpt lat="42.3074353" lon="14.0896773"><ele>92.4</ele><time>2026-05-01T15:20:54.483Z</time></trkpt><trkpt lat="42.3075521" lon="14.0896818"><ele>92.19999999999999</ele><time>2026-05-01T15:20:56.484Z</time></trkpt><trkpt lat="42.3076814" lon="14.0897318"><ele>92.0</ele><time>2026-05-01T15:20:58.489Z</time></trkpt><trkpt lat="42.3077577" lon="14.0897613"><ele>92.0</ele><time>2026-05-01T15:20:59.488Z</time></trkpt><trkpt lat="42.3078389" lon="14.0897913"><ele>92.0</ele><time>2026-05-01T15:21:00.488Z</time></trkpt><trkpt lat="42.307933" lon="14.0898245"><ele>92.0</ele><time>2026-05-01T15:21:01.494Z</time></trkpt><trkpt lat="42.3080375" lon="14.0898604"><ele>92.0</ele><time>2026-05-01T15:21:02.484Z</time></trkpt><trkpt lat="42.3081435" lon="14.0898945"><ele>92.0</ele><time>2026-05-01T15:21:03.497Z</time></trkpt><trkpt lat="42.3082466" lon="14.0899235"><ele>90.0</ele><time>2026-05-01T15:21:04.484Z</time></trkpt><trkpt lat="42.3083444" lon="14.0899528"><ele>88.0</ele><time>2026-05-01T15:21:05.502Z</time></trkpt><trkpt lat="42.3084391" lon="14.089979"><ele>86.0</ele><time>2026-05-01T15:21:06.486Z</time></trkpt><trkpt lat="42.3085301" lon="14.0900079"><ele>84.0</ele><time>2026-05-01T15:21:07.485Z</time></trkpt><trkpt lat="42.3086272" lon="14.0900386"><ele>82.0</ele><time>2026-05-01T15:21:08.486Z</time></trkpt><trkpt lat="42.3087245" lon="14.0900673"><ele>82.0</ele><time>2026-05-01T15:21:09.49Z</time></trkpt><trkpt lat="42.3088121" lon="14.0900971"><ele>82.0</ele><time>2026-05-01T15:21:10.484Z</time></trkpt><trkpt lat="42.3088859" lon="14.0901284"><ele>82.0</ele><time>2026-05-01T15:21:11.487Z</time></trkpt><trkpt lat="42.3089762" lon="14.0901681"><ele>82.0</ele><time>2026-05-01T15:21:13.484Z</time></trkpt><trkpt lat="42.3090457" lon="14.0901973"><ele>82.0</ele><time>2026-05-01T15:21:18.496Z</time></trkpt><trkpt lat="42.3091197" lon="14.0902241"><ele>82.0</ele><time>2026-05-01T15:21:21.487Z</time></trkpt><trkpt lat="42.309179" lon="14.0903031"><ele>81.33333333333333</ele><time>2026-05-01T15:21:23.488Z</time></trkpt><trkpt lat="42.3092128" lon="14.0903932"><ele>80.66666666666666</ele><time>2026-05-01T15:21:25.482Z</time></trkpt><trkpt lat="42.3092375" lon="14.09048"><ele>80.0</ele><time>2026-05-01T15:21:27.484Z</time></trkpt><trkpt lat="42.3092521" lon="14.0905701"><ele>79.33333333333333</ele><time>2026-05-01T15:21:29.483Z</time></trkpt><trkpt lat="42.3092721" lon="14.0907162"><ele>78.66666666666667</ele><time>2026-05-01T15:21:31.485Z</time></trkpt><trkpt lat="42.3093094" lon="14.0908678"><ele>78.0</ele><time>2026-05-01T15:21:33.482Z</time></trkpt><trkpt lat="42.3093462" lon="14.0909407"><ele>77.66666666666667</ele><time>2026-05-01T15:21:34.493Z</time></trkpt><trkpt lat="42.3093992" lon="14.0909967"><ele>77.33333333333333</ele><time>2026-05-01T15:21:35.487Z</time></trkpt><trkpt lat="42.30946" lon="14.091044"><ele>77.0</ele><time>2026-05-01T15:21:36.499Z</time></trkpt><trkpt lat="42.3095179" lon="14.0910916"><ele>76.66666666666666</ele><time>2026-05-01T15:21:37.483Z</time></trkpt><trkpt lat="42.3095738" lon="14.091147"><ele>76.33333333333333</ele><time>2026-05-01T15:21:38.488Z</time></trkpt><trkpt lat="42.3096595" lon="14.0912452"><ele>76.0</ele><time>2026-05-01T15:21:40.487Z</time></trkpt><trkpt lat="42.3097029" lon="14.09131"><ele>77.0</ele><time>2026-05-01T15:21:41.488Z</time></trkpt><trkpt lat="42.3097845" lon="14.0914117"><ele>78.0</ele><time>2026-05-01T15:21:43.49Z</time></trkpt><trkpt lat="42.3098808" lon="14.0915272"><ele>79.0</ele><time>2026-05-01T15:21:45.487Z</time></trkpt><trkpt lat="42.3099289" lon="14.0916042"><ele>80.0</ele><time>2026-05-01T15:21:46.486Z</time></trkpt><trkpt lat="42.3099735" lon="14.0916862"><ele>81.0</ele><time>2026-05-01T15:21:47.49Z</time></trkpt><trkpt lat="42.3100119" lon="14.0917672"><ele>81.83333333333333</ele><time>2026-05-01T15:21:48.5Z</time></trkpt><trkpt lat="42.3100523" lon="14.0918506"><ele>82.66666666666667</ele><time>2026-05-01T15:21:49.49Z</time></trkpt><trkpt lat="42.3100972" lon="14.0919361"><ele>83.5</ele><time>2026-05-01T15:21:50.495Z</time></trkpt><trkpt lat="42.3101543" lon="14.0920269"><ele>84.33333333333334</ele><time>2026-05-01T15:21:51.489Z</time></trkpt><trkpt lat="42.310211" lon="14.0921081"><ele>85.16666666666667</ele><time>2026-05-01T15:21:52.498Z</time></trkpt><trkpt lat="42.3102668" lon="14.0921808"><ele>86.0</ele><time>2026-05-01T15:21:53.488Z</time></trkpt><trkpt lat="42.3103252" lon="14.0922575"><ele>86.0</ele><time>2026-05-01T15:21:54.499Z</time></trkpt><trkpt lat="42.3103789" lon="14.0923292"><ele>86.0</ele><time>2026-05-01T15:21:55.488Z</time></trkpt><trkpt lat="42.3104186" lon="14.0924032"><ele>86.0</ele><time>2026-05-01T15:21:56.49Z</time></trkpt><trkpt lat="42.3104558" lon="14.0924798"><ele>86.0</ele><time>2026-05-01T15:21:57.493Z</time></trkpt><trkpt lat="42.3105017" lon="14.0925637"><ele>86.0</ele><time>2026-05-01T15:21:58.492Z</time></trkpt><trkpt lat="42.3105517" lon="14.0926569"><ele>86.0</ele><time>2026-05-01T15:21:59.488Z</time></trkpt><trkpt lat="42.3106109" lon="14.0927512"><ele>87.19999999999999</ele><time>2026-05-01T15:22:00.491Z</time></trkpt><trkpt lat="42.3106746" lon="14.0928484"><ele>88.39999999999999</ele><time>2026-05-01T15:22:01.495Z</time></trkpt><trkpt lat="42.3107421" lon="14.0929514"><ele>89.6</ele><time>2026-05-01T15:22:02.487Z</time></trkpt><trkpt lat="42.3108051" lon="14.0930529"><ele>90.8</ele><time>2026-05-01T15:22:03.496Z</time></trkpt><trkpt lat="42.3108657" lon="14.0931437"><ele>92.0</ele><time>2026-05-01T15:22:04.485Z</time></trkpt><trkpt lat="42.3109241" lon="14.0932302"><ele>92.71428571428572</ele><time>2026-05-01T15:22:05.486Z</time></trkpt><trkpt lat="42.3109763" lon="14.0933094"><ele>93.42857142857142</ele><time>2026-05-01T15:22:06.496Z</time></trkpt><trkpt lat="42.3110268" lon="14.0933794"><ele>94.14285714285714</ele><time>2026-05-01T15:22:07.492Z</time></trkpt><trkpt lat="42.3110795" lon="14.0934476"><ele>94.85714285714286</ele><time>2026-05-01T15:22:08.49Z</time></trkpt><trkpt lat="42.3111282" lon="14.0935137"><ele>95.57142857142858</ele><time>2026-05-01T15:22:09.486Z</time></trkpt><trkpt lat="42.3111732" lon="14.0935905"><ele>96.28571428571428</ele><time>2026-05-01T15:22:10.497Z</time></trkpt><trkpt lat="42.3112148" lon="14.0936706"><ele>97.0</ele><time>2026-05-01T15:22:11.489Z</time></trkpt><trkpt lat="42.3112567" lon="14.0937506"><ele>97.00000000000001</ele><time>2026-05-01T15:22:12.497Z</time></trkpt><trkpt lat="42.3113028" lon="14.093825"><ele>97.0</ele><time>2026-05-01T15:22:13.489Z</time></trkpt><trkpt lat="42.311377" lon="14.0939319"><ele>97.0</ele><time>2026-05-01T15:22:15.488Z</time></trkpt><trkpt lat="42.3114344" lon="14.0939674"><ele>97.0</ele><time>2026-05-01T15:22:17.489Z</time></trkpt><trkpt lat="42.3114842" lon="14.0939006"><ele>97.00000000000001</ele><time>2026-05-01T15:22:19.498Z</time></trkpt><trkpt lat="42.3115301" lon="14.0937602"><ele>97.0</ele><time>2026-05-01T15:22:21.499Z</time></trkpt><trkpt lat="42.3115619" lon="14.0936631"><ele>96.83333333333334</ele><time>2026-05-01T15:22:22.488Z</time></trkpt><trkpt lat="42.3115994" lon="14.0935662"><ele>96.66666666666667</ele><time>2026-05-01T15:22:23.495Z</time></trkpt><trkpt lat="42.3116446" lon="14.0934625"><ele>96.5</ele><time>2026-05-01T15:22:24.49Z</time></trkpt><trkpt lat="42.3116933" lon="14.0933576"><ele>96.33333333333334</ele><time>2026-05-01T15:22:25.501Z</time></trkpt><trkpt lat="42.311745" lon="14.0932556"><ele>96.16666666666667</ele><time>2026-05-01T15:22:26.489Z</time></trkpt><trkpt lat="42.3117975" lon="14.0931659"><ele>96.0</ele><time>2026-05-01T15:22:27.487Z</time></trkpt><trkpt lat="42.311854" lon="14.0930792"><ele>95.19999999999999</ele><time>2026-05-01T15:22:28.5Z</time></trkpt><trkpt lat="42.3119099" lon="14.0929808"><ele>94.39999999999999</ele><time>2026-05-01T15:22:29.488Z</time></trkpt><trkpt lat="42.3119697" lon="14.0928732"><ele>93.6</ele><time>2026-05-01T15:22:30.495Z</time></trkpt><trkpt lat="42.3120297" lon="14.0927612"><ele>92.8</ele><time>2026-05-01T15:22:31.491Z</time></trkpt><trkpt lat="42.3120888" lon="14.0926546"><ele>92.0</ele><time>2026-05-01T15:22:32.495Z</time></trkpt><trkpt lat="42.312148" lon="14.0925412"><ele>92.0</ele><time>2026-05-01T15:22:33.486Z</time></trkpt><trkpt lat="42.3122041" lon="14.0924251"><ele>92.0</ele><time>2026-05-01T15:22:34.497Z</time></trkpt><trkpt lat="42.3122559" lon="14.0923233"><ele>92.0</ele><time>2026-05-01T15:22:35.487Z</time></trkpt><trkpt lat="42.3123077" lon="14.0922331"><ele>92.0</ele><time>2026-05-01T15:22:36.491Z</time></trkpt><trkpt lat="42.3123634" lon="14.0921463"><ele>92.0</ele><time>2026-05-01T15:22:37.487Z</time></trkpt><trkpt lat="42.3124211" lon="14.0920681"><ele>92.0</ele><time>2026-05-01T15:22:38.497Z</time></trkpt><trkpt lat="42.3124753" lon="14.0920054"><ele>92.33333333333334</ele><time>2026-05-01T15:22:39.485Z</time></trkpt><trkpt lat="42.312532" lon="14.0919479"><ele>92.66666666666667</ele><time>2026-05-01T15:22:40.496Z</time></trkpt><trkpt lat="42.312605" lon="14.0918938"><ele>93.0</ele><time>2026-05-01T15:22:41.486Z</time></trkpt><trkpt lat="42.31268" lon="14.0918424"><ele>93.33333333333333</ele><time>2026-05-01T15:22:42.494Z</time></trkpt><trkpt lat="42.3127586" lon="14.091787"><ele>93.66666666666666</ele><time>2026-05-01T15:22:43.487Z</time></trkpt><trkpt lat="42.3128318" lon="14.0917276"><ele>94.0</ele><time>2026-05-01T15:22:44.497Z</time></trkpt><trkpt lat="42.3128966" lon="14.0916715"><ele>94.0</ele><time>2026-05-01T15:22:45.487Z</time></trkpt><trkpt lat="42.3129595" lon="14.091609"><ele>94.0</ele><time>2026-05-01T15:22:46.497Z</time></trkpt><trkpt lat="42.3130097" lon="14.0915399"><ele>94.0</ele><time>2026-05-01T15:22:47.49Z</time></trkpt><trkpt lat="42.3130501" lon="14.0914605"><ele>94.0</ele><time>2026-05-01T15:22:48.498Z</time></trkpt><trkpt lat="42.3130767" lon="14.0913788"><ele>94.0</ele><time>2026-05-01T15:22:49.49Z</time></trkpt><trkpt lat="42.3130973" lon="14.0912781"><ele>94.0</ele><time>2026-05-01T15:22:50.495Z</time></trkpt><trkpt lat="42.3131137" lon="14.0911695"><ele>94.0</ele><time>2026-05-01T15:22:51.488Z</time></trkpt><trkpt lat="42.3131278" lon="14.0910586"><ele>94.0</ele><time>2026-05-01T15:22:52.501Z</time></trkpt><trkpt lat="42.3131426" lon="14.0909457"><ele>94.0</ele><time>2026-05-01T15:22:53.49Z</time></trkpt><trkpt lat="42.3131647" lon="14.090832"><ele>94.0</ele><time>2026-05-01T15:22:54.501Z</time></trkpt><trkpt lat="42.3131924" lon="14.0907099"><ele>94.0</ele><time>2026-05-01T15:22:55.489Z</time></trkpt><trkpt lat="42.3132162" lon="14.0905818"><ele>94.0</ele><time>2026-05-01T15:22:56.499Z</time></trkpt><trkpt lat="42.3132354" lon="14.0904468"><ele>94.0</ele><time>2026-05-01T15:22:57.488Z</time></trkpt><trkpt lat="42.3132517" lon="14.0903173"><ele>94.0</ele><time>2026-05-01T15:22:58.498Z</time></trkpt><trkpt lat="42.3132627" lon="14.0901846"><ele>94.0</ele><time>2026-05-01T15:22:59.485Z</time></trkpt><trkpt lat="42.3132761" lon="14.0900525"><ele>94.0</ele><time>2026-05-01T15:23:00.489Z</time></trkpt><trkpt lat="42.313293" lon="14.0899159"><ele>94.0</ele><time>2026-05-01T15:23:01.499Z</time></trkpt><trkpt lat="42.3133184" lon="14.0897722"><ele>93.6</ele><time>2026-05-01T15:23:02.489Z</time></trkpt><trkpt lat="42.3133472" lon="14.0896239"><ele>93.2</ele><time>2026-05-01T15:23:03.497Z</time></trkpt><trkpt lat="42.3133746" lon="14.0894883"><ele>92.8</ele><time>2026-05-01T15:23:04.487Z</time></trkpt><trkpt lat="42.3134095" lon="14.0893502"><ele>92.39999999999999</ele><time>2026-05-01T15:23:05.498Z</time></trkpt><trkpt lat="42.3134544" lon="14.0892071"><ele>92.0</ele><time>2026-05-01T15:23:06.488Z</time></trkpt><trkpt lat="42.3135017" lon="14.0890671"><ele>91.5</ele><time>2026-05-01T15:23:07.498Z</time></trkpt><trkpt lat="42.3135523" lon="14.0889252"><ele>91.0</ele><time>2026-05-01T15:23:08.489Z</time></trkpt><trkpt lat="42.3136033" lon="14.0887834"><ele>90.5</ele><time>2026-05-01T15:23:09.504Z</time></trkpt><trkpt lat="42.3136572" lon="14.0886413"><ele>90.0</ele><time>2026-05-01T15:23:10.493Z</time></trkpt><trkpt lat="42.313715" lon="14.0885028"><ele>90.0</ele><time>2026-05-01T15:23:11.496Z</time></trkpt><trkpt lat="42.3137835" lon="14.088373"><ele>90.0</ele><time>2026-05-01T15:23:12.488Z</time></trkpt><trkpt lat="42.3138668" lon="14.0882485"><ele>90.0</ele><time>2026-05-01T15:23:13.495Z</time></trkpt><trkpt lat="42.3139583" lon="14.0881224"><ele>90.0</ele><time>2026-05-01T15:23:14.492Z</time></trkpt><trkpt lat="42.314053" lon="14.0879993"><ele>88.5</ele><time>2026-05-01T15:23:15.49Z</time></trkpt><trkpt lat="42.3141485" lon="14.0878722"><ele>87.0</ele><time>2026-05-01T15:23:16.501Z</time></trkpt><trkpt lat="42.3142387" lon="14.0877471"><ele>85.5</ele><time>2026-05-01T15:23:17.492Z</time></trkpt><trkpt lat="42.3143299" lon="14.0876319"><ele>84.0</ele><time>2026-05-01T15:23:18.501Z</time></trkpt><trkpt lat="42.314421" lon="14.0875185"><ele>83.5</ele><time>2026-05-01T15:23:19.493Z</time></trkpt><trkpt lat="42.3145159" lon="14.0874015"><ele>83.0</ele><time>2026-05-01T15:23:20.505Z</time></trkpt><trkpt lat="42.3146114" lon="14.0872872"><ele>82.5</ele><time>2026-05-01T15:23:21.495Z</time></trkpt><trkpt lat="42.3147017" lon="14.0871784"><ele>82.0</ele><time>2026-05-01T15:23:22.496Z</time></trkpt><trkpt lat="42.3147884" lon="14.0870786"><ele>81.39999999999999</ele><time>2026-05-01T15:23:23.501Z</time></trkpt><trkpt lat="42.3148823" lon="14.0869918"><ele>80.8</ele><time>2026-05-01T15:23:24.493Z</time></trkpt><trkpt lat="42.3149754" lon="14.0869141"><ele>80.2</ele><time>2026-05-01T15:23:25.504Z</time></trkpt><trkpt lat="42.3150627" lon="14.0868493"><ele>79.6</ele><time>2026-05-01T15:23:26.494Z</time></trkpt><trkpt lat="42.3151429" lon="14.0867983"><ele>79.0</ele><time>2026-05-01T15:23:27.499Z</time></trkpt><trkpt lat="42.3152233" lon="14.0867603"><ele>79.0</ele><time>2026-05-01T15:23:28.494Z</time></trkpt><trkpt lat="42.3153026" lon="14.0867359"><ele>79.0</ele><time>2026-05-01T15:23:29.5Z</time></trkpt><trkpt lat="42.3153942" lon="14.0867223"><ele>79.0</ele><time>2026-05-01T15:23:30.486Z</time></trkpt><trkpt lat="42.3154934" lon="14.0867326"><ele>79.0</ele><time>2026-05-01T15:23:31.491Z</time></trkpt><trkpt lat="42.3155929" lon="14.0867569"><ele>79.0</ele><time>2026-05-01T15:23:32.489Z</time></trkpt><trkpt lat="42.3157033" lon="14.0867901"><ele>79.25</ele><time>2026-05-01T15:23:33.5Z</time></trkpt><trkpt lat="42.3158212" lon="14.0868195"><ele>79.5</ele><time>2026-05-01T15:23:34.488Z</time></trkpt><trkpt lat="42.3159427" lon="14.0868417"><ele>79.75</ele><time>2026-05-01T15:23:35.495Z</time></trkpt><trkpt lat="42.3160705" lon="14.0868536"><ele>80.0</ele><time>2026-05-01T15:23:36.485Z</time></trkpt><trkpt lat="42.3161956" lon="14.086868"><ele>80.0</ele><time>2026-05-01T15:23:37.484Z</time></trkpt><trkpt lat="42.3163158" lon="14.0868951"><ele>80.0</ele><time>2026-05-01T15:23:38.498Z</time></trkpt><trkpt lat="42.316431" lon="14.0869332"><ele>80.0</ele><time>2026-05-01T15:23:39.493Z</time></trkpt><trkpt lat="42.3165411" lon="14.0869862"><ele>80.0</ele><time>2026-05-01T15:23:40.501Z</time></trkpt><trkpt lat="42.3166453" lon="14.0870542"><ele>79.4</ele><time>2026-05-01T15:23:41.492Z</time></trkpt><trkpt lat="42.3167481" lon="14.0871303"><ele>78.8</ele><time>2026-05-01T15:23:42.492Z</time></trkpt><trkpt lat="42.3168482" lon="14.0871981"><ele>78.2</ele><time>2026-05-01T15:23:43.493Z</time></trkpt><trkpt lat="42.3169489" lon="14.0872584"><ele>77.6</ele><time>2026-05-01T15:23:44.492Z</time></trkpt><trkpt lat="42.3170492" lon="14.0873145"><ele>77.0</ele><time>2026-05-01T15:23:45.49Z</time></trkpt><trkpt lat="42.3171463" lon="14.0873697"><ele>75.0</ele><time>2026-05-01T15:23:46.492Z</time></trkpt><trkpt lat="42.3172418" lon="14.0874233"><ele>73.0</ele><time>2026-05-01T15:23:47.503Z</time></trkpt><trkpt lat="42.3173401" lon="14.0874788"><ele>71.0</ele><time>2026-05-01T15:23:48.491Z</time></trkpt><trkpt lat="42.3174348" lon="14.0875344"><ele>69.0</ele><time>2026-05-01T15:23:49.505Z</time></trkpt><trkpt lat="42.3175211" lon="14.0875912"><ele>67.0</ele><time>2026-05-01T15:23:50.493Z</time></trkpt><trkpt lat="42.3176016" lon="14.0876531"><ele>67.0</ele><time>2026-05-01T15:23:51.506Z</time></trkpt><trkpt lat="42.3176822" lon="14.0877198"><ele>67.0</ele><time>2026-05-01T15:23:52.497Z</time></trkpt><trkpt lat="42.3177603" lon="14.0877973"><ele>67.0</ele><time>2026-05-01T15:23:53.494Z</time></trkpt><trkpt lat="42.3178293" lon="14.087876"><ele>67.0</ele><time>2026-05-01T15:23:54.494Z</time></trkpt><trkpt lat="42.317897" lon="14.0879551"><ele>67.0</ele><time>2026-05-01T15:23:55.493Z</time></trkpt><trkpt lat="42.3179601" lon="14.0880411"><ele>67.0</ele><time>2026-05-01T15:23:56.505Z</time></trkpt><trkpt lat="42.3180262" lon="14.0881383"><ele>67.0</ele><time>2026-05-01T15:23:57.491Z</time></trkpt><trkpt lat="42.3180951" lon="14.0882389"><ele>67.0</ele><time>2026-05-01T15:23:58.505Z</time></trkpt><trkpt lat="42.3181621" lon="14.0883267"><ele>67.0</ele><time>2026-05-01T15:23:59.487Z</time></trkpt><trkpt lat="42.3182375" lon="14.0883902"><ele>67.0</ele><time>2026-05-01T15:24:00.487Z</time></trkpt><trkpt lat="42.3183193" lon="14.0884164"><ele>66.4</ele><time>2026-05-01T15:24:01.49Z</time></trkpt><trkpt lat="42.3184088" lon="14.0884233"><ele>65.80000000000001</ele><time>2026-05-01T15:24:02.489Z</time></trkpt><trkpt lat="42.318504" lon="14.0884245"><ele>65.2</ele><time>2026-05-01T15:24:03.49Z</time></trkpt><trkpt lat="42.318604" lon="14.0884348"><ele>64.60000000000001</ele><time>2026-05-01T15:24:04.499Z</time></trkpt><trkpt lat="42.3187112" lon="14.0884576"><ele>64.0</ele><time>2026-05-01T15:24:05.488Z</time></trkpt><trkpt lat="42.3188187" lon="14.0885024"><ele>63.6</ele><time>2026-05-01T15:24:06.499Z</time></trkpt><trkpt lat="42.3189358" lon="14.0885479"><ele>63.2</ele><time>2026-05-01T15:24:07.489Z</time></trkpt><trkpt lat="42.3190463" lon="14.08859"><ele>62.800000000000004</ele><time>2026-05-01T15:24:08.495Z</time></trkpt><trkpt lat="42.3191462" lon="14.0886231"><ele>62.400000000000006</ele><time>2026-05-01T15:24:09.493Z</time></trkpt><trkpt lat="42.3192405" lon="14.0886493"><ele>62.0</ele><time>2026-05-01T15:24:10.5Z</time></trkpt><trkpt lat="42.3193184" lon="14.0886616"><ele>62.0</ele><time>2026-05-01T15:24:11.494Z</time></trkpt><trkpt lat="42.3193898" lon="14.0886804"><ele>62.0</ele><time>2026-05-01T15:24:12.492Z</time></trkpt><trkpt lat="42.3194598" lon="14.0887104"><ele>62.0</ele><time>2026-05-01T15:24:13.492Z</time></trkpt><trkpt lat="42.3195633" lon="14.0887303"><ele>62.0</ele><time>2026-05-01T15:24:15.489Z</time></trkpt><trkpt lat="42.3196373" lon="14.0885882"><ele>62.0</ele><time>2026-05-01T15:24:17.497Z</time></trkpt><trkpt lat="42.319691" lon="14.0884749"><ele>62.0</ele><time>2026-05-01T15:24:18.482Z</time></trkpt><trkpt lat="42.319742" lon="14.0883548"><ele>62.0</ele><time>2026-05-01T15:24:19.484Z</time></trkpt><trkpt lat="42.3198048" lon="14.0882344"><ele>62.0</ele><time>2026-05-01T15:24:20.479Z</time></trkpt><trkpt lat="42.3198655" lon="14.0881103"><ele>62.0</ele><time>2026-05-01T15:24:21.492Z</time></trkpt><trkpt lat="42.3199199" lon="14.0879807"><ele>62.0</ele><time>2026-05-01T15:24:22.478Z</time></trkpt><trkpt lat="42.3199825" lon="14.0878477"><ele>61.8</ele><time>2026-05-01T15:24:23.487Z</time></trkpt><trkpt lat="42.3200434" lon="14.0877145"><ele>61.6</ele><time>2026-05-01T15:24:24.482Z</time></trkpt><trkpt lat="42.3201031" lon="14.0875922"><ele>61.39999999999999</ele><time>2026-05-01T15:24:25.489Z</time></trkpt><trkpt lat="42.3201543" lon="14.0874899"><ele>61.199999999999996</ele><time>2026-05-01T15:24:26.479Z</time></trkpt><trkpt lat="42.3202124" lon="14.0874198"><ele>61.0</ele><time>2026-05-01T15:24:27.484Z</time></trkpt><trkpt lat="42.3202609" lon="14.0873636"><ele>61.0</ele><time>2026-05-01T15:24:28.482Z</time></trkpt><trkpt lat="42.3203521" lon="14.0873217"><ele>60.99999999999999</ele><time>2026-05-01T15:24:30.489Z</time></trkpt><trkpt lat="42.3204502" lon="14.0874055"><ele>60.99999999999999</ele><time>2026-05-01T15:24:41.481Z</time></trkpt><trkpt lat="42.3204983" lon="14.0875187"><ele>61.0</ele><time>2026-05-01T15:24:42.489Z</time></trkpt><trkpt lat="42.3205465" lon="14.087632"><ele>61.0</ele><time>2026-05-01T15:24:43.484Z</time></trkpt><trkpt lat="42.3205977" lon="14.0877526"><ele>60.83333333333333</ele><time>2026-05-01T15:24:44.487Z</time></trkpt><trkpt lat="42.3206463" lon="14.0878701"><ele>60.666666666666664</ele><time>2026-05-01T15:24:45.481Z</time></trkpt><trkpt lat="42.3206891" lon="14.0879802"><ele>60.5</ele><time>2026-05-01T15:24:46.488Z</time></trkpt><trkpt lat="42.3207297" lon="14.088089"><ele>60.33333333333333</ele><time>2026-05-01T15:24:47.489Z</time></trkpt><trkpt lat="42.32077" lon="14.0881945"><ele>60.166666666666664</ele><time>2026-05-01T15:24:48.482Z</time></trkpt><trkpt lat="42.3208058" lon="14.0882907"><ele>60.0</ele><time>2026-05-01T15:24:49.483Z</time></trkpt><trkpt lat="42.3208279" lon="14.0883837"><ele>60.0</ele><time>2026-05-01T15:24:50.476Z</time></trkpt><trkpt lat="42.3208381" lon="14.0884697"><ele>60.0</ele><time>2026-05-01T15:24:51.488Z</time></trkpt><trkpt lat="42.3208593" lon="14.0885901"><ele>60.0</ele><time>2026-05-01T15:24:53.493Z</time></trkpt><trkpt lat="42.3208815" lon="14.0886991"><ele>60.0</ele><time>2026-05-01T15:24:56.488Z</time></trkpt><trkpt lat="42.3209191" lon="14.0887803"><ele>60.0</ele><time>2026-05-01T15:24:59.487Z</time></trkpt><trkpt lat="42.3209886" lon="14.0888612"><ele>60.0</ele><time>2026-05-01T15:30:59.494Z</time></trkpt><trkpt lat="42.3210172" lon="14.0889453"><ele>60.0</ele><time>2026-05-01T15:31:06.486Z</time></trkpt><trkpt lat="42.3210729" lon="14.0889991"><ele>60.0</ele><time>2026-05-01T15:31:13.484Z</time></trkpt><trkpt lat="42.3211482" lon="14.0890735"><ele>60.0</ele><time>2026-05-01T15:31:15.484Z</time></trkpt><trkpt lat="42.3211964" lon="14.0891598"><ele>60.0</ele><time>2026-05-01T15:31:16.475Z</time></trkpt><trkpt lat="42.3212446" lon="14.089247"><ele>60.0</ele><time>2026-05-01T15:31:17.478Z</time></trkpt><trkpt lat="42.3212922" lon="14.0893505"><ele>60.0</ele><time>2026-05-01T15:31:18.48Z</time></trkpt><trkpt lat="42.3213424" lon="14.0894569"><ele>59.833333333333336</ele><time>2026-05-01T15:31:19.476Z</time></trkpt><trkpt lat="42.3213873" lon="14.0895463"><ele>59.66666666666667</ele><time>2026-05-01T15:31:20.475Z</time></trkpt><trkpt lat="42.3214165" lon="14.0896321"><ele>59.5</ele><time>2026-05-01T15:31:27.491Z</time></trkpt><trkpt lat="42.3214564" lon="14.0897137"><ele>59.333333333333336</ele><time>2026-05-01T15:44:06.518Z</time></trkpt><trkpt lat="42.3214891" lon="14.0898017"><ele>59.16666666666667</ele><time>2026-05-01T15:45:18.517Z</time></trkpt><trkpt lat="42.3215076" lon="14.0898863"><ele>59.0</ele><time>2026-05-01T15:45:20.519Z</time></trkpt><trkpt lat="42.3215584" lon="14.0900297"><ele>58.833333333333336</ele><time>2026-05-01T15:45:22.527Z</time></trkpt><trkpt lat="42.3215919" lon="14.0901036"><ele>58.66666666666667</ele><time>2026-05-01T15:45:23.521Z</time></trkpt><trkpt lat="42.3216482" lon="14.0902055"><ele>58.5</ele><time>2026-05-01T15:45:25.519Z</time></trkpt><trkpt lat="42.3216969" lon="14.0902996"><ele>58.33333333333333</ele><time>2026-05-01T15:45:27.519Z</time></trkpt><trkpt lat="42.3217386" lon="14.0903841"><ele>58.166666666666664</ele><time>2026-05-01T15:45:29.519Z</time></trkpt><trkpt lat="42.3217853" lon="14.0904722"><ele>58.0</ele><time>2026-05-01T15:45:31.522Z</time></trkpt><trkpt lat="42.3218373" lon="14.0905812"><ele>58.0</ele><time>2026-05-01T15:45:33.515Z</time></trkpt><trkpt lat="42.3218797" lon="14.0906585"><ele>58.0</ele><time>2026-05-01T15:45:34.508Z</time></trkpt><trkpt lat="42.3219383" lon="14.0907745"><ele>58.0</ele><time>2026-05-01T15:45:35.517Z</time></trkpt><trkpt lat="42.3220134" lon="14.090919"><ele>58.0</ele><time>2026-05-01T15:45:36.514Z</time></trkpt><trkpt lat="42.3220937" lon="14.0910741"><ele>58.0</ele><time>2026-05-01T15:45:37.51Z</time></trkpt><trkpt lat="42.3221669" lon="14.0912191"><ele>58.25</ele><time>2026-05-01T15:45:38.511Z</time></trkpt><trkpt lat="42.3222368" lon="14.0913525"><ele>58.5</ele><time>2026-05-01T15:45:39.52Z</time></trkpt><trkpt lat="42.3223101" lon="14.0914979"><ele>58.75</ele><time>2026-05-01T15:45:40.512Z</time></trkpt><trkpt lat="42.3223841" lon="14.0916584"><ele>59.0</ele><time>2026-05-01T15:45:41.514Z</time></trkpt><trkpt lat="42.3224588" lon="14.0918095"><ele>59.0</ele><time>2026-05-01T15:45:42.513Z</time></trkpt><trkpt lat="42.3225429" lon="14.091953"><ele>59.0</ele><time>2026-05-01T15:45:43.512Z</time></trkpt><trkpt lat="42.3226134" lon="14.0920871"><ele>59.0</ele><time>2026-05-01T15:45:44.525Z</time></trkpt><trkpt lat="42.3226789" lon="14.0922373"><ele>59.0</ele><time>2026-05-01T15:45:45.516Z</time></trkpt><trkpt lat="42.3227389" lon="14.0923915"><ele>58.75</ele><time>2026-05-01T15:45:46.517Z</time></trkpt><trkpt lat="42.322808" lon="14.0925279"><ele>58.5</ele><time>2026-05-01T15:45:47.515Z</time></trkpt><trkpt lat="42.3228741" lon="14.0926781"><ele>58.25</ele><time>2026-05-01T15:45:48.518Z</time></trkpt><trkpt lat="42.3229412" lon="14.092816"><ele>58.0</ele><time>2026-05-01T15:45:49.515Z</time></trkpt><trkpt lat="42.3230057" lon="14.09295"><ele>58.0</ele><time>2026-05-01T15:45:50.515Z</time></trkpt><trkpt lat="42.3230723" lon="14.093091"><ele>58.0</ele><time>2026-05-01T15:45:51.512Z</time></trkpt><trkpt lat="42.3231401" lon="14.093229"><ele>58.0</ele><time>2026-05-01T15:45:52.509Z</time></trkpt><trkpt lat="42.3232069" lon="14.0933678"><ele>58.0</ele><time>2026-05-01T15:45:53.514Z</time></trkpt><trkpt lat="42.3232715" lon="14.0935236"><ele>58.0</ele><time>2026-05-01T15:45:54.513Z</time></trkpt><trkpt lat="42.3233365" lon="14.0936737"><ele>58.0</ele><time>2026-05-01T15:45:55.51Z</time></trkpt><trkpt lat="42.3234032" lon="14.0938289"><ele>58.0</ele><time>2026-05-01T15:45:56.512Z</time></trkpt><trkpt lat="42.3234696" lon="14.0939881"><ele>58.0</ele><time>2026-05-01T15:45:57.513Z</time></trkpt><trkpt lat="42.3235281" lon="14.0941483"><ele>58.0</ele><time>2026-05-01T15:45:58.517Z</time></trkpt><trkpt lat="42.3235759" lon="14.0942954"><ele>58.0</ele><time>2026-05-01T15:45:59.509Z</time></trkpt><trkpt lat="42.3236172" lon="14.0944358"><ele>58.0</ele><time>2026-05-01T15:46:00.512Z</time></trkpt><trkpt lat="42.3236496" lon="14.0945829"><ele>58.0</ele><time>2026-05-01T15:46:01.519Z</time></trkpt><trkpt lat="42.3236767" lon="14.0947337"><ele>58.0</ele><time>2026-05-01T15:46:02.513Z</time></trkpt><trkpt lat="42.3237071" lon="14.0948906"><ele>58.0</ele><time>2026-05-01T15:46:03.512Z</time></trkpt><trkpt lat="42.3237345" lon="14.095044"><ele>58.0</ele><time>2026-05-01T15:46:04.511Z</time></trkpt><trkpt lat="42.3237674" lon="14.0951965"><ele>58.0</ele><time>2026-05-01T15:46:05.51Z</time></trkpt><trkpt lat="42.3238025" lon="14.0953512"><ele>58.0</ele><time>2026-05-01T15:46:06.505Z</time></trkpt><trkpt lat="42.3238366" lon="14.0954978"><ele>58.0</ele><time>2026-05-01T15:46:07.511Z</time></trkpt><trkpt lat="42.323869" lon="14.0956453"><ele>58.0</ele><time>2026-05-01T15:46:08.508Z</time></trkpt><trkpt lat="42.3238954" lon="14.0957909"><ele>58.0</ele><time>2026-05-01T15:46:09.507Z</time></trkpt><trkpt lat="42.3239253" lon="14.095935"><ele>58.0</ele><time>2026-05-01T15:46:10.52Z</time></trkpt><trkpt lat="42.323949" lon="14.096084"><ele>58.0</ele><time>2026-05-01T15:46:11.51Z</time></trkpt><trkpt lat="42.3239837" lon="14.0962421"><ele>58.0</ele><time>2026-05-01T15:46:12.52Z</time></trkpt><trkpt lat="42.324023" lon="14.096415"><ele>58.0</ele><time>2026-05-01T15:46:13.511Z</time></trkpt><trkpt lat="42.3240665" lon="14.0966296"><ele>58.0</ele><time>2026-05-01T15:46:14.517Z</time></trkpt><trkpt lat="42.3241089" lon="14.0968187"><ele>58.0</ele><time>2026-05-01T15:46:15.512Z</time></trkpt><trkpt lat="42.3241516" lon="14.0969968"><ele>58.0</ele><time>2026-05-01T15:46:16.517Z</time></trkpt><trkpt lat="42.3241898" lon="14.0971441"><ele>58.0</ele><time>2026-05-01T15:46:17.516Z</time></trkpt><trkpt lat="42.3242317" lon="14.0972982"><ele>58.0</ele><time>2026-05-01T15:46:18.519Z</time></trkpt><trkpt lat="42.3242747" lon="14.0974683"><ele>57.75</ele><time>2026-05-01T15:46:19.522Z</time></trkpt><trkpt lat="42.3242992" lon="14.0976334"><ele>57.5</ele><time>2026-05-01T15:46:20.521Z</time></trkpt><trkpt lat="42.324337" lon="14.097798"><ele>57.25</ele><time>2026-05-01T15:46:21.534Z</time></trkpt><trkpt lat="42.3243832" lon="14.0979464"><ele>57.0</ele><time>2026-05-01T15:46:22.52Z</time></trkpt><trkpt lat="42.3244323" lon="14.0980878"><ele>57.0</ele><time>2026-05-01T15:46:23.524Z</time></trkpt><trkpt lat="42.3244861" lon="14.0982258"><ele>57.0</ele><time>2026-05-01T15:46:24.516Z</time></trkpt><trkpt lat="42.3245526" lon="14.0983553"><ele>57.0</ele><time>2026-05-01T15:46:25.515Z</time></trkpt><trkpt lat="42.3246306" lon="14.0984767"><ele>57.0</ele><time>2026-05-01T15:46:26.517Z</time></trkpt><trkpt lat="42.3247162" lon="14.098596"><ele>55.66666666666667</ele><time>2026-05-01T15:46:27.512Z</time></trkpt><trkpt lat="42.3248146" lon="14.098725"><ele>54.333333333333336</ele><time>2026-05-01T15:46:28.529Z</time></trkpt><trkpt lat="42.3249134" lon="14.0988716"><ele>53.0</ele><time>2026-05-01T15:46:29.508Z</time></trkpt><trkpt lat="42.3250438" lon="14.099038"><ele>54.0</ele><time>2026-05-01T15:46:30.52Z</time></trkpt><trkpt lat="42.3251611" lon="14.0992347"><ele>55.0</ele><time>2026-05-01T15:46:31.513Z</time></trkpt><trkpt lat="42.3252759" lon="14.0994535"><ele>56.0</ele><time>2026-05-01T15:46:32.517Z</time></trkpt><trkpt lat="42.3253685" lon="14.0996539"><ele>56.0</ele><time>2026-05-01T15:46:33.512Z</time></trkpt><trkpt lat="42.3254819" lon="14.0998161"><ele>56.0</ele><time>2026-05-01T15:46:34.516Z</time></trkpt><trkpt lat="42.3256012" lon="14.0999661"><ele>56.0</ele><time>2026-05-01T15:46:35.517Z</time></trkpt><trkpt lat="42.3257096" lon="14.1001353"><ele>55.25</ele><time>2026-05-01T15:46:36.517Z</time></trkpt><trkpt lat="42.3258139" lon="14.1002654"><ele>54.5</ele><time>2026-05-01T15:46:37.523Z</time></trkpt><trkpt lat="42.3259053" lon="14.1004019"><ele>53.75</ele><time>2026-05-01T15:46:38.522Z</time></trkpt><trkpt lat="42.3259704" lon="14.1005216"><ele>53.0</ele><time>2026-05-01T15:46:39.517Z</time></trkpt><trkpt lat="42.3260338" lon="14.1006171"><ele>53.0</ele><time>2026-05-01T15:46:40.516Z</time></trkpt><trkpt lat="42.3260839" lon="14.1006947"><ele>53.0</ele><time>2026-05-01T15:46:41.526Z</time></trkpt><trkpt lat="42.3261306" lon="14.1008229"><ele>53.0</ele><time>2026-05-01T15:46:43.518Z</time></trkpt><trkpt lat="42.3261553" lon="14.1009578"><ele>53.0</ele><time>2026-05-01T15:46:45.52Z</time></trkpt><trkpt lat="42.3261471" lon="14.101093"><ele>53.0</ele><time>2026-05-01T15:46:47.522Z</time></trkpt><trkpt lat="42.3262046" lon="14.1012344"><ele>53.333333333333336</ele><time>2026-05-01T15:46:49.54Z</time></trkpt><trkpt lat="42.3262783" lon="14.1012742"><ele>53.66666666666667</ele><time>2026-05-01T15:46:50.524Z</time></trkpt><trkpt lat="42.3263572" lon="14.1012983"><ele>54.0</ele><time>2026-05-01T15:46:51.537Z</time></trkpt><trkpt lat="42.3264317" lon="14.101333"><ele>54.33333333333333</ele><time>2026-05-01T15:46:52.529Z</time></trkpt><trkpt lat="42.3265045" lon="14.1013858"><ele>54.666666666666664</ele><time>2026-05-01T15:46:53.519Z</time></trkpt><trkpt lat="42.3265745" lon="14.1014658"><ele>55.0</ele><time>2026-05-01T15:46:54.522Z</time></trkpt><trkpt lat="42.3266512" lon="14.1015864"><ele>55.0</ele><time>2026-05-01T15:46:55.514Z</time></trkpt><trkpt lat="42.3267445" lon="14.1017256"><ele>55.0</ele><time>2026-05-01T15:46:56.52Z</time></trkpt><trkpt lat="42.3268516" lon="14.101906"><ele>55.0</ele><time>2026-05-01T15:46:57.517Z</time></trkpt><trkpt lat="42.3269839" lon="14.1021704"><ele>55.0</ele><time>2026-05-01T15:46:58.524Z</time></trkpt><trkpt lat="42.3270953" lon="14.1023454"><ele>55.0</ele><time>2026-05-01T15:46:59.513Z</time></trkpt><trkpt lat="42.3271899" lon="14.102524"><ele>55.0</ele><time>2026-05-01T15:47:00.522Z</time></trkpt><trkpt lat="42.327259" lon="14.1026954"><ele>53.8</ele><time>2026-05-01T15:47:01.521Z</time></trkpt><trkpt lat="42.3272991" lon="14.1028506"><ele>52.6</ele><time>2026-05-01T15:47:02.524Z</time></trkpt><trkpt lat="42.3273294" lon="14.1029769"><ele>51.400000000000006</ele><time>2026-05-01T15:47:03.517Z</time></trkpt><trkpt lat="42.3273587" lon="14.1030883"><ele>50.2</ele><time>2026-05-01T15:47:04.524Z</time></trkpt><trkpt lat="42.3273944" lon="14.1032156"><ele>49.0</ele><time>2026-05-01T15:47:05.511Z</time></trkpt><trkpt lat="42.3274348" lon="14.1033298"><ele>49.0</ele><time>2026-05-01T15:47:06.524Z</time></trkpt><trkpt lat="42.3274724" lon="14.1034867"><ele>49.0</ele><time>2026-05-01T15:47:07.518Z</time></trkpt><trkpt lat="42.3275119" lon="14.1036348"><ele>49.0</ele><time>2026-05-01T15:47:08.522Z</time></trkpt><trkpt lat="42.3275596" lon="14.1037778"><ele>49.0</ele><time>2026-05-01T15:47:09.524Z</time></trkpt><trkpt lat="42.3275985" lon="14.1039286"><ele>48.33333333333333</ele><time>2026-05-01T15:47:10.514Z</time></trkpt><trkpt lat="42.3276552" lon="14.1040882"><ele>47.666666666666664</ele><time>2026-05-01T15:47:11.509Z</time></trkpt><trkpt lat="42.3277273" lon="14.1042843"><ele>47.0</ele><time>2026-05-01T15:47:12.514Z</time></trkpt><trkpt lat="42.3277951" lon="14.104516"><ele>47.0</ele><time>2026-05-01T15:47:13.515Z</time></trkpt><trkpt lat="42.3278437" lon="14.104701"><ele>47.0</ele><time>2026-05-01T15:47:14.521Z</time></trkpt><trkpt lat="42.3279191" lon="14.1048983"><ele>47.0</ele><time>2026-05-01T15:47:15.511Z</time></trkpt><trkpt lat="42.327991" lon="14.1050904"><ele>46.75</ele><time>2026-05-01T15:47:16.522Z</time></trkpt><trkpt lat="42.3280753" lon="14.1052997"><ele>46.5</ele><time>2026-05-01T15:47:17.522Z</time></trkpt><trkpt lat="42.3281313" lon="14.1054797"><ele>46.25</ele><time>2026-05-01T15:47:18.521Z</time></trkpt><trkpt lat="42.3281676" lon="14.1056235"><ele>46.0</ele><time>2026-05-01T15:47:19.513Z</time></trkpt><trkpt lat="42.3282222" lon="14.1057701"><ele>46.0</ele><time>2026-05-01T15:47:20.518Z</time></trkpt><trkpt lat="42.3282629" lon="14.1058952"><ele>46.0</ele><time>2026-05-01T15:47:21.515Z</time></trkpt><trkpt lat="42.3283008" lon="14.1060052"><ele>46.0</ele><time>2026-05-01T15:47:22.514Z</time></trkpt><trkpt lat="42.3283149" lon="14.1061349"><ele>46.0</ele><time>2026-05-01T15:47:23.524Z</time></trkpt><trkpt lat="42.3283522" lon="14.1062461"><ele>46.0</ele><time>2026-05-01T15:47:24.527Z</time></trkpt><trkpt lat="42.3283907" lon="14.1063656"><ele>46.0</ele><time>2026-05-01T15:47:25.524Z</time></trkpt><trkpt lat="42.3284359" lon="14.1064933"><ele>46.0</ele><time>2026-05-01T15:47:26.529Z</time></trkpt><trkpt lat="42.3284791" lon="14.1066149"><ele>46.0</ele><time>2026-05-01T15:47:27.516Z</time></trkpt><trkpt lat="42.328521" lon="14.1067427"><ele>46.0</ele><time>2026-05-01T15:47:28.53Z</time></trkpt><trkpt lat="42.3285572" lon="14.1068628"><ele>46.0</ele><time>2026-05-01T15:47:29.518Z</time></trkpt><trkpt lat="42.3285875" lon="14.1069861"><ele>46.0</ele><time>2026-05-01T15:47:30.522Z</time></trkpt><trkpt lat="42.3286216" lon="14.1071136"><ele>46.0</ele><time>2026-05-01T15:47:31.534Z</time></trkpt><trkpt lat="42.3286585" lon="14.1072373"><ele>46.0</ele><time>2026-05-01T15:47:32.524Z</time></trkpt><trkpt lat="42.3286973" lon="14.107361"><ele>46.0</ele><time>2026-05-01T15:47:33.524Z</time></trkpt><trkpt lat="42.3287367" lon="14.1074866"><ele>46.0</ele><time>2026-05-01T15:47:34.531Z</time></trkpt><trkpt lat="42.3287716" lon="14.1076093"><ele>46.0</ele><time>2026-05-01T15:47:35.532Z</time></trkpt><trkpt lat="42.3288065" lon="14.107727"><ele>46.0</ele><time>2026-05-01T15:47:36.526Z</time></trkpt><trkpt lat="42.328849" lon="14.1078413"><ele>46.0</ele><time>2026-05-01T15:47:37.529Z</time></trkpt><trkpt lat="42.3288888" lon="14.1079511"><ele>46.0</ele><time>2026-05-01T15:47:38.515Z</time></trkpt><trkpt lat="42.3289273" lon="14.1080651"><ele>46.0</ele><time>2026-05-01T15:47:39.529Z</time></trkpt><trkpt lat="42.3289648" lon="14.1081864"><ele>45.0</ele><time>2026-05-01T15:47:40.527Z</time></trkpt><trkpt lat="42.3290033" lon="14.1083102"><ele>44.0</ele><time>2026-05-01T15:47:41.529Z</time></trkpt><trkpt lat="42.3290432" lon="14.1084332"><ele>43.0</ele><time>2026-05-01T15:47:42.516Z</time></trkpt><trkpt lat="42.3290844" lon="14.1085538"><ele>42.0</ele><time>2026-05-01T15:47:43.527Z</time></trkpt><trkpt lat="42.3291211" lon="14.1086714"><ele>41.0</ele><time>2026-05-01T15:47:44.527Z</time></trkpt><trkpt lat="42.3291555" lon="14.1087906"><ele>41.0</ele><time>2026-05-01T15:47:45.531Z</time></trkpt><trkpt lat="42.3291908" lon="14.1089086"><ele>41.0</ele><time>2026-05-01T15:47:46.519Z</time></trkpt><trkpt lat="42.3292273" lon="14.1090304"><ele>41.0</ele><time>2026-05-01T15:47:47.521Z</time></trkpt><trkpt lat="42.3292656" lon="14.1091523"><ele>41.0</ele><time>2026-05-01T15:47:48.528Z</time></trkpt><trkpt lat="42.3293053" lon="14.109276"><ele>41.0</ele><time>2026-05-01T15:47:49.502Z</time></trkpt><trkpt lat="42.329337" lon="14.1093933"><ele>41.4</ele><time>2026-05-01T15:47:50.496Z</time></trkpt><trkpt lat="42.3293721" lon="14.1095181"><ele>41.8</ele><time>2026-05-01T15:47:51.521Z</time></trkpt><trkpt lat="42.3294086" lon="14.109644"><ele>42.199999999999996</ele><time>2026-05-01T15:47:52.523Z</time></trkpt><trkpt lat="42.3294464" lon="14.1097735"><ele>42.599999999999994</ele><time>2026-05-01T15:47:53.524Z</time></trkpt><trkpt lat="42.3294826" lon="14.1099102"><ele>43.0</ele><time>2026-05-01T15:47:54.521Z</time></trkpt><trkpt lat="42.3295214" lon="14.1100455"><ele>43.25</ele><time>2026-05-01T15:47:55.518Z</time></trkpt><trkpt lat="42.3295643" lon="14.1101784"><ele>43.5</ele><time>2026-05-01T15:47:56.522Z</time></trkpt><trkpt lat="42.3296079" lon="14.1103211"><ele>43.75</ele><time>2026-05-01T15:47:57.519Z</time></trkpt><trkpt lat="42.3296552" lon="14.110467"><ele>44.0</ele><time>2026-05-01T15:47:58.525Z</time></trkpt><trkpt lat="42.329698" lon="14.1106164"><ele>43.5</ele><time>2026-05-01T15:47:59.518Z</time></trkpt><trkpt lat="42.3297457" lon="14.1107693"><ele>43.0</ele><time>2026-05-01T15:48:00.525Z</time></trkpt><trkpt lat="42.3297938" lon="14.1109163"><ele>42.5</ele><time>2026-05-01T15:48:01.515Z</time></trkpt><trkpt lat="42.3298467" lon="14.1110627"><ele>42.0</ele><time>2026-05-01T15:48:02.529Z</time></trkpt><trkpt lat="42.3298989" lon="14.1112064"><ele>42.0</ele><time>2026-05-01T15:48:03.519Z</time></trkpt><trkpt lat="42.3299483" lon="14.1113455"><ele>42.0</ele><time>2026-05-01T15:48:04.528Z</time></trkpt><trkpt lat="42.3299925" lon="14.1114852"><ele>42.0</ele><time>2026-05-01T15:48:05.521Z</time></trkpt><trkpt lat="42.3300363" lon="14.1116165"><ele>42.0</ele><time>2026-05-01T15:48:06.525Z</time></trkpt><trkpt lat="42.3300766" lon="14.1117468"><ele>42.0</ele><time>2026-05-01T15:48:07.518Z</time></trkpt><trkpt lat="42.3301188" lon="14.1118704"><ele>42.2</ele><time>2026-05-01T15:48:08.516Z</time></trkpt><trkpt lat="42.3301621" lon="14.1119932"><ele>42.400000000000006</ele><time>2026-05-01T15:48:09.529Z</time></trkpt><trkpt lat="42.3302049" lon="14.1121249"><ele>42.599999999999994</ele><time>2026-05-01T15:48:10.514Z</time></trkpt><trkpt lat="42.3302433" lon="14.1122494"><ele>42.8</ele><time>2026-05-01T15:48:11.523Z</time></trkpt><trkpt lat="42.3302827" lon="14.1123771"><ele>43.0</ele><time>2026-05-01T15:48:12.514Z</time></trkpt><trkpt lat="42.3303202" lon="14.1125116"><ele>43.0</ele><time>2026-05-01T15:48:13.514Z</time></trkpt><trkpt lat="42.3303528" lon="14.1126448"><ele>43.0</ele><time>2026-05-01T15:48:14.524Z</time></trkpt><trkpt lat="42.3303879" lon="14.1127685"><ele>43.0</ele><time>2026-05-01T15:48:15.516Z</time></trkpt><trkpt lat="42.3304127" lon="14.1128748"><ele>43.0</ele><time>2026-05-01T15:48:16.525Z</time></trkpt><trkpt lat="42.3304344" lon="14.1129673"><ele>43.0</ele><time>2026-05-01T15:48:17.512Z</time></trkpt><trkpt lat="42.330442" lon="14.1131134"><ele>43.0</ele><time>2026-05-01T15:48:19.517Z</time></trkpt><trkpt lat="42.330451" lon="14.1132638"><ele>43.0</ele><time>2026-05-01T15:48:21.517Z</time></trkpt><trkpt lat="42.3304928" lon="14.1133291"><ele>43.0</ele><time>2026-05-01T15:48:22.526Z</time></trkpt><trkpt lat="42.3305483" lon="14.1133819"><ele>43.0</ele><time>2026-05-01T15:48:23.518Z</time></trkpt><trkpt lat="42.3305994" lon="14.1134349"><ele>43.0</ele><time>2026-05-01T15:48:24.524Z</time></trkpt><trkpt lat="42.3306409" lon="14.1135064"><ele>43.0</ele><time>2026-05-01T15:48:25.521Z</time></trkpt><trkpt lat="42.3306736" lon="14.1135982"><ele>42.0</ele><time>2026-05-01T15:48:26.516Z</time></trkpt><trkpt lat="42.3307102" lon="14.1137171"><ele>41.0</ele><time>2026-05-01T15:48:27.509Z</time></trkpt><trkpt lat="42.3307552" lon="14.1138549"><ele>40.0</ele><time>2026-05-01T15:48:28.525Z</time></trkpt><trkpt lat="42.3308018" lon="14.1139969"><ele>39.0</ele><time>2026-05-01T15:48:29.515Z</time></trkpt><trkpt lat="42.3308534" lon="14.1141528"><ele>38.0</ele><time>2026-05-01T15:48:30.519Z</time></trkpt><trkpt lat="42.330913" lon="14.1143303"><ele>38.0</ele><time>2026-05-01T15:48:31.512Z</time></trkpt><trkpt lat="42.3309605" lon="14.1145549"><ele>38.0</ele><time>2026-05-01T15:48:32.525Z</time></trkpt><trkpt lat="42.3310184" lon="14.1147667"><ele>38.0</ele><time>2026-05-01T15:48:33.514Z</time></trkpt><trkpt lat="42.3310737" lon="14.1149761"><ele>38.0</ele><time>2026-05-01T15:48:34.51Z</time></trkpt><trkpt lat="42.3311448" lon="14.1151575"><ele>38.0</ele><time>2026-05-01T15:48:35.508Z</time></trkpt><trkpt lat="42.3311958" lon="14.1153171"><ele>38.0</ele><time>2026-05-01T15:48:36.516Z</time></trkpt><trkpt lat="42.3312398" lon="14.1154728"><ele>38.0</ele><time>2026-05-01T15:48:37.509Z</time></trkpt><trkpt lat="42.3312734" lon="14.115639"><ele>38.0</ele><time>2026-05-01T15:48:38.52Z</time></trkpt><trkpt lat="42.331319" lon="14.1157864"><ele>38.0</ele><time>2026-05-01T15:48:39.511Z</time></trkpt><trkpt lat="42.3313698" lon="14.1159236"><ele>38.0</ele><time>2026-05-01T15:48:40.504Z</time></trkpt><trkpt lat="42.3314207" lon="14.1160654"><ele>38.0</ele><time>2026-05-01T15:48:41.506Z</time></trkpt><trkpt lat="42.33148" lon="14.1162024"><ele>38.0</ele><time>2026-05-01T15:48:42.503Z</time></trkpt><trkpt lat="42.3315306" lon="14.1163389"><ele>38.0</ele><time>2026-05-01T15:48:43.506Z</time></trkpt><trkpt lat="42.3315783" lon="14.11649"><ele>38.0</ele><time>2026-05-01T15:48:44.487Z</time></trkpt><trkpt lat="42.3316249" lon="14.1166425"><ele>38.0</ele><time>2026-05-01T15:48:45.504Z</time></trkpt><trkpt lat="42.3316704" lon="14.1167978"><ele>38.0</ele><time>2026-05-01T15:48:46.524Z</time></trkpt><trkpt lat="42.3317156" lon="14.1169551"><ele>38.0</ele><time>2026-05-01T15:48:47.51Z</time></trkpt><trkpt lat="42.331759" lon="14.1171068"><ele>38.0</ele><time>2026-05-01T15:48:48.519Z</time></trkpt><trkpt lat="42.3318028" lon="14.1172574"><ele>38.0</ele><time>2026-05-01T15:48:49.512Z</time></trkpt><trkpt lat="42.3318506" lon="14.1174098"><ele>38.5</ele><time>2026-05-01T15:48:50.514Z</time></trkpt><trkpt lat="42.3318998" lon="14.1175573"><ele>39.0</ele><time>2026-05-01T15:48:51.513Z</time></trkpt><trkpt lat="42.3319486" lon="14.1177055"><ele>39.5</ele><time>2026-05-01T15:48:52.519Z</time></trkpt><trkpt lat="42.3319903" lon="14.1178485"><ele>40.0</ele><time>2026-05-01T15:48:53.513Z</time></trkpt><trkpt lat="42.3320293" lon="14.1180016"><ele>40.0</ele><time>2026-05-01T15:48:54.523Z</time></trkpt><trkpt lat="42.3320702" lon="14.1181547"><ele>40.0</ele><time>2026-05-01T15:48:55.512Z</time></trkpt><trkpt lat="42.332115" lon="14.1183013"><ele>40.0</ele><time>2026-05-01T15:48:56.522Z</time></trkpt><trkpt lat="42.3321599" lon="14.1184415"><ele>40.0</ele><time>2026-05-01T15:48:57.51Z</time></trkpt><trkpt lat="42.3322014" lon="14.1185807"><ele>39.5</ele><time>2026-05-01T15:48:58.525Z</time></trkpt><trkpt lat="42.3322433" lon="14.1187191"><ele>39.0</ele><time>2026-05-01T15:48:59.509Z</time></trkpt><trkpt lat="42.3322858" lon="14.1188588"><ele>38.5</ele><time>2026-05-01T15:49:00.52Z</time></trkpt><trkpt lat="42.3323316" lon="14.1190062"><ele>38.0</ele><time>2026-05-01T15:49:01.517Z</time></trkpt><trkpt lat="42.3323799" lon="14.119155"><ele>37.75</ele><time>2026-05-01T15:49:02.511Z</time></trkpt><trkpt lat="42.3324297" lon="14.1193084"><ele>37.5</ele><time>2026-05-01T15:49:03.509Z</time></trkpt><trkpt lat="42.3324775" lon="14.1194574"><ele>37.25</ele><time>2026-05-01T15:49:04.504Z</time></trkpt><trkpt lat="42.332528" lon="14.1196096"><ele>37.0</ele><time>2026-05-01T15:49:05.51Z</time></trkpt><trkpt lat="42.3325783" lon="14.1197643"><ele>37.75</ele><time>2026-05-01T15:49:06.514Z</time></trkpt><trkpt lat="42.3326244" lon="14.1199172"><ele>38.5</ele><time>2026-05-01T15:49:07.528Z</time></trkpt><trkpt lat="42.3326716" lon="14.1200709"><ele>39.25</ele><time>2026-05-01T15:49:08.514Z</time></trkpt><trkpt lat="42.3327227" lon="14.1202227"><ele>40.0</ele><time>2026-05-01T15:49:09.513Z</time></trkpt><trkpt lat="42.3327644" lon="14.120373"><ele>40.0</ele><time>2026-05-01T15:49:10.493Z</time></trkpt><trkpt lat="42.3328112" lon="14.1205293"><ele>40.0</ele><time>2026-05-01T15:49:11.514Z</time></trkpt><trkpt lat="42.3328607" lon="14.1206876"><ele>40.0</ele><time>2026-05-01T15:49:12.518Z</time></trkpt><trkpt lat="42.3329049" lon="14.1208464"><ele>40.0</ele><time>2026-05-01T15:49:13.511Z</time></trkpt><trkpt lat="42.3329536" lon="14.1210051"><ele>40.0</ele><time>2026-05-01T15:49:14.512Z</time></trkpt><trkpt lat="42.3330005" lon="14.1211623"><ele>40.0</ele><time>2026-05-01T15:49:15.49Z</time></trkpt><trkpt lat="42.3330478" lon="14.1213141"><ele>40.0</ele><time>2026-05-01T15:49:16.494Z</time></trkpt><trkpt lat="42.3330944" lon="14.1214713"><ele>40.0</ele><time>2026-05-01T15:49:17.488Z</time></trkpt><trkpt lat="42.3331342" lon="14.121625"><ele>40.4</ele><time>2026-05-01T15:49:18.494Z</time></trkpt><trkpt lat="42.3331746" lon="14.1217604"><ele>40.8</ele><time>2026-05-01T15:49:19.515Z</time></trkpt><trkpt lat="42.3332192" lon="14.1218905"><ele>41.2</ele><time>2026-05-01T15:49:20.507Z</time></trkpt><trkpt lat="42.3332652" lon="14.1220295"><ele>41.6</ele><time>2026-05-01T15:49:21.517Z</time></trkpt><trkpt lat="42.3333059" lon="14.1221633"><ele>42.0</ele><time>2026-05-01T15:49:22.513Z</time></trkpt><trkpt lat="42.333347" lon="14.122283"><ele>42.400000000000006</ele><time>2026-05-01T15:49:23.514Z</time></trkpt><trkpt lat="42.333386" lon="14.122403"><ele>42.800000000000004</ele><time>2026-05-01T15:49:24.509Z</time></trkpt><trkpt lat="42.3334236" lon="14.1225126"><ele>43.2</ele><time>2026-05-01T15:49:25.51Z</time></trkpt><trkpt lat="42.333465" lon="14.1226278"><ele>43.6</ele><time>2026-05-01T15:49:26.511Z</time></trkpt><trkpt lat="42.3335103" lon="14.1227499"><ele>44.0</ele><time>2026-05-01T15:49:27.52Z</time></trkpt><trkpt lat="42.3335542" lon="14.1228814"><ele>44.0</ele><time>2026-05-01T15:49:28.516Z</time></trkpt><trkpt lat="42.333594" lon="14.1230186"><ele>44.0</ele><time>2026-05-01T15:49:29.509Z</time></trkpt><trkpt lat="42.3336383" lon="14.123158"><ele>44.0</ele><time>2026-05-01T15:49:30.511Z</time></trkpt><trkpt lat="42.3336858" lon="14.1232899"><ele>44.0</ele><time>2026-05-01T15:49:31.511Z</time></trkpt><trkpt lat="42.3337293" lon="14.1234182"><ele>44.0</ele><time>2026-05-01T15:49:32.512Z</time></trkpt><trkpt lat="42.3337722" lon="14.1235458"><ele>43.800000000000004</ele><time>2026-05-01T15:49:33.517Z</time></trkpt><trkpt lat="42.3338121" lon="14.123676"><ele>43.6</ele><time>2026-05-01T15:49:34.51Z</time></trkpt><trkpt lat="42.3338545" lon="14.1238111"><ele>43.4</ele><time>2026-05-01T15:49:35.516Z</time></trkpt><trkpt lat="42.3339024" lon="14.1239499"><ele>43.2</ele><time>2026-05-01T15:49:36.511Z</time></trkpt><trkpt lat="42.3339488" lon="14.1240854"><ele>43.0</ele><time>2026-05-01T15:49:37.514Z</time></trkpt><trkpt lat="42.3339991" lon="14.124225"><ele>42.5</ele><time>2026-05-01T15:49:38.513Z</time></trkpt><trkpt lat="42.3340461" lon="14.1243654"><ele>42.0</ele><time>2026-05-01T15:49:39.508Z</time></trkpt><trkpt lat="42.3340921" lon="14.1245133"><ele>41.5</ele><time>2026-05-01T15:49:40.515Z</time></trkpt><trkpt lat="42.3341375" lon="14.1246689"><ele>41.0</ele><time>2026-05-01T15:49:41.511Z</time></trkpt><trkpt lat="42.33418" lon="14.1248297"><ele>41.5</ele><time>2026-05-01T15:49:42.515Z</time></trkpt><trkpt lat="42.3342273" lon="14.1249936"><ele>42.0</ele><time>2026-05-01T15:49:43.518Z</time></trkpt><trkpt lat="42.3342815" lon="14.1251652"><ele>42.5</ele><time>2026-05-01T15:49:44.514Z</time></trkpt><trkpt lat="42.3343362" lon="14.1253309"><ele>43.0</ele><time>2026-05-01T15:49:45.518Z</time></trkpt><trkpt lat="42.3343867" lon="14.1254934"><ele>43.0</ele><time>2026-05-01T15:49:46.507Z</time></trkpt><trkpt lat="42.3344349" lon="14.1256579"><ele>43.0</ele><time>2026-05-01T15:49:47.521Z</time></trkpt><trkpt lat="42.3344876" lon="14.125808"><ele>43.0</ele><time>2026-05-01T15:49:48.514Z</time></trkpt><trkpt lat="42.3345381" lon="14.1259505"><ele>43.0</ele><time>2026-05-01T15:49:49.513Z</time></trkpt><trkpt lat="42.3345783" lon="14.1260881"><ele>43.4</ele><time>2026-05-01T15:49:50.507Z</time></trkpt><trkpt lat="42.3346184" lon="14.1262209"><ele>43.8</ele><time>2026-05-01T15:49:51.515Z</time></trkpt><trkpt lat="42.3346601" lon="14.1263537"><ele>44.2</ele><time>2026-05-01T15:49:52.524Z</time></trkpt><trkpt lat="42.3347022" lon="14.1264884"><ele>44.6</ele><time>2026-05-01T15:49:53.514Z</time></trkpt><trkpt lat="42.3347452" lon="14.1266264"><ele>45.0</ele><time>2026-05-01T15:49:54.518Z</time></trkpt><trkpt lat="42.3347905" lon="14.1267763"><ele>45.25</ele><time>2026-05-01T15:49:55.51Z</time></trkpt><trkpt lat="42.3348393" lon="14.1269311"><ele>45.5</ele><time>2026-05-01T15:49:56.512Z</time></trkpt><trkpt lat="42.3348858" lon="14.1270886"><ele>45.75</ele><time>2026-05-01T15:49:57.517Z</time></trkpt><trkpt lat="42.334935" lon="14.1272429"><ele>46.0</ele><time>2026-05-01T15:49:58.516Z</time></trkpt><trkpt lat="42.3349814" lon="14.1273909"><ele>46.5</ele><time>2026-05-01T15:49:59.504Z</time></trkpt><trkpt lat="42.335027" lon="14.1275433"><ele>47.0</ele><time>2026-05-01T15:50:00.507Z</time></trkpt><trkpt lat="42.3350772" lon="14.1276937"><ele>47.5</ele><time>2026-05-01T15:50:01.517Z</time></trkpt><trkpt lat="42.3351232" lon="14.1278425"><ele>48.0</ele><time>2026-05-01T15:50:02.509Z</time></trkpt><trkpt lat="42.3351719" lon="14.1279968"><ele>48.0</ele><time>2026-05-01T15:50:03.512Z</time></trkpt><trkpt lat="42.3352214" lon="14.1281529"><ele>48.0</ele><time>2026-05-01T15:50:04.508Z</time></trkpt><trkpt lat="42.3352677" lon="14.1283094"><ele>48.0</ele><time>2026-05-01T15:50:05.512Z</time></trkpt><trkpt lat="42.3353101" lon="14.1284562"><ele>48.0</ele><time>2026-05-01T15:50:06.508Z</time></trkpt><trkpt lat="42.3353531" lon="14.1286043"><ele>48.2</ele><time>2026-05-01T15:50:07.506Z</time></trkpt><trkpt lat="42.3353997" lon="14.1287605"><ele>48.4</ele><time>2026-05-01T15:50:08.508Z</time></trkpt><trkpt lat="42.335438" lon="14.1289018"><ele>48.6</ele><time>2026-05-01T15:50:09.511Z</time></trkpt><trkpt lat="42.3354726" lon="14.1290279"><ele>48.800000000000004</ele><time>2026-05-01T15:50:10.503Z</time></trkpt><trkpt lat="42.3355079" lon="14.1291418"><ele>49.0</ele><time>2026-05-01T15:50:11.512Z</time></trkpt><trkpt lat="42.3355468" lon="14.1292539"><ele>49.2</ele><time>2026-05-01T15:50:12.507Z</time></trkpt><trkpt lat="42.3355829" lon="14.1293693"><ele>49.400000000000006</ele><time>2026-05-01T15:50:13.51Z</time></trkpt><trkpt lat="42.3356206" lon="14.1294797"><ele>49.6</ele><time>2026-05-01T15:50:14.514Z</time></trkpt><trkpt lat="42.335658" lon="14.1295889"><ele>49.8</ele><time>2026-05-01T15:50:15.51Z</time></trkpt><trkpt lat="42.3357008" lon="14.1297092"><ele>50.0</ele><time>2026-05-01T15:50:16.518Z</time></trkpt><trkpt lat="42.3357413" lon="14.1298306"><ele>50.333333333333336</ele><time>2026-05-01T15:50:17.514Z</time></trkpt><trkpt lat="42.3357735" lon="14.1299351"><ele>50.66666666666667</ele><time>2026-05-01T15:50:18.519Z</time></trkpt><trkpt lat="42.335799" lon="14.1300282"><ele>51.0</ele><time>2026-05-01T15:50:19.512Z</time></trkpt><trkpt lat="42.3358289" lon="14.1301249"><ele>51.33333333333333</ele><time>2026-05-01T15:50:20.518Z</time></trkpt><trkpt lat="42.3358667" lon="14.130234"><ele>51.666666666666664</ele><time>2026-05-01T15:50:21.513Z</time></trkpt><trkpt lat="42.3359118" lon="14.1303519"><ele>52.0</ele><time>2026-05-01T15:50:22.518Z</time></trkpt><trkpt lat="42.33595" lon="14.1304744"><ele>52.0</ele><time>2026-05-01T15:50:23.511Z</time></trkpt><trkpt lat="42.3359854" lon="14.1305965"><ele>52.0</ele><time>2026-05-01T15:50:24.52Z</time></trkpt><trkpt lat="42.3360253" lon="14.1307169"><ele>52.0</ele><time>2026-05-01T15:50:25.508Z</time></trkpt><trkpt lat="42.336065" lon="14.1308434"><ele>52.0</ele><time>2026-05-01T15:50:26.518Z</time></trkpt><trkpt lat="42.3361053" lon="14.1309819"><ele>52.0</ele><time>2026-05-01T15:50:27.51Z</time></trkpt><trkpt lat="42.3361474" lon="14.1311176"><ele>52.0</ele><time>2026-05-01T15:50:28.515Z</time></trkpt><trkpt lat="42.3361913" lon="14.1312571"><ele>52.0</ele><time>2026-05-01T15:50:29.512Z</time></trkpt><trkpt lat="42.336235" lon="14.1313922"><ele>52.0</ele><time>2026-05-01T15:50:30.52Z</time></trkpt><trkpt lat="42.3362749" lon="14.1315196"><ele>52.0</ele><time>2026-05-01T15:50:31.513Z</time></trkpt><trkpt lat="42.3363164" lon="14.1316439"><ele>52.0</ele><time>2026-05-01T15:50:32.512Z</time></trkpt><trkpt lat="42.3363622" lon="14.1317747"><ele>52.0</ele><time>2026-05-01T15:50:33.501Z</time></trkpt><trkpt lat="42.3364069" lon="14.1319007"><ele>52.0</ele><time>2026-05-01T15:50:34.507Z</time></trkpt><trkpt lat="42.3364583" lon="14.1320263"><ele>52.0</ele><time>2026-05-01T15:50:35.506Z</time></trkpt><trkpt lat="42.3365155" lon="14.1321513"><ele>52.0</ele><time>2026-05-01T15:50:36.512Z</time></trkpt><trkpt lat="42.3365775" lon="14.1322723"><ele>52.0</ele><time>2026-05-01T15:50:37.507Z</time></trkpt><trkpt lat="42.3366485" lon="14.1323932"><ele>52.400000000000006</ele><time>2026-05-01T15:50:38.514Z</time></trkpt><trkpt lat="42.3367221" lon="14.132502"><ele>52.800000000000004</ele><time>2026-05-01T15:50:39.504Z</time></trkpt><trkpt lat="42.3368071" lon="14.1325944"><ele>53.2</ele><time>2026-05-01T15:50:40.509Z</time></trkpt><trkpt lat="42.3368962" lon="14.1326758"><ele>53.6</ele><time>2026-05-01T15:50:41.507Z</time></trkpt><trkpt lat="42.3369938" lon="14.1327583"><ele>54.0</ele><time>2026-05-01T15:50:42.512Z</time></trkpt><trkpt lat="42.3370958" lon="14.1328377"><ele>54.0</ele><time>2026-05-01T15:50:43.507Z</time></trkpt><trkpt lat="42.3372005" lon="14.1329079"><ele>54.0</ele><time>2026-05-01T15:50:44.519Z</time></trkpt><trkpt lat="42.3373123" lon="14.1329686"><ele>54.0</ele><time>2026-05-01T15:50:45.501Z</time></trkpt><trkpt lat="42.3374384" lon="14.1330151"><ele>54.0</ele><time>2026-05-01T15:50:46.507Z</time></trkpt><trkpt lat="42.3375698" lon="14.1330577"><ele>54.33333333333333</ele><time>2026-05-01T15:50:47.507Z</time></trkpt><trkpt lat="42.3377303" lon="14.1330866"><ele>54.666666666666664</ele><time>2026-05-01T15:50:48.511Z</time></trkpt><trkpt lat="42.3378908" lon="14.1331332"><ele>55.0</ele><time>2026-05-01T15:50:49.51Z</time></trkpt><trkpt lat="42.3380445" lon="14.1331786"><ele>55.0</ele><time>2026-05-01T15:50:50.519Z</time></trkpt><trkpt lat="42.3381964" lon="14.1332102"><ele>55.0</ele><time>2026-05-01T15:50:51.519Z</time></trkpt><trkpt lat="42.3383639" lon="14.1332674"><ele>55.0</ele><time>2026-05-01T15:50:52.514Z</time></trkpt><trkpt lat="42.3385207" lon="14.1333289"><ele>55.0</ele><time>2026-05-01T15:50:53.509Z</time></trkpt><trkpt lat="42.3386886" lon="14.1333811"><ele>55.0</ele><time>2026-05-01T15:50:54.517Z</time></trkpt><trkpt lat="42.3388256" lon="14.1334313"><ele>55.0</ele><time>2026-05-01T15:50:55.487Z</time></trkpt><trkpt lat="42.3389522" lon="14.1334738"><ele>55.0</ele><time>2026-05-01T15:50:56.516Z</time></trkpt><trkpt lat="42.3390473" lon="14.133477"><ele>55.25</ele><time>2026-05-01T15:50:57.516Z</time></trkpt><trkpt lat="42.3391741" lon="14.1335192"><ele>55.5</ele><time>2026-05-01T15:50:58.523Z</time></trkpt><trkpt lat="42.3392734" lon="14.1335466"><ele>55.75</ele><time>2026-05-01T15:50:59.518Z</time></trkpt><trkpt lat="42.3393923" lon="14.1335959"><ele>56.0</ele><time>2026-05-01T15:51:00.519Z</time></trkpt><trkpt lat="42.3394993" lon="14.1336387"><ele>56.0</ele><time>2026-05-01T15:51:01.498Z</time></trkpt><trkpt lat="42.3396047" lon="14.1336594"><ele>55.99999999999999</ele><time>2026-05-01T15:51:02.488Z</time></trkpt><trkpt lat="42.339717" lon="14.133687"><ele>55.99999999999999</ele><time>2026-05-01T15:51:03.505Z</time></trkpt><trkpt lat="42.3398265" lon="14.1337216"><ele>56.0</ele><time>2026-05-01T15:51:04.489Z</time></trkpt><trkpt lat="42.3399323" lon="14.133755"><ele>56.0</ele><time>2026-05-01T15:51:05.48Z</time></trkpt><trkpt lat="42.3400276" lon="14.1337874"><ele>55.833333333333336</ele><time>2026-05-01T15:51:06.482Z</time></trkpt><trkpt lat="42.3401218" lon="14.1338143"><ele>55.66666666666667</ele><time>2026-05-01T15:51:07.505Z</time></trkpt><trkpt lat="42.3402106" lon="14.1338325"><ele>55.5</ele><time>2026-05-01T15:51:08.509Z</time></trkpt><trkpt lat="42.3402901" lon="14.133854"><ele>55.33333333333333</ele><time>2026-05-01T15:51:09.509Z</time></trkpt><trkpt lat="42.3403559" lon="14.1338825"><ele>55.166666666666664</ele><time>2026-05-01T15:51:10.504Z</time></trkpt><trkpt lat="42.3404381" lon="14.1339292"><ele>55.0</ele><time>2026-05-01T15:51:12.484Z</time></trkpt><trkpt lat="42.340515" lon="14.1340119"><ele>54.83333333333333</ele><time>2026-05-01T15:51:14.511Z</time></trkpt><trkpt lat="42.3405999" lon="14.1340881"><ele>54.666666666666664</ele><time>2026-05-01T15:51:16.498Z</time></trkpt><trkpt lat="42.3407063" lon="14.1340106"><ele>54.5</ele><time>2026-05-01T15:51:18.499Z</time></trkpt><trkpt lat="42.3407377" lon="14.1339282"><ele>54.33333333333333</ele><time>2026-05-01T15:51:19.5Z</time></trkpt><trkpt lat="42.3407409" lon="14.1338273"><ele>54.166666666666664</ele><time>2026-05-01T15:51:20.501Z</time></trkpt><trkpt lat="42.3407265" lon="14.1337336"><ele>54.0</ele><time>2026-05-01T15:51:21.51Z</time></trkpt><trkpt lat="42.340703" lon="14.1336399"><ele>53.800000000000004</ele><time>2026-05-01T15:51:22.501Z</time></trkpt><trkpt lat="42.3407002" lon="14.1335361"><ele>53.60000000000001</ele><time>2026-05-01T15:51:23.512Z</time></trkpt><trkpt lat="42.3407284" lon="14.1334146"><ele>53.4</ele><time>2026-05-01T15:51:24.5Z</time></trkpt><trkpt lat="42.3407765" lon="14.1332727"><ele>53.2</ele><time>2026-05-01T15:51:25.504Z</time></trkpt><trkpt lat="42.3408462" lon="14.1331314"><ele>53.0</ele><time>2026-05-01T15:51:26.482Z</time></trkpt><trkpt lat="42.3409264" lon="14.1329944"><ele>52.5</ele><time>2026-05-01T15:51:27.505Z</time></trkpt><trkpt lat="42.3409994" lon="14.1328554"><ele>52.0</ele><time>2026-05-01T15:51:28.505Z</time></trkpt><trkpt lat="42.341068" lon="14.1327343"><ele>51.5</ele><time>2026-05-01T15:51:29.511Z</time></trkpt><trkpt lat="42.3411454" lon="14.1326278"><ele>51.0</ele><time>2026-05-01T15:51:30.508Z</time></trkpt><trkpt lat="42.34122" lon="14.1325235"><ele>51.0</ele><time>2026-05-01T15:51:31.518Z</time></trkpt><trkpt lat="42.3413025" lon="14.1324222"><ele>51.0</ele><time>2026-05-01T15:51:32.512Z</time></trkpt><trkpt lat="42.3413783" lon="14.1323175"><ele>51.0</ele><time>2026-05-01T15:51:33.514Z</time></trkpt><trkpt lat="42.3414478" lon="14.1321999"><ele>51.0</ele><time>2026-05-01T15:51:34.508Z</time></trkpt><trkpt lat="42.3415071" lon="14.1320669"><ele>51.0</ele><time>2026-05-01T15:51:35.487Z</time></trkpt><trkpt lat="42.3415584" lon="14.1319272"><ele>50.25</ele><time>2026-05-01T15:51:36.486Z</time></trkpt><trkpt lat="42.3415995" lon="14.1317857"><ele>49.5</ele><time>2026-05-01T15:51:37.503Z</time></trkpt><trkpt lat="42.3416391" lon="14.1316426"><ele>48.75</ele><time>2026-05-01T15:51:38.472Z</time></trkpt><trkpt lat="42.3416869" lon="14.1314932"><ele>48.0</ele><time>2026-05-01T15:51:39.473Z</time></trkpt><trkpt lat="42.3417206" lon="14.1313536"><ele>47.833333333333336</ele><time>2026-05-01T15:51:40.484Z</time></trkpt><trkpt lat="42.3417557" lon="14.131227"><ele>47.666666666666664</ele><time>2026-05-01T15:51:41.466Z</time></trkpt><trkpt lat="42.3417987" lon="14.1311481"><ele>47.5</ele><time>2026-05-01T15:51:42.48Z</time></trkpt><trkpt lat="42.3418538" lon="14.1310711"><ele>47.33333333333333</ele><time>2026-05-01T15:51:43.493Z</time></trkpt><trkpt lat="42.3418813" lon="14.1309637"><ele>47.166666666666664</ele><time>2026-05-01T15:51:44.506Z</time></trkpt><trkpt lat="42.3418973" lon="14.1308531"><ele>47.0</ele><time>2026-05-01T15:51:45.491Z</time></trkpt><trkpt lat="42.3419159" lon="14.1307108"><ele>46.8</ele><time>2026-05-01T15:51:46.503Z</time></trkpt><trkpt lat="42.3419413" lon="14.1305718"><ele>46.6</ele><time>2026-05-01T15:51:47.492Z</time></trkpt><trkpt lat="42.3419583" lon="14.130442"><ele>46.4</ele><time>2026-05-01T15:51:48.49Z</time></trkpt><trkpt lat="42.3419812" lon="14.130311"><ele>46.199999999999996</ele><time>2026-05-01T15:51:49.487Z</time></trkpt><trkpt lat="42.342003" lon="14.1301864"><ele>46.0</ele><time>2026-05-01T15:51:50.459Z</time></trkpt><trkpt lat="42.3420274" lon="14.1300874"><ele>46.0</ele><time>2026-05-01T15:51:51.464Z</time></trkpt><trkpt lat="42.3420362" lon="14.1299923"><ele>46.0</ele><time>2026-05-01T15:51:52.477Z</time></trkpt><trkpt lat="42.3420447" lon="14.1298304"><ele>46.0</ele><time>2026-05-01T15:51:54.482Z</time></trkpt><trkpt lat="42.3420549" lon="14.1297441"><ele>46.0</ele><time>2026-05-01T15:51:55.472Z</time></trkpt><trkpt lat="42.3420879" lon="14.1296656"><ele>46.0</ele><time>2026-05-01T15:51:56.475Z</time></trkpt><trkpt lat="42.3421339" lon="14.1295958"><ele>46.0</ele><time>2026-05-01T15:51:57.478Z</time></trkpt><trkpt lat="42.3421724" lon="14.1295133"><ele>45.66666666666667</ele><time>2026-05-01T15:51:58.488Z</time></trkpt><trkpt lat="42.3421943" lon="14.1294208"><ele>45.333333333333336</ele><time>2026-05-01T15:51:59.476Z</time></trkpt><trkpt lat="42.3421852" lon="14.129319"><ele>45.0</ele><time>2026-05-01T15:52:00.501Z</time></trkpt><trkpt lat="42.3421409" lon="14.1292195"><ele>44.666666666666664</ele><time>2026-05-01T15:52:01.509Z</time></trkpt><trkpt lat="42.3420718" lon="14.1291496"><ele>44.33333333333333</ele><time>2026-05-01T15:52:02.504Z</time></trkpt><trkpt lat="42.3419887" lon="14.1290819"><ele>44.0</ele><time>2026-05-01T15:52:03.504Z</time></trkpt><trkpt lat="42.3419124" lon="14.1289985"><ele>42.75</ele><time>2026-05-01T15:52:04.501Z</time></trkpt><trkpt lat="42.3418565" lon="14.1288787"><ele>41.5</ele><time>2026-05-01T15:52:05.511Z</time></trkpt><trkpt lat="42.3418283" lon="14.1287129"><ele>40.25</ele><time>2026-05-01T15:52:06.502Z</time></trkpt><trkpt lat="42.3417953" lon="14.1285419"><ele>39.0</ele><time>2026-05-01T15:52:07.506Z</time></trkpt><trkpt lat="42.3417629" lon="14.1283575"><ele>38.333333333333336</ele><time>2026-05-01T15:52:08.497Z</time></trkpt><trkpt lat="42.3417419" lon="14.1281364"><ele>37.66666666666667</ele><time>2026-05-01T15:52:09.496Z</time></trkpt><trkpt lat="42.3417432" lon="14.1279165"><ele>37.0</ele><time>2026-05-01T15:52:10.497Z</time></trkpt><trkpt lat="42.3416881" lon="14.1276919"><ele>37.0</ele><time>2026-05-01T15:52:11.495Z</time></trkpt><trkpt lat="42.3416582" lon="14.1274909"><ele>37.0</ele><time>2026-05-01T15:52:12.512Z</time></trkpt><trkpt lat="42.3416446" lon="14.1273033"><ele>37.0</ele><time>2026-05-01T15:52:13.481Z</time></trkpt><trkpt lat="42.3416156" lon="14.1271151"><ele>37.0</ele><time>2026-05-01T15:52:14.497Z</time></trkpt><trkpt lat="42.3415825" lon="14.1269402"><ele>36.5</ele><time>2026-05-01T15:52:15.489Z</time></trkpt><trkpt lat="42.3415545" lon="14.1267532"><ele>36.0</ele><time>2026-05-01T15:52:16.513Z</time></trkpt><trkpt lat="42.3415298" lon="14.1265558"><ele>35.5</ele><time>2026-05-01T15:52:17.511Z</time></trkpt><trkpt lat="42.3414977" lon="14.1263712"><ele>35.0</ele><time>2026-05-01T15:52:18.512Z</time></trkpt><trkpt lat="42.3414595" lon="14.1261847"><ele>34.75</ele><time>2026-05-01T15:52:19.512Z</time></trkpt><trkpt lat="42.3414293" lon="14.1259961"><ele>34.5</ele><time>2026-05-01T15:52:20.486Z</time></trkpt><trkpt lat="42.3414031" lon="14.1258029"><ele>34.25</ele><time>2026-05-01T15:52:21.518Z</time></trkpt><trkpt lat="42.3413772" lon="14.1256171"><ele>34.0</ele><time>2026-05-01T15:52:22.513Z</time></trkpt><trkpt lat="42.3413482" lon="14.1254265"><ele>34.0</ele><time>2026-05-01T15:52:23.515Z</time></trkpt><trkpt lat="42.341316" lon="14.125231"><ele>34.0</ele><time>2026-05-01T15:52:24.507Z</time></trkpt><trkpt lat="42.341292" lon="14.125039"><ele>34.0</ele><time>2026-05-01T15:52:25.52Z</time></trkpt><trkpt lat="42.3412627" lon="14.1248608"><ele>34.0</ele><time>2026-05-01T15:52:26.512Z</time></trkpt><trkpt lat="42.3412301" lon="14.1246703"><ele>34.25</ele><time>2026-05-01T15:52:27.511Z</time></trkpt><trkpt lat="42.3411917" lon="14.1244736"><ele>34.5</ele><time>2026-05-01T15:52:28.52Z</time></trkpt><trkpt lat="42.3411619" lon="14.1242798"><ele>34.75</ele><time>2026-05-01T15:52:29.508Z</time></trkpt><trkpt lat="42.3411262" lon="14.1240918"><ele>35.0</ele><time>2026-05-01T15:52:30.512Z</time></trkpt><trkpt lat="42.3410806" lon="14.1239039"><ele>35.0</ele><time>2026-05-01T15:52:31.509Z</time></trkpt><trkpt lat="42.3410633" lon="14.1237185"><ele>35.0</ele><time>2026-05-01T15:52:32.512Z</time></trkpt><trkpt lat="42.3410302" lon="14.1235316"><ele>35.0</ele><time>2026-05-01T15:52:33.509Z</time></trkpt><trkpt lat="42.3410089" lon="14.1233526"><ele>35.0</ele><time>2026-05-01T15:52:34.504Z</time></trkpt><trkpt lat="42.3409865" lon="14.1231713"><ele>35.0</ele><time>2026-05-01T15:52:35.505Z</time></trkpt><trkpt lat="42.3409649" lon="14.1229918"><ele>35.0</ele><time>2026-05-01T15:52:36.507Z</time></trkpt><trkpt lat="42.3409277" lon="14.1228187"><ele>35.0</ele><time>2026-05-01T15:52:37.513Z</time></trkpt><trkpt lat="42.340887" lon="14.1226229"><ele>35.0</ele><time>2026-05-01T15:52:38.511Z</time></trkpt><trkpt lat="42.3409171" lon="14.1224535"><ele>34.75</ele><time>2026-05-01T15:52:39.484Z</time></trkpt><trkpt lat="42.3409159" lon="14.1222818"><ele>34.5</ele><time>2026-05-01T15:52:40.484Z</time></trkpt><trkpt lat="42.3409207" lon="14.1221199"><ele>34.25</ele><time>2026-05-01T15:52:41.488Z</time></trkpt><trkpt lat="42.3409203" lon="14.1219557"><ele>34.0</ele><time>2026-05-01T15:52:42.484Z</time></trkpt><trkpt lat="42.3409303" lon="14.1218156"><ele>34.0</ele><time>2026-05-01T15:52:43.485Z</time></trkpt><trkpt lat="42.3409596" lon="14.121699"><ele>34.0</ele><time>2026-05-01T15:52:44.511Z</time></trkpt><trkpt lat="42.3410057" lon="14.1216218"><ele>34.0</ele><time>2026-05-01T15:52:45.503Z</time></trkpt><trkpt lat="42.3410611" lon="14.1215686"><ele>34.0</ele><time>2026-05-01T15:52:46.502Z</time></trkpt><trkpt lat="42.3411373" lon="14.1215299"><ele>34.0</ele><time>2026-05-01T15:52:47.502Z</time></trkpt><trkpt lat="42.3412039" lon="14.1214704"><ele>34.0</ele><time>2026-05-01T15:52:48.501Z</time></trkpt><trkpt lat="42.3412544" lon="14.1213897"><ele>33.8</ele><time>2026-05-01T15:52:49.479Z</time></trkpt><trkpt lat="42.3412855" lon="14.1212819"><ele>33.599999999999994</ele><time>2026-05-01T15:52:50.505Z</time></trkpt><trkpt lat="42.3412915" lon="14.1211514"><ele>33.4</ele><time>2026-05-01T15:52:51.509Z</time></trkpt><trkpt lat="42.3413074" lon="14.1210034"><ele>33.199999999999996</ele><time>2026-05-01T15:52:52.485Z</time></trkpt><trkpt lat="42.3413533" lon="14.1208482"><ele>33.0</ele><time>2026-05-01T15:52:53.504Z</time></trkpt><trkpt lat="42.3414317" lon="14.1206936"><ele>33.0</ele><time>2026-05-01T15:52:54.514Z</time></trkpt><trkpt lat="42.3415196" lon="14.120525"><ele>33.0</ele><time>2026-05-01T15:52:55.514Z</time></trkpt><trkpt lat="42.3416295" lon="14.1203373"><ele>33.0</ele><time>2026-05-01T15:52:56.496Z</time></trkpt><trkpt lat="42.3417485" lon="14.120171"><ele>33.0</ele><time>2026-05-01T15:52:57.51Z</time></trkpt><trkpt lat="42.341832" lon="14.1199907"><ele>33.0</ele><time>2026-05-01T15:52:58.511Z</time></trkpt><trkpt lat="42.341911" lon="14.1198155"><ele>33.0</ele><time>2026-05-01T15:52:59.481Z</time></trkpt><trkpt lat="42.3419943" lon="14.1196314"><ele>33.0</ele><time>2026-05-01T15:53:00.508Z</time></trkpt><trkpt lat="42.3421025" lon="14.1194785"><ele>33.0</ele><time>2026-05-01T15:53:01.513Z</time></trkpt><trkpt lat="42.3421899" lon="14.1193288"><ele>33.0</ele><time>2026-05-01T15:53:02.514Z</time></trkpt><trkpt lat="42.3422793" lon="14.1191662"><ele>33.0</ele><time>2026-05-01T15:53:03.507Z</time></trkpt><trkpt lat="42.3423665" lon="14.1190046"><ele>33.0</ele><time>2026-05-01T15:53:04.511Z</time></trkpt><trkpt lat="42.3424308" lon="14.1188301"><ele>33.0</ele><time>2026-05-01T15:53:05.484Z</time></trkpt><trkpt lat="42.3425132" lon="14.1186665"><ele>33.0</ele><time>2026-05-01T15:53:06.502Z</time></trkpt><trkpt lat="42.3425759" lon="14.1184727"><ele>33.0</ele><time>2026-05-01T15:53:07.505Z</time></trkpt><trkpt lat="42.3426118" lon="14.1182756"><ele>34.5</ele><time>2026-05-01T15:53:08.511Z</time></trkpt><trkpt lat="42.3426451" lon="14.1180791"><ele>36.0</ele><time>2026-05-01T15:53:09.509Z</time></trkpt><trkpt lat="42.3426675" lon="14.117897"><ele>37.5</ele><time>2026-05-01T15:53:10.508Z</time></trkpt><trkpt lat="42.3426916" lon="14.1177097"><ele>39.0</ele><time>2026-05-01T15:53:11.521Z</time></trkpt><trkpt lat="42.3427197" lon="14.1175362"><ele>40.5</ele><time>2026-05-01T15:53:12.513Z</time></trkpt><trkpt lat="42.3427662" lon="14.1173712"><ele>42.0</ele><time>2026-05-01T15:53:13.51Z</time></trkpt><trkpt lat="42.3427889" lon="14.1172032"><ele>43.5</ele><time>2026-05-01T15:53:14.51Z</time></trkpt><trkpt lat="42.3428194" lon="14.1170362"><ele>45.0</ele><time>2026-05-01T15:53:15.485Z</time></trkpt><trkpt lat="42.3428558" lon="14.1168522"><ele>45.0</ele><time>2026-05-01T15:53:16.511Z</time></trkpt><trkpt lat="42.3428932" lon="14.1166316"><ele>45.0</ele><time>2026-05-01T15:53:17.502Z</time></trkpt><trkpt lat="42.3429364" lon="14.1164247"><ele>45.0</ele><time>2026-05-01T15:53:18.492Z</time></trkpt><trkpt lat="42.3429716" lon="14.1162232"><ele>45.25</ele><time>2026-05-01T15:53:19.486Z</time></trkpt><trkpt lat="42.3430185" lon="14.116026"><ele>45.5</ele><time>2026-05-01T15:53:20.494Z</time></trkpt><trkpt lat="42.3430504" lon="14.1158333"><ele>45.75</ele><time>2026-05-01T15:53:21.493Z</time></trkpt><trkpt lat="42.3430804" lon="14.1156385"><ele>46.0</ele><time>2026-05-01T15:53:22.488Z</time></trkpt><trkpt lat="42.3431149" lon="14.1154482"><ele>46.5</ele><time>2026-05-01T15:53:23.487Z</time></trkpt><trkpt lat="42.3431392" lon="14.1152806"><ele>47.0</ele><time>2026-05-01T15:53:24.483Z</time></trkpt><trkpt lat="42.3431691" lon="14.1151234"><ele>47.5</ele><time>2026-05-01T15:53:25.485Z</time></trkpt><trkpt lat="42.3432031" lon="14.1149428"><ele>48.0</ele><time>2026-05-01T15:53:26.492Z</time></trkpt><trkpt lat="42.3432285" lon="14.1147632"><ele>48.0</ele><time>2026-05-01T15:53:27.486Z</time></trkpt><trkpt lat="42.3432647" lon="14.1145655"><ele>48.0</ele><time>2026-05-01T15:53:28.497Z</time></trkpt><trkpt lat="42.3433071" lon="14.1143799"><ele>48.0</ele><time>2026-05-01T15:53:29.485Z</time></trkpt><trkpt lat="42.3433282" lon="14.1141808"><ele>48.0</ele><time>2026-05-01T15:53:30.493Z</time></trkpt><trkpt lat="42.3433511" lon="14.1139785"><ele>47.75</ele><time>2026-05-01T15:53:31.486Z</time></trkpt><trkpt lat="42.3433697" lon="14.1137862"><ele>47.5</ele><time>2026-05-01T15:53:32.496Z</time></trkpt><trkpt lat="42.3434232" lon="14.1136078"><ele>47.25</ele><time>2026-05-01T15:53:33.482Z</time></trkpt><trkpt lat="42.3434419" lon="14.1134064"><ele>47.0</ele><time>2026-05-01T15:53:34.523Z</time></trkpt><trkpt lat="42.3434623" lon="14.1132107"><ele>47.0</ele><time>2026-05-01T15:53:35.513Z</time></trkpt><trkpt lat="42.3434901" lon="14.1130074"><ele>47.0</ele><time>2026-05-01T15:53:36.506Z</time></trkpt><trkpt lat="42.3435099" lon="14.112796"><ele>47.0</ele><time>2026-05-01T15:53:37.5Z</time></trkpt><trkpt lat="42.3435341" lon="14.1126284"><ele>47.0</ele><time>2026-05-01T15:53:38.505Z</time></trkpt><trkpt lat="42.3435582" lon="14.1124719"><ele>47.0</ele><time>2026-05-01T15:53:39.506Z</time></trkpt><trkpt lat="42.3435803" lon="14.1123041"><ele>47.0</ele><time>2026-05-01T15:53:40.506Z</time></trkpt><trkpt lat="42.343606" lon="14.1121585"><ele>47.0</ele><time>2026-05-01T15:53:41.52Z</time></trkpt><trkpt lat="42.3436124" lon="14.1120259"><ele>47.0</ele><time>2026-05-01T15:53:42.509Z</time></trkpt><trkpt lat="42.3436285" lon="14.1118955"><ele>47.0</ele><time>2026-05-01T15:53:43.517Z</time></trkpt><trkpt lat="42.3436384" lon="14.1117632"><ele>47.0</ele><time>2026-05-01T15:53:44.505Z</time></trkpt><trkpt lat="42.3436532" lon="14.1116332"><ele>47.0</ele><time>2026-05-01T15:53:45.513Z</time></trkpt><trkpt lat="42.3436752" lon="14.1115181"><ele>47.0</ele><time>2026-05-01T15:53:46.508Z</time></trkpt><trkpt lat="42.3437065" lon="14.1114191"><ele>47.0</ele><time>2026-05-01T15:53:47.489Z</time></trkpt><trkpt lat="42.3438122" lon="14.111367"><ele>47.0</ele><time>2026-05-01T15:53:49.523Z</time></trkpt><trkpt lat="42.3438879" lon="14.1114182"><ele>47.25</ele><time>2026-05-01T15:53:50.506Z</time></trkpt><trkpt lat="42.3439794" lon="14.1114948"><ele>47.5</ele><time>2026-05-01T15:53:51.485Z</time></trkpt><trkpt lat="42.3440874" lon="14.1115872"><ele>47.75</ele><time>2026-05-01T15:53:52.484Z</time></trkpt><trkpt lat="42.3442101" lon="14.1116864"><ele>48.0</ele><time>2026-05-01T15:53:53.518Z</time></trkpt><trkpt lat="42.34431" lon="14.1118585"><ele>48.0</ele><time>2026-05-01T15:53:54.498Z</time></trkpt><trkpt lat="42.3444455" lon="14.1119837"><ele>48.0</ele><time>2026-05-01T15:53:55.514Z</time></trkpt><trkpt lat="42.3445584" lon="14.1120733"><ele>48.0</ele><time>2026-05-01T15:53:56.511Z</time></trkpt><trkpt lat="42.3446698" lon="14.112173"><ele>48.0</ele><time>2026-05-01T15:53:57.514Z</time></trkpt><trkpt lat="42.3447855" lon="14.1122539"><ele>47.5</ele><time>2026-05-01T15:53:58.49Z</time></trkpt><trkpt lat="42.3448951" lon="14.1123199"><ele>47.0</ele><time>2026-05-01T15:53:59.518Z</time></trkpt><trkpt lat="42.3449843" lon="14.1123745"><ele>46.5</ele><time>2026-05-01T15:54:00.508Z</time></trkpt><trkpt lat="42.3450966" lon="14.1124251"><ele>46.0</ele><time>2026-05-01T15:54:01.506Z</time></trkpt><trkpt lat="42.3452107" lon="14.1124799"><ele>46.0</ele><time>2026-05-01T15:54:02.504Z</time></trkpt><trkpt lat="42.3453345" lon="14.1125268"><ele>46.0</ele><time>2026-05-01T15:54:03.518Z</time></trkpt><trkpt lat="42.3454644" lon="14.1125668"><ele>46.0</ele><time>2026-05-01T15:54:04.489Z</time></trkpt><trkpt lat="42.3455942" lon="14.1126032"><ele>46.0</ele><time>2026-05-01T15:54:05.515Z</time></trkpt><trkpt lat="42.3457246" lon="14.1126386"><ele>46.0</ele><time>2026-05-01T15:54:06.511Z</time></trkpt><trkpt lat="42.3458546" lon="14.1126686"><ele>46.0</ele><time>2026-05-01T15:54:07.516Z</time></trkpt><trkpt lat="42.3459864" lon="14.1126946"><ele>46.0</ele><time>2026-05-01T15:54:08.518Z</time></trkpt><trkpt lat="42.3461171" lon="14.1127229"><ele>46.0</ele><time>2026-05-01T15:54:09.51Z</time></trkpt><trkpt lat="42.3462443" lon="14.1127684"><ele>46.0</ele><time>2026-05-01T15:54:10.495Z</time></trkpt><trkpt lat="42.3463719" lon="14.1128281"><ele>46.0</ele><time>2026-05-01T15:54:11.488Z</time></trkpt><trkpt lat="42.3465131" lon="14.1128966"><ele>46.0</ele><time>2026-05-01T15:54:12.498Z</time></trkpt><trkpt lat="42.3466566" lon="14.1129681"><ele>46.0</ele><time>2026-05-01T15:54:13.486Z</time></trkpt><trkpt lat="42.3468098" lon="14.1130582"><ele>45.66666666666667</ele><time>2026-05-01T15:54:14.489Z</time></trkpt><trkpt lat="42.3469715" lon="14.1131452"><ele>45.333333333333336</ele><time>2026-05-01T15:54:15.486Z</time></trkpt><trkpt lat="42.347137" lon="14.1132348"><ele>45.0</ele><time>2026-05-01T15:54:16.493Z</time></trkpt><trkpt lat="42.3472928" lon="14.1133246"><ele>45.0</ele><time>2026-05-01T15:54:17.502Z</time></trkpt><trkpt lat="42.3474169" lon="14.113391"><ele>45.0</ele><time>2026-05-01T15:54:18.505Z</time></trkpt><trkpt lat="42.3475423" lon="14.1134671"><ele>45.0</ele><time>2026-05-01T15:54:19.481Z</time></trkpt><trkpt lat="42.3476657" lon="14.113518"><ele>45.0</ele><time>2026-05-01T15:54:20.514Z</time></trkpt><trkpt lat="42.3477759" lon="14.1135726"><ele>45.0</ele><time>2026-05-01T15:54:21.509Z</time></trkpt><trkpt lat="42.3478789" lon="14.1136155"><ele>45.0</ele><time>2026-05-01T15:54:22.516Z</time></trkpt><trkpt lat="42.3479939" lon="14.1136641"><ele>45.0</ele><time>2026-05-01T15:54:23.489Z</time></trkpt><trkpt lat="42.3481096" lon="14.1136961"><ele>45.0</ele><time>2026-05-01T15:54:24.514Z</time></trkpt><trkpt lat="42.3482335" lon="14.1137085"><ele>45.0</ele><time>2026-05-01T15:54:25.513Z</time></trkpt><trkpt lat="42.3483527" lon="14.113701"><ele>45.0</ele><time>2026-05-01T15:54:26.505Z</time></trkpt><trkpt lat="42.3484974" lon="14.113662"><ele>45.0</ele><time>2026-05-01T15:54:27.502Z</time></trkpt><trkpt lat="42.3486371" lon="14.1135949"><ele>45.0</ele><time>2026-05-01T15:54:28.509Z</time></trkpt><trkpt lat="42.3487806" lon="14.1134911"><ele>44.0</ele><time>2026-05-01T15:54:29.512Z</time></trkpt><trkpt lat="42.3489423" lon="14.113392"><ele>43.0</ele><time>2026-05-01T15:54:30.511Z</time></trkpt><trkpt lat="42.3490803" lon="14.1133151"><ele>42.0</ele><time>2026-05-01T15:54:31.512Z</time></trkpt><trkpt lat="42.349211" lon="14.1132315"><ele>41.75</ele><time>2026-05-01T15:54:32.513Z</time></trkpt><trkpt lat="42.3493354" lon="14.1131392"><ele>41.5</ele><time>2026-05-01T15:54:33.509Z</time></trkpt><trkpt lat="42.3494393" lon="14.1130621"><ele>41.25</ele><time>2026-05-01T15:54:34.518Z</time></trkpt><trkpt lat="42.3495354" lon="14.1129739"><ele>41.0</ele><time>2026-05-01T15:54:35.514Z</time></trkpt><trkpt lat="42.3496415" lon="14.1129188"><ele>41.75</ele><time>2026-05-01T15:54:36.518Z</time></trkpt><trkpt lat="42.3497437" lon="14.1128479"><ele>42.5</ele><time>2026-05-01T15:54:37.516Z</time></trkpt><trkpt lat="42.3498519" lon="14.1127938"><ele>43.25</ele><time>2026-05-01T15:54:38.52Z</time></trkpt><trkpt lat="42.3499623" lon="14.1127177"><ele>44.0</ele><time>2026-05-01T15:54:39.51Z</time></trkpt><trkpt lat="42.3500643" lon="14.1126523"><ele>44.0</ele><time>2026-05-01T15:54:40.523Z</time></trkpt><trkpt lat="42.3501743" lon="14.1125924"><ele>44.0</ele><time>2026-05-01T15:54:41.487Z</time></trkpt><trkpt lat="42.3503033" lon="14.1125528"><ele>44.0</ele><time>2026-05-01T15:54:42.515Z</time></trkpt><trkpt lat="42.3504441" lon="14.1125133"><ele>44.0</ele><time>2026-05-01T15:54:43.52Z</time></trkpt><trkpt lat="42.35061" lon="14.1125233"><ele>44.0</ele><time>2026-05-01T15:54:44.487Z</time></trkpt><trkpt lat="42.350751" lon="14.1125517"><ele>44.0</ele><time>2026-05-01T15:54:45.519Z</time></trkpt><trkpt lat="42.3509044" lon="14.1126018"><ele>44.0</ele><time>2026-05-01T15:54:46.506Z</time></trkpt><trkpt lat="42.3510669" lon="14.1126661"><ele>44.0</ele><time>2026-05-01T15:54:47.518Z</time></trkpt><trkpt lat="42.3512227" lon="14.112741"><ele>44.0</ele><time>2026-05-01T15:54:48.48Z</time></trkpt><trkpt lat="42.3513821" lon="14.1127957"><ele>44.0</ele><time>2026-05-01T15:54:49.491Z</time></trkpt><trkpt lat="42.3515234" lon="14.1128455"><ele>43.0</ele><time>2026-05-01T15:54:50.508Z</time></trkpt><trkpt lat="42.3516697" lon="14.1129076"><ele>42.0</ele><time>2026-05-01T15:54:51.513Z</time></trkpt><trkpt lat="42.3518178" lon="14.1129638"><ele>41.0</ele><time>2026-05-01T15:54:52.481Z</time></trkpt><trkpt lat="42.3519513" lon="14.1130288"><ele>40.0</ele><time>2026-05-01T15:54:53.489Z</time></trkpt><trkpt lat="42.3520731" lon="14.1130821"><ele>40.0</ele><time>2026-05-01T15:54:54.489Z</time></trkpt><trkpt lat="42.3521906" lon="14.1131299"><ele>40.0</ele><time>2026-05-01T15:54:55.496Z</time></trkpt><trkpt lat="42.3523252" lon="14.1131958"><ele>40.0</ele><time>2026-05-01T15:54:56.481Z</time></trkpt><trkpt lat="42.3524604" lon="14.1132524"><ele>40.0</ele><time>2026-05-01T15:54:57.493Z</time></trkpt><trkpt lat="42.352602" lon="14.1133126"><ele>38.66666666666667</ele><time>2026-05-01T15:54:58.488Z</time></trkpt><trkpt lat="42.3527539" lon="14.1133882"><ele>37.333333333333336</ele><time>2026-05-01T15:54:59.483Z</time></trkpt><trkpt lat="42.3529044" lon="14.1134413"><ele>36.0</ele><time>2026-05-01T15:55:00.494Z</time></trkpt><trkpt lat="42.353061" lon="14.1134893"><ele>35.666666666666664</ele><time>2026-05-01T15:55:01.515Z</time></trkpt><trkpt lat="42.3532259" lon="14.1135581"><ele>35.33333333333333</ele><time>2026-05-01T15:55:02.508Z</time></trkpt><trkpt lat="42.3533767" lon="14.1136195"><ele>35.0</ele><time>2026-05-01T15:55:03.512Z</time></trkpt><trkpt lat="42.3535261" lon="14.1136826"><ele>35.0</ele><time>2026-05-01T15:55:04.481Z</time></trkpt><trkpt lat="42.3536982" lon="14.1137422"><ele>35.0</ele><time>2026-05-01T15:55:05.484Z</time></trkpt><trkpt lat="42.353858" lon="14.1138052"><ele>35.0</ele><time>2026-05-01T15:55:06.489Z</time></trkpt><trkpt lat="42.3540105" lon="14.1138708"><ele>35.33333333333333</ele><time>2026-05-01T15:55:07.507Z</time></trkpt><trkpt lat="42.3541626" lon="14.1139314"><ele>35.666666666666664</ele><time>2026-05-01T15:55:08.507Z</time></trkpt><trkpt lat="42.3543217" lon="14.113998"><ele>36.0</ele><time>2026-05-01T15:55:09.492Z</time></trkpt><trkpt lat="42.3544715" lon="14.1140528"><ele>36.333333333333336</ele><time>2026-05-01T15:55:10.494Z</time></trkpt><trkpt lat="42.3546122" lon="14.1141075"><ele>36.66666666666667</ele><time>2026-05-01T15:55:11.51Z</time></trkpt><trkpt lat="42.3547682" lon="14.1141639"><ele>37.0</ele><time>2026-05-01T15:55:12.504Z</time></trkpt><trkpt lat="42.3549195" lon="14.1142253"><ele>37.0</ele><time>2026-05-01T15:55:13.518Z</time></trkpt><trkpt lat="42.3550647" lon="14.1142917"><ele>37.0</ele><time>2026-05-01T15:55:14.509Z</time></trkpt><trkpt lat="42.3552167" lon="14.1143538"><ele>37.0</ele><time>2026-05-01T15:55:15.521Z</time></trkpt><trkpt lat="42.3553605" lon="14.1144364"><ele>37.0</ele><time>2026-05-01T15:55:16.507Z</time></trkpt><trkpt lat="42.3555162" lon="14.1144889"><ele>37.0</ele><time>2026-05-01T15:55:17.516Z</time></trkpt><trkpt lat="42.3556735" lon="14.1145532"><ele>37.0</ele><time>2026-05-01T15:55:18.508Z</time></trkpt><trkpt lat="42.3558183" lon="14.1146192"><ele>40.333333333333336</ele><time>2026-05-01T15:55:19.513Z</time></trkpt><trkpt lat="42.355973" lon="14.1146823"><ele>43.666666666666664</ele><time>2026-05-01T15:55:20.504Z</time></trkpt><trkpt lat="42.3561359" lon="14.1147477"><ele>47.0</ele><time>2026-05-01T15:55:21.516Z</time></trkpt><trkpt lat="42.3562862" lon="14.1148065"><ele>47.666666666666664</ele><time>2026-05-01T15:55:22.514Z</time></trkpt><trkpt lat="42.3564429" lon="14.1148554"><ele>48.33333333333333</ele><time>2026-05-01T15:55:23.514Z</time></trkpt><trkpt lat="42.3565933" lon="14.1149275"><ele>49.0</ele><time>2026-05-01T15:55:24.509Z</time></trkpt><trkpt lat="42.3567467" lon="14.1149958"><ele>46.33333333333333</ele><time>2026-05-01T15:55:25.516Z</time></trkpt><trkpt lat="42.3569105" lon="14.1150515"><ele>43.666666666666664</ele><time>2026-05-01T15:55:26.505Z</time></trkpt><trkpt lat="42.3570705" lon="14.1151268"><ele>41.0</ele><time>2026-05-01T15:55:27.516Z</time></trkpt><trkpt lat="42.3572185" lon="14.1151941"><ele>41.0</ele><time>2026-05-01T15:55:28.491Z</time></trkpt><trkpt lat="42.357358" lon="14.1152431"><ele>41.0</ele><time>2026-05-01T15:55:29.521Z</time></trkpt><trkpt lat="42.3575169" lon="14.1153027"><ele>41.0</ele><time>2026-05-01T15:55:30.508Z</time></trkpt><trkpt lat="42.3576666" lon="14.11537"><ele>41.0</ele><time>2026-05-01T15:55:31.497Z</time></trkpt><trkpt lat="42.3578088" lon="14.115416"><ele>41.0</ele><time>2026-05-01T15:55:32.489Z</time></trkpt><trkpt lat="42.3579501" lon="14.1154709"><ele>41.0</ele><time>2026-05-01T15:55:33.52Z</time></trkpt><trkpt lat="42.3580928" lon="14.1155476"><ele>41.0</ele><time>2026-05-01T15:55:34.515Z</time></trkpt><trkpt lat="42.3582254" lon="14.1156147"><ele>41.0</ele><time>2026-05-01T15:55:35.496Z</time></trkpt><trkpt lat="42.3583815" lon="14.1156981"><ele>41.0</ele><time>2026-05-01T15:55:36.494Z</time></trkpt><trkpt lat="42.3585487" lon="14.1157717"><ele>41.0</ele><time>2026-05-01T15:55:37.488Z</time></trkpt><trkpt lat="42.3587175" lon="14.1158405"><ele>39.33333333333333</ele><time>2026-05-01T15:55:38.494Z</time></trkpt><trkpt lat="42.3589072" lon="14.1159069"><ele>37.666666666666664</ele><time>2026-05-01T15:55:39.49Z</time></trkpt><trkpt lat="42.359081" lon="14.1159614"><ele>36.0</ele><time>2026-05-01T15:55:40.496Z</time></trkpt><trkpt lat="42.3592827" lon="14.1160498"><ele>36.0</ele><time>2026-05-01T15:55:41.483Z</time></trkpt><trkpt lat="42.3594599" lon="14.1161419"><ele>36.0</ele><time>2026-05-01T15:55:42.493Z</time></trkpt><trkpt lat="42.3596464" lon="14.1162399"><ele>36.0</ele><time>2026-05-01T15:55:43.507Z</time></trkpt><trkpt lat="42.3598285" lon="14.1163139"><ele>36.333333333333336</ele><time>2026-05-01T15:55:44.488Z</time></trkpt><trkpt lat="42.3600298" lon="14.1164193"><ele>36.66666666666667</ele><time>2026-05-01T15:55:45.497Z</time></trkpt><trkpt lat="42.3602156" lon="14.1165054"><ele>37.0</ele><time>2026-05-01T15:55:46.509Z</time></trkpt><trkpt lat="42.3604095" lon="14.1166171"><ele>34.66666666666667</ele><time>2026-05-01T15:55:47.489Z</time></trkpt><trkpt lat="42.3605836" lon="14.1166852"><ele>32.333333333333336</ele><time>2026-05-01T15:55:48.52Z</time></trkpt><trkpt lat="42.360747" lon="14.116739"><ele>30.0</ele><time>2026-05-01T15:55:49.512Z</time></trkpt><trkpt lat="42.3609407" lon="14.1168177"><ele>30.0</ele><time>2026-05-01T15:55:50.52Z</time></trkpt><trkpt lat="42.3611288" lon="14.1168911"><ele>30.0</ele><time>2026-05-01T15:55:51.513Z</time></trkpt><trkpt lat="42.3613196" lon="14.1169615"><ele>30.0</ele><time>2026-05-01T15:55:52.522Z</time></trkpt><trkpt lat="42.361506" lon="14.1170284"><ele>32.0</ele><time>2026-05-01T15:55:53.512Z</time></trkpt><trkpt lat="42.3616948" lon="14.1170959"><ele>34.0</ele><time>2026-05-01T15:55:54.519Z</time></trkpt><trkpt lat="42.3618936" lon="14.1171902"><ele>36.0</ele><time>2026-05-01T15:55:55.507Z</time></trkpt><trkpt lat="42.3620664" lon="14.1172605"><ele>33.666666666666664</ele><time>2026-05-01T15:55:56.518Z</time></trkpt><trkpt lat="42.3622499" lon="14.1173519"><ele>31.333333333333332</ele><time>2026-05-01T15:55:57.504Z</time></trkpt><trkpt lat="42.3624242" lon="14.117446"><ele>29.0</ele><time>2026-05-01T15:55:58.509Z</time></trkpt><trkpt lat="42.3626217" lon="14.1175017"><ele>29.0</ele><time>2026-05-01T15:55:59.507Z</time></trkpt><trkpt lat="42.3628113" lon="14.1175498"><ele>29.0</ele><time>2026-05-01T15:56:00.514Z</time></trkpt><trkpt lat="42.3630097" lon="14.1175702"><ele>29.0</ele><time>2026-05-01T15:56:01.512Z</time></trkpt><trkpt lat="42.3632168" lon="14.1175968"><ele>29.666666666666664</ele><time>2026-05-01T15:56:02.523Z</time></trkpt><trkpt lat="42.3634057" lon="14.1175868"><ele>30.333333333333336</ele><time>2026-05-01T15:56:03.51Z</time></trkpt><trkpt lat="42.3635844" lon="14.1175848"><ele>31.0</ele><time>2026-05-01T15:56:04.519Z</time></trkpt><trkpt lat="42.3637475" lon="14.1175666"><ele>31.666666666666668</ele><time>2026-05-01T15:56:05.514Z</time></trkpt><trkpt lat="42.3639202" lon="14.1175593"><ele>32.333333333333336</ele><time>2026-05-01T15:56:06.522Z</time></trkpt><trkpt lat="42.3640975" lon="14.1176039"><ele>33.0</ele><time>2026-05-01T15:56:07.488Z</time></trkpt><trkpt lat="42.3642644" lon="14.1176524"><ele>33.0</ele><time>2026-05-01T15:56:08.513Z</time></trkpt><trkpt lat="42.3644483" lon="14.1177122"><ele>33.0</ele><time>2026-05-01T15:56:09.505Z</time></trkpt><trkpt lat="42.3646398" lon="14.1177931"><ele>33.0</ele><time>2026-05-01T15:56:10.498Z</time></trkpt><trkpt lat="42.3648263" lon="14.1179053"><ele>32.666666666666664</ele><time>2026-05-01T15:56:11.497Z</time></trkpt><trkpt lat="42.365016" lon="14.1180287"><ele>32.33333333333333</ele><time>2026-05-01T15:56:12.529Z</time></trkpt><trkpt lat="42.3652031" lon="14.1181319"><ele>32.0</ele><time>2026-05-01T15:56:13.518Z</time></trkpt><trkpt lat="42.3653881" lon="14.1182634"><ele>30.666666666666664</ele><time>2026-05-01T15:56:14.529Z</time></trkpt><trkpt lat="42.3655879" lon="14.1184011"><ele>29.333333333333336</ele><time>2026-05-01T15:56:15.514Z</time></trkpt><trkpt lat="42.3657782" lon="14.1185382"><ele>28.0</ele><time>2026-05-01T15:56:16.496Z</time></trkpt><trkpt lat="42.3659733" lon="14.1186697"><ele>28.0</ele><time>2026-05-01T15:56:17.519Z</time></trkpt><trkpt lat="42.3661697" lon="14.1188007"><ele>28.0</ele><time>2026-05-01T15:56:18.521Z</time></trkpt><trkpt lat="42.3663483" lon="14.1189166"><ele>28.0</ele><time>2026-05-01T15:56:19.527Z</time></trkpt><trkpt lat="42.3665086" lon="14.1190369"><ele>27.666666666666668</ele><time>2026-05-01T15:56:20.492Z</time></trkpt><trkpt lat="42.3666772" lon="14.1191634"><ele>27.333333333333336</ele><time>2026-05-01T15:56:21.506Z</time></trkpt><trkpt lat="42.3668468" lon="14.1192737"><ele>27.0</ele><time>2026-05-01T15:56:22.494Z</time></trkpt><trkpt lat="42.3670243" lon="14.1193997"><ele>27.333333333333336</ele><time>2026-05-01T15:56:23.507Z</time></trkpt><trkpt lat="42.3672136" lon="14.1195364"><ele>27.666666666666668</ele><time>2026-05-01T15:56:24.518Z</time></trkpt><trkpt lat="42.3673868" lon="14.1196559"><ele>28.0</ele><time>2026-05-01T15:56:25.519Z</time></trkpt><trkpt lat="42.3675619" lon="14.1197901"><ele>28.0</ele><time>2026-05-01T15:56:26.517Z</time></trkpt><trkpt lat="42.3677133" lon="14.1199032"><ele>28.0</ele><time>2026-05-01T15:56:27.491Z</time></trkpt><trkpt lat="42.3678519" lon="14.1199828"><ele>28.0</ele><time>2026-05-01T15:56:28.525Z</time></trkpt><trkpt lat="42.3679884" lon="14.1200678"><ele>28.333333333333336</ele><time>2026-05-01T15:56:29.514Z</time></trkpt><trkpt lat="42.3681255" lon="14.1201556"><ele>28.666666666666664</ele><time>2026-05-01T15:56:30.52Z</time></trkpt><trkpt lat="42.3682855" lon="14.1202376"><ele>29.0</ele><time>2026-05-01T15:56:31.519Z</time></trkpt><trkpt lat="42.3684391" lon="14.1202887"><ele>29.0</ele><time>2026-05-01T15:56:32.509Z</time></trkpt><trkpt lat="42.3686157" lon="14.1203271"><ele>29.0</ele><time>2026-05-01T15:56:33.52Z</time></trkpt><trkpt lat="42.3688066" lon="14.1203504"><ele>29.0</ele><time>2026-05-01T15:56:34.517Z</time></trkpt><trkpt lat="42.3690034" lon="14.1203898"><ele>31.666666666666664</ele><time>2026-05-01T15:56:35.523Z</time></trkpt><trkpt lat="42.3691991" lon="14.12041"><ele>34.333333333333336</ele><time>2026-05-01T15:56:36.52Z</time></trkpt><trkpt lat="42.3693883" lon="14.1204276"><ele>37.0</ele><time>2026-05-01T15:56:37.524Z</time></trkpt><trkpt lat="42.3696023" lon="14.1204455"><ele>37.0</ele><time>2026-05-01T15:56:38.516Z</time></trkpt><trkpt lat="42.369798" lon="14.120466"><ele>37.0</ele><time>2026-05-01T15:56:39.525Z</time></trkpt><trkpt lat="42.3700037" lon="14.1204929"><ele>37.0</ele><time>2026-05-01T15:56:40.516Z</time></trkpt><trkpt lat="42.3702024" lon="14.1205022"><ele>37.0</ele><time>2026-05-01T15:56:41.519Z</time></trkpt><trkpt lat="42.3703876" lon="14.120529"><ele>37.0</ele><time>2026-05-01T15:56:42.51Z</time></trkpt><trkpt lat="42.3705464" lon="14.1205527"><ele>37.0</ele><time>2026-05-01T15:56:43.518Z</time></trkpt><trkpt lat="42.3707164" lon="14.1205974"><ele>37.333333333333336</ele><time>2026-05-01T15:56:44.512Z</time></trkpt><trkpt lat="42.3709016" lon="14.1206683"><ele>37.666666666666664</ele><time>2026-05-01T15:56:45.501Z</time></trkpt><trkpt lat="42.3710995" lon="14.1207546"><ele>38.0</ele><time>2026-05-01T15:56:46.495Z</time></trkpt><trkpt lat="42.371276" lon="14.1208239"><ele>36.33333333333333</ele><time>2026-05-01T15:56:47.524Z</time></trkpt><trkpt lat="42.3714532" lon="14.1208911"><ele>34.666666666666664</ele><time>2026-05-01T15:56:48.515Z</time></trkpt><trkpt lat="42.3716305" lon="14.1209765"><ele>33.0</ele><time>2026-05-01T15:56:49.528Z</time></trkpt><trkpt lat="42.3717997" lon="14.1210534"><ele>33.0</ele><time>2026-05-01T15:56:50.521Z</time></trkpt><trkpt lat="42.3719572" lon="14.1211449"><ele>33.0</ele><time>2026-05-01T15:56:51.524Z</time></trkpt><trkpt lat="42.3721145" lon="14.1212266"><ele>33.0</ele><time>2026-05-01T15:56:52.521Z</time></trkpt><trkpt lat="42.3722867" lon="14.121315"><ele>33.333333333333336</ele><time>2026-05-01T15:56:53.517Z</time></trkpt><trkpt lat="42.3724453" lon="14.1214469"><ele>33.66666666666667</ele><time>2026-05-01T15:56:54.515Z</time></trkpt><trkpt lat="42.3725909" lon="14.1215979"><ele>34.0</ele><time>2026-05-01T15:56:55.524Z</time></trkpt><trkpt lat="42.3727309" lon="14.1217233"><ele>34.0</ele><time>2026-05-01T15:56:56.516Z</time></trkpt><trkpt lat="42.3728453" lon="14.1218385"><ele>34.0</ele><time>2026-05-01T15:56:57.523Z</time></trkpt><trkpt lat="42.3729658" lon="14.1219374"><ele>34.0</ele><time>2026-05-01T15:56:58.526Z</time></trkpt><trkpt lat="42.373081" lon="14.1220307"><ele>34.0</ele><time>2026-05-01T15:56:59.514Z</time></trkpt><trkpt lat="42.3731822" lon="14.1221151"><ele>34.6</ele><time>2026-05-01T15:57:00.517Z</time></trkpt><trkpt lat="42.3732758" lon="14.1221878"><ele>35.2</ele><time>2026-05-01T15:57:01.523Z</time></trkpt><trkpt lat="42.3733778" lon="14.1222679"><ele>35.800000000000004</ele><time>2026-05-01T15:57:02.517Z</time></trkpt><trkpt lat="42.3734812" lon="14.1223249"><ele>36.4</ele><time>2026-05-01T15:57:03.519Z</time></trkpt><trkpt lat="42.3735619" lon="14.1223651"><ele>37.0</ele><time>2026-05-01T15:57:04.526Z</time></trkpt><trkpt lat="42.3736349" lon="14.1224129"><ele>37.0</ele><time>2026-05-01T15:57:05.518Z</time></trkpt><trkpt lat="42.3737028" lon="14.1224591"><ele>37.0</ele><time>2026-05-01T15:57:06.526Z</time></trkpt><trkpt lat="42.3737628" lon="14.1225051"><ele>37.0</ele><time>2026-05-01T15:57:07.495Z</time></trkpt><trkpt lat="42.3738525" lon="14.122583"><ele>37.0</ele><time>2026-05-01T15:57:09.517Z</time></trkpt><trkpt lat="42.3739146" lon="14.1226446"><ele>37.0</ele><time>2026-05-01T15:57:12.526Z</time></trkpt><trkpt lat="42.3739994" lon="14.122709"><ele>37.0</ele><time>2026-05-01T15:58:14.502Z</time></trkpt><trkpt lat="42.3741138" lon="14.1228037"><ele>38.0</ele><time>2026-05-01T15:58:16.498Z</time></trkpt><trkpt lat="42.374202" lon="14.1228775"><ele>39.0</ele><time>2026-05-01T15:58:17.499Z</time></trkpt><trkpt lat="42.3742985" lon="14.1229548"><ele>40.0</ele><time>2026-05-01T15:58:18.499Z</time></trkpt><trkpt lat="42.3744056" lon="14.1230364"><ele>41.0</ele><time>2026-05-01T15:58:19.5Z</time></trkpt><trkpt lat="42.3745291" lon="14.1231236"><ele>41.0</ele><time>2026-05-01T15:58:20.501Z</time></trkpt><trkpt lat="42.3746566" lon="14.123219"><ele>41.0</ele><time>2026-05-01T15:58:21.503Z</time></trkpt><trkpt lat="42.374798" lon="14.1233425"><ele>41.0</ele><time>2026-05-01T15:58:22.492Z</time></trkpt><trkpt lat="42.3749492" lon="14.1234502"><ele>40.5</ele><time>2026-05-01T15:58:23.504Z</time></trkpt><trkpt lat="42.3750794" lon="14.1235492"><ele>40.0</ele><time>2026-05-01T15:58:24.493Z</time></trkpt><trkpt lat="42.3751962" lon="14.1236314"><ele>39.5</ele><time>2026-05-01T15:58:25.5Z</time></trkpt><trkpt lat="42.3752913" lon="14.1237322"><ele>39.0</ele><time>2026-05-01T15:58:26.499Z</time></trkpt><trkpt lat="42.3753918" lon="14.1238336"><ele>39.0</ele><time>2026-05-01T15:58:27.513Z</time></trkpt><trkpt lat="42.3754823" lon="14.1238999"><ele>39.0</ele><time>2026-05-01T15:58:28.514Z</time></trkpt><trkpt lat="42.3755822" lon="14.1239689"><ele>39.0</ele><time>2026-05-01T15:58:29.499Z</time></trkpt><trkpt lat="42.3756785" lon="14.1240269"><ele>39.0</ele><time>2026-05-01T15:58:30.5Z</time></trkpt><trkpt lat="42.3757765" lon="14.1240681"><ele>39.0</ele><time>2026-05-01T15:58:31.503Z</time></trkpt><trkpt lat="42.3758876" lon="14.1241018"><ele>38.833333333333336</ele><time>2026-05-01T15:58:32.5Z</time></trkpt><trkpt lat="42.3759948" lon="14.1241251"><ele>38.666666666666664</ele><time>2026-05-01T15:58:33.498Z</time></trkpt><trkpt lat="42.3760929" lon="14.1241431"><ele>38.5</ele><time>2026-05-01T15:58:34.502Z</time></trkpt><trkpt lat="42.3761765" lon="14.1241652"><ele>38.33333333333333</ele><time>2026-05-01T15:58:35.5Z</time></trkpt><trkpt lat="42.3762472" lon="14.1241972"><ele>38.166666666666664</ele><time>2026-05-01T15:58:36.496Z</time></trkpt><trkpt lat="42.376303" lon="14.1242425"><ele>38.0</ele><time>2026-05-01T15:58:37.498Z</time></trkpt><trkpt lat="42.3763492" lon="14.1243154"><ele>37.83333333333333</ele><time>2026-05-01T15:58:38.499Z</time></trkpt><trkpt lat="42.3763792" lon="14.124403"><ele>37.666666666666664</ele><time>2026-05-01T15:58:39.499Z</time></trkpt><trkpt lat="42.3764036" lon="14.1244932"><ele>37.5</ele><time>2026-05-01T15:58:40.502Z</time></trkpt><trkpt lat="42.3764516" lon="14.1245644"><ele>37.333333333333336</ele><time>2026-05-01T15:58:41.502Z</time></trkpt><trkpt lat="42.3765197" lon="14.1245949"><ele>37.16666666666667</ele><time>2026-05-01T15:58:42.507Z</time></trkpt><trkpt lat="42.3765974" lon="14.1245598"><ele>37.0</ele><time>2026-05-01T15:58:43.502Z</time></trkpt><trkpt lat="42.3766574" lon="14.1244726"><ele>37.0</ele><time>2026-05-01T15:58:44.519Z</time></trkpt><trkpt lat="42.3767009" lon="14.1243557"><ele>37.0</ele><time>2026-05-01T15:58:45.507Z</time></trkpt><trkpt lat="42.3767521" lon="14.1242248"><ele>37.0</ele><time>2026-05-01T15:58:46.514Z</time></trkpt><trkpt lat="42.3768301" lon="14.1241008"><ele>37.0</ele><time>2026-05-01T15:58:47.494Z</time></trkpt><trkpt lat="42.3769218" lon="14.1239884"><ele>38.400000000000006</ele><time>2026-05-01T15:58:48.509Z</time></trkpt><trkpt lat="42.3770036" lon="14.1238623"><ele>39.800000000000004</ele><time>2026-05-01T15:58:49.499Z</time></trkpt><trkpt lat="42.3770752" lon="14.1237325"><ele>41.2</ele><time>2026-05-01T15:58:50.492Z</time></trkpt><trkpt lat="42.3771425" lon="14.1236174"><ele>42.6</ele><time>2026-05-01T15:58:51.495Z</time></trkpt><trkpt lat="42.377209" lon="14.1235232"><ele>44.0</ele><time>2026-05-01T15:58:52.497Z</time></trkpt><trkpt lat="42.3772889" lon="14.1234488"><ele>44.5</ele><time>2026-05-01T15:58:53.489Z</time></trkpt><trkpt lat="42.3773872" lon="14.1233991"><ele>45.0</ele><time>2026-05-01T15:58:54.493Z</time></trkpt><trkpt lat="42.3774971" lon="14.1233837"><ele>45.5</ele><time>2026-05-01T15:58:55.485Z</time></trkpt><trkpt lat="42.377615" lon="14.1234055"><ele>46.0</ele><time>2026-05-01T15:58:56.489Z</time></trkpt><trkpt lat="42.3777306" lon="14.1234417"><ele>46.0</ele><time>2026-05-01T15:58:57.495Z</time></trkpt><trkpt lat="42.3778505" lon="14.1234847"><ele>46.0</ele><time>2026-05-01T15:58:58.497Z</time></trkpt><trkpt lat="42.3779795" lon="14.1235133"><ele>46.0</ele><time>2026-05-01T15:58:59.495Z</time></trkpt><trkpt lat="42.3781145" lon="14.1235331"><ele>46.0</ele><time>2026-05-01T15:59:00.494Z</time></trkpt><trkpt lat="42.3782474" lon="14.1235502"><ele>48.25</ele><time>2026-05-01T15:59:01.497Z</time></trkpt><trkpt lat="42.3783767" lon="14.1235801"><ele>50.5</ele><time>2026-05-01T15:59:02.495Z</time></trkpt><trkpt lat="42.3785144" lon="14.1235916"><ele>52.75</ele><time>2026-05-01T15:59:03.5Z</time></trkpt><trkpt lat="42.3786424" lon="14.1236235"><ele>55.0</ele><time>2026-05-01T15:59:04.512Z</time></trkpt><trkpt lat="42.3787784" lon="14.1236264"><ele>56.0</ele><time>2026-05-01T15:59:05.503Z</time></trkpt><trkpt lat="42.3789063" lon="14.1236477"><ele>57.0</ele><time>2026-05-01T15:59:06.499Z</time></trkpt><trkpt lat="42.3790251" lon="14.123687"><ele>58.0</ele><time>2026-05-01T15:59:07.504Z</time></trkpt><trkpt lat="42.379125" lon="14.1237164"><ele>59.0</ele><time>2026-05-01T15:59:08.498Z</time></trkpt><trkpt lat="42.3792237" lon="14.123749"><ele>59.00000000000001</ele><time>2026-05-01T15:59:09.503Z</time></trkpt><trkpt lat="42.3793174" lon="14.1237871"><ele>59.0</ele><time>2026-05-01T15:59:10.5Z</time></trkpt><trkpt lat="42.3793938" lon="14.1238334"><ele>59.0</ele><time>2026-05-01T15:59:11.509Z</time></trkpt><trkpt lat="42.3794635" lon="14.123883"><ele>59.0</ele><time>2026-05-01T15:59:12.504Z</time></trkpt><trkpt lat="42.3795354" lon="14.123946"><ele>59.00000000000001</ele><time>2026-05-01T15:59:13.502Z</time></trkpt><trkpt lat="42.3796006" lon="14.1240299"><ele>59.0</ele><time>2026-05-01T15:59:14.505Z</time></trkpt><trkpt lat="42.3796651" lon="14.124114"><ele>57.25</ele><time>2026-05-01T15:59:15.504Z</time></trkpt><trkpt lat="42.3797466" lon="14.1241931"><ele>55.5</ele><time>2026-05-01T15:59:16.514Z</time></trkpt><trkpt lat="42.37984" lon="14.1242727"><ele>53.75</ele><time>2026-05-01T15:59:17.502Z</time></trkpt><trkpt lat="42.3799454" lon="14.1243597"><ele>52.0</ele><time>2026-05-01T15:59:18.513Z</time></trkpt><trkpt lat="42.3800639" lon="14.1244496"><ele>52.0</ele><time>2026-05-01T15:59:19.501Z</time></trkpt><trkpt lat="42.3801946" lon="14.1245444"><ele>52.0</ele><time>2026-05-01T15:59:20.514Z</time></trkpt><trkpt lat="42.3803404" lon="14.124663"><ele>52.0</ele><time>2026-05-01T15:59:21.511Z</time></trkpt><trkpt lat="42.3804726" lon="14.1247539"><ele>50.666666666666664</ele><time>2026-05-01T15:59:22.521Z</time></trkpt><trkpt lat="42.3806051" lon="14.1248409"><ele>49.33333333333333</ele><time>2026-05-01T15:59:23.512Z</time></trkpt><trkpt lat="42.3807349" lon="14.1249547"><ele>48.0</ele><time>2026-05-01T15:59:24.513Z</time></trkpt><trkpt lat="42.3808644" lon="14.1250626"><ele>48.0</ele><time>2026-05-01T15:59:25.522Z</time></trkpt><trkpt lat="42.3809846" lon="14.1251409"><ele>48.0</ele><time>2026-05-01T15:59:26.515Z</time></trkpt><trkpt lat="42.3810906" lon="14.1252309"><ele>48.0</ele><time>2026-05-01T15:59:27.523Z</time></trkpt><trkpt lat="42.3812157" lon="14.1253189"><ele>48.0</ele><time>2026-05-01T15:59:28.514Z</time></trkpt><trkpt lat="42.3813494" lon="14.1254011"><ele>49.66666666666667</ele><time>2026-05-01T15:59:29.516Z</time></trkpt><trkpt lat="42.3814889" lon="14.1254899"><ele>51.333333333333336</ele><time>2026-05-01T15:59:30.513Z</time></trkpt><trkpt lat="42.3816238" lon="14.125579"><ele>53.0</ele><time>2026-05-01T15:59:31.518Z</time></trkpt><trkpt lat="42.3817626" lon="14.1256868"><ele>53.0</ele><time>2026-05-01T15:59:32.513Z</time></trkpt><trkpt lat="42.3819002" lon="14.1257935"><ele>53.0</ele><time>2026-05-01T15:59:33.512Z</time></trkpt><trkpt lat="42.3820116" lon="14.1258974"><ele>53.0</ele><time>2026-05-01T15:59:34.522Z</time></trkpt><trkpt lat="42.3821219" lon="14.1260076"><ele>53.0</ele><time>2026-05-01T15:59:35.512Z</time></trkpt><trkpt lat="42.3822208" lon="14.1261106"><ele>53.0</ele><time>2026-05-01T15:59:36.521Z</time></trkpt><trkpt lat="42.3823289" lon="14.1262051"><ele>53.0</ele><time>2026-05-01T15:59:37.514Z</time></trkpt><trkpt lat="42.382444" lon="14.1262996"><ele>53.0</ele><time>2026-05-01T15:59:38.511Z</time></trkpt><trkpt lat="42.3825532" lon="14.126375"><ele>53.0</ele><time>2026-05-01T15:59:39.517Z</time></trkpt><trkpt lat="42.3826631" lon="14.1264184"><ele>53.0</ele><time>2026-05-01T15:59:40.521Z</time></trkpt><trkpt lat="42.3827862" lon="14.126455"><ele>53.0</ele><time>2026-05-01T15:59:41.508Z</time></trkpt><trkpt lat="42.3829126" lon="14.1264687"><ele>53.0</ele><time>2026-05-01T15:59:42.514Z</time></trkpt><trkpt lat="42.3830356" lon="14.1264794"><ele>53.0</ele><time>2026-05-01T15:59:43.504Z</time></trkpt><trkpt lat="42.3831493" lon="14.1264778"><ele>53.0</ele><time>2026-05-01T15:59:44.504Z</time></trkpt><trkpt lat="42.3832474" lon="14.1264692"><ele>53.0</ele><time>2026-05-01T15:59:45.514Z</time></trkpt><trkpt lat="42.3833347" lon="14.1264624"><ele>53.0</ele><time>2026-05-01T15:59:46.505Z</time></trkpt><trkpt lat="42.383419" lon="14.1264658"><ele>53.0</ele><time>2026-05-01T15:59:47.503Z</time></trkpt><trkpt lat="42.3835019" lon="14.1264932"><ele>53.0</ele><time>2026-05-01T15:59:48.495Z</time></trkpt><trkpt lat="42.3835926" lon="14.1265469"><ele>50.25</ele><time>2026-05-01T15:59:49.49Z</time></trkpt><trkpt lat="42.3836915" lon="14.12661"><ele>47.5</ele><time>2026-05-01T15:59:50.499Z</time></trkpt><trkpt lat="42.3838038" lon="14.1266825"><ele>44.75</ele><time>2026-05-01T15:59:51.5Z</time></trkpt><trkpt lat="42.3839251" lon="14.1267627"><ele>42.0</ele><time>2026-05-01T15:59:52.51Z</time></trkpt><trkpt lat="42.3840553" lon="14.1268334"><ele>42.0</ele><time>2026-05-01T15:59:53.504Z</time></trkpt><trkpt lat="42.3841769" lon="14.1268935"><ele>42.0</ele><time>2026-05-01T15:59:54.508Z</time></trkpt><trkpt lat="42.3842993" lon="14.1269486"><ele>42.0</ele><time>2026-05-01T15:59:55.505Z</time></trkpt><trkpt lat="42.3844248" lon="14.1270048"><ele>42.0</ele><time>2026-05-01T15:59:56.498Z</time></trkpt><trkpt lat="42.3845532" lon="14.1270564"><ele>42.0</ele><time>2026-05-01T15:59:57.496Z</time></trkpt><trkpt lat="42.3846755" lon="14.1271063"><ele>42.0</ele><time>2026-05-01T15:59:58.509Z</time></trkpt><trkpt lat="42.3847924" lon="14.1271474"><ele>42.0</ele><time>2026-05-01T15:59:59.494Z</time></trkpt><trkpt lat="42.3849113" lon="14.1271875"><ele>42.0</ele><time>2026-05-01T16:00:00.496Z</time></trkpt><trkpt lat="42.3850348" lon="14.1272387"><ele>42.75</ele><time>2026-05-01T16:00:01.493Z</time></trkpt><trkpt lat="42.3851488" lon="14.1273255"><ele>43.5</ele><time>2026-05-01T16:00:02.495Z</time></trkpt><trkpt lat="42.3852602" lon="14.127427"><ele>44.25</ele><time>2026-05-01T16:00:03.497Z</time></trkpt><trkpt lat="42.385369" lon="14.1275433"><ele>45.0</ele><time>2026-05-01T16:00:04.486Z</time></trkpt><trkpt lat="42.3854899" lon="14.127702"><ele>42.75</ele><time>2026-05-01T16:00:05.504Z</time></trkpt><trkpt lat="42.3855862" lon="14.1278687"><ele>40.5</ele><time>2026-05-01T16:00:06.499Z</time></trkpt><trkpt lat="42.3856964" lon="14.1279908"><ele>38.25</ele><time>2026-05-01T16:00:07.502Z</time></trkpt><trkpt lat="42.3857987" lon="14.1281105"><ele>36.0</ele><time>2026-05-01T16:00:08.51Z</time></trkpt><trkpt lat="42.3859254" lon="14.1282281"><ele>35.666666666666664</ele><time>2026-05-01T16:00:09.503Z</time></trkpt><trkpt lat="42.3860674" lon="14.1283438"><ele>35.33333333333333</ele><time>2026-05-01T16:00:10.506Z</time></trkpt><trkpt lat="42.3861813" lon="14.1284625"><ele>35.0</ele><time>2026-05-01T16:00:11.502Z</time></trkpt><trkpt lat="42.386295" lon="14.1285881"><ele>35.5</ele><time>2026-05-01T16:00:12.501Z</time></trkpt><trkpt lat="42.3863859" lon="14.1287229"><ele>36.0</ele><time>2026-05-01T16:00:13.493Z</time></trkpt><trkpt lat="42.3864776" lon="14.1288734"><ele>36.5</ele><time>2026-05-01T16:00:14.501Z</time></trkpt><trkpt lat="42.3865557" lon="14.1290315"><ele>37.0</ele><time>2026-05-01T16:00:15.494Z</time></trkpt><trkpt lat="42.38663" lon="14.1291571"><ele>36.0</ele><time>2026-05-01T16:00:16.508Z</time></trkpt><trkpt lat="42.3867137" lon="14.1292588"><ele>35.0</ele><time>2026-05-01T16:00:17.498Z</time></trkpt><trkpt lat="42.3867776" lon="14.1293713"><ele>34.0</ele><time>2026-05-01T16:00:18.512Z</time></trkpt><trkpt lat="42.3868656" lon="14.1294719"><ele>33.0</ele><time>2026-05-01T16:00:19.5Z</time></trkpt><trkpt lat="42.3869569" lon="14.1295763"><ele>33.0</ele><time>2026-05-01T16:00:20.501Z</time></trkpt><trkpt lat="42.3870415" lon="14.1296723"><ele>33.0</ele><time>2026-05-01T16:00:21.506Z</time></trkpt><trkpt lat="42.3871238" lon="14.1297559"><ele>33.0</ele><time>2026-05-01T16:00:22.505Z</time></trkpt><trkpt lat="42.3872092" lon="14.1298376"><ele>33.0</ele><time>2026-05-01T16:00:23.511Z</time></trkpt><trkpt lat="42.3872983" lon="14.1299155"><ele>33.0</ele><time>2026-05-01T16:00:24.5Z</time></trkpt><trkpt lat="42.3873857" lon="14.1299933"><ele>32.8</ele><time>2026-05-01T16:00:25.507Z</time></trkpt><trkpt lat="42.3874757" lon="14.1300687"><ele>32.599999999999994</ele><time>2026-05-01T16:00:26.502Z</time></trkpt><trkpt lat="42.3875593" lon="14.1301475"><ele>32.400000000000006</ele><time>2026-05-01T16:00:27.505Z</time></trkpt><trkpt lat="42.387637" lon="14.1302267"><ele>32.2</ele><time>2026-05-01T16:00:28.501Z</time></trkpt><trkpt lat="42.3877097" lon="14.1302996"><ele>32.0</ele><time>2026-05-01T16:00:29.509Z</time></trkpt><trkpt lat="42.3877767" lon="14.1303724"><ele>31.999999999999996</ele><time>2026-05-01T16:00:30.502Z</time></trkpt><trkpt lat="42.387837" lon="14.1304379"><ele>32.0</ele><time>2026-05-01T16:00:31.517Z</time></trkpt><trkpt lat="42.387903" lon="14.1304981"><ele>32.0</ele><time>2026-05-01T16:00:32.501Z</time></trkpt><trkpt lat="42.3879746" lon="14.1305474"><ele>32.0</ele><time>2026-05-01T16:00:33.503Z</time></trkpt><trkpt lat="42.3880484" lon="14.1305853"><ele>31.999999999999996</ele><time>2026-05-01T16:00:34.498Z</time></trkpt><trkpt lat="42.3881355" lon="14.1306214"><ele>32.0</ele><time>2026-05-01T16:00:35.489Z</time></trkpt><trkpt lat="42.3882377" lon="14.1306648"><ele>32.0</ele><time>2026-05-01T16:00:36.502Z</time></trkpt><trkpt lat="42.3883534" lon="14.1307177"><ele>32.0</ele><time>2026-05-01T16:00:37.499Z</time></trkpt><trkpt lat="42.388473" lon="14.1307866"><ele>32.0</ele><time>2026-05-01T16:00:38.508Z</time></trkpt><trkpt lat="42.3885999" lon="14.1308655"><ele>32.0</ele><time>2026-05-01T16:00:39.506Z</time></trkpt><trkpt lat="42.3887309" lon="14.1309466"><ele>32.25</ele><time>2026-05-01T16:00:40.511Z</time></trkpt><trkpt lat="42.3888801" lon="14.131044"><ele>32.5</ele><time>2026-05-01T16:00:41.504Z</time></trkpt><trkpt lat="42.3890095" lon="14.131141"><ele>32.75</ele><time>2026-05-01T16:00:42.502Z</time></trkpt><trkpt lat="42.3891194" lon="14.131227"><ele>33.0</ele><time>2026-05-01T16:00:43.497Z</time></trkpt><trkpt lat="42.3892484" lon="14.1313029"><ele>33.0</ele><time>2026-05-01T16:00:44.508Z</time></trkpt><trkpt lat="42.389364" lon="14.1313945"><ele>33.0</ele><time>2026-05-01T16:00:45.5Z</time></trkpt><trkpt lat="42.3894928" lon="14.1314889"><ele>33.0</ele><time>2026-05-01T16:00:46.504Z</time></trkpt><trkpt lat="42.3895965" lon="14.1315863"><ele>33.0</ele><time>2026-05-01T16:00:47.498Z</time></trkpt><trkpt lat="42.389706" lon="14.1316716"><ele>32.5</ele><time>2026-05-01T16:00:48.503Z</time></trkpt><trkpt lat="42.3898235" lon="14.1317872"><ele>32.0</ele><time>2026-05-01T16:00:49.507Z</time></trkpt><trkpt lat="42.3899356" lon="14.1318969"><ele>31.5</ele><time>2026-05-01T16:00:50.497Z</time></trkpt><trkpt lat="42.3900442" lon="14.1319905"><ele>31.0</ele><time>2026-05-01T16:00:51.505Z</time></trkpt><trkpt lat="42.3901627" lon="14.1320941"><ele>31.0</ele><time>2026-05-01T16:00:52.501Z</time></trkpt><trkpt lat="42.3902645" lon="14.1321918"><ele>31.0</ele><time>2026-05-01T16:00:53.513Z</time></trkpt><trkpt lat="42.390384" lon="14.1323024"><ele>31.0</ele><time>2026-05-01T16:00:54.498Z</time></trkpt><trkpt lat="42.3904881" lon="14.1324022"><ele>31.0</ele><time>2026-05-01T16:00:55.5Z</time></trkpt><trkpt lat="42.3906019" lon="14.1325083"><ele>30.75</ele><time>2026-05-01T16:00:56.505Z</time></trkpt><trkpt lat="42.3907226" lon="14.1326052"><ele>30.5</ele><time>2026-05-01T16:00:57.511Z</time></trkpt><trkpt lat="42.3908425" lon="14.1327073"><ele>30.25</ele><time>2026-05-01T16:00:58.506Z</time></trkpt><trkpt lat="42.3909557" lon="14.1328217"><ele>30.0</ele><time>2026-05-01T16:00:59.508Z</time></trkpt><trkpt lat="42.3910751" lon="14.1329229"><ele>30.0</ele><time>2026-05-01T16:01:00.504Z</time></trkpt><trkpt lat="42.3911922" lon="14.1330291"><ele>30.0</ele><time>2026-05-01T16:01:01.52Z</time></trkpt><trkpt lat="42.3913145" lon="14.1331388"><ele>30.0</ele><time>2026-05-01T16:01:02.502Z</time></trkpt><trkpt lat="42.391438" lon="14.1332595"><ele>30.0</ele><time>2026-05-01T16:01:03.511Z</time></trkpt><trkpt lat="42.3915541" lon="14.1333922"><ele>30.0</ele><time>2026-05-01T16:01:04.507Z</time></trkpt><trkpt lat="42.3916649" lon="14.133519"><ele>30.0</ele><time>2026-05-01T16:01:05.508Z</time></trkpt><trkpt lat="42.3917971" lon="14.1336302"><ele>30.0</ele><time>2026-05-01T16:01:06.51Z</time></trkpt><trkpt lat="42.3919237" lon="14.1337135"><ele>30.0</ele><time>2026-05-01T16:01:07.509Z</time></trkpt><trkpt lat="42.3920521" lon="14.1338161"><ele>29.666666666666664</ele><time>2026-05-01T16:01:08.503Z</time></trkpt><trkpt lat="42.3921851" lon="14.1339467"><ele>29.333333333333332</ele><time>2026-05-01T16:01:09.494Z</time></trkpt><trkpt lat="42.3923083" lon="14.1340813"><ele>29.0</ele><time>2026-05-01T16:01:10.489Z</time></trkpt><trkpt lat="42.3924482" lon="14.134186"><ele>29.0</ele><time>2026-05-01T16:01:11.48Z</time></trkpt><trkpt lat="42.3925374" lon="14.1343599"><ele>29.0</ele><time>2026-05-01T16:01:12.462Z</time></trkpt><trkpt lat="42.3926791" lon="14.1344901"><ele>29.0</ele><time>2026-05-01T16:01:13.461Z</time></trkpt><trkpt lat="42.3928186" lon="14.1347186"><ele>29.0</ele><time>2026-05-01T16:01:14.465Z</time></trkpt><trkpt lat="42.3929358" lon="14.1347898"><ele>29.0</ele><time>2026-05-01T16:01:15.47Z</time></trkpt><trkpt lat="42.3930633" lon="14.1348097"><ele>29.0</ele><time>2026-05-01T16:01:16.491Z</time></trkpt><trkpt lat="42.3932052" lon="14.1348561"><ele>29.0</ele><time>2026-05-01T16:01:17.491Z</time></trkpt><trkpt lat="42.3933643" lon="14.1349389"><ele>28.333333333333332</ele><time>2026-05-01T16:01:18.505Z</time></trkpt><trkpt lat="42.3935112" lon="14.1350663"><ele>27.666666666666664</ele><time>2026-05-01T16:01:19.508Z</time></trkpt><trkpt lat="42.3936565" lon="14.1351981"><ele>27.0</ele><time>2026-05-01T16:01:20.513Z</time></trkpt><trkpt lat="42.3937824" lon="14.1352867"><ele>27.75</ele><time>2026-05-01T16:01:21.502Z</time></trkpt><trkpt lat="42.3938873" lon="14.135383"><ele>28.5</ele><time>2026-05-01T16:01:22.498Z</time></trkpt><trkpt lat="42.3940113" lon="14.1354779"><ele>29.25</ele><time>2026-05-01T16:01:23.493Z</time></trkpt><trkpt lat="42.3941028" lon="14.1355766"><ele>30.0</ele><time>2026-05-01T16:01:24.493Z</time></trkpt><trkpt lat="42.3942032" lon="14.1356771"><ele>29.0</ele><time>2026-05-01T16:01:25.492Z</time></trkpt><trkpt lat="42.3943111" lon="14.1357808"><ele>28.0</ele><time>2026-05-01T16:01:26.504Z</time></trkpt><trkpt lat="42.3944075" lon="14.1358919"><ele>27.0</ele><time>2026-05-01T16:01:27.515Z</time></trkpt><trkpt lat="42.3945108" lon="14.1359964"><ele>26.0</ele><time>2026-05-01T16:01:28.507Z</time></trkpt><trkpt lat="42.3946152" lon="14.1360987"><ele>26.75</ele><time>2026-05-01T16:01:29.508Z</time></trkpt><trkpt lat="42.3947152" lon="14.136198"><ele>27.5</ele><time>2026-05-01T16:01:30.505Z</time></trkpt><trkpt lat="42.3948133" lon="14.1362846"><ele>28.25</ele><time>2026-05-01T16:01:31.52Z</time></trkpt><trkpt lat="42.3949187" lon="14.1363718"><ele>29.0</ele><time>2026-05-01T16:01:32.503Z</time></trkpt><trkpt lat="42.3950246" lon="14.1364601"><ele>29.0</ele><time>2026-05-01T16:01:33.508Z</time></trkpt><trkpt lat="42.3951304" lon="14.1365511"><ele>29.0</ele><time>2026-05-01T16:01:34.499Z</time></trkpt><trkpt lat="42.3952325" lon="14.1366387"><ele>29.0</ele><time>2026-05-01T16:01:35.507Z</time></trkpt><trkpt lat="42.3953317" lon="14.1367275"><ele>29.0</ele><time>2026-05-01T16:01:36.504Z</time></trkpt><trkpt lat="42.3954275" lon="14.1368154"><ele>28.25</ele><time>2026-05-01T16:01:37.511Z</time></trkpt><trkpt lat="42.3955229" lon="14.1369079"><ele>27.5</ele><time>2026-05-01T16:01:38.502Z</time></trkpt><trkpt lat="42.3956213" lon="14.137002"><ele>26.75</ele><time>2026-05-01T16:01:39.52Z</time></trkpt><trkpt lat="42.3957228" lon="14.1370983"><ele>26.0</ele><time>2026-05-01T16:01:40.504Z</time></trkpt><trkpt lat="42.3958244" lon="14.1371904"><ele>26.0</ele><time>2026-05-01T16:01:41.509Z</time></trkpt><trkpt lat="42.3959239" lon="14.1372786"><ele>26.0</ele><time>2026-05-01T16:01:42.501Z</time></trkpt><trkpt lat="42.3960171" lon="14.1373626"><ele>26.0</ele><time>2026-05-01T16:01:43.504Z</time></trkpt><trkpt lat="42.3961086" lon="14.1374477"><ele>26.0</ele><time>2026-05-01T16:01:44.509Z</time></trkpt><trkpt lat="42.396204" lon="14.1375305"><ele>26.25</ele><time>2026-05-01T16:01:45.506Z</time></trkpt><trkpt lat="42.3962991" lon="14.1376126"><ele>26.5</ele><time>2026-05-01T16:01:46.51Z</time></trkpt><trkpt lat="42.3963934" lon="14.1376905"><ele>26.75</ele><time>2026-05-01T16:01:47.5Z</time></trkpt><trkpt lat="42.3964895" lon="14.1377693"><ele>27.0</ele><time>2026-05-01T16:01:48.502Z</time></trkpt><trkpt lat="42.3965916" lon="14.1378539"><ele>27.0</ele><time>2026-05-01T16:01:49.506Z</time></trkpt><trkpt lat="42.3966933" lon="14.1379426"><ele>27.0</ele><time>2026-05-01T16:01:50.507Z</time></trkpt><trkpt lat="42.3967962" lon="14.1380322"><ele>27.0</ele><time>2026-05-01T16:01:51.498Z</time></trkpt><trkpt lat="42.3969018" lon="14.1381266"><ele>27.0</ele><time>2026-05-01T16:01:52.509Z</time></trkpt><trkpt lat="42.3970109" lon="14.1382215"><ele>27.25</ele><time>2026-05-01T16:01:53.501Z</time></trkpt><trkpt lat="42.3971203" lon="14.1383238"><ele>27.5</ele><time>2026-05-01T16:01:54.506Z</time></trkpt><trkpt lat="42.3972315" lon="14.1384199"><ele>27.75</ele><time>2026-05-01T16:01:55.503Z</time></trkpt><trkpt lat="42.3973422" lon="14.1385194"><ele>28.0</ele><time>2026-05-01T16:01:56.509Z</time></trkpt><trkpt lat="42.3974498" lon="14.1386174"><ele>27.5</ele><time>2026-05-01T16:01:57.502Z</time></trkpt><trkpt lat="42.3975608" lon="14.138718"><ele>27.0</ele><time>2026-05-01T16:01:58.513Z</time></trkpt><trkpt lat="42.397673" lon="14.1388177"><ele>26.5</ele><time>2026-05-01T16:01:59.5Z</time></trkpt><trkpt lat="42.397785" lon="14.1389205"><ele>26.0</ele><time>2026-05-01T16:02:00.508Z</time></trkpt><trkpt lat="42.3979067" lon="14.1390261"><ele>26.0</ele><time>2026-05-01T16:02:01.502Z</time></trkpt><trkpt lat="42.398012" lon="14.1391402"><ele>26.0</ele><time>2026-05-01T16:02:02.509Z</time></trkpt><trkpt lat="42.3981392" lon="14.1392399"><ele>26.0</ele><time>2026-05-01T16:02:03.504Z</time></trkpt><trkpt lat="42.3982651" lon="14.1393485"><ele>26.0</ele><time>2026-05-01T16:02:04.512Z</time></trkpt><trkpt lat="42.3983765" lon="14.1394486"><ele>26.0</ele><time>2026-05-01T16:02:05.503Z</time></trkpt><trkpt lat="42.3984856" lon="14.1395527"><ele>26.0</ele><time>2026-05-01T16:02:06.509Z</time></trkpt><trkpt lat="42.3985712" lon="14.1396423"><ele>26.0</ele><time>2026-05-01T16:02:07.497Z</time></trkpt><trkpt lat="42.3986718" lon="14.1397296"><ele>26.0</ele><time>2026-05-01T16:02:08.503Z</time></trkpt><trkpt lat="42.3987622" lon="14.1398184"><ele>25.75</ele><time>2026-05-01T16:02:09.5Z</time></trkpt><trkpt lat="42.3988636" lon="14.1399076"><ele>25.5</ele><time>2026-05-01T16:02:10.512Z</time></trkpt><trkpt lat="42.3989748" lon="14.1399806"><ele>25.25</ele><time>2026-05-01T16:02:11.5Z</time></trkpt><trkpt lat="42.3990747" lon="14.1400755"><ele>25.0</ele><time>2026-05-01T16:02:12.503Z</time></trkpt><trkpt lat="42.3991878" lon="14.140173"><ele>25.0</ele><time>2026-05-01T16:02:13.502Z</time></trkpt><trkpt lat="42.3992963" lon="14.1402682"><ele>25.0</ele><time>2026-05-01T16:02:14.511Z</time></trkpt><trkpt lat="42.3994122" lon="14.1403721"><ele>25.0</ele><time>2026-05-01T16:02:15.498Z</time></trkpt><trkpt lat="42.3995298" lon="14.1404665"><ele>25.0</ele><time>2026-05-01T16:02:16.5Z</time></trkpt><trkpt lat="42.3996465" lon="14.140571"><ele>24.75</ele><time>2026-05-01T16:02:17.505Z</time></trkpt><trkpt lat="42.3997478" lon="14.1406749"><ele>24.5</ele><time>2026-05-01T16:02:18.506Z</time></trkpt><trkpt lat="42.3998634" lon="14.1407836"><ele>24.25</ele><time>2026-05-01T16:02:19.511Z</time></trkpt><trkpt lat="42.3999828" lon="14.140892"><ele>24.0</ele><time>2026-05-01T16:02:20.5Z</time></trkpt><trkpt lat="42.4000982" lon="14.1409859"><ele>24.25</ele><time>2026-05-01T16:02:21.499Z</time></trkpt><trkpt lat="42.4002047" lon="14.1410618"><ele>24.5</ele><time>2026-05-01T16:02:22.51Z</time></trkpt><trkpt lat="42.4003296" lon="14.1411603"><ele>24.75</ele><time>2026-05-01T16:02:23.501Z</time></trkpt><trkpt lat="42.4004303" lon="14.1412724"><ele>25.0</ele><time>2026-05-01T16:02:24.509Z</time></trkpt><trkpt lat="42.40053" lon="14.1413632"><ele>25.0</ele><time>2026-05-01T16:02:25.501Z</time></trkpt><trkpt lat="42.4006242" lon="14.1414357"><ele>25.0</ele><time>2026-05-01T16:02:26.507Z</time></trkpt><trkpt lat="42.4007178" lon="14.141524"><ele>25.0</ele><time>2026-05-01T16:02:27.501Z</time></trkpt><trkpt lat="42.400822" lon="14.1416299"><ele>25.0</ele><time>2026-05-01T16:02:28.507Z</time></trkpt><trkpt lat="42.400941" lon="14.1417248"><ele>25.0</ele><time>2026-05-01T16:02:29.501Z</time></trkpt><trkpt lat="42.4010529" lon="14.1418237"><ele>25.0</ele><time>2026-05-01T16:02:30.51Z</time></trkpt><trkpt lat="42.4011642" lon="14.1419205"><ele>25.0</ele><time>2026-05-01T16:02:31.502Z</time></trkpt><trkpt lat="42.4012753" lon="14.1420198"><ele>25.0</ele><time>2026-05-01T16:02:32.51Z</time></trkpt><trkpt lat="42.4013858" lon="14.1421178"><ele>25.0</ele><time>2026-05-01T16:02:33.502Z</time></trkpt><trkpt lat="42.4014961" lon="14.1422179"><ele>25.0</ele><time>2026-05-01T16:02:34.51Z</time></trkpt><trkpt lat="42.4016107" lon="14.1423188"><ele>25.0</ele><time>2026-05-01T16:02:35.497Z</time></trkpt><trkpt lat="42.4017097" lon="14.1424158"><ele>25.0</ele><time>2026-05-01T16:02:36.508Z</time></trkpt><trkpt lat="42.4018222" lon="14.1425343"><ele>24.75</ele><time>2026-05-01T16:02:37.5Z</time></trkpt><trkpt lat="42.4019346" lon="14.1426303"><ele>24.5</ele><time>2026-05-01T16:02:38.502Z</time></trkpt><trkpt lat="42.4020222" lon="14.142722"><ele>24.25</ele><time>2026-05-01T16:02:39.511Z</time></trkpt><trkpt lat="42.402157" lon="14.1428382"><ele>24.0</ele><time>2026-05-01T16:02:40.507Z</time></trkpt><trkpt lat="42.4022831" lon="14.142937"><ele>24.0</ele><time>2026-05-01T16:02:41.508Z</time></trkpt><trkpt lat="42.4024139" lon="14.1430273"><ele>24.0</ele><time>2026-05-01T16:02:42.511Z</time></trkpt><trkpt lat="42.4025248" lon="14.1431348"><ele>24.0</ele><time>2026-05-01T16:02:43.499Z</time></trkpt><trkpt lat="42.4026422" lon="14.143255"><ele>24.0</ele><time>2026-05-01T16:02:44.511Z</time></trkpt><trkpt lat="42.4027767" lon="14.143365"><ele>24.0</ele><time>2026-05-01T16:02:45.501Z</time></trkpt><trkpt lat="42.4029015" lon="14.1434683"><ele>24.0</ele><time>2026-05-01T16:02:46.511Z</time></trkpt><trkpt lat="42.4030118" lon="14.1435652"><ele>24.0</ele><time>2026-05-01T16:02:47.504Z</time></trkpt><trkpt lat="42.4031158" lon="14.1436496"><ele>24.0</ele><time>2026-05-01T16:02:48.515Z</time></trkpt><trkpt lat="42.4032194" lon="14.1437562"><ele>24.0</ele><time>2026-05-01T16:02:49.509Z</time></trkpt><trkpt lat="42.4033276" lon="14.1438419"><ele>24.0</ele><time>2026-05-01T16:02:50.513Z</time></trkpt><trkpt lat="42.4034345" lon="14.1439373"><ele>24.0</ele><time>2026-05-01T16:02:51.504Z</time></trkpt><trkpt lat="42.4035427" lon="14.1440383"><ele>24.0</ele><time>2026-05-01T16:02:52.515Z</time></trkpt><trkpt lat="42.4036565" lon="14.144141"><ele>24.25</ele><time>2026-05-01T16:02:53.505Z</time></trkpt><trkpt lat="42.403763" lon="14.1442392"><ele>24.5</ele><time>2026-05-01T16:02:54.507Z</time></trkpt><trkpt lat="42.4038566" lon="14.1443153"><ele>24.75</ele><time>2026-05-01T16:02:55.505Z</time></trkpt><trkpt lat="42.4039632" lon="14.14441"><ele>25.0</ele><time>2026-05-01T16:02:56.503Z</time></trkpt><trkpt lat="42.4040638" lon="14.1444986"><ele>25.0</ele><time>2026-05-01T16:02:57.503Z</time></trkpt><trkpt lat="42.4041645" lon="14.1445885"><ele>25.0</ele><time>2026-05-01T16:02:58.51Z</time></trkpt><trkpt lat="42.4042516" lon="14.1446703"><ele>25.0</ele><time>2026-05-01T16:02:59.506Z</time></trkpt><trkpt lat="42.4043356" lon="14.1447514"><ele>25.0</ele><time>2026-05-01T16:03:00.51Z</time></trkpt><trkpt lat="42.4044184" lon="14.1448307"><ele>25.0</ele><time>2026-05-01T16:03:01.506Z</time></trkpt><trkpt lat="42.4044998" lon="14.1449074"><ele>25.2</ele><time>2026-05-01T16:03:02.511Z</time></trkpt><trkpt lat="42.4045833" lon="14.1449823"><ele>25.4</ele><time>2026-05-01T16:03:03.499Z</time></trkpt><trkpt lat="42.4046642" lon="14.1450505"><ele>25.6</ele><time>2026-05-01T16:03:04.509Z</time></trkpt><trkpt lat="42.4047384" lon="14.1451118"><ele>25.8</ele><time>2026-05-01T16:03:05.499Z</time></trkpt><trkpt lat="42.4048063" lon="14.1451771"><ele>26.0</ele><time>2026-05-01T16:03:06.5Z</time></trkpt><trkpt lat="42.404875" lon="14.1452476"><ele>25.499999999999996</ele><time>2026-05-01T16:03:07.497Z</time></trkpt><trkpt lat="42.4049501" lon="14.1453198"><ele>25.0</ele><time>2026-05-01T16:03:08.506Z</time></trkpt><trkpt lat="42.4050252" lon="14.1453917"><ele>24.5</ele><time>2026-05-01T16:03:09.501Z</time></trkpt><trkpt lat="42.4050952" lon="14.145458"><ele>24.0</ele><time>2026-05-01T16:03:10.505Z</time></trkpt><trkpt lat="42.4051565" lon="14.1455195"><ele>23.5</ele><time>2026-05-01T16:03:11.499Z</time></trkpt><trkpt lat="42.4052153" lon="14.1455743"><ele>23.0</ele><time>2026-05-01T16:03:12.513Z</time></trkpt><trkpt lat="42.4052722" lon="14.1456203"><ele>23.0</ele><time>2026-05-01T16:03:13.501Z</time></trkpt><trkpt lat="42.405366" lon="14.1456949"><ele>23.0</ele><time>2026-05-01T16:03:15.499Z</time></trkpt><trkpt lat="42.4054228" lon="14.1457743"><ele>23.0</ele><time>2026-05-01T16:03:17.51Z</time></trkpt><trkpt lat="42.4054463" lon="14.1458757"><ele>23.0</ele><time>2026-05-01T16:03:19.514Z</time></trkpt><trkpt lat="42.405427" lon="14.145992"><ele>23.0</ele><time>2026-05-01T16:03:21.509Z</time></trkpt><trkpt lat="42.4054442" lon="14.146128"><ele>22.75</ele><time>2026-05-01T16:03:23.505Z</time></trkpt><trkpt lat="42.4055529" lon="14.1461731"><ele>22.5</ele><time>2026-05-01T16:03:25.506Z</time></trkpt><trkpt lat="42.4056636" lon="14.1461257"><ele>22.25</ele><time>2026-05-01T16:03:27.507Z</time></trkpt><trkpt lat="42.4057659" lon="14.1460865"><ele>22.0</ele><time>2026-05-01T16:03:29.505Z</time></trkpt><trkpt lat="42.4059003" lon="14.1461241"><ele>22.0</ele><time>2026-05-01T16:03:31.507Z</time></trkpt><trkpt lat="42.4059859" lon="14.14619"><ele>22.0</ele><time>2026-05-01T16:03:32.502Z</time></trkpt><trkpt lat="42.4060956" lon="14.1462747"><ele>22.0</ele><time>2026-05-01T16:03:33.504Z</time></trkpt><trkpt lat="42.4062265" lon="14.1463845"><ele>22.0</ele><time>2026-05-01T16:03:34.507Z</time></trkpt><trkpt lat="42.4063458" lon="14.1465228"><ele>22.0</ele><time>2026-05-01T16:03:35.497Z</time></trkpt><trkpt lat="42.4064354" lon="14.1466345"><ele>22.0</ele><time>2026-05-01T16:03:36.507Z</time></trkpt><trkpt lat="42.4065299" lon="14.1467211"><ele>22.0</ele><time>2026-05-01T16:03:37.5Z</time></trkpt><trkpt lat="42.4066445" lon="14.1468143"><ele>22.0</ele><time>2026-05-01T16:03:38.511Z</time></trkpt><trkpt lat="42.4067692" lon="14.1469106"><ele>22.0</ele><time>2026-05-01T16:03:39.5Z</time></trkpt><trkpt lat="42.4069048" lon="14.1469714"><ele>22.0</ele><time>2026-05-01T16:03:40.511Z</time></trkpt><trkpt lat="42.4070334" lon="14.1470115"><ele>22.0</ele><time>2026-05-01T16:03:41.493Z</time></trkpt><trkpt lat="42.407158" lon="14.1470604"><ele>22.0</ele><time>2026-05-01T16:03:42.507Z</time></trkpt><trkpt lat="42.4073045" lon="14.1470861"><ele>20.666666666666664</ele><time>2026-05-01T16:03:43.507Z</time></trkpt><trkpt lat="42.4074492" lon="14.1471283"><ele>19.333333333333332</ele><time>2026-05-01T16:03:44.51Z</time></trkpt><trkpt lat="42.4075927" lon="14.1471639"><ele>18.0</ele><time>2026-05-01T16:03:45.498Z</time></trkpt><trkpt lat="42.4077482" lon="14.1472016"><ele>18.0</ele><time>2026-05-01T16:03:46.512Z</time></trkpt><trkpt lat="42.4079003" lon="14.1472206"><ele>18.0</ele><time>2026-05-01T16:03:47.501Z</time></trkpt><trkpt lat="42.4080621" lon="14.1472542"><ele>18.0</ele><time>2026-05-01T16:03:48.511Z</time></trkpt><trkpt lat="42.4082038" lon="14.1472898"><ele>17.75</ele><time>2026-05-01T16:03:49.502Z</time></trkpt><trkpt lat="42.4083536" lon="14.1473312"><ele>17.5</ele><time>2026-05-01T16:03:50.506Z</time></trkpt><trkpt lat="42.4084883" lon="14.1473879"><ele>17.25</ele><time>2026-05-01T16:03:51.507Z</time></trkpt><trkpt lat="42.4086035" lon="14.1474695"><ele>17.0</ele><time>2026-05-01T16:03:52.506Z</time></trkpt><trkpt lat="42.4087134" lon="14.1475456"><ele>17.0</ele><time>2026-05-01T16:03:53.51Z</time></trkpt><trkpt lat="42.4088347" lon="14.1476315"><ele>17.0</ele><time>2026-05-01T16:03:54.502Z</time></trkpt><trkpt lat="42.4089588" lon="14.1477288"><ele>17.0</ele><time>2026-05-01T16:03:55.511Z</time></trkpt><trkpt lat="42.409108" lon="14.1478448"><ele>17.0</ele><time>2026-05-01T16:03:56.502Z</time></trkpt><trkpt lat="42.4092347" lon="14.1479452"><ele>17.0</ele><time>2026-05-01T16:03:57.509Z</time></trkpt><trkpt lat="42.4093802" lon="14.1480547"><ele>17.0</ele><time>2026-05-01T16:03:58.505Z</time></trkpt><trkpt lat="42.4095338" lon="14.1481634"><ele>17.666666666666668</ele><time>2026-05-01T16:03:59.511Z</time></trkpt><trkpt lat="42.4096705" lon="14.1482769"><ele>18.333333333333332</ele><time>2026-05-01T16:04:00.498Z</time></trkpt><trkpt lat="42.40981" lon="14.148383"><ele>19.0</ele><time>2026-05-01T16:04:01.518Z</time></trkpt><trkpt lat="42.4099505" lon="14.1484948"><ele>19.0</ele><time>2026-05-01T16:04:02.496Z</time></trkpt><trkpt lat="42.4100954" lon="14.1486012"><ele>19.0</ele><time>2026-05-01T16:04:03.513Z</time></trkpt><trkpt lat="42.4102427" lon="14.148707"><ele>19.0</ele><time>2026-05-01T16:04:04.499Z</time></trkpt><trkpt lat="42.4103895" lon="14.1488276"><ele>19.0</ele><time>2026-05-01T16:04:05.51Z</time></trkpt><trkpt lat="42.4105229" lon="14.1489412"><ele>19.0</ele><time>2026-05-01T16:04:06.503Z</time></trkpt><trkpt lat="42.410671" lon="14.1490594"><ele>19.0</ele><time>2026-05-01T16:04:07.51Z</time></trkpt><trkpt lat="42.410813" lon="14.1491749"><ele>19.666666666666664</ele><time>2026-05-01T16:04:08.501Z</time></trkpt><trkpt lat="42.4109564" lon="14.1492769"><ele>20.333333333333332</ele><time>2026-05-01T16:04:09.512Z</time></trkpt><trkpt lat="42.4110839" lon="14.1493895"><ele>21.0</ele><time>2026-05-01T16:04:10.506Z</time></trkpt><trkpt lat="42.4112325" lon="14.1495136"><ele>21.0</ele><time>2026-05-01T16:04:11.511Z</time></trkpt><trkpt lat="42.4113795" lon="14.1496306"><ele>21.0</ele><time>2026-05-01T16:04:12.504Z</time></trkpt><trkpt lat="42.4115254" lon="14.1497488"><ele>21.0</ele><time>2026-05-01T16:04:13.514Z</time></trkpt><trkpt lat="42.4116813" lon="14.1498602"><ele>20.0</ele><time>2026-05-01T16:04:14.509Z</time></trkpt><trkpt lat="42.4118315" lon="14.1499663"><ele>19.0</ele><time>2026-05-01T16:04:15.504Z</time></trkpt><trkpt lat="42.4119797" lon="14.1500811"><ele>18.0</ele><time>2026-05-01T16:04:16.508Z</time></trkpt><trkpt lat="42.4121369" lon="14.1502056"><ele>17.0</ele><time>2026-05-01T16:04:17.503Z</time></trkpt><trkpt lat="42.4122934" lon="14.1503432"><ele>16.0</ele><time>2026-05-01T16:04:18.509Z</time></trkpt><trkpt lat="42.4124373" lon="14.1504705"><ele>15.0</ele><time>2026-05-01T16:04:19.501Z</time></trkpt><trkpt lat="42.4125697" lon="14.1505895"><ele>15.0</ele><time>2026-05-01T16:04:20.51Z</time></trkpt><trkpt lat="42.4127065" lon="14.150723"><ele>15.0</ele><time>2026-05-01T16:04:21.501Z</time></trkpt><trkpt lat="42.412854" lon="14.1508285"><ele>15.0</ele><time>2026-05-01T16:04:22.512Z</time></trkpt><trkpt lat="42.4129941" lon="14.1509402"><ele>15.0</ele><time>2026-05-01T16:04:23.509Z</time></trkpt><trkpt lat="42.4131285" lon="14.1510831"><ele>15.0</ele><time>2026-05-01T16:04:24.51Z</time></trkpt><trkpt lat="42.413248" lon="14.1512225"><ele>15.0</ele><time>2026-05-01T16:04:25.498Z</time></trkpt><trkpt lat="42.4133767" lon="14.1513376"><ele>15.0</ele><time>2026-05-01T16:04:26.503Z</time></trkpt><trkpt lat="42.4135004" lon="14.1514698"><ele>15.0</ele><time>2026-05-01T16:04:27.502Z</time></trkpt><trkpt lat="42.4136247" lon="14.1515746"><ele>15.0</ele><time>2026-05-01T16:04:28.504Z</time></trkpt><trkpt lat="42.4137683" lon="14.1516895"><ele>15.333333333333332</ele><time>2026-05-01T16:04:29.494Z</time></trkpt><trkpt lat="42.4139023" lon="14.1517988"><ele>15.666666666666666</ele><time>2026-05-01T16:04:30.499Z</time></trkpt><trkpt lat="42.4140538" lon="14.1518733"><ele>16.0</ele><time>2026-05-01T16:04:31.501Z</time></trkpt><trkpt lat="42.414201" lon="14.1519608"><ele>16.0</ele><time>2026-05-01T16:04:32.509Z</time></trkpt><trkpt lat="42.4143458" lon="14.15202"><ele>16.0</ele><time>2026-05-01T16:04:33.5Z</time></trkpt><trkpt lat="42.4145022" lon="14.152086"><ele>16.0</ele><time>2026-05-01T16:04:34.509Z</time></trkpt><trkpt lat="42.4146648" lon="14.1521227"><ele>15.666666666666666</ele><time>2026-05-01T16:04:35.499Z</time></trkpt><trkpt lat="42.4148315" lon="14.1521397"><ele>15.333333333333332</ele><time>2026-05-01T16:04:36.499Z</time></trkpt><trkpt lat="42.4149867" lon="14.1521412"><ele>15.0</ele><time>2026-05-01T16:04:37.491Z</time></trkpt><trkpt lat="42.4151465" lon="14.1521555"><ele>15.0</ele><time>2026-05-01T16:04:38.504Z</time></trkpt><trkpt lat="42.4153016" lon="14.1521502"><ele>15.0</ele><time>2026-05-01T16:04:39.493Z</time></trkpt><trkpt lat="42.4154435" lon="14.1521625"><ele>15.0</ele><time>2026-05-01T16:04:40.497Z</time></trkpt><trkpt lat="42.4156037" lon="14.1521721"><ele>15.25</ele><time>2026-05-01T16:04:41.495Z</time></trkpt><trkpt lat="42.4157563" lon="14.1521926"><ele>15.5</ele><time>2026-05-01T16:04:42.496Z</time></trkpt><trkpt lat="42.4158952" lon="14.1522373"><ele>15.75</ele><time>2026-05-01T16:04:43.494Z</time></trkpt><trkpt lat="42.4160285" lon="14.1522941"><ele>16.0</ele><time>2026-05-01T16:04:44.489Z</time></trkpt><trkpt lat="42.416184" lon="14.1523659"><ele>16.333333333333332</ele><time>2026-05-01T16:04:45.495Z</time></trkpt><trkpt lat="42.4163105" lon="14.1524833"><ele>16.666666666666668</ele><time>2026-05-01T16:04:46.486Z</time></trkpt><trkpt lat="42.4164371" lon="14.1526356"><ele>17.0</ele><time>2026-05-01T16:04:47.495Z</time></trkpt><trkpt lat="42.4165577" lon="14.1527867"><ele>17.5</ele><time>2026-05-01T16:04:48.49Z</time></trkpt><trkpt lat="42.4166573" lon="14.1529164"><ele>18.0</ele><time>2026-05-01T16:04:49.5Z</time></trkpt><trkpt lat="42.4167411" lon="14.1530549"><ele>18.5</ele><time>2026-05-01T16:04:50.494Z</time></trkpt><trkpt lat="42.4168511" lon="14.1531957"><ele>19.0</ele><time>2026-05-01T16:04:51.506Z</time></trkpt><trkpt lat="42.4169555" lon="14.1533392"><ele>19.0</ele><time>2026-05-01T16:04:52.497Z</time></trkpt><trkpt lat="42.4170463" lon="14.1534685"><ele>19.0</ele><time>2026-05-01T16:04:53.503Z</time></trkpt><trkpt lat="42.4171317" lon="14.1535953"><ele>19.0</ele><time>2026-05-01T16:04:54.498Z</time></trkpt><trkpt lat="42.4172178" lon="14.153715"><ele>19.0</ele><time>2026-05-01T16:04:55.502Z</time></trkpt><trkpt lat="42.4173109" lon="14.1538264"><ele>19.0</ele><time>2026-05-01T16:04:56.493Z</time></trkpt><trkpt lat="42.4173959" lon="14.1539622"><ele>19.0</ele><time>2026-05-01T16:04:57.492Z</time></trkpt><trkpt lat="42.4174832" lon="14.1540842"><ele>19.0</ele><time>2026-05-01T16:04:58.501Z</time></trkpt><trkpt lat="42.4175748" lon="14.1542063"><ele>19.0</ele><time>2026-05-01T16:04:59.494Z</time></trkpt><trkpt lat="42.4176686" lon="14.1543227"><ele>19.0</ele><time>2026-05-01T16:05:00.491Z</time></trkpt><trkpt lat="42.4177619" lon="14.1544393"><ele>19.0</ele><time>2026-05-01T16:05:01.498Z</time></trkpt><trkpt lat="42.4178537" lon="14.1545537"><ele>19.0</ele><time>2026-05-01T16:05:02.491Z</time></trkpt><trkpt lat="42.4179464" lon="14.1546734"><ele>19.0</ele><time>2026-05-01T16:05:03.49Z</time></trkpt><trkpt lat="42.4180418" lon="14.1547929"><ele>18.5</ele><time>2026-05-01T16:05:04.489Z</time></trkpt><trkpt lat="42.4181409" lon="14.154917"><ele>18.0</ele><time>2026-05-01T16:05:05.487Z</time></trkpt><trkpt lat="42.4182376" lon="14.1550423"><ele>17.5</ele><time>2026-05-01T16:05:06.486Z</time></trkpt><trkpt lat="42.4183259" lon="14.1551623"><ele>17.0</ele><time>2026-05-01T16:05:07.491Z</time></trkpt><trkpt lat="42.4184091" lon="14.1552843"><ele>17.0</ele><time>2026-05-01T16:05:08.487Z</time></trkpt><trkpt lat="42.4184945" lon="14.155399"><ele>17.0</ele><time>2026-05-01T16:05:09.486Z</time></trkpt><trkpt lat="42.4185815" lon="14.1555083"><ele>17.0</ele><time>2026-05-01T16:05:10.494Z</time></trkpt><trkpt lat="42.4186681" lon="14.1556197"><ele>17.0</ele><time>2026-05-01T16:05:11.494Z</time></trkpt><trkpt lat="42.418755" lon="14.1557297"><ele>18.5</ele><time>2026-05-01T16:05:12.492Z</time></trkpt><trkpt lat="42.4188299" lon="14.1558415"><ele>20.0</ele><time>2026-05-01T16:05:13.493Z</time></trkpt><trkpt lat="42.4189022" lon="14.1559606"><ele>21.5</ele><time>2026-05-01T16:05:14.495Z</time></trkpt><trkpt lat="42.4189749" lon="14.1560795"><ele>23.0</ele><time>2026-05-01T16:05:15.503Z</time></trkpt><trkpt lat="42.4190525" lon="14.1561953"><ele>23.0</ele><time>2026-05-01T16:05:16.5Z</time></trkpt><trkpt lat="42.4191382" lon="14.1563016"><ele>23.0</ele><time>2026-05-01T16:05:17.504Z</time></trkpt><trkpt lat="42.4192399" lon="14.1564016"><ele>23.0</ele><time>2026-05-01T16:05:18.493Z</time></trkpt><trkpt lat="42.4193537" lon="14.1564847"><ele>23.0</ele><time>2026-05-01T16:05:19.487Z</time></trkpt><trkpt lat="42.4194816" lon="14.1565406"><ele>22.25</ele><time>2026-05-01T16:05:20.493Z</time></trkpt><trkpt lat="42.4196156" lon="14.1565914"><ele>21.5</ele><time>2026-05-01T16:05:21.503Z</time></trkpt><trkpt lat="42.4197567" lon="14.1566396"><ele>20.75</ele><time>2026-05-01T16:05:22.494Z</time></trkpt><trkpt lat="42.4199147" lon="14.1566908"><ele>20.0</ele><time>2026-05-01T16:05:23.512Z</time></trkpt><trkpt lat="42.42006" lon="14.1567633"><ele>20.0</ele><time>2026-05-01T16:05:24.5Z</time></trkpt><trkpt lat="42.4201957" lon="14.1568477"><ele>20.0</ele><time>2026-05-01T16:05:25.502Z</time></trkpt><trkpt lat="42.4203199" lon="14.1569059"><ele>20.0</ele><time>2026-05-01T16:05:26.5Z</time></trkpt><trkpt lat="42.4204406" lon="14.1569093"><ele>20.0</ele><time>2026-05-01T16:05:27.504Z</time></trkpt><trkpt lat="42.4205627" lon="14.1569639"><ele>20.25</ele><time>2026-05-01T16:05:28.492Z</time></trkpt><trkpt lat="42.4206868" lon="14.1570151"><ele>20.5</ele><time>2026-05-01T16:05:29.496Z</time></trkpt><trkpt lat="42.42081" lon="14.1570574"><ele>20.75</ele><time>2026-05-01T16:05:30.489Z</time></trkpt><trkpt lat="42.4209242" lon="14.1570958"><ele>21.0</ele><time>2026-05-01T16:05:31.503Z</time></trkpt><trkpt lat="42.4210266" lon="14.1571487"><ele>21.0</ele><time>2026-05-01T16:05:32.494Z</time></trkpt><trkpt lat="42.4211405" lon="14.157197"><ele>21.0</ele><time>2026-05-01T16:05:33.495Z</time></trkpt><trkpt lat="42.4212485" lon="14.157242"><ele>21.0</ele><time>2026-05-01T16:05:34.494Z</time></trkpt><trkpt lat="42.4213421" lon="14.1572795"><ele>21.0</ele><time>2026-05-01T16:05:35.49Z</time></trkpt><trkpt lat="42.4214264" lon="14.1573207"><ele>21.0</ele><time>2026-05-01T16:05:36.503Z</time></trkpt><trkpt lat="42.4215117" lon="14.1573569"><ele>20.666666666666668</ele><time>2026-05-01T16:05:37.499Z</time></trkpt><trkpt lat="42.4215893" lon="14.1573867"><ele>20.333333333333332</ele><time>2026-05-01T16:05:38.508Z</time></trkpt><trkpt lat="42.4216633" lon="14.1574141"><ele>20.0</ele><time>2026-05-01T16:05:39.494Z</time></trkpt><trkpt lat="42.4217333" lon="14.1574388"><ele>19.666666666666664</ele><time>2026-05-01T16:05:40.499Z</time></trkpt><trkpt lat="42.4218028" lon="14.1574665"><ele>19.333333333333332</ele><time>2026-05-01T16:05:41.502Z</time></trkpt><trkpt lat="42.4219211" lon="14.1574944"><ele>19.0</ele><time>2026-05-01T16:05:43.497Z</time></trkpt><trkpt lat="42.4220314" lon="14.1574932"><ele>19.0</ele><time>2026-05-01T16:05:45.496Z</time></trkpt><trkpt lat="42.4221012" lon="14.157484"><ele>19.0</ele><time>2026-05-01T16:05:49.499Z</time></trkpt><trkpt lat="42.4221747" lon="14.1574715"><ele>19.0</ele><time>2026-05-01T16:05:57.502Z</time></trkpt><trkpt lat="42.4222358" lon="14.1574959"><ele>19.0</ele><time>2026-05-01T16:05:59.497Z</time></trkpt><trkpt lat="42.4223259" lon="14.157582"><ele>19.0</ele><time>2026-05-01T16:06:01.5Z</time></trkpt><trkpt lat="42.4224101" lon="14.1576317"><ele>19.0</ele><time>2026-05-01T16:06:03.492Z</time></trkpt><trkpt lat="42.4224849" lon="14.1576388"><ele>19.166666666666664</ele><time>2026-05-01T16:06:06.505Z</time></trkpt><trkpt lat="42.4225539" lon="14.1576596"><ele>19.333333333333332</ele><time>2026-05-01T16:06:08.491Z</time></trkpt><trkpt lat="42.4226383" lon="14.1577311"><ele>19.5</ele><time>2026-05-01T16:06:10.495Z</time></trkpt><trkpt lat="42.4227094" lon="14.1577926"><ele>19.666666666666668</ele><time>2026-05-01T16:06:12.494Z</time></trkpt><trkpt lat="42.4227794" lon="14.157845"><ele>19.833333333333336</ele><time>2026-05-01T16:06:14.492Z</time></trkpt><trkpt lat="42.4228439" lon="14.157868"><ele>20.0</ele><time>2026-05-01T16:06:16.492Z</time></trkpt><trkpt lat="42.4229386" lon="14.1578921"><ele>19.6</ele><time>2026-05-01T16:06:19.492Z</time></trkpt><trkpt lat="42.4230192" lon="14.1579257"><ele>19.2</ele><time>2026-05-01T16:06:21.49Z</time></trkpt><trkpt lat="42.4230882" lon="14.157977"><ele>18.8</ele><time>2026-05-01T16:06:23.494Z</time></trkpt><trkpt lat="42.4232181" lon="14.1580385"><ele>18.4</ele><time>2026-05-01T16:06:25.496Z</time></trkpt><trkpt lat="42.4232923" lon="14.1580731"><ele>18.0</ele><time>2026-05-01T16:06:26.487Z</time></trkpt><trkpt lat="42.4233663" lon="14.1581017"><ele>18.0</ele><time>2026-05-01T16:06:27.487Z</time></trkpt><trkpt lat="42.4234494" lon="14.1581336"><ele>18.0</ele><time>2026-05-01T16:06:28.491Z</time></trkpt><trkpt lat="42.4235469" lon="14.158166"><ele>18.0</ele><time>2026-05-01T16:06:29.488Z</time></trkpt><trkpt lat="42.4236588" lon="14.1582005"><ele>18.0</ele><time>2026-05-01T16:06:30.493Z</time></trkpt><trkpt lat="42.4237669" lon="14.1582379"><ele>18.0</ele><time>2026-05-01T16:06:31.491Z</time></trkpt><trkpt lat="42.4238593" lon="14.1582798"><ele>17.833333333333332</ele><time>2026-05-01T16:06:32.491Z</time></trkpt><trkpt lat="42.4239389" lon="14.1583113"><ele>17.666666666666668</ele><time>2026-05-01T16:06:33.495Z</time></trkpt><trkpt lat="42.4240113" lon="14.1583396"><ele>17.5</ele><time>2026-05-01T16:06:34.497Z</time></trkpt><trkpt lat="42.4240721" lon="14.1583711"><ele>17.333333333333336</ele><time>2026-05-01T16:06:35.493Z</time></trkpt><trkpt lat="42.4241597" lon="14.1584188"><ele>17.166666666666668</ele><time>2026-05-01T16:06:37.495Z</time></trkpt><trkpt lat="42.424235" lon="14.1584579"><ele>17.0</ele><time>2026-05-01T16:06:39.498Z</time></trkpt><trkpt lat="42.4243034" lon="14.1584982"><ele>17.0</ele><time>2026-05-01T16:06:41.493Z</time></trkpt><trkpt lat="42.4244056" lon="14.1585292"><ele>17.0</ele><time>2026-05-01T16:06:43.49Z</time></trkpt><trkpt lat="42.4244878" lon="14.1585579"><ele>17.0</ele><time>2026-05-01T16:06:44.487Z</time></trkpt><trkpt lat="42.4245905" lon="14.1585871"><ele>17.0</ele><time>2026-05-01T16:06:45.489Z</time></trkpt><trkpt lat="42.4247022" lon="14.1586261"><ele>17.0</ele><time>2026-05-01T16:06:46.498Z</time></trkpt><trkpt lat="42.4248166" lon="14.1586692"><ele>17.2</ele><time>2026-05-01T16:06:47.492Z</time></trkpt><trkpt lat="42.4249198" lon="14.1587174"><ele>17.4</ele><time>2026-05-01T16:06:48.492Z</time></trkpt><trkpt lat="42.4250221" lon="14.1587679"><ele>17.6</ele><time>2026-05-01T16:06:49.498Z</time></trkpt><trkpt lat="42.4251247" lon="14.1588179"><ele>17.8</ele><time>2026-05-01T16:06:50.486Z</time></trkpt><trkpt lat="42.4252195" lon="14.1588656"><ele>18.0</ele><time>2026-05-01T16:06:51.498Z</time></trkpt><trkpt lat="42.4253048" lon="14.158912"><ele>18.0</ele><time>2026-05-01T16:06:52.495Z</time></trkpt><trkpt lat="42.4253935" lon="14.1589552"><ele>18.0</ele><time>2026-05-01T16:06:53.5Z</time></trkpt><trkpt lat="42.4254821" lon="14.1589973"><ele>18.0</ele><time>2026-05-01T16:06:54.494Z</time></trkpt><trkpt lat="42.4255725" lon="14.1590345"><ele>18.0</ele><time>2026-05-01T16:06:55.505Z</time></trkpt><trkpt lat="42.4256601" lon="14.159072"><ele>18.0</ele><time>2026-05-01T16:06:56.495Z</time></trkpt><trkpt lat="42.4257505" lon="14.1591204"><ele>18.166666666666668</ele><time>2026-05-01T16:06:57.499Z</time></trkpt><trkpt lat="42.4258419" lon="14.1591714"><ele>18.333333333333332</ele><time>2026-05-01T16:06:58.507Z</time></trkpt><trkpt lat="42.4259218" lon="14.159218"><ele>18.5</ele><time>2026-05-01T16:06:59.498Z</time></trkpt><trkpt lat="42.4259905" lon="14.1592618"><ele>18.666666666666664</ele><time>2026-05-01T16:07:00.496Z</time></trkpt><trkpt lat="42.4260878" lon="14.1593193"><ele>18.833333333333332</ele><time>2026-05-01T16:07:02.491Z</time></trkpt><trkpt lat="42.4261506" lon="14.1593614"><ele>19.0</ele><time>2026-05-01T16:07:05.5Z</time></trkpt><trkpt lat="42.4262252" lon="14.1594112"><ele>19.2</ele><time>2026-05-01T16:07:07.495Z</time></trkpt><trkpt lat="42.4263449" lon="14.159496"><ele>19.4</ele><time>2026-05-01T16:07:09.494Z</time></trkpt><trkpt lat="42.4264244" lon="14.1595537"><ele>19.6</ele><time>2026-05-01T16:07:10.494Z</time></trkpt><trkpt lat="42.4265103" lon="14.1596129"><ele>19.8</ele><time>2026-05-01T16:07:11.502Z</time></trkpt><trkpt lat="42.4265975" lon="14.1596757"><ele>20.0</ele><time>2026-05-01T16:07:12.496Z</time></trkpt><trkpt lat="42.4266823" lon="14.1597404"><ele>20.0</ele><time>2026-05-01T16:07:13.491Z</time></trkpt><trkpt lat="42.4267753" lon="14.1598233"><ele>20.0</ele><time>2026-05-01T16:07:14.49Z</time></trkpt><trkpt lat="42.4268748" lon="14.1599034"><ele>20.0</ele><time>2026-05-01T16:07:15.489Z</time></trkpt><trkpt lat="42.4269804" lon="14.1599786"><ele>20.0</ele><time>2026-05-01T16:07:16.492Z</time></trkpt><trkpt lat="42.4270923" lon="14.1600587"><ele>19.333333333333336</ele><time>2026-05-01T16:07:17.488Z</time></trkpt><trkpt lat="42.4272197" lon="14.1601596"><ele>18.666666666666668</ele><time>2026-05-01T16:07:18.486Z</time></trkpt><trkpt lat="42.4274015" lon="14.1602828"><ele>18.0</ele><time>2026-05-01T16:07:19.495Z</time></trkpt><trkpt lat="42.4275467" lon="14.1604472"><ele>18.0</ele><time>2026-05-01T16:07:20.495Z</time></trkpt><trkpt lat="42.4276839" lon="14.1605529"><ele>18.0</ele><time>2026-05-01T16:07:21.493Z</time></trkpt><trkpt lat="42.427832" lon="14.1606668"><ele>18.0</ele><time>2026-05-01T16:07:22.495Z</time></trkpt><trkpt lat="42.4279714" lon="14.1608039"><ele>17.75</ele><time>2026-05-01T16:07:23.499Z</time></trkpt><trkpt lat="42.4280991" lon="14.1609504"><ele>17.5</ele><time>2026-05-01T16:07:24.495Z</time></trkpt><trkpt lat="42.4282103" lon="14.1610662"><ele>17.25</ele><time>2026-05-01T16:07:25.495Z</time></trkpt><trkpt lat="42.4283178" lon="14.1611753"><ele>17.0</ele><time>2026-05-01T16:07:26.492Z</time></trkpt><trkpt lat="42.4284261" lon="14.1612821"><ele>17.0</ele><time>2026-05-01T16:07:27.498Z</time></trkpt><trkpt lat="42.4285328" lon="14.1613864"><ele>17.0</ele><time>2026-05-01T16:07:28.506Z</time></trkpt><trkpt lat="42.4286294" lon="14.1615019"><ele>17.0</ele><time>2026-05-01T16:07:29.498Z</time></trkpt><trkpt lat="42.4287224" lon="14.1616024"><ele>17.0</ele><time>2026-05-01T16:07:30.497Z</time></trkpt><trkpt lat="42.428789" lon="14.1616885"><ele>19.0</ele><time>2026-05-01T16:07:31.494Z</time></trkpt><trkpt lat="42.4288503" lon="14.1617319"><ele>21.0</ele><time>2026-05-01T16:07:32.502Z</time></trkpt><trkpt lat="42.4289213" lon="14.1617954"><ele>23.000000000000004</ele><time>2026-05-01T16:07:33.501Z</time></trkpt><trkpt lat="42.4290046" lon="14.1618712"><ele>25.0</ele><time>2026-05-01T16:07:34.499Z</time></trkpt><trkpt lat="42.4290887" lon="14.1619536"><ele>27.0</ele><time>2026-05-01T16:07:35.496Z</time></trkpt><trkpt lat="42.4291691" lon="14.1620416"><ele>27.0</ele><time>2026-05-01T16:07:36.497Z</time></trkpt><trkpt lat="42.4292505" lon="14.1621426"><ele>27.000000000000004</ele><time>2026-05-01T16:07:37.491Z</time></trkpt><trkpt lat="42.4293366" lon="14.1622376"><ele>27.000000000000004</ele><time>2026-05-01T16:07:38.504Z</time></trkpt><trkpt lat="42.4294258" lon="14.1623306"><ele>27.0</ele><time>2026-05-01T16:07:39.493Z</time></trkpt><trkpt lat="42.4295188" lon="14.1624207"><ele>27.0</ele><time>2026-05-01T16:07:40.494Z</time></trkpt><trkpt lat="42.4296183" lon="14.1625118"><ele>25.5</ele><time>2026-05-01T16:07:41.498Z</time></trkpt><trkpt lat="42.4297285" lon="14.1626041"><ele>24.0</ele><time>2026-05-01T16:07:42.498Z</time></trkpt><trkpt lat="42.4298476" lon="14.1626947"><ele>22.5</ele><time>2026-05-01T16:07:43.493Z</time></trkpt><trkpt lat="42.4299807" lon="14.1627757"><ele>21.0</ele><time>2026-05-01T16:07:44.497Z</time></trkpt><trkpt lat="42.4301225" lon="14.1628193"><ele>21.0</ele><time>2026-05-01T16:07:45.496Z</time></trkpt><trkpt lat="42.4302355" lon="14.1628527"><ele>21.0</ele><time>2026-05-01T16:07:46.493Z</time></trkpt><trkpt lat="42.4303339" lon="14.1628648"><ele>21.0</ele><time>2026-05-01T16:07:47.494Z</time></trkpt><trkpt lat="42.4304324" lon="14.1628688"><ele>21.0</ele><time>2026-05-01T16:07:49.494Z</time></trkpt><trkpt lat="42.4305083" lon="14.162817"><ele>21.0</ele><time>2026-05-01T16:07:52.494Z</time></trkpt><trkpt lat="42.4305229" lon="14.1627093"><ele>21.0</ele><time>2026-05-01T16:07:54.488Z</time></trkpt><trkpt lat="42.4304554" lon="14.162617"><ele>21.0</ele><time>2026-05-01T16:07:56.486Z</time></trkpt><trkpt lat="42.4303798" lon="14.162539"><ele>21.0</ele><time>2026-05-01T16:07:58.492Z</time></trkpt><trkpt lat="42.4303513" lon="14.1623981"><ele>21.0</ele><time>2026-05-01T16:08:00.484Z</time></trkpt><trkpt lat="42.4303774" lon="14.1623068"><ele>21.0</ele><time>2026-05-01T16:08:01.485Z</time></trkpt><trkpt lat="42.4304163" lon="14.162191"><ele>21.4</ele><time>2026-05-01T16:08:02.493Z</time></trkpt><trkpt lat="42.4304553" lon="14.1620652"><ele>21.8</ele><time>2026-05-01T16:08:03.485Z</time></trkpt><trkpt lat="42.4305102" lon="14.1619368"><ele>22.2</ele><time>2026-05-01T16:08:04.491Z</time></trkpt><trkpt lat="42.4305643" lon="14.161803"><ele>22.599999999999998</ele><time>2026-05-01T16:08:05.489Z</time></trkpt><trkpt lat="42.4306243" lon="14.1616647"><ele>23.0</ele><time>2026-05-01T16:08:06.49Z</time></trkpt><trkpt lat="42.4306784" lon="14.1615385"><ele>23.799999999999997</ele><time>2026-05-01T16:08:07.496Z</time></trkpt><trkpt lat="42.4307253" lon="14.161413"><ele>24.6</ele><time>2026-05-01T16:08:08.492Z</time></trkpt><trkpt lat="42.4307682" lon="14.1613"><ele>25.400000000000002</ele><time>2026-05-01T16:08:09.505Z</time></trkpt><trkpt lat="42.4308082" lon="14.1611938"><ele>26.200000000000003</ele><time>2026-05-01T16:08:10.488Z</time></trkpt><trkpt lat="42.4308417" lon="14.1611129"><ele>27.0</ele><time>2026-05-01T16:08:11.487Z</time></trkpt><trkpt lat="42.4308933" lon="14.1609991"><ele>27.0</ele><time>2026-05-01T16:08:13.495Z</time></trkpt><trkpt lat="42.4309737" lon="14.1608241"><ele>27.0</ele><time>2026-05-01T16:08:15.49Z</time></trkpt><trkpt lat="42.4310387" lon="14.1606869"><ele>27.0</ele><time>2026-05-01T16:08:16.495Z</time></trkpt><trkpt lat="42.4311066" lon="14.1605366"><ele>27.0</ele><time>2026-05-01T16:08:17.494Z</time></trkpt><trkpt lat="42.4311722" lon="14.1603876"><ele>27.0</ele><time>2026-05-01T16:08:18.497Z</time></trkpt><trkpt lat="42.4312349" lon="14.1602344"><ele>27.0</ele><time>2026-05-01T16:08:19.503Z</time></trkpt><trkpt lat="42.4312963" lon="14.1600863"><ele>27.0</ele><time>2026-05-01T16:08:20.496Z</time></trkpt><trkpt lat="42.4313603" lon="14.1599411"><ele>27.0</ele><time>2026-05-01T16:08:21.499Z</time></trkpt><trkpt lat="42.4314275" lon="14.1597858"><ele>28.25</ele><time>2026-05-01T16:08:22.504Z</time></trkpt><trkpt lat="42.431493" lon="14.1596334"><ele>29.5</ele><time>2026-05-01T16:08:23.496Z</time></trkpt><trkpt lat="42.4315506" lon="14.1594848"><ele>30.75</ele><time>2026-05-01T16:08:24.493Z</time></trkpt><trkpt lat="42.4316085" lon="14.1593505"><ele>32.0</ele><time>2026-05-01T16:08:25.492Z</time></trkpt><trkpt lat="42.4316596" lon="14.1592228"><ele>32.0</ele><time>2026-05-01T16:08:26.488Z</time></trkpt><trkpt lat="42.4317112" lon="14.1590873"><ele>32.0</ele><time>2026-05-01T16:08:27.494Z</time></trkpt><trkpt lat="42.4317615" lon="14.1589481"><ele>32.0</ele><time>2026-05-01T16:08:28.497Z</time></trkpt><trkpt lat="42.4318145" lon="14.1588065"><ele>32.0</ele><time>2026-05-01T16:08:29.494Z</time></trkpt><trkpt lat="42.4318699" lon="14.1586616"><ele>32.25</ele><time>2026-05-01T16:08:30.49Z</time></trkpt><trkpt lat="42.4319284" lon="14.1585195"><ele>32.5</ele><time>2026-05-01T16:08:31.492Z</time></trkpt><trkpt lat="42.4319956" lon="14.1583807"><ele>32.75</ele><time>2026-05-01T16:08:32.49Z</time></trkpt><trkpt lat="42.4320648" lon="14.15824"><ele>33.0</ele><time>2026-05-01T16:08:33.491Z</time></trkpt><trkpt lat="42.4321247" lon="14.158089"><ele>35.0</ele><time>2026-05-01T16:08:34.493Z</time></trkpt><trkpt lat="42.4321853" lon="14.1579364"><ele>37.0</ele><time>2026-05-01T16:08:35.492Z</time></trkpt><trkpt lat="42.4322469" lon="14.1577926"><ele>39.0</ele><time>2026-05-01T16:08:36.492Z</time></trkpt><trkpt lat="42.4323072" lon="14.1576612"><ele>41.0</ele><time>2026-05-01T16:08:37.492Z</time></trkpt><trkpt lat="42.432371" lon="14.1575386"><ele>41.0</ele><time>2026-05-01T16:08:38.494Z</time></trkpt><trkpt lat="42.43243" lon="14.1574262"><ele>41.0</ele><time>2026-05-01T16:08:39.491Z</time></trkpt><trkpt lat="42.4324892" lon="14.1573202"><ele>41.0</ele><time>2026-05-01T16:08:40.497Z</time></trkpt><trkpt lat="42.4325572" lon="14.1572277"><ele>41.0</ele><time>2026-05-01T16:08:41.498Z</time></trkpt><trkpt lat="42.4326388" lon="14.1571446"><ele>41.0</ele><time>2026-05-01T16:08:42.492Z</time></trkpt><trkpt lat="42.4327295" lon="14.1570662"><ele>42.0</ele><time>2026-05-01T16:08:43.494Z</time></trkpt><trkpt lat="42.4328212" lon="14.1569901"><ele>43.0</ele><time>2026-05-01T16:08:44.491Z</time></trkpt><trkpt lat="42.4329172" lon="14.1569091"><ele>44.0</ele><time>2026-05-01T16:08:45.5Z</time></trkpt><trkpt lat="42.4330198" lon="14.1568297"><ele>45.0</ele><time>2026-05-01T16:08:46.492Z</time></trkpt><trkpt lat="42.4331221" lon="14.1567457"><ele>46.25</ele><time>2026-05-01T16:08:47.508Z</time></trkpt><trkpt lat="42.4332248" lon="14.1566594"><ele>47.5</ele><time>2026-05-01T16:08:48.496Z</time></trkpt><trkpt lat="42.4333308" lon="14.1565752"><ele>48.75</ele><time>2026-05-01T16:08:49.499Z</time></trkpt><trkpt lat="42.4334373" lon="14.1564883"><ele>50.0</ele><time>2026-05-01T16:08:50.499Z</time></trkpt><trkpt lat="42.4335465" lon="14.1564027"><ele>50.5</ele><time>2026-05-01T16:08:51.497Z</time></trkpt><trkpt lat="42.4336591" lon="14.1563244"><ele>51.0</ele><time>2026-05-01T16:08:52.496Z</time></trkpt><trkpt lat="42.4337808" lon="14.1562413"><ele>51.5</ele><time>2026-05-01T16:08:53.504Z</time></trkpt><trkpt lat="42.4339039" lon="14.1561614"><ele>52.0</ele><time>2026-05-01T16:08:54.495Z</time></trkpt><trkpt lat="42.4340399" lon="14.1560593"><ele>52.5</ele><time>2026-05-01T16:08:55.499Z</time></trkpt><trkpt lat="42.4341728" lon="14.1559762"><ele>53.0</ele><time>2026-05-01T16:08:56.493Z</time></trkpt><trkpt lat="42.4343078" lon="14.1558716"><ele>53.5</ele><time>2026-05-01T16:08:57.51Z</time></trkpt><trkpt lat="42.4344373" lon="14.1557807"><ele>54.0</ele><time>2026-05-01T16:08:58.503Z</time></trkpt><trkpt lat="42.4345634" lon="14.1556879"><ele>55.25</ele><time>2026-05-01T16:08:59.504Z</time></trkpt><trkpt lat="42.4346914" lon="14.1555898"><ele>56.5</ele><time>2026-05-01T16:09:00.495Z</time></trkpt><trkpt lat="42.4348192" lon="14.1554911"><ele>57.75</ele><time>2026-05-01T16:09:01.501Z</time></trkpt><trkpt lat="42.4349401" lon="14.1553934"><ele>59.0</ele><time>2026-05-01T16:09:02.492Z</time></trkpt><trkpt lat="42.4350609" lon="14.1552931"><ele>59.0</ele><time>2026-05-01T16:09:03.496Z</time></trkpt><trkpt lat="42.4351897" lon="14.1551862"><ele>59.0</ele><time>2026-05-01T16:09:04.491Z</time></trkpt><trkpt lat="42.4353243" lon="14.1550916"><ele>59.0</ele><time>2026-05-01T16:09:05.491Z</time></trkpt><trkpt lat="42.4354648" lon="14.1549841"><ele>58.66666666666667</ele><time>2026-05-01T16:09:06.493Z</time></trkpt><trkpt lat="42.4356103" lon="14.1548809"><ele>58.33333333333333</ele><time>2026-05-01T16:09:07.494Z</time></trkpt><trkpt lat="42.4357668" lon="14.1547525"><ele>58.0</ele><time>2026-05-01T16:09:08.492Z</time></trkpt><trkpt lat="42.4359296" lon="14.1546172"><ele>59.666666666666664</ele><time>2026-05-01T16:09:09.497Z</time></trkpt><trkpt lat="42.4360945" lon="14.1544788"><ele>61.33333333333333</ele><time>2026-05-01T16:09:10.496Z</time></trkpt><trkpt lat="42.4362561" lon="14.1543375"><ele>63.0</ele><time>2026-05-01T16:09:11.496Z</time></trkpt><trkpt lat="42.4364189" lon="14.154196"><ele>63.33333333333333</ele><time>2026-05-01T16:09:12.502Z</time></trkpt><trkpt lat="42.4365747" lon="14.1540793"><ele>63.666666666666664</ele><time>2026-05-01T16:09:13.496Z</time></trkpt><trkpt lat="42.436706" lon="14.1539603"><ele>64.0</ele><time>2026-05-01T16:09:14.496Z</time></trkpt><trkpt lat="42.4368417" lon="14.1538382"><ele>65.25</ele><time>2026-05-01T16:09:15.504Z</time></trkpt><trkpt lat="42.4369548" lon="14.1537379"><ele>66.5</ele><time>2026-05-01T16:09:16.499Z</time></trkpt><trkpt lat="42.4370729" lon="14.1536354"><ele>67.75</ele><time>2026-05-01T16:09:17.499Z</time></trkpt><trkpt lat="42.4371924" lon="14.153541"><ele>69.0</ele><time>2026-05-01T16:09:18.497Z</time></trkpt><trkpt lat="42.4373099" lon="14.153451"><ele>69.0</ele><time>2026-05-01T16:09:19.499Z</time></trkpt><trkpt lat="42.437426" lon="14.1533723"><ele>69.0</ele><time>2026-05-01T16:09:20.499Z</time></trkpt><trkpt lat="42.4375528" lon="14.1533192"><ele>69.0</ele><time>2026-05-01T16:09:21.492Z</time></trkpt><trkpt lat="42.4376944" lon="14.1532936"><ele>69.0</ele><time>2026-05-01T16:09:22.497Z</time></trkpt><trkpt lat="42.4378149" lon="14.1532599"><ele>69.0</ele><time>2026-05-01T16:09:23.493Z</time></trkpt><trkpt lat="42.4379489" lon="14.1532275"><ele>69.0</ele><time>2026-05-01T16:09:24.499Z</time></trkpt><trkpt lat="42.4380875" lon="14.1531934"><ele>69.0</ele><time>2026-05-01T16:09:25.496Z</time></trkpt><trkpt lat="42.4382359" lon="14.1531412"><ele>69.0</ele><time>2026-05-01T16:09:26.493Z</time></trkpt><trkpt lat="42.4383806" lon="14.1530461"><ele>67.0</ele><time>2026-05-01T16:09:27.494Z</time></trkpt><trkpt lat="42.4385109" lon="14.1529185"><ele>65.0</ele><time>2026-05-01T16:09:28.499Z</time></trkpt><trkpt lat="42.4386608" lon="14.1527831"><ele>63.0</ele><time>2026-05-01T16:09:29.497Z</time></trkpt><trkpt lat="42.4387917" lon="14.1526413"><ele>65.0</ele><time>2026-05-01T16:09:30.492Z</time></trkpt><trkpt lat="42.4389222" lon="14.1524713"><ele>67.0</ele><time>2026-05-01T16:09:31.51Z</time></trkpt><trkpt lat="42.4390396" lon="14.1522844"><ele>69.0</ele><time>2026-05-01T16:09:32.491Z</time></trkpt><trkpt lat="42.4391535" lon="14.1521012"><ele>70.33333333333333</ele><time>2026-05-01T16:09:33.5Z</time></trkpt><trkpt lat="42.4392683" lon="14.1519621"><ele>71.66666666666666</ele><time>2026-05-01T16:09:34.492Z</time></trkpt><trkpt lat="42.4393926" lon="14.1517918"><ele>73.0</ele><time>2026-05-01T16:09:35.501Z</time></trkpt><trkpt lat="42.4395176" lon="14.1516787"><ele>74.0</ele><time>2026-05-01T16:09:36.492Z</time></trkpt><trkpt lat="42.4396604" lon="14.1515988"><ele>75.0</ele><time>2026-05-01T16:09:37.501Z</time></trkpt><trkpt lat="42.4398148" lon="14.1515082"><ele>76.0</ele><time>2026-05-01T16:09:38.489Z</time></trkpt><trkpt lat="42.439966" lon="14.151451"><ele>76.0</ele><time>2026-05-01T16:09:39.507Z</time></trkpt><trkpt lat="42.4401183" lon="14.1513747"><ele>76.0</ele><time>2026-05-01T16:09:40.494Z</time></trkpt><trkpt lat="42.440253" lon="14.1513125"><ele>76.0</ele><time>2026-05-01T16:09:41.501Z</time></trkpt><trkpt lat="42.4403981" lon="14.1512"><ele>79.0</ele><time>2026-05-01T16:09:42.49Z</time></trkpt><trkpt lat="42.4405258" lon="14.1510943"><ele>82.0</ele><time>2026-05-01T16:09:43.503Z</time></trkpt><trkpt lat="42.4406423" lon="14.1509822"><ele>85.0</ele><time>2026-05-01T16:09:44.492Z</time></trkpt><trkpt lat="42.4407827" lon="14.1509124"><ele>88.0</ele><time>2026-05-01T16:09:45.5Z</time></trkpt><trkpt lat="42.4409145" lon="14.1508571"><ele>88.0</ele><time>2026-05-01T16:09:46.482Z</time></trkpt><trkpt lat="42.4410488" lon="14.150799"><ele>88.0</ele><time>2026-05-01T16:09:47.485Z</time></trkpt><trkpt lat="42.4411715" lon="14.1507951"><ele>88.0</ele><time>2026-05-01T16:09:48.487Z</time></trkpt><trkpt lat="42.4413102" lon="14.1508467"><ele>88.0</ele><time>2026-05-01T16:09:49.488Z</time></trkpt><trkpt lat="42.4414583" lon="14.1509131"><ele>89.0</ele><time>2026-05-01T16:09:50.481Z</time></trkpt><trkpt lat="42.4415942" lon="14.1509589"><ele>90.0</ele><time>2026-05-01T16:09:51.493Z</time></trkpt><trkpt lat="42.4417576" lon="14.150966"><ele>91.0</ele><time>2026-05-01T16:09:52.475Z</time></trkpt><trkpt lat="42.4419103" lon="14.1509556"><ele>91.0</ele><time>2026-05-01T16:09:53.486Z</time></trkpt><trkpt lat="42.4420534" lon="14.1508861"><ele>91.0</ele><time>2026-05-01T16:09:54.481Z</time></trkpt><trkpt lat="42.4421732" lon="14.1507795"><ele>91.0</ele><time>2026-05-01T16:09:55.484Z</time></trkpt><trkpt lat="42.442276" lon="14.1507112"><ele>91.0</ele><time>2026-05-01T16:09:56.484Z</time></trkpt><trkpt lat="42.4423708" lon="14.1506124"><ele>91.75</ele><time>2026-05-01T16:09:57.486Z</time></trkpt><trkpt lat="42.4424172" lon="14.1504674"><ele>92.5</ele><time>2026-05-01T16:09:58.491Z</time></trkpt><trkpt lat="42.4424629" lon="14.1502986"><ele>93.25</ele><time>2026-05-01T16:09:59.496Z</time></trkpt><trkpt lat="42.4424913" lon="14.1501184"><ele>94.0</ele><time>2026-05-01T16:10:00.488Z</time></trkpt><trkpt lat="42.4425435" lon="14.1499323"><ele>95.33333333333333</ele><time>2026-05-01T16:10:01.498Z</time></trkpt><trkpt lat="42.4425907" lon="14.1497244"><ele>96.66666666666666</ele><time>2026-05-01T16:10:02.489Z</time></trkpt><trkpt lat="42.442636" lon="14.1495341"><ele>98.0</ele><time>2026-05-01T16:10:03.494Z</time></trkpt><trkpt lat="42.4426822" lon="14.1493461"><ele>98.0</ele><time>2026-05-01T16:10:04.491Z</time></trkpt><trkpt lat="42.4427486" lon="14.1491718"><ele>98.0</ele><time>2026-05-01T16:10:05.501Z</time></trkpt><trkpt lat="42.4428134" lon="14.1490084"><ele>98.0</ele><time>2026-05-01T16:10:06.488Z</time></trkpt><trkpt lat="42.4428856" lon="14.1488477"><ele>98.0</ele><time>2026-05-01T16:10:07.497Z</time></trkpt><trkpt lat="42.4429758" lon="14.1486899"><ele>100.0</ele><time>2026-05-01T16:10:08.49Z</time></trkpt><trkpt lat="42.4430563" lon="14.1485404"><ele>102.0</ele><time>2026-05-01T16:10:09.491Z</time></trkpt><trkpt lat="42.443168" lon="14.1483796"><ele>104.0</ele><time>2026-05-01T16:10:10.495Z</time></trkpt><trkpt lat="42.4432929" lon="14.1482265"><ele>109.0</ele><time>2026-05-01T16:10:11.499Z</time></trkpt><trkpt lat="42.4434078" lon="14.1480633"><ele>114.0</ele><time>2026-05-01T16:10:12.494Z</time></trkpt><trkpt lat="42.443515" lon="14.1478938"><ele>119.0</ele><time>2026-05-01T16:10:13.502Z</time></trkpt><trkpt lat="42.4436156" lon="14.1477503"><ele>119.0</ele><time>2026-05-01T16:10:14.49Z</time></trkpt><trkpt lat="42.4437274" lon="14.1476297"><ele>119.0</ele><time>2026-05-01T16:10:15.492Z</time></trkpt><trkpt lat="42.443847" lon="14.1475513"><ele>119.0</ele><time>2026-05-01T16:10:16.489Z</time></trkpt><trkpt lat="42.4439988" lon="14.1475152"><ele>119.0</ele><time>2026-05-01T16:10:17.498Z</time></trkpt><trkpt lat="42.4441532" lon="14.1474776"><ele>117.75</ele><time>2026-05-01T16:10:18.493Z</time></trkpt><trkpt lat="42.4443016" lon="14.1474433"><ele>116.5</ele><time>2026-05-01T16:10:19.49Z</time></trkpt><trkpt lat="42.444415" lon="14.1473862"><ele>115.25</ele><time>2026-05-01T16:10:20.484Z</time></trkpt><trkpt lat="42.4445097" lon="14.147286"><ele>114.0</ele><time>2026-05-01T16:10:21.488Z</time></trkpt><trkpt lat="42.4445623" lon="14.147174"><ele>115.16666666666667</ele><time>2026-05-01T16:10:22.49Z</time></trkpt><trkpt lat="42.4446012" lon="14.147052"><ele>116.33333333333334</ele><time>2026-05-01T16:10:23.493Z</time></trkpt><trkpt lat="42.4446349" lon="14.1469574"><ele>117.5</ele><time>2026-05-01T16:10:24.493Z</time></trkpt><trkpt lat="42.4446688" lon="14.1468797"><ele>118.66666666666667</ele><time>2026-05-01T16:10:25.501Z</time></trkpt><trkpt lat="42.4447253" lon="14.1468182"><ele>119.83333333333334</ele><time>2026-05-01T16:10:26.488Z</time></trkpt><trkpt lat="42.4447788" lon="14.1467371"><ele>121.0</ele><time>2026-05-01T16:10:27.496Z</time></trkpt><trkpt lat="42.4448426" lon="14.1466401"><ele>122.25</ele><time>2026-05-01T16:10:28.498Z</time></trkpt><trkpt lat="42.4449134" lon="14.1465261"><ele>123.5</ele><time>2026-05-01T16:10:29.495Z</time></trkpt><trkpt lat="42.4449862" lon="14.1463916"><ele>124.75</ele><time>2026-05-01T16:10:30.49Z</time></trkpt><trkpt lat="42.4450635" lon="14.1462408"><ele>126.0</ele><time>2026-05-01T16:10:31.486Z</time></trkpt><trkpt lat="42.4451507" lon="14.1460809"><ele>126.0</ele><time>2026-05-01T16:10:32.5Z</time></trkpt><trkpt lat="42.4452491" lon="14.145908"><ele>126.0</ele><time>2026-05-01T16:10:33.485Z</time></trkpt><trkpt lat="42.4453478" lon="14.1457342"><ele>126.0</ele><time>2026-05-01T16:10:34.495Z</time></trkpt><trkpt lat="42.4454434" lon="14.1455626"><ele>124.5</ele><time>2026-05-01T16:10:35.479Z</time></trkpt><trkpt lat="42.4455486" lon="14.1454292"><ele>123.0</ele><time>2026-05-01T16:10:36.488Z</time></trkpt><trkpt lat="42.4456619" lon="14.1452939"><ele>121.5</ele><time>2026-05-01T16:10:37.482Z</time></trkpt><trkpt lat="42.4457781" lon="14.1451981"><ele>120.0</ele><time>2026-05-01T16:10:38.482Z</time></trkpt><trkpt lat="42.4459137" lon="14.1450841"><ele>120.0</ele><time>2026-05-01T16:10:39.484Z</time></trkpt><trkpt lat="42.4460749" lon="14.1449821"><ele>120.0</ele><time>2026-05-01T16:10:40.497Z</time></trkpt><trkpt lat="42.4462052" lon="14.1448767"><ele>120.0</ele><time>2026-05-01T16:10:41.492Z</time></trkpt><trkpt lat="42.4463478" lon="14.1448176"><ele>120.33333333333334</ele><time>2026-05-01T16:10:42.497Z</time></trkpt><trkpt lat="42.4465022" lon="14.1447572"><ele>120.66666666666667</ele><time>2026-05-01T16:10:43.492Z</time></trkpt><trkpt lat="42.4466611" lon="14.1447056"><ele>121.0</ele><time>2026-05-01T16:10:44.507Z</time></trkpt><trkpt lat="42.4468084" lon="14.1446676"><ele>121.0</ele><time>2026-05-01T16:10:45.491Z</time></trkpt><trkpt lat="42.4469581" lon="14.1446326"><ele>121.0</ele><time>2026-05-01T16:10:46.498Z</time></trkpt><trkpt lat="42.4470901" lon="14.1445871"><ele>121.0</ele><time>2026-05-01T16:10:47.489Z</time></trkpt><trkpt lat="42.4472048" lon="14.1445481"><ele>121.0</ele><time>2026-05-01T16:10:48.492Z</time></trkpt><trkpt lat="42.4473012" lon="14.1445796"><ele>122.0</ele><time>2026-05-01T16:10:49.486Z</time></trkpt><trkpt lat="42.4474065" lon="14.1446374"><ele>123.0</ele><time>2026-05-01T16:10:50.488Z</time></trkpt><trkpt lat="42.4474915" lon="14.1447305"><ele>124.0</ele><time>2026-05-01T16:10:51.495Z</time></trkpt><trkpt lat="42.4475742" lon="14.1448342"><ele>125.0</ele><time>2026-05-01T16:10:52.489Z</time></trkpt><trkpt lat="42.4476285" lon="14.1449603"><ele>126.0</ele><time>2026-05-01T16:10:53.502Z</time></trkpt><trkpt lat="42.4476379" lon="14.1451319"><ele>126.25</ele><time>2026-05-01T16:10:54.481Z</time></trkpt><trkpt lat="42.4476275" lon="14.1453069"><ele>126.5</ele><time>2026-05-01T16:10:55.499Z</time></trkpt><trkpt lat="42.4476221" lon="14.1454992"><ele>126.75</ele><time>2026-05-01T16:10:56.492Z</time></trkpt><trkpt lat="42.4476116" lon="14.1456901"><ele>127.0</ele><time>2026-05-01T16:10:57.486Z</time></trkpt><trkpt lat="42.4476421" lon="14.1458575"><ele>127.5</ele><time>2026-05-01T16:10:58.493Z</time></trkpt><trkpt lat="42.4477138" lon="14.1460004"><ele>128.0</ele><time>2026-05-01T16:10:59.495Z</time></trkpt><trkpt lat="42.4478226" lon="14.1461271"><ele>128.5</ele><time>2026-05-01T16:11:00.499Z</time></trkpt><trkpt lat="42.4479439" lon="14.146238"><ele>129.0</ele><time>2026-05-01T16:11:01.492Z</time></trkpt><trkpt lat="42.448072" lon="14.1463454"><ele>133.33333333333334</ele><time>2026-05-01T16:11:02.491Z</time></trkpt><trkpt lat="42.448211" lon="14.1464235"><ele>137.66666666666669</ele><time>2026-05-01T16:11:03.499Z</time></trkpt><trkpt lat="42.4483663" lon="14.1464867"><ele>142.0</ele><time>2026-05-01T16:11:04.493Z</time></trkpt><trkpt lat="42.4485251" lon="14.1465206"><ele>142.0</ele><time>2026-05-01T16:11:05.486Z</time></trkpt><trkpt lat="42.4486661" lon="14.1465188"><ele>142.0</ele><time>2026-05-01T16:11:06.495Z</time></trkpt><trkpt lat="42.4488066" lon="14.1464882"><ele>142.0</ele><time>2026-05-01T16:11:07.488Z</time></trkpt><trkpt lat="42.4489483" lon="14.146434"><ele>142.0</ele><time>2026-05-01T16:11:08.492Z</time></trkpt><trkpt lat="42.4490723" lon="14.1463147"><ele>142.5</ele><time>2026-05-01T16:11:09.489Z</time></trkpt><trkpt lat="42.4491772" lon="14.1462076"><ele>143.0</ele><time>2026-05-01T16:11:10.484Z</time></trkpt><trkpt lat="42.4492767" lon="14.1460685"><ele>143.5</ele><time>2026-05-01T16:11:11.484Z</time></trkpt><trkpt lat="42.4493592" lon="14.1459013"><ele>144.0</ele><time>2026-05-01T16:11:12.491Z</time></trkpt><trkpt lat="42.4494614" lon="14.145717"><ele>141.33333333333334</ele><time>2026-05-01T16:11:13.491Z</time></trkpt><trkpt lat="42.4495515" lon="14.1455329"><ele>138.66666666666669</ele><time>2026-05-01T16:11:14.491Z</time></trkpt><trkpt lat="42.4496549" lon="14.1453474"><ele>136.0</ele><time>2026-05-01T16:11:15.499Z</time></trkpt><trkpt lat="42.4497481" lon="14.1451438"><ele>136.0</ele><time>2026-05-01T16:11:16.489Z</time></trkpt><trkpt lat="42.4498207" lon="14.144945"><ele>136.0</ele><time>2026-05-01T16:11:17.503Z</time></trkpt><trkpt lat="42.449881" lon="14.1447584"><ele>136.0</ele><time>2026-05-01T16:11:18.504Z</time></trkpt><trkpt lat="42.4499414" lon="14.1445843"><ele>136.66666666666669</ele><time>2026-05-01T16:11:19.499Z</time></trkpt><trkpt lat="42.4499764" lon="14.1444053"><ele>137.33333333333334</ele><time>2026-05-01T16:11:20.5Z</time></trkpt><trkpt lat="42.4499966" lon="14.1441851"><ele>138.0</ele><time>2026-05-01T16:11:21.498Z</time></trkpt><trkpt lat="42.4500163" lon="14.1439628"><ele>138.0</ele><time>2026-05-01T16:11:22.499Z</time></trkpt><trkpt lat="42.450008" lon="14.1437357"><ele>138.0</ele><time>2026-05-01T16:11:23.502Z</time></trkpt><trkpt lat="42.4499834" lon="14.1434961"><ele>138.0</ele><time>2026-05-01T16:11:24.496Z</time></trkpt><trkpt lat="42.4499488" lon="14.1432743"><ele>137.66666666666666</ele><time>2026-05-01T16:11:25.499Z</time></trkpt><trkpt lat="42.4499204" lon="14.1430432"><ele>137.33333333333331</ele><time>2026-05-01T16:11:26.492Z</time></trkpt><trkpt lat="42.4498777" lon="14.1428475"><ele>137.0</ele><time>2026-05-01T16:11:27.506Z</time></trkpt><trkpt lat="42.4498101" lon="14.1426626"><ele>137.0</ele><time>2026-05-01T16:11:28.491Z</time></trkpt><trkpt lat="42.4497483" lon="14.1424789"><ele>137.0</ele><time>2026-05-01T16:11:29.489Z</time></trkpt><trkpt lat="42.4496821" lon="14.1423259"><ele>137.0</ele><time>2026-05-01T16:11:30.488Z</time></trkpt><trkpt lat="42.4496473" lon="14.1421789"><ele>137.0</ele><time>2026-05-01T16:11:31.497Z</time></trkpt><trkpt lat="42.4495939" lon="14.1420313"><ele>137.6</ele><time>2026-05-01T16:11:32.487Z</time></trkpt><trkpt lat="42.4496036" lon="14.1418908"><ele>138.2</ele><time>2026-05-01T16:11:33.491Z</time></trkpt><trkpt lat="42.4496175" lon="14.1417783"><ele>138.8</ele><time>2026-05-01T16:11:34.491Z</time></trkpt><trkpt lat="42.4496702" lon="14.1416827"><ele>139.4</ele><time>2026-05-01T16:11:35.496Z</time></trkpt><trkpt lat="42.4497505" lon="14.1416086"><ele>140.0</ele><time>2026-05-01T16:11:36.492Z</time></trkpt><trkpt lat="42.4498622" lon="14.1415396"><ele>141.66666666666666</ele><time>2026-05-01T16:11:37.486Z</time></trkpt><trkpt lat="42.4500023" lon="14.141459"><ele>143.33333333333334</ele><time>2026-05-01T16:11:38.491Z</time></trkpt><trkpt lat="42.4501814" lon="14.1414225"><ele>145.0</ele><time>2026-05-01T16:11:39.485Z</time></trkpt><trkpt lat="42.4503297" lon="14.1413465"><ele>146.66666666666669</ele><time>2026-05-01T16:11:40.495Z</time></trkpt><trkpt lat="42.4504896" lon="14.1412926"><ele>148.33333333333334</ele><time>2026-05-01T16:11:41.483Z</time></trkpt><trkpt lat="42.4506258" lon="14.1412508"><ele>150.0</ele><time>2026-05-01T16:11:42.499Z</time></trkpt><trkpt lat="42.4507738" lon="14.141221"><ele>150.0</ele><time>2026-05-01T16:11:43.488Z</time></trkpt><trkpt lat="42.450901" lon="14.1411922"><ele>150.0</ele><time>2026-05-01T16:11:44.497Z</time></trkpt><trkpt lat="42.4510144" lon="14.1411475"><ele>150.0</ele><time>2026-05-01T16:11:45.492Z</time></trkpt><trkpt lat="42.4511212" lon="14.1410945"><ele>150.0</ele><time>2026-05-01T16:11:46.494Z</time></trkpt><trkpt lat="42.4512465" lon="14.1410566"><ele>150.5</ele><time>2026-05-01T16:11:47.49Z</time></trkpt><trkpt lat="42.451376" lon="14.1410109"><ele>151.0</ele><time>2026-05-01T16:11:48.488Z</time></trkpt><trkpt lat="42.4515056" lon="14.1409931"><ele>151.5</ele><time>2026-05-01T16:11:49.492Z</time></trkpt><trkpt lat="42.4516415" lon="14.1409382"><ele>152.0</ele><time>2026-05-01T16:11:50.498Z</time></trkpt><trkpt lat="42.4517686" lon="14.1409147"><ele>152.0</ele><time>2026-05-01T16:11:51.489Z</time></trkpt><trkpt lat="42.4519095" lon="14.1408846"><ele>152.0</ele><time>2026-05-01T16:11:52.489Z</time></trkpt><trkpt lat="42.4520639" lon="14.1408363"><ele>152.0</ele><time>2026-05-01T16:11:53.489Z</time></trkpt><trkpt lat="42.4522199" lon="14.1408175"><ele>152.0</ele><time>2026-05-01T16:11:54.492Z</time></trkpt><trkpt lat="42.4523633" lon="14.1407769"><ele>152.0</ele><time>2026-05-01T16:11:55.483Z</time></trkpt><trkpt lat="42.4525146" lon="14.1407566"><ele>152.0</ele><time>2026-05-01T16:11:56.492Z</time></trkpt><trkpt lat="42.4526554" lon="14.1407335"><ele>152.0</ele><time>2026-05-01T16:11:57.49Z</time></trkpt><trkpt lat="42.4527537" lon="14.1406969"><ele>152.0</ele><time>2026-05-01T16:11:58.497Z</time></trkpt><trkpt lat="42.4528503" lon="14.1406675"><ele>152.0</ele><time>2026-05-01T16:11:59.483Z</time></trkpt><trkpt lat="42.4529353" lon="14.1406484"><ele>152.0</ele><time>2026-05-01T16:12:00.482Z</time></trkpt><trkpt lat="42.4530147" lon="14.1406346"><ele>152.0</ele><time>2026-05-01T16:12:01.485Z</time></trkpt><trkpt lat="42.453088" lon="14.1406469"><ele>152.0</ele><time>2026-05-01T16:12:02.488Z</time></trkpt><trkpt lat="42.4531637" lon="14.1406285"><ele>152.0</ele><time>2026-05-01T16:12:03.49Z</time></trkpt><trkpt lat="42.4532552" lon="14.1405755"><ele>156.25</ele><time>2026-05-01T16:12:04.496Z</time></trkpt><trkpt lat="42.4533496" lon="14.1405142"><ele>160.5</ele><time>2026-05-01T16:12:05.487Z</time></trkpt><trkpt lat="42.4534561" lon="14.1404345"><ele>164.75</ele><time>2026-05-01T16:12:06.495Z</time></trkpt><trkpt lat="42.4535631" lon="14.1403654"><ele>169.0</ele><time>2026-05-01T16:12:07.483Z</time></trkpt><trkpt lat="42.4536751" lon="14.1403063"><ele>169.0</ele><time>2026-05-01T16:12:08.501Z</time></trkpt><trkpt lat="42.4537846" lon="14.1402322"><ele>169.0</ele><time>2026-05-01T16:12:09.478Z</time></trkpt><trkpt lat="42.4538854" lon="14.1401306"><ele>169.0</ele><time>2026-05-01T16:12:10.49Z</time></trkpt><trkpt lat="42.4539737" lon="14.1400045"><ele>169.0</ele><time>2026-05-01T16:12:11.482Z</time></trkpt><trkpt lat="42.4540552" lon="14.1398508"><ele>170.66666666666669</ele><time>2026-05-01T16:12:12.496Z</time></trkpt><trkpt lat="42.4541336" lon="14.1396802"><ele>172.33333333333334</ele><time>2026-05-01T16:12:13.487Z</time></trkpt><trkpt lat="42.4542189" lon="14.1395033"><ele>174.0</ele><time>2026-05-01T16:12:14.488Z</time></trkpt><trkpt lat="42.4542824" lon="14.1393065"><ele>174.0</ele><time>2026-05-01T16:12:15.479Z</time></trkpt><trkpt lat="42.4543323" lon="14.1391641"><ele>174.0</ele><time>2026-05-01T16:12:16.485Z</time></trkpt><trkpt lat="42.4543989" lon="14.1390485"><ele>174.0</ele><time>2026-05-01T16:12:17.484Z</time></trkpt><trkpt lat="42.4544605" lon="14.1389292"><ele>174.0</ele><time>2026-05-01T16:12:18.49Z</time></trkpt><trkpt lat="42.4545205" lon="14.1388195"><ele>174.0</ele><time>2026-05-01T16:12:19.49Z</time></trkpt><trkpt lat="42.4545953" lon="14.1387191"><ele>173.79999999999998</ele><time>2026-05-01T16:12:20.493Z</time></trkpt><trkpt lat="42.4546598" lon="14.1386184"><ele>173.6</ele><time>2026-05-01T16:12:21.483Z</time></trkpt><trkpt lat="42.4547143" lon="14.1385154"><ele>173.4</ele><time>2026-05-01T16:12:22.493Z</time></trkpt><trkpt lat="42.454781" lon="14.1384117"><ele>173.2</ele><time>2026-05-01T16:12:23.484Z</time></trkpt><trkpt lat="42.4548437" lon="14.1383084"><ele>173.0</ele><time>2026-05-01T16:12:24.493Z</time></trkpt><trkpt lat="42.45491" lon="14.1382034"><ele>172.4</ele><time>2026-05-01T16:12:25.482Z</time></trkpt><trkpt lat="42.4549777" lon="14.1380981"><ele>171.8</ele><time>2026-05-01T16:12:26.487Z</time></trkpt><trkpt lat="42.4550389" lon="14.1379808"><ele>171.2</ele><time>2026-05-01T16:12:27.485Z</time></trkpt><trkpt lat="42.4550879" lon="14.1378513"><ele>170.6</ele><time>2026-05-01T16:12:28.486Z</time></trkpt><trkpt lat="42.4551195" lon="14.1377106"><ele>170.0</ele><time>2026-05-01T16:12:29.487Z</time></trkpt><trkpt lat="42.4551288" lon="14.1375626"><ele>170.0</ele><time>2026-05-01T16:12:30.478Z</time></trkpt><trkpt lat="42.4551236" lon="14.1374209"><ele>170.0</ele><time>2026-05-01T16:12:31.481Z</time></trkpt><trkpt lat="42.455114" lon="14.1372868"><ele>170.0</ele><time>2026-05-01T16:12:32.493Z</time></trkpt><trkpt lat="42.4551089" lon="14.1371615"><ele>170.0</ele><time>2026-05-01T16:12:33.481Z</time></trkpt><trkpt lat="42.4551024" lon="14.1370424"><ele>170.0</ele><time>2026-05-01T16:12:34.481Z</time></trkpt><trkpt lat="42.4550912" lon="14.1369206"><ele>170.5</ele><time>2026-05-01T16:12:35.497Z</time></trkpt><trkpt lat="42.4550866" lon="14.1368001"><ele>171.0</ele><time>2026-05-01T16:12:36.486Z</time></trkpt><trkpt lat="42.4550819" lon="14.1366804"><ele>171.5</ele><time>2026-05-01T16:12:37.496Z</time></trkpt><trkpt lat="42.4550865" lon="14.1365718"><ele>172.0</ele><time>2026-05-01T16:12:38.483Z</time></trkpt><trkpt lat="42.4550972" lon="14.1364729"><ele>172.5</ele><time>2026-05-01T16:12:39.485Z</time></trkpt><trkpt lat="42.4551178" lon="14.1363776"><ele>173.0</ele><time>2026-05-01T16:12:40.489Z</time></trkpt><trkpt lat="42.4551642" lon="14.1363112"><ele>174.16666666666666</ele><time>2026-05-01T16:12:41.489Z</time></trkpt><trkpt lat="42.4552419" lon="14.1362954"><ele>175.33333333333331</ele><time>2026-05-01T16:12:42.478Z</time></trkpt><trkpt lat="42.4553278" lon="14.1362852"><ele>176.5</ele><time>2026-05-01T16:12:43.495Z</time></trkpt><trkpt lat="42.4554254" lon="14.1362579"><ele>177.66666666666666</ele><time>2026-05-01T16:12:44.487Z</time></trkpt><trkpt lat="42.4555078" lon="14.136218"><ele>178.83333333333334</ele><time>2026-05-01T16:12:45.496Z</time></trkpt><trkpt lat="42.4555758" lon="14.1361694"><ele>180.0</ele><time>2026-05-01T16:12:46.48Z</time></trkpt><trkpt lat="42.4556366" lon="14.1361293"><ele>180.0</ele><time>2026-05-01T16:12:47.488Z</time></trkpt><trkpt lat="42.4556982" lon="14.1360852"><ele>180.0</ele><time>2026-05-01T16:12:48.496Z</time></trkpt><trkpt lat="42.4557691" lon="14.1360377"><ele>180.0</ele><time>2026-05-01T16:12:49.485Z</time></trkpt><trkpt lat="42.4558505" lon="14.1359815"><ele>180.0</ele><time>2026-05-01T16:12:50.493Z</time></trkpt><trkpt lat="42.4559441" lon="14.1359115"><ele>180.0</ele><time>2026-05-01T16:12:51.482Z</time></trkpt><trkpt lat="42.4560373" lon="14.1358236"><ele>183.5</ele><time>2026-05-01T16:12:52.491Z</time></trkpt><trkpt lat="42.4561205" lon="14.1357041"><ele>187.0</ele><time>2026-05-01T16:12:53.493Z</time></trkpt><trkpt lat="42.4561956" lon="14.1355556"><ele>190.5</ele><time>2026-05-01T16:12:54.487Z</time></trkpt><trkpt lat="42.4562595" lon="14.1353881"><ele>194.0</ele><time>2026-05-01T16:12:55.484Z</time></trkpt><trkpt lat="42.4563195" lon="14.1352068"><ele>185.33333333333334</ele><time>2026-05-01T16:12:56.492Z</time></trkpt><trkpt lat="42.4563868" lon="14.135011"><ele>176.66666666666669</ele><time>2026-05-01T16:12:57.485Z</time></trkpt><trkpt lat="42.4564569" lon="14.1348238"><ele>168.0</ele><time>2026-05-01T16:12:58.495Z</time></trkpt><trkpt lat="42.4565113" lon="14.1346307"><ele>168.0</ele><time>2026-05-01T16:12:59.481Z</time></trkpt><trkpt lat="42.4565675" lon="14.1344387"><ele>168.0</ele><time>2026-05-01T16:13:00.486Z</time></trkpt><trkpt lat="42.4566268" lon="14.1342363"><ele>168.0</ele><time>2026-05-01T16:13:01.495Z</time></trkpt><trkpt lat="42.4566715" lon="14.1340481"><ele>168.0</ele><time>2026-05-01T16:13:02.483Z</time></trkpt><trkpt lat="42.4567188" lon="14.1338516"><ele>168.0</ele><time>2026-05-01T16:13:03.493Z</time></trkpt><trkpt lat="42.4567765" lon="14.1336276"><ele>168.0</ele><time>2026-05-01T16:13:04.486Z</time></trkpt><trkpt lat="42.4568089" lon="14.1334189"><ele>167.5</ele><time>2026-05-01T16:13:05.492Z</time></trkpt><trkpt lat="42.4568376" lon="14.1332184"><ele>167.0</ele><time>2026-05-01T16:13:06.485Z</time></trkpt><trkpt lat="42.4568575" lon="14.1330373"><ele>166.5</ele><time>2026-05-01T16:13:07.495Z</time></trkpt><trkpt lat="42.4568811" lon="14.1328518"><ele>166.0</ele><time>2026-05-01T16:13:08.485Z</time></trkpt><trkpt lat="42.4569185" lon="14.1326519"><ele>166.0</ele><time>2026-05-01T16:13:09.487Z</time></trkpt><trkpt lat="42.4569631" lon="14.1324426"><ele>166.0</ele><time>2026-05-01T16:13:10.486Z</time></trkpt><trkpt lat="42.4570271" lon="14.1322414"><ele>166.0</ele><time>2026-05-01T16:13:11.485Z</time></trkpt><trkpt lat="42.4571048" lon="14.1320445"><ele>164.0</ele><time>2026-05-01T16:13:12.49Z</time></trkpt><trkpt lat="42.4571858" lon="14.131836"><ele>162.0</ele><time>2026-05-01T16:13:13.492Z</time></trkpt><trkpt lat="42.4572772" lon="14.1316526"><ele>160.0</ele><time>2026-05-01T16:13:14.485Z</time></trkpt><trkpt lat="42.4573652" lon="14.1314472"><ele>160.0</ele><time>2026-05-01T16:13:15.487Z</time></trkpt><trkpt lat="42.4574424" lon="14.1312403"><ele>160.0</ele><time>2026-05-01T16:13:16.486Z</time></trkpt><trkpt lat="42.4575297" lon="14.1310422"><ele>160.0</ele><time>2026-05-01T16:13:17.494Z</time></trkpt><trkpt lat="42.4576205" lon="14.1308577"><ele>160.33333333333334</ele><time>2026-05-01T16:13:18.489Z</time></trkpt><trkpt lat="42.4577353" lon="14.13069"><ele>160.66666666666666</ele><time>2026-05-01T16:13:19.498Z</time></trkpt><trkpt lat="42.4578636" lon="14.1305438"><ele>161.0</ele><time>2026-05-01T16:13:20.487Z</time></trkpt><trkpt lat="42.4579928" lon="14.1304074"><ele>160.0</ele><time>2026-05-01T16:13:21.487Z</time></trkpt><trkpt lat="42.4581428" lon="14.1302727"><ele>159.0</ele><time>2026-05-01T16:13:22.494Z</time></trkpt><trkpt lat="42.4582816" lon="14.1301111"><ele>158.0</ele><time>2026-05-01T16:13:23.505Z</time></trkpt><trkpt lat="42.4584077" lon="14.1299598"><ele>158.66666666666666</ele><time>2026-05-01T16:13:24.489Z</time></trkpt><trkpt lat="42.4585012" lon="14.1297667"><ele>159.33333333333334</ele><time>2026-05-01T16:13:25.497Z</time></trkpt><trkpt lat="42.4585897" lon="14.129597"><ele>160.0</ele><time>2026-05-01T16:13:26.496Z</time></trkpt><trkpt lat="42.458649" lon="14.1293912"><ele>160.0</ele><time>2026-05-01T16:13:27.501Z</time></trkpt><trkpt lat="42.4586996" lon="14.1291869"><ele>160.0</ele><time>2026-05-01T16:13:28.5Z</time></trkpt><trkpt lat="42.4587559" lon="14.1290095"><ele>160.0</ele><time>2026-05-01T16:13:29.494Z</time></trkpt><trkpt lat="42.4587593" lon="14.1288073"><ele>161.0</ele><time>2026-05-01T16:13:30.497Z</time></trkpt><trkpt lat="42.4587554" lon="14.1285874"><ele>162.0</ele><time>2026-05-01T16:13:31.5Z</time></trkpt><trkpt lat="42.4587333" lon="14.1283639"><ele>163.0</ele><time>2026-05-01T16:13:32.49Z</time></trkpt><trkpt lat="42.4586828" lon="14.1281565"><ele>163.0</ele><time>2026-05-01T16:13:33.486Z</time></trkpt><trkpt lat="42.4585978" lon="14.1279647"><ele>163.0</ele><time>2026-05-01T16:13:34.5Z</time></trkpt><trkpt lat="42.4584922" lon="14.1277841"><ele>163.0</ele><time>2026-05-01T16:13:35.489Z</time></trkpt><trkpt lat="42.4584221" lon="14.1275866"><ele>163.0</ele><time>2026-05-01T16:13:36.5Z</time></trkpt><trkpt lat="42.4583387" lon="14.1273956"><ele>163.0</ele><time>2026-05-01T16:13:37.487Z</time></trkpt><trkpt lat="42.4582602" lon="14.127252"><ele>163.0</ele><time>2026-05-01T16:13:38.491Z</time></trkpt><trkpt lat="42.4581516" lon="14.1271394"><ele>163.0</ele><time>2026-05-01T16:13:39.484Z</time></trkpt><trkpt lat="42.4580262" lon="14.1270458"><ele>164.0</ele><time>2026-05-01T16:13:40.489Z</time></trkpt><trkpt lat="42.4579133" lon="14.1269468"><ele>165.0</ele><time>2026-05-01T16:13:41.485Z</time></trkpt><trkpt lat="42.4577925" lon="14.126844"><ele>166.0</ele><time>2026-05-01T16:13:42.486Z</time></trkpt><trkpt lat="42.4577098" lon="14.1266765"><ele>167.0</ele><time>2026-05-01T16:13:43.495Z</time></trkpt><trkpt lat="42.4576135" lon="14.1264709"><ele>167.0</ele><time>2026-05-01T16:13:44.488Z</time></trkpt><trkpt lat="42.4575373" lon="14.1262794"><ele>167.0</ele><time>2026-05-01T16:13:45.495Z</time></trkpt><trkpt lat="42.4574611" lon="14.1260748"><ele>167.0</ele><time>2026-05-01T16:13:46.485Z</time></trkpt><trkpt lat="42.4574042" lon="14.1258831"><ele>168.75</ele><time>2026-05-01T16:13:47.483Z</time></trkpt><trkpt lat="42.4573582" lon="14.1257101"><ele>170.5</ele><time>2026-05-01T16:13:48.49Z</time></trkpt><trkpt lat="42.4573072" lon="14.1255434"><ele>172.25</ele><time>2026-05-01T16:13:49.487Z</time></trkpt><trkpt lat="42.4572672" lon="14.1253794"><ele>174.0</ele><time>2026-05-01T16:13:50.489Z</time></trkpt><trkpt lat="42.4572562" lon="14.1252055"><ele>174.0</ele><time>2026-05-01T16:13:51.494Z</time></trkpt><trkpt lat="42.4572507" lon="14.1250231"><ele>174.0</ele><time>2026-05-01T16:13:52.493Z</time></trkpt><trkpt lat="42.4572552" lon="14.1248336"><ele>174.0</ele><time>2026-05-01T16:13:53.502Z</time></trkpt><trkpt lat="42.4572592" lon="14.1246129"><ele>174.0</ele><time>2026-05-01T16:13:54.504Z</time></trkpt><trkpt lat="42.4572783" lon="14.1244063"><ele>173.0</ele><time>2026-05-01T16:13:55.491Z</time></trkpt><trkpt lat="42.4573202" lon="14.1241969"><ele>172.0</ele><time>2026-05-01T16:13:56.495Z</time></trkpt><trkpt lat="42.4573876" lon="14.1239976"><ele>171.0</ele><time>2026-05-01T16:13:57.484Z</time></trkpt><trkpt lat="42.457444" lon="14.1237697"><ele>168.66666666666666</ele><time>2026-05-01T16:13:58.496Z</time></trkpt><trkpt lat="42.4575269" lon="14.1235529"><ele>166.33333333333331</ele><time>2026-05-01T16:13:59.487Z</time></trkpt><trkpt lat="42.4576021" lon="14.1233042"><ele>164.0</ele><time>2026-05-01T16:14:00.494Z</time></trkpt><trkpt lat="42.4576702" lon="14.1230809"><ele>163.33333333333331</ele><time>2026-05-01T16:14:01.494Z</time></trkpt><trkpt lat="42.4577359" lon="14.1228896"><ele>162.66666666666666</ele><time>2026-05-01T16:14:02.496Z</time></trkpt><trkpt lat="42.4578025" lon="14.122704"><ele>162.0</ele><time>2026-05-01T16:14:03.495Z</time></trkpt><trkpt lat="42.4578515" lon="14.1225182"><ele>161.33333333333334</ele><time>2026-05-01T16:14:04.502Z</time></trkpt><trkpt lat="42.4579013" lon="14.1223171"><ele>160.66666666666669</ele><time>2026-05-01T16:14:05.49Z</time></trkpt><trkpt lat="42.4579895" lon="14.1221433"><ele>160.0</ele><time>2026-05-01T16:14:06.489Z</time></trkpt><trkpt lat="42.4580997" lon="14.1219855"><ele>160.0</ele><time>2026-05-01T16:14:07.496Z</time></trkpt><trkpt lat="42.4582074" lon="14.1218279"><ele>160.0</ele><time>2026-05-01T16:14:08.488Z</time></trkpt><trkpt lat="42.4583483" lon="14.1216921"><ele>160.0</ele><time>2026-05-01T16:14:09.501Z</time></trkpt><trkpt lat="42.4585007" lon="14.1215484"><ele>160.0</ele><time>2026-05-01T16:14:10.492Z</time></trkpt><trkpt lat="42.4586536" lon="14.1213965"><ele>160.0</ele><time>2026-05-01T16:14:11.501Z</time></trkpt><trkpt lat="42.4587908" lon="14.1212361"><ele>160.0</ele><time>2026-05-01T16:14:12.495Z</time></trkpt><trkpt lat="42.458921" lon="14.1210861"><ele>160.0</ele><time>2026-05-01T16:14:13.505Z</time></trkpt><trkpt lat="42.4590543" lon="14.1209333"><ele>160.0</ele><time>2026-05-01T16:14:14.492Z</time></trkpt><trkpt lat="42.4591839" lon="14.1208088"><ele>160.0</ele><time>2026-05-01T16:14:15.503Z</time></trkpt><trkpt lat="42.4592978" lon="14.1206808"><ele>160.0</ele><time>2026-05-01T16:14:16.491Z</time></trkpt><trkpt lat="42.4594086" lon="14.1205522"><ele>160.0</ele><time>2026-05-01T16:14:17.504Z</time></trkpt><trkpt lat="42.4595042" lon="14.1204359"><ele>160.0</ele><time>2026-05-01T16:14:18.493Z</time></trkpt><trkpt lat="42.459615" lon="14.1203278"><ele>160.0</ele><time>2026-05-01T16:14:19.505Z</time></trkpt><trkpt lat="42.4597246" lon="14.1202366"><ele>160.0</ele><time>2026-05-01T16:14:20.49Z</time></trkpt><trkpt lat="42.4598154" lon="14.1201763"><ele>160.0</ele><time>2026-05-01T16:14:21.491Z</time></trkpt><trkpt lat="42.4598752" lon="14.1201351"><ele>160.0</ele><time>2026-05-01T16:14:22.485Z</time></trkpt><trkpt lat="42.4599356" lon="14.1200989"><ele>160.0</ele><time>2026-05-01T16:14:23.491Z</time></trkpt><trkpt lat="42.4600356" lon="14.1200811"><ele>160.0</ele><time>2026-05-01T16:14:24.488Z</time></trkpt><trkpt lat="42.4601445" lon="14.1200612"><ele>160.0</ele><time>2026-05-01T16:14:25.495Z</time></trkpt><trkpt lat="42.4602543" lon="14.1200344"><ele>160.0</ele><time>2026-05-01T16:14:26.486Z</time></trkpt><trkpt lat="42.4603636" lon="14.120051"><ele>160.0</ele><time>2026-05-01T16:14:27.494Z</time></trkpt><trkpt lat="42.4604911" lon="14.1201043"><ele>160.0</ele><time>2026-05-01T16:14:28.494Z</time></trkpt><trkpt lat="42.4606262" lon="14.1201744"><ele>160.0</ele><time>2026-05-01T16:14:29.491Z</time></trkpt><trkpt lat="42.4607738" lon="14.1202441"><ele>160.5</ele><time>2026-05-01T16:14:30.502Z</time></trkpt><trkpt lat="42.460915" lon="14.1203046"><ele>161.0</ele><time>2026-05-01T16:14:31.496Z</time></trkpt><trkpt lat="42.4610536" lon="14.1203442"><ele>161.5</ele><time>2026-05-01T16:14:32.494Z</time></trkpt><trkpt lat="42.4611821" lon="14.1203876"><ele>162.0</ele><time>2026-05-01T16:14:33.508Z</time></trkpt><trkpt lat="42.461316" lon="14.1204632"><ele>163.75</ele><time>2026-05-01T16:14:34.492Z</time></trkpt><trkpt lat="42.4614436" lon="14.1205221"><ele>165.5</ele><time>2026-05-01T16:14:35.493Z</time></trkpt><trkpt lat="42.4615759" lon="14.1205905"><ele>167.25</ele><time>2026-05-01T16:14:36.49Z</time></trkpt><trkpt lat="42.4616991" lon="14.1206808"><ele>169.0</ele><time>2026-05-01T16:14:37.495Z</time></trkpt><trkpt lat="42.4618398" lon="14.1207805"><ele>168.0</ele><time>2026-05-01T16:14:38.492Z</time></trkpt><trkpt lat="42.4619915" lon="14.1209173"><ele>167.0</ele><time>2026-05-01T16:14:39.494Z</time></trkpt><trkpt lat="42.4621465" lon="14.1210402"><ele>166.0</ele><time>2026-05-01T16:14:40.49Z</time></trkpt><trkpt lat="42.4622696" lon="14.1211607"><ele>166.0</ele><time>2026-05-01T16:14:41.497Z</time></trkpt><trkpt lat="42.4624207" lon="14.1212838"><ele>166.0</ele><time>2026-05-01T16:14:42.483Z</time></trkpt><trkpt lat="42.462552" lon="14.1213745"><ele>166.0</ele><time>2026-05-01T16:14:43.5Z</time></trkpt><trkpt lat="42.4627057" lon="14.1214683"><ele>162.33333333333334</ele><time>2026-05-01T16:14:44.489Z</time></trkpt><trkpt lat="42.4628289" lon="14.12157"><ele>158.66666666666666</ele><time>2026-05-01T16:14:45.498Z</time></trkpt><trkpt lat="42.4629614" lon="14.1216715"><ele>155.0</ele><time>2026-05-01T16:14:46.486Z</time></trkpt><trkpt lat="42.4631076" lon="14.1217785"><ele>155.0</ele><time>2026-05-01T16:14:47.499Z</time></trkpt><trkpt lat="42.4632467" lon="14.1218678"><ele>155.0</ele><time>2026-05-01T16:14:48.492Z</time></trkpt><trkpt lat="42.4633753" lon="14.1219379"><ele>155.0</ele><time>2026-05-01T16:14:49.503Z</time></trkpt><trkpt lat="42.4634851" lon="14.12203"><ele>155.0</ele><time>2026-05-01T16:14:50.493Z</time></trkpt><trkpt lat="42.4636006" lon="14.1221035"><ele>155.0</ele><time>2026-05-01T16:14:51.495Z</time></trkpt><trkpt lat="42.4637182" lon="14.1221898"><ele>155.0</ele><time>2026-05-01T16:14:52.491Z</time></trkpt><trkpt lat="42.4638429" lon="14.1222939"><ele>155.0</ele><time>2026-05-01T16:14:53.488Z</time></trkpt><trkpt lat="42.4639294" lon="14.1224589"><ele>155.0</ele><time>2026-05-01T16:14:54.492Z</time></trkpt><trkpt lat="42.4640106" lon="14.1226257"><ele>153.0</ele><time>2026-05-01T16:14:55.484Z</time></trkpt><trkpt lat="42.4641174" lon="14.1227889"><ele>151.0</ele><time>2026-05-01T16:14:56.488Z</time></trkpt><trkpt lat="42.4642078" lon="14.1229696"><ele>149.0</ele><time>2026-05-01T16:14:57.493Z</time></trkpt><trkpt lat="42.4642714" lon="14.1231626"><ele>149.0</ele><time>2026-05-01T16:14:58.504Z</time></trkpt><trkpt lat="42.4643366" lon="14.1233773"><ele>149.0</ele><time>2026-05-01T16:14:59.485Z</time></trkpt><trkpt lat="42.464379" lon="14.1236051"><ele>149.0</ele><time>2026-05-01T16:15:00.491Z</time></trkpt><trkpt lat="42.4644394" lon="14.1238249"><ele>149.0</ele><time>2026-05-01T16:15:01.489Z</time></trkpt><trkpt lat="42.4645071" lon="14.1240303"><ele>149.0</ele><time>2026-05-01T16:15:02.484Z</time></trkpt><trkpt lat="42.4645931" lon="14.1242147"><ele>149.0</ele><time>2026-05-01T16:15:03.496Z</time></trkpt><trkpt lat="42.4647072" lon="14.1243942"><ele>146.33333333333331</ele><time>2026-05-01T16:15:04.489Z</time></trkpt><trkpt lat="42.4648178" lon="14.1245467"><ele>143.66666666666666</ele><time>2026-05-01T16:15:05.499Z</time></trkpt><trkpt lat="42.4649448" lon="14.1246762"><ele>141.0</ele><time>2026-05-01T16:15:06.49Z</time></trkpt><trkpt lat="42.465071" lon="14.1248206"><ele>143.33333333333334</ele><time>2026-05-01T16:15:07.493Z</time></trkpt><trkpt lat="42.465171" lon="14.1249966"><ele>145.66666666666669</ele><time>2026-05-01T16:15:08.485Z</time></trkpt><trkpt lat="42.4652464" lon="14.1251904"><ele>148.0</ele><time>2026-05-01T16:15:09.493Z</time></trkpt><trkpt lat="42.4653342" lon="14.1253664"><ele>146.33333333333334</ele><time>2026-05-01T16:15:10.488Z</time></trkpt><trkpt lat="42.4654571" lon="14.1255305"><ele>144.66666666666666</ele><time>2026-05-01T16:15:11.496Z</time></trkpt><trkpt lat="42.465573" lon="14.1256976"><ele>143.0</ele><time>2026-05-01T16:15:12.487Z</time></trkpt><trkpt lat="42.4656788" lon="14.1258365"><ele>143.0</ele><time>2026-05-01T16:15:13.498Z</time></trkpt><trkpt lat="42.4657922" lon="14.1259748"><ele>143.0</ele><time>2026-05-01T16:15:14.49Z</time></trkpt><trkpt lat="42.4659234" lon="14.1260776"><ele>143.0</ele><time>2026-05-01T16:15:15.493Z</time></trkpt><trkpt lat="42.4660624" lon="14.1261406"><ele>143.0</ele><time>2026-05-01T16:15:16.491Z</time></trkpt><trkpt lat="42.4662149" lon="14.1261854"><ele>143.0</ele><time>2026-05-01T16:15:17.493Z</time></trkpt><trkpt lat="42.4663557" lon="14.1261999"><ele>143.0</ele><time>2026-05-01T16:15:18.499Z</time></trkpt><trkpt lat="42.4665061" lon="14.1262027"><ele>143.0</ele><time>2026-05-01T16:15:19.493Z</time></trkpt><trkpt lat="42.4666216" lon="14.1262494"><ele>142.0</ele><time>2026-05-01T16:15:20.495Z</time></trkpt><trkpt lat="42.4667343" lon="14.1263246"><ele>141.0</ele><time>2026-05-01T16:15:21.493Z</time></trkpt><trkpt lat="42.4668341" lon="14.1264507"><ele>140.0</ele><time>2026-05-01T16:15:22.5Z</time></trkpt><trkpt lat="42.4669324" lon="14.1266489"><ele>139.0</ele><time>2026-05-01T16:15:23.485Z</time></trkpt><trkpt lat="42.4670247" lon="14.1268542"><ele>137.66666666666669</ele><time>2026-05-01T16:15:24.497Z</time></trkpt><trkpt lat="42.4671236" lon="14.1270541"><ele>136.33333333333334</ele><time>2026-05-01T16:15:25.496Z</time></trkpt><trkpt lat="42.4672144" lon="14.1272542"><ele>135.0</ele><time>2026-05-01T16:15:26.499Z</time></trkpt><trkpt lat="42.4673165" lon="14.1274571"><ele>138.33333333333334</ele><time>2026-05-01T16:15:27.494Z</time></trkpt><trkpt lat="42.4674024" lon="14.1276889"><ele>141.66666666666669</ele><time>2026-05-01T16:15:28.51Z</time></trkpt><trkpt lat="42.4674856" lon="14.1279392"><ele>145.0</ele><time>2026-05-01T16:15:29.489Z</time></trkpt><trkpt lat="42.4675507" lon="14.1281749"><ele>145.5</ele><time>2026-05-01T16:15:30.496Z</time></trkpt><trkpt lat="42.4676218" lon="14.128325"><ele>146.0</ele><time>2026-05-01T16:15:31.491Z</time></trkpt><trkpt lat="42.4676801" lon="14.128478"><ele>146.5</ele><time>2026-05-01T16:15:32.505Z</time></trkpt><trkpt lat="42.46776" lon="14.1286186"><ele>147.0</ele><time>2026-05-01T16:15:33.484Z</time></trkpt><trkpt lat="42.4678516" lon="14.1287172"><ele>150.33333333333334</ele><time>2026-05-01T16:15:34.495Z</time></trkpt><trkpt lat="42.4679824" lon="14.1288248"><ele>153.66666666666669</ele><time>2026-05-01T16:15:35.486Z</time></trkpt><trkpt lat="42.4681362" lon="14.1289014"><ele>157.0</ele><time>2026-05-01T16:15:36.496Z</time></trkpt><trkpt lat="42.4682789" lon="14.1289584"><ele>157.0</ele><time>2026-05-01T16:15:37.49Z</time></trkpt><trkpt lat="42.4684394" lon="14.1290139"><ele>157.0</ele><time>2026-05-01T16:15:38.486Z</time></trkpt><trkpt lat="42.4685934" lon="14.1290631"><ele>157.0</ele><time>2026-05-01T16:15:39.499Z</time></trkpt><trkpt lat="42.4687421" lon="14.129118"><ele>155.25</ele><time>2026-05-01T16:15:40.497Z</time></trkpt><trkpt lat="42.4688861" lon="14.1291589"><ele>153.5</ele><time>2026-05-01T16:15:41.499Z</time></trkpt><trkpt lat="42.4690293" lon="14.1292158"><ele>151.75</ele><time>2026-05-01T16:15:42.494Z</time></trkpt><trkpt lat="42.4691554" lon="14.1292748"><ele>150.0</ele><time>2026-05-01T16:15:43.494Z</time></trkpt><trkpt lat="42.4692675" lon="14.1293429"><ele>150.0</ele><time>2026-05-01T16:15:44.492Z</time></trkpt><trkpt lat="42.4693926" lon="14.1294379"><ele>150.0</ele><time>2026-05-01T16:15:45.488Z</time></trkpt><trkpt lat="42.4695193" lon="14.1295609"><ele>150.0</ele><time>2026-05-01T16:15:46.493Z</time></trkpt><trkpt lat="42.4696512" lon="14.1297005"><ele>150.0</ele><time>2026-05-01T16:15:47.493Z</time></trkpt><trkpt lat="42.4697692" lon="14.1298434"><ele>150.0</ele><time>2026-05-01T16:15:48.491Z</time></trkpt><trkpt lat="42.4698886" lon="14.1299997"><ele>150.0</ele><time>2026-05-01T16:15:49.495Z</time></trkpt><trkpt lat="42.4699961" lon="14.1301369"><ele>150.0</ele><time>2026-05-01T16:15:50.489Z</time></trkpt><trkpt lat="42.4701059" lon="14.1302781"><ele>150.0</ele><time>2026-05-01T16:15:51.504Z</time></trkpt><trkpt lat="42.4702156" lon="14.1304071"><ele>150.0</ele><time>2026-05-01T16:15:52.498Z</time></trkpt><trkpt lat="42.4703109" lon="14.1305362"><ele>150.0</ele><time>2026-05-01T16:15:53.504Z</time></trkpt><trkpt lat="42.4704302" lon="14.1306606"><ele>148.0</ele><time>2026-05-01T16:15:54.492Z</time></trkpt><trkpt lat="42.4705419" lon="14.1307908"><ele>146.0</ele><time>2026-05-01T16:15:55.502Z</time></trkpt><trkpt lat="42.4706732" lon="14.130924"><ele>144.0</ele><time>2026-05-01T16:15:56.498Z</time></trkpt><trkpt lat="42.4708049" lon="14.131063"><ele>144.0</ele><time>2026-05-01T16:15:57.506Z</time></trkpt><trkpt lat="42.4709154" lon="14.1312097"><ele>144.0</ele><time>2026-05-01T16:15:58.496Z</time></trkpt><trkpt lat="42.4710326" lon="14.1313467"><ele>144.0</ele><time>2026-05-01T16:15:59.504Z</time></trkpt><trkpt lat="42.4711478" lon="14.1314891"><ele>143.5</ele><time>2026-05-01T16:16:00.49Z</time></trkpt><trkpt lat="42.471249" lon="14.1316158"><ele>143.0</ele><time>2026-05-01T16:16:01.501Z</time></trkpt><trkpt lat="42.4713407" lon="14.1317209"><ele>142.5</ele><time>2026-05-01T16:16:02.488Z</time></trkpt><trkpt lat="42.4714239" lon="14.1318588"><ele>142.0</ele><time>2026-05-01T16:16:03.499Z</time></trkpt><trkpt lat="42.4714812" lon="14.1320082"><ele>142.0</ele><time>2026-05-01T16:16:04.486Z</time></trkpt><trkpt lat="42.4714951" lon="14.1321793"><ele>142.0</ele><time>2026-05-01T16:16:05.504Z</time></trkpt><trkpt lat="42.4714992" lon="14.1323743"><ele>142.0</ele><time>2026-05-01T16:16:06.491Z</time></trkpt><trkpt lat="42.4715082" lon="14.1325424"><ele>142.0</ele><time>2026-05-01T16:16:07.501Z</time></trkpt><trkpt lat="42.4715204" lon="14.1327038"><ele>143.5</ele><time>2026-05-01T16:16:08.492Z</time></trkpt><trkpt lat="42.471544" lon="14.132872"><ele>145.0</ele><time>2026-05-01T16:16:09.497Z</time></trkpt><trkpt lat="42.4715871" lon="14.1330435"><ele>146.5</ele><time>2026-05-01T16:16:10.487Z</time></trkpt><trkpt lat="42.471654" lon="14.133206"><ele>148.0</ele><time>2026-05-01T16:16:11.492Z</time></trkpt><trkpt lat="42.4717457" lon="14.133336"><ele>148.0</ele><time>2026-05-01T16:16:12.485Z</time></trkpt><trkpt lat="42.4718657" lon="14.1334306"><ele>148.0</ele><time>2026-05-01T16:16:13.49Z</time></trkpt><trkpt lat="42.4720061" lon="14.1334744"><ele>148.0</ele><time>2026-05-01T16:16:14.492Z</time></trkpt><trkpt lat="42.4721476" lon="14.1334744"><ele>148.0</ele><time>2026-05-01T16:16:15.494Z</time></trkpt><trkpt lat="42.4722928" lon="14.1334525"><ele>150.5</ele><time>2026-05-01T16:16:16.492Z</time></trkpt><trkpt lat="42.4724363" lon="14.1334459"><ele>153.0</ele><time>2026-05-01T16:16:17.487Z</time></trkpt><trkpt lat="42.4725831" lon="14.1335025"><ele>155.5</ele><time>2026-05-01T16:16:18.494Z</time></trkpt><trkpt lat="42.4726947" lon="14.133638"><ele>158.0</ele><time>2026-05-01T16:16:19.49Z</time></trkpt><trkpt lat="42.4727866" lon="14.1337996"><ele>158.0</ele><time>2026-05-01T16:16:20.501Z</time></trkpt><trkpt lat="42.4729064" lon="14.133927"><ele>158.0</ele><time>2026-05-01T16:16:21.489Z</time></trkpt><trkpt lat="42.473057" lon="14.1340287"><ele>158.0</ele><time>2026-05-01T16:16:22.493Z</time></trkpt><trkpt lat="42.4732054" lon="14.1341094"><ele>160.0</ele><time>2026-05-01T16:16:23.491Z</time></trkpt><trkpt lat="42.4733381" lon="14.134226"><ele>162.0</ele><time>2026-05-01T16:16:24.483Z</time></trkpt><trkpt lat="42.4734582" lon="14.1343632"><ele>164.0</ele><time>2026-05-01T16:16:25.482Z</time></trkpt><trkpt lat="42.4735429" lon="14.134489"><ele>166.0</ele><time>2026-05-01T16:16:26.489Z</time></trkpt><trkpt lat="42.4736103" lon="14.1346368"><ele>166.0</ele><time>2026-05-01T16:16:27.484Z</time></trkpt><trkpt lat="42.4736416" lon="14.1348175"><ele>166.0</ele><time>2026-05-01T16:16:28.508Z</time></trkpt><trkpt lat="42.4736268" lon="14.1350031"><ele>166.0</ele><time>2026-05-01T16:16:29.484Z</time></trkpt><trkpt lat="42.4736327" lon="14.1351613"><ele>166.0</ele><time>2026-05-01T16:16:30.495Z</time></trkpt><trkpt lat="42.4736795" lon="14.1353176"><ele>164.0</ele><time>2026-05-01T16:16:31.492Z</time></trkpt><trkpt lat="42.4737513" lon="14.1354518"><ele>162.0</ele><time>2026-05-01T16:16:32.492Z</time></trkpt><trkpt lat="42.4738463" lon="14.1355482"><ele>160.0</ele><time>2026-05-01T16:16:33.502Z</time></trkpt><trkpt lat="42.4739747" lon="14.1356232"><ele>158.0</ele><time>2026-05-01T16:16:34.488Z</time></trkpt><trkpt lat="42.4741192" lon="14.1356843"><ele>160.66666666666666</ele><time>2026-05-01T16:16:35.495Z</time></trkpt><trkpt lat="42.4742704" lon="14.1357716"><ele>163.33333333333334</ele><time>2026-05-01T16:16:36.497Z</time></trkpt><trkpt lat="42.4744173" lon="14.1358581"><ele>166.0</ele><time>2026-05-01T16:16:37.493Z</time></trkpt><trkpt lat="42.4745402" lon="14.1359978"><ele>170.25</ele><time>2026-05-01T16:16:38.488Z</time></trkpt><trkpt lat="42.4746664" lon="14.1361015"><ele>174.5</ele><time>2026-05-01T16:16:39.489Z</time></trkpt><trkpt lat="42.4748047" lon="14.136173"><ele>178.75</ele><time>2026-05-01T16:16:40.478Z</time></trkpt><trkpt lat="42.4749388" lon="14.1362156"><ele>183.0</ele><time>2026-05-01T16:16:41.489Z</time></trkpt><trkpt lat="42.4750629" lon="14.1362777"><ele>183.0</ele><time>2026-05-01T16:16:42.491Z</time></trkpt><trkpt lat="42.4751719" lon="14.1363341"><ele>183.0</ele><time>2026-05-01T16:16:43.485Z</time></trkpt><trkpt lat="42.4752491" lon="14.1364682"><ele>183.0</ele><time>2026-05-01T16:16:44.491Z</time></trkpt><trkpt lat="42.4753379" lon="14.1365956"><ele>183.0</ele><time>2026-05-01T16:16:45.498Z</time></trkpt><trkpt lat="42.4754532" lon="14.1367277"><ele>183.0</ele><time>2026-05-01T16:16:46.49Z</time></trkpt><trkpt lat="42.4755826" lon="14.1368403"><ele>183.0</ele><time>2026-05-01T16:16:47.494Z</time></trkpt><trkpt lat="42.4757462" lon="14.1369533"><ele>183.0</ele><time>2026-05-01T16:16:48.49Z</time></trkpt><trkpt lat="42.4759163" lon="14.1370623"><ele>183.0</ele><time>2026-05-01T16:16:49.5Z</time></trkpt><trkpt lat="42.4760861" lon="14.1371692"><ele>183.0</ele><time>2026-05-01T16:16:50.488Z</time></trkpt><trkpt lat="42.4762452" lon="14.1372742"><ele>183.0</ele><time>2026-05-01T16:16:51.498Z</time></trkpt><trkpt lat="42.4763813" lon="14.1373537"><ele>182.0</ele><time>2026-05-01T16:16:52.485Z</time></trkpt><trkpt lat="42.4765318" lon="14.1374278"><ele>181.0</ele><time>2026-05-01T16:16:53.492Z</time></trkpt><trkpt lat="42.4766555" lon="14.1374637"><ele>180.0</ele><time>2026-05-01T16:16:54.489Z</time></trkpt><trkpt lat="42.4767984" lon="14.1374847"><ele>179.0</ele><time>2026-05-01T16:16:55.486Z</time></trkpt><trkpt lat="42.4769126" lon="14.1374896"><ele>179.0</ele><time>2026-05-01T16:16:56.493Z</time></trkpt><trkpt lat="42.4770254" lon="14.1374705"><ele>179.0</ele><time>2026-05-01T16:16:57.5Z</time></trkpt><trkpt lat="42.4771467" lon="14.1374727"><ele>179.0</ele><time>2026-05-01T16:16:58.494Z</time></trkpt><trkpt lat="42.477269" lon="14.1374627"><ele>179.0</ele><time>2026-05-01T16:16:59.495Z</time></trkpt><trkpt lat="42.4774011" lon="14.1374451"><ele>180.0</ele><time>2026-05-01T16:17:00.483Z</time></trkpt><trkpt lat="42.477543" lon="14.1374083"><ele>181.0</ele><time>2026-05-01T16:17:01.5Z</time></trkpt><trkpt lat="42.4776985" lon="14.1373314"><ele>182.0</ele><time>2026-05-01T16:17:02.484Z</time></trkpt><trkpt lat="42.4778408" lon="14.1372608"><ele>178.5</ele><time>2026-05-01T16:17:03.495Z</time></trkpt><trkpt lat="42.4779777" lon="14.1372257"><ele>175.0</ele><time>2026-05-01T16:17:04.479Z</time></trkpt><trkpt lat="42.4781089" lon="14.137179"><ele>171.5</ele><time>2026-05-01T16:17:05.482Z</time></trkpt><trkpt lat="42.4782163" lon="14.1371507"><ele>168.0</ele><time>2026-05-01T16:17:06.474Z</time></trkpt><trkpt lat="42.478337" lon="14.1371814"><ele>168.0</ele><time>2026-05-01T16:17:07.482Z</time></trkpt><trkpt lat="42.4784733" lon="14.1372409"><ele>168.0</ele><time>2026-05-01T16:17:08.483Z</time></trkpt><trkpt lat="42.4786146" lon="14.1373086"><ele>168.0</ele><time>2026-05-01T16:17:09.482Z</time></trkpt><trkpt lat="42.4787418" lon="14.1373451"><ele>168.0</ele><time>2026-05-01T16:17:10.476Z</time></trkpt><trkpt lat="42.4788762" lon="14.1373067"><ele>167.75</ele><time>2026-05-01T16:17:11.481Z</time></trkpt><trkpt lat="42.4790218" lon="14.1372378"><ele>167.5</ele><time>2026-05-01T16:17:12.478Z</time></trkpt><trkpt lat="42.4791297" lon="14.1371224"><ele>167.25</ele><time>2026-05-01T16:17:13.483Z</time></trkpt><trkpt lat="42.4792486" lon="14.1370142"><ele>167.0</ele><time>2026-05-01T16:17:14.481Z</time></trkpt><trkpt lat="42.4793604" lon="14.1368592"><ele>167.0</ele><time>2026-05-01T16:17:15.476Z</time></trkpt><trkpt lat="42.4794584" lon="14.136669"><ele>167.0</ele><time>2026-05-01T16:17:16.478Z</time></trkpt><trkpt lat="42.4795434" lon="14.1364658"><ele>167.0</ele><time>2026-05-01T16:17:17.474Z</time></trkpt><trkpt lat="42.4796295" lon="14.1363002"><ele>166.5</ele><time>2026-05-01T16:17:18.473Z</time></trkpt><trkpt lat="42.4797248" lon="14.1361825"><ele>166.0</ele><time>2026-05-01T16:17:19.474Z</time></trkpt><trkpt lat="42.479824" lon="14.1360795"><ele>165.5</ele><time>2026-05-01T16:17:20.481Z</time></trkpt><trkpt lat="42.4798965" lon="14.1359428"><ele>165.0</ele><time>2026-05-01T16:17:21.486Z</time></trkpt><trkpt lat="42.4799658" lon="14.1358051"><ele>163.0</ele><time>2026-05-01T16:17:22.48Z</time></trkpt><trkpt lat="42.4799967" lon="14.1356102"><ele>161.0</ele><time>2026-05-01T16:17:23.492Z</time></trkpt><trkpt lat="42.4800098" lon="14.1354637"><ele>159.0</ele><time>2026-05-01T16:17:24.49Z</time></trkpt><trkpt lat="42.4800448" lon="14.1353214"><ele>157.0</ele><time>2026-05-01T16:17:25.498Z</time></trkpt><trkpt lat="42.4800892" lon="14.1351596"><ele>157.0</ele><time>2026-05-01T16:17:26.486Z</time></trkpt><trkpt lat="42.4801621" lon="14.1350164"><ele>157.0</ele><time>2026-05-01T16:17:27.479Z</time></trkpt><trkpt lat="42.480258" lon="14.1348736"><ele>157.0</ele><time>2026-05-01T16:17:28.484Z</time></trkpt><trkpt lat="42.480397" lon="14.134763"><ele>157.0</ele><time>2026-05-01T16:17:29.489Z</time></trkpt><trkpt lat="42.4805591" lon="14.1347124"><ele>157.2</ele><time>2026-05-01T16:17:30.488Z</time></trkpt><trkpt lat="42.4806664" lon="14.1346829"><ele>157.39999999999998</ele><time>2026-05-01T16:17:31.493Z</time></trkpt><trkpt lat="42.4807518" lon="14.1346951"><ele>157.60000000000002</ele><time>2026-05-01T16:17:32.482Z</time></trkpt><trkpt lat="42.4808564" lon="14.1347912"><ele>157.8</ele><time>2026-05-01T16:17:33.492Z</time></trkpt><trkpt lat="42.4809584" lon="14.1348939"><ele>158.0</ele><time>2026-05-01T16:17:34.479Z</time></trkpt><trkpt lat="42.4810548" lon="14.1350208"><ele>158.0</ele><time>2026-05-01T16:17:35.483Z</time></trkpt><trkpt lat="42.4811356" lon="14.1351564"><ele>158.0</ele><time>2026-05-01T16:17:36.488Z</time></trkpt><trkpt lat="42.4811951" lon="14.135313"><ele>158.0</ele><time>2026-05-01T16:17:37.483Z</time></trkpt><trkpt lat="42.4812483" lon="14.1354975"><ele>158.0</ele><time>2026-05-01T16:17:38.494Z</time></trkpt><trkpt lat="42.4813019" lon="14.1356902"><ele>155.25</ele><time>2026-05-01T16:17:39.484Z</time></trkpt><trkpt lat="42.4813536" lon="14.1358959"><ele>152.5</ele><time>2026-05-01T16:17:40.49Z</time></trkpt><trkpt lat="42.4814026" lon="14.1360607"><ele>149.75</ele><time>2026-05-01T16:17:41.484Z</time></trkpt><trkpt lat="42.4814389" lon="14.1362574"><ele>147.0</ele><time>2026-05-01T16:17:42.483Z</time></trkpt><trkpt lat="42.4815035" lon="14.136429"><ele>148.5</ele><time>2026-05-01T16:17:43.478Z</time></trkpt><trkpt lat="42.4815874" lon="14.1365641"><ele>150.0</ele><time>2026-05-01T16:17:44.483Z</time></trkpt><trkpt lat="42.4817063" lon="14.136627"><ele>151.5</ele><time>2026-05-01T16:17:45.481Z</time></trkpt><trkpt lat="42.4818394" lon="14.1366215"><ele>153.0</ele><time>2026-05-01T16:17:46.494Z</time></trkpt><trkpt lat="42.4819635" lon="14.1365608"><ele>151.5</ele><time>2026-05-01T16:17:47.481Z</time></trkpt><trkpt lat="42.4820732" lon="14.1364508"><ele>150.0</ele><time>2026-05-01T16:17:48.489Z</time></trkpt><trkpt lat="42.4821559" lon="14.1362922"><ele>148.5</ele><time>2026-05-01T16:17:49.488Z</time></trkpt><trkpt lat="42.4822119" lon="14.1360782"><ele>147.0</ele><time>2026-05-01T16:17:50.492Z</time></trkpt><trkpt lat="42.4822334" lon="14.1358394"><ele>144.33333333333334</ele><time>2026-05-01T16:17:51.483Z</time></trkpt><trkpt lat="42.4822691" lon="14.1356212"><ele>141.66666666666669</ele><time>2026-05-01T16:17:52.481Z</time></trkpt><trkpt lat="42.4822962" lon="14.1354213"><ele>139.0</ele><time>2026-05-01T16:17:53.486Z</time></trkpt><trkpt lat="42.4823281" lon="14.1352263"><ele>139.0</ele><time>2026-05-01T16:17:54.483Z</time></trkpt><trkpt lat="42.4823798" lon="14.1350325"><ele>139.0</ele><time>2026-05-01T16:17:55.493Z</time></trkpt><trkpt lat="42.4824213" lon="14.1348204"><ele>139.0</ele><time>2026-05-01T16:17:56.486Z</time></trkpt><trkpt lat="42.4824568" lon="14.1346293"><ele>138.5</ele><time>2026-05-01T16:17:57.482Z</time></trkpt><trkpt lat="42.4825001" lon="14.1344321"><ele>138.0</ele><time>2026-05-01T16:17:58.496Z</time></trkpt><trkpt lat="42.4825427" lon="14.1342538"><ele>137.5</ele><time>2026-05-01T16:17:59.484Z</time></trkpt><trkpt lat="42.482583" lon="14.1340808"><ele>137.0</ele><time>2026-05-01T16:18:00.49Z</time></trkpt><trkpt lat="42.4826119" lon="14.1339195"><ele>136.0</ele><time>2026-05-01T16:18:01.486Z</time></trkpt><trkpt lat="42.4826533" lon="14.1337674"><ele>135.0</ele><time>2026-05-01T16:18:02.491Z</time></trkpt><trkpt lat="42.4827024" lon="14.1335913"><ele>134.0</ele><time>2026-05-01T16:18:03.485Z</time></trkpt><trkpt lat="42.4827631" lon="14.1334244"><ele>133.0</ele><time>2026-05-01T16:18:04.484Z</time></trkpt><trkpt lat="42.4828557" lon="14.1332871"><ele>132.0</ele><time>2026-05-01T16:18:05.485Z</time></trkpt><trkpt lat="42.4829627" lon="14.1331978"><ele>131.0</ele><time>2026-05-01T16:18:06.482Z</time></trkpt><trkpt lat="42.4830832" lon="14.1331322"><ele>130.0</ele><time>2026-05-01T16:18:07.486Z</time></trkpt><trkpt lat="42.483214" lon="14.1330961"><ele>129.0</ele><time>2026-05-01T16:18:08.49Z</time></trkpt><trkpt lat="42.4833454" lon="14.1330447"><ele>129.0</ele><time>2026-05-01T16:18:09.502Z</time></trkpt><trkpt lat="42.4834808" lon="14.1330103"><ele>129.0</ele><time>2026-05-01T16:18:10.488Z</time></trkpt><trkpt lat="42.4835953" lon="14.1329492"><ele>129.0</ele><time>2026-05-01T16:18:11.5Z</time></trkpt><trkpt lat="42.483707" lon="14.1328846"><ele>129.0</ele><time>2026-05-01T16:18:12.485Z</time></trkpt><trkpt lat="42.4838263" lon="14.1328515"><ele>128.0</ele><time>2026-05-01T16:18:13.499Z</time></trkpt><trkpt lat="42.4839498" lon="14.1327852"><ele>127.0</ele><time>2026-05-01T16:18:14.492Z</time></trkpt><trkpt lat="42.484066" lon="14.1327195"><ele>126.0</ele><time>2026-05-01T16:18:15.5Z</time></trkpt><trkpt lat="42.4841845" lon="14.1326539"><ele>125.0</ele><time>2026-05-01T16:18:16.49Z</time></trkpt><trkpt lat="42.4843093" lon="14.1325955"><ele>125.0</ele><time>2026-05-01T16:18:17.496Z</time></trkpt><trkpt lat="42.4844256" lon="14.1325419"><ele>125.0</ele><time>2026-05-01T16:18:18.491Z</time></trkpt><trkpt lat="42.4845405" lon="14.1324902"><ele>125.0</ele><time>2026-05-01T16:18:19.498Z</time></trkpt><trkpt lat="42.4846486" lon="14.1324383"><ele>125.0</ele><time>2026-05-01T16:18:20.492Z</time></trkpt><trkpt lat="42.484756" lon="14.1323852"><ele>123.8</ele><time>2026-05-01T16:18:21.496Z</time></trkpt><trkpt lat="42.4848582" lon="14.1323392"><ele>122.6</ele><time>2026-05-01T16:18:22.492Z</time></trkpt><trkpt lat="42.4849568" lon="14.132302"><ele>121.4</ele><time>2026-05-01T16:18:23.493Z</time></trkpt><trkpt lat="42.4850553" lon="14.1322872"><ele>120.2</ele><time>2026-05-01T16:18:24.498Z</time></trkpt><trkpt lat="42.4851543" lon="14.1322988"><ele>119.0</ele><time>2026-05-01T16:18:25.488Z</time></trkpt><trkpt lat="42.4852543" lon="14.1323458"><ele>119.2</ele><time>2026-05-01T16:18:26.495Z</time></trkpt><trkpt lat="42.4853538" lon="14.1324047"><ele>119.4</ele><time>2026-05-01T16:18:27.493Z</time></trkpt><trkpt lat="42.4854379" lon="14.1324788"><ele>119.6</ele><time>2026-05-01T16:18:28.502Z</time></trkpt><trkpt lat="42.48551" lon="14.1325696"><ele>119.8</ele><time>2026-05-01T16:18:29.491Z</time></trkpt><trkpt lat="42.4855836" lon="14.1326702"><ele>120.0</ele><time>2026-05-01T16:18:30.501Z</time></trkpt><trkpt lat="42.48566" lon="14.1327825"><ele>119.5</ele><time>2026-05-01T16:18:31.496Z</time></trkpt><trkpt lat="42.4857397" lon="14.1328992"><ele>119.0</ele><time>2026-05-01T16:18:32.501Z</time></trkpt><trkpt lat="42.4858286" lon="14.1330122"><ele>118.5</ele><time>2026-05-01T16:18:33.492Z</time></trkpt><trkpt lat="42.4859148" lon="14.1331183"><ele>118.0</ele><time>2026-05-01T16:18:34.5Z</time></trkpt><trkpt lat="42.4859939" lon="14.1332156"><ele>117.80000000000001</ele><time>2026-05-01T16:18:35.492Z</time></trkpt><trkpt lat="42.4860688" lon="14.1333089"><ele>117.60000000000001</ele><time>2026-05-01T16:18:36.502Z</time></trkpt><trkpt lat="42.486142" lon="14.133397"><ele>117.39999999999999</ele><time>2026-05-01T16:18:37.494Z</time></trkpt><trkpt lat="42.4862163" lon="14.1334863"><ele>117.19999999999999</ele><time>2026-05-01T16:18:38.503Z</time></trkpt><trkpt lat="42.4862902" lon="14.1335736"><ele>117.0</ele><time>2026-05-01T16:18:39.493Z</time></trkpt><trkpt lat="42.4863595" lon="14.1336542"><ele>117.0</ele><time>2026-05-01T16:18:40.508Z</time></trkpt><trkpt lat="42.4864276" lon="14.1337376"><ele>117.0</ele><time>2026-05-01T16:18:41.492Z</time></trkpt><trkpt lat="42.4864895" lon="14.1338198"><ele>117.0</ele><time>2026-05-01T16:18:42.503Z</time></trkpt><trkpt lat="42.4865426" lon="14.1338958"><ele>117.0</ele><time>2026-05-01T16:18:43.494Z</time></trkpt><trkpt lat="42.4865918" lon="14.133978"><ele>117.0</ele><time>2026-05-01T16:18:44.499Z</time></trkpt><trkpt lat="42.4866414" lon="14.1340623"><ele>117.0</ele><time>2026-05-01T16:18:45.489Z</time></trkpt><trkpt lat="42.4866849" lon="14.1341637"><ele>117.0</ele><time>2026-05-01T16:18:46.508Z</time></trkpt><trkpt lat="42.4867125" lon="14.1343111"><ele>117.0</ele><time>2026-05-01T16:18:47.493Z</time></trkpt><trkpt lat="42.4867365" lon="14.1344897"><ele>117.0</ele><time>2026-05-01T16:18:48.498Z</time></trkpt><trkpt lat="42.4867615" lon="14.1346605"><ele>117.0</ele><time>2026-05-01T16:18:49.492Z</time></trkpt><trkpt lat="42.4867786" lon="14.1348186"><ele>117.0</ele><time>2026-05-01T16:18:50.503Z</time></trkpt><trkpt lat="42.4867918" lon="14.1349732"><ele>117.0</ele><time>2026-05-01T16:18:51.491Z</time></trkpt><trkpt lat="42.4868084" lon="14.1351304"><ele>117.0</ele><time>2026-05-01T16:18:52.496Z</time></trkpt><trkpt lat="42.4868353" lon="14.1352956"><ele>117.0</ele><time>2026-05-01T16:18:53.494Z</time></trkpt><trkpt lat="42.4868671" lon="14.1354668"><ele>117.0</ele><time>2026-05-01T16:18:54.497Z</time></trkpt><trkpt lat="42.4868996" lon="14.1356416"><ele>117.0</ele><time>2026-05-01T16:18:55.489Z</time></trkpt><trkpt lat="42.4869363" lon="14.135817"><ele>117.0</ele><time>2026-05-01T16:18:56.489Z</time></trkpt><trkpt lat="42.486995" lon="14.1360084"><ele>117.0</ele><time>2026-05-01T16:18:57.484Z</time></trkpt><trkpt lat="42.4870909" lon="14.1362692"><ele>117.66666666666666</ele><time>2026-05-01T16:18:58.504Z</time></trkpt><trkpt lat="42.4871892" lon="14.1364905"><ele>118.33333333333333</ele><time>2026-05-01T16:18:59.493Z</time></trkpt><trkpt lat="42.487265" lon="14.136689"><ele>119.0</ele><time>2026-05-01T16:19:00.497Z</time></trkpt><trkpt lat="42.4873212" lon="14.1368608"><ele>120.25</ele><time>2026-05-01T16:19:01.497Z</time></trkpt><trkpt lat="42.487393" lon="14.1370196"><ele>121.5</ele><time>2026-05-01T16:19:02.497Z</time></trkpt><trkpt lat="42.487465" lon="14.1371753"><ele>122.75</ele><time>2026-05-01T16:19:03.504Z</time></trkpt><trkpt lat="42.4875229" lon="14.1373685"><ele>124.0</ele><time>2026-05-01T16:19:04.487Z</time></trkpt><trkpt lat="42.4875688" lon="14.1375783"><ele>124.0</ele><time>2026-05-01T16:19:05.489Z</time></trkpt><trkpt lat="42.4876014" lon="14.1377994"><ele>124.0</ele><time>2026-05-01T16:19:06.492Z</time></trkpt><trkpt lat="42.4876072" lon="14.1379731"><ele>124.0</ele><time>2026-05-01T16:19:07.497Z</time></trkpt><trkpt lat="42.4876016" lon="14.1381555"><ele>124.0</ele><time>2026-05-01T16:19:08.486Z</time></trkpt><trkpt lat="42.4875918" lon="14.1383146"><ele>124.25</ele><time>2026-05-01T16:19:09.492Z</time></trkpt><trkpt lat="42.487608" lon="14.1384807"><ele>124.5</ele><time>2026-05-01T16:19:10.491Z</time></trkpt><trkpt lat="42.487609" lon="14.138638"><ele>124.75</ele><time>2026-05-01T16:19:11.495Z</time></trkpt><trkpt lat="42.4876582" lon="14.1388"><ele>125.0</ele><time>2026-05-01T16:19:12.493Z</time></trkpt><trkpt lat="42.4877104" lon="14.1389531"><ele>125.2</ele><time>2026-05-01T16:19:13.495Z</time></trkpt><trkpt lat="42.487774" lon="14.1390928"><ele>125.4</ele><time>2026-05-01T16:19:14.491Z</time></trkpt><trkpt lat="42.4878464" lon="14.1392064"><ele>125.6</ele><time>2026-05-01T16:19:15.49Z</time></trkpt><trkpt lat="42.4879294" lon="14.1392949"><ele>125.8</ele><time>2026-05-01T16:19:16.488Z</time></trkpt><trkpt lat="42.4880224" lon="14.1393657"><ele>126.0</ele><time>2026-05-01T16:19:17.495Z</time></trkpt><trkpt lat="42.4881241" lon="14.1394197"><ele>127.6</ele><time>2026-05-01T16:19:18.498Z</time></trkpt><trkpt lat="42.4882356" lon="14.1394464"><ele>129.2</ele><time>2026-05-01T16:19:19.492Z</time></trkpt><trkpt lat="42.488351" lon="14.1394558"><ele>130.8</ele><time>2026-05-01T16:19:20.492Z</time></trkpt><trkpt lat="42.4884481" lon="14.1394592"><ele>132.4</ele><time>2026-05-01T16:19:21.487Z</time></trkpt><trkpt lat="42.488541" lon="14.139448"><ele>134.0</ele><time>2026-05-01T16:19:22.503Z</time></trkpt><trkpt lat="42.4886329" lon="14.1394373"><ele>134.0</ele><time>2026-05-01T16:19:23.497Z</time></trkpt><trkpt lat="42.4887146" lon="14.1394343"><ele>134.0</ele><time>2026-05-01T16:19:24.495Z</time></trkpt><trkpt lat="42.4887812" lon="14.1394347"><ele>134.0</ele><time>2026-05-01T16:19:25.496Z</time></trkpt><trkpt lat="42.48888" lon="14.1394491"><ele>134.0</ele><time>2026-05-01T16:19:27.496Z</time></trkpt><trkpt lat="42.4889776" lon="14.1394612"><ele>134.0</ele><time>2026-05-01T16:19:29.499Z</time></trkpt><trkpt lat="42.4890508" lon="14.1394946"><ele>134.0</ele><time>2026-05-01T16:19:31.499Z</time></trkpt><trkpt lat="42.489146" lon="14.139574"><ele>134.5</ele><time>2026-05-01T16:19:33.506Z</time></trkpt><trkpt lat="42.4892092" lon="14.1396291"><ele>135.0</ele><time>2026-05-01T16:19:34.497Z</time></trkpt><trkpt lat="42.4892753" lon="14.1396624"><ele>135.5</ele><time>2026-05-01T16:19:35.492Z</time></trkpt><trkpt lat="42.4893463" lon="14.139654"><ele>136.0</ele><time>2026-05-01T16:19:36.487Z</time></trkpt><trkpt lat="42.4894237" lon="14.1396032"><ele>136.5</ele><time>2026-05-01T16:19:37.491Z</time></trkpt><trkpt lat="42.4894979" lon="14.1395338"><ele>137.0</ele><time>2026-05-01T16:19:38.493Z</time></trkpt><trkpt lat="42.4895877" lon="14.1394835"><ele>138.0</ele><time>2026-05-01T16:19:39.491Z</time></trkpt><trkpt lat="42.4896969" lon="14.1394484"><ele>139.0</ele><time>2026-05-01T16:19:40.486Z</time></trkpt><trkpt lat="42.4898359" lon="14.1394575"><ele>140.0</ele><time>2026-05-01T16:19:41.493Z</time></trkpt><trkpt lat="42.4899848" lon="14.1394708"><ele>141.0</ele><time>2026-05-01T16:19:42.504Z</time></trkpt><trkpt lat="42.4901135" lon="14.1394799"><ele>141.0</ele><time>2026-05-01T16:19:43.492Z</time></trkpt><trkpt lat="42.4902315" lon="14.1394907"><ele>141.0</ele><time>2026-05-01T16:19:44.5Z</time></trkpt><trkpt lat="42.4903425" lon="14.1394963"><ele>141.0</ele><time>2026-05-01T16:19:45.491Z</time></trkpt><trkpt lat="42.4904454" lon="14.1395032"><ele>141.0</ele><time>2026-05-01T16:19:46.495Z</time></trkpt><trkpt lat="42.490549" lon="14.139507"><ele>141.0</ele><time>2026-05-01T16:19:47.493Z</time></trkpt><trkpt lat="42.490646" lon="14.1395135"><ele>142.66666666666666</ele><time>2026-05-01T16:19:48.497Z</time></trkpt><trkpt lat="42.49073" lon="14.1395275"><ele>144.33333333333334</ele><time>2026-05-01T16:19:49.489Z</time></trkpt><trkpt lat="42.490801" lon="14.1395478"><ele>146.0</ele><time>2026-05-01T16:19:50.491Z</time></trkpt><trkpt lat="42.490863" lon="14.1395917"><ele>147.66666666666669</ele><time>2026-05-01T16:19:51.495Z</time></trkpt><trkpt lat="42.4909087" lon="14.1396707"><ele>149.33333333333334</ele><time>2026-05-01T16:19:52.49Z</time></trkpt><trkpt lat="42.4909221" lon="14.1397777"><ele>151.0</ele><time>2026-05-01T16:19:53.494Z</time></trkpt><trkpt lat="42.4909264" lon="14.1399012"><ele>152.0</ele><time>2026-05-01T16:19:54.484Z</time></trkpt><trkpt lat="42.4908986" lon="14.1400604"><ele>153.0</ele><time>2026-05-01T16:19:55.486Z</time></trkpt><trkpt lat="42.4908832" lon="14.1402261"><ele>154.0</ele><time>2026-05-01T16:19:56.484Z</time></trkpt><trkpt lat="42.4908682" lon="14.140386"><ele>155.0</ele><time>2026-05-01T16:19:57.487Z</time></trkpt><trkpt lat="42.490858" lon="14.1405167"><ele>155.0</ele><time>2026-05-01T16:19:58.5Z</time></trkpt><trkpt lat="42.4908481" lon="14.1406412"><ele>155.0</ele><time>2026-05-01T16:19:59.487Z</time></trkpt><trkpt lat="42.4908501" lon="14.1407624"><ele>155.0</ele><time>2026-05-01T16:20:00.494Z</time></trkpt><trkpt lat="42.4908824" lon="14.1408679"><ele>155.0</ele><time>2026-05-01T16:20:01.484Z</time></trkpt><trkpt lat="42.4909326" lon="14.140963"><ele>155.0</ele><time>2026-05-01T16:20:02.487Z</time></trkpt><trkpt lat="42.4910175" lon="14.1409703"><ele>155.0</ele><time>2026-05-01T16:20:03.49Z</time></trkpt><trkpt lat="42.4911026" lon="14.1409134"><ele>155.0</ele><time>2026-05-01T16:20:04.492Z</time></trkpt><trkpt lat="42.4911683" lon="14.1408099"><ele>155.0</ele><time>2026-05-01T16:20:05.481Z</time></trkpt><trkpt lat="42.4912375" lon="14.1407004"><ele>155.0</ele><time>2026-05-01T16:20:06.487Z</time></trkpt><trkpt lat="42.4912896" lon="14.1405963"><ele>155.0</ele><time>2026-05-01T16:20:07.481Z</time></trkpt><trkpt lat="42.491331" lon="14.1405139"><ele>155.0</ele><time>2026-05-01T16:20:08.492Z</time></trkpt><trkpt lat="42.4913677" lon="14.1404291"><ele>155.0</ele><time>2026-05-01T16:20:09.486Z</time></trkpt><trkpt lat="42.491398" lon="14.1403505"><ele>156.2</ele><time>2026-05-01T16:20:10.485Z</time></trkpt><trkpt lat="42.4914687" lon="14.1402939"><ele>157.4</ele><time>2026-05-01T16:20:12.486Z</time></trkpt><trkpt lat="42.4915606" lon="14.1403783"><ele>158.60000000000002</ele><time>2026-05-01T16:20:14.494Z</time></trkpt><trkpt lat="42.4916128" lon="14.1404619"><ele>159.8</ele><time>2026-05-01T16:20:15.479Z</time></trkpt><trkpt lat="42.4916571" lon="14.1405915"><ele>161.0</ele><time>2026-05-01T16:20:16.489Z</time></trkpt><trkpt lat="42.491687" lon="14.140728"><ele>161.0</ele><time>2026-05-01T16:20:17.487Z</time></trkpt><trkpt lat="42.491716" lon="14.1408603"><ele>161.0</ele><time>2026-05-01T16:20:18.494Z</time></trkpt><trkpt lat="42.4917462" lon="14.1409891"><ele>161.0</ele><time>2026-05-01T16:20:19.49Z</time></trkpt><trkpt lat="42.4917659" lon="14.1411115"><ele>161.0</ele><time>2026-05-01T16:20:20.493Z</time></trkpt><trkpt lat="42.4917783" lon="14.141231"><ele>161.0</ele><time>2026-05-01T16:20:21.489Z</time></trkpt><trkpt lat="42.4917877" lon="14.1413564"><ele>161.0</ele><time>2026-05-01T16:20:22.489Z</time></trkpt><trkpt lat="42.4917873" lon="14.1414904"><ele>161.0</ele><time>2026-05-01T16:20:23.492Z</time></trkpt><trkpt lat="42.4917727" lon="14.1416305"><ele>161.0</ele><time>2026-05-01T16:20:24.482Z</time></trkpt><trkpt lat="42.4917423" lon="14.1417767"><ele>161.0</ele><time>2026-05-01T16:20:25.494Z</time></trkpt><trkpt lat="42.4916878" lon="14.1419095"><ele>161.0</ele><time>2026-05-01T16:20:26.484Z</time></trkpt><trkpt lat="42.491631" lon="14.1420411"><ele>161.0</ele><time>2026-05-01T16:20:27.496Z</time></trkpt><trkpt lat="42.4915822" lon="14.1421756"><ele>161.0</ele><time>2026-05-01T16:20:28.486Z</time></trkpt><trkpt lat="42.4915755" lon="14.1423047"><ele>161.0</ele><time>2026-05-01T16:20:29.485Z</time></trkpt><trkpt lat="42.4916069" lon="14.1424454"><ele>161.0</ele><time>2026-05-01T16:20:30.483Z</time></trkpt><trkpt lat="42.4916657" lon="14.1425797"><ele>161.0</ele><time>2026-05-01T16:20:31.494Z</time></trkpt><trkpt lat="42.4917298" lon="14.1426998"><ele>160.20000000000002</ele><time>2026-05-01T16:20:32.485Z</time></trkpt><trkpt lat="42.4917882" lon="14.1428134"><ele>159.4</ele><time>2026-05-01T16:20:33.495Z</time></trkpt><trkpt lat="42.4918355" lon="14.1429369"><ele>158.6</ele><time>2026-05-01T16:20:34.483Z</time></trkpt><trkpt lat="42.4918595" lon="14.1430557"><ele>157.8</ele><time>2026-05-01T16:20:35.481Z</time></trkpt><trkpt lat="42.4918569" lon="14.143171"><ele>157.0</ele><time>2026-05-01T16:20:36.477Z</time></trkpt><trkpt lat="42.4917983" lon="14.1432652"><ele>156.0</ele><time>2026-05-01T16:20:37.487Z</time></trkpt><trkpt lat="42.4917187" lon="14.1433767"><ele>155.0</ele><time>2026-05-01T16:20:38.481Z</time></trkpt><trkpt lat="42.4916572" lon="14.1434978"><ele>154.0</ele><time>2026-05-01T16:20:39.48Z</time></trkpt><trkpt lat="42.4916247" lon="14.1436311"><ele>153.0</ele><time>2026-05-01T16:20:40.48Z</time></trkpt><trkpt lat="42.4916687" lon="14.1437991"><ele>153.0</ele><time>2026-05-01T16:20:41.477Z</time></trkpt><trkpt lat="42.4917263" lon="14.1439539"><ele>153.0</ele><time>2026-05-01T16:20:42.47Z</time></trkpt><trkpt lat="42.4917881" lon="14.14411"><ele>153.0</ele><time>2026-05-01T16:20:43.487Z</time></trkpt><trkpt lat="42.4918815" lon="14.144246"><ele>153.0</ele><time>2026-05-01T16:20:44.489Z</time></trkpt><trkpt lat="42.4920427" lon="14.1443058"><ele>146.0</ele><time>2026-05-01T16:20:45.486Z</time></trkpt><trkpt lat="42.4922193" lon="14.144382"><ele>139.0</ele><time>2026-05-01T16:20:46.479Z</time></trkpt><trkpt lat="42.492396" lon="14.1443988"><ele>132.0</ele><time>2026-05-01T16:20:47.48Z</time></trkpt><trkpt lat="42.4925321" lon="14.1444587"><ele>132.0</ele><time>2026-05-01T16:20:48.492Z</time></trkpt><trkpt lat="42.4926356" lon="14.1445573"><ele>132.0</ele><time>2026-05-01T16:20:49.486Z</time></trkpt><trkpt lat="42.4927619" lon="14.1446408"><ele>132.0</ele><time>2026-05-01T16:20:50.497Z</time></trkpt><trkpt lat="42.4928895" lon="14.1447328"><ele>132.0</ele><time>2026-05-01T16:20:51.479Z</time></trkpt><trkpt lat="42.4929941" lon="14.1447811"><ele>133.25</ele><time>2026-05-01T16:20:52.49Z</time></trkpt><trkpt lat="42.4930922" lon="14.1449626"><ele>134.5</ele><time>2026-05-01T16:20:53.488Z</time></trkpt><trkpt lat="42.4931905" lon="14.1451307"><ele>135.75</ele><time>2026-05-01T16:20:54.486Z</time></trkpt><trkpt lat="42.4932933" lon="14.1452258"><ele>137.0</ele><time>2026-05-01T16:20:55.484Z</time></trkpt><trkpt lat="42.4933885" lon="14.1453366"><ele>137.0</ele><time>2026-05-01T16:20:56.476Z</time></trkpt><trkpt lat="42.4934891" lon="14.1453681"><ele>137.0</ele><time>2026-05-01T16:20:57.489Z</time></trkpt><trkpt lat="42.4935973" lon="14.1453502"><ele>137.0</ele><time>2026-05-01T16:20:58.481Z</time></trkpt><trkpt lat="42.4937009" lon="14.1453121"><ele>137.0</ele><time>2026-05-01T16:20:59.481Z</time></trkpt><trkpt lat="42.4937913" lon="14.1451968"><ele>137.0</ele><time>2026-05-01T16:21:00.486Z</time></trkpt><trkpt lat="42.4938572" lon="14.1449932"><ele>130.66666666666666</ele><time>2026-05-01T16:21:01.484Z</time></trkpt><trkpt lat="42.4939169" lon="14.1447692"><ele>124.33333333333334</ele><time>2026-05-01T16:21:02.486Z</time></trkpt><trkpt lat="42.4939558" lon="14.1445577"><ele>118.0</ele><time>2026-05-01T16:21:03.481Z</time></trkpt><trkpt lat="42.4939883" lon="14.1443742"><ele>118.0</ele><time>2026-05-01T16:21:04.485Z</time></trkpt><trkpt lat="42.4940312" lon="14.1442429"><ele>118.0</ele><time>2026-05-01T16:21:05.481Z</time></trkpt><trkpt lat="42.4941207" lon="14.1440828"><ele>118.0</ele><time>2026-05-01T16:21:06.49Z</time></trkpt><trkpt lat="42.4941831" lon="14.1439715"><ele>118.0</ele><time>2026-05-01T16:21:07.479Z</time></trkpt><trkpt lat="42.4942758" lon="14.1439124"><ele>114.5</ele><time>2026-05-01T16:21:08.484Z</time></trkpt><trkpt lat="42.4944165" lon="14.1438705"><ele>111.0</ele><time>2026-05-01T16:21:09.482Z</time></trkpt><trkpt lat="42.4945319" lon="14.1437832"><ele>107.5</ele><time>2026-05-01T16:21:10.484Z</time></trkpt><trkpt lat="42.4946669" lon="14.143735"><ele>104.0</ele><time>2026-05-01T16:21:11.474Z</time></trkpt><trkpt lat="42.4948145" lon="14.1437249"><ele>104.0</ele><time>2026-05-01T16:21:12.49Z</time></trkpt><trkpt lat="42.4949438" lon="14.1437718"><ele>104.0</ele><time>2026-05-01T16:21:13.484Z</time></trkpt><trkpt lat="42.4951057" lon="14.1437743"><ele>104.0</ele><time>2026-05-01T16:21:14.487Z</time></trkpt><trkpt lat="42.4952423" lon="14.1437442"><ele>104.0</ele><time>2026-05-01T16:21:15.485Z</time></trkpt><trkpt lat="42.4953931" lon="14.1437306"><ele>105.75</ele><time>2026-05-01T16:21:16.493Z</time></trkpt><trkpt lat="42.4955188" lon="14.1437056"><ele>107.5</ele><time>2026-05-01T16:21:17.485Z</time></trkpt><trkpt lat="42.4956314" lon="14.1436848"><ele>109.25</ele><time>2026-05-01T16:21:18.482Z</time></trkpt><trkpt lat="42.4957418" lon="14.143585"><ele>111.0</ele><time>2026-05-01T16:21:19.484Z</time></trkpt><trkpt lat="42.4958632" lon="14.1434741"><ele>111.0</ele><time>2026-05-01T16:21:20.493Z</time></trkpt><trkpt lat="42.4960074" lon="14.1433476"><ele>111.0</ele><time>2026-05-01T16:21:21.487Z</time></trkpt><trkpt lat="42.4961569" lon="14.1432317"><ele>111.0</ele><time>2026-05-01T16:21:22.494Z</time></trkpt><trkpt lat="42.4963013" lon="14.1431367"><ele>108.25</ele><time>2026-05-01T16:21:23.493Z</time></trkpt><trkpt lat="42.4964387" lon="14.1430287"><ele>105.5</ele><time>2026-05-01T16:21:24.495Z</time></trkpt><trkpt lat="42.4965585" lon="14.1429269"><ele>102.75</ele><time>2026-05-01T16:21:25.485Z</time></trkpt><trkpt lat="42.4966762" lon="14.1428501"><ele>100.0</ele><time>2026-05-01T16:21:26.488Z</time></trkpt><trkpt lat="42.4967856" lon="14.1427523"><ele>100.0</ele><time>2026-05-01T16:21:27.487Z</time></trkpt><trkpt lat="42.4968938" lon="14.1426506"><ele>100.0</ele><time>2026-05-01T16:21:28.49Z</time></trkpt><trkpt lat="42.4970047" lon="14.1425595"><ele>100.0</ele><time>2026-05-01T16:21:29.494Z</time></trkpt><trkpt lat="42.4971135" lon="14.1424613"><ele>100.0</ele><time>2026-05-01T16:21:30.497Z</time></trkpt><trkpt lat="42.4972197" lon="14.1423387"><ele>96.25</ele><time>2026-05-01T16:21:31.5Z</time></trkpt><trkpt lat="42.4973126" lon="14.1421985"><ele>92.5</ele><time>2026-05-01T16:21:32.496Z</time></trkpt><trkpt lat="42.4973922" lon="14.1420777"><ele>88.75</ele><time>2026-05-01T16:21:33.497Z</time></trkpt><trkpt lat="42.4974757" lon="14.1419907"><ele>85.0</ele><time>2026-05-01T16:21:34.488Z</time></trkpt><trkpt lat="42.4975518" lon="14.1419218"><ele>85.0</ele><time>2026-05-01T16:21:35.496Z</time></trkpt><trkpt lat="42.4976314" lon="14.1419087"><ele>85.0</ele><time>2026-05-01T16:21:36.497Z</time></trkpt><trkpt lat="42.4977099" lon="14.14195"><ele>85.0</ele><time>2026-05-01T16:21:37.501Z</time></trkpt><trkpt lat="42.4977606" lon="14.1420428"><ele>85.0</ele><time>2026-05-01T16:21:38.496Z</time></trkpt><trkpt lat="42.4977631" lon="14.1421671"><ele>85.0</ele><time>2026-05-01T16:21:39.499Z</time></trkpt><trkpt lat="42.497688" lon="14.1423415"><ele>85.33333333333333</ele><time>2026-05-01T16:21:40.481Z</time></trkpt><trkpt lat="42.4975686" lon="14.1425382"><ele>85.66666666666667</ele><time>2026-05-01T16:21:41.501Z</time></trkpt><trkpt lat="42.4974421" lon="14.1427367"><ele>86.0</ele><time>2026-05-01T16:21:42.483Z</time></trkpt><trkpt lat="42.4972461" lon="14.1429684"><ele>89.33333333333334</ele><time>2026-05-01T16:21:43.488Z</time></trkpt><trkpt lat="42.4970779" lon="14.1431472"><ele>92.66666666666667</ele><time>2026-05-01T16:21:44.482Z</time></trkpt><trkpt lat="42.4969742" lon="14.143313"><ele>96.0</ele><time>2026-05-01T16:21:45.488Z</time></trkpt><trkpt lat="42.496888" lon="14.1434818"><ele>96.0</ele><time>2026-05-01T16:21:46.487Z</time></trkpt><trkpt lat="42.4968002" lon="14.1436482"><ele>96.0</ele><time>2026-05-01T16:21:47.49Z</time></trkpt><trkpt lat="42.4966983" lon="14.1437695"><ele>96.0</ele><time>2026-05-01T16:21:48.494Z</time></trkpt><trkpt lat="42.4966112" lon="14.1438968"><ele>96.0</ele><time>2026-05-01T16:21:49.493Z</time></trkpt><trkpt lat="42.4965158" lon="14.1440018"><ele>92.5</ele><time>2026-05-01T16:21:50.486Z</time></trkpt><trkpt lat="42.4964307" lon="14.1441143"><ele>89.0</ele><time>2026-05-01T16:21:51.492Z</time></trkpt><trkpt lat="42.4963684" lon="14.1442344"><ele>85.5</ele><time>2026-05-01T16:21:52.487Z</time></trkpt><trkpt lat="42.496325" lon="14.144399"><ele>82.0</ele><time>2026-05-01T16:21:53.493Z</time></trkpt><trkpt lat="42.4963159" lon="14.1445849"><ele>82.0</ele><time>2026-05-01T16:21:54.485Z</time></trkpt><trkpt lat="42.4963279" lon="14.1447511"><ele>82.0</ele><time>2026-05-01T16:21:55.493Z</time></trkpt><trkpt lat="42.4963451" lon="14.1449132"><ele>82.0</ele><time>2026-05-01T16:21:56.489Z</time></trkpt><trkpt lat="42.49635" lon="14.1450714"><ele>82.0</ele><time>2026-05-01T16:21:57.482Z</time></trkpt><trkpt lat="42.4963597" lon="14.1452192"><ele>82.0</ele><time>2026-05-01T16:21:58.486Z</time></trkpt><trkpt lat="42.4963385" lon="14.1453752"><ele>82.0</ele><time>2026-05-01T16:21:59.483Z</time></trkpt><trkpt lat="42.4962626" lon="14.1454959"><ele>82.0</ele><time>2026-05-01T16:22:00.483Z</time></trkpt><trkpt lat="42.4962066" lon="14.1456324"><ele>82.0</ele><time>2026-05-01T16:22:01.477Z</time></trkpt><trkpt lat="42.4961623" lon="14.1457632"><ele>82.0</ele><time>2026-05-01T16:22:02.482Z</time></trkpt><trkpt lat="42.4961583" lon="14.1458848"><ele>82.0</ele><time>2026-05-01T16:22:03.487Z</time></trkpt><trkpt lat="42.4962173" lon="14.1459973"><ele>82.0</ele><time>2026-05-01T16:22:04.483Z</time></trkpt><trkpt lat="42.4962997" lon="14.1460873"><ele>82.0</ele><time>2026-05-01T16:22:05.481Z</time></trkpt><trkpt lat="42.4963968" lon="14.1461276"><ele>82.0</ele><time>2026-05-01T16:22:06.48Z</time></trkpt><trkpt lat="42.4965018" lon="14.1461282"><ele>79.5</ele><time>2026-05-01T16:22:07.487Z</time></trkpt><trkpt lat="42.4966011" lon="14.1460722"><ele>77.0</ele><time>2026-05-01T16:22:08.487Z</time></trkpt><trkpt lat="42.4966788" lon="14.145974"><ele>74.5</ele><time>2026-05-01T16:22:09.476Z</time></trkpt><trkpt lat="42.4967405" lon="14.1458347"><ele>72.0</ele><time>2026-05-01T16:22:10.482Z</time></trkpt><trkpt lat="42.4967715" lon="14.1456677"><ele>71.5</ele><time>2026-05-01T16:22:11.48Z</time></trkpt><trkpt lat="42.4967733" lon="14.1454944"><ele>71.0</ele><time>2026-05-01T16:22:12.493Z</time></trkpt><trkpt lat="42.496781" lon="14.1453258"><ele>70.5</ele><time>2026-05-01T16:22:13.478Z</time></trkpt><trkpt lat="42.4968109" lon="14.145152"><ele>70.0</ele><time>2026-05-01T16:22:14.485Z</time></trkpt><trkpt lat="42.4968673" lon="14.1449823"><ele>67.5</ele><time>2026-05-01T16:22:15.48Z</time></trkpt><trkpt lat="42.4969447" lon="14.144838"><ele>65.0</ele><time>2026-05-01T16:22:16.481Z</time></trkpt><trkpt lat="42.4970323" lon="14.1447102"><ele>62.5</ele><time>2026-05-01T16:22:17.48Z</time></trkpt><trkpt lat="42.4971385" lon="14.1446062"><ele>60.0</ele><time>2026-05-01T16:22:18.478Z</time></trkpt><trkpt lat="42.4972609" lon="14.1445223"><ele>60.0</ele><time>2026-05-01T16:22:19.49Z</time></trkpt><trkpt lat="42.4973838" lon="14.1444501"><ele>60.0</ele><time>2026-05-01T16:22:20.476Z</time></trkpt><trkpt lat="42.4975014" lon="14.1443752"><ele>60.0</ele><time>2026-05-01T16:22:21.489Z</time></trkpt><trkpt lat="42.4976135" lon="14.1442911"><ele>60.0</ele><time>2026-05-01T16:22:22.487Z</time></trkpt><trkpt lat="42.4977294" lon="14.1441658"><ele>57.0</ele><time>2026-05-01T16:22:23.496Z</time></trkpt><trkpt lat="42.4978431" lon="14.1440229"><ele>54.0</ele><time>2026-05-01T16:22:24.484Z</time></trkpt><trkpt lat="42.4979473" lon="14.1438543"><ele>51.0</ele><time>2026-05-01T16:22:25.494Z</time></trkpt><trkpt lat="42.4980429" lon="14.1436922"><ele>51.0</ele><time>2026-05-01T16:22:26.482Z</time></trkpt><trkpt lat="42.4981275" lon="14.1435306"><ele>51.0</ele><time>2026-05-01T16:22:27.497Z</time></trkpt><trkpt lat="42.4982151" lon="14.1433881"><ele>51.0</ele><time>2026-05-01T16:22:28.491Z</time></trkpt><trkpt lat="42.4982971" lon="14.1432593"><ele>51.0</ele><time>2026-05-01T16:22:29.499Z</time></trkpt><trkpt lat="42.4983708" lon="14.143126"><ele>53.166666666666664</ele><time>2026-05-01T16:22:30.484Z</time></trkpt><trkpt lat="42.498438" lon="14.1430123"><ele>55.33333333333333</ele><time>2026-05-01T16:22:31.501Z</time></trkpt><trkpt lat="42.4985081" lon="14.1429003"><ele>57.5</ele><time>2026-05-01T16:22:32.482Z</time></trkpt><trkpt lat="42.4985639" lon="14.1427985"><ele>59.666666666666664</ele><time>2026-05-01T16:22:33.487Z</time></trkpt><trkpt lat="42.4986093" lon="14.1427367"><ele>61.83333333333333</ele><time>2026-05-01T16:22:34.481Z</time></trkpt><trkpt lat="42.4986684" lon="14.1427056"><ele>64.0</ele><time>2026-05-01T16:22:36.482Z</time></trkpt><trkpt lat="42.4987361" lon="14.1426407"><ele>59.800000000000004</ele><time>2026-05-01T16:23:02.492Z</time></trkpt><trkpt lat="42.4987791" lon="14.1425"><ele>55.60000000000001</ele><time>2026-05-01T16:23:05.485Z</time></trkpt><trkpt lat="42.4987991" lon="14.1423671"><ele>51.4</ele><time>2026-05-01T16:23:06.484Z</time></trkpt><trkpt lat="42.4988208" lon="14.142215"><ele>47.2</ele><time>2026-05-01T16:23:07.486Z</time></trkpt><trkpt lat="42.4988677" lon="14.1420642"><ele>43.0</ele><time>2026-05-01T16:23:08.48Z</time></trkpt><trkpt lat="42.4989266" lon="14.1419299"><ele>43.0</ele><time>2026-05-01T16:23:09.486Z</time></trkpt><trkpt lat="42.4989931" lon="14.1418011"><ele>43.0</ele><time>2026-05-01T16:23:10.488Z</time></trkpt><trkpt lat="42.4990607" lon="14.1416771"><ele>43.0</ele><time>2026-05-01T16:23:11.488Z</time></trkpt><trkpt lat="42.4991303" lon="14.1415692"><ele>43.0</ele><time>2026-05-01T16:23:12.484Z</time></trkpt><trkpt lat="42.4992089" lon="14.1414651"><ele>43.0</ele><time>2026-05-01T16:23:13.487Z</time></trkpt><trkpt lat="42.4992908" lon="14.1413622"><ele>45.25</ele><time>2026-05-01T16:23:14.491Z</time></trkpt><trkpt lat="42.4993788" lon="14.1412556"><ele>47.5</ele><time>2026-05-01T16:23:15.483Z</time></trkpt><trkpt lat="42.4994664" lon="14.1411574"><ele>49.75</ele><time>2026-05-01T16:23:16.485Z</time></trkpt><trkpt lat="42.4995599" lon="14.1410717"><ele>52.0</ele><time>2026-05-01T16:23:17.485Z</time></trkpt><trkpt lat="42.4996522" lon="14.1409932"><ele>48.75</ele><time>2026-05-01T16:23:18.487Z</time></trkpt><trkpt lat="42.4997507" lon="14.1409041"><ele>45.5</ele><time>2026-05-01T16:23:19.491Z</time></trkpt><trkpt lat="42.4998568" lon="14.1408034"><ele>42.25</ele><time>2026-05-01T16:23:20.484Z</time></trkpt><trkpt lat="42.4999596" lon="14.1406914"><ele>39.0</ele><time>2026-05-01T16:23:21.486Z</time></trkpt><trkpt lat="42.5000584" lon="14.1405714"><ele>39.0</ele><time>2026-05-01T16:23:22.488Z</time></trkpt><trkpt lat="42.5001491" lon="14.1404403"><ele>39.0</ele><time>2026-05-01T16:23:23.484Z</time></trkpt><trkpt lat="42.5002287" lon="14.1403104"><ele>39.0</ele><time>2026-05-01T16:23:24.486Z</time></trkpt><trkpt lat="42.5003018" lon="14.1401797"><ele>39.0</ele><time>2026-05-01T16:23:25.488Z</time></trkpt><trkpt lat="42.5003776" lon="14.1400536"><ele>36.0</ele><time>2026-05-01T16:23:26.488Z</time></trkpt><trkpt lat="42.5004523" lon="14.1399233"><ele>33.0</ele><time>2026-05-01T16:23:27.488Z</time></trkpt><trkpt lat="42.5005275" lon="14.139796"><ele>30.0</ele><time>2026-05-01T16:23:28.489Z</time></trkpt><trkpt lat="42.5005937" lon="14.1396783"><ele>27.0</ele><time>2026-05-01T16:23:29.488Z</time></trkpt><trkpt lat="42.5006582" lon="14.1395663"><ele>26.8</ele><time>2026-05-01T16:23:30.489Z</time></trkpt><trkpt lat="42.5007138" lon="14.1394581"><ele>26.6</ele><time>2026-05-01T16:23:31.487Z</time></trkpt><trkpt lat="42.500766" lon="14.1393482"><ele>26.400000000000002</ele><time>2026-05-01T16:23:32.484Z</time></trkpt><trkpt lat="42.5008227" lon="14.1392356"><ele>26.200000000000003</ele><time>2026-05-01T16:23:33.481Z</time></trkpt><trkpt lat="42.5008771" lon="14.1391286"><ele>26.0</ele><time>2026-05-01T16:23:34.485Z</time></trkpt><trkpt lat="42.5009267" lon="14.1390245"><ele>25.0</ele><time>2026-05-01T16:23:35.498Z</time></trkpt><trkpt lat="42.5009753" lon="14.1389254"><ele>24.0</ele><time>2026-05-01T16:23:36.487Z</time></trkpt><trkpt lat="42.5010151" lon="14.138837"><ele>23.0</ele><time>2026-05-01T16:23:37.489Z</time></trkpt><trkpt lat="42.501072" lon="14.138712"><ele>22.0</ele><time>2026-05-01T16:23:39.489Z</time></trkpt><trkpt lat="42.5011269" lon="14.138594"><ele>21.0</ele><time>2026-05-01T16:23:41.487Z</time></trkpt><trkpt lat="42.5011749" lon="14.1385067"><ele>21.0</ele><time>2026-05-01T16:23:43.486Z</time></trkpt><trkpt lat="42.5012296" lon="14.13841"><ele>21.0</ele><time>2026-05-01T16:23:45.487Z</time></trkpt><trkpt lat="42.5012658" lon="14.1382912"><ele>21.0</ele><time>2026-05-01T16:23:47.492Z</time></trkpt><trkpt lat="42.5012857" lon="14.138139"><ele>21.0</ele><time>2026-05-01T16:23:49.489Z</time></trkpt><trkpt lat="42.5012977" lon="14.1380446"><ele>21.0</ele><time>2026-05-01T16:23:50.49Z</time></trkpt><trkpt lat="42.5013139" lon="14.1379303"><ele>19.75</ele><time>2026-05-01T16:23:51.481Z</time></trkpt><trkpt lat="42.501341" lon="14.1377929"><ele>18.5</ele><time>2026-05-01T16:23:52.48Z</time></trkpt><trkpt lat="42.501372" lon="14.1376384"><ele>17.25</ele><time>2026-05-01T16:23:53.489Z</time></trkpt><trkpt lat="42.5014134" lon="14.1374769"><ele>16.0</ele><time>2026-05-01T16:23:54.484Z</time></trkpt><trkpt lat="42.5014598" lon="14.1372966"><ele>15.600000000000001</ele><time>2026-05-01T16:23:55.488Z</time></trkpt><trkpt lat="42.501508" lon="14.1371247"><ele>15.200000000000001</ele><time>2026-05-01T16:23:56.482Z</time></trkpt><trkpt lat="42.5015584" lon="14.1369782"><ele>14.799999999999999</ele><time>2026-05-01T16:23:57.483Z</time></trkpt><trkpt lat="42.5015953" lon="14.1368516"><ele>14.399999999999999</ele><time>2026-05-01T16:23:58.482Z</time></trkpt><trkpt lat="42.5016216" lon="14.1367498"><ele>14.0</ele><time>2026-05-01T16:23:59.491Z</time></trkpt><trkpt lat="42.501667" lon="14.136592"><ele>14.0</ele><time>2026-05-01T16:24:01.488Z</time></trkpt><trkpt lat="42.5016948" lon="14.1365051"><ele>13.999999999999998</ele><time>2026-05-01T16:24:02.481Z</time></trkpt><trkpt lat="42.5017235" lon="14.1363636"><ele>13.999999999999998</ele><time>2026-05-01T16:24:04.484Z</time></trkpt><trkpt lat="42.5017446" lon="14.1362461"><ele>14.0</ele><time>2026-05-01T16:24:06.487Z</time></trkpt><trkpt lat="42.5017758" lon="14.1361246"><ele>14.0</ele><time>2026-05-01T16:24:08.5Z</time></trkpt><trkpt lat="42.5018201" lon="14.1359664"><ele>14.000000000000002</ele><time>2026-05-01T16:24:10.495Z</time></trkpt><trkpt lat="42.5018419" lon="14.1358805"><ele>14.0</ele><time>2026-05-01T16:24:11.489Z</time></trkpt><trkpt lat="42.5018637" lon="14.1357783"><ele>14.0</ele><time>2026-05-01T16:24:12.483Z</time></trkpt><trkpt lat="42.5018931" lon="14.1356693"><ele>14.0</ele><time>2026-05-01T16:24:13.494Z</time></trkpt><trkpt lat="42.5019227" lon="14.1355554"><ele>14.000000000000002</ele><time>2026-05-01T16:24:14.481Z</time></trkpt><trkpt lat="42.5019522" lon="14.1354446"><ele>14.0</ele><time>2026-05-01T16:24:15.487Z</time></trkpt><trkpt lat="42.5019791" lon="14.1353397"><ele>14.000000000000002</ele><time>2026-05-01T16:24:16.479Z</time></trkpt><trkpt lat="42.5020116" lon="14.13525"><ele>14.0</ele><time>2026-05-01T16:24:17.482Z</time></trkpt><trkpt lat="42.5020409" lon="14.1351582"><ele>14.0</ele><time>2026-05-01T16:24:18.49Z</time></trkpt><trkpt lat="42.5020718" lon="14.1350612"><ele>14.0</ele><time>2026-05-01T16:24:19.481Z</time></trkpt><trkpt lat="42.5021004" lon="14.1349731"><ele>14.000000000000002</ele><time>2026-05-01T16:24:20.497Z</time></trkpt><trkpt lat="42.5021525" lon="14.134858"><ele>14.0</ele><time>2026-05-01T16:24:22.484Z</time></trkpt><trkpt lat="42.5022267" lon="14.1347632"><ele>14.0</ele><time>2026-05-01T16:24:26.482Z</time></trkpt><trkpt lat="42.5023184" lon="14.134717"><ele>13.999999999999998</ele><time>2026-05-01T16:24:29.48Z</time></trkpt><trkpt lat="42.5024462" lon="14.1347299"><ele>13.999999999999998</ele><time>2026-05-01T16:24:31.489Z</time></trkpt><trkpt lat="42.5025256" lon="14.1347579"><ele>14.0</ele><time>2026-05-01T16:24:32.479Z</time></trkpt><trkpt lat="42.5026002" lon="14.1348174"><ele>14.0</ele><time>2026-05-01T16:24:33.481Z</time></trkpt><trkpt lat="42.5026791" lon="14.1349042"><ele>14.0</ele><time>2026-05-01T16:24:34.479Z</time></trkpt><trkpt lat="42.5027532" lon="14.1349901"><ele>13.999999999999998</ele><time>2026-05-01T16:24:35.481Z</time></trkpt><trkpt lat="42.5028176" lon="14.1350701"><ele>13.999999999999998</ele><time>2026-05-01T16:24:36.484Z</time></trkpt><trkpt lat="42.5028653" lon="14.1351401"><ele>14.0</ele><time>2026-05-01T16:24:37.484Z</time></trkpt><trkpt lat="42.5029396" lon="14.1352647"><ele>14.0</ele><time>2026-05-01T16:24:39.487Z</time></trkpt><trkpt lat="42.5030209" lon="14.1353663"><ele>13.799999999999999</ele><time>2026-05-01T16:24:41.483Z</time></trkpt><trkpt lat="42.5030916" lon="14.1353726"><ele>13.599999999999998</ele><time>2026-05-01T16:24:43.488Z</time></trkpt><trkpt lat="42.503173" lon="14.1352089"><ele>13.4</ele><time>2026-05-01T16:24:45.483Z</time></trkpt><trkpt lat="42.5031997" lon="14.1350695"><ele>13.2</ele><time>2026-05-01T16:24:46.487Z</time></trkpt><trkpt lat="42.5032255" lon="14.1349344"><ele>13.0</ele><time>2026-05-01T16:24:47.487Z</time></trkpt><trkpt lat="42.5032407" lon="14.1348021"><ele>13.0</ele><time>2026-05-01T16:24:48.483Z</time></trkpt><trkpt lat="42.5032678" lon="14.134654"><ele>13.0</ele><time>2026-05-01T16:24:49.484Z</time></trkpt><trkpt lat="42.5033061" lon="14.1344998"><ele>13.0</ele><time>2026-05-01T16:24:50.482Z</time></trkpt><trkpt lat="42.5033537" lon="14.134347"><ele>13.0</ele><time>2026-05-01T16:24:51.488Z</time></trkpt><trkpt lat="42.503392" lon="14.1341913"><ele>13.0</ele><time>2026-05-01T16:24:52.487Z</time></trkpt><trkpt lat="42.5034291" lon="14.134043"><ele>13.0</ele><time>2026-05-01T16:24:53.487Z</time></trkpt><trkpt lat="42.5034701" lon="14.1339034"><ele>13.0</ele><time>2026-05-01T16:24:54.486Z</time></trkpt><trkpt lat="42.5035145" lon="14.1337741"><ele>13.0</ele><time>2026-05-01T16:24:55.481Z</time></trkpt><trkpt lat="42.5035733" lon="14.1336532"><ele>13.0</ele><time>2026-05-01T16:24:56.484Z</time></trkpt><trkpt lat="42.5036661" lon="14.1335518"><ele>13.0</ele><time>2026-05-01T16:24:57.486Z</time></trkpt><trkpt lat="42.5037872" lon="14.1334501"><ele>13.0</ele><time>2026-05-01T16:24:58.485Z</time></trkpt><trkpt lat="42.503916" lon="14.1333389"><ele>13.0</ele><time>2026-05-01T16:24:59.486Z</time></trkpt><trkpt lat="42.5040757" lon="14.1332186"><ele>13.0</ele><time>2026-05-01T16:25:00.487Z</time></trkpt><trkpt lat="42.5042" lon="14.1331241"><ele>13.0</ele><time>2026-05-01T16:25:01.492Z</time></trkpt><trkpt lat="42.504325" lon="14.133007"><ele>13.0</ele><time>2026-05-01T16:25:02.487Z</time></trkpt><trkpt lat="42.5044477" lon="14.1329031"><ele>13.0</ele><time>2026-05-01T16:25:03.494Z</time></trkpt><trkpt lat="42.5045672" lon="14.1327775"><ele>11.666666666666666</ele><time>2026-05-01T16:25:04.484Z</time></trkpt><trkpt lat="42.5047196" lon="14.1326604"><ele>10.333333333333332</ele><time>2026-05-01T16:25:05.495Z</time></trkpt><trkpt lat="42.5048811" lon="14.1325242"><ele>9.0</ele><time>2026-05-01T16:25:06.484Z</time></trkpt><trkpt lat="42.5050432" lon="14.1323826"><ele>9.0</ele><time>2026-05-01T16:25:07.486Z</time></trkpt><trkpt lat="42.5051868" lon="14.1322481"><ele>9.0</ele><time>2026-05-01T16:25:08.48Z</time></trkpt><trkpt lat="42.5053111" lon="14.1321024"><ele>9.0</ele><time>2026-05-01T16:25:09.486Z</time></trkpt><trkpt lat="42.5054576" lon="14.1319869"><ele>9.0</ele><time>2026-05-01T16:25:10.484Z</time></trkpt><trkpt lat="42.5056005" lon="14.1318509"><ele>9.0</ele><time>2026-05-01T16:25:11.484Z</time></trkpt><trkpt lat="42.5057354" lon="14.1317354"><ele>9.0</ele><time>2026-05-01T16:25:12.5Z</time></trkpt><trkpt lat="42.5058521" lon="14.1316179"><ele>9.0</ele><time>2026-05-01T16:25:13.494Z</time></trkpt><trkpt lat="42.5059673" lon="14.1314899"><ele>9.0</ele><time>2026-05-01T16:25:14.497Z</time></trkpt><trkpt lat="42.5060845" lon="14.1313712"><ele>9.0</ele><time>2026-05-01T16:25:15.488Z</time></trkpt><trkpt lat="42.5062026" lon="14.1312589"><ele>9.0</ele><time>2026-05-01T16:25:16.493Z</time></trkpt><trkpt lat="42.506343" lon="14.1311451"><ele>9.0</ele><time>2026-05-01T16:25:17.491Z</time></trkpt><trkpt lat="42.5064837" lon="14.1310961"><ele>9.0</ele><time>2026-05-01T16:25:18.487Z</time></trkpt><trkpt lat="42.5066362" lon="14.1310238"><ele>9.0</ele><time>2026-05-01T16:25:19.484Z</time></trkpt><trkpt lat="42.5067812" lon="14.1309468"><ele>9.0</ele><time>2026-05-01T16:25:20.492Z</time></trkpt><trkpt lat="42.5069213" lon="14.1308735"><ele>9.0</ele><time>2026-05-01T16:25:21.484Z</time></trkpt><trkpt lat="42.5070883" lon="14.1308049"><ele>9.0</ele><time>2026-05-01T16:25:22.497Z</time></trkpt><trkpt lat="42.5072395" lon="14.1307479"><ele>9.75</ele><time>2026-05-01T16:25:23.495Z</time></trkpt><trkpt lat="42.5073698" lon="14.130712"><ele>10.5</ele><time>2026-05-01T16:25:24.501Z</time></trkpt><trkpt lat="42.5075004" lon="14.1306742"><ele>11.25</ele><time>2026-05-01T16:25:25.488Z</time></trkpt><trkpt lat="42.5076154" lon="14.1306367"><ele>12.0</ele><time>2026-05-01T16:25:26.494Z</time></trkpt><trkpt lat="42.5077404" lon="14.1305757"><ele>12.0</ele><time>2026-05-01T16:25:27.487Z</time></trkpt><trkpt lat="42.5078404" lon="14.1304977"><ele>12.0</ele><time>2026-05-01T16:25:28.506Z</time></trkpt><trkpt lat="42.5079488" lon="14.1304349"><ele>12.0</ele><time>2026-05-01T16:25:29.507Z</time></trkpt><trkpt lat="42.5080523" lon="14.1303491"><ele>12.0</ele><time>2026-05-01T16:25:30.494Z</time></trkpt><trkpt lat="42.5081512" lon="14.1302717"><ele>12.0</ele><time>2026-05-01T16:25:31.499Z</time></trkpt><trkpt lat="42.5082477" lon="14.1301962"><ele>12.0</ele><time>2026-05-01T16:25:32.501Z</time></trkpt><trkpt lat="42.5083462" lon="14.1301188"><ele>12.0</ele><time>2026-05-01T16:25:33.485Z</time></trkpt><trkpt lat="42.5084371" lon="14.1300454"><ele>12.0</ele><time>2026-05-01T16:25:34.486Z</time></trkpt><trkpt lat="42.5085113" lon="14.1299849"><ele>12.0</ele><time>2026-05-01T16:25:35.487Z</time></trkpt><trkpt lat="42.5085751" lon="14.1299293"><ele>11.0</ele><time>2026-05-01T16:25:36.49Z</time></trkpt><trkpt lat="42.5086291" lon="14.1298792"><ele>10.0</ele><time>2026-05-01T16:25:37.49Z</time></trkpt><trkpt lat="42.5086858" lon="14.1298198"><ele>9.0</ele><time>2026-05-01T16:25:40.488Z</time></trkpt><trkpt lat="42.5087636" lon="14.1297909"><ele>8.0</ele><time>2026-05-01T16:25:43.489Z</time></trkpt><trkpt lat="42.5088906" lon="14.1298102"><ele>7.0</ele><time>2026-05-01T16:25:45.489Z</time></trkpt><trkpt lat="42.5089676" lon="14.1298392"><ele>6.0</ele><time>2026-05-01T16:25:46.489Z</time></trkpt><trkpt lat="42.5090459" lon="14.129876"><ele>6.25</ele><time>2026-05-01T16:25:47.481Z</time></trkpt><trkpt lat="42.5091225" lon="14.1299421"><ele>6.5</ele><time>2026-05-01T16:25:48.494Z</time></trkpt><trkpt lat="42.5091993" lon="14.1300408"><ele>6.75</ele><time>2026-05-01T16:25:49.49Z</time></trkpt><trkpt lat="42.5092812" lon="14.1301625"><ele>7.0</ele><time>2026-05-01T16:25:50.494Z</time></trkpt><trkpt lat="42.5093822" lon="14.1303004"><ele>7.0</ele><time>2026-05-01T16:25:51.486Z</time></trkpt><trkpt lat="42.5094927" lon="14.1304536"><ele>7.0</ele><time>2026-05-01T16:25:52.493Z</time></trkpt><trkpt lat="42.5096103" lon="14.130631"><ele>7.0</ele><time>2026-05-01T16:25:53.509Z</time></trkpt><trkpt lat="42.5096745" lon="14.1307749"><ele>6.333333333333334</ele><time>2026-05-01T16:25:54.49Z</time></trkpt><trkpt lat="42.5097712" lon="14.1309069"><ele>5.666666666666667</ele><time>2026-05-01T16:25:55.489Z</time></trkpt><trkpt lat="42.5098792" lon="14.1310545"><ele>5.0</ele><time>2026-05-01T16:25:56.493Z</time></trkpt><trkpt lat="42.5099914" lon="14.1312356"><ele>5.0</ele><time>2026-05-01T16:25:57.488Z</time></trkpt><trkpt lat="42.510091" lon="14.131425"><ele>5.0</ele><time>2026-05-01T16:25:58.495Z</time></trkpt><trkpt lat="42.510192" lon="14.131568"><ele>5.0</ele><time>2026-05-01T16:25:59.486Z</time></trkpt><trkpt lat="42.5102614" lon="14.1317202"><ele>5.0</ele><time>2026-05-01T16:26:00.485Z</time></trkpt><trkpt lat="42.5103481" lon="14.1318631"><ele>4.75</ele><time>2026-05-01T16:26:01.506Z</time></trkpt><trkpt lat="42.5104331" lon="14.1320057"><ele>4.5</ele><time>2026-05-01T16:26:02.489Z</time></trkpt><trkpt lat="42.5105034" lon="14.1321451"><ele>4.25</ele><time>2026-05-01T16:26:03.497Z</time></trkpt><trkpt lat="42.5105845" lon="14.1323052"><ele>4.0</ele><time>2026-05-01T16:26:04.49Z</time></trkpt><trkpt lat="42.5106667" lon="14.1324521"><ele>4.5</ele><time>2026-05-01T16:26:05.491Z</time></trkpt><trkpt lat="42.5107477" lon="14.132623"><ele>5.0</ele><time>2026-05-01T16:26:06.489Z</time></trkpt><trkpt lat="42.5108342" lon="14.1327827"><ele>5.5</ele><time>2026-05-01T16:26:07.5Z</time></trkpt><trkpt lat="42.5109154" lon="14.1329163"><ele>6.0</ele><time>2026-05-01T16:26:08.488Z</time></trkpt><trkpt lat="42.5109826" lon="14.1330469"><ele>6.0</ele><time>2026-05-01T16:26:09.491Z</time></trkpt><trkpt lat="42.511052" lon="14.1331685"><ele>6.0</ele><time>2026-05-01T16:26:10.486Z</time></trkpt><trkpt lat="42.5111314" lon="14.1333055"><ele>6.0</ele><time>2026-05-01T16:26:11.498Z</time></trkpt><trkpt lat="42.5112166" lon="14.1334458"><ele>6.0</ele><time>2026-05-01T16:26:12.488Z</time></trkpt><trkpt lat="42.5112996" lon="14.1335926"><ele>5.75</ele><time>2026-05-01T16:26:13.488Z</time></trkpt><trkpt lat="42.5113746" lon="14.1337385"><ele>5.5</ele><time>2026-05-01T16:26:14.491Z</time></trkpt><trkpt lat="42.5114554" lon="14.1338897"><ele>5.25</ele><time>2026-05-01T16:26:15.49Z</time></trkpt><trkpt lat="42.5115248" lon="14.1340432"><ele>5.0</ele><time>2026-05-01T16:26:16.499Z</time></trkpt><trkpt lat="42.5116019" lon="14.1341943"><ele>5.0</ele><time>2026-05-01T16:26:17.49Z</time></trkpt><trkpt lat="42.5116703" lon="14.1343263"><ele>5.0</ele><time>2026-05-01T16:26:18.494Z</time></trkpt><trkpt lat="42.5117736" lon="14.13445"><ele>5.0</ele><time>2026-05-01T16:26:19.49Z</time></trkpt><trkpt lat="42.5118788" lon="14.134555"><ele>5.0</ele><time>2026-05-01T16:26:20.499Z</time></trkpt><trkpt lat="42.511992" lon="14.1346426"><ele>4.5</ele><time>2026-05-01T16:26:21.487Z</time></trkpt><trkpt lat="42.5121182" lon="14.1347334"><ele>4.0</ele><time>2026-05-01T16:26:22.492Z</time></trkpt><trkpt lat="42.512249" lon="14.1348135"><ele>3.5</ele><time>2026-05-01T16:26:23.496Z</time></trkpt><trkpt lat="42.5123728" lon="14.1349005"><ele>3.0</ele><time>2026-05-01T16:26:24.501Z</time></trkpt><trkpt lat="42.5124957" lon="14.1349864"><ele>3.0</ele><time>2026-05-01T16:26:25.491Z</time></trkpt><trkpt lat="42.5126115" lon="14.1350714"><ele>3.0</ele><time>2026-05-01T16:26:26.496Z</time></trkpt><trkpt lat="42.5127468" lon="14.1351557"><ele>3.0</ele><time>2026-05-01T16:26:27.491Z</time></trkpt><trkpt lat="42.5128665" lon="14.1352398"><ele>3.0</ele><time>2026-05-01T16:26:28.493Z</time></trkpt><trkpt lat="42.5129625" lon="14.1353517"><ele>3.0</ele><time>2026-05-01T16:26:29.493Z</time></trkpt><trkpt lat="42.5130415" lon="14.135483"><ele>3.0</ele><time>2026-05-01T16:26:30.489Z</time></trkpt><trkpt lat="42.5131066" lon="14.1356136"><ele>3.0</ele><time>2026-05-01T16:26:31.495Z</time></trkpt><trkpt lat="42.5131783" lon="14.1357601"><ele>3.0</ele><time>2026-05-01T16:26:32.489Z</time></trkpt><trkpt lat="42.5132286" lon="14.1359061"><ele>3.0</ele><time>2026-05-01T16:26:33.489Z</time></trkpt><trkpt lat="42.5132745" lon="14.1360511"><ele>3.0</ele><time>2026-05-01T16:26:34.495Z</time></trkpt><trkpt lat="42.5133005" lon="14.1362043"><ele>3.0</ele><time>2026-05-01T16:26:35.485Z</time></trkpt><trkpt lat="42.513329" lon="14.1363444"><ele>3.0</ele><time>2026-05-01T16:26:36.498Z</time></trkpt><trkpt lat="42.5133629" lon="14.136472"><ele>3.0</ele><time>2026-05-01T16:26:37.489Z</time></trkpt><trkpt lat="42.513389" lon="14.1365774"><ele>3.1428571428571423</ele><time>2026-05-01T16:26:38.497Z</time></trkpt><trkpt lat="42.513415" lon="14.136671"><ele>3.2857142857142856</ele><time>2026-05-01T16:26:39.49Z</time></trkpt><trkpt lat="42.5134399" lon="14.1367586"><ele>3.4285714285714284</ele><time>2026-05-01T16:26:40.497Z</time></trkpt><trkpt lat="42.5134683" lon="14.136852"><ele>3.571428571428571</ele><time>2026-05-01T16:26:41.488Z</time></trkpt><trkpt lat="42.5135013" lon="14.1369448"><ele>3.714285714285714</ele><time>2026-05-01T16:26:42.495Z</time></trkpt><trkpt lat="42.5135318" lon="14.1370339"><ele>3.8571428571428568</ele><time>2026-05-01T16:26:43.491Z</time></trkpt><trkpt lat="42.5135657" lon="14.1371133"><ele>4.0</ele><time>2026-05-01T16:26:44.492Z</time></trkpt><trkpt lat="42.5135976" lon="14.1371875"><ele>3.9999999999999996</ele><time>2026-05-01T16:26:45.493Z</time></trkpt><trkpt lat="42.5136452" lon="14.1372908"><ele>4.0</ele><time>2026-05-01T16:26:47.491Z</time></trkpt><trkpt lat="42.5136947" lon="14.137398"><ele>4.0</ele><time>2026-05-01T16:26:50.491Z</time></trkpt><trkpt lat="42.5137363" lon="14.1375247"><ele>4.0</ele><time>2026-05-01T16:26:52.49Z</time></trkpt><trkpt lat="42.5137516" lon="14.1376177"><ele>3.9999999999999996</ele><time>2026-05-01T16:26:53.492Z</time></trkpt><trkpt lat="42.5137525" lon="14.1377302"><ele>4.0</ele><time>2026-05-01T16:26:54.489Z</time></trkpt><trkpt lat="42.513729" lon="14.1378762"><ele>4.333333333333333</ele><time>2026-05-01T16:26:55.488Z</time></trkpt><trkpt lat="42.5136732" lon="14.138046"><ele>4.666666666666667</ele><time>2026-05-01T16:26:56.493Z</time></trkpt><trkpt lat="42.513583" lon="14.1382147"><ele>5.0</ele><time>2026-05-01T16:26:57.492Z</time></trkpt><trkpt lat="42.5134515" lon="14.1384078"><ele>5.0</ele><time>2026-05-01T16:26:58.504Z</time></trkpt><trkpt lat="42.5133733" lon="14.1385862"><ele>5.0</ele><time>2026-05-01T16:26:59.487Z</time></trkpt><trkpt lat="42.5133252" lon="14.1387272"><ele>5.0</ele><time>2026-05-01T16:27:00.502Z</time></trkpt><trkpt lat="42.5132547" lon="14.1388952"><ele>5.0</ele><time>2026-05-01T16:27:01.493Z</time></trkpt><trkpt lat="42.5131962" lon="14.1390802"><ele>5.5</ele><time>2026-05-01T16:27:02.497Z</time></trkpt><trkpt lat="42.5131397" lon="14.1392208"><ele>6.0</ele><time>2026-05-01T16:27:03.49Z</time></trkpt><trkpt lat="42.5130774" lon="14.1393801"><ele>6.5</ele><time>2026-05-01T16:27:04.496Z</time></trkpt><trkpt lat="42.5130222" lon="14.1395078"><ele>7.0</ele><time>2026-05-01T16:27:05.487Z</time></trkpt><trkpt lat="42.5129629" lon="14.1396499"><ele>7.0</ele><time>2026-05-01T16:27:06.495Z</time></trkpt><trkpt lat="42.5129114" lon="14.1398009"><ele>6.999999999999999</ele><time>2026-05-01T16:27:07.49Z</time></trkpt><trkpt lat="42.5128512" lon="14.13995"><ele>6.999999999999999</ele><time>2026-05-01T16:27:08.486Z</time></trkpt><trkpt lat="42.5128015" lon="14.1400775"><ele>7.0</ele><time>2026-05-01T16:27:09.49Z</time></trkpt><trkpt lat="42.5127634" lon="14.1401915"><ele>7.0</ele><time>2026-05-01T16:27:10.496Z</time></trkpt><trkpt lat="42.5127327" lon="14.140293"><ele>6.833333333333334</ele><time>2026-05-01T16:27:11.486Z</time></trkpt><trkpt lat="42.5127018" lon="14.1403758"><ele>6.666666666666667</ele><time>2026-05-01T16:27:12.495Z</time></trkpt><trkpt lat="42.5126604" lon="14.1404979"><ele>6.5</ele><time>2026-05-01T16:27:14.495Z</time></trkpt><trkpt lat="42.5126275" lon="14.1406234"><ele>6.333333333333334</ele><time>2026-05-01T16:27:16.497Z</time></trkpt><trkpt lat="42.512602" lon="14.1407033"><ele>6.166666666666667</ele><time>2026-05-01T16:27:17.483Z</time></trkpt><trkpt lat="42.5125569" lon="14.1408489"><ele>6.0</ele><time>2026-05-01T16:27:19.486Z</time></trkpt><trkpt lat="42.5125039" lon="14.1409637"><ele>6.199999999999999</ele><time>2026-05-01T16:27:21.49Z</time></trkpt><trkpt lat="42.5124668" lon="14.1410458"><ele>6.3999999999999995</ele><time>2026-05-01T16:27:24.485Z</time></trkpt><trkpt lat="42.5124163" lon="14.1411699"><ele>6.6</ele><time>2026-05-01T16:27:26.493Z</time></trkpt><trkpt lat="42.5123791" lon="14.1412976"><ele>6.8</ele><time>2026-05-01T16:27:28.484Z</time></trkpt><trkpt lat="42.5123895" lon="14.1414477"><ele>7.0</ele><time>2026-05-01T16:27:30.487Z</time></trkpt><trkpt lat="42.5124896" lon="14.1415635"><ele>7.0</ele><time>2026-05-01T16:27:32.486Z</time></trkpt><trkpt lat="42.512573" lon="14.1415831"><ele>6.999999999999999</ele><time>2026-05-01T16:27:33.483Z</time></trkpt><trkpt lat="42.5126694" lon="14.1415693"><ele>6.999999999999999</ele><time>2026-05-01T16:27:34.48Z</time></trkpt><trkpt lat="42.5127811" lon="14.1415277"><ele>7.0</ele><time>2026-05-01T16:27:35.483Z</time></trkpt><trkpt lat="42.512895" lon="14.1414916"><ele>7.0</ele><time>2026-05-01T16:27:36.49Z</time></trkpt><trkpt lat="42.5130175" lon="14.1414709"><ele>6.75</ele><time>2026-05-01T16:27:37.485Z</time></trkpt><trkpt lat="42.5131467" lon="14.1414608"><ele>6.5</ele><time>2026-05-01T16:27:38.485Z</time></trkpt><trkpt lat="42.5132745" lon="14.1414743"><ele>6.25</ele><time>2026-05-01T16:27:39.496Z</time></trkpt><trkpt lat="42.5133955" lon="14.1415007"><ele>6.0</ele><time>2026-05-01T16:27:40.488Z</time></trkpt><trkpt lat="42.5135071" lon="14.1415417"><ele>6.0</ele><time>2026-05-01T16:27:41.488Z</time></trkpt><trkpt lat="42.5135989" lon="14.1415939"><ele>6.0</ele><time>2026-05-01T16:27:42.488Z</time></trkpt><trkpt lat="42.5136874" lon="14.1416516"><ele>6.0</ele><time>2026-05-01T16:27:43.489Z</time></trkpt><trkpt lat="42.5137838" lon="14.1417277"><ele>6.0</ele><time>2026-05-01T16:27:44.486Z</time></trkpt><trkpt lat="42.5138894" lon="14.1418051"><ele>6.0</ele><time>2026-05-01T16:27:45.485Z</time></trkpt><trkpt lat="42.5139818" lon="14.1418754"><ele>5.3999999999999995</ele><time>2026-05-01T16:27:46.488Z</time></trkpt><trkpt lat="42.5140652" lon="14.1419419"><ele>4.8</ele><time>2026-05-01T16:27:47.491Z</time></trkpt><trkpt lat="42.5141363" lon="14.14201"><ele>4.199999999999999</ele><time>2026-05-01T16:27:48.501Z</time></trkpt><trkpt lat="42.5141954" lon="14.1420765"><ele>3.5999999999999996</ele><time>2026-05-01T16:27:49.489Z</time></trkpt><trkpt lat="42.5142665" lon="14.1421922"><ele>3.0</ele><time>2026-05-01T16:27:51.486Z</time></trkpt><trkpt lat="42.5142946" lon="14.1422949"><ele>3.0</ele><time>2026-05-01T16:27:53.491Z</time></trkpt><trkpt lat="42.5143069" lon="14.1423803"><ele>3.0</ele><time>2026-05-01T16:27:54.495Z</time></trkpt><trkpt lat="42.5143425" lon="14.1424692"><ele>3.0</ele><time>2026-05-01T16:27:55.479Z</time></trkpt><trkpt lat="42.5143935" lon="14.1425316"><ele>3.0</ele><time>2026-05-01T16:27:56.496Z</time></trkpt><trkpt lat="42.5144742" lon="14.1425167"><ele>3.0</ele><time>2026-05-01T16:27:57.487Z</time></trkpt><trkpt lat="42.5145526" lon="14.1424753"><ele>3.0</ele><time>2026-05-01T16:27:58.482Z</time></trkpt><trkpt lat="42.5146445" lon="14.1424353"><ele>2.8</ele><time>2026-05-01T16:27:59.482Z</time></trkpt><trkpt lat="42.5147439" lon="14.1424364"><ele>2.5999999999999996</ele><time>2026-05-01T16:28:00.473Z</time></trkpt><trkpt lat="42.5148509" lon="14.1424789"><ele>2.4000000000000004</ele><time>2026-05-01T16:28:01.489Z</time></trkpt><trkpt lat="42.514948" lon="14.1425493"><ele>2.2</ele><time>2026-05-01T16:28:02.481Z</time></trkpt><trkpt lat="42.5150266" lon="14.1426324"><ele>2.0</ele><time>2026-05-01T16:28:03.489Z</time></trkpt><trkpt lat="42.5150967" lon="14.1427001"><ele>1.9999999999999998</ele><time>2026-05-01T16:28:04.475Z</time></trkpt><trkpt lat="42.5151547" lon="14.1427569"><ele>2.0</ele><time>2026-05-01T16:28:05.484Z</time></trkpt><trkpt lat="42.5152185" lon="14.1428132"><ele>2.0</ele><time>2026-05-01T16:28:06.479Z</time></trkpt><trkpt lat="42.5152871" lon="14.1428667"><ele>2.0</ele><time>2026-05-01T16:28:07.485Z</time></trkpt><trkpt lat="42.5153573" lon="14.1429178"><ele>1.9999999999999998</ele><time>2026-05-01T16:28:08.48Z</time></trkpt><trkpt lat="42.515425" lon="14.1429728"><ele>2.0</ele><time>2026-05-01T16:28:09.486Z</time></trkpt><trkpt lat="42.515497" lon="14.1430347"><ele>2.2</ele><time>2026-05-01T16:28:10.483Z</time></trkpt><trkpt lat="42.5155781" lon="14.1430988"><ele>2.4000000000000004</ele><time>2026-05-01T16:28:11.486Z</time></trkpt><trkpt lat="42.5156574" lon="14.1431642"><ele>2.5999999999999996</ele><time>2026-05-01T16:28:12.487Z</time></trkpt><trkpt lat="42.5157329" lon="14.1432256"><ele>2.8</ele><time>2026-05-01T16:28:13.484Z</time></trkpt><trkpt lat="42.5158263" lon="14.1432846"><ele>3.0</ele><time>2026-05-01T16:28:14.479Z</time></trkpt><trkpt lat="42.5159408" lon="14.1433539"><ele>3.333333333333333</ele><time>2026-05-01T16:28:15.493Z</time></trkpt><trkpt lat="42.5160842" lon="14.1434525"><ele>3.6666666666666665</ele><time>2026-05-01T16:28:16.481Z</time></trkpt><trkpt lat="42.5162627" lon="14.1435836"><ele>4.0</ele><time>2026-05-01T16:28:17.483Z</time></trkpt><trkpt lat="42.5164024" lon="14.1436978"><ele>4.666666666666666</ele><time>2026-05-01T16:28:18.487Z</time></trkpt><trkpt lat="42.5165559" lon="14.1437891"><ele>5.333333333333333</ele><time>2026-05-01T16:28:19.485Z</time></trkpt><trkpt lat="42.516702" lon="14.1439096"><ele>6.0</ele><time>2026-05-01T16:28:20.491Z</time></trkpt><trkpt lat="42.5168538" lon="14.1440383"><ele>5.333333333333333</ele><time>2026-05-01T16:28:21.49Z</time></trkpt><trkpt lat="42.5170028" lon="14.1441482"><ele>4.666666666666666</ele><time>2026-05-01T16:28:22.494Z</time></trkpt><trkpt lat="42.5171334" lon="14.1442597"><ele>4.0</ele><time>2026-05-01T16:28:23.491Z</time></trkpt><trkpt lat="42.5172741" lon="14.1443748"><ele>3.75</ele><time>2026-05-01T16:28:24.49Z</time></trkpt><trkpt lat="42.5174022" lon="14.1444749"><ele>3.5</ele><time>2026-05-01T16:28:25.489Z</time></trkpt><trkpt lat="42.5175422" lon="14.1445581"><ele>3.25</ele><time>2026-05-01T16:28:26.497Z</time></trkpt><trkpt lat="42.5176684" lon="14.1446345"><ele>3.0</ele><time>2026-05-01T16:28:27.488Z</time></trkpt><trkpt lat="42.5178084" lon="14.1447237"><ele>3.0</ele><time>2026-05-01T16:28:28.511Z</time></trkpt><trkpt lat="42.5179601" lon="14.1448439"><ele>3.0</ele><time>2026-05-01T16:28:29.487Z</time></trkpt><trkpt lat="42.5181146" lon="14.1449325"><ele>3.0</ele><time>2026-05-01T16:28:30.493Z</time></trkpt><trkpt lat="42.5182428" lon="14.1450153"><ele>3.0</ele><time>2026-05-01T16:28:31.49Z</time></trkpt><trkpt lat="42.5183567" lon="14.1450983"><ele>3.0</ele><time>2026-05-01T16:28:32.484Z</time></trkpt><trkpt lat="42.5184648" lon="14.1451799"><ele>3.0</ele><time>2026-05-01T16:28:33.488Z</time></trkpt><trkpt lat="42.5185718" lon="14.145262"><ele>3.0</ele><time>2026-05-01T16:28:34.486Z</time></trkpt><trkpt lat="42.5186609" lon="14.1453289"><ele>3.0</ele><time>2026-05-01T16:28:35.487Z</time></trkpt><trkpt lat="42.5187571" lon="14.1454025"><ele>3.0</ele><time>2026-05-01T16:28:36.489Z</time></trkpt><trkpt lat="42.5188382" lon="14.1454555"><ele>3.0</ele><time>2026-05-01T16:28:37.487Z</time></trkpt><trkpt lat="42.5189354" lon="14.1455322"><ele>3.0</ele><time>2026-05-01T16:28:38.492Z</time></trkpt><trkpt lat="42.5190131" lon="14.1455913"><ele>3.0</ele><time>2026-05-01T16:28:39.487Z</time></trkpt><trkpt lat="42.5190995" lon="14.1456498"><ele>3.0</ele><time>2026-05-01T16:28:40.498Z</time></trkpt><trkpt lat="42.5191799" lon="14.1456932"><ele>3.0</ele><time>2026-05-01T16:28:41.488Z</time></trkpt><trkpt lat="42.5192448" lon="14.1457326"><ele>3.0</ele><time>2026-05-01T16:28:42.493Z</time></trkpt><trkpt lat="42.5193493" lon="14.145798"><ele>3.0</ele><time>2026-05-01T16:28:44.484Z</time></trkpt><trkpt lat="42.5194238" lon="14.145861"><ele>3.0</ele><time>2026-05-01T16:28:46.484Z</time></trkpt><trkpt lat="42.5194966" lon="14.1459196"><ele>3.0</ele><time>2026-05-01T16:28:51.494Z</time></trkpt><trkpt lat="42.5195475" lon="14.145992"><ele>3.3333333333333335</ele><time>2026-05-01T16:28:58.501Z</time></trkpt><trkpt lat="42.5195448" lon="14.1461022"><ele>3.666666666666667</ele><time>2026-05-01T16:29:05.479Z</time></trkpt><trkpt lat="42.5194844" lon="14.1461886"><ele>4.0</ele><time>2026-05-01T16:29:07.482Z</time></trkpt><trkpt lat="42.5194362" lon="14.1462464"><ele>4.333333333333334</ele><time>2026-05-01T16:29:08.485Z</time></trkpt><trkpt lat="42.5193617" lon="14.1463431"><ele>4.666666666666667</ele><time>2026-05-01T16:29:10.48Z</time></trkpt><trkpt lat="42.5192942" lon="14.1464357"><ele>5.0</ele><time>2026-05-01T16:29:12.476Z</time></trkpt><trkpt lat="42.5192499" lon="14.1465036"><ele>4.6</ele><time>2026-05-01T16:29:14.476Z</time></trkpt><trkpt lat="42.519194" lon="14.146567"><ele>4.2</ele><time>2026-05-01T16:29:19.49Z</time></trkpt><trkpt lat="42.5191432" lon="14.1466335"><ele>3.8</ele><time>2026-05-01T16:29:24.484Z</time></trkpt><trkpt lat="42.5190684" lon="14.1467299"><ele>3.4</ele><time>2026-05-01T16:29:27.494Z</time></trkpt><trkpt lat="42.5190047" lon="14.146859"><ele>3.0</ele><time>2026-05-01T16:29:29.494Z</time></trkpt><trkpt lat="42.5190048" lon="14.1470165"><ele>3.0</ele><time>2026-05-01T16:29:31.489Z</time></trkpt><trkpt lat="42.5190606" lon="14.1471693"><ele>3.0</ele><time>2026-05-01T16:29:33.494Z</time></trkpt><trkpt lat="42.5191125" lon="14.1472471"><ele>3.0</ele><time>2026-05-01T16:29:34.482Z</time></trkpt><trkpt lat="42.5191817" lon="14.1472972"><ele>3.0</ele><time>2026-05-01T16:29:35.48Z</time></trkpt><trkpt lat="42.5192712" lon="14.1473405"><ele>3.0</ele><time>2026-05-01T16:29:36.47Z</time></trkpt><trkpt lat="42.5193706" lon="14.1473894"><ele>3.0</ele><time>2026-05-01T16:29:37.48Z</time></trkpt><trkpt lat="42.5194533" lon="14.147455"><ele>3.0</ele><time>2026-05-01T16:29:38.483Z</time></trkpt><trkpt lat="42.5195173" lon="14.1475316"><ele>3.0</ele><time>2026-05-01T16:29:39.486Z</time></trkpt><trkpt lat="42.51958" lon="14.1476159"><ele>3.0</ele><time>2026-05-01T16:29:40.488Z</time></trkpt><trkpt lat="42.5196387" lon="14.1477107"><ele>3.0</ele><time>2026-05-01T16:29:41.487Z</time></trkpt><trkpt lat="42.5196943" lon="14.1478072"><ele>2.8</ele><time>2026-05-01T16:29:42.486Z</time></trkpt><trkpt lat="42.5197515" lon="14.1479033"><ele>2.5999999999999996</ele><time>2026-05-01T16:29:43.487Z</time></trkpt><trkpt lat="42.5198085" lon="14.1480022"><ele>2.4000000000000004</ele><time>2026-05-01T16:29:44.485Z</time></trkpt><trkpt lat="42.5198627" lon="14.1481007"><ele>2.2</ele><time>2026-05-01T16:29:45.495Z</time></trkpt><trkpt lat="42.5199182" lon="14.1481997"><ele>2.0</ele><time>2026-05-01T16:29:46.487Z</time></trkpt><trkpt lat="42.5199687" lon="14.1483088"><ele>2.0</ele><time>2026-05-01T16:29:47.487Z</time></trkpt><trkpt lat="42.5200122" lon="14.1484254"><ele>2.0</ele><time>2026-05-01T16:29:48.489Z</time></trkpt><trkpt lat="42.5200577" lon="14.1485429"><ele>2.0</ele><time>2026-05-01T16:29:49.481Z</time></trkpt><trkpt lat="42.5201069" lon="14.148665"><ele>2.0</ele><time>2026-05-01T16:29:50.49Z</time></trkpt><trkpt lat="42.5201493" lon="14.1487826"><ele>2.0</ele><time>2026-05-01T16:29:51.49Z</time></trkpt><trkpt lat="42.520182" lon="14.1488877"><ele>1.9999999999999998</ele><time>2026-05-01T16:29:52.484Z</time></trkpt><trkpt lat="42.5202159" lon="14.1489893"><ele>2.0</ele><time>2026-05-01T16:29:53.49Z</time></trkpt><trkpt lat="42.5202478" lon="14.1490893"><ele>2.0</ele><time>2026-05-01T16:29:54.499Z</time></trkpt><trkpt lat="42.520281" lon="14.1491874"><ele>2.0</ele><time>2026-05-01T16:29:55.486Z</time></trkpt><trkpt lat="42.5203183" lon="14.149289"><ele>1.9999999999999998</ele><time>2026-05-01T16:29:56.497Z</time></trkpt><trkpt lat="42.5203548" lon="14.1493962"><ele>2.0</ele><time>2026-05-01T16:29:57.488Z</time></trkpt><trkpt lat="42.5203836" lon="14.1494894"><ele>1.9999999999999998</ele><time>2026-05-01T16:29:58.5Z</time></trkpt><trkpt lat="42.5204322" lon="14.1496395"><ele>2.0</ele><time>2026-05-01T16:30:00.499Z</time></trkpt><trkpt lat="42.5204674" lon="14.1497445"><ele>2.0</ele><time>2026-05-01T16:30:02.494Z</time></trkpt><trkpt lat="42.5204973" lon="14.1498394"><ele>2.0</ele><time>2026-05-01T16:30:05.486Z</time></trkpt><trkpt lat="42.5205261" lon="14.1499256"><ele>1.9999999999999998</ele><time>2026-05-01T16:30:11.497Z</time></trkpt><trkpt lat="42.5205584" lon="14.1500116"><ele>2.0</ele><time>2026-05-01T16:30:16.483Z</time></trkpt><trkpt lat="42.5206064" lon="14.1501382"><ele>1.9999999999999998</ele><time>2026-05-01T16:30:26.476Z</time></trkpt><trkpt lat="42.5206327" lon="14.1502177"><ele>2.0</ele><time>2026-05-01T16:30:27.487Z</time></trkpt><trkpt lat="42.5206691" lon="14.1503238"><ele>2.0</ele><time>2026-05-01T16:30:28.485Z</time></trkpt><trkpt lat="42.5207139" lon="14.150443"><ele>2.0</ele><time>2026-05-01T16:30:29.483Z</time></trkpt><trkpt lat="42.5207455" lon="14.1505619"><ele>1.9999999999999998</ele><time>2026-05-01T16:30:30.485Z</time></trkpt><trkpt lat="42.520775" lon="14.1506842"><ele>2.0</ele><time>2026-05-01T16:30:31.492Z</time></trkpt><trkpt lat="42.5208011" lon="14.1508028"><ele>1.9999999999999998</ele><time>2026-05-01T16:30:32.481Z</time></trkpt><trkpt lat="42.520838" lon="14.1509187"><ele>2.0</ele><time>2026-05-01T16:30:33.481Z</time></trkpt><trkpt lat="42.520873" lon="14.1510313"><ele>2.0</ele><time>2026-05-01T16:30:34.486Z</time></trkpt><trkpt lat="42.5209082" lon="14.1511403"><ele>2.0</ele><time>2026-05-01T16:30:35.488Z</time></trkpt><trkpt lat="42.520942" lon="14.1512532"><ele>1.9999999999999998</ele><time>2026-05-01T16:30:36.489Z</time></trkpt><trkpt lat="42.5209779" lon="14.1513623"><ele>2.0</ele><time>2026-05-01T16:30:37.49Z</time></trkpt><trkpt lat="42.5210092" lon="14.1514594"><ele>1.9999999999999998</ele><time>2026-05-01T16:30:38.483Z</time></trkpt><trkpt lat="42.5210478" lon="14.1515514"><ele>2.0</ele><time>2026-05-01T16:30:39.489Z</time></trkpt><trkpt lat="42.521088" lon="14.1516425"><ele>2.0</ele><time>2026-05-01T16:30:40.482Z</time></trkpt><trkpt lat="42.5211227" lon="14.151727"><ele>2.0</ele><time>2026-05-01T16:30:41.484Z</time></trkpt><trkpt lat="42.5211551" lon="14.1518042"><ele>1.9999999999999998</ele><time>2026-05-01T16:30:42.484Z</time></trkpt><trkpt lat="42.5212169" lon="14.1519411"><ele>2.0</ele><time>2026-05-01T16:30:44.485Z</time></trkpt><trkpt lat="42.5212543" lon="14.1520127"><ele>1.6666666666666665</ele><time>2026-05-01T16:30:45.483Z</time></trkpt><trkpt lat="42.5212884" lon="14.1520993"><ele>1.3333333333333333</ele><time>2026-05-01T16:30:46.487Z</time></trkpt><trkpt lat="42.5213231" lon="14.1521949"><ele>1.0</ele><time>2026-05-01T16:30:47.493Z</time></trkpt><trkpt lat="42.5213627" lon="14.1523"><ele>0.6666666666666666</ele><time>2026-05-01T16:30:48.487Z</time></trkpt><trkpt lat="42.5214067" lon="14.1524187"><ele>0.3333333333333333</ele><time>2026-05-01T16:30:49.494Z</time></trkpt><trkpt lat="42.5214581" lon="14.1525327"><ele>0.0</ele><time>2026-05-01T16:30:50.486Z</time></trkpt><trkpt lat="42.5215012" lon="14.1526429"><ele>0.0</ele><time>2026-05-01T16:30:51.484Z</time></trkpt><trkpt lat="42.5215387" lon="14.1527426"><ele>0.0</ele><time>2026-05-01T16:30:52.491Z</time></trkpt><trkpt lat="42.5215713" lon="14.1528382"><ele>0.0</ele><time>2026-05-01T16:30:53.491Z</time></trkpt><trkpt lat="42.5216005" lon="14.1529363"><ele>0.0</ele><time>2026-05-01T16:30:54.485Z</time></trkpt><trkpt lat="42.52163" lon="14.1530289"><ele>0.0</ele><time>2026-05-01T16:30:55.49Z</time></trkpt><trkpt lat="42.5216626" lon="14.1531242"><ele>0.0</ele><time>2026-05-01T16:30:56.484Z</time></trkpt><trkpt lat="42.5217014" lon="14.1532216"><ele>0.0</ele><time>2026-05-01T16:30:57.488Z</time></trkpt><trkpt lat="42.5217366" lon="14.1533193"><ele>0.0</ele><time>2026-05-01T16:30:58.486Z</time></trkpt><trkpt lat="42.5217666" lon="14.1534008"><ele>0.0</ele><time>2026-05-01T16:30:59.487Z</time></trkpt><trkpt lat="42.5217975" lon="14.1535178"><ele>0.0</ele><time>2026-05-01T16:31:01.488Z</time></trkpt><trkpt lat="42.5218242" lon="14.1535993"><ele>0.0</ele><time>2026-05-01T16:31:03.487Z</time></trkpt><trkpt lat="42.5218551" lon="14.1536842"><ele>0.0</ele><time>2026-05-01T16:31:06.481Z</time></trkpt><trkpt lat="42.5219091" lon="14.1537432"><ele>0.0</ele><time>2026-05-01T16:31:10.488Z</time></trkpt><trkpt lat="42.5219902" lon="14.1536903"><ele>0.0</ele><time>2026-05-01T16:31:13.478Z</time></trkpt><trkpt lat="42.5220539" lon="14.1536172"><ele>0.0</ele><time>2026-05-01T16:31:15.482Z</time></trkpt><trkpt lat="42.5221464" lon="14.1535343"><ele>0.0</ele><time>2026-05-01T16:31:17.485Z</time></trkpt><trkpt lat="42.5222046" lon="14.1534815"><ele>0.0</ele><time>2026-05-01T16:31:18.483Z</time></trkpt><trkpt lat="42.5222942" lon="14.1534107"><ele>0.0</ele><time>2026-05-01T16:31:20.479Z</time></trkpt><trkpt lat="42.5223349" lon="14.1533327"><ele>0.0</ele><time>2026-05-01T16:31:22.478Z</time></trkpt><trkpt lat="42.522317" lon="14.1532186"><ele>-0.14285714285714285</ele><time>2026-05-01T16:31:25.481Z</time></trkpt><trkpt lat="42.5222738" lon="14.153141"><ele>-0.2857142857142857</ele><time>2026-05-01T16:31:28.485Z</time></trkpt><trkpt lat="42.5222333" lon="14.1530752"><ele>-0.42857142857142855</ele><time>2026-05-01T16:31:31.486Z</time></trkpt><trkpt lat="42.5222047" lon="14.1529822"><ele>-0.5714285714285714</ele><time>2026-05-01T16:31:34.479Z</time></trkpt><trkpt lat="42.5221659" lon="14.1529027"><ele>-0.7142857142857142</ele><time>2026-05-01T16:31:37.479Z</time></trkpt><trkpt lat="42.5221323" lon="14.1528071"><ele>-0.8571428571428571</ele><time>2026-05-01T16:31:41.493Z</time></trkpt><trkpt lat="42.5220972" lon="14.1527356"><ele>-1.0</ele><time>2026-05-01T16:31:44.495Z</time></trkpt><trkpt lat="42.5220649" lon="14.152656"><ele>-0.9999999999999999</ele><time>2026-05-01T16:31:47.495Z</time></trkpt><trkpt lat="42.522029" lon="14.1525771"><ele>-1.0</ele><time>2026-05-01T16:31:50.498Z</time></trkpt><trkpt lat="42.5219905" lon="14.1524822"><ele>-1.0</ele><time>2026-05-01T16:31:54.49Z</time></trkpt><trkpt lat="42.5219578" lon="14.1523905"><ele>-1.0</ele><time>2026-05-01T16:31:58.489Z</time></trkpt><trkpt lat="42.5219331" lon="14.1523066"><ele>-0.9999999999999999</ele><time>2026-05-01T16:32:03.491Z</time></trkpt><trkpt lat="42.5219016" lon="14.1522302"><ele>-1.0</ele><time>2026-05-01T16:32:09.501Z</time></trkpt><trkpt lat="42.5218314" lon="14.152107"><ele>0.0</ele><time>2026-05-01T16:32:15.489Z</time></trkpt><trkpt lat="42.5217431" lon="14.152061"><ele>0.0</ele><time>2026-05-01T16:32:17.491Z</time></trkpt><trkpt lat="42.5216772" lon="14.1521571"><ele>0.0</ele><time>2026-05-01T16:32:19.487Z</time></trkpt><trkpt lat="42.5216957" lon="14.1522569"><ele>0.0</ele><time>2026-05-01T16:32:21.493Z</time></trkpt></trkseg></trk></gpx>